<?xml version="1.0" encoding="UTF-8" standalone="no" ?>
<gpx xmlns="http://www.topografix.com/GPX/1/1" xmlns:xsi="http://www.w3.org/2001/XMLSchema-instance" xsi:schemaLocation="http://www.topografix.com/GPX/1/1 http://www.topografix.com/GPX/1/1/gpx.xsd" version="1.1" creator="VisuGPX - https://www.visugpx.com">
  <metadata>
    <name>Du Buëch au Trièves </name>
  </metadata>
  <trk>
    <name><![CDATA[Du Buëch au Trièves _1]]></name>
    <trkseg>
      <trkpt lat="44.42736" lon="5.7117">
        <ele>671.9</ele>
        <time>2023-09-28T06:58:05Z</time>
      </trkpt>
      <trkpt lat="44.42736" lon="5.71171">
        <ele>671.9</ele>
        <time>2023-09-28T06:58:06Z</time>
      </trkpt>
      <trkpt lat="44.42736" lon="5.71172">
        <ele>671.9</ele>
        <time>2023-09-28T06:58:07Z</time>
      </trkpt>
      <trkpt lat="44.42736" lon="5.71172">
        <ele>671.9</ele>
        <time>2023-09-28T06:58:08Z</time>
      </trkpt>
      <trkpt lat="44.42736" lon="5.71173">
        <ele>671.9</ele>
        <time>2023-09-28T06:58:09Z</time>
      </trkpt>
      <trkpt lat="44.42735" lon="5.71174">
        <ele>671.9</ele>
        <time>2023-09-28T06:58:10Z</time>
      </trkpt>
      <trkpt lat="44.42735" lon="5.71174">
        <ele>671.9</ele>
        <time>2023-09-28T06:58:12Z</time>
      </trkpt>
      <trkpt lat="44.42735" lon="5.71175">
        <ele>671.9</ele>
        <time>2023-09-28T06:58:13Z</time>
      </trkpt>
      <trkpt lat="44.42735" lon="5.71175">
        <ele>671.9</ele>
        <time>2023-09-28T06:58:15Z</time>
      </trkpt>
      <trkpt lat="44.42735" lon="5.71176">
        <ele>671.9</ele>
        <time>2023-09-28T06:58:16Z</time>
      </trkpt>
      <trkpt lat="44.42735" lon="5.71176">
        <ele>671.9</ele>
        <time>2023-09-28T06:58:18Z</time>
      </trkpt>
      <trkpt lat="44.42735" lon="5.71177">
        <ele>671.9</ele>
        <time>2023-09-28T06:58:19Z</time>
      </trkpt>
      <trkpt lat="44.42735" lon="5.71177">
        <ele>671.9</ele>
        <time>2023-09-28T06:58:20Z</time>
      </trkpt>
      <trkpt lat="44.42735" lon="5.71178">
        <ele>671.9</ele>
        <time>2023-09-28T06:58:30Z</time>
      </trkpt>
      <trkpt lat="44.42735" lon="5.71179">
        <ele>671.9</ele>
        <time>2023-09-28T06:58:31Z</time>
      </trkpt>
      <trkpt lat="44.42735" lon="5.71179">
        <ele>671.9</ele>
        <time>2023-09-28T06:58:32Z</time>
      </trkpt>
      <trkpt lat="44.42735" lon="5.7118">
        <ele>671.9</ele>
        <time>2023-09-28T06:58:33Z</time>
      </trkpt>
      <trkpt lat="44.42736" lon="5.71185">
        <ele>671.9</ele>
        <time>2023-09-28T06:58:34Z</time>
      </trkpt>
      <trkpt lat="44.42737" lon="5.71186">
        <ele>672</ele>
        <time>2023-09-28T06:58:35Z</time>
      </trkpt>
      <trkpt lat="44.42738" lon="5.7119">
        <ele>672</ele>
        <time>2023-09-28T06:58:36Z</time>
      </trkpt>
      <trkpt lat="44.42739" lon="5.71191">
        <ele>672</ele>
        <time>2023-09-28T06:58:37Z</time>
      </trkpt>
      <trkpt lat="44.42741" lon="5.71192">
        <ele>672</ele>
        <time>2023-09-28T06:58:38Z</time>
      </trkpt>
      <trkpt lat="44.42742" lon="5.71195">
        <ele>672</ele>
        <time>2023-09-28T06:58:40Z</time>
      </trkpt>
      <trkpt lat="44.42744" lon="5.71198">
        <ele>672</ele>
        <time>2023-09-28T06:58:41Z</time>
      </trkpt>
      <trkpt lat="44.42747" lon="5.71204">
        <ele>672</ele>
        <time>2023-09-28T06:58:42Z</time>
      </trkpt>
      <trkpt lat="44.42749" lon="5.71208">
        <ele>672</ele>
        <time>2023-09-28T06:58:43Z</time>
      </trkpt>
      <trkpt lat="44.42751" lon="5.71213">
        <ele>672</ele>
        <time>2023-09-28T06:58:44Z</time>
      </trkpt>
      <trkpt lat="44.42753" lon="5.71219">
        <ele>672</ele>
        <time>2023-09-28T06:58:45Z</time>
      </trkpt>
      <trkpt lat="44.42756" lon="5.71225">
        <ele>672.1</ele>
        <time>2023-09-28T06:58:46Z</time>
      </trkpt>
      <trkpt lat="44.42758" lon="5.71232">
        <ele>672.1</ele>
        <time>2023-09-28T06:58:48Z</time>
      </trkpt>
      <trkpt lat="44.4276" lon="5.71238">
        <ele>672.1</ele>
        <time>2023-09-28T06:58:49Z</time>
      </trkpt>
      <trkpt lat="44.42763" lon="5.71245">
        <ele>672.2</ele>
        <time>2023-09-28T06:58:50Z</time>
      </trkpt>
      <trkpt lat="44.42765" lon="5.7125">
        <ele>672.2</ele>
        <time>2023-09-28T06:58:51Z</time>
      </trkpt>
      <trkpt lat="44.42768" lon="5.71257">
        <ele>672.2</ele>
        <time>2023-09-28T06:58:52Z</time>
      </trkpt>
      <trkpt lat="44.4277" lon="5.71263">
        <ele>672.2</ele>
        <time>2023-09-28T06:58:53Z</time>
      </trkpt>
      <trkpt lat="44.42772" lon="5.71268">
        <ele>672.3</ele>
        <time>2023-09-28T06:58:54Z</time>
      </trkpt>
      <trkpt lat="44.42774" lon="5.71275">
        <ele>672.3</ele>
        <time>2023-09-28T06:58:55Z</time>
      </trkpt>
      <trkpt lat="44.42777" lon="5.71281">
        <ele>672.3</ele>
        <time>2023-09-28T06:58:56Z</time>
      </trkpt>
      <trkpt lat="44.42779" lon="5.71287">
        <ele>672.3</ele>
        <time>2023-09-28T06:58:57Z</time>
      </trkpt>
      <trkpt lat="44.42781" lon="5.71293">
        <ele>672.4</ele>
        <time>2023-09-28T06:58:58Z</time>
      </trkpt>
      <trkpt lat="44.42784" lon="5.713">
        <ele>672.4</ele>
        <time>2023-09-28T06:59:00Z</time>
      </trkpt>
      <trkpt lat="44.42786" lon="5.71307">
        <ele>672.4</ele>
        <time>2023-09-28T06:59:01Z</time>
      </trkpt>
      <trkpt lat="44.42788" lon="5.71313">
        <ele>672.5</ele>
        <time>2023-09-28T06:59:02Z</time>
      </trkpt>
      <trkpt lat="44.42789" lon="5.7132">
        <ele>672.5</ele>
        <time>2023-09-28T06:59:03Z</time>
      </trkpt>
      <trkpt lat="44.42792" lon="5.7133">
        <ele>672.5</ele>
        <time>2023-09-28T06:59:05Z</time>
      </trkpt>
      <trkpt lat="44.42794" lon="5.71337">
        <ele>672.5</ele>
        <time>2023-09-28T06:59:06Z</time>
      </trkpt>
      <trkpt lat="44.42795" lon="5.71344">
        <ele>672.6</ele>
        <time>2023-09-28T06:59:07Z</time>
      </trkpt>
      <trkpt lat="44.42796" lon="5.71349">
        <ele>672.6</ele>
        <time>2023-09-28T06:59:08Z</time>
      </trkpt>
      <trkpt lat="44.42798" lon="5.71355">
        <ele>672.6</ele>
        <time>2023-09-28T06:59:09Z</time>
      </trkpt>
      <trkpt lat="44.42799" lon="5.71364">
        <ele>672.5</ele>
        <time>2023-09-28T06:59:11Z</time>
      </trkpt>
      <trkpt lat="44.428" lon="5.71369">
        <ele>672.5</ele>
        <time>2023-09-28T06:59:12Z</time>
      </trkpt>
      <trkpt lat="44.42802" lon="5.7138">
        <ele>672.4</ele>
        <time>2023-09-28T06:59:13Z</time>
      </trkpt>
      <trkpt lat="44.42803" lon="5.71386">
        <ele>672.3</ele>
        <time>2023-09-28T06:59:14Z</time>
      </trkpt>
      <trkpt lat="44.42804" lon="5.71392">
        <ele>672.3</ele>
        <time>2023-09-28T06:59:15Z</time>
      </trkpt>
      <trkpt lat="44.42805" lon="5.71398">
        <ele>672.2</ele>
        <time>2023-09-28T06:59:16Z</time>
      </trkpt>
      <trkpt lat="44.42806" lon="5.71405">
        <ele>672.2</ele>
        <time>2023-09-28T06:59:17Z</time>
      </trkpt>
      <trkpt lat="44.42807" lon="5.71411">
        <ele>672.2</ele>
        <time>2023-09-28T06:59:18Z</time>
      </trkpt>
      <trkpt lat="44.42808" lon="5.71417">
        <ele>672.2</ele>
        <time>2023-09-28T06:59:19Z</time>
      </trkpt>
      <trkpt lat="44.42809" lon="5.71423">
        <ele>672.2</ele>
        <time>2023-09-28T06:59:20Z</time>
      </trkpt>
      <trkpt lat="44.4281" lon="5.7143">
        <ele>672.2</ele>
        <time>2023-09-28T06:59:21Z</time>
      </trkpt>
      <trkpt lat="44.42811" lon="5.71436">
        <ele>672.2</ele>
        <time>2023-09-28T06:59:22Z</time>
      </trkpt>
      <trkpt lat="44.42814" lon="5.71445">
        <ele>672.2</ele>
        <time>2023-09-28T06:59:24Z</time>
      </trkpt>
      <trkpt lat="44.42815" lon="5.71449">
        <ele>672.2</ele>
        <time>2023-09-28T06:59:25Z</time>
      </trkpt>
      <trkpt lat="44.42816" lon="5.71456">
        <ele>672.1</ele>
        <time>2023-09-28T06:59:26Z</time>
      </trkpt>
      <trkpt lat="44.42818" lon="5.71463">
        <ele>672.1</ele>
        <time>2023-09-28T06:59:27Z</time>
      </trkpt>
      <trkpt lat="44.4282" lon="5.71471">
        <ele>672</ele>
        <time>2023-09-28T06:59:29Z</time>
      </trkpt>
      <trkpt lat="44.42821" lon="5.71476">
        <ele>672</ele>
        <time>2023-09-28T06:59:30Z</time>
      </trkpt>
      <trkpt lat="44.42822" lon="5.71482">
        <ele>671.9</ele>
        <time>2023-09-28T06:59:31Z</time>
      </trkpt>
      <trkpt lat="44.42824" lon="5.71488">
        <ele>671.7</ele>
        <time>2023-09-28T06:59:32Z</time>
      </trkpt>
      <trkpt lat="44.42826" lon="5.71495">
        <ele>671.4</ele>
        <time>2023-09-28T06:59:33Z</time>
      </trkpt>
      <trkpt lat="44.42827" lon="5.71502">
        <ele>671.2</ele>
        <time>2023-09-28T06:59:34Z</time>
      </trkpt>
      <trkpt lat="44.42829" lon="5.71511">
        <ele>670.9</ele>
        <time>2023-09-28T06:59:35Z</time>
      </trkpt>
      <trkpt lat="44.42832" lon="5.71518">
        <ele>670.7</ele>
        <time>2023-09-28T06:59:36Z</time>
      </trkpt>
      <trkpt lat="44.42834" lon="5.71525">
        <ele>670.5</ele>
        <time>2023-09-28T06:59:37Z</time>
      </trkpt>
      <trkpt lat="44.42837" lon="5.71532">
        <ele>670.2</ele>
        <time>2023-09-28T06:59:38Z</time>
      </trkpt>
      <trkpt lat="44.4284" lon="5.71539">
        <ele>670</ele>
        <time>2023-09-28T06:59:39Z</time>
      </trkpt>
      <trkpt lat="44.42843" lon="5.71546">
        <ele>669.7</ele>
        <time>2023-09-28T06:59:40Z</time>
      </trkpt>
      <trkpt lat="44.42846" lon="5.71553">
        <ele>669.5</ele>
        <time>2023-09-28T06:59:41Z</time>
      </trkpt>
      <trkpt lat="44.42849" lon="5.7156">
        <ele>669.3</ele>
        <time>2023-09-28T06:59:42Z</time>
      </trkpt>
      <trkpt lat="44.42853" lon="5.71567">
        <ele>669</ele>
        <time>2023-09-28T06:59:43Z</time>
      </trkpt>
      <trkpt lat="44.42856" lon="5.71574">
        <ele>668.7</ele>
        <time>2023-09-28T06:59:44Z</time>
      </trkpt>
      <trkpt lat="44.42859" lon="5.7158">
        <ele>668.4</ele>
        <time>2023-09-28T06:59:45Z</time>
      </trkpt>
      <trkpt lat="44.42863" lon="5.71587">
        <ele>668.1</ele>
        <time>2023-09-28T06:59:46Z</time>
      </trkpt>
      <trkpt lat="44.42866" lon="5.71594">
        <ele>667.8</ele>
        <time>2023-09-28T06:59:47Z</time>
      </trkpt>
      <trkpt lat="44.42869" lon="5.71601">
        <ele>667.5</ele>
        <time>2023-09-28T06:59:48Z</time>
      </trkpt>
      <trkpt lat="44.42873" lon="5.71608">
        <ele>667.2</ele>
        <time>2023-09-28T06:59:49Z</time>
      </trkpt>
      <trkpt lat="44.42876" lon="5.71615">
        <ele>666.9</ele>
        <time>2023-09-28T06:59:50Z</time>
      </trkpt>
      <trkpt lat="44.4288" lon="5.71623">
        <ele>666.7</ele>
        <time>2023-09-28T06:59:51Z</time>
      </trkpt>
      <trkpt lat="44.42884" lon="5.7163">
        <ele>666.5</ele>
        <time>2023-09-28T06:59:52Z</time>
      </trkpt>
      <trkpt lat="44.42888" lon="5.71638">
        <ele>666.3</ele>
        <time>2023-09-28T06:59:53Z</time>
      </trkpt>
      <trkpt lat="44.42892" lon="5.71646">
        <ele>666.2</ele>
        <time>2023-09-28T06:59:54Z</time>
      </trkpt>
      <trkpt lat="44.42896" lon="5.71653">
        <ele>666.1</ele>
        <time>2023-09-28T06:59:55Z</time>
      </trkpt>
      <trkpt lat="44.429" lon="5.71661">
        <ele>666</ele>
        <time>2023-09-28T06:59:56Z</time>
      </trkpt>
      <trkpt lat="44.42904" lon="5.71668">
        <ele>666</ele>
        <time>2023-09-28T06:59:57Z</time>
      </trkpt>
      <trkpt lat="44.42907" lon="5.71675">
        <ele>666</ele>
        <time>2023-09-28T06:59:58Z</time>
      </trkpt>
      <trkpt lat="44.42911" lon="5.71682">
        <ele>666</ele>
        <time>2023-09-28T06:59:59Z</time>
      </trkpt>
      <trkpt lat="44.42914" lon="5.71688">
        <ele>666</ele>
        <time>2023-09-28T07:00:00Z</time>
      </trkpt>
      <trkpt lat="44.42917" lon="5.71694">
        <ele>666</ele>
        <time>2023-09-28T07:00:01Z</time>
      </trkpt>
      <trkpt lat="44.42918" lon="5.71699">
        <ele>666</ele>
        <time>2023-09-28T07:00:02Z</time>
      </trkpt>
      <trkpt lat="44.42919" lon="5.71704">
        <ele>666</ele>
        <time>2023-09-28T07:00:03Z</time>
      </trkpt>
      <trkpt lat="44.42919" lon="5.71706">
        <ele>666</ele>
        <time>2023-09-28T07:00:04Z</time>
      </trkpt>
      <trkpt lat="44.42919" lon="5.71708">
        <ele>666</ele>
        <time>2023-09-28T07:00:05Z</time>
      </trkpt>
      <trkpt lat="44.42919" lon="5.71709">
        <ele>666</ele>
        <time>2023-09-28T07:00:06Z</time>
      </trkpt>
      <trkpt lat="44.42919" lon="5.71709">
        <ele>666</ele>
        <time>2023-09-28T07:00:07Z</time>
      </trkpt>
      <trkpt lat="44.42919" lon="5.71709">
        <ele>666</ele>
        <time>2023-09-28T07:00:08Z</time>
      </trkpt>
      <trkpt lat="44.42919" lon="5.71709">
        <ele>666</ele>
        <time>2023-09-28T07:00:09Z</time>
      </trkpt>
      <trkpt lat="44.42919" lon="5.71711">
        <ele>665.9</ele>
        <time>2023-09-28T07:00:10Z</time>
      </trkpt>
      <trkpt lat="44.42918" lon="5.71713">
        <ele>665.9</ele>
        <time>2023-09-28T07:00:11Z</time>
      </trkpt>
      <trkpt lat="44.42918" lon="5.71717">
        <ele>665.9</ele>
        <time>2023-09-28T07:00:13Z</time>
      </trkpt>
      <trkpt lat="44.42917" lon="5.71722">
        <ele>665.9</ele>
        <time>2023-09-28T07:00:15Z</time>
      </trkpt>
      <trkpt lat="44.42918" lon="5.71728">
        <ele>666</ele>
        <time>2023-09-28T07:00:16Z</time>
      </trkpt>
      <trkpt lat="44.42921" lon="5.71731">
        <ele>666</ele>
        <time>2023-09-28T07:00:17Z</time>
      </trkpt>
      <trkpt lat="44.42924" lon="5.71732">
        <ele>666</ele>
        <time>2023-09-28T07:00:19Z</time>
      </trkpt>
      <trkpt lat="44.42929" lon="5.7173">
        <ele>666.1</ele>
        <time>2023-09-28T07:00:20Z</time>
      </trkpt>
      <trkpt lat="44.42932" lon="5.71727">
        <ele>666.1</ele>
        <time>2023-09-28T07:00:21Z</time>
      </trkpt>
      <trkpt lat="44.42937" lon="5.71727">
        <ele>666.3</ele>
        <time>2023-09-28T07:00:23Z</time>
      </trkpt>
      <trkpt lat="44.42941" lon="5.71729">
        <ele>666.4</ele>
        <time>2023-09-28T07:00:24Z</time>
      </trkpt>
      <trkpt lat="44.42946" lon="5.71732">
        <ele>666.5</ele>
        <time>2023-09-28T07:00:25Z</time>
      </trkpt>
      <trkpt lat="44.4295" lon="5.71733">
        <ele>666.6</ele>
        <time>2023-09-28T07:00:27Z</time>
      </trkpt>
      <trkpt lat="44.42955" lon="5.71734">
        <ele>666.7</ele>
        <time>2023-09-28T07:00:28Z</time>
      </trkpt>
      <trkpt lat="44.42959" lon="5.71735">
        <ele>666.7</ele>
        <time>2023-09-28T07:00:29Z</time>
      </trkpt>
      <trkpt lat="44.42964" lon="5.71735">
        <ele>666.8</ele>
        <time>2023-09-28T07:00:30Z</time>
      </trkpt>
      <trkpt lat="44.42968" lon="5.71735">
        <ele>666.8</ele>
        <time>2023-09-28T07:00:32Z</time>
      </trkpt>
      <trkpt lat="44.42971" lon="5.71735">
        <ele>666.9</ele>
        <time>2023-09-28T07:00:33Z</time>
      </trkpt>
      <trkpt lat="44.42975" lon="5.71735">
        <ele>666.9</ele>
        <time>2023-09-28T07:00:34Z</time>
      </trkpt>
      <trkpt lat="44.42978" lon="5.71733">
        <ele>667</ele>
        <time>2023-09-28T07:00:35Z</time>
      </trkpt>
      <trkpt lat="44.42982" lon="5.71732">
        <ele>667.1</ele>
        <time>2023-09-28T07:00:36Z</time>
      </trkpt>
      <trkpt lat="44.42985" lon="5.7173">
        <ele>667.2</ele>
        <time>2023-09-28T07:00:37Z</time>
      </trkpt>
      <trkpt lat="44.42988" lon="5.71728">
        <ele>667.3</ele>
        <time>2023-09-28T07:00:38Z</time>
      </trkpt>
      <trkpt lat="44.42993" lon="5.71723">
        <ele>667.4</ele>
        <time>2023-09-28T07:00:40Z</time>
      </trkpt>
      <trkpt lat="44.42996" lon="5.71719">
        <ele>667.6</ele>
        <time>2023-09-28T07:00:41Z</time>
      </trkpt>
      <trkpt lat="44.42998" lon="5.71716">
        <ele>667.7</ele>
        <time>2023-09-28T07:00:42Z</time>
      </trkpt>
      <trkpt lat="44.43002" lon="5.71711">
        <ele>667.9</ele>
        <time>2023-09-28T07:00:44Z</time>
      </trkpt>
      <trkpt lat="44.43004" lon="5.71706">
        <ele>668</ele>
        <time>2023-09-28T07:00:45Z</time>
      </trkpt>
      <trkpt lat="44.43006" lon="5.71703">
        <ele>668.1</ele>
        <time>2023-09-28T07:00:46Z</time>
      </trkpt>
      <trkpt lat="44.43008" lon="5.717">
        <ele>668.3</ele>
        <time>2023-09-28T07:00:47Z</time>
      </trkpt>
      <trkpt lat="44.43009" lon="5.71695">
        <ele>668.4</ele>
        <time>2023-09-28T07:00:48Z</time>
      </trkpt>
      <trkpt lat="44.43011" lon="5.7169">
        <ele>668.5</ele>
        <time>2023-09-28T07:00:50Z</time>
      </trkpt>
      <trkpt lat="44.43014" lon="5.71685">
        <ele>668.6</ele>
        <time>2023-09-28T07:00:51Z</time>
      </trkpt>
      <trkpt lat="44.43017" lon="5.71681">
        <ele>668.6</ele>
        <time>2023-09-28T07:00:53Z</time>
      </trkpt>
      <trkpt lat="44.43018" lon="5.71677">
        <ele>668.7</ele>
        <time>2023-09-28T07:00:54Z</time>
      </trkpt>
      <trkpt lat="44.4302" lon="5.71673">
        <ele>668.8</ele>
        <time>2023-09-28T07:00:55Z</time>
      </trkpt>
      <trkpt lat="44.43022" lon="5.71668">
        <ele>669</ele>
        <time>2023-09-28T07:00:56Z</time>
      </trkpt>
      <trkpt lat="44.43024" lon="5.71664">
        <ele>669.1</ele>
        <time>2023-09-28T07:00:57Z</time>
      </trkpt>
      <trkpt lat="44.43026" lon="5.71659">
        <ele>669.2</ele>
        <time>2023-09-28T07:00:58Z</time>
      </trkpt>
      <trkpt lat="44.43027" lon="5.71655">
        <ele>669.3</ele>
        <time>2023-09-28T07:00:59Z</time>
      </trkpt>
      <trkpt lat="44.4303" lon="5.7165">
        <ele>669.5</ele>
        <time>2023-09-28T07:01:01Z</time>
      </trkpt>
      <trkpt lat="44.43032" lon="5.71645">
        <ele>669.6</ele>
        <time>2023-09-28T07:01:02Z</time>
      </trkpt>
      <trkpt lat="44.43034" lon="5.7164">
        <ele>669.8</ele>
        <time>2023-09-28T07:01:03Z</time>
      </trkpt>
      <trkpt lat="44.43036" lon="5.71636">
        <ele>669.9</ele>
        <time>2023-09-28T07:01:04Z</time>
      </trkpt>
      <trkpt lat="44.43037" lon="5.71631">
        <ele>670</ele>
        <time>2023-09-28T07:01:05Z</time>
      </trkpt>
      <trkpt lat="44.43039" lon="5.71627">
        <ele>670.1</ele>
        <time>2023-09-28T07:01:07Z</time>
      </trkpt>
      <trkpt lat="44.4304" lon="5.71623">
        <ele>670.2</ele>
        <time>2023-09-28T07:01:08Z</time>
      </trkpt>
      <trkpt lat="44.43042" lon="5.71617">
        <ele>670.3</ele>
        <time>2023-09-28T07:01:09Z</time>
      </trkpt>
      <trkpt lat="44.43043" lon="5.71613">
        <ele>670.4</ele>
        <time>2023-09-28T07:01:10Z</time>
      </trkpt>
      <trkpt lat="44.43044" lon="5.71608">
        <ele>670.5</ele>
        <time>2023-09-28T07:01:11Z</time>
      </trkpt>
      <trkpt lat="44.43045" lon="5.71605">
        <ele>670.5</ele>
        <time>2023-09-28T07:01:12Z</time>
      </trkpt>
      <trkpt lat="44.43046" lon="5.716">
        <ele>670.6</ele>
        <time>2023-09-28T07:01:13Z</time>
      </trkpt>
      <trkpt lat="44.43047" lon="5.71591">
        <ele>670.8</ele>
        <time>2023-09-28T07:01:15Z</time>
      </trkpt>
      <trkpt lat="44.43049" lon="5.71586">
        <ele>670.9</ele>
        <time>2023-09-28T07:01:16Z</time>
      </trkpt>
      <trkpt lat="44.4305" lon="5.71581">
        <ele>671</ele>
        <time>2023-09-28T07:01:18Z</time>
      </trkpt>
      <trkpt lat="44.43051" lon="5.71576">
        <ele>671.1</ele>
        <time>2023-09-28T07:01:19Z</time>
      </trkpt>
      <trkpt lat="44.43052" lon="5.71572">
        <ele>671.2</ele>
        <time>2023-09-28T07:01:20Z</time>
      </trkpt>
      <trkpt lat="44.43052" lon="5.71565">
        <ele>671.3</ele>
        <time>2023-09-28T07:01:21Z</time>
      </trkpt>
      <trkpt lat="44.43053" lon="5.71561">
        <ele>671.3</ele>
        <time>2023-09-28T07:01:22Z</time>
      </trkpt>
      <trkpt lat="44.43055" lon="5.71556">
        <ele>671.4</ele>
        <time>2023-09-28T07:01:23Z</time>
      </trkpt>
      <trkpt lat="44.43055" lon="5.71551">
        <ele>671.5</ele>
        <time>2023-09-28T07:01:24Z</time>
      </trkpt>
      <trkpt lat="44.43057" lon="5.71544">
        <ele>671.6</ele>
        <time>2023-09-28T07:01:26Z</time>
      </trkpt>
      <trkpt lat="44.43057" lon="5.71539">
        <ele>671.7</ele>
        <time>2023-09-28T07:01:27Z</time>
      </trkpt>
      <trkpt lat="44.43058" lon="5.71534">
        <ele>671.7</ele>
        <time>2023-09-28T07:01:28Z</time>
      </trkpt>
      <trkpt lat="44.4306" lon="5.71528">
        <ele>671.7</ele>
        <time>2023-09-28T07:01:29Z</time>
      </trkpt>
      <trkpt lat="44.43061" lon="5.71522">
        <ele>671.7</ele>
        <time>2023-09-28T07:01:31Z</time>
      </trkpt>
      <trkpt lat="44.43063" lon="5.71516">
        <ele>671.7</ele>
        <time>2023-09-28T07:01:32Z</time>
      </trkpt>
      <trkpt lat="44.43066" lon="5.7151">
        <ele>671.6</ele>
        <time>2023-09-28T07:01:33Z</time>
      </trkpt>
      <trkpt lat="44.43068" lon="5.71504">
        <ele>671.6</ele>
        <time>2023-09-28T07:01:34Z</time>
      </trkpt>
      <trkpt lat="44.43071" lon="5.71498">
        <ele>671.6</ele>
        <time>2023-09-28T07:01:35Z</time>
      </trkpt>
      <trkpt lat="44.43074" lon="5.71493">
        <ele>671.6</ele>
        <time>2023-09-28T07:01:36Z</time>
      </trkpt>
      <trkpt lat="44.43077" lon="5.71488">
        <ele>671.5</ele>
        <time>2023-09-28T07:01:37Z</time>
      </trkpt>
      <trkpt lat="44.43079" lon="5.71482">
        <ele>671.5</ele>
        <time>2023-09-28T07:01:38Z</time>
      </trkpt>
      <trkpt lat="44.43082" lon="5.71477">
        <ele>671.5</ele>
        <time>2023-09-28T07:01:39Z</time>
      </trkpt>
      <trkpt lat="44.43084" lon="5.71471">
        <ele>671.5</ele>
        <time>2023-09-28T07:01:40Z</time>
      </trkpt>
      <trkpt lat="44.43087" lon="5.71466">
        <ele>671.4</ele>
        <time>2023-09-28T07:01:41Z</time>
      </trkpt>
      <trkpt lat="44.4309" lon="5.71461">
        <ele>671.4</ele>
        <time>2023-09-28T07:01:42Z</time>
      </trkpt>
      <trkpt lat="44.43093" lon="5.71455">
        <ele>671.4</ele>
        <time>2023-09-28T07:01:43Z</time>
      </trkpt>
      <trkpt lat="44.43096" lon="5.7145">
        <ele>671.4</ele>
        <time>2023-09-28T07:01:44Z</time>
      </trkpt>
      <trkpt lat="44.43099" lon="5.71444">
        <ele>671.4</ele>
        <time>2023-09-28T07:01:45Z</time>
      </trkpt>
      <trkpt lat="44.43102" lon="5.71439">
        <ele>671.3</ele>
        <time>2023-09-28T07:01:46Z</time>
      </trkpt>
      <trkpt lat="44.43105" lon="5.71433">
        <ele>671.3</ele>
        <time>2023-09-28T07:01:47Z</time>
      </trkpt>
      <trkpt lat="44.43107" lon="5.71427">
        <ele>671.3</ele>
        <time>2023-09-28T07:01:48Z</time>
      </trkpt>
      <trkpt lat="44.4311" lon="5.71422">
        <ele>671.3</ele>
        <time>2023-09-28T07:01:49Z</time>
      </trkpt>
      <trkpt lat="44.43113" lon="5.71416">
        <ele>671.2</ele>
        <time>2023-09-28T07:01:50Z</time>
      </trkpt>
      <trkpt lat="44.43115" lon="5.71409">
        <ele>671.2</ele>
        <time>2023-09-28T07:01:51Z</time>
      </trkpt>
      <trkpt lat="44.43117" lon="5.71403">
        <ele>671.1</ele>
        <time>2023-09-28T07:01:52Z</time>
      </trkpt>
      <trkpt lat="44.4312" lon="5.71398">
        <ele>671.1</ele>
        <time>2023-09-28T07:01:53Z</time>
      </trkpt>
      <trkpt lat="44.43123" lon="5.71392">
        <ele>671</ele>
        <time>2023-09-28T07:01:54Z</time>
      </trkpt>
      <trkpt lat="44.43126" lon="5.71386">
        <ele>671</ele>
        <time>2023-09-28T07:01:55Z</time>
      </trkpt>
      <trkpt lat="44.43129" lon="5.7138">
        <ele>671</ele>
        <time>2023-09-28T07:01:56Z</time>
      </trkpt>
      <trkpt lat="44.43131" lon="5.71374">
        <ele>670.9</ele>
        <time>2023-09-28T07:01:57Z</time>
      </trkpt>
      <trkpt lat="44.43134" lon="5.71369">
        <ele>670.9</ele>
        <time>2023-09-28T07:01:58Z</time>
      </trkpt>
      <trkpt lat="44.43137" lon="5.71364">
        <ele>670.9</ele>
        <time>2023-09-28T07:01:59Z</time>
      </trkpt>
      <trkpt lat="44.43139" lon="5.71359">
        <ele>670.9</ele>
        <time>2023-09-28T07:02:00Z</time>
      </trkpt>
      <trkpt lat="44.43142" lon="5.71354">
        <ele>670.9</ele>
        <time>2023-09-28T07:02:01Z</time>
      </trkpt>
      <trkpt lat="44.43144" lon="5.7135">
        <ele>670.9</ele>
        <time>2023-09-28T07:02:02Z</time>
      </trkpt>
      <trkpt lat="44.43147" lon="5.71345">
        <ele>670.9</ele>
        <time>2023-09-28T07:02:03Z</time>
      </trkpt>
      <trkpt lat="44.43149" lon="5.7134">
        <ele>670.9</ele>
        <time>2023-09-28T07:02:04Z</time>
      </trkpt>
      <trkpt lat="44.43151" lon="5.71335">
        <ele>670.9</ele>
        <time>2023-09-28T07:02:05Z</time>
      </trkpt>
      <trkpt lat="44.43154" lon="5.71331">
        <ele>670.8</ele>
        <time>2023-09-28T07:02:06Z</time>
      </trkpt>
      <trkpt lat="44.43158" lon="5.71328">
        <ele>670.8</ele>
        <time>2023-09-28T07:02:07Z</time>
      </trkpt>
      <trkpt lat="44.43161" lon="5.71324">
        <ele>670.8</ele>
        <time>2023-09-28T07:02:08Z</time>
      </trkpt>
      <trkpt lat="44.43165" lon="5.7132">
        <ele>670.8</ele>
        <time>2023-09-28T07:02:09Z</time>
      </trkpt>
      <trkpt lat="44.43171" lon="5.71316">
        <ele>670.7</ele>
        <time>2023-09-28T07:02:11Z</time>
      </trkpt>
      <trkpt lat="44.43176" lon="5.71313">
        <ele>670.7</ele>
        <time>2023-09-28T07:02:12Z</time>
      </trkpt>
      <trkpt lat="44.4318" lon="5.71311">
        <ele>670.7</ele>
        <time>2023-09-28T07:02:13Z</time>
      </trkpt>
      <trkpt lat="44.43186" lon="5.71305">
        <ele>670.7</ele>
        <time>2023-09-28T07:02:15Z</time>
      </trkpt>
      <trkpt lat="44.43188" lon="5.71301">
        <ele>670.7</ele>
        <time>2023-09-28T07:02:16Z</time>
      </trkpt>
      <trkpt lat="44.43192" lon="5.71296">
        <ele>670.7</ele>
        <time>2023-09-28T07:02:17Z</time>
      </trkpt>
      <trkpt lat="44.43197" lon="5.71292">
        <ele>670.8</ele>
        <time>2023-09-28T07:02:19Z</time>
      </trkpt>
      <trkpt lat="44.432" lon="5.71288">
        <ele>670.9</ele>
        <time>2023-09-28T07:02:20Z</time>
      </trkpt>
      <trkpt lat="44.43205" lon="5.71285">
        <ele>671</ele>
        <time>2023-09-28T07:02:21Z</time>
      </trkpt>
      <trkpt lat="44.43209" lon="5.71282">
        <ele>671</ele>
        <time>2023-09-28T07:02:22Z</time>
      </trkpt>
      <trkpt lat="44.43213" lon="5.7128">
        <ele>671</ele>
        <time>2023-09-28T07:02:23Z</time>
      </trkpt>
      <trkpt lat="44.43216" lon="5.71277">
        <ele>671</ele>
        <time>2023-09-28T07:02:24Z</time>
      </trkpt>
      <trkpt lat="44.4322" lon="5.71273">
        <ele>671</ele>
        <time>2023-09-28T07:02:25Z</time>
      </trkpt>
      <trkpt lat="44.43224" lon="5.71269">
        <ele>671</ele>
        <time>2023-09-28T07:02:26Z</time>
      </trkpt>
      <trkpt lat="44.43229" lon="5.71266">
        <ele>671</ele>
        <time>2023-09-28T07:02:28Z</time>
      </trkpt>
      <trkpt lat="44.43233" lon="5.71263">
        <ele>671</ele>
        <time>2023-09-28T07:02:29Z</time>
      </trkpt>
      <trkpt lat="44.43236" lon="5.7126">
        <ele>671</ele>
        <time>2023-09-28T07:02:30Z</time>
      </trkpt>
      <trkpt lat="44.43239" lon="5.71256">
        <ele>671</ele>
        <time>2023-09-28T07:02:31Z</time>
      </trkpt>
      <trkpt lat="44.43243" lon="5.71252">
        <ele>671</ele>
        <time>2023-09-28T07:02:32Z</time>
      </trkpt>
      <trkpt lat="44.43245" lon="5.71248">
        <ele>671</ele>
        <time>2023-09-28T07:02:33Z</time>
      </trkpt>
      <trkpt lat="44.43248" lon="5.71243">
        <ele>671.1</ele>
        <time>2023-09-28T07:02:34Z</time>
      </trkpt>
      <trkpt lat="44.43251" lon="5.71238">
        <ele>671.2</ele>
        <time>2023-09-28T07:02:36Z</time>
      </trkpt>
      <trkpt lat="44.43254" lon="5.71231">
        <ele>671.3</ele>
        <time>2023-09-28T07:02:37Z</time>
      </trkpt>
      <trkpt lat="44.43257" lon="5.71226">
        <ele>671.4</ele>
        <time>2023-09-28T07:02:38Z</time>
      </trkpt>
      <trkpt lat="44.43259" lon="5.71223">
        <ele>671.4</ele>
        <time>2023-09-28T07:02:39Z</time>
      </trkpt>
      <trkpt lat="44.43263" lon="5.71217">
        <ele>671.5</ele>
        <time>2023-09-28T07:02:41Z</time>
      </trkpt>
      <trkpt lat="44.43265" lon="5.71211">
        <ele>671.7</ele>
        <time>2023-09-28T07:02:42Z</time>
      </trkpt>
      <trkpt lat="44.43266" lon="5.71207">
        <ele>671.7</ele>
        <time>2023-09-28T07:02:43Z</time>
      </trkpt>
      <trkpt lat="44.43268" lon="5.71203">
        <ele>671.8</ele>
        <time>2023-09-28T07:02:44Z</time>
      </trkpt>
      <trkpt lat="44.4327" lon="5.71199">
        <ele>671.9</ele>
        <time>2023-09-28T07:02:45Z</time>
      </trkpt>
      <trkpt lat="44.43271" lon="5.71195">
        <ele>672</ele>
        <time>2023-09-28T07:02:47Z</time>
      </trkpt>
      <trkpt lat="44.43272" lon="5.71189">
        <ele>672.2</ele>
        <time>2023-09-28T07:02:48Z</time>
      </trkpt>
      <trkpt lat="44.43274" lon="5.71185">
        <ele>672.3</ele>
        <time>2023-09-28T07:02:49Z</time>
      </trkpt>
      <trkpt lat="44.43276" lon="5.7118">
        <ele>672.4</ele>
        <time>2023-09-28T07:02:50Z</time>
      </trkpt>
      <trkpt lat="44.43277" lon="5.71176">
        <ele>672.5</ele>
        <time>2023-09-28T07:02:51Z</time>
      </trkpt>
      <trkpt lat="44.43278" lon="5.71171">
        <ele>672.6</ele>
        <time>2023-09-28T07:02:52Z</time>
      </trkpt>
      <trkpt lat="44.43281" lon="5.71164">
        <ele>672.9</ele>
        <time>2023-09-28T07:02:54Z</time>
      </trkpt>
      <trkpt lat="44.43284" lon="5.7116">
        <ele>673</ele>
        <time>2023-09-28T07:02:55Z</time>
      </trkpt>
      <trkpt lat="44.43286" lon="5.71157">
        <ele>673.1</ele>
        <time>2023-09-28T07:02:56Z</time>
      </trkpt>
      <trkpt lat="44.43289" lon="5.71152">
        <ele>673.3</ele>
        <time>2023-09-28T07:02:58Z</time>
      </trkpt>
      <trkpt lat="44.43292" lon="5.71149">
        <ele>673.5</ele>
        <time>2023-09-28T07:02:59Z</time>
      </trkpt>
      <trkpt lat="44.43294" lon="5.71146">
        <ele>673.6</ele>
        <time>2023-09-28T07:03:00Z</time>
      </trkpt>
      <trkpt lat="44.43296" lon="5.71144">
        <ele>673.8</ele>
        <time>2023-09-28T07:03:01Z</time>
      </trkpt>
      <trkpt lat="44.43299" lon="5.71141">
        <ele>674</ele>
        <time>2023-09-28T07:03:02Z</time>
      </trkpt>
      <trkpt lat="44.43302" lon="5.71137">
        <ele>674.2</ele>
        <time>2023-09-28T07:03:03Z</time>
      </trkpt>
      <trkpt lat="44.43303" lon="5.71136">
        <ele>674.3</ele>
        <time>2023-09-28T07:03:04Z</time>
      </trkpt>
      <trkpt lat="44.43305" lon="5.71134">
        <ele>674.4</ele>
        <time>2023-09-28T07:03:05Z</time>
      </trkpt>
      <trkpt lat="44.43309" lon="5.7113">
        <ele>674.7</ele>
        <time>2023-09-28T07:03:07Z</time>
      </trkpt>
      <trkpt lat="44.43311" lon="5.71128">
        <ele>674.9</ele>
        <time>2023-09-28T07:03:08Z</time>
      </trkpt>
      <trkpt lat="44.43314" lon="5.71125">
        <ele>675.1</ele>
        <time>2023-09-28T07:03:09Z</time>
      </trkpt>
      <trkpt lat="44.43315" lon="5.71124">
        <ele>675.2</ele>
        <time>2023-09-28T07:03:10Z</time>
      </trkpt>
      <trkpt lat="44.43317" lon="5.71122">
        <ele>675.4</ele>
        <time>2023-09-28T07:03:11Z</time>
      </trkpt>
      <trkpt lat="44.43319" lon="5.7112">
        <ele>675.6</ele>
        <time>2023-09-28T07:03:13Z</time>
      </trkpt>
      <trkpt lat="44.43322" lon="5.71118">
        <ele>675.8</ele>
        <time>2023-09-28T07:03:14Z</time>
      </trkpt>
      <trkpt lat="44.43325" lon="5.71116">
        <ele>676</ele>
        <time>2023-09-28T07:03:15Z</time>
      </trkpt>
      <trkpt lat="44.43326" lon="5.71115">
        <ele>676.1</ele>
        <time>2023-09-28T07:03:16Z</time>
      </trkpt>
      <trkpt lat="44.43329" lon="5.71113">
        <ele>676.3</ele>
        <time>2023-09-28T07:03:17Z</time>
      </trkpt>
      <trkpt lat="44.43331" lon="5.71112">
        <ele>676.5</ele>
        <time>2023-09-28T07:03:18Z</time>
      </trkpt>
      <trkpt lat="44.43333" lon="5.7111">
        <ele>676.7</ele>
        <time>2023-09-28T07:03:20Z</time>
      </trkpt>
      <trkpt lat="44.43337" lon="5.71108">
        <ele>676.9</ele>
        <time>2023-09-28T07:03:21Z</time>
      </trkpt>
      <trkpt lat="44.43338" lon="5.71107">
        <ele>677</ele>
        <time>2023-09-28T07:03:22Z</time>
      </trkpt>
      <trkpt lat="44.43341" lon="5.71104">
        <ele>677.3</ele>
        <time>2023-09-28T07:03:23Z</time>
      </trkpt>
      <trkpt lat="44.43342" lon="5.71103">
        <ele>677.4</ele>
        <time>2023-09-28T07:03:24Z</time>
      </trkpt>
      <trkpt lat="44.43345" lon="5.71102">
        <ele>677.6</ele>
        <time>2023-09-28T07:03:25Z</time>
      </trkpt>
      <trkpt lat="44.43348" lon="5.71101">
        <ele>677.8</ele>
        <time>2023-09-28T07:03:27Z</time>
      </trkpt>
      <trkpt lat="44.43351" lon="5.711">
        <ele>678</ele>
        <time>2023-09-28T07:03:28Z</time>
      </trkpt>
      <trkpt lat="44.43353" lon="5.71098">
        <ele>678.3</ele>
        <time>2023-09-28T07:03:29Z</time>
      </trkpt>
      <trkpt lat="44.43354" lon="5.71097">
        <ele>678.3</ele>
        <time>2023-09-28T07:03:30Z</time>
      </trkpt>
      <trkpt lat="44.43358" lon="5.71096">
        <ele>678.6</ele>
        <time>2023-09-28T07:03:32Z</time>
      </trkpt>
      <trkpt lat="44.43361" lon="5.71094">
        <ele>678.9</ele>
        <time>2023-09-28T07:03:33Z</time>
      </trkpt>
      <trkpt lat="44.43363" lon="5.71094">
        <ele>679</ele>
        <time>2023-09-28T07:03:34Z</time>
      </trkpt>
      <trkpt lat="44.43367" lon="5.71092">
        <ele>679.4</ele>
        <time>2023-09-28T07:03:36Z</time>
      </trkpt>
      <trkpt lat="44.43369" lon="5.71091">
        <ele>679.5</ele>
        <time>2023-09-28T07:03:37Z</time>
      </trkpt>
      <trkpt lat="44.43371" lon="5.7109">
        <ele>679.7</ele>
        <time>2023-09-28T07:03:38Z</time>
      </trkpt>
      <trkpt lat="44.43373" lon="5.71088">
        <ele>679.9</ele>
        <time>2023-09-28T07:03:39Z</time>
      </trkpt>
      <trkpt lat="44.43375" lon="5.71087">
        <ele>680.1</ele>
        <time>2023-09-28T07:03:41Z</time>
      </trkpt>
      <trkpt lat="44.43379" lon="5.71085">
        <ele>680.4</ele>
        <time>2023-09-28T07:03:42Z</time>
      </trkpt>
      <trkpt lat="44.4338" lon="5.71085">
        <ele>680.5</ele>
        <time>2023-09-28T07:03:43Z</time>
      </trkpt>
      <trkpt lat="44.43383" lon="5.71083">
        <ele>680.7</ele>
        <time>2023-09-28T07:03:44Z</time>
      </trkpt>
      <trkpt lat="44.43386" lon="5.71081">
        <ele>680.9</ele>
        <time>2023-09-28T07:03:45Z</time>
      </trkpt>
      <trkpt lat="44.43387" lon="5.7108">
        <ele>681</ele>
        <time>2023-09-28T07:03:46Z</time>
      </trkpt>
      <trkpt lat="44.43391" lon="5.71079">
        <ele>681.3</ele>
        <time>2023-09-28T07:03:48Z</time>
      </trkpt>
      <trkpt lat="44.43392" lon="5.71078">
        <ele>681.4</ele>
        <time>2023-09-28T07:03:49Z</time>
      </trkpt>
      <trkpt lat="44.43395" lon="5.71077">
        <ele>681.6</ele>
        <time>2023-09-28T07:03:50Z</time>
      </trkpt>
      <trkpt lat="44.43398" lon="5.71075">
        <ele>681.8</ele>
        <time>2023-09-28T07:03:51Z</time>
      </trkpt>
      <trkpt lat="44.43401" lon="5.71074">
        <ele>682.1</ele>
        <time>2023-09-28T07:03:52Z</time>
      </trkpt>
      <trkpt lat="44.43403" lon="5.71074">
        <ele>682.2</ele>
        <time>2023-09-28T07:03:53Z</time>
      </trkpt>
      <trkpt lat="44.43406" lon="5.71073">
        <ele>682.4</ele>
        <time>2023-09-28T07:03:54Z</time>
      </trkpt>
      <trkpt lat="44.43407" lon="5.71072">
        <ele>682.5</ele>
        <time>2023-09-28T07:03:55Z</time>
      </trkpt>
      <trkpt lat="44.43411" lon="5.71069">
        <ele>682.9</ele>
        <time>2023-09-28T07:03:57Z</time>
      </trkpt>
      <trkpt lat="44.43413" lon="5.71068">
        <ele>683</ele>
        <time>2023-09-28T07:03:58Z</time>
      </trkpt>
      <trkpt lat="44.43414" lon="5.71068">
        <ele>683.1</ele>
        <time>2023-09-28T07:03:59Z</time>
      </trkpt>
      <trkpt lat="44.43418" lon="5.71066">
        <ele>683.4</ele>
        <time>2023-09-28T07:04:00Z</time>
      </trkpt>
      <trkpt lat="44.43419" lon="5.71065">
        <ele>683.4</ele>
        <time>2023-09-28T07:04:01Z</time>
      </trkpt>
      <trkpt lat="44.43421" lon="5.71063">
        <ele>683.6</ele>
        <time>2023-09-28T07:04:02Z</time>
      </trkpt>
      <trkpt lat="44.43424" lon="5.71061">
        <ele>683.8</ele>
        <time>2023-09-28T07:04:04Z</time>
      </trkpt>
      <trkpt lat="44.43427" lon="5.71059">
        <ele>684</ele>
        <time>2023-09-28T07:04:05Z</time>
      </trkpt>
      <trkpt lat="44.4343" lon="5.71057">
        <ele>684.2</ele>
        <time>2023-09-28T07:04:06Z</time>
      </trkpt>
      <trkpt lat="44.43431" lon="5.71057">
        <ele>684.2</ele>
        <time>2023-09-28T07:04:07Z</time>
      </trkpt>
      <trkpt lat="44.43434" lon="5.71055">
        <ele>684.5</ele>
        <time>2023-09-28T07:04:08Z</time>
      </trkpt>
      <trkpt lat="44.43435" lon="5.71054">
        <ele>684.5</ele>
        <time>2023-09-28T07:04:09Z</time>
      </trkpt>
      <trkpt lat="44.43439" lon="5.71052">
        <ele>684.8</ele>
        <time>2023-09-28T07:04:11Z</time>
      </trkpt>
      <trkpt lat="44.43443" lon="5.71049">
        <ele>685</ele>
        <time>2023-09-28T07:04:12Z</time>
      </trkpt>
      <trkpt lat="44.43444" lon="5.71048">
        <ele>685.1</ele>
        <time>2023-09-28T07:04:13Z</time>
      </trkpt>
      <trkpt lat="44.43447" lon="5.71046">
        <ele>685.3</ele>
        <time>2023-09-28T07:04:15Z</time>
      </trkpt>
      <trkpt lat="44.43449" lon="5.71046">
        <ele>685.4</ele>
        <time>2023-09-28T07:04:16Z</time>
      </trkpt>
      <trkpt lat="44.43452" lon="5.71044">
        <ele>685.6</ele>
        <time>2023-09-28T07:04:17Z</time>
      </trkpt>
      <trkpt lat="44.43456" lon="5.71042">
        <ele>685.9</ele>
        <time>2023-09-28T07:04:19Z</time>
      </trkpt>
      <trkpt lat="44.43459" lon="5.71041">
        <ele>686.1</ele>
        <time>2023-09-28T07:04:20Z</time>
      </trkpt>
      <trkpt lat="44.4346" lon="5.7104">
        <ele>686.1</ele>
        <time>2023-09-28T07:04:21Z</time>
      </trkpt>
      <trkpt lat="44.43464" lon="5.71039">
        <ele>686.4</ele>
        <time>2023-09-28T07:04:23Z</time>
      </trkpt>
      <trkpt lat="44.43467" lon="5.71037">
        <ele>686.6</ele>
        <time>2023-09-28T07:04:24Z</time>
      </trkpt>
      <trkpt lat="44.43469" lon="5.71036">
        <ele>686.7</ele>
        <time>2023-09-28T07:04:25Z</time>
      </trkpt>
      <trkpt lat="44.43473" lon="5.71035">
        <ele>686.9</ele>
        <time>2023-09-28T07:04:27Z</time>
      </trkpt>
      <trkpt lat="44.43477" lon="5.71033">
        <ele>687.1</ele>
        <time>2023-09-28T07:04:28Z</time>
      </trkpt>
      <trkpt lat="44.43478" lon="5.71033">
        <ele>687.2</ele>
        <time>2023-09-28T07:04:29Z</time>
      </trkpt>
      <trkpt lat="44.43481" lon="5.71032">
        <ele>687.4</ele>
        <time>2023-09-28T07:04:31Z</time>
      </trkpt>
      <trkpt lat="44.43483" lon="5.71031">
        <ele>687.5</ele>
        <time>2023-09-28T07:04:32Z</time>
      </trkpt>
      <trkpt lat="44.43486" lon="5.7103">
        <ele>687.7</ele>
        <time>2023-09-28T07:04:33Z</time>
      </trkpt>
      <trkpt lat="44.43489" lon="5.71028">
        <ele>687.9</ele>
        <time>2023-09-28T07:04:34Z</time>
      </trkpt>
      <trkpt lat="44.4349" lon="5.71028">
        <ele>688</ele>
        <time>2023-09-28T07:04:35Z</time>
      </trkpt>
      <trkpt lat="44.43494" lon="5.71026">
        <ele>688.2</ele>
        <time>2023-09-28T07:04:36Z</time>
      </trkpt>
      <trkpt lat="44.43495" lon="5.71026">
        <ele>688.3</ele>
        <time>2023-09-28T07:04:37Z</time>
      </trkpt>
      <trkpt lat="44.435" lon="5.71024">
        <ele>688.6</ele>
        <time>2023-09-28T07:04:39Z</time>
      </trkpt>
      <trkpt lat="44.43503" lon="5.71022">
        <ele>688.7</ele>
        <time>2023-09-28T07:04:41Z</time>
      </trkpt>
      <trkpt lat="44.43506" lon="5.7102">
        <ele>688.9</ele>
        <time>2023-09-28T07:04:42Z</time>
      </trkpt>
      <trkpt lat="44.43508" lon="5.7102">
        <ele>689</ele>
        <time>2023-09-28T07:04:43Z</time>
      </trkpt>
      <trkpt lat="44.4351" lon="5.71019">
        <ele>689.1</ele>
        <time>2023-09-28T07:04:44Z</time>
      </trkpt>
      <trkpt lat="44.43515" lon="5.71016">
        <ele>689.4</ele>
        <time>2023-09-28T07:04:46Z</time>
      </trkpt>
      <trkpt lat="44.43518" lon="5.71015">
        <ele>689.6</ele>
        <time>2023-09-28T07:04:48Z</time>
      </trkpt>
      <trkpt lat="44.43521" lon="5.71014">
        <ele>689.7</ele>
        <time>2023-09-28T07:04:49Z</time>
      </trkpt>
      <trkpt lat="44.43524" lon="5.71013">
        <ele>689.9</ele>
        <time>2023-09-28T07:04:50Z</time>
      </trkpt>
      <trkpt lat="44.43526" lon="5.71012">
        <ele>690</ele>
        <time>2023-09-28T07:04:51Z</time>
      </trkpt>
      <trkpt lat="44.4353" lon="5.7101">
        <ele>690.1</ele>
        <time>2023-09-28T07:04:52Z</time>
      </trkpt>
      <trkpt lat="44.43531" lon="5.7101">
        <ele>690.2</ele>
        <time>2023-09-28T07:04:53Z</time>
      </trkpt>
      <trkpt lat="44.43534" lon="5.7101">
        <ele>690.3</ele>
        <time>2023-09-28T07:04:55Z</time>
      </trkpt>
      <trkpt lat="44.43537" lon="5.71009">
        <ele>690.4</ele>
        <time>2023-09-28T07:04:56Z</time>
      </trkpt>
      <trkpt lat="44.43541" lon="5.71009">
        <ele>690.6</ele>
        <time>2023-09-28T07:04:57Z</time>
      </trkpt>
      <trkpt lat="44.43544" lon="5.71008">
        <ele>690.7</ele>
        <time>2023-09-28T07:04:58Z</time>
      </trkpt>
      <trkpt lat="44.4355" lon="5.71007">
        <ele>690.9</ele>
        <time>2023-09-28T07:05:00Z</time>
      </trkpt>
      <trkpt lat="44.43553" lon="5.71007">
        <ele>691</ele>
        <time>2023-09-28T07:05:02Z</time>
      </trkpt>
      <trkpt lat="44.43556" lon="5.71006">
        <ele>691.1</ele>
        <time>2023-09-28T07:05:03Z</time>
      </trkpt>
      <trkpt lat="44.43561" lon="5.71005">
        <ele>691.2</ele>
        <time>2023-09-28T07:05:04Z</time>
      </trkpt>
      <trkpt lat="44.43562" lon="5.71005">
        <ele>691.2</ele>
        <time>2023-09-28T07:05:05Z</time>
      </trkpt>
      <trkpt lat="44.43565" lon="5.71004">
        <ele>691.3</ele>
        <time>2023-09-28T07:05:06Z</time>
      </trkpt>
      <trkpt lat="44.43568" lon="5.71004">
        <ele>691.4</ele>
        <time>2023-09-28T07:05:07Z</time>
      </trkpt>
      <trkpt lat="44.43571" lon="5.71003">
        <ele>691.5</ele>
        <time>2023-09-28T07:05:09Z</time>
      </trkpt>
      <trkpt lat="44.43574" lon="5.71003">
        <ele>691.5</ele>
        <time>2023-09-28T07:05:10Z</time>
      </trkpt>
      <trkpt lat="44.43578" lon="5.71002">
        <ele>691.6</ele>
        <time>2023-09-28T07:05:11Z</time>
      </trkpt>
      <trkpt lat="44.43582" lon="5.71001">
        <ele>691.7</ele>
        <time>2023-09-28T07:05:12Z</time>
      </trkpt>
      <trkpt lat="44.43584" lon="5.71">
        <ele>691.8</ele>
        <time>2023-09-28T07:05:13Z</time>
      </trkpt>
      <trkpt lat="44.43588" lon="5.71">
        <ele>691.9</ele>
        <time>2023-09-28T07:05:14Z</time>
      </trkpt>
      <trkpt lat="44.43589" lon="5.71">
        <ele>692</ele>
        <time>2023-09-28T07:05:15Z</time>
      </trkpt>
      <trkpt lat="44.43595" lon="5.70998">
        <ele>692.1</ele>
        <time>2023-09-28T07:05:17Z</time>
      </trkpt>
      <trkpt lat="44.43598" lon="5.70998">
        <ele>692.2</ele>
        <time>2023-09-28T07:05:18Z</time>
      </trkpt>
      <trkpt lat="44.43601" lon="5.70998">
        <ele>692.3</ele>
        <time>2023-09-28T07:05:19Z</time>
      </trkpt>
      <trkpt lat="44.43603" lon="5.70997">
        <ele>692.4</ele>
        <time>2023-09-28T07:05:20Z</time>
      </trkpt>
      <trkpt lat="44.43606" lon="5.70997">
        <ele>692.5</ele>
        <time>2023-09-28T07:05:21Z</time>
      </trkpt>
      <trkpt lat="44.4361" lon="5.70996">
        <ele>692.6</ele>
        <time>2023-09-28T07:05:23Z</time>
      </trkpt>
      <trkpt lat="44.43613" lon="5.70996">
        <ele>692.7</ele>
        <time>2023-09-28T07:05:24Z</time>
      </trkpt>
      <trkpt lat="44.43616" lon="5.70995">
        <ele>692.8</ele>
        <time>2023-09-28T07:05:25Z</time>
      </trkpt>
      <trkpt lat="44.43619" lon="5.70995">
        <ele>692.9</ele>
        <time>2023-09-28T07:05:26Z</time>
      </trkpt>
      <trkpt lat="44.43622" lon="5.70994">
        <ele>693</ele>
        <time>2023-09-28T07:05:27Z</time>
      </trkpt>
      <trkpt lat="44.43625" lon="5.70994">
        <ele>693.1</ele>
        <time>2023-09-28T07:05:28Z</time>
      </trkpt>
      <trkpt lat="44.43628" lon="5.70994">
        <ele>693.2</ele>
        <time>2023-09-28T07:05:30Z</time>
      </trkpt>
      <trkpt lat="44.43632" lon="5.70994">
        <ele>693.2</ele>
        <time>2023-09-28T07:05:31Z</time>
      </trkpt>
      <trkpt lat="44.43635" lon="5.70993">
        <ele>693.3</ele>
        <time>2023-09-28T07:05:32Z</time>
      </trkpt>
      <trkpt lat="44.43638" lon="5.70993">
        <ele>693.4</ele>
        <time>2023-09-28T07:05:33Z</time>
      </trkpt>
      <trkpt lat="44.43641" lon="5.70992">
        <ele>693.4</ele>
        <time>2023-09-28T07:05:34Z</time>
      </trkpt>
      <trkpt lat="44.43644" lon="5.70992">
        <ele>693.5</ele>
        <time>2023-09-28T07:05:35Z</time>
      </trkpt>
      <trkpt lat="44.43647" lon="5.70991">
        <ele>693.5</ele>
        <time>2023-09-28T07:05:36Z</time>
      </trkpt>
      <trkpt lat="44.43651" lon="5.70991">
        <ele>693.5</ele>
        <time>2023-09-28T07:05:38Z</time>
      </trkpt>
      <trkpt lat="44.43654" lon="5.70991">
        <ele>693.6</ele>
        <time>2023-09-28T07:05:39Z</time>
      </trkpt>
      <trkpt lat="44.43657" lon="5.70991">
        <ele>693.6</ele>
        <time>2023-09-28T07:05:40Z</time>
      </trkpt>
      <trkpt lat="44.43661" lon="5.70989">
        <ele>693.6</ele>
        <time>2023-09-28T07:05:41Z</time>
      </trkpt>
      <trkpt lat="44.43664" lon="5.7099">
        <ele>693.6</ele>
        <time>2023-09-28T07:05:42Z</time>
      </trkpt>
      <trkpt lat="44.43668" lon="5.70989">
        <ele>693.6</ele>
        <time>2023-09-28T07:05:43Z</time>
      </trkpt>
      <trkpt lat="44.43671" lon="5.70988">
        <ele>693.6</ele>
        <time>2023-09-28T07:05:44Z</time>
      </trkpt>
      <trkpt lat="44.43676" lon="5.70987">
        <ele>693.6</ele>
        <time>2023-09-28T07:05:46Z</time>
      </trkpt>
      <trkpt lat="44.43681" lon="5.70986">
        <ele>693.6</ele>
        <time>2023-09-28T07:05:47Z</time>
      </trkpt>
      <trkpt lat="44.43686" lon="5.70985">
        <ele>693.5</ele>
        <time>2023-09-28T07:05:48Z</time>
      </trkpt>
      <trkpt lat="44.4369" lon="5.70984">
        <ele>693.5</ele>
        <time>2023-09-28T07:05:49Z</time>
      </trkpt>
      <trkpt lat="44.43694" lon="5.70983">
        <ele>693.4</ele>
        <time>2023-09-28T07:05:50Z</time>
      </trkpt>
      <trkpt lat="44.43699" lon="5.70982">
        <ele>693.3</ele>
        <time>2023-09-28T07:05:51Z</time>
      </trkpt>
      <trkpt lat="44.43704" lon="5.7098">
        <ele>693.2</ele>
        <time>2023-09-28T07:05:52Z</time>
      </trkpt>
      <trkpt lat="44.43709" lon="5.70979">
        <ele>693</ele>
        <time>2023-09-28T07:05:53Z</time>
      </trkpt>
      <trkpt lat="44.43714" lon="5.70976">
        <ele>692.9</ele>
        <time>2023-09-28T07:05:54Z</time>
      </trkpt>
      <trkpt lat="44.43719" lon="5.70974">
        <ele>692.7</ele>
        <time>2023-09-28T07:05:55Z</time>
      </trkpt>
      <trkpt lat="44.43724" lon="5.70972">
        <ele>692.5</ele>
        <time>2023-09-28T07:05:56Z</time>
      </trkpt>
      <trkpt lat="44.43729" lon="5.70968">
        <ele>692.3</ele>
        <time>2023-09-28T07:05:57Z</time>
      </trkpt>
      <trkpt lat="44.43734" lon="5.70965">
        <ele>692.1</ele>
        <time>2023-09-28T07:05:58Z</time>
      </trkpt>
      <trkpt lat="44.4374" lon="5.70962">
        <ele>691.9</ele>
        <time>2023-09-28T07:05:59Z</time>
      </trkpt>
      <trkpt lat="44.43746" lon="5.70958">
        <ele>691.6</ele>
        <time>2023-09-28T07:06:00Z</time>
      </trkpt>
      <trkpt lat="44.43752" lon="5.70955">
        <ele>691.4</ele>
        <time>2023-09-28T07:06:01Z</time>
      </trkpt>
      <trkpt lat="44.43758" lon="5.70951">
        <ele>691.1</ele>
        <time>2023-09-28T07:06:02Z</time>
      </trkpt>
      <trkpt lat="44.43764" lon="5.70946">
        <ele>690.8</ele>
        <time>2023-09-28T07:06:03Z</time>
      </trkpt>
      <trkpt lat="44.4377" lon="5.70941">
        <ele>690.4</ele>
        <time>2023-09-28T07:06:04Z</time>
      </trkpt>
      <trkpt lat="44.43776" lon="5.70936">
        <ele>690.1</ele>
        <time>2023-09-28T07:06:05Z</time>
      </trkpt>
      <trkpt lat="44.43782" lon="5.7093">
        <ele>689.8</ele>
        <time>2023-09-28T07:06:06Z</time>
      </trkpt>
      <trkpt lat="44.43788" lon="5.70924">
        <ele>689.5</ele>
        <time>2023-09-28T07:06:07Z</time>
      </trkpt>
      <trkpt lat="44.43794" lon="5.70918">
        <ele>689.4</ele>
        <time>2023-09-28T07:06:08Z</time>
      </trkpt>
      <trkpt lat="44.438" lon="5.70912">
        <ele>689.3</ele>
        <time>2023-09-28T07:06:09Z</time>
      </trkpt>
      <trkpt lat="44.43806" lon="5.70906">
        <ele>689.3</ele>
        <time>2023-09-28T07:06:10Z</time>
      </trkpt>
      <trkpt lat="44.43811" lon="5.709">
        <ele>689.3</ele>
        <time>2023-09-28T07:06:11Z</time>
      </trkpt>
      <trkpt lat="44.43816" lon="5.70895">
        <ele>689.4</ele>
        <time>2023-09-28T07:06:12Z</time>
      </trkpt>
      <trkpt lat="44.43821" lon="5.70889">
        <ele>689.5</ele>
        <time>2023-09-28T07:06:13Z</time>
      </trkpt>
      <trkpt lat="44.43827" lon="5.70885">
        <ele>689.6</ele>
        <time>2023-09-28T07:06:14Z</time>
      </trkpt>
      <trkpt lat="44.43831" lon="5.7088">
        <ele>689.7</ele>
        <time>2023-09-28T07:06:15Z</time>
      </trkpt>
      <trkpt lat="44.43836" lon="5.70876">
        <ele>689.8</ele>
        <time>2023-09-28T07:06:16Z</time>
      </trkpt>
      <trkpt lat="44.4384" lon="5.70872">
        <ele>689.9</ele>
        <time>2023-09-28T07:06:17Z</time>
      </trkpt>
      <trkpt lat="44.43845" lon="5.70869">
        <ele>689.9</ele>
        <time>2023-09-28T07:06:18Z</time>
      </trkpt>
      <trkpt lat="44.43849" lon="5.70865">
        <ele>690</ele>
        <time>2023-09-28T07:06:19Z</time>
      </trkpt>
      <trkpt lat="44.43853" lon="5.70862">
        <ele>690.1</ele>
        <time>2023-09-28T07:06:20Z</time>
      </trkpt>
      <trkpt lat="44.43857" lon="5.70859">
        <ele>690.2</ele>
        <time>2023-09-28T07:06:21Z</time>
      </trkpt>
      <trkpt lat="44.43861" lon="5.70856">
        <ele>690.3</ele>
        <time>2023-09-28T07:06:22Z</time>
      </trkpt>
      <trkpt lat="44.43866" lon="5.70853">
        <ele>690.4</ele>
        <time>2023-09-28T07:06:23Z</time>
      </trkpt>
      <trkpt lat="44.4387" lon="5.7085">
        <ele>690.5</ele>
        <time>2023-09-28T07:06:24Z</time>
      </trkpt>
      <trkpt lat="44.43874" lon="5.70847">
        <ele>690.6</ele>
        <time>2023-09-28T07:06:25Z</time>
      </trkpt>
      <trkpt lat="44.43879" lon="5.70845">
        <ele>690.7</ele>
        <time>2023-09-28T07:06:26Z</time>
      </trkpt>
      <trkpt lat="44.43883" lon="5.70843">
        <ele>690.8</ele>
        <time>2023-09-28T07:06:27Z</time>
      </trkpt>
      <trkpt lat="44.43887" lon="5.70841">
        <ele>690.9</ele>
        <time>2023-09-28T07:06:28Z</time>
      </trkpt>
      <trkpt lat="44.43891" lon="5.70838">
        <ele>690.9</ele>
        <time>2023-09-28T07:06:29Z</time>
      </trkpt>
      <trkpt lat="44.43895" lon="5.70836">
        <ele>691</ele>
        <time>2023-09-28T07:06:30Z</time>
      </trkpt>
      <trkpt lat="44.43899" lon="5.70834">
        <ele>691</ele>
        <time>2023-09-28T07:06:31Z</time>
      </trkpt>
      <trkpt lat="44.43903" lon="5.70832">
        <ele>691.1</ele>
        <time>2023-09-28T07:06:32Z</time>
      </trkpt>
      <trkpt lat="44.43907" lon="5.7083">
        <ele>691.1</ele>
        <time>2023-09-28T07:06:33Z</time>
      </trkpt>
      <trkpt lat="44.43912" lon="5.70827">
        <ele>691.2</ele>
        <time>2023-09-28T07:06:34Z</time>
      </trkpt>
      <trkpt lat="44.43916" lon="5.70824">
        <ele>691.2</ele>
        <time>2023-09-28T07:06:35Z</time>
      </trkpt>
      <trkpt lat="44.4392" lon="5.70821">
        <ele>691.3</ele>
        <time>2023-09-28T07:06:36Z</time>
      </trkpt>
      <trkpt lat="44.43924" lon="5.70818">
        <ele>691.3</ele>
        <time>2023-09-28T07:06:37Z</time>
      </trkpt>
      <trkpt lat="44.43928" lon="5.70814">
        <ele>691.4</ele>
        <time>2023-09-28T07:06:38Z</time>
      </trkpt>
      <trkpt lat="44.43933" lon="5.70811">
        <ele>691.5</ele>
        <time>2023-09-28T07:06:40Z</time>
      </trkpt>
      <trkpt lat="44.43938" lon="5.70807">
        <ele>691.6</ele>
        <time>2023-09-28T07:06:41Z</time>
      </trkpt>
      <trkpt lat="44.43943" lon="5.70803">
        <ele>691.7</ele>
        <time>2023-09-28T07:06:42Z</time>
      </trkpt>
      <trkpt lat="44.43946" lon="5.708">
        <ele>691.7</ele>
        <time>2023-09-28T07:06:43Z</time>
      </trkpt>
      <trkpt lat="44.4395" lon="5.70796">
        <ele>691.7</ele>
        <time>2023-09-28T07:06:44Z</time>
      </trkpt>
      <trkpt lat="44.43954" lon="5.70792">
        <ele>691.7</ele>
        <time>2023-09-28T07:06:45Z</time>
      </trkpt>
      <trkpt lat="44.43959" lon="5.70789">
        <ele>691.7</ele>
        <time>2023-09-28T07:06:46Z</time>
      </trkpt>
      <trkpt lat="44.43963" lon="5.70786">
        <ele>691.7</ele>
        <time>2023-09-28T07:06:47Z</time>
      </trkpt>
      <trkpt lat="44.43967" lon="5.70783">
        <ele>691.7</ele>
        <time>2023-09-28T07:06:48Z</time>
      </trkpt>
      <trkpt lat="44.43971" lon="5.7078">
        <ele>691.7</ele>
        <time>2023-09-28T07:06:49Z</time>
      </trkpt>
      <trkpt lat="44.43975" lon="5.70776">
        <ele>691.7</ele>
        <time>2023-09-28T07:06:50Z</time>
      </trkpt>
      <trkpt lat="44.43979" lon="5.70772">
        <ele>691.8</ele>
        <time>2023-09-28T07:06:51Z</time>
      </trkpt>
      <trkpt lat="44.43982" lon="5.70768">
        <ele>691.8</ele>
        <time>2023-09-28T07:06:52Z</time>
      </trkpt>
      <trkpt lat="44.43985" lon="5.70763">
        <ele>691.8</ele>
        <time>2023-09-28T07:06:53Z</time>
      </trkpt>
      <trkpt lat="44.43988" lon="5.70758">
        <ele>691.9</ele>
        <time>2023-09-28T07:06:54Z</time>
      </trkpt>
      <trkpt lat="44.43989" lon="5.70752">
        <ele>691.9</ele>
        <time>2023-09-28T07:06:55Z</time>
      </trkpt>
      <trkpt lat="44.43991" lon="5.70746">
        <ele>692</ele>
        <time>2023-09-28T07:06:56Z</time>
      </trkpt>
      <trkpt lat="44.43992" lon="5.7074">
        <ele>692</ele>
        <time>2023-09-28T07:06:57Z</time>
      </trkpt>
      <trkpt lat="44.43994" lon="5.70734">
        <ele>692.1</ele>
        <time>2023-09-28T07:06:58Z</time>
      </trkpt>
      <trkpt lat="44.43996" lon="5.70728">
        <ele>692.1</ele>
        <time>2023-09-28T07:06:59Z</time>
      </trkpt>
      <trkpt lat="44.43999" lon="5.70722">
        <ele>692.2</ele>
        <time>2023-09-28T07:07:00Z</time>
      </trkpt>
      <trkpt lat="44.44001" lon="5.70717">
        <ele>692.2</ele>
        <time>2023-09-28T07:07:01Z</time>
      </trkpt>
      <trkpt lat="44.44004" lon="5.70711">
        <ele>692.2</ele>
        <time>2023-09-28T07:07:02Z</time>
      </trkpt>
      <trkpt lat="44.44008" lon="5.70706">
        <ele>692.3</ele>
        <time>2023-09-28T07:07:03Z</time>
      </trkpt>
      <trkpt lat="44.44011" lon="5.70701">
        <ele>692.3</ele>
        <time>2023-09-28T07:07:04Z</time>
      </trkpt>
      <trkpt lat="44.44014" lon="5.70696">
        <ele>692.3</ele>
        <time>2023-09-28T07:07:05Z</time>
      </trkpt>
      <trkpt lat="44.44018" lon="5.70692">
        <ele>692.4</ele>
        <time>2023-09-28T07:07:06Z</time>
      </trkpt>
      <trkpt lat="44.44021" lon="5.70687">
        <ele>692.4</ele>
        <time>2023-09-28T07:07:07Z</time>
      </trkpt>
      <trkpt lat="44.44024" lon="5.70683">
        <ele>692.5</ele>
        <time>2023-09-28T07:07:08Z</time>
      </trkpt>
      <trkpt lat="44.44027" lon="5.70679">
        <ele>692.5</ele>
        <time>2023-09-28T07:07:09Z</time>
      </trkpt>
      <trkpt lat="44.44031" lon="5.70674">
        <ele>692.6</ele>
        <time>2023-09-28T07:07:10Z</time>
      </trkpt>
      <trkpt lat="44.44034" lon="5.7067">
        <ele>692.6</ele>
        <time>2023-09-28T07:07:11Z</time>
      </trkpt>
      <trkpt lat="44.44038" lon="5.70666">
        <ele>692.7</ele>
        <time>2023-09-28T07:07:12Z</time>
      </trkpt>
      <trkpt lat="44.44042" lon="5.70662">
        <ele>692.7</ele>
        <time>2023-09-28T07:07:13Z</time>
      </trkpt>
      <trkpt lat="44.44047" lon="5.70659">
        <ele>692.8</ele>
        <time>2023-09-28T07:07:14Z</time>
      </trkpt>
      <trkpt lat="44.44051" lon="5.70656">
        <ele>692.8</ele>
        <time>2023-09-28T07:07:15Z</time>
      </trkpt>
      <trkpt lat="44.44056" lon="5.70653">
        <ele>692.9</ele>
        <time>2023-09-28T07:07:16Z</time>
      </trkpt>
      <trkpt lat="44.4406" lon="5.70651">
        <ele>692.9</ele>
        <time>2023-09-28T07:07:17Z</time>
      </trkpt>
      <trkpt lat="44.44065" lon="5.70649">
        <ele>692.9</ele>
        <time>2023-09-28T07:07:18Z</time>
      </trkpt>
      <trkpt lat="44.44069" lon="5.70647">
        <ele>693</ele>
        <time>2023-09-28T07:07:19Z</time>
      </trkpt>
      <trkpt lat="44.44073" lon="5.70645">
        <ele>693</ele>
        <time>2023-09-28T07:07:20Z</time>
      </trkpt>
      <trkpt lat="44.44078" lon="5.70644">
        <ele>693.1</ele>
        <time>2023-09-28T07:07:21Z</time>
      </trkpt>
      <trkpt lat="44.44083" lon="5.70642">
        <ele>693.2</ele>
        <time>2023-09-28T07:07:22Z</time>
      </trkpt>
      <trkpt lat="44.44087" lon="5.70642">
        <ele>693.2</ele>
        <time>2023-09-28T07:07:23Z</time>
      </trkpt>
      <trkpt lat="44.44092" lon="5.70641">
        <ele>693.3</ele>
        <time>2023-09-28T07:07:24Z</time>
      </trkpt>
      <trkpt lat="44.44096" lon="5.7064">
        <ele>693.4</ele>
        <time>2023-09-28T07:07:25Z</time>
      </trkpt>
      <trkpt lat="44.44101" lon="5.70639">
        <ele>693.4</ele>
        <time>2023-09-28T07:07:26Z</time>
      </trkpt>
      <trkpt lat="44.44105" lon="5.70639">
        <ele>693.5</ele>
        <time>2023-09-28T07:07:27Z</time>
      </trkpt>
      <trkpt lat="44.4411" lon="5.70638">
        <ele>693.6</ele>
        <time>2023-09-28T07:07:28Z</time>
      </trkpt>
      <trkpt lat="44.44114" lon="5.70638">
        <ele>693.6</ele>
        <time>2023-09-28T07:07:29Z</time>
      </trkpt>
      <trkpt lat="44.44119" lon="5.70637">
        <ele>693.7</ele>
        <time>2023-09-28T07:07:30Z</time>
      </trkpt>
      <trkpt lat="44.44123" lon="5.70637">
        <ele>693.8</ele>
        <time>2023-09-28T07:07:31Z</time>
      </trkpt>
      <trkpt lat="44.44127" lon="5.70636">
        <ele>693.8</ele>
        <time>2023-09-28T07:07:32Z</time>
      </trkpt>
      <trkpt lat="44.44131" lon="5.70634">
        <ele>693.9</ele>
        <time>2023-09-28T07:07:33Z</time>
      </trkpt>
      <trkpt lat="44.44138" lon="5.70632">
        <ele>693.9</ele>
        <time>2023-09-28T07:07:35Z</time>
      </trkpt>
      <trkpt lat="44.44143" lon="5.70629">
        <ele>694</ele>
        <time>2023-09-28T07:07:36Z</time>
      </trkpt>
      <trkpt lat="44.44147" lon="5.70625">
        <ele>694</ele>
        <time>2023-09-28T07:07:37Z</time>
      </trkpt>
      <trkpt lat="44.44152" lon="5.70621">
        <ele>694</ele>
        <time>2023-09-28T07:07:38Z</time>
      </trkpt>
      <trkpt lat="44.44156" lon="5.70617">
        <ele>694.1</ele>
        <time>2023-09-28T07:07:39Z</time>
      </trkpt>
      <trkpt lat="44.4416" lon="5.70614">
        <ele>694.1</ele>
        <time>2023-09-28T07:07:40Z</time>
      </trkpt>
      <trkpt lat="44.44164" lon="5.7061">
        <ele>694.1</ele>
        <time>2023-09-28T07:07:41Z</time>
      </trkpt>
      <trkpt lat="44.44168" lon="5.70607">
        <ele>694.2</ele>
        <time>2023-09-28T07:07:42Z</time>
      </trkpt>
      <trkpt lat="44.44172" lon="5.70603">
        <ele>694.2</ele>
        <time>2023-09-28T07:07:43Z</time>
      </trkpt>
      <trkpt lat="44.44175" lon="5.70599">
        <ele>694.3</ele>
        <time>2023-09-28T07:07:44Z</time>
      </trkpt>
      <trkpt lat="44.44178" lon="5.70595">
        <ele>694.3</ele>
        <time>2023-09-28T07:07:45Z</time>
      </trkpt>
      <trkpt lat="44.44181" lon="5.7059">
        <ele>694.4</ele>
        <time>2023-09-28T07:07:46Z</time>
      </trkpt>
      <trkpt lat="44.44184" lon="5.70585">
        <ele>694.5</ele>
        <time>2023-09-28T07:07:47Z</time>
      </trkpt>
      <trkpt lat="44.44187" lon="5.70579">
        <ele>694.5</ele>
        <time>2023-09-28T07:07:48Z</time>
      </trkpt>
      <trkpt lat="44.44191" lon="5.70574">
        <ele>694.6</ele>
        <time>2023-09-28T07:07:50Z</time>
      </trkpt>
      <trkpt lat="44.44193" lon="5.70569">
        <ele>694.7</ele>
        <time>2023-09-28T07:07:51Z</time>
      </trkpt>
      <trkpt lat="44.44195" lon="5.70563">
        <ele>694.8</ele>
        <time>2023-09-28T07:07:52Z</time>
      </trkpt>
      <trkpt lat="44.44197" lon="5.70558">
        <ele>694.8</ele>
        <time>2023-09-28T07:07:53Z</time>
      </trkpt>
      <trkpt lat="44.442" lon="5.70551">
        <ele>694.9</ele>
        <time>2023-09-28T07:07:54Z</time>
      </trkpt>
      <trkpt lat="44.44203" lon="5.70546">
        <ele>694.9</ele>
        <time>2023-09-28T07:07:55Z</time>
      </trkpt>
      <trkpt lat="44.44207" lon="5.7054">
        <ele>695</ele>
        <time>2023-09-28T07:07:56Z</time>
      </trkpt>
      <trkpt lat="44.4421" lon="5.70535">
        <ele>695</ele>
        <time>2023-09-28T07:07:57Z</time>
      </trkpt>
      <trkpt lat="44.44213" lon="5.7053">
        <ele>695</ele>
        <time>2023-09-28T07:07:58Z</time>
      </trkpt>
      <trkpt lat="44.44216" lon="5.70525">
        <ele>694.9</ele>
        <time>2023-09-28T07:07:59Z</time>
      </trkpt>
      <trkpt lat="44.44219" lon="5.7052">
        <ele>694.9</ele>
        <time>2023-09-28T07:08:00Z</time>
      </trkpt>
      <trkpt lat="44.44223" lon="5.70516">
        <ele>694.9</ele>
        <time>2023-09-28T07:08:01Z</time>
      </trkpt>
      <trkpt lat="44.44227" lon="5.70513">
        <ele>694.9</ele>
        <time>2023-09-28T07:08:02Z</time>
      </trkpt>
      <trkpt lat="44.44231" lon="5.7051">
        <ele>695</ele>
        <time>2023-09-28T07:08:03Z</time>
      </trkpt>
      <trkpt lat="44.44236" lon="5.70508">
        <ele>695</ele>
        <time>2023-09-28T07:08:04Z</time>
      </trkpt>
      <trkpt lat="44.4424" lon="5.70505">
        <ele>695.1</ele>
        <time>2023-09-28T07:08:05Z</time>
      </trkpt>
      <trkpt lat="44.44244" lon="5.70502">
        <ele>695.1</ele>
        <time>2023-09-28T07:08:06Z</time>
      </trkpt>
      <trkpt lat="44.44248" lon="5.705">
        <ele>695.2</ele>
        <time>2023-09-28T07:08:07Z</time>
      </trkpt>
      <trkpt lat="44.44253" lon="5.70497">
        <ele>695.2</ele>
        <time>2023-09-28T07:08:09Z</time>
      </trkpt>
      <trkpt lat="44.44259" lon="5.70493">
        <ele>695.3</ele>
        <time>2023-09-28T07:08:10Z</time>
      </trkpt>
      <trkpt lat="44.44263" lon="5.7049">
        <ele>695.3</ele>
        <time>2023-09-28T07:08:11Z</time>
      </trkpt>
      <trkpt lat="44.44268" lon="5.70486">
        <ele>695.4</ele>
        <time>2023-09-28T07:08:13Z</time>
      </trkpt>
      <trkpt lat="44.44273" lon="5.70483">
        <ele>695.4</ele>
        <time>2023-09-28T07:08:14Z</time>
      </trkpt>
      <trkpt lat="44.4428" lon="5.70479">
        <ele>695.5</ele>
        <time>2023-09-28T07:08:15Z</time>
      </trkpt>
      <trkpt lat="44.44284" lon="5.70477">
        <ele>695.6</ele>
        <time>2023-09-28T07:08:16Z</time>
      </trkpt>
      <trkpt lat="44.44288" lon="5.70474">
        <ele>695.6</ele>
        <time>2023-09-28T07:08:17Z</time>
      </trkpt>
      <trkpt lat="44.44293" lon="5.70471">
        <ele>695.7</ele>
        <time>2023-09-28T07:08:18Z</time>
      </trkpt>
      <trkpt lat="44.44298" lon="5.70469">
        <ele>695.8</ele>
        <time>2023-09-28T07:08:20Z</time>
      </trkpt>
      <trkpt lat="44.44303" lon="5.70467">
        <ele>695.8</ele>
        <time>2023-09-28T07:08:21Z</time>
      </trkpt>
      <trkpt lat="44.44307" lon="5.70464">
        <ele>695.9</ele>
        <time>2023-09-28T07:08:22Z</time>
      </trkpt>
      <trkpt lat="44.44311" lon="5.70461">
        <ele>696</ele>
        <time>2023-09-28T07:08:23Z</time>
      </trkpt>
      <trkpt lat="44.44316" lon="5.70458">
        <ele>696.1</ele>
        <time>2023-09-28T07:08:24Z</time>
      </trkpt>
      <trkpt lat="44.44319" lon="5.70454">
        <ele>696.2</ele>
        <time>2023-09-28T07:08:25Z</time>
      </trkpt>
      <trkpt lat="44.44323" lon="5.7045">
        <ele>696.4</ele>
        <time>2023-09-28T07:08:27Z</time>
      </trkpt>
      <trkpt lat="44.44327" lon="5.70445">
        <ele>696.5</ele>
        <time>2023-09-28T07:08:28Z</time>
      </trkpt>
      <trkpt lat="44.44329" lon="5.7044">
        <ele>696.6</ele>
        <time>2023-09-28T07:08:29Z</time>
      </trkpt>
      <trkpt lat="44.44331" lon="5.70434">
        <ele>696.8</ele>
        <time>2023-09-28T07:08:30Z</time>
      </trkpt>
      <trkpt lat="44.44334" lon="5.70428">
        <ele>696.9</ele>
        <time>2023-09-28T07:08:31Z</time>
      </trkpt>
      <trkpt lat="44.44335" lon="5.70423">
        <ele>697</ele>
        <time>2023-09-28T07:08:32Z</time>
      </trkpt>
      <trkpt lat="44.44338" lon="5.70418">
        <ele>697.1</ele>
        <time>2023-09-28T07:08:33Z</time>
      </trkpt>
      <trkpt lat="44.4434" lon="5.70413">
        <ele>697.2</ele>
        <time>2023-09-28T07:08:34Z</time>
      </trkpt>
      <trkpt lat="44.44342" lon="5.70408">
        <ele>697.3</ele>
        <time>2023-09-28T07:08:35Z</time>
      </trkpt>
      <trkpt lat="44.44345" lon="5.70402">
        <ele>697.3</ele>
        <time>2023-09-28T07:08:37Z</time>
      </trkpt>
      <trkpt lat="44.44348" lon="5.70395">
        <ele>697.4</ele>
        <time>2023-09-28T07:08:38Z</time>
      </trkpt>
      <trkpt lat="44.44351" lon="5.70389">
        <ele>697.5</ele>
        <time>2023-09-28T07:08:39Z</time>
      </trkpt>
      <trkpt lat="44.44354" lon="5.70384">
        <ele>697.5</ele>
        <time>2023-09-28T07:08:40Z</time>
      </trkpt>
      <trkpt lat="44.44358" lon="5.70381">
        <ele>697.5</ele>
        <time>2023-09-28T07:08:41Z</time>
      </trkpt>
      <trkpt lat="44.44363" lon="5.70377">
        <ele>697.5</ele>
        <time>2023-09-28T07:08:43Z</time>
      </trkpt>
      <trkpt lat="44.44369" lon="5.70374">
        <ele>697.4</ele>
        <time>2023-09-28T07:08:44Z</time>
      </trkpt>
      <trkpt lat="44.44375" lon="5.70371">
        <ele>697.4</ele>
        <time>2023-09-28T07:08:45Z</time>
      </trkpt>
      <trkpt lat="44.44383" lon="5.70367">
        <ele>697.3</ele>
        <time>2023-09-28T07:08:47Z</time>
      </trkpt>
      <trkpt lat="44.44387" lon="5.70365">
        <ele>697.2</ele>
        <time>2023-09-28T07:08:48Z</time>
      </trkpt>
      <trkpt lat="44.44392" lon="5.70363">
        <ele>697.2</ele>
        <time>2023-09-28T07:08:49Z</time>
      </trkpt>
      <trkpt lat="44.44397" lon="5.7036">
        <ele>697.2</ele>
        <time>2023-09-28T07:08:50Z</time>
      </trkpt>
      <trkpt lat="44.44401" lon="5.70358">
        <ele>697.1</ele>
        <time>2023-09-28T07:08:51Z</time>
      </trkpt>
      <trkpt lat="44.44405" lon="5.70355">
        <ele>697.1</ele>
        <time>2023-09-28T07:08:52Z</time>
      </trkpt>
      <trkpt lat="44.4441" lon="5.70353">
        <ele>697.1</ele>
        <time>2023-09-28T07:08:53Z</time>
      </trkpt>
      <trkpt lat="44.44414" lon="5.7035">
        <ele>697.1</ele>
        <time>2023-09-28T07:08:54Z</time>
      </trkpt>
      <trkpt lat="44.44418" lon="5.70348">
        <ele>697.1</ele>
        <time>2023-09-28T07:08:55Z</time>
      </trkpt>
      <trkpt lat="44.44423" lon="5.70346">
        <ele>697</ele>
        <time>2023-09-28T07:08:56Z</time>
      </trkpt>
      <trkpt lat="44.44427" lon="5.70343">
        <ele>697</ele>
        <time>2023-09-28T07:08:57Z</time>
      </trkpt>
      <trkpt lat="44.44432" lon="5.70341">
        <ele>697</ele>
        <time>2023-09-28T07:08:58Z</time>
      </trkpt>
      <trkpt lat="44.44437" lon="5.70339">
        <ele>697</ele>
        <time>2023-09-28T07:08:59Z</time>
      </trkpt>
      <trkpt lat="44.44441" lon="5.70338">
        <ele>697</ele>
        <time>2023-09-28T07:09:00Z</time>
      </trkpt>
      <trkpt lat="44.44446" lon="5.70337">
        <ele>697</ele>
        <time>2023-09-28T07:09:01Z</time>
      </trkpt>
      <trkpt lat="44.44451" lon="5.70336">
        <ele>697</ele>
        <time>2023-09-28T07:09:02Z</time>
      </trkpt>
      <trkpt lat="44.44456" lon="5.70336">
        <ele>697</ele>
        <time>2023-09-28T07:09:03Z</time>
      </trkpt>
      <trkpt lat="44.44461" lon="5.70335">
        <ele>697.1</ele>
        <time>2023-09-28T07:09:04Z</time>
      </trkpt>
      <trkpt lat="44.44466" lon="5.70336">
        <ele>697.1</ele>
        <time>2023-09-28T07:09:05Z</time>
      </trkpt>
      <trkpt lat="44.4447" lon="5.70336">
        <ele>697.2</ele>
        <time>2023-09-28T07:09:06Z</time>
      </trkpt>
      <trkpt lat="44.44475" lon="5.70336">
        <ele>697.2</ele>
        <time>2023-09-28T07:09:07Z</time>
      </trkpt>
      <trkpt lat="44.4448" lon="5.70336">
        <ele>697.3</ele>
        <time>2023-09-28T07:09:08Z</time>
      </trkpt>
      <trkpt lat="44.44484" lon="5.70337">
        <ele>697.3</ele>
        <time>2023-09-28T07:09:09Z</time>
      </trkpt>
      <trkpt lat="44.44489" lon="5.70337">
        <ele>697.3</ele>
        <time>2023-09-28T07:09:10Z</time>
      </trkpt>
      <trkpt lat="44.44493" lon="5.70336">
        <ele>697.3</ele>
        <time>2023-09-28T07:09:11Z</time>
      </trkpt>
      <trkpt lat="44.44498" lon="5.70336">
        <ele>697.3</ele>
        <time>2023-09-28T07:09:12Z</time>
      </trkpt>
      <trkpt lat="44.44503" lon="5.70335">
        <ele>697.4</ele>
        <time>2023-09-28T07:09:13Z</time>
      </trkpt>
      <trkpt lat="44.44507" lon="5.70334">
        <ele>697.5</ele>
        <time>2023-09-28T07:09:14Z</time>
      </trkpt>
      <trkpt lat="44.44512" lon="5.70333">
        <ele>697.6</ele>
        <time>2023-09-28T07:09:15Z</time>
      </trkpt>
      <trkpt lat="44.44516" lon="5.70331">
        <ele>697.7</ele>
        <time>2023-09-28T07:09:16Z</time>
      </trkpt>
      <trkpt lat="44.4452" lon="5.70329">
        <ele>697.8</ele>
        <time>2023-09-28T07:09:17Z</time>
      </trkpt>
      <trkpt lat="44.44524" lon="5.70326">
        <ele>697.9</ele>
        <time>2023-09-28T07:09:18Z</time>
      </trkpt>
      <trkpt lat="44.44528" lon="5.70323">
        <ele>698</ele>
        <time>2023-09-28T07:09:19Z</time>
      </trkpt>
      <trkpt lat="44.44532" lon="5.70321">
        <ele>698.1</ele>
        <time>2023-09-28T07:09:20Z</time>
      </trkpt>
      <trkpt lat="44.44535" lon="5.70318">
        <ele>698.2</ele>
        <time>2023-09-28T07:09:21Z</time>
      </trkpt>
      <trkpt lat="44.44539" lon="5.70314">
        <ele>698.4</ele>
        <time>2023-09-28T07:09:22Z</time>
      </trkpt>
      <trkpt lat="44.44542" lon="5.70311">
        <ele>698.5</ele>
        <time>2023-09-28T07:09:23Z</time>
      </trkpt>
      <trkpt lat="44.44547" lon="5.70308">
        <ele>698.7</ele>
        <time>2023-09-28T07:09:25Z</time>
      </trkpt>
      <trkpt lat="44.4455" lon="5.70305">
        <ele>698.8</ele>
        <time>2023-09-28T07:09:26Z</time>
      </trkpt>
      <trkpt lat="44.44554" lon="5.70299">
        <ele>699.1</ele>
        <time>2023-09-28T07:09:27Z</time>
      </trkpt>
      <trkpt lat="44.44558" lon="5.70295">
        <ele>699.2</ele>
        <time>2023-09-28T07:09:28Z</time>
      </trkpt>
      <trkpt lat="44.44561" lon="5.70292">
        <ele>699.4</ele>
        <time>2023-09-28T07:09:29Z</time>
      </trkpt>
      <trkpt lat="44.44564" lon="5.70288">
        <ele>699.6</ele>
        <time>2023-09-28T07:09:30Z</time>
      </trkpt>
      <trkpt lat="44.44568" lon="5.70284">
        <ele>699.8</ele>
        <time>2023-09-28T07:09:31Z</time>
      </trkpt>
      <trkpt lat="44.44571" lon="5.7028">
        <ele>699.9</ele>
        <time>2023-09-28T07:09:32Z</time>
      </trkpt>
      <trkpt lat="44.44575" lon="5.70276">
        <ele>700.1</ele>
        <time>2023-09-28T07:09:34Z</time>
      </trkpt>
      <trkpt lat="44.44579" lon="5.70273">
        <ele>700.3</ele>
        <time>2023-09-28T07:09:35Z</time>
      </trkpt>
      <trkpt lat="44.44581" lon="5.7027">
        <ele>700.4</ele>
        <time>2023-09-28T07:09:36Z</time>
      </trkpt>
      <trkpt lat="44.44585" lon="5.70265">
        <ele>700.5</ele>
        <time>2023-09-28T07:09:37Z</time>
      </trkpt>
      <trkpt lat="44.44587" lon="5.70261">
        <ele>700.6</ele>
        <time>2023-09-28T07:09:38Z</time>
      </trkpt>
      <trkpt lat="44.4459" lon="5.70257">
        <ele>700.7</ele>
        <time>2023-09-28T07:09:39Z</time>
      </trkpt>
      <trkpt lat="44.44593" lon="5.7025">
        <ele>700.9</ele>
        <time>2023-09-28T07:09:41Z</time>
      </trkpt>
      <trkpt lat="44.44595" lon="5.70245">
        <ele>701.1</ele>
        <time>2023-09-28T07:09:42Z</time>
      </trkpt>
      <trkpt lat="44.44597" lon="5.7024">
        <ele>701.2</ele>
        <time>2023-09-28T07:09:43Z</time>
      </trkpt>
      <trkpt lat="44.44598" lon="5.70236">
        <ele>701.3</ele>
        <time>2023-09-28T07:09:44Z</time>
      </trkpt>
      <trkpt lat="44.446" lon="5.70231">
        <ele>701.4</ele>
        <time>2023-09-28T07:09:45Z</time>
      </trkpt>
      <trkpt lat="44.44602" lon="5.70224">
        <ele>701.5</ele>
        <time>2023-09-28T07:09:47Z</time>
      </trkpt>
      <trkpt lat="44.44603" lon="5.70219">
        <ele>701.6</ele>
        <time>2023-09-28T07:09:48Z</time>
      </trkpt>
      <trkpt lat="44.44604" lon="5.70214">
        <ele>701.7</ele>
        <time>2023-09-28T07:09:49Z</time>
      </trkpt>
      <trkpt lat="44.44605" lon="5.70209">
        <ele>701.8</ele>
        <time>2023-09-28T07:09:50Z</time>
      </trkpt>
      <trkpt lat="44.44606" lon="5.70203">
        <ele>702</ele>
        <time>2023-09-28T07:09:51Z</time>
      </trkpt>
      <trkpt lat="44.44608" lon="5.70199">
        <ele>702</ele>
        <time>2023-09-28T07:09:52Z</time>
      </trkpt>
      <trkpt lat="44.44608" lon="5.70196">
        <ele>702.2</ele>
        <time>2023-09-28T07:09:53Z</time>
      </trkpt>
      <trkpt lat="44.4461" lon="5.70188">
        <ele>702.4</ele>
        <time>2023-09-28T07:09:55Z</time>
      </trkpt>
      <trkpt lat="44.4461" lon="5.70182">
        <ele>702.5</ele>
        <time>2023-09-28T07:09:56Z</time>
      </trkpt>
      <trkpt lat="44.44611" lon="5.70178">
        <ele>702.7</ele>
        <time>2023-09-28T07:09:57Z</time>
      </trkpt>
      <trkpt lat="44.44611" lon="5.70172">
        <ele>702.8</ele>
        <time>2023-09-28T07:09:58Z</time>
      </trkpt>
      <trkpt lat="44.44612" lon="5.70166">
        <ele>703</ele>
        <time>2023-09-28T07:09:59Z</time>
      </trkpt>
      <trkpt lat="44.44612" lon="5.7016">
        <ele>703.2</ele>
        <time>2023-09-28T07:10:01Z</time>
      </trkpt>
      <trkpt lat="44.44612" lon="5.70154">
        <ele>703.3</ele>
        <time>2023-09-28T07:10:02Z</time>
      </trkpt>
      <trkpt lat="44.44612" lon="5.7015">
        <ele>703.4</ele>
        <time>2023-09-28T07:10:03Z</time>
      </trkpt>
      <trkpt lat="44.44613" lon="5.70143">
        <ele>703.6</ele>
        <time>2023-09-28T07:10:04Z</time>
      </trkpt>
      <trkpt lat="44.44613" lon="5.70138">
        <ele>703.8</ele>
        <time>2023-09-28T07:10:05Z</time>
      </trkpt>
      <trkpt lat="44.44613" lon="5.70133">
        <ele>703.8</ele>
        <time>2023-09-28T07:10:06Z</time>
      </trkpt>
      <trkpt lat="44.44613" lon="5.70128">
        <ele>703.8</ele>
        <time>2023-09-28T07:10:07Z</time>
      </trkpt>
      <trkpt lat="44.44614" lon="5.70122">
        <ele>703.9</ele>
        <time>2023-09-28T07:10:08Z</time>
      </trkpt>
      <trkpt lat="44.44615" lon="5.70116">
        <ele>704</ele>
        <time>2023-09-28T07:10:10Z</time>
      </trkpt>
      <trkpt lat="44.44617" lon="5.7011">
        <ele>704.2</ele>
        <time>2023-09-28T07:10:11Z</time>
      </trkpt>
      <trkpt lat="44.44619" lon="5.70104">
        <ele>704.3</ele>
        <time>2023-09-28T07:10:12Z</time>
      </trkpt>
      <trkpt lat="44.44622" lon="5.70098">
        <ele>704.5</ele>
        <time>2023-09-28T07:10:13Z</time>
      </trkpt>
      <trkpt lat="44.44624" lon="5.70093">
        <ele>704.6</ele>
        <time>2023-09-28T07:10:14Z</time>
      </trkpt>
      <trkpt lat="44.44628" lon="5.70086">
        <ele>704.8</ele>
        <time>2023-09-28T07:10:16Z</time>
      </trkpt>
      <trkpt lat="44.44632" lon="5.70081">
        <ele>705</ele>
        <time>2023-09-28T07:10:18Z</time>
      </trkpt>
      <trkpt lat="44.44635" lon="5.70076">
        <ele>705.2</ele>
        <time>2023-09-28T07:10:19Z</time>
      </trkpt>
      <trkpt lat="44.44638" lon="5.70072">
        <ele>705.3</ele>
        <time>2023-09-28T07:10:20Z</time>
      </trkpt>
      <trkpt lat="44.44641" lon="5.70068">
        <ele>705.4</ele>
        <time>2023-09-28T07:10:21Z</time>
      </trkpt>
      <trkpt lat="44.44644" lon="5.70065">
        <ele>705.5</ele>
        <time>2023-09-28T07:10:22Z</time>
      </trkpt>
      <trkpt lat="44.44647" lon="5.70061">
        <ele>705.6</ele>
        <time>2023-09-28T07:10:23Z</time>
      </trkpt>
      <trkpt lat="44.4465" lon="5.70058">
        <ele>705.7</ele>
        <time>2023-09-28T07:10:25Z</time>
      </trkpt>
      <trkpt lat="44.44654" lon="5.70054">
        <ele>705.9</ele>
        <time>2023-09-28T07:10:26Z</time>
      </trkpt>
      <trkpt lat="44.44658" lon="5.70051">
        <ele>706</ele>
        <time>2023-09-28T07:10:27Z</time>
      </trkpt>
      <trkpt lat="44.44661" lon="5.70048">
        <ele>706.1</ele>
        <time>2023-09-28T07:10:28Z</time>
      </trkpt>
      <trkpt lat="44.44664" lon="5.70045">
        <ele>706.2</ele>
        <time>2023-09-28T07:10:29Z</time>
      </trkpt>
      <trkpt lat="44.44671" lon="5.70039">
        <ele>706.3</ele>
        <time>2023-09-28T07:10:31Z</time>
      </trkpt>
      <trkpt lat="44.44675" lon="5.70035">
        <ele>706.4</ele>
        <time>2023-09-28T07:10:33Z</time>
      </trkpt>
      <trkpt lat="44.44678" lon="5.70032">
        <ele>706.5</ele>
        <time>2023-09-28T07:10:34Z</time>
      </trkpt>
      <trkpt lat="44.44681" lon="5.70028">
        <ele>706.6</ele>
        <time>2023-09-28T07:10:35Z</time>
      </trkpt>
      <trkpt lat="44.44685" lon="5.70025">
        <ele>706.7</ele>
        <time>2023-09-28T07:10:36Z</time>
      </trkpt>
      <trkpt lat="44.44688" lon="5.70023">
        <ele>706.7</ele>
        <time>2023-09-28T07:10:37Z</time>
      </trkpt>
      <trkpt lat="44.44692" lon="5.7002">
        <ele>706.8</ele>
        <time>2023-09-28T07:10:38Z</time>
      </trkpt>
      <trkpt lat="44.44695" lon="5.70016">
        <ele>706.9</ele>
        <time>2023-09-28T07:10:40Z</time>
      </trkpt>
      <trkpt lat="44.44699" lon="5.70013">
        <ele>707</ele>
        <time>2023-09-28T07:10:41Z</time>
      </trkpt>
      <trkpt lat="44.44702" lon="5.70011">
        <ele>707.1</ele>
        <time>2023-09-28T07:10:42Z</time>
      </trkpt>
      <trkpt lat="44.44705" lon="5.70008">
        <ele>707.2</ele>
        <time>2023-09-28T07:10:43Z</time>
      </trkpt>
      <trkpt lat="44.44708" lon="5.70006">
        <ele>707.2</ele>
        <time>2023-09-28T07:10:44Z</time>
      </trkpt>
      <trkpt lat="44.44712" lon="5.70002">
        <ele>707.3</ele>
        <time>2023-09-28T07:10:45Z</time>
      </trkpt>
      <trkpt lat="44.44715" lon="5.7">
        <ele>707.4</ele>
        <time>2023-09-28T07:10:46Z</time>
      </trkpt>
      <trkpt lat="44.44718" lon="5.69998">
        <ele>707.5</ele>
        <time>2023-09-28T07:10:48Z</time>
      </trkpt>
      <trkpt lat="44.44721" lon="5.69995">
        <ele>707.6</ele>
        <time>2023-09-28T07:10:49Z</time>
      </trkpt>
      <trkpt lat="44.44725" lon="5.69992">
        <ele>707.8</ele>
        <time>2023-09-28T07:10:50Z</time>
      </trkpt>
      <trkpt lat="44.44728" lon="5.6999">
        <ele>707.9</ele>
        <time>2023-09-28T07:10:51Z</time>
      </trkpt>
      <trkpt lat="44.44731" lon="5.69987">
        <ele>708</ele>
        <time>2023-09-28T07:10:52Z</time>
      </trkpt>
      <trkpt lat="44.44734" lon="5.69984">
        <ele>708.1</ele>
        <time>2023-09-28T07:10:53Z</time>
      </trkpt>
      <trkpt lat="44.44738" lon="5.69981">
        <ele>708.2</ele>
        <time>2023-09-28T07:10:54Z</time>
      </trkpt>
      <trkpt lat="44.44741" lon="5.69978">
        <ele>708.3</ele>
        <time>2023-09-28T07:10:55Z</time>
      </trkpt>
      <trkpt lat="44.44745" lon="5.69975">
        <ele>708.4</ele>
        <time>2023-09-28T07:10:57Z</time>
      </trkpt>
      <trkpt lat="44.44748" lon="5.69973">
        <ele>708.5</ele>
        <time>2023-09-28T07:10:58Z</time>
      </trkpt>
      <trkpt lat="44.44751" lon="5.69971">
        <ele>708.6</ele>
        <time>2023-09-28T07:10:59Z</time>
      </trkpt>
      <trkpt lat="44.44755" lon="5.69969">
        <ele>708.7</ele>
        <time>2023-09-28T07:11:00Z</time>
      </trkpt>
      <trkpt lat="44.44758" lon="5.69967">
        <ele>708.8</ele>
        <time>2023-09-28T07:11:01Z</time>
      </trkpt>
      <trkpt lat="44.44762" lon="5.69964">
        <ele>708.9</ele>
        <time>2023-09-28T07:11:02Z</time>
      </trkpt>
      <trkpt lat="44.44765" lon="5.69962">
        <ele>709</ele>
        <time>2023-09-28T07:11:03Z</time>
      </trkpt>
      <trkpt lat="44.44769" lon="5.69961">
        <ele>709.1</ele>
        <time>2023-09-28T07:11:04Z</time>
      </trkpt>
      <trkpt lat="44.44773" lon="5.69959">
        <ele>709.2</ele>
        <time>2023-09-28T07:11:06Z</time>
      </trkpt>
      <trkpt lat="44.44776" lon="5.69957">
        <ele>709.3</ele>
        <time>2023-09-28T07:11:07Z</time>
      </trkpt>
      <trkpt lat="44.44779" lon="5.69955">
        <ele>709.4</ele>
        <time>2023-09-28T07:11:08Z</time>
      </trkpt>
      <trkpt lat="44.44783" lon="5.69953">
        <ele>709.5</ele>
        <time>2023-09-28T07:11:09Z</time>
      </trkpt>
      <trkpt lat="44.44786" lon="5.69951">
        <ele>709.6</ele>
        <time>2023-09-28T07:11:10Z</time>
      </trkpt>
      <trkpt lat="44.44789" lon="5.6995">
        <ele>709.7</ele>
        <time>2023-09-28T07:11:11Z</time>
      </trkpt>
      <trkpt lat="44.44792" lon="5.69949">
        <ele>709.8</ele>
        <time>2023-09-28T07:11:12Z</time>
      </trkpt>
      <trkpt lat="44.44796" lon="5.69946">
        <ele>709.9</ele>
        <time>2023-09-28T07:11:13Z</time>
      </trkpt>
      <trkpt lat="44.448" lon="5.69944">
        <ele>710</ele>
        <time>2023-09-28T07:11:15Z</time>
      </trkpt>
      <trkpt lat="44.44804" lon="5.69943">
        <ele>710.1</ele>
        <time>2023-09-28T07:11:16Z</time>
      </trkpt>
      <trkpt lat="44.44808" lon="5.6994">
        <ele>710.2</ele>
        <time>2023-09-28T07:11:17Z</time>
      </trkpt>
      <trkpt lat="44.44811" lon="5.69938">
        <ele>710.3</ele>
        <time>2023-09-28T07:11:18Z</time>
      </trkpt>
      <trkpt lat="44.44814" lon="5.69937">
        <ele>710.4</ele>
        <time>2023-09-28T07:11:19Z</time>
      </trkpt>
      <trkpt lat="44.44818" lon="5.69935">
        <ele>710.6</ele>
        <time>2023-09-28T07:11:20Z</time>
      </trkpt>
      <trkpt lat="44.4482" lon="5.69933">
        <ele>710.6</ele>
        <time>2023-09-28T07:11:21Z</time>
      </trkpt>
      <trkpt lat="44.44824" lon="5.69931">
        <ele>710.7</ele>
        <time>2023-09-28T07:11:22Z</time>
      </trkpt>
      <trkpt lat="44.44827" lon="5.69928">
        <ele>710.8</ele>
        <time>2023-09-28T07:11:24Z</time>
      </trkpt>
      <trkpt lat="44.44831" lon="5.69925">
        <ele>711</ele>
        <time>2023-09-28T07:11:25Z</time>
      </trkpt>
      <trkpt lat="44.44833" lon="5.69922">
        <ele>711.1</ele>
        <time>2023-09-28T07:11:26Z</time>
      </trkpt>
      <trkpt lat="44.44836" lon="5.69919">
        <ele>711.1</ele>
        <time>2023-09-28T07:11:27Z</time>
      </trkpt>
      <trkpt lat="44.44838" lon="5.69915">
        <ele>711.3</ele>
        <time>2023-09-28T07:11:28Z</time>
      </trkpt>
      <trkpt lat="44.4484" lon="5.69911">
        <ele>711.3</ele>
        <time>2023-09-28T07:11:29Z</time>
      </trkpt>
      <trkpt lat="44.44842" lon="5.69906">
        <ele>711.3</ele>
        <time>2023-09-28T07:11:30Z</time>
      </trkpt>
      <trkpt lat="44.44844" lon="5.69902">
        <ele>711.3</ele>
        <time>2023-09-28T07:11:31Z</time>
      </trkpt>
      <trkpt lat="44.44846" lon="5.69896">
        <ele>711.3</ele>
        <time>2023-09-28T07:11:33Z</time>
      </trkpt>
      <trkpt lat="44.44849" lon="5.69889">
        <ele>711.3</ele>
        <time>2023-09-28T07:11:34Z</time>
      </trkpt>
      <trkpt lat="44.44851" lon="5.69883">
        <ele>711.3</ele>
        <time>2023-09-28T07:11:35Z</time>
      </trkpt>
      <trkpt lat="44.44852" lon="5.69877">
        <ele>711.2</ele>
        <time>2023-09-28T07:11:36Z</time>
      </trkpt>
      <trkpt lat="44.44854" lon="5.69865">
        <ele>711.2</ele>
        <time>2023-09-28T07:11:38Z</time>
      </trkpt>
      <trkpt lat="44.44856" lon="5.69857">
        <ele>711.1</ele>
        <time>2023-09-28T07:11:40Z</time>
      </trkpt>
      <trkpt lat="44.44858" lon="5.69847">
        <ele>711.1</ele>
        <time>2023-09-28T07:11:41Z</time>
      </trkpt>
      <trkpt lat="44.44859" lon="5.69841">
        <ele>711.1</ele>
        <time>2023-09-28T07:11:42Z</time>
      </trkpt>
      <trkpt lat="44.4486" lon="5.69834">
        <ele>711.1</ele>
        <time>2023-09-28T07:11:43Z</time>
      </trkpt>
      <trkpt lat="44.44861" lon="5.69828">
        <ele>711.1</ele>
        <time>2023-09-28T07:11:44Z</time>
      </trkpt>
      <trkpt lat="44.44863" lon="5.69822">
        <ele>711.2</ele>
        <time>2023-09-28T07:11:45Z</time>
      </trkpt>
      <trkpt lat="44.44865" lon="5.69815">
        <ele>711.2</ele>
        <time>2023-09-28T07:11:46Z</time>
      </trkpt>
      <trkpt lat="44.44867" lon="5.69809">
        <ele>711.2</ele>
        <time>2023-09-28T07:11:47Z</time>
      </trkpt>
      <trkpt lat="44.4487" lon="5.69804">
        <ele>711.2</ele>
        <time>2023-09-28T07:11:48Z</time>
      </trkpt>
      <trkpt lat="44.44872" lon="5.69798">
        <ele>711.3</ele>
        <time>2023-09-28T07:11:49Z</time>
      </trkpt>
      <trkpt lat="44.44875" lon="5.69792">
        <ele>711.3</ele>
        <time>2023-09-28T07:11:50Z</time>
      </trkpt>
      <trkpt lat="44.44878" lon="5.69787">
        <ele>711.3</ele>
        <time>2023-09-28T07:11:51Z</time>
      </trkpt>
      <trkpt lat="44.44881" lon="5.69781">
        <ele>711.4</ele>
        <time>2023-09-28T07:11:52Z</time>
      </trkpt>
      <trkpt lat="44.44883" lon="5.69775">
        <ele>711.4</ele>
        <time>2023-09-28T07:11:53Z</time>
      </trkpt>
      <trkpt lat="44.44886" lon="5.69769">
        <ele>711.4</ele>
        <time>2023-09-28T07:11:54Z</time>
      </trkpt>
      <trkpt lat="44.44889" lon="5.69764">
        <ele>711.4</ele>
        <time>2023-09-28T07:11:55Z</time>
      </trkpt>
      <trkpt lat="44.44892" lon="5.69758">
        <ele>711.4</ele>
        <time>2023-09-28T07:11:56Z</time>
      </trkpt>
      <trkpt lat="44.44894" lon="5.69752">
        <ele>711.4</ele>
        <time>2023-09-28T07:11:57Z</time>
      </trkpt>
      <trkpt lat="44.44896" lon="5.69746">
        <ele>711.5</ele>
        <time>2023-09-28T07:11:58Z</time>
      </trkpt>
      <trkpt lat="44.44898" lon="5.69739">
        <ele>711.5</ele>
        <time>2023-09-28T07:11:59Z</time>
      </trkpt>
      <trkpt lat="44.44899" lon="5.69733">
        <ele>711.6</ele>
        <time>2023-09-28T07:12:00Z</time>
      </trkpt>
      <trkpt lat="44.44901" lon="5.69727">
        <ele>711.6</ele>
        <time>2023-09-28T07:12:01Z</time>
      </trkpt>
      <trkpt lat="44.44902" lon="5.69721">
        <ele>711.7</ele>
        <time>2023-09-28T07:12:02Z</time>
      </trkpt>
      <trkpt lat="44.44904" lon="5.69714">
        <ele>711.8</ele>
        <time>2023-09-28T07:12:03Z</time>
      </trkpt>
      <trkpt lat="44.44906" lon="5.69709">
        <ele>711.8</ele>
        <time>2023-09-28T07:12:04Z</time>
      </trkpt>
      <trkpt lat="44.44908" lon="5.69702">
        <ele>711.9</ele>
        <time>2023-09-28T07:12:05Z</time>
      </trkpt>
      <trkpt lat="44.4491" lon="5.69696">
        <ele>711.9</ele>
        <time>2023-09-28T07:12:06Z</time>
      </trkpt>
      <trkpt lat="44.44913" lon="5.6969">
        <ele>712</ele>
        <time>2023-09-28T07:12:07Z</time>
      </trkpt>
      <trkpt lat="44.44915" lon="5.69685">
        <ele>712</ele>
        <time>2023-09-28T07:12:08Z</time>
      </trkpt>
      <trkpt lat="44.44917" lon="5.69679">
        <ele>712.1</ele>
        <time>2023-09-28T07:12:09Z</time>
      </trkpt>
      <trkpt lat="44.4492" lon="5.69673">
        <ele>712.1</ele>
        <time>2023-09-28T07:12:10Z</time>
      </trkpt>
      <trkpt lat="44.44922" lon="5.69667">
        <ele>712.2</ele>
        <time>2023-09-28T07:12:11Z</time>
      </trkpt>
      <trkpt lat="44.44924" lon="5.69662">
        <ele>712.2</ele>
        <time>2023-09-28T07:12:12Z</time>
      </trkpt>
      <trkpt lat="44.44927" lon="5.69656">
        <ele>712.2</ele>
        <time>2023-09-28T07:12:13Z</time>
      </trkpt>
      <trkpt lat="44.4493" lon="5.69651">
        <ele>712.3</ele>
        <time>2023-09-28T07:12:14Z</time>
      </trkpt>
      <trkpt lat="44.44932" lon="5.69645">
        <ele>712.3</ele>
        <time>2023-09-28T07:12:15Z</time>
      </trkpt>
      <trkpt lat="44.44935" lon="5.6964">
        <ele>712.4</ele>
        <time>2023-09-28T07:12:16Z</time>
      </trkpt>
      <trkpt lat="44.44938" lon="5.69634">
        <ele>712.5</ele>
        <time>2023-09-28T07:12:17Z</time>
      </trkpt>
      <trkpt lat="44.44942" lon="5.69628">
        <ele>712.5</ele>
        <time>2023-09-28T07:12:18Z</time>
      </trkpt>
      <trkpt lat="44.44945" lon="5.69623">
        <ele>712.6</ele>
        <time>2023-09-28T07:12:19Z</time>
      </trkpt>
      <trkpt lat="44.44949" lon="5.69618">
        <ele>712.7</ele>
        <time>2023-09-28T07:12:20Z</time>
      </trkpt>
      <trkpt lat="44.44952" lon="5.69613">
        <ele>712.8</ele>
        <time>2023-09-28T07:12:21Z</time>
      </trkpt>
      <trkpt lat="44.44956" lon="5.69608">
        <ele>712.8</ele>
        <time>2023-09-28T07:12:22Z</time>
      </trkpt>
      <trkpt lat="44.44959" lon="5.69603">
        <ele>712.9</ele>
        <time>2023-09-28T07:12:23Z</time>
      </trkpt>
      <trkpt lat="44.44963" lon="5.69599">
        <ele>713</ele>
        <time>2023-09-28T07:12:24Z</time>
      </trkpt>
      <trkpt lat="44.44966" lon="5.69595">
        <ele>713.1</ele>
        <time>2023-09-28T07:12:25Z</time>
      </trkpt>
      <trkpt lat="44.4497" lon="5.69591">
        <ele>713.2</ele>
        <time>2023-09-28T07:12:26Z</time>
      </trkpt>
      <trkpt lat="44.44974" lon="5.69588">
        <ele>713.3</ele>
        <time>2023-09-28T07:12:27Z</time>
      </trkpt>
      <trkpt lat="44.44977" lon="5.69584">
        <ele>713.3</ele>
        <time>2023-09-28T07:12:28Z</time>
      </trkpt>
      <trkpt lat="44.44981" lon="5.69581">
        <ele>713.4</ele>
        <time>2023-09-28T07:12:29Z</time>
      </trkpt>
      <trkpt lat="44.44985" lon="5.69578">
        <ele>713.5</ele>
        <time>2023-09-28T07:12:30Z</time>
      </trkpt>
      <trkpt lat="44.44988" lon="5.69575">
        <ele>713.6</ele>
        <time>2023-09-28T07:12:31Z</time>
      </trkpt>
      <trkpt lat="44.44992" lon="5.69571">
        <ele>713.7</ele>
        <time>2023-09-28T07:12:32Z</time>
      </trkpt>
      <trkpt lat="44.44996" lon="5.69568">
        <ele>713.8</ele>
        <time>2023-09-28T07:12:33Z</time>
      </trkpt>
      <trkpt lat="44.45" lon="5.69564">
        <ele>713.9</ele>
        <time>2023-09-28T07:12:35Z</time>
      </trkpt>
      <trkpt lat="44.45004" lon="5.69561">
        <ele>714</ele>
        <time>2023-09-28T07:12:36Z</time>
      </trkpt>
      <trkpt lat="44.45009" lon="5.69558">
        <ele>714.2</ele>
        <time>2023-09-28T07:12:37Z</time>
      </trkpt>
      <trkpt lat="44.45013" lon="5.69556">
        <ele>714.3</ele>
        <time>2023-09-28T07:12:38Z</time>
      </trkpt>
      <trkpt lat="44.45018" lon="5.69553">
        <ele>714.5</ele>
        <time>2023-09-28T07:12:39Z</time>
      </trkpt>
      <trkpt lat="44.45022" lon="5.69549">
        <ele>714.6</ele>
        <time>2023-09-28T07:12:40Z</time>
      </trkpt>
      <trkpt lat="44.45025" lon="5.69546">
        <ele>714.8</ele>
        <time>2023-09-28T07:12:41Z</time>
      </trkpt>
      <trkpt lat="44.45029" lon="5.69544">
        <ele>714.9</ele>
        <time>2023-09-28T07:12:42Z</time>
      </trkpt>
      <trkpt lat="44.45034" lon="5.6954">
        <ele>715.1</ele>
        <time>2023-09-28T07:12:44Z</time>
      </trkpt>
      <trkpt lat="44.4504" lon="5.69536">
        <ele>715.3</ele>
        <time>2023-09-28T07:12:45Z</time>
      </trkpt>
      <trkpt lat="44.45046" lon="5.69533">
        <ele>715.4</ele>
        <time>2023-09-28T07:12:47Z</time>
      </trkpt>
      <trkpt lat="44.45049" lon="5.69531">
        <ele>715.5</ele>
        <time>2023-09-28T07:12:48Z</time>
      </trkpt>
      <trkpt lat="44.45053" lon="5.69528">
        <ele>715.7</ele>
        <time>2023-09-28T07:12:49Z</time>
      </trkpt>
      <trkpt lat="44.45057" lon="5.69525">
        <ele>715.8</ele>
        <time>2023-09-28T07:12:50Z</time>
      </trkpt>
      <trkpt lat="44.45061" lon="5.69523">
        <ele>716</ele>
        <time>2023-09-28T07:12:51Z</time>
      </trkpt>
      <trkpt lat="44.45066" lon="5.69519">
        <ele>716.2</ele>
        <time>2023-09-28T07:12:53Z</time>
      </trkpt>
      <trkpt lat="44.4507" lon="5.69516">
        <ele>716.4</ele>
        <time>2023-09-28T07:12:54Z</time>
      </trkpt>
      <trkpt lat="44.45073" lon="5.69514">
        <ele>716.5</ele>
        <time>2023-09-28T07:12:55Z</time>
      </trkpt>
      <trkpt lat="44.45076" lon="5.69511">
        <ele>716.6</ele>
        <time>2023-09-28T07:12:56Z</time>
      </trkpt>
      <trkpt lat="44.4508" lon="5.69507">
        <ele>716.8</ele>
        <time>2023-09-28T07:12:58Z</time>
      </trkpt>
      <trkpt lat="44.45084" lon="5.69504">
        <ele>717</ele>
        <time>2023-09-28T07:12:59Z</time>
      </trkpt>
      <trkpt lat="44.45087" lon="5.695">
        <ele>717.1</ele>
        <time>2023-09-28T07:13:00Z</time>
      </trkpt>
      <trkpt lat="44.4509" lon="5.69496">
        <ele>717.3</ele>
        <time>2023-09-28T07:13:01Z</time>
      </trkpt>
      <trkpt lat="44.45094" lon="5.69492">
        <ele>717.4</ele>
        <time>2023-09-28T07:13:02Z</time>
      </trkpt>
      <trkpt lat="44.45097" lon="5.69488">
        <ele>717.6</ele>
        <time>2023-09-28T07:13:03Z</time>
      </trkpt>
      <trkpt lat="44.45099" lon="5.69484">
        <ele>717.7</ele>
        <time>2023-09-28T07:13:04Z</time>
      </trkpt>
      <trkpt lat="44.45102" lon="5.6948">
        <ele>717.8</ele>
        <time>2023-09-28T07:13:05Z</time>
      </trkpt>
      <trkpt lat="44.45105" lon="5.69476">
        <ele>717.9</ele>
        <time>2023-09-28T07:13:07Z</time>
      </trkpt>
      <trkpt lat="44.45108" lon="5.69472">
        <ele>718.1</ele>
        <time>2023-09-28T07:13:08Z</time>
      </trkpt>
      <trkpt lat="44.45111" lon="5.69468">
        <ele>718.2</ele>
        <time>2023-09-28T07:13:09Z</time>
      </trkpt>
      <trkpt lat="44.45114" lon="5.69465">
        <ele>718.3</ele>
        <time>2023-09-28T07:13:10Z</time>
      </trkpt>
      <trkpt lat="44.45117" lon="5.69461">
        <ele>718.4</ele>
        <time>2023-09-28T07:13:11Z</time>
      </trkpt>
      <trkpt lat="44.45121" lon="5.69458">
        <ele>718.6</ele>
        <time>2023-09-28T07:13:13Z</time>
      </trkpt>
      <trkpt lat="44.45125" lon="5.69455">
        <ele>718.7</ele>
        <time>2023-09-28T07:13:14Z</time>
      </trkpt>
      <trkpt lat="44.45128" lon="5.69452">
        <ele>718.8</ele>
        <time>2023-09-28T07:13:15Z</time>
      </trkpt>
      <trkpt lat="44.45132" lon="5.69449">
        <ele>718.9</ele>
        <time>2023-09-28T07:13:16Z</time>
      </trkpt>
      <trkpt lat="44.45135" lon="5.69447">
        <ele>719</ele>
        <time>2023-09-28T07:13:17Z</time>
      </trkpt>
      <trkpt lat="44.45139" lon="5.69444">
        <ele>719.1</ele>
        <time>2023-09-28T07:13:18Z</time>
      </trkpt>
      <trkpt lat="44.45143" lon="5.69442">
        <ele>719.2</ele>
        <time>2023-09-28T07:13:19Z</time>
      </trkpt>
      <trkpt lat="44.45147" lon="5.6944">
        <ele>719.2</ele>
        <time>2023-09-28T07:13:21Z</time>
      </trkpt>
      <trkpt lat="44.4515" lon="5.69438">
        <ele>719.3</ele>
        <time>2023-09-28T07:13:22Z</time>
      </trkpt>
      <trkpt lat="44.45154" lon="5.69435">
        <ele>719.3</ele>
        <time>2023-09-28T07:13:23Z</time>
      </trkpt>
      <trkpt lat="44.45158" lon="5.69433">
        <ele>719.4</ele>
        <time>2023-09-28T07:13:24Z</time>
      </trkpt>
      <trkpt lat="44.45163" lon="5.69431">
        <ele>719.5</ele>
        <time>2023-09-28T07:13:25Z</time>
      </trkpt>
      <trkpt lat="44.45167" lon="5.69429">
        <ele>719.5</ele>
        <time>2023-09-28T07:13:26Z</time>
      </trkpt>
      <trkpt lat="44.45171" lon="5.69427">
        <ele>719.6</ele>
        <time>2023-09-28T07:13:27Z</time>
      </trkpt>
      <trkpt lat="44.45178" lon="5.69425">
        <ele>719.7</ele>
        <time>2023-09-28T07:13:29Z</time>
      </trkpt>
      <trkpt lat="44.45182" lon="5.69423">
        <ele>719.8</ele>
        <time>2023-09-28T07:13:30Z</time>
      </trkpt>
      <trkpt lat="44.45186" lon="5.69421">
        <ele>719.8</ele>
        <time>2023-09-28T07:13:31Z</time>
      </trkpt>
      <trkpt lat="44.45191" lon="5.69419">
        <ele>719.9</ele>
        <time>2023-09-28T07:13:33Z</time>
      </trkpt>
      <trkpt lat="44.45197" lon="5.69416">
        <ele>720</ele>
        <time>2023-09-28T07:13:34Z</time>
      </trkpt>
      <trkpt lat="44.45201" lon="5.69414">
        <ele>720.1</ele>
        <time>2023-09-28T07:13:35Z</time>
      </trkpt>
      <trkpt lat="44.45205" lon="5.69413">
        <ele>720.2</ele>
        <time>2023-09-28T07:13:36Z</time>
      </trkpt>
      <trkpt lat="44.45212" lon="5.69409">
        <ele>720.3</ele>
        <time>2023-09-28T07:13:38Z</time>
      </trkpt>
      <trkpt lat="44.45218" lon="5.69408">
        <ele>720.5</ele>
        <time>2023-09-28T07:13:40Z</time>
      </trkpt>
      <trkpt lat="44.45222" lon="5.69406">
        <ele>720.5</ele>
        <time>2023-09-28T07:13:41Z</time>
      </trkpt>
      <trkpt lat="44.45226" lon="5.69403">
        <ele>720.6</ele>
        <time>2023-09-28T07:13:42Z</time>
      </trkpt>
      <trkpt lat="44.45229" lon="5.69401">
        <ele>720.7</ele>
        <time>2023-09-28T07:13:43Z</time>
      </trkpt>
      <trkpt lat="44.45233" lon="5.69398">
        <ele>720.7</ele>
        <time>2023-09-28T07:13:44Z</time>
      </trkpt>
      <trkpt lat="44.45237" lon="5.69396">
        <ele>720.8</ele>
        <time>2023-09-28T07:13:46Z</time>
      </trkpt>
      <trkpt lat="44.4524" lon="5.69392">
        <ele>720.9</ele>
        <time>2023-09-28T07:13:47Z</time>
      </trkpt>
      <trkpt lat="44.45243" lon="5.69389">
        <ele>720.9</ele>
        <time>2023-09-28T07:13:48Z</time>
      </trkpt>
      <trkpt lat="44.45248" lon="5.69386">
        <ele>721</ele>
        <time>2023-09-28T07:13:49Z</time>
      </trkpt>
      <trkpt lat="44.45253" lon="5.69381">
        <ele>721</ele>
        <time>2023-09-28T07:13:50Z</time>
      </trkpt>
      <trkpt lat="44.45256" lon="5.69377">
        <ele>721.1</ele>
        <time>2023-09-28T07:13:51Z</time>
      </trkpt>
      <trkpt lat="44.45263" lon="5.69369">
        <ele>721.2</ele>
        <time>2023-09-28T07:13:53Z</time>
      </trkpt>
      <trkpt lat="44.45266" lon="5.69364">
        <ele>721.2</ele>
        <time>2023-09-28T07:13:55Z</time>
      </trkpt>
      <trkpt lat="44.4527" lon="5.69359">
        <ele>721.3</ele>
        <time>2023-09-28T07:13:56Z</time>
      </trkpt>
      <trkpt lat="44.45273" lon="5.69355">
        <ele>721.3</ele>
        <time>2023-09-28T07:13:57Z</time>
      </trkpt>
      <trkpt lat="44.45276" lon="5.6935">
        <ele>721.4</ele>
        <time>2023-09-28T07:13:58Z</time>
      </trkpt>
      <trkpt lat="44.4528" lon="5.69345">
        <ele>721.4</ele>
        <time>2023-09-28T07:13:59Z</time>
      </trkpt>
      <trkpt lat="44.45284" lon="5.69339">
        <ele>721.5</ele>
        <time>2023-09-28T07:14:01Z</time>
      </trkpt>
      <trkpt lat="44.45289" lon="5.69333">
        <ele>721.5</ele>
        <time>2023-09-28T07:14:02Z</time>
      </trkpt>
      <trkpt lat="44.45292" lon="5.6933">
        <ele>721.5</ele>
        <time>2023-09-28T07:14:03Z</time>
      </trkpt>
      <trkpt lat="44.45297" lon="5.69325">
        <ele>721.5</ele>
        <time>2023-09-28T07:14:05Z</time>
      </trkpt>
      <trkpt lat="44.453" lon="5.69323">
        <ele>721.6</ele>
        <time>2023-09-28T07:14:06Z</time>
      </trkpt>
      <trkpt lat="44.45305" lon="5.6932">
        <ele>721.6</ele>
        <time>2023-09-28T07:14:07Z</time>
      </trkpt>
      <trkpt lat="44.45309" lon="5.69319">
        <ele>721.6</ele>
        <time>2023-09-28T07:14:08Z</time>
      </trkpt>
      <trkpt lat="44.45314" lon="5.69317">
        <ele>721.7</ele>
        <time>2023-09-28T07:14:09Z</time>
      </trkpt>
      <trkpt lat="44.45318" lon="5.69316">
        <ele>721.7</ele>
        <time>2023-09-28T07:14:10Z</time>
      </trkpt>
      <trkpt lat="44.45322" lon="5.69316">
        <ele>721.8</ele>
        <time>2023-09-28T07:14:11Z</time>
      </trkpt>
      <trkpt lat="44.45327" lon="5.69316">
        <ele>721.8</ele>
        <time>2023-09-28T07:14:12Z</time>
      </trkpt>
      <trkpt lat="44.45332" lon="5.69316">
        <ele>721.9</ele>
        <time>2023-09-28T07:14:13Z</time>
      </trkpt>
      <trkpt lat="44.45337" lon="5.69316">
        <ele>721.9</ele>
        <time>2023-09-28T07:14:15Z</time>
      </trkpt>
      <trkpt lat="44.45342" lon="5.69316">
        <ele>722</ele>
        <time>2023-09-28T07:14:16Z</time>
      </trkpt>
      <trkpt lat="44.45347" lon="5.69317">
        <ele>722</ele>
        <time>2023-09-28T07:14:17Z</time>
      </trkpt>
      <trkpt lat="44.45352" lon="5.69318">
        <ele>722.1</ele>
        <time>2023-09-28T07:14:18Z</time>
      </trkpt>
      <trkpt lat="44.45357" lon="5.69319">
        <ele>722.2</ele>
        <time>2023-09-28T07:14:19Z</time>
      </trkpt>
      <trkpt lat="44.45362" lon="5.6932">
        <ele>722.2</ele>
        <time>2023-09-28T07:14:20Z</time>
      </trkpt>
      <trkpt lat="44.45367" lon="5.69322">
        <ele>722.3</ele>
        <time>2023-09-28T07:14:22Z</time>
      </trkpt>
      <trkpt lat="44.45374" lon="5.69323">
        <ele>722.3</ele>
        <time>2023-09-28T07:14:23Z</time>
      </trkpt>
      <trkpt lat="44.45379" lon="5.69324">
        <ele>722.4</ele>
        <time>2023-09-28T07:14:24Z</time>
      </trkpt>
      <trkpt lat="44.45385" lon="5.69325">
        <ele>722.5</ele>
        <time>2023-09-28T07:14:25Z</time>
      </trkpt>
      <trkpt lat="44.4539" lon="5.69326">
        <ele>722.5</ele>
        <time>2023-09-28T07:14:27Z</time>
      </trkpt>
      <trkpt lat="44.45395" lon="5.69327">
        <ele>722.6</ele>
        <time>2023-09-28T07:14:28Z</time>
      </trkpt>
      <trkpt lat="44.45399" lon="5.69327">
        <ele>722.7</ele>
        <time>2023-09-28T07:14:29Z</time>
      </trkpt>
      <trkpt lat="44.45403" lon="5.69328">
        <ele>722.8</ele>
        <time>2023-09-28T07:14:30Z</time>
      </trkpt>
      <trkpt lat="44.45407" lon="5.69329">
        <ele>722.9</ele>
        <time>2023-09-28T07:14:31Z</time>
      </trkpt>
      <trkpt lat="44.45411" lon="5.6933">
        <ele>723.1</ele>
        <time>2023-09-28T07:14:32Z</time>
      </trkpt>
      <trkpt lat="44.45415" lon="5.6933">
        <ele>723.1</ele>
        <time>2023-09-28T07:14:33Z</time>
      </trkpt>
      <trkpt lat="44.45419" lon="5.6933">
        <ele>723.2</ele>
        <time>2023-09-28T07:14:35Z</time>
      </trkpt>
      <trkpt lat="44.45422" lon="5.6933">
        <ele>723.3</ele>
        <time>2023-09-28T07:14:36Z</time>
      </trkpt>
      <trkpt lat="44.45425" lon="5.6933">
        <ele>723.4</ele>
        <time>2023-09-28T07:14:37Z</time>
      </trkpt>
      <trkpt lat="44.45427" lon="5.69331">
        <ele>723.4</ele>
        <time>2023-09-28T07:14:38Z</time>
      </trkpt>
      <trkpt lat="44.45431" lon="5.69332">
        <ele>723.5</ele>
        <time>2023-09-28T07:14:39Z</time>
      </trkpt>
      <trkpt lat="44.45433" lon="5.69332">
        <ele>723.5</ele>
        <time>2023-09-28T07:14:40Z</time>
      </trkpt>
      <trkpt lat="44.45436" lon="5.69332">
        <ele>723.6</ele>
        <time>2023-09-28T07:14:41Z</time>
      </trkpt>
      <trkpt lat="44.45439" lon="5.69332">
        <ele>723.7</ele>
        <time>2023-09-28T07:14:42Z</time>
      </trkpt>
      <trkpt lat="44.45443" lon="5.69333">
        <ele>723.7</ele>
        <time>2023-09-28T07:14:44Z</time>
      </trkpt>
      <trkpt lat="44.45447" lon="5.69333">
        <ele>723.8</ele>
        <time>2023-09-28T07:14:45Z</time>
      </trkpt>
      <trkpt lat="44.45451" lon="5.69335">
        <ele>723.8</ele>
        <time>2023-09-28T07:14:46Z</time>
      </trkpt>
      <trkpt lat="44.45454" lon="5.69336">
        <ele>723.9</ele>
        <time>2023-09-28T07:14:47Z</time>
      </trkpt>
      <trkpt lat="44.45458" lon="5.69336">
        <ele>723.9</ele>
        <time>2023-09-28T07:14:48Z</time>
      </trkpt>
      <trkpt lat="44.45462" lon="5.69337">
        <ele>724</ele>
        <time>2023-09-28T07:14:50Z</time>
      </trkpt>
      <trkpt lat="44.45466" lon="5.69338">
        <ele>724</ele>
        <time>2023-09-28T07:14:51Z</time>
      </trkpt>
      <trkpt lat="44.4547" lon="5.69338">
        <ele>724.1</ele>
        <time>2023-09-28T07:14:52Z</time>
      </trkpt>
      <trkpt lat="44.45474" lon="5.69338">
        <ele>724.1</ele>
        <time>2023-09-28T07:14:53Z</time>
      </trkpt>
      <trkpt lat="44.45477" lon="5.69338">
        <ele>724.1</ele>
        <time>2023-09-28T07:14:54Z</time>
      </trkpt>
      <trkpt lat="44.45481" lon="5.69338">
        <ele>724.2</ele>
        <time>2023-09-28T07:14:55Z</time>
      </trkpt>
      <trkpt lat="44.45485" lon="5.69338">
        <ele>724.2</ele>
        <time>2023-09-28T07:14:56Z</time>
      </trkpt>
      <trkpt lat="44.45489" lon="5.69338">
        <ele>724.2</ele>
        <time>2023-09-28T07:14:58Z</time>
      </trkpt>
      <trkpt lat="44.45493" lon="5.69337">
        <ele>724.3</ele>
        <time>2023-09-28T07:14:59Z</time>
      </trkpt>
      <trkpt lat="44.45497" lon="5.69337">
        <ele>724.3</ele>
        <time>2023-09-28T07:15:00Z</time>
      </trkpt>
      <trkpt lat="44.45502" lon="5.69336">
        <ele>724.3</ele>
        <time>2023-09-28T07:15:01Z</time>
      </trkpt>
      <trkpt lat="44.45505" lon="5.69336">
        <ele>724.3</ele>
        <time>2023-09-28T07:15:02Z</time>
      </trkpt>
      <trkpt lat="44.45508" lon="5.69335">
        <ele>724.3</ele>
        <time>2023-09-28T07:15:03Z</time>
      </trkpt>
      <trkpt lat="44.45511" lon="5.69334">
        <ele>724.4</ele>
        <time>2023-09-28T07:15:04Z</time>
      </trkpt>
      <trkpt lat="44.45515" lon="5.69334">
        <ele>724.5</ele>
        <time>2023-09-28T07:15:05Z</time>
      </trkpt>
      <trkpt lat="44.45518" lon="5.69333">
        <ele>724.6</ele>
        <time>2023-09-28T07:15:06Z</time>
      </trkpt>
      <trkpt lat="44.45523" lon="5.69332">
        <ele>724.8</ele>
        <time>2023-09-28T07:15:08Z</time>
      </trkpt>
      <trkpt lat="44.45528" lon="5.69331">
        <ele>724.9</ele>
        <time>2023-09-28T07:15:09Z</time>
      </trkpt>
      <trkpt lat="44.45532" lon="5.69331">
        <ele>725</ele>
        <time>2023-09-28T07:15:10Z</time>
      </trkpt>
      <trkpt lat="44.45535" lon="5.69331">
        <ele>725.1</ele>
        <time>2023-09-28T07:15:11Z</time>
      </trkpt>
      <trkpt lat="44.45538" lon="5.6933">
        <ele>725.2</ele>
        <time>2023-09-28T07:15:13Z</time>
      </trkpt>
      <trkpt lat="44.45541" lon="5.69329">
        <ele>725.3</ele>
        <time>2023-09-28T07:15:14Z</time>
      </trkpt>
      <trkpt lat="44.45546" lon="5.69329">
        <ele>725.4</ele>
        <time>2023-09-28T07:15:15Z</time>
      </trkpt>
      <trkpt lat="44.45551" lon="5.69329">
        <ele>725.6</ele>
        <time>2023-09-28T07:15:16Z</time>
      </trkpt>
      <trkpt lat="44.45556" lon="5.69328">
        <ele>725.8</ele>
        <time>2023-09-28T07:15:18Z</time>
      </trkpt>
      <trkpt lat="44.4556" lon="5.69327">
        <ele>726</ele>
        <time>2023-09-28T07:15:19Z</time>
      </trkpt>
      <trkpt lat="44.45564" lon="5.69326">
        <ele>726.1</ele>
        <time>2023-09-28T07:15:20Z</time>
      </trkpt>
      <trkpt lat="44.45567" lon="5.69326">
        <ele>726.2</ele>
        <time>2023-09-28T07:15:21Z</time>
      </trkpt>
      <trkpt lat="44.4557" lon="5.69326">
        <ele>726.4</ele>
        <time>2023-09-28T07:15:22Z</time>
      </trkpt>
      <trkpt lat="44.45575" lon="5.69324">
        <ele>726.6</ele>
        <time>2023-09-28T07:15:24Z</time>
      </trkpt>
      <trkpt lat="44.45578" lon="5.69324">
        <ele>726.8</ele>
        <time>2023-09-28T07:15:25Z</time>
      </trkpt>
      <trkpt lat="44.45581" lon="5.69324">
        <ele>727</ele>
        <time>2023-09-28T07:15:26Z</time>
      </trkpt>
      <trkpt lat="44.45587" lon="5.69323">
        <ele>727.3</ele>
        <time>2023-09-28T07:15:28Z</time>
      </trkpt>
      <trkpt lat="44.45588" lon="5.69323">
        <ele>727.4</ele>
        <time>2023-09-28T07:15:29Z</time>
      </trkpt>
      <trkpt lat="44.4559" lon="5.69323">
        <ele>727.6</ele>
        <time>2023-09-28T07:15:30Z</time>
      </trkpt>
      <trkpt lat="44.45594" lon="5.69325">
        <ele>727.9</ele>
        <time>2023-09-28T07:15:31Z</time>
      </trkpt>
      <trkpt lat="44.45595" lon="5.69325">
        <ele>728</ele>
        <time>2023-09-28T07:15:32Z</time>
      </trkpt>
      <trkpt lat="44.456" lon="5.69327">
        <ele>728.3</ele>
        <time>2023-09-28T07:15:34Z</time>
      </trkpt>
      <trkpt lat="44.45601" lon="5.69328">
        <ele>728.5</ele>
        <time>2023-09-28T07:15:35Z</time>
      </trkpt>
      <trkpt lat="44.45603" lon="5.69328">
        <ele>728.6</ele>
        <time>2023-09-28T07:15:36Z</time>
      </trkpt>
      <trkpt lat="44.45606" lon="5.6933">
        <ele>728.9</ele>
        <time>2023-09-28T07:15:37Z</time>
      </trkpt>
      <trkpt lat="44.45608" lon="5.69333">
        <ele>729.1</ele>
        <time>2023-09-28T07:15:38Z</time>
      </trkpt>
      <trkpt lat="44.45609" lon="5.69334">
        <ele>729.3</ele>
        <time>2023-09-28T07:15:39Z</time>
      </trkpt>
      <trkpt lat="44.4561" lon="5.69337">
        <ele>729.5</ele>
        <time>2023-09-28T07:15:40Z</time>
      </trkpt>
      <trkpt lat="44.45613" lon="5.6934">
        <ele>729.8</ele>
        <time>2023-09-28T07:15:42Z</time>
      </trkpt>
      <trkpt lat="44.45616" lon="5.69343">
        <ele>730.1</ele>
        <time>2023-09-28T07:15:43Z</time>
      </trkpt>
      <trkpt lat="44.45617" lon="5.69344">
        <ele>730.2</ele>
        <time>2023-09-28T07:15:44Z</time>
      </trkpt>
      <trkpt lat="44.45619" lon="5.69346">
        <ele>730.5</ele>
        <time>2023-09-28T07:15:45Z</time>
      </trkpt>
      <trkpt lat="44.45621" lon="5.6935">
        <ele>730.8</ele>
        <time>2023-09-28T07:15:46Z</time>
      </trkpt>
      <trkpt lat="44.45622" lon="5.69351">
        <ele>730.9</ele>
        <time>2023-09-28T07:15:47Z</time>
      </trkpt>
      <trkpt lat="44.45623" lon="5.69354">
        <ele>731.2</ele>
        <time>2023-09-28T07:15:48Z</time>
      </trkpt>
      <trkpt lat="44.45625" lon="5.69356">
        <ele>731.4</ele>
        <time>2023-09-28T07:15:50Z</time>
      </trkpt>
      <trkpt lat="44.45628" lon="5.6936">
        <ele>731.8</ele>
        <time>2023-09-28T07:15:51Z</time>
      </trkpt>
      <trkpt lat="44.45629" lon="5.69361">
        <ele>731.9</ele>
        <time>2023-09-28T07:15:52Z</time>
      </trkpt>
      <trkpt lat="44.45631" lon="5.69364">
        <ele>732.2</ele>
        <time>2023-09-28T07:15:53Z</time>
      </trkpt>
      <trkpt lat="44.45633" lon="5.69365">
        <ele>732.3</ele>
        <time>2023-09-28T07:15:54Z</time>
      </trkpt>
      <trkpt lat="44.45636" lon="5.69367">
        <ele>732.6</ele>
        <time>2023-09-28T07:15:55Z</time>
      </trkpt>
      <trkpt lat="44.45637" lon="5.69368">
        <ele>732.7</ele>
        <time>2023-09-28T07:15:56Z</time>
      </trkpt>
      <trkpt lat="44.4564" lon="5.69369">
        <ele>732.9</ele>
        <time>2023-09-28T07:15:57Z</time>
      </trkpt>
      <trkpt lat="44.45641" lon="5.6937">
        <ele>733</ele>
        <time>2023-09-28T07:15:58Z</time>
      </trkpt>
      <trkpt lat="44.45645" lon="5.69372">
        <ele>733.3</ele>
        <time>2023-09-28T07:16:00Z</time>
      </trkpt>
      <trkpt lat="44.45646" lon="5.69373">
        <ele>733.4</ele>
        <time>2023-09-28T07:16:01Z</time>
      </trkpt>
      <trkpt lat="44.45649" lon="5.69374">
        <ele>733.7</ele>
        <time>2023-09-28T07:16:02Z</time>
      </trkpt>
      <trkpt lat="44.4565" lon="5.69375">
        <ele>733.8</ele>
        <time>2023-09-28T07:16:03Z</time>
      </trkpt>
      <trkpt lat="44.45653" lon="5.69374">
        <ele>733.9</ele>
        <time>2023-09-28T07:16:04Z</time>
      </trkpt>
      <trkpt lat="44.45656" lon="5.69374">
        <ele>734.1</ele>
        <time>2023-09-28T07:16:06Z</time>
      </trkpt>
      <trkpt lat="44.45659" lon="5.69374">
        <ele>734.4</ele>
        <time>2023-09-28T07:16:07Z</time>
      </trkpt>
      <trkpt lat="44.45662" lon="5.69375">
        <ele>734.6</ele>
        <time>2023-09-28T07:16:08Z</time>
      </trkpt>
      <trkpt lat="44.45664" lon="5.69375">
        <ele>734.8</ele>
        <time>2023-09-28T07:16:09Z</time>
      </trkpt>
      <trkpt lat="44.45667" lon="5.69375">
        <ele>735</ele>
        <time>2023-09-28T07:16:11Z</time>
      </trkpt>
      <trkpt lat="44.45671" lon="5.69376">
        <ele>735.2</ele>
        <time>2023-09-28T07:16:12Z</time>
      </trkpt>
      <trkpt lat="44.45673" lon="5.69377">
        <ele>735.4</ele>
        <time>2023-09-28T07:16:13Z</time>
      </trkpt>
      <trkpt lat="44.45677" lon="5.69377">
        <ele>735.7</ele>
        <time>2023-09-28T07:16:15Z</time>
      </trkpt>
      <trkpt lat="44.4568" lon="5.69378">
        <ele>735.9</ele>
        <time>2023-09-28T07:16:16Z</time>
      </trkpt>
      <trkpt lat="44.45683" lon="5.69379">
        <ele>736</ele>
        <time>2023-09-28T07:16:17Z</time>
      </trkpt>
      <trkpt lat="44.45687" lon="5.69381">
        <ele>736.3</ele>
        <time>2023-09-28T07:16:19Z</time>
      </trkpt>
      <trkpt lat="44.4569" lon="5.69383">
        <ele>736.4</ele>
        <time>2023-09-28T07:16:20Z</time>
      </trkpt>
      <trkpt lat="44.45692" lon="5.69384">
        <ele>736.6</ele>
        <time>2023-09-28T07:16:21Z</time>
      </trkpt>
      <trkpt lat="44.45696" lon="5.69389">
        <ele>736.9</ele>
        <time>2023-09-28T07:16:23Z</time>
      </trkpt>
      <trkpt lat="44.45698" lon="5.69392">
        <ele>737</ele>
        <time>2023-09-28T07:16:24Z</time>
      </trkpt>
      <trkpt lat="44.45699" lon="5.69396">
        <ele>737.1</ele>
        <time>2023-09-28T07:16:26Z</time>
      </trkpt>
      <trkpt lat="44.45701" lon="5.694">
        <ele>737.3</ele>
        <time>2023-09-28T07:16:27Z</time>
      </trkpt>
      <trkpt lat="44.45703" lon="5.69404">
        <ele>737.5</ele>
        <time>2023-09-28T07:16:28Z</time>
      </trkpt>
      <trkpt lat="44.45703" lon="5.69406">
        <ele>737.6</ele>
        <time>2023-09-28T07:16:29Z</time>
      </trkpt>
      <trkpt lat="44.45705" lon="5.69412">
        <ele>737.8</ele>
        <time>2023-09-28T07:16:30Z</time>
      </trkpt>
      <trkpt lat="44.45705" lon="5.69414">
        <ele>737.9</ele>
        <time>2023-09-28T07:16:31Z</time>
      </trkpt>
      <trkpt lat="44.45707" lon="5.69418">
        <ele>738</ele>
        <time>2023-09-28T07:16:33Z</time>
      </trkpt>
      <trkpt lat="44.45709" lon="5.69422">
        <ele>738.2</ele>
        <time>2023-09-28T07:16:34Z</time>
      </trkpt>
      <trkpt lat="44.4571" lon="5.69425">
        <ele>738.4</ele>
        <time>2023-09-28T07:16:35Z</time>
      </trkpt>
      <trkpt lat="44.45713" lon="5.69432">
        <ele>738.6</ele>
        <time>2023-09-28T07:16:37Z</time>
      </trkpt>
      <trkpt lat="44.45714" lon="5.69435">
        <ele>738.8</ele>
        <time>2023-09-28T07:16:39Z</time>
      </trkpt>
      <trkpt lat="44.45717" lon="5.69438">
        <ele>739</ele>
        <time>2023-09-28T07:16:40Z</time>
      </trkpt>
      <trkpt lat="44.45719" lon="5.69442">
        <ele>739.2</ele>
        <time>2023-09-28T07:16:41Z</time>
      </trkpt>
      <trkpt lat="44.4572" lon="5.69444">
        <ele>739.3</ele>
        <time>2023-09-28T07:16:42Z</time>
      </trkpt>
      <trkpt lat="44.45722" lon="5.69447">
        <ele>739.4</ele>
        <time>2023-09-28T07:16:43Z</time>
      </trkpt>
      <trkpt lat="44.45725" lon="5.69449">
        <ele>739.5</ele>
        <time>2023-09-28T07:16:44Z</time>
      </trkpt>
      <trkpt lat="44.45727" lon="5.69452">
        <ele>739.7</ele>
        <time>2023-09-28T07:16:46Z</time>
      </trkpt>
      <trkpt lat="44.4573" lon="5.69454">
        <ele>739.8</ele>
        <time>2023-09-28T07:16:47Z</time>
      </trkpt>
      <trkpt lat="44.45733" lon="5.69455">
        <ele>739.9</ele>
        <time>2023-09-28T07:16:48Z</time>
      </trkpt>
      <trkpt lat="44.45737" lon="5.69456">
        <ele>740.1</ele>
        <time>2023-09-28T07:16:49Z</time>
      </trkpt>
      <trkpt lat="44.45739" lon="5.69456">
        <ele>740.2</ele>
        <time>2023-09-28T07:16:50Z</time>
      </trkpt>
      <trkpt lat="44.45742" lon="5.69456">
        <ele>740.3</ele>
        <time>2023-09-28T07:16:51Z</time>
      </trkpt>
      <trkpt lat="44.45745" lon="5.69455">
        <ele>740.4</ele>
        <time>2023-09-28T07:16:52Z</time>
      </trkpt>
      <trkpt lat="44.45749" lon="5.69454">
        <ele>740.5</ele>
        <time>2023-09-28T07:16:53Z</time>
      </trkpt>
      <trkpt lat="44.45752" lon="5.69453">
        <ele>740.6</ele>
        <time>2023-09-28T07:16:54Z</time>
      </trkpt>
      <trkpt lat="44.45755" lon="5.69452">
        <ele>740.7</ele>
        <time>2023-09-28T07:16:56Z</time>
      </trkpt>
      <trkpt lat="44.45758" lon="5.6945">
        <ele>740.8</ele>
        <time>2023-09-28T07:16:57Z</time>
      </trkpt>
      <trkpt lat="44.45762" lon="5.69447">
        <ele>740.9</ele>
        <time>2023-09-28T07:16:58Z</time>
      </trkpt>
      <trkpt lat="44.45764" lon="5.69444">
        <ele>741</ele>
        <time>2023-09-28T07:16:59Z</time>
      </trkpt>
      <trkpt lat="44.45767" lon="5.6944">
        <ele>741.1</ele>
        <time>2023-09-28T07:17:00Z</time>
      </trkpt>
      <trkpt lat="44.45769" lon="5.69437">
        <ele>741.2</ele>
        <time>2023-09-28T07:17:01Z</time>
      </trkpt>
      <trkpt lat="44.45771" lon="5.69433">
        <ele>741.3</ele>
        <time>2023-09-28T07:17:02Z</time>
      </trkpt>
      <trkpt lat="44.45774" lon="5.6943">
        <ele>741.4</ele>
        <time>2023-09-28T07:17:03Z</time>
      </trkpt>
      <trkpt lat="44.45776" lon="5.69423">
        <ele>741.6</ele>
        <time>2023-09-28T07:17:05Z</time>
      </trkpt>
      <trkpt lat="44.45778" lon="5.6942">
        <ele>741.7</ele>
        <time>2023-09-28T07:17:06Z</time>
      </trkpt>
      <trkpt lat="44.45781" lon="5.69416">
        <ele>741.8</ele>
        <time>2023-09-28T07:17:07Z</time>
      </trkpt>
      <trkpt lat="44.45783" lon="5.69411">
        <ele>742</ele>
        <time>2023-09-28T07:17:09Z</time>
      </trkpt>
      <trkpt lat="44.45785" lon="5.69407">
        <ele>742.1</ele>
        <time>2023-09-28T07:17:10Z</time>
      </trkpt>
      <trkpt lat="44.45786" lon="5.69404">
        <ele>742.2</ele>
        <time>2023-09-28T07:17:11Z</time>
      </trkpt>
      <trkpt lat="44.45788" lon="5.694">
        <ele>742.3</ele>
        <time>2023-09-28T07:17:12Z</time>
      </trkpt>
      <trkpt lat="44.45791" lon="5.69397">
        <ele>742.4</ele>
        <time>2023-09-28T07:17:13Z</time>
      </trkpt>
      <trkpt lat="44.45794" lon="5.69394">
        <ele>742.5</ele>
        <time>2023-09-28T07:17:15Z</time>
      </trkpt>
      <trkpt lat="44.45797" lon="5.69393">
        <ele>742.6</ele>
        <time>2023-09-28T07:17:16Z</time>
      </trkpt>
      <trkpt lat="44.45801" lon="5.69391">
        <ele>742.8</ele>
        <time>2023-09-28T07:17:17Z</time>
      </trkpt>
      <trkpt lat="44.45806" lon="5.69391">
        <ele>742.9</ele>
        <time>2023-09-28T07:17:19Z</time>
      </trkpt>
      <trkpt lat="44.4581" lon="5.69391">
        <ele>743</ele>
        <time>2023-09-28T07:17:20Z</time>
      </trkpt>
      <trkpt lat="44.45814" lon="5.69392">
        <ele>743.1</ele>
        <time>2023-09-28T07:17:21Z</time>
      </trkpt>
      <trkpt lat="44.45817" lon="5.69394">
        <ele>743.2</ele>
        <time>2023-09-28T07:17:22Z</time>
      </trkpt>
      <trkpt lat="44.45822" lon="5.69395">
        <ele>743.2</ele>
        <time>2023-09-28T07:17:23Z</time>
      </trkpt>
      <trkpt lat="44.45826" lon="5.69397">
        <ele>743.3</ele>
        <time>2023-09-28T07:17:25Z</time>
      </trkpt>
      <trkpt lat="44.4583" lon="5.69399">
        <ele>743.3</ele>
        <time>2023-09-28T07:17:26Z</time>
      </trkpt>
      <trkpt lat="44.45835" lon="5.69402">
        <ele>743.4</ele>
        <time>2023-09-28T07:17:27Z</time>
      </trkpt>
      <trkpt lat="44.45839" lon="5.69405">
        <ele>743.4</ele>
        <time>2023-09-28T07:17:28Z</time>
      </trkpt>
      <trkpt lat="44.45842" lon="5.69407">
        <ele>743.4</ele>
        <time>2023-09-28T07:17:29Z</time>
      </trkpt>
      <trkpt lat="44.45846" lon="5.69409">
        <ele>743.5</ele>
        <time>2023-09-28T07:17:30Z</time>
      </trkpt>
      <trkpt lat="44.4585" lon="5.69411">
        <ele>743.6</ele>
        <time>2023-09-28T07:17:31Z</time>
      </trkpt>
      <trkpt lat="44.45855" lon="5.69414">
        <ele>743.7</ele>
        <time>2023-09-28T07:17:33Z</time>
      </trkpt>
      <trkpt lat="44.45859" lon="5.69415">
        <ele>743.7</ele>
        <time>2023-09-28T07:17:34Z</time>
      </trkpt>
      <trkpt lat="44.45862" lon="5.69417">
        <ele>743.8</ele>
        <time>2023-09-28T07:17:35Z</time>
      </trkpt>
      <trkpt lat="44.45867" lon="5.69418">
        <ele>743.9</ele>
        <time>2023-09-28T07:17:36Z</time>
      </trkpt>
      <trkpt lat="44.45871" lon="5.69418">
        <ele>744</ele>
        <time>2023-09-28T07:17:37Z</time>
      </trkpt>
      <trkpt lat="44.45875" lon="5.69419">
        <ele>744.1</ele>
        <time>2023-09-28T07:17:38Z</time>
      </trkpt>
      <trkpt lat="44.45879" lon="5.69419">
        <ele>744.2</ele>
        <time>2023-09-28T07:17:39Z</time>
      </trkpt>
      <trkpt lat="44.45883" lon="5.6942">
        <ele>744.2</ele>
        <time>2023-09-28T07:17:40Z</time>
      </trkpt>
      <trkpt lat="44.4589" lon="5.69421">
        <ele>744.4</ele>
        <time>2023-09-28T07:17:42Z</time>
      </trkpt>
      <trkpt lat="44.45893" lon="5.69421">
        <ele>744.5</ele>
        <time>2023-09-28T07:17:43Z</time>
      </trkpt>
      <trkpt lat="44.45896" lon="5.69422">
        <ele>744.6</ele>
        <time>2023-09-28T07:17:44Z</time>
      </trkpt>
      <trkpt lat="44.45903" lon="5.69422">
        <ele>744.7</ele>
        <time>2023-09-28T07:17:46Z</time>
      </trkpt>
      <trkpt lat="44.45906" lon="5.69422">
        <ele>744.8</ele>
        <time>2023-09-28T07:17:47Z</time>
      </trkpt>
      <trkpt lat="44.4591" lon="5.69423">
        <ele>744.9</ele>
        <time>2023-09-28T07:17:48Z</time>
      </trkpt>
      <trkpt lat="44.45914" lon="5.69422">
        <ele>745.1</ele>
        <time>2023-09-28T07:17:49Z</time>
      </trkpt>
      <trkpt lat="44.45921" lon="5.69422">
        <ele>745.3</ele>
        <time>2023-09-28T07:17:51Z</time>
      </trkpt>
      <trkpt lat="44.45928" lon="5.69421">
        <ele>745.5</ele>
        <time>2023-09-28T07:17:53Z</time>
      </trkpt>
      <trkpt lat="44.45932" lon="5.69419">
        <ele>745.6</ele>
        <time>2023-09-28T07:17:55Z</time>
      </trkpt>
      <trkpt lat="44.45936" lon="5.69417">
        <ele>745.7</ele>
        <time>2023-09-28T07:17:56Z</time>
      </trkpt>
      <trkpt lat="44.45939" lon="5.69416">
        <ele>745.8</ele>
        <time>2023-09-28T07:17:57Z</time>
      </trkpt>
      <trkpt lat="44.45942" lon="5.69416">
        <ele>745.9</ele>
        <time>2023-09-28T07:17:58Z</time>
      </trkpt>
      <trkpt lat="44.45946" lon="5.69414">
        <ele>746.1</ele>
        <time>2023-09-28T07:17:59Z</time>
      </trkpt>
      <trkpt lat="44.45951" lon="5.69414">
        <ele>746.2</ele>
        <time>2023-09-28T07:18:01Z</time>
      </trkpt>
      <trkpt lat="44.45954" lon="5.69414">
        <ele>746.4</ele>
        <time>2023-09-28T07:18:02Z</time>
      </trkpt>
      <trkpt lat="44.45958" lon="5.69415">
        <ele>746.5</ele>
        <time>2023-09-28T07:18:03Z</time>
      </trkpt>
      <trkpt lat="44.45962" lon="5.69418">
        <ele>746.6</ele>
        <time>2023-09-28T07:18:04Z</time>
      </trkpt>
      <trkpt lat="44.45964" lon="5.69421">
        <ele>746.6</ele>
        <time>2023-09-28T07:18:05Z</time>
      </trkpt>
      <trkpt lat="44.45966" lon="5.69425">
        <ele>746.7</ele>
        <time>2023-09-28T07:18:06Z</time>
      </trkpt>
      <trkpt lat="44.45969" lon="5.69428">
        <ele>746.7</ele>
        <time>2023-09-28T07:18:07Z</time>
      </trkpt>
      <trkpt lat="44.45972" lon="5.69435">
        <ele>746.9</ele>
        <time>2023-09-28T07:18:09Z</time>
      </trkpt>
      <trkpt lat="44.45974" lon="5.69441">
        <ele>746.9</ele>
        <time>2023-09-28T07:18:10Z</time>
      </trkpt>
      <trkpt lat="44.45975" lon="5.69446">
        <ele>746.9</ele>
        <time>2023-09-28T07:18:11Z</time>
      </trkpt>
      <trkpt lat="44.45976" lon="5.69452">
        <ele>747</ele>
        <time>2023-09-28T07:18:13Z</time>
      </trkpt>
      <trkpt lat="44.45979" lon="5.69457">
        <ele>747</ele>
        <time>2023-09-28T07:18:14Z</time>
      </trkpt>
      <trkpt lat="44.45981" lon="5.69461">
        <ele>747.1</ele>
        <time>2023-09-28T07:18:15Z</time>
      </trkpt>
      <trkpt lat="44.45984" lon="5.69465">
        <ele>747.1</ele>
        <time>2023-09-28T07:18:16Z</time>
      </trkpt>
      <trkpt lat="44.45988" lon="5.69469">
        <ele>747.2</ele>
        <time>2023-09-28T07:18:17Z</time>
      </trkpt>
      <trkpt lat="44.45991" lon="5.69471">
        <ele>747.3</ele>
        <time>2023-09-28T07:18:18Z</time>
      </trkpt>
      <trkpt lat="44.45994" lon="5.69474">
        <ele>747.3</ele>
        <time>2023-09-28T07:18:19Z</time>
      </trkpt>
      <trkpt lat="44.45998" lon="5.69476">
        <ele>747.4</ele>
        <time>2023-09-28T07:18:21Z</time>
      </trkpt>
      <trkpt lat="44.46003" lon="5.69479">
        <ele>747.5</ele>
        <time>2023-09-28T07:18:22Z</time>
      </trkpt>
      <trkpt lat="44.46007" lon="5.69482">
        <ele>747.6</ele>
        <time>2023-09-28T07:18:23Z</time>
      </trkpt>
      <trkpt lat="44.46011" lon="5.69484">
        <ele>747.7</ele>
        <time>2023-09-28T07:18:24Z</time>
      </trkpt>
      <trkpt lat="44.46013" lon="5.69487">
        <ele>747.8</ele>
        <time>2023-09-28T07:18:25Z</time>
      </trkpt>
      <trkpt lat="44.46017" lon="5.6949">
        <ele>748</ele>
        <time>2023-09-28T07:18:26Z</time>
      </trkpt>
      <trkpt lat="44.4602" lon="5.69493">
        <ele>748.1</ele>
        <time>2023-09-28T07:18:27Z</time>
      </trkpt>
      <trkpt lat="44.46023" lon="5.69496">
        <ele>748.2</ele>
        <time>2023-09-28T07:18:29Z</time>
      </trkpt>
      <trkpt lat="44.46026" lon="5.69499">
        <ele>748.4</ele>
        <time>2023-09-28T07:18:30Z</time>
      </trkpt>
      <trkpt lat="44.4603" lon="5.69502">
        <ele>748.5</ele>
        <time>2023-09-28T07:18:31Z</time>
      </trkpt>
      <trkpt lat="44.46032" lon="5.69505">
        <ele>748.6</ele>
        <time>2023-09-28T07:18:32Z</time>
      </trkpt>
      <trkpt lat="44.46035" lon="5.69509">
        <ele>748.8</ele>
        <time>2023-09-28T07:18:33Z</time>
      </trkpt>
      <trkpt lat="44.46038" lon="5.69512">
        <ele>749</ele>
        <time>2023-09-28T07:18:34Z</time>
      </trkpt>
      <trkpt lat="44.46041" lon="5.69514">
        <ele>749.1</ele>
        <time>2023-09-28T07:18:35Z</time>
      </trkpt>
      <trkpt lat="44.46043" lon="5.69518">
        <ele>749.3</ele>
        <time>2023-09-28T07:18:37Z</time>
      </trkpt>
      <trkpt lat="44.46046" lon="5.69521">
        <ele>749.5</ele>
        <time>2023-09-28T07:18:38Z</time>
      </trkpt>
      <trkpt lat="44.46048" lon="5.69523">
        <ele>749.6</ele>
        <time>2023-09-28T07:18:39Z</time>
      </trkpt>
      <trkpt lat="44.46051" lon="5.69527">
        <ele>749.8</ele>
        <time>2023-09-28T07:18:40Z</time>
      </trkpt>
      <trkpt lat="44.46053" lon="5.6953">
        <ele>750</ele>
        <time>2023-09-28T07:18:41Z</time>
      </trkpt>
      <trkpt lat="44.46056" lon="5.69533">
        <ele>750.2</ele>
        <time>2023-09-28T07:18:42Z</time>
      </trkpt>
      <trkpt lat="44.46058" lon="5.69535">
        <ele>750.4</ele>
        <time>2023-09-28T07:18:43Z</time>
      </trkpt>
      <trkpt lat="44.4606" lon="5.69538">
        <ele>750.6</ele>
        <time>2023-09-28T07:18:44Z</time>
      </trkpt>
      <trkpt lat="44.46063" lon="5.6954">
        <ele>750.8</ele>
        <time>2023-09-28T07:18:45Z</time>
      </trkpt>
      <trkpt lat="44.46065" lon="5.69543">
        <ele>751</ele>
        <time>2023-09-28T07:18:47Z</time>
      </trkpt>
      <trkpt lat="44.46067" lon="5.69545">
        <ele>751.2</ele>
        <time>2023-09-28T07:18:48Z</time>
      </trkpt>
      <trkpt lat="44.4607" lon="5.69549">
        <ele>751.4</ele>
        <time>2023-09-28T07:18:49Z</time>
      </trkpt>
      <trkpt lat="44.46071" lon="5.6955">
        <ele>751.5</ele>
        <time>2023-09-28T07:18:50Z</time>
      </trkpt>
      <trkpt lat="44.46073" lon="5.69553">
        <ele>751.8</ele>
        <time>2023-09-28T07:18:51Z</time>
      </trkpt>
      <trkpt lat="44.46075" lon="5.69557">
        <ele>752</ele>
        <time>2023-09-28T07:18:52Z</time>
      </trkpt>
      <trkpt lat="44.46076" lon="5.69559">
        <ele>752.1</ele>
        <time>2023-09-28T07:18:53Z</time>
      </trkpt>
      <trkpt lat="44.46078" lon="5.69562">
        <ele>752.4</ele>
        <time>2023-09-28T07:18:54Z</time>
      </trkpt>
      <trkpt lat="44.46079" lon="5.69564">
        <ele>752.5</ele>
        <time>2023-09-28T07:18:55Z</time>
      </trkpt>
      <trkpt lat="44.46081" lon="5.69568">
        <ele>752.8</ele>
        <time>2023-09-28T07:18:57Z</time>
      </trkpt>
      <trkpt lat="44.46083" lon="5.69572">
        <ele>753.1</ele>
        <time>2023-09-28T07:18:58Z</time>
      </trkpt>
      <trkpt lat="44.46084" lon="5.69574">
        <ele>753.2</ele>
        <time>2023-09-28T07:18:59Z</time>
      </trkpt>
      <trkpt lat="44.46084" lon="5.69578">
        <ele>753.5</ele>
        <time>2023-09-28T07:19:00Z</time>
      </trkpt>
      <trkpt lat="44.46086" lon="5.69582">
        <ele>753.8</ele>
        <time>2023-09-28T07:19:01Z</time>
      </trkpt>
      <trkpt lat="44.46087" lon="5.69586">
        <ele>754.1</ele>
        <time>2023-09-28T07:19:02Z</time>
      </trkpt>
      <trkpt lat="44.46088" lon="5.69588">
        <ele>754.2</ele>
        <time>2023-09-28T07:19:03Z</time>
      </trkpt>
      <trkpt lat="44.46089" lon="5.69592">
        <ele>754.5</ele>
        <time>2023-09-28T07:19:05Z</time>
      </trkpt>
      <trkpt lat="44.46091" lon="5.69595">
        <ele>754.7</ele>
        <time>2023-09-28T07:19:06Z</time>
      </trkpt>
      <trkpt lat="44.46093" lon="5.696">
        <ele>755</ele>
        <time>2023-09-28T07:19:07Z</time>
      </trkpt>
      <trkpt lat="44.46095" lon="5.69604">
        <ele>755.3</ele>
        <time>2023-09-28T07:19:09Z</time>
      </trkpt>
      <trkpt lat="44.46097" lon="5.69607">
        <ele>755.5</ele>
        <time>2023-09-28T07:19:10Z</time>
      </trkpt>
      <trkpt lat="44.46099" lon="5.69612">
        <ele>755.8</ele>
        <time>2023-09-28T07:19:11Z</time>
      </trkpt>
      <trkpt lat="44.46101" lon="5.69616">
        <ele>756.1</ele>
        <time>2023-09-28T07:19:13Z</time>
      </trkpt>
      <trkpt lat="44.46102" lon="5.6962">
        <ele>756.3</ele>
        <time>2023-09-28T07:19:14Z</time>
      </trkpt>
      <trkpt lat="44.46104" lon="5.69622">
        <ele>756.5</ele>
        <time>2023-09-28T07:19:15Z</time>
      </trkpt>
      <trkpt lat="44.46106" lon="5.69625">
        <ele>756.7</ele>
        <time>2023-09-28T07:19:17Z</time>
      </trkpt>
      <trkpt lat="44.46108" lon="5.6963">
        <ele>757</ele>
        <time>2023-09-28T07:19:18Z</time>
      </trkpt>
      <trkpt lat="44.46109" lon="5.69632">
        <ele>757.1</ele>
        <time>2023-09-28T07:19:19Z</time>
      </trkpt>
      <trkpt lat="44.4611" lon="5.69637">
        <ele>757.4</ele>
        <time>2023-09-28T07:19:20Z</time>
      </trkpt>
      <trkpt lat="44.4611" lon="5.69639">
        <ele>757.5</ele>
        <time>2023-09-28T07:19:21Z</time>
      </trkpt>
      <trkpt lat="44.46111" lon="5.69642">
        <ele>757.7</ele>
        <time>2023-09-28T07:19:22Z</time>
      </trkpt>
      <trkpt lat="44.46113" lon="5.69646">
        <ele>757.9</ele>
        <time>2023-09-28T07:19:24Z</time>
      </trkpt>
      <trkpt lat="44.46114" lon="5.69651">
        <ele>758.2</ele>
        <time>2023-09-28T07:19:25Z</time>
      </trkpt>
      <trkpt lat="44.46115" lon="5.69656">
        <ele>758.5</ele>
        <time>2023-09-28T07:19:26Z</time>
      </trkpt>
      <trkpt lat="44.46115" lon="5.69658">
        <ele>758.6</ele>
        <time>2023-09-28T07:19:27Z</time>
      </trkpt>
      <trkpt lat="44.46116" lon="5.69661">
        <ele>758.8</ele>
        <time>2023-09-28T07:19:28Z</time>
      </trkpt>
      <trkpt lat="44.46116" lon="5.69665">
        <ele>759</ele>
        <time>2023-09-28T07:19:30Z</time>
      </trkpt>
      <trkpt lat="44.46117" lon="5.69671">
        <ele>759.3</ele>
        <time>2023-09-28T07:19:31Z</time>
      </trkpt>
      <trkpt lat="44.46117" lon="5.69674">
        <ele>759.5</ele>
        <time>2023-09-28T07:19:32Z</time>
      </trkpt>
      <trkpt lat="44.46117" lon="5.69677">
        <ele>759.7</ele>
        <time>2023-09-28T07:19:33Z</time>
      </trkpt>
      <trkpt lat="44.46117" lon="5.69681">
        <ele>759.9</ele>
        <time>2023-09-28T07:19:35Z</time>
      </trkpt>
      <trkpt lat="44.46118" lon="5.69685">
        <ele>760.1</ele>
        <time>2023-09-28T07:19:36Z</time>
      </trkpt>
      <trkpt lat="44.46119" lon="5.69691">
        <ele>760.4</ele>
        <time>2023-09-28T07:19:37Z</time>
      </trkpt>
      <trkpt lat="44.46119" lon="5.69692">
        <ele>760.6</ele>
        <time>2023-09-28T07:19:38Z</time>
      </trkpt>
      <trkpt lat="44.46119" lon="5.69695">
        <ele>760.7</ele>
        <time>2023-09-28T07:19:39Z</time>
      </trkpt>
      <trkpt lat="44.46119" lon="5.69701">
        <ele>761</ele>
        <time>2023-09-28T07:19:41Z</time>
      </trkpt>
      <trkpt lat="44.46119" lon="5.69706">
        <ele>761.4</ele>
        <time>2023-09-28T07:19:42Z</time>
      </trkpt>
      <trkpt lat="44.46119" lon="5.69708">
        <ele>761.5</ele>
        <time>2023-09-28T07:19:43Z</time>
      </trkpt>
      <trkpt lat="44.46119" lon="5.69712">
        <ele>761.7</ele>
        <time>2023-09-28T07:19:45Z</time>
      </trkpt>
      <trkpt lat="44.46119" lon="5.69716">
        <ele>762</ele>
        <time>2023-09-28T07:19:46Z</time>
      </trkpt>
      <trkpt lat="44.4612" lon="5.69722">
        <ele>762.3</ele>
        <time>2023-09-28T07:19:47Z</time>
      </trkpt>
      <trkpt lat="44.4612" lon="5.69724">
        <ele>762.4</ele>
        <time>2023-09-28T07:19:48Z</time>
      </trkpt>
      <trkpt lat="44.4612" lon="5.69728">
        <ele>762.7</ele>
        <time>2023-09-28T07:19:49Z</time>
      </trkpt>
      <trkpt lat="44.4612" lon="5.6973">
        <ele>762.8</ele>
        <time>2023-09-28T07:19:50Z</time>
      </trkpt>
      <trkpt lat="44.4612" lon="5.69735">
        <ele>763.1</ele>
        <time>2023-09-28T07:19:51Z</time>
      </trkpt>
      <trkpt lat="44.4612" lon="5.69736">
        <ele>763.1</ele>
        <time>2023-09-28T07:19:52Z</time>
      </trkpt>
      <trkpt lat="44.4612" lon="5.6974">
        <ele>763.4</ele>
        <time>2023-09-28T07:19:54Z</time>
      </trkpt>
      <trkpt lat="44.4612" lon="5.69745">
        <ele>763.7</ele>
        <time>2023-09-28T07:19:55Z</time>
      </trkpt>
      <trkpt lat="44.46121" lon="5.69748">
        <ele>763.8</ele>
        <time>2023-09-28T07:19:56Z</time>
      </trkpt>
      <trkpt lat="44.46122" lon="5.69751">
        <ele>764.1</ele>
        <time>2023-09-28T07:19:58Z</time>
      </trkpt>
      <trkpt lat="44.46122" lon="5.69755">
        <ele>764.3</ele>
        <time>2023-09-28T07:19:59Z</time>
      </trkpt>
      <trkpt lat="44.46122" lon="5.69759">
        <ele>764.5</ele>
        <time>2023-09-28T07:20:00Z</time>
      </trkpt>
      <trkpt lat="44.46122" lon="5.69764">
        <ele>764.7</ele>
        <time>2023-09-28T07:20:01Z</time>
      </trkpt>
      <trkpt lat="44.46123" lon="5.69765">
        <ele>764.8</ele>
        <time>2023-09-28T07:20:02Z</time>
      </trkpt>
      <trkpt lat="44.46123" lon="5.69768">
        <ele>764.9</ele>
        <time>2023-09-28T07:20:03Z</time>
      </trkpt>
      <trkpt lat="44.46125" lon="5.69772">
        <ele>765.2</ele>
        <time>2023-09-28T07:20:05Z</time>
      </trkpt>
      <trkpt lat="44.46126" lon="5.69777">
        <ele>765.4</ele>
        <time>2023-09-28T07:20:06Z</time>
      </trkpt>
      <trkpt lat="44.46127" lon="5.69779">
        <ele>765.5</ele>
        <time>2023-09-28T07:20:07Z</time>
      </trkpt>
      <trkpt lat="44.46127" lon="5.69784">
        <ele>765.7</ele>
        <time>2023-09-28T07:20:08Z</time>
      </trkpt>
      <trkpt lat="44.46128" lon="5.69785">
        <ele>765.8</ele>
        <time>2023-09-28T07:20:09Z</time>
      </trkpt>
      <trkpt lat="44.46128" lon="5.6979">
        <ele>766</ele>
        <time>2023-09-28T07:20:11Z</time>
      </trkpt>
      <trkpt lat="44.46129" lon="5.69794">
        <ele>766.2</ele>
        <time>2023-09-28T07:20:12Z</time>
      </trkpt>
      <trkpt lat="44.4613" lon="5.69798">
        <ele>766.4</ele>
        <time>2023-09-28T07:20:13Z</time>
      </trkpt>
      <trkpt lat="44.46131" lon="5.69802">
        <ele>766.5</ele>
        <time>2023-09-28T07:20:14Z</time>
      </trkpt>
      <trkpt lat="44.46132" lon="5.69805">
        <ele>766.7</ele>
        <time>2023-09-28T07:20:16Z</time>
      </trkpt>
      <trkpt lat="44.46133" lon="5.69811">
        <ele>766.9</ele>
        <time>2023-09-28T07:20:17Z</time>
      </trkpt>
      <trkpt lat="44.46134" lon="5.69814">
        <ele>767</ele>
        <time>2023-09-28T07:20:18Z</time>
      </trkpt>
      <trkpt lat="44.46135" lon="5.69818">
        <ele>767.2</ele>
        <time>2023-09-28T07:20:20Z</time>
      </trkpt>
      <trkpt lat="44.46136" lon="5.69821">
        <ele>767.4</ele>
        <time>2023-09-28T07:20:21Z</time>
      </trkpt>
      <trkpt lat="44.46137" lon="5.69826">
        <ele>767.6</ele>
        <time>2023-09-28T07:20:22Z</time>
      </trkpt>
      <trkpt lat="44.46137" lon="5.69828">
        <ele>767.6</ele>
        <time>2023-09-28T07:20:23Z</time>
      </trkpt>
      <trkpt lat="44.46139" lon="5.69832">
        <ele>767.8</ele>
        <time>2023-09-28T07:20:24Z</time>
      </trkpt>
      <trkpt lat="44.46139" lon="5.69834">
        <ele>767.9</ele>
        <time>2023-09-28T07:20:25Z</time>
      </trkpt>
      <trkpt lat="44.4614" lon="5.69838">
        <ele>768.1</ele>
        <time>2023-09-28T07:20:26Z</time>
      </trkpt>
      <trkpt lat="44.4614" lon="5.69841">
        <ele>768.2</ele>
        <time>2023-09-28T07:20:27Z</time>
      </trkpt>
      <trkpt lat="44.46141" lon="5.69845">
        <ele>768.3</ele>
        <time>2023-09-28T07:20:29Z</time>
      </trkpt>
      <trkpt lat="44.46142" lon="5.6985">
        <ele>768.5</ele>
        <time>2023-09-28T07:20:30Z</time>
      </trkpt>
      <trkpt lat="44.46143" lon="5.69854">
        <ele>768.7</ele>
        <time>2023-09-28T07:20:31Z</time>
      </trkpt>
      <trkpt lat="44.46144" lon="5.69858">
        <ele>768.9</ele>
        <time>2023-09-28T07:20:33Z</time>
      </trkpt>
      <trkpt lat="44.46145" lon="5.69862">
        <ele>769</ele>
        <time>2023-09-28T07:20:34Z</time>
      </trkpt>
      <trkpt lat="44.46145" lon="5.69866">
        <ele>769.2</ele>
        <time>2023-09-28T07:20:35Z</time>
      </trkpt>
      <trkpt lat="44.46146" lon="5.69868">
        <ele>769.3</ele>
        <time>2023-09-28T07:20:36Z</time>
      </trkpt>
      <trkpt lat="44.46146" lon="5.69872">
        <ele>769.5</ele>
        <time>2023-09-28T07:20:37Z</time>
      </trkpt>
      <trkpt lat="44.46147" lon="5.69877">
        <ele>769.7</ele>
        <time>2023-09-28T07:20:38Z</time>
      </trkpt>
      <trkpt lat="44.46147" lon="5.69879">
        <ele>769.8</ele>
        <time>2023-09-28T07:20:39Z</time>
      </trkpt>
      <trkpt lat="44.46148" lon="5.69883">
        <ele>770</ele>
        <time>2023-09-28T07:20:40Z</time>
      </trkpt>
      <trkpt lat="44.46148" lon="5.69886">
        <ele>770.2</ele>
        <time>2023-09-28T07:20:41Z</time>
      </trkpt>
      <trkpt lat="44.46148" lon="5.6989">
        <ele>770.4</ele>
        <time>2023-09-28T07:20:43Z</time>
      </trkpt>
      <trkpt lat="44.46149" lon="5.69894">
        <ele>770.6</ele>
        <time>2023-09-28T07:20:44Z</time>
      </trkpt>
      <trkpt lat="44.46149" lon="5.69898">
        <ele>770.8</ele>
        <time>2023-09-28T07:20:45Z</time>
      </trkpt>
      <trkpt lat="44.4615" lon="5.69903">
        <ele>771.1</ele>
        <time>2023-09-28T07:20:46Z</time>
      </trkpt>
      <trkpt lat="44.4615" lon="5.69904">
        <ele>771.2</ele>
        <time>2023-09-28T07:20:47Z</time>
      </trkpt>
      <trkpt lat="44.46151" lon="5.69908">
        <ele>771.4</ele>
        <time>2023-09-28T07:20:48Z</time>
      </trkpt>
      <trkpt lat="44.46152" lon="5.69915">
        <ele>771.8</ele>
        <time>2023-09-28T07:20:50Z</time>
      </trkpt>
      <trkpt lat="44.46154" lon="5.69919">
        <ele>772</ele>
        <time>2023-09-28T07:20:52Z</time>
      </trkpt>
      <trkpt lat="44.46155" lon="5.69923">
        <ele>772.3</ele>
        <time>2023-09-28T07:20:53Z</time>
      </trkpt>
      <trkpt lat="44.46155" lon="5.69924">
        <ele>772.4</ele>
        <time>2023-09-28T07:20:54Z</time>
      </trkpt>
      <trkpt lat="44.46157" lon="5.69929">
        <ele>772.7</ele>
        <time>2023-09-28T07:20:55Z</time>
      </trkpt>
      <trkpt lat="44.46158" lon="5.6993">
        <ele>772.7</ele>
        <time>2023-09-28T07:20:56Z</time>
      </trkpt>
      <trkpt lat="44.46161" lon="5.69934">
        <ele>773</ele>
        <time>2023-09-28T07:20:58Z</time>
      </trkpt>
      <trkpt lat="44.46165" lon="5.69937">
        <ele>773.3</ele>
        <time>2023-09-28T07:21:00Z</time>
      </trkpt>
      <trkpt lat="44.46166" lon="5.69937">
        <ele>773.4</ele>
        <time>2023-09-28T07:21:01Z</time>
      </trkpt>
      <trkpt lat="44.46168" lon="5.69938">
        <ele>773.5</ele>
        <time>2023-09-28T07:21:02Z</time>
      </trkpt>
      <trkpt lat="44.4617" lon="5.69938">
        <ele>773.6</ele>
        <time>2023-09-28T07:21:03Z</time>
      </trkpt>
      <trkpt lat="44.46171" lon="5.69938">
        <ele>773.7</ele>
        <time>2023-09-28T07:21:04Z</time>
      </trkpt>
      <trkpt lat="44.46173" lon="5.69938">
        <ele>773.8</ele>
        <time>2023-09-28T07:21:05Z</time>
      </trkpt>
      <trkpt lat="44.46176" lon="5.69937">
        <ele>773.9</ele>
        <time>2023-09-28T07:21:07Z</time>
      </trkpt>
      <trkpt lat="44.46179" lon="5.69936">
        <ele>774.1</ele>
        <time>2023-09-28T07:21:08Z</time>
      </trkpt>
      <trkpt lat="44.46179" lon="5.69936">
        <ele>774.2</ele>
        <time>2023-09-28T07:21:09Z</time>
      </trkpt>
      <trkpt lat="44.46181" lon="5.69933">
        <ele>774.3</ele>
        <time>2023-09-28T07:21:10Z</time>
      </trkpt>
      <trkpt lat="44.46183" lon="5.69932">
        <ele>774.4</ele>
        <time>2023-09-28T07:21:11Z</time>
      </trkpt>
      <trkpt lat="44.46185" lon="5.69931">
        <ele>774.4</ele>
        <time>2023-09-28T07:21:12Z</time>
      </trkpt>
      <trkpt lat="44.46187" lon="5.69929">
        <ele>774.6</ele>
        <time>2023-09-28T07:21:13Z</time>
      </trkpt>
      <trkpt lat="44.46188" lon="5.69927">
        <ele>774.6</ele>
        <time>2023-09-28T07:21:14Z</time>
      </trkpt>
      <trkpt lat="44.4619" lon="5.69926">
        <ele>774.7</ele>
        <time>2023-09-28T07:21:15Z</time>
      </trkpt>
      <trkpt lat="44.46192" lon="5.69924">
        <ele>774.9</ele>
        <time>2023-09-28T07:21:17Z</time>
      </trkpt>
      <trkpt lat="44.46194" lon="5.69921">
        <ele>775</ele>
        <time>2023-09-28T07:21:18Z</time>
      </trkpt>
      <trkpt lat="44.46194" lon="5.69919">
        <ele>775</ele>
        <time>2023-09-28T07:21:19Z</time>
      </trkpt>
      <trkpt lat="44.46197" lon="5.69917">
        <ele>775.2</ele>
        <time>2023-09-28T07:21:20Z</time>
      </trkpt>
      <trkpt lat="44.46197" lon="5.69916">
        <ele>775.2</ele>
        <time>2023-09-28T07:21:21Z</time>
      </trkpt>
      <trkpt lat="44.46199" lon="5.69914">
        <ele>775.3</ele>
        <time>2023-09-28T07:21:22Z</time>
      </trkpt>
      <trkpt lat="44.46203" lon="5.69911">
        <ele>775.5</ele>
        <time>2023-09-28T07:21:24Z</time>
      </trkpt>
      <trkpt lat="44.46205" lon="5.69908">
        <ele>775.6</ele>
        <time>2023-09-28T07:21:25Z</time>
      </trkpt>
      <trkpt lat="44.46207" lon="5.69904">
        <ele>775.8</ele>
        <time>2023-09-28T07:21:26Z</time>
      </trkpt>
      <trkpt lat="44.46209" lon="5.69903">
        <ele>775.9</ele>
        <time>2023-09-28T07:21:27Z</time>
      </trkpt>
      <trkpt lat="44.46212" lon="5.69899">
        <ele>776.1</ele>
        <time>2023-09-28T07:21:29Z</time>
      </trkpt>
      <trkpt lat="44.46214" lon="5.69896">
        <ele>776.2</ele>
        <time>2023-09-28T07:21:30Z</time>
      </trkpt>
      <trkpt lat="44.46218" lon="5.69892">
        <ele>776.4</ele>
        <time>2023-09-28T07:21:32Z</time>
      </trkpt>
      <trkpt lat="44.46221" lon="5.69889">
        <ele>776.5</ele>
        <time>2023-09-28T07:21:33Z</time>
      </trkpt>
      <trkpt lat="44.46222" lon="5.69888">
        <ele>776.6</ele>
        <time>2023-09-28T07:21:34Z</time>
      </trkpt>
      <trkpt lat="44.46226" lon="5.69884">
        <ele>776.8</ele>
        <time>2023-09-28T07:21:36Z</time>
      </trkpt>
      <trkpt lat="44.46229" lon="5.69883">
        <ele>776.9</ele>
        <time>2023-09-28T07:21:37Z</time>
      </trkpt>
      <trkpt lat="44.46232" lon="5.69881">
        <ele>777.1</ele>
        <time>2023-09-28T07:21:38Z</time>
      </trkpt>
      <trkpt lat="44.46234" lon="5.6988">
        <ele>777.1</ele>
        <time>2023-09-28T07:21:39Z</time>
      </trkpt>
      <trkpt lat="44.46236" lon="5.69879">
        <ele>777.2</ele>
        <time>2023-09-28T07:21:40Z</time>
      </trkpt>
      <trkpt lat="44.46239" lon="5.69879">
        <ele>777.4</ele>
        <time>2023-09-28T07:21:42Z</time>
      </trkpt>
      <trkpt lat="44.46243" lon="5.69879">
        <ele>777.5</ele>
        <time>2023-09-28T07:21:43Z</time>
      </trkpt>
      <trkpt lat="44.46247" lon="5.69879">
        <ele>777.7</ele>
        <time>2023-09-28T07:21:45Z</time>
      </trkpt>
      <trkpt lat="44.4625" lon="5.69878">
        <ele>777.8</ele>
        <time>2023-09-28T07:21:46Z</time>
      </trkpt>
      <trkpt lat="44.46253" lon="5.69878">
        <ele>777.9</ele>
        <time>2023-09-28T07:21:47Z</time>
      </trkpt>
      <trkpt lat="44.46259" lon="5.69877">
        <ele>778.2</ele>
        <time>2023-09-28T07:21:49Z</time>
      </trkpt>
      <trkpt lat="44.46262" lon="5.69876">
        <ele>778.3</ele>
        <time>2023-09-28T07:21:51Z</time>
      </trkpt>
      <trkpt lat="44.46265" lon="5.69874">
        <ele>778.4</ele>
        <time>2023-09-28T07:21:52Z</time>
      </trkpt>
      <trkpt lat="44.46269" lon="5.69873">
        <ele>778.6</ele>
        <time>2023-09-28T07:21:53Z</time>
      </trkpt>
      <trkpt lat="44.4627" lon="5.69872">
        <ele>778.7</ele>
        <time>2023-09-28T07:21:54Z</time>
      </trkpt>
      <trkpt lat="44.46273" lon="5.6987">
        <ele>778.8</ele>
        <time>2023-09-28T07:21:55Z</time>
      </trkpt>
      <trkpt lat="44.46276" lon="5.69868">
        <ele>778.9</ele>
        <time>2023-09-28T07:21:56Z</time>
      </trkpt>
      <trkpt lat="44.46279" lon="5.69867">
        <ele>779.1</ele>
        <time>2023-09-28T07:21:58Z</time>
      </trkpt>
      <trkpt lat="44.46283" lon="5.69864">
        <ele>779.3</ele>
        <time>2023-09-28T07:21:59Z</time>
      </trkpt>
      <trkpt lat="44.46288" lon="5.6986">
        <ele>779.5</ele>
        <time>2023-09-28T07:22:01Z</time>
      </trkpt>
      <trkpt lat="44.46291" lon="5.69857">
        <ele>779.7</ele>
        <time>2023-09-28T07:22:03Z</time>
      </trkpt>
      <trkpt lat="44.46294" lon="5.69855">
        <ele>779.8</ele>
        <time>2023-09-28T07:22:04Z</time>
      </trkpt>
      <trkpt lat="44.46296" lon="5.69852">
        <ele>780</ele>
        <time>2023-09-28T07:22:05Z</time>
      </trkpt>
      <trkpt lat="44.46299" lon="5.6985">
        <ele>780.1</ele>
        <time>2023-09-28T07:22:06Z</time>
      </trkpt>
      <trkpt lat="44.46301" lon="5.69847">
        <ele>780.2</ele>
        <time>2023-09-28T07:22:07Z</time>
      </trkpt>
      <trkpt lat="44.46304" lon="5.69843">
        <ele>780.5</ele>
        <time>2023-09-28T07:22:09Z</time>
      </trkpt>
      <trkpt lat="44.46307" lon="5.6984">
        <ele>780.7</ele>
        <time>2023-09-28T07:22:10Z</time>
      </trkpt>
      <trkpt lat="44.46309" lon="5.69837">
        <ele>780.8</ele>
        <time>2023-09-28T07:22:11Z</time>
      </trkpt>
      <trkpt lat="44.46311" lon="5.69834">
        <ele>781</ele>
        <time>2023-09-28T07:22:13Z</time>
      </trkpt>
      <trkpt lat="44.46313" lon="5.69831">
        <ele>781.2</ele>
        <time>2023-09-28T07:22:14Z</time>
      </trkpt>
      <trkpt lat="44.46316" lon="5.69828">
        <ele>781.3</ele>
        <time>2023-09-28T07:22:15Z</time>
      </trkpt>
      <trkpt lat="44.46318" lon="5.69824">
        <ele>781.5</ele>
        <time>2023-09-28T07:22:16Z</time>
      </trkpt>
      <trkpt lat="44.4632" lon="5.69821">
        <ele>781.7</ele>
        <time>2023-09-28T07:22:17Z</time>
      </trkpt>
      <trkpt lat="44.46321" lon="5.69818">
        <ele>781.9</ele>
        <time>2023-09-28T07:22:18Z</time>
      </trkpt>
      <trkpt lat="44.46323" lon="5.69815">
        <ele>782</ele>
        <time>2023-09-28T07:22:19Z</time>
      </trkpt>
      <trkpt lat="44.46325" lon="5.69811">
        <ele>782.2</ele>
        <time>2023-09-28T07:22:21Z</time>
      </trkpt>
      <trkpt lat="44.46327" lon="5.69808">
        <ele>782.4</ele>
        <time>2023-09-28T07:22:22Z</time>
      </trkpt>
      <trkpt lat="44.46329" lon="5.69805">
        <ele>782.5</ele>
        <time>2023-09-28T07:22:23Z</time>
      </trkpt>
      <trkpt lat="44.46331" lon="5.69801">
        <ele>782.7</ele>
        <time>2023-09-28T07:22:24Z</time>
      </trkpt>
      <trkpt lat="44.46333" lon="5.69798">
        <ele>782.9</ele>
        <time>2023-09-28T07:22:25Z</time>
      </trkpt>
      <trkpt lat="44.46335" lon="5.69793">
        <ele>783.1</ele>
        <time>2023-09-28T07:22:26Z</time>
      </trkpt>
      <trkpt lat="44.46336" lon="5.69792">
        <ele>783.2</ele>
        <time>2023-09-28T07:22:27Z</time>
      </trkpt>
      <trkpt lat="44.46338" lon="5.69788">
        <ele>783.3</ele>
        <time>2023-09-28T07:22:29Z</time>
      </trkpt>
      <trkpt lat="44.46342" lon="5.69786">
        <ele>783.5</ele>
        <time>2023-09-28T07:22:30Z</time>
      </trkpt>
      <trkpt lat="44.46344" lon="5.69783">
        <ele>783.7</ele>
        <time>2023-09-28T07:22:31Z</time>
      </trkpt>
      <trkpt lat="44.46346" lon="5.6978">
        <ele>783.9</ele>
        <time>2023-09-28T07:22:33Z</time>
      </trkpt>
      <trkpt lat="44.46349" lon="5.69776">
        <ele>784.1</ele>
        <time>2023-09-28T07:22:34Z</time>
      </trkpt>
      <trkpt lat="44.46352" lon="5.69772">
        <ele>784.3</ele>
        <time>2023-09-28T07:22:35Z</time>
      </trkpt>
      <trkpt lat="44.46355" lon="5.69768">
        <ele>784.5</ele>
        <time>2023-09-28T07:22:37Z</time>
      </trkpt>
      <trkpt lat="44.46358" lon="5.69765">
        <ele>784.7</ele>
        <time>2023-09-28T07:22:38Z</time>
      </trkpt>
      <trkpt lat="44.46359" lon="5.69764">
        <ele>784.7</ele>
        <time>2023-09-28T07:22:39Z</time>
      </trkpt>
      <trkpt lat="44.46361" lon="5.69762">
        <ele>784.8</ele>
        <time>2023-09-28T07:22:40Z</time>
      </trkpt>
      <trkpt lat="44.46363" lon="5.69759">
        <ele>785</ele>
        <time>2023-09-28T07:22:42Z</time>
      </trkpt>
      <trkpt lat="44.46366" lon="5.69755">
        <ele>785.2</ele>
        <time>2023-09-28T07:22:43Z</time>
      </trkpt>
      <trkpt lat="44.4637" lon="5.69753">
        <ele>785.4</ele>
        <time>2023-09-28T07:22:45Z</time>
      </trkpt>
      <trkpt lat="44.46372" lon="5.6975">
        <ele>785.6</ele>
        <time>2023-09-28T07:22:46Z</time>
      </trkpt>
      <trkpt lat="44.46374" lon="5.69749">
        <ele>785.6</ele>
        <time>2023-09-28T07:22:47Z</time>
      </trkpt>
      <trkpt lat="44.46376" lon="5.69747">
        <ele>785.8</ele>
        <time>2023-09-28T07:22:48Z</time>
      </trkpt>
      <trkpt lat="44.4638" lon="5.69744">
        <ele>786</ele>
        <time>2023-09-28T07:22:50Z</time>
      </trkpt>
      <trkpt lat="44.46382" lon="5.69741">
        <ele>786.2</ele>
        <time>2023-09-28T07:22:51Z</time>
      </trkpt>
      <trkpt lat="44.46386" lon="5.69739">
        <ele>786.4</ele>
        <time>2023-09-28T07:22:53Z</time>
      </trkpt>
      <trkpt lat="44.46388" lon="5.69738">
        <ele>786.5</ele>
        <time>2023-09-28T07:22:54Z</time>
      </trkpt>
      <trkpt lat="44.46391" lon="5.69735">
        <ele>786.6</ele>
        <time>2023-09-28T07:22:55Z</time>
      </trkpt>
      <trkpt lat="44.46394" lon="5.69733">
        <ele>786.8</ele>
        <time>2023-09-28T07:22:57Z</time>
      </trkpt>
      <trkpt lat="44.46395" lon="5.69732">
        <ele>786.8</ele>
        <time>2023-09-28T07:22:58Z</time>
      </trkpt>
      <trkpt lat="44.46396" lon="5.69731">
        <ele>786.8</ele>
        <time>2023-09-28T07:22:59Z</time>
      </trkpt>
      <trkpt lat="44.46396" lon="5.69731">
        <ele>786.8</ele>
        <time>2023-09-28T07:23:01Z</time>
      </trkpt>
      <trkpt lat="44.46396" lon="5.69731">
        <ele>786.8</ele>
        <time>2023-09-28T07:23:02Z</time>
      </trkpt>
      <trkpt lat="44.46395" lon="5.69731">
        <ele>786.8</ele>
        <time>2023-09-28T07:23:03Z</time>
      </trkpt>
      <trkpt lat="44.46395" lon="5.69731">
        <ele>786.8</ele>
        <time>2023-09-28T07:23:04Z</time>
      </trkpt>
      <trkpt lat="44.46395" lon="5.69731">
        <ele>786.8</ele>
        <time>2023-09-28T07:23:06Z</time>
      </trkpt>
      <trkpt lat="44.46395" lon="5.69731">
        <ele>786.8</ele>
        <time>2023-09-28T07:23:07Z</time>
      </trkpt>
      <trkpt lat="44.46395" lon="5.69732">
        <ele>786.8</ele>
        <time>2023-09-28T07:23:08Z</time>
      </trkpt>
      <trkpt lat="44.46395" lon="5.69732">
        <ele>786.8</ele>
        <time>2023-09-28T07:23:09Z</time>
      </trkpt>
      <trkpt lat="44.46395" lon="5.69732">
        <ele>786.8</ele>
        <time>2023-09-28T07:23:11Z</time>
      </trkpt>
      <trkpt lat="44.46399" lon="5.6973">
        <ele>786.8</ele>
        <time>2023-09-28T07:23:28Z</time>
      </trkpt>
      <trkpt lat="44.46401" lon="5.69727">
        <ele>786.8</ele>
        <time>2023-09-28T07:23:29Z</time>
      </trkpt>
      <trkpt lat="44.46405" lon="5.69723">
        <ele>786.7</ele>
        <time>2023-09-28T07:23:31Z</time>
      </trkpt>
      <trkpt lat="44.46408" lon="5.6972">
        <ele>786.6</ele>
        <time>2023-09-28T07:23:32Z</time>
      </trkpt>
      <trkpt lat="44.46411" lon="5.69717">
        <ele>786.6</ele>
        <time>2023-09-28T07:23:33Z</time>
      </trkpt>
      <trkpt lat="44.46414" lon="5.69713">
        <ele>786.5</ele>
        <time>2023-09-28T07:23:34Z</time>
      </trkpt>
      <trkpt lat="44.46418" lon="5.6971">
        <ele>786.4</ele>
        <time>2023-09-28T07:23:35Z</time>
      </trkpt>
      <trkpt lat="44.46421" lon="5.69709">
        <ele>786.3</ele>
        <time>2023-09-28T07:23:36Z</time>
      </trkpt>
      <trkpt lat="44.46427" lon="5.69708">
        <ele>786.2</ele>
        <time>2023-09-28T07:23:38Z</time>
      </trkpt>
      <trkpt lat="44.46432" lon="5.69709">
        <ele>786.1</ele>
        <time>2023-09-28T07:23:39Z</time>
      </trkpt>
      <trkpt lat="44.46436" lon="5.69709">
        <ele>786</ele>
        <time>2023-09-28T07:23:40Z</time>
      </trkpt>
      <trkpt lat="44.46442" lon="5.69709">
        <ele>785.9</ele>
        <time>2023-09-28T07:23:41Z</time>
      </trkpt>
      <trkpt lat="44.46446" lon="5.6971">
        <ele>785.8</ele>
        <time>2023-09-28T07:23:42Z</time>
      </trkpt>
      <trkpt lat="44.4645" lon="5.69711">
        <ele>785.6</ele>
        <time>2023-09-28T07:23:43Z</time>
      </trkpt>
      <trkpt lat="44.46455" lon="5.69711">
        <ele>785.5</ele>
        <time>2023-09-28T07:23:44Z</time>
      </trkpt>
      <trkpt lat="44.46461" lon="5.69711">
        <ele>785.4</ele>
        <time>2023-09-28T07:23:45Z</time>
      </trkpt>
      <trkpt lat="44.46467" lon="5.69712">
        <ele>785.2</ele>
        <time>2023-09-28T07:23:46Z</time>
      </trkpt>
      <trkpt lat="44.46472" lon="5.69714">
        <ele>785.1</ele>
        <time>2023-09-28T07:23:47Z</time>
      </trkpt>
      <trkpt lat="44.46477" lon="5.69716">
        <ele>784.9</ele>
        <time>2023-09-28T07:23:48Z</time>
      </trkpt>
      <trkpt lat="44.46483" lon="5.69718">
        <ele>784.7</ele>
        <time>2023-09-28T07:23:49Z</time>
      </trkpt>
      <trkpt lat="44.46489" lon="5.69721">
        <ele>784.6</ele>
        <time>2023-09-28T07:23:50Z</time>
      </trkpt>
      <trkpt lat="44.46494" lon="5.69726">
        <ele>784.4</ele>
        <time>2023-09-28T07:23:51Z</time>
      </trkpt>
      <trkpt lat="44.46499" lon="5.69731">
        <ele>784.3</ele>
        <time>2023-09-28T07:23:52Z</time>
      </trkpt>
      <trkpt lat="44.46504" lon="5.69736">
        <ele>784.1</ele>
        <time>2023-09-28T07:23:53Z</time>
      </trkpt>
      <trkpt lat="44.4651" lon="5.69742">
        <ele>784</ele>
        <time>2023-09-28T07:23:54Z</time>
      </trkpt>
      <trkpt lat="44.46515" lon="5.69747">
        <ele>783.9</ele>
        <time>2023-09-28T07:23:55Z</time>
      </trkpt>
      <trkpt lat="44.46521" lon="5.69751">
        <ele>783.7</ele>
        <time>2023-09-28T07:23:56Z</time>
      </trkpt>
      <trkpt lat="44.46527" lon="5.69754">
        <ele>783.5</ele>
        <time>2023-09-28T07:23:57Z</time>
      </trkpt>
      <trkpt lat="44.46533" lon="5.69758">
        <ele>783.4</ele>
        <time>2023-09-28T07:23:58Z</time>
      </trkpt>
      <trkpt lat="44.46538" lon="5.69764">
        <ele>783.2</ele>
        <time>2023-09-28T07:23:59Z</time>
      </trkpt>
      <trkpt lat="44.46543" lon="5.6977">
        <ele>782.9</ele>
        <time>2023-09-28T07:24:00Z</time>
      </trkpt>
      <trkpt lat="44.46548" lon="5.69777">
        <ele>782.6</ele>
        <time>2023-09-28T07:24:01Z</time>
      </trkpt>
      <trkpt lat="44.46552" lon="5.69786">
        <ele>782.2</ele>
        <time>2023-09-28T07:24:02Z</time>
      </trkpt>
      <trkpt lat="44.46557" lon="5.69794">
        <ele>781.9</ele>
        <time>2023-09-28T07:24:03Z</time>
      </trkpt>
      <trkpt lat="44.46561" lon="5.69803">
        <ele>781.6</ele>
        <time>2023-09-28T07:24:04Z</time>
      </trkpt>
      <trkpt lat="44.46567" lon="5.6981">
        <ele>781.3</ele>
        <time>2023-09-28T07:24:05Z</time>
      </trkpt>
      <trkpt lat="44.46573" lon="5.69817">
        <ele>780.9</ele>
        <time>2023-09-28T07:24:06Z</time>
      </trkpt>
      <trkpt lat="44.4658" lon="5.69824">
        <ele>780.6</ele>
        <time>2023-09-28T07:24:07Z</time>
      </trkpt>
      <trkpt lat="44.46587" lon="5.69831">
        <ele>780.3</ele>
        <time>2023-09-28T07:24:08Z</time>
      </trkpt>
      <trkpt lat="44.46594" lon="5.69837">
        <ele>780.1</ele>
        <time>2023-09-28T07:24:09Z</time>
      </trkpt>
      <trkpt lat="44.46601" lon="5.69842">
        <ele>779.9</ele>
        <time>2023-09-28T07:24:10Z</time>
      </trkpt>
      <trkpt lat="44.46608" lon="5.69846">
        <ele>779.7</ele>
        <time>2023-09-28T07:24:11Z</time>
      </trkpt>
      <trkpt lat="44.46616" lon="5.69848">
        <ele>779.5</ele>
        <time>2023-09-28T07:24:12Z</time>
      </trkpt>
      <trkpt lat="44.46624" lon="5.69849">
        <ele>779.4</ele>
        <time>2023-09-28T07:24:13Z</time>
      </trkpt>
      <trkpt lat="44.46632" lon="5.6985">
        <ele>779.2</ele>
        <time>2023-09-28T07:24:14Z</time>
      </trkpt>
      <trkpt lat="44.4664" lon="5.6985">
        <ele>779.1</ele>
        <time>2023-09-28T07:24:15Z</time>
      </trkpt>
      <trkpt lat="44.46648" lon="5.69849">
        <ele>779</ele>
        <time>2023-09-28T07:24:16Z</time>
      </trkpt>
      <trkpt lat="44.46655" lon="5.69849">
        <ele>778.9</ele>
        <time>2023-09-28T07:24:17Z</time>
      </trkpt>
      <trkpt lat="44.46663" lon="5.69847">
        <ele>778.8</ele>
        <time>2023-09-28T07:24:18Z</time>
      </trkpt>
      <trkpt lat="44.4667" lon="5.69846">
        <ele>778.7</ele>
        <time>2023-09-28T07:24:19Z</time>
      </trkpt>
      <trkpt lat="44.46677" lon="5.69845">
        <ele>778.6</ele>
        <time>2023-09-28T07:24:20Z</time>
      </trkpt>
      <trkpt lat="44.46684" lon="5.69844">
        <ele>778.6</ele>
        <time>2023-09-28T07:24:21Z</time>
      </trkpt>
      <trkpt lat="44.46691" lon="5.69843">
        <ele>778.5</ele>
        <time>2023-09-28T07:24:22Z</time>
      </trkpt>
      <trkpt lat="44.46697" lon="5.6984">
        <ele>778.4</ele>
        <time>2023-09-28T07:24:23Z</time>
      </trkpt>
      <trkpt lat="44.46704" lon="5.69839">
        <ele>778.3</ele>
        <time>2023-09-28T07:24:24Z</time>
      </trkpt>
      <trkpt lat="44.46711" lon="5.69838">
        <ele>778.2</ele>
        <time>2023-09-28T07:24:25Z</time>
      </trkpt>
      <trkpt lat="44.46717" lon="5.69838">
        <ele>778.2</ele>
        <time>2023-09-28T07:24:26Z</time>
      </trkpt>
      <trkpt lat="44.46724" lon="5.69839">
        <ele>778.1</ele>
        <time>2023-09-28T07:24:27Z</time>
      </trkpt>
      <trkpt lat="44.4673" lon="5.69844">
        <ele>777.9</ele>
        <time>2023-09-28T07:24:28Z</time>
      </trkpt>
      <trkpt lat="44.46734" lon="5.69852">
        <ele>777.8</ele>
        <time>2023-09-28T07:24:29Z</time>
      </trkpt>
      <trkpt lat="44.46736" lon="5.69861">
        <ele>777.6</ele>
        <time>2023-09-28T07:24:30Z</time>
      </trkpt>
      <trkpt lat="44.46737" lon="5.6987">
        <ele>777.3</ele>
        <time>2023-09-28T07:24:31Z</time>
      </trkpt>
      <trkpt lat="44.46739" lon="5.69879">
        <ele>777.1</ele>
        <time>2023-09-28T07:24:32Z</time>
      </trkpt>
      <trkpt lat="44.46744" lon="5.69887">
        <ele>776.9</ele>
        <time>2023-09-28T07:24:33Z</time>
      </trkpt>
      <trkpt lat="44.4675" lon="5.69893">
        <ele>776.7</ele>
        <time>2023-09-28T07:24:34Z</time>
      </trkpt>
      <trkpt lat="44.46757" lon="5.69897">
        <ele>776.5</ele>
        <time>2023-09-28T07:24:35Z</time>
      </trkpt>
      <trkpt lat="44.46764" lon="5.69898">
        <ele>776.3</ele>
        <time>2023-09-28T07:24:36Z</time>
      </trkpt>
      <trkpt lat="44.46772" lon="5.69897">
        <ele>776.1</ele>
        <time>2023-09-28T07:24:37Z</time>
      </trkpt>
      <trkpt lat="44.46779" lon="5.69897">
        <ele>775.9</ele>
        <time>2023-09-28T07:24:38Z</time>
      </trkpt>
      <trkpt lat="44.46787" lon="5.69896">
        <ele>775.7</ele>
        <time>2023-09-28T07:24:39Z</time>
      </trkpt>
      <trkpt lat="44.46794" lon="5.69895">
        <ele>775.5</ele>
        <time>2023-09-28T07:24:40Z</time>
      </trkpt>
      <trkpt lat="44.46801" lon="5.69894">
        <ele>775.3</ele>
        <time>2023-09-28T07:24:41Z</time>
      </trkpt>
      <trkpt lat="44.46808" lon="5.69892">
        <ele>775.2</ele>
        <time>2023-09-28T07:24:42Z</time>
      </trkpt>
      <trkpt lat="44.46816" lon="5.6989">
        <ele>775</ele>
        <time>2023-09-28T07:24:43Z</time>
      </trkpt>
      <trkpt lat="44.46822" lon="5.69887">
        <ele>774.8</ele>
        <time>2023-09-28T07:24:44Z</time>
      </trkpt>
      <trkpt lat="44.46829" lon="5.69883">
        <ele>774.6</ele>
        <time>2023-09-28T07:24:45Z</time>
      </trkpt>
      <trkpt lat="44.46834" lon="5.69876">
        <ele>774.5</ele>
        <time>2023-09-28T07:24:46Z</time>
      </trkpt>
      <trkpt lat="44.46838" lon="5.69869">
        <ele>774.3</ele>
        <time>2023-09-28T07:24:47Z</time>
      </trkpt>
      <trkpt lat="44.46842" lon="5.69861">
        <ele>774.2</ele>
        <time>2023-09-28T07:24:48Z</time>
      </trkpt>
      <trkpt lat="44.46845" lon="5.69852">
        <ele>774</ele>
        <time>2023-09-28T07:24:49Z</time>
      </trkpt>
      <trkpt lat="44.46849" lon="5.69844">
        <ele>773.9</ele>
        <time>2023-09-28T07:24:50Z</time>
      </trkpt>
      <trkpt lat="44.46853" lon="5.69836">
        <ele>773.7</ele>
        <time>2023-09-28T07:24:51Z</time>
      </trkpt>
      <trkpt lat="44.46858" lon="5.69828">
        <ele>773.5</ele>
        <time>2023-09-28T07:24:52Z</time>
      </trkpt>
      <trkpt lat="44.46861" lon="5.69818">
        <ele>773.4</ele>
        <time>2023-09-28T07:24:53Z</time>
      </trkpt>
      <trkpt lat="44.46861" lon="5.69807">
        <ele>773.3</ele>
        <time>2023-09-28T07:24:54Z</time>
      </trkpt>
      <trkpt lat="44.46861" lon="5.69795">
        <ele>773.3</ele>
        <time>2023-09-28T07:24:55Z</time>
      </trkpt>
      <trkpt lat="44.46862" lon="5.69785">
        <ele>773.4</ele>
        <time>2023-09-28T07:24:56Z</time>
      </trkpt>
      <trkpt lat="44.46865" lon="5.69777">
        <ele>773.5</ele>
        <time>2023-09-28T07:24:57Z</time>
      </trkpt>
      <trkpt lat="44.46872" lon="5.69773">
        <ele>773.6</ele>
        <time>2023-09-28T07:24:58Z</time>
      </trkpt>
      <trkpt lat="44.46879" lon="5.69773">
        <ele>773.6</ele>
        <time>2023-09-28T07:24:59Z</time>
      </trkpt>
      <trkpt lat="44.46885" lon="5.69778">
        <ele>773.7</ele>
        <time>2023-09-28T07:25:00Z</time>
      </trkpt>
      <trkpt lat="44.46889" lon="5.69783">
        <ele>773.8</ele>
        <time>2023-09-28T07:25:01Z</time>
      </trkpt>
      <trkpt lat="44.46893" lon="5.69788">
        <ele>774</ele>
        <time>2023-09-28T07:25:02Z</time>
      </trkpt>
      <trkpt lat="44.46897" lon="5.69794">
        <ele>774.2</ele>
        <time>2023-09-28T07:25:03Z</time>
      </trkpt>
      <trkpt lat="44.46901" lon="5.698">
        <ele>774.4</ele>
        <time>2023-09-28T07:25:04Z</time>
      </trkpt>
      <trkpt lat="44.46904" lon="5.69806">
        <ele>774.7</ele>
        <time>2023-09-28T07:25:05Z</time>
      </trkpt>
      <trkpt lat="44.46907" lon="5.69811">
        <ele>775</ele>
        <time>2023-09-28T07:25:06Z</time>
      </trkpt>
      <trkpt lat="44.4691" lon="5.69816">
        <ele>775.3</ele>
        <time>2023-09-28T07:25:07Z</time>
      </trkpt>
      <trkpt lat="44.46913" lon="5.69821">
        <ele>775.6</ele>
        <time>2023-09-28T07:25:08Z</time>
      </trkpt>
      <trkpt lat="44.46915" lon="5.69825">
        <ele>775.8</ele>
        <time>2023-09-28T07:25:09Z</time>
      </trkpt>
      <trkpt lat="44.46917" lon="5.69828">
        <ele>776.1</ele>
        <time>2023-09-28T07:25:10Z</time>
      </trkpt>
      <trkpt lat="44.4692" lon="5.69832">
        <ele>776.3</ele>
        <time>2023-09-28T07:25:11Z</time>
      </trkpt>
      <trkpt lat="44.46922" lon="5.69836">
        <ele>776.6</ele>
        <time>2023-09-28T07:25:12Z</time>
      </trkpt>
      <trkpt lat="44.46925" lon="5.69839">
        <ele>776.8</ele>
        <time>2023-09-28T07:25:13Z</time>
      </trkpt>
      <trkpt lat="44.46928" lon="5.69841">
        <ele>777</ele>
        <time>2023-09-28T07:25:14Z</time>
      </trkpt>
      <trkpt lat="44.46931" lon="5.69843">
        <ele>777.1</ele>
        <time>2023-09-28T07:25:15Z</time>
      </trkpt>
      <trkpt lat="44.46936" lon="5.69845">
        <ele>777.4</ele>
        <time>2023-09-28T07:25:17Z</time>
      </trkpt>
      <trkpt lat="44.46939" lon="5.69846">
        <ele>777.5</ele>
        <time>2023-09-28T07:25:18Z</time>
      </trkpt>
      <trkpt lat="44.46943" lon="5.69848">
        <ele>777.7</ele>
        <time>2023-09-28T07:25:19Z</time>
      </trkpt>
      <trkpt lat="44.46947" lon="5.69849">
        <ele>777.8</ele>
        <time>2023-09-28T07:25:20Z</time>
      </trkpt>
      <trkpt lat="44.46951" lon="5.6985">
        <ele>777.9</ele>
        <time>2023-09-28T07:25:21Z</time>
      </trkpt>
      <trkpt lat="44.46956" lon="5.69851">
        <ele>778</ele>
        <time>2023-09-28T07:25:22Z</time>
      </trkpt>
      <trkpt lat="44.46961" lon="5.69851">
        <ele>778</ele>
        <time>2023-09-28T07:25:23Z</time>
      </trkpt>
      <trkpt lat="44.46966" lon="5.69853">
        <ele>778.1</ele>
        <time>2023-09-28T07:25:25Z</time>
      </trkpt>
      <trkpt lat="44.46973" lon="5.69854">
        <ele>778.1</ele>
        <time>2023-09-28T07:25:26Z</time>
      </trkpt>
      <trkpt lat="44.46978" lon="5.69856">
        <ele>778.2</ele>
        <time>2023-09-28T07:25:27Z</time>
      </trkpt>
      <trkpt lat="44.46982" lon="5.69856">
        <ele>778.2</ele>
        <time>2023-09-28T07:25:28Z</time>
      </trkpt>
      <trkpt lat="44.46987" lon="5.69857">
        <ele>778.2</ele>
        <time>2023-09-28T07:25:29Z</time>
      </trkpt>
      <trkpt lat="44.46992" lon="5.69858">
        <ele>778.3</ele>
        <time>2023-09-28T07:25:30Z</time>
      </trkpt>
      <trkpt lat="44.46997" lon="5.69859">
        <ele>778.3</ele>
        <time>2023-09-28T07:25:31Z</time>
      </trkpt>
      <trkpt lat="44.47002" lon="5.6986">
        <ele>778.3</ele>
        <time>2023-09-28T07:25:32Z</time>
      </trkpt>
      <trkpt lat="44.47007" lon="5.6986">
        <ele>778.4</ele>
        <time>2023-09-28T07:25:33Z</time>
      </trkpt>
      <trkpt lat="44.47012" lon="5.69861">
        <ele>778.4</ele>
        <time>2023-09-28T07:25:34Z</time>
      </trkpt>
      <trkpt lat="44.47016" lon="5.69861">
        <ele>778.4</ele>
        <time>2023-09-28T07:25:35Z</time>
      </trkpt>
      <trkpt lat="44.47021" lon="5.69862">
        <ele>778.5</ele>
        <time>2023-09-28T07:25:36Z</time>
      </trkpt>
      <trkpt lat="44.47026" lon="5.69862">
        <ele>778.5</ele>
        <time>2023-09-28T07:25:37Z</time>
      </trkpt>
      <trkpt lat="44.47031" lon="5.69863">
        <ele>778.5</ele>
        <time>2023-09-28T07:25:38Z</time>
      </trkpt>
      <trkpt lat="44.47036" lon="5.69863">
        <ele>778.5</ele>
        <time>2023-09-28T07:25:39Z</time>
      </trkpt>
      <trkpt lat="44.47041" lon="5.69864">
        <ele>778.6</ele>
        <time>2023-09-28T07:25:40Z</time>
      </trkpt>
      <trkpt lat="44.47046" lon="5.69864">
        <ele>778.6</ele>
        <time>2023-09-28T07:25:41Z</time>
      </trkpt>
      <trkpt lat="44.47051" lon="5.69865">
        <ele>778.6</ele>
        <time>2023-09-28T07:25:42Z</time>
      </trkpt>
      <trkpt lat="44.47056" lon="5.69866">
        <ele>778.6</ele>
        <time>2023-09-28T07:25:43Z</time>
      </trkpt>
      <trkpt lat="44.47061" lon="5.69866">
        <ele>778.7</ele>
        <time>2023-09-28T07:25:44Z</time>
      </trkpt>
      <trkpt lat="44.47066" lon="5.69866">
        <ele>778.7</ele>
        <time>2023-09-28T07:25:45Z</time>
      </trkpt>
      <trkpt lat="44.47071" lon="5.69867">
        <ele>778.7</ele>
        <time>2023-09-28T07:25:46Z</time>
      </trkpt>
      <trkpt lat="44.47075" lon="5.69869">
        <ele>778.8</ele>
        <time>2023-09-28T07:25:47Z</time>
      </trkpt>
      <trkpt lat="44.4708" lon="5.6987">
        <ele>778.9</ele>
        <time>2023-09-28T07:25:48Z</time>
      </trkpt>
      <trkpt lat="44.47085" lon="5.69872">
        <ele>778.9</ele>
        <time>2023-09-28T07:25:49Z</time>
      </trkpt>
      <trkpt lat="44.47089" lon="5.69875">
        <ele>778.9</ele>
        <time>2023-09-28T07:25:50Z</time>
      </trkpt>
      <trkpt lat="44.47094" lon="5.69877">
        <ele>779</ele>
        <time>2023-09-28T07:25:51Z</time>
      </trkpt>
      <trkpt lat="44.47098" lon="5.69879">
        <ele>779</ele>
        <time>2023-09-28T07:25:52Z</time>
      </trkpt>
      <trkpt lat="44.47103" lon="5.6988">
        <ele>779</ele>
        <time>2023-09-28T07:25:53Z</time>
      </trkpt>
      <trkpt lat="44.47108" lon="5.69881">
        <ele>779</ele>
        <time>2023-09-28T07:25:54Z</time>
      </trkpt>
      <trkpt lat="44.47112" lon="5.69883">
        <ele>779</ele>
        <time>2023-09-28T07:25:55Z</time>
      </trkpt>
      <trkpt lat="44.47117" lon="5.69885">
        <ele>779</ele>
        <time>2023-09-28T07:25:56Z</time>
      </trkpt>
      <trkpt lat="44.47121" lon="5.69887">
        <ele>779</ele>
        <time>2023-09-28T07:25:57Z</time>
      </trkpt>
      <trkpt lat="44.47126" lon="5.69889">
        <ele>779</ele>
        <time>2023-09-28T07:25:58Z</time>
      </trkpt>
      <trkpt lat="44.47131" lon="5.69891">
        <ele>779</ele>
        <time>2023-09-28T07:25:59Z</time>
      </trkpt>
      <trkpt lat="44.47136" lon="5.69892">
        <ele>779</ele>
        <time>2023-09-28T07:26:00Z</time>
      </trkpt>
      <trkpt lat="44.47141" lon="5.69894">
        <ele>779</ele>
        <time>2023-09-28T07:26:01Z</time>
      </trkpt>
      <trkpt lat="44.47145" lon="5.69896">
        <ele>778.9</ele>
        <time>2023-09-28T07:26:02Z</time>
      </trkpt>
      <trkpt lat="44.4715" lon="5.69898">
        <ele>778.8</ele>
        <time>2023-09-28T07:26:03Z</time>
      </trkpt>
      <trkpt lat="44.47155" lon="5.69901">
        <ele>778.7</ele>
        <time>2023-09-28T07:26:04Z</time>
      </trkpt>
      <trkpt lat="44.4716" lon="5.69904">
        <ele>778.5</ele>
        <time>2023-09-28T07:26:05Z</time>
      </trkpt>
      <trkpt lat="44.47165" lon="5.69907">
        <ele>778.3</ele>
        <time>2023-09-28T07:26:06Z</time>
      </trkpt>
      <trkpt lat="44.47171" lon="5.6991">
        <ele>778</ele>
        <time>2023-09-28T07:26:07Z</time>
      </trkpt>
      <trkpt lat="44.47177" lon="5.69913">
        <ele>777.6</ele>
        <time>2023-09-28T07:26:08Z</time>
      </trkpt>
      <trkpt lat="44.47183" lon="5.69917">
        <ele>777.1</ele>
        <time>2023-09-28T07:26:09Z</time>
      </trkpt>
      <trkpt lat="44.47189" lon="5.69921">
        <ele>776.5</ele>
        <time>2023-09-28T07:26:10Z</time>
      </trkpt>
      <trkpt lat="44.47196" lon="5.69925">
        <ele>775.9</ele>
        <time>2023-09-28T07:26:11Z</time>
      </trkpt>
      <trkpt lat="44.47203" lon="5.69929">
        <ele>775.3</ele>
        <time>2023-09-28T07:26:12Z</time>
      </trkpt>
      <trkpt lat="44.4721" lon="5.69933">
        <ele>774.7</ele>
        <time>2023-09-28T07:26:13Z</time>
      </trkpt>
      <trkpt lat="44.47218" lon="5.69938">
        <ele>774.1</ele>
        <time>2023-09-28T07:26:14Z</time>
      </trkpt>
      <trkpt lat="44.47226" lon="5.69943">
        <ele>773.7</ele>
        <time>2023-09-28T07:26:15Z</time>
      </trkpt>
      <trkpt lat="44.47234" lon="5.69947">
        <ele>773.5</ele>
        <time>2023-09-28T07:26:16Z</time>
      </trkpt>
      <trkpt lat="44.47242" lon="5.69952">
        <ele>773.5</ele>
        <time>2023-09-28T07:26:17Z</time>
      </trkpt>
      <trkpt lat="44.47249" lon="5.69957">
        <ele>773.7</ele>
        <time>2023-09-28T07:26:18Z</time>
      </trkpt>
      <trkpt lat="44.47255" lon="5.69962">
        <ele>773.9</ele>
        <time>2023-09-28T07:26:19Z</time>
      </trkpt>
      <trkpt lat="44.47261" lon="5.69967">
        <ele>774.1</ele>
        <time>2023-09-28T07:26:20Z</time>
      </trkpt>
      <trkpt lat="44.47267" lon="5.69972">
        <ele>774.3</ele>
        <time>2023-09-28T07:26:21Z</time>
      </trkpt>
      <trkpt lat="44.47272" lon="5.69977">
        <ele>774.5</ele>
        <time>2023-09-28T07:26:22Z</time>
      </trkpt>
      <trkpt lat="44.47276" lon="5.69981">
        <ele>774.7</ele>
        <time>2023-09-28T07:26:23Z</time>
      </trkpt>
      <trkpt lat="44.4728" lon="5.69986">
        <ele>774.8</ele>
        <time>2023-09-28T07:26:24Z</time>
      </trkpt>
      <trkpt lat="44.47284" lon="5.6999">
        <ele>774.9</ele>
        <time>2023-09-28T07:26:25Z</time>
      </trkpt>
      <trkpt lat="44.47288" lon="5.69994">
        <ele>775</ele>
        <time>2023-09-28T07:26:26Z</time>
      </trkpt>
      <trkpt lat="44.47292" lon="5.69999">
        <ele>775</ele>
        <time>2023-09-28T07:26:27Z</time>
      </trkpt>
      <trkpt lat="44.47296" lon="5.70003">
        <ele>774.9</ele>
        <time>2023-09-28T07:26:28Z</time>
      </trkpt>
      <trkpt lat="44.473" lon="5.70008">
        <ele>774.8</ele>
        <time>2023-09-28T07:26:29Z</time>
      </trkpt>
      <trkpt lat="44.47305" lon="5.70012">
        <ele>774.7</ele>
        <time>2023-09-28T07:26:30Z</time>
      </trkpt>
      <trkpt lat="44.47309" lon="5.70017">
        <ele>774.5</ele>
        <time>2023-09-28T07:26:31Z</time>
      </trkpt>
      <trkpt lat="44.47314" lon="5.70021">
        <ele>774.4</ele>
        <time>2023-09-28T07:26:32Z</time>
      </trkpt>
      <trkpt lat="44.47319" lon="5.70026">
        <ele>774.2</ele>
        <time>2023-09-28T07:26:33Z</time>
      </trkpt>
      <trkpt lat="44.47324" lon="5.7003">
        <ele>773.9</ele>
        <time>2023-09-28T07:26:34Z</time>
      </trkpt>
      <trkpt lat="44.4733" lon="5.70034">
        <ele>773.7</ele>
        <time>2023-09-28T07:26:35Z</time>
      </trkpt>
      <trkpt lat="44.47335" lon="5.70039">
        <ele>773.5</ele>
        <time>2023-09-28T07:26:36Z</time>
      </trkpt>
      <trkpt lat="44.47341" lon="5.70043">
        <ele>773.2</ele>
        <time>2023-09-28T07:26:37Z</time>
      </trkpt>
      <trkpt lat="44.47347" lon="5.70047">
        <ele>773</ele>
        <time>2023-09-28T07:26:38Z</time>
      </trkpt>
      <trkpt lat="44.47353" lon="5.70052">
        <ele>772.7</ele>
        <time>2023-09-28T07:26:39Z</time>
      </trkpt>
      <trkpt lat="44.47359" lon="5.70056">
        <ele>772.5</ele>
        <time>2023-09-28T07:26:40Z</time>
      </trkpt>
      <trkpt lat="44.47365" lon="5.7006">
        <ele>772.3</ele>
        <time>2023-09-28T07:26:41Z</time>
      </trkpt>
      <trkpt lat="44.47372" lon="5.70065">
        <ele>772</ele>
        <time>2023-09-28T07:26:42Z</time>
      </trkpt>
      <trkpt lat="44.47378" lon="5.70069">
        <ele>771.7</ele>
        <time>2023-09-28T07:26:43Z</time>
      </trkpt>
      <trkpt lat="44.47384" lon="5.70075">
        <ele>771.4</ele>
        <time>2023-09-28T07:26:44Z</time>
      </trkpt>
      <trkpt lat="44.4739" lon="5.7008">
        <ele>770.9</ele>
        <time>2023-09-28T07:26:45Z</time>
      </trkpt>
      <trkpt lat="44.47397" lon="5.70085">
        <ele>770.5</ele>
        <time>2023-09-28T07:26:46Z</time>
      </trkpt>
      <trkpt lat="44.47404" lon="5.7009">
        <ele>769.9</ele>
        <time>2023-09-28T07:26:47Z</time>
      </trkpt>
      <trkpt lat="44.47411" lon="5.70096">
        <ele>769.4</ele>
        <time>2023-09-28T07:26:48Z</time>
      </trkpt>
      <trkpt lat="44.47418" lon="5.701">
        <ele>768.8</ele>
        <time>2023-09-28T07:26:49Z</time>
      </trkpt>
      <trkpt lat="44.47425" lon="5.70103">
        <ele>768.3</ele>
        <time>2023-09-28T07:26:50Z</time>
      </trkpt>
      <trkpt lat="44.47433" lon="5.70106">
        <ele>767.8</ele>
        <time>2023-09-28T07:26:51Z</time>
      </trkpt>
      <trkpt lat="44.4744" lon="5.7011">
        <ele>767.4</ele>
        <time>2023-09-28T07:26:52Z</time>
      </trkpt>
      <trkpt lat="44.47446" lon="5.70114">
        <ele>767</ele>
        <time>2023-09-28T07:26:53Z</time>
      </trkpt>
      <trkpt lat="44.47451" lon="5.70118">
        <ele>766.6</ele>
        <time>2023-09-28T07:26:54Z</time>
      </trkpt>
      <trkpt lat="44.47456" lon="5.70125">
        <ele>766.3</ele>
        <time>2023-09-28T07:26:55Z</time>
      </trkpt>
      <trkpt lat="44.47461" lon="5.70131">
        <ele>766</ele>
        <time>2023-09-28T07:26:56Z</time>
      </trkpt>
      <trkpt lat="44.47464" lon="5.70139">
        <ele>765.7</ele>
        <time>2023-09-28T07:26:57Z</time>
      </trkpt>
      <trkpt lat="44.47466" lon="5.70146">
        <ele>765.4</ele>
        <time>2023-09-28T07:26:58Z</time>
      </trkpt>
      <trkpt lat="44.47468" lon="5.70154">
        <ele>765</ele>
        <time>2023-09-28T07:26:59Z</time>
      </trkpt>
      <trkpt lat="44.47469" lon="5.70162">
        <ele>764.5</ele>
        <time>2023-09-28T07:27:00Z</time>
      </trkpt>
      <trkpt lat="44.47469" lon="5.7017">
        <ele>764</ele>
        <time>2023-09-28T07:27:01Z</time>
      </trkpt>
      <trkpt lat="44.47468" lon="5.70179">
        <ele>763.5</ele>
        <time>2023-09-28T07:27:02Z</time>
      </trkpt>
      <trkpt lat="44.47467" lon="5.70188">
        <ele>762.9</ele>
        <time>2023-09-28T07:27:03Z</time>
      </trkpt>
      <trkpt lat="44.47467" lon="5.70197">
        <ele>762.4</ele>
        <time>2023-09-28T07:27:04Z</time>
      </trkpt>
      <trkpt lat="44.47467" lon="5.70204">
        <ele>762</ele>
        <time>2023-09-28T07:27:05Z</time>
      </trkpt>
      <trkpt lat="44.47467" lon="5.70212">
        <ele>761.5</ele>
        <time>2023-09-28T07:27:06Z</time>
      </trkpt>
      <trkpt lat="44.47467" lon="5.7022">
        <ele>761</ele>
        <time>2023-09-28T07:27:07Z</time>
      </trkpt>
      <trkpt lat="44.47468" lon="5.7023">
        <ele>760.5</ele>
        <time>2023-09-28T07:27:08Z</time>
      </trkpt>
      <trkpt lat="44.4747" lon="5.70239">
        <ele>760</ele>
        <time>2023-09-28T07:27:09Z</time>
      </trkpt>
      <trkpt lat="44.47473" lon="5.70249">
        <ele>759.5</ele>
        <time>2023-09-28T07:27:10Z</time>
      </trkpt>
      <trkpt lat="44.47477" lon="5.70258">
        <ele>758.9</ele>
        <time>2023-09-28T07:27:11Z</time>
      </trkpt>
      <trkpt lat="44.47481" lon="5.70267">
        <ele>758.2</ele>
        <time>2023-09-28T07:27:12Z</time>
      </trkpt>
      <trkpt lat="44.47485" lon="5.70278">
        <ele>757.5</ele>
        <time>2023-09-28T07:27:13Z</time>
      </trkpt>
      <trkpt lat="44.47489" lon="5.70288">
        <ele>756.8</ele>
        <time>2023-09-28T07:27:14Z</time>
      </trkpt>
      <trkpt lat="44.47493" lon="5.70298">
        <ele>756.1</ele>
        <time>2023-09-28T07:27:15Z</time>
      </trkpt>
      <trkpt lat="44.47496" lon="5.70307">
        <ele>755.5</ele>
        <time>2023-09-28T07:27:16Z</time>
      </trkpt>
      <trkpt lat="44.47499" lon="5.70316">
        <ele>754.9</ele>
        <time>2023-09-28T07:27:17Z</time>
      </trkpt>
      <trkpt lat="44.47503" lon="5.70324">
        <ele>754.2</ele>
        <time>2023-09-28T07:27:18Z</time>
      </trkpt>
      <trkpt lat="44.47506" lon="5.70334">
        <ele>753.6</ele>
        <time>2023-09-28T07:27:19Z</time>
      </trkpt>
      <trkpt lat="44.4751" lon="5.70343">
        <ele>752.9</ele>
        <time>2023-09-28T07:27:20Z</time>
      </trkpt>
      <trkpt lat="44.47514" lon="5.70354">
        <ele>752.3</ele>
        <time>2023-09-28T07:27:21Z</time>
      </trkpt>
      <trkpt lat="44.47518" lon="5.70364">
        <ele>751.6</ele>
        <time>2023-09-28T07:27:22Z</time>
      </trkpt>
      <trkpt lat="44.47522" lon="5.70375">
        <ele>751.1</ele>
        <time>2023-09-28T07:27:23Z</time>
      </trkpt>
      <trkpt lat="44.47526" lon="5.70385">
        <ele>750.5</ele>
        <time>2023-09-28T07:27:24Z</time>
      </trkpt>
      <trkpt lat="44.47531" lon="5.70396">
        <ele>750.1</ele>
        <time>2023-09-28T07:27:25Z</time>
      </trkpt>
      <trkpt lat="44.47535" lon="5.70406">
        <ele>749.7</ele>
        <time>2023-09-28T07:27:26Z</time>
      </trkpt>
      <trkpt lat="44.47539" lon="5.70416">
        <ele>749.3</ele>
        <time>2023-09-28T07:27:27Z</time>
      </trkpt>
      <trkpt lat="44.47543" lon="5.70427">
        <ele>748.9</ele>
        <time>2023-09-28T07:27:28Z</time>
      </trkpt>
      <trkpt lat="44.47547" lon="5.70438">
        <ele>748.5</ele>
        <time>2023-09-28T07:27:29Z</time>
      </trkpt>
      <trkpt lat="44.4755" lon="5.70448">
        <ele>748.2</ele>
        <time>2023-09-28T07:27:30Z</time>
      </trkpt>
      <trkpt lat="44.47553" lon="5.70458">
        <ele>747.8</ele>
        <time>2023-09-28T07:27:31Z</time>
      </trkpt>
      <trkpt lat="44.47556" lon="5.70468">
        <ele>747.4</ele>
        <time>2023-09-28T07:27:32Z</time>
      </trkpt>
      <trkpt lat="44.47559" lon="5.70478">
        <ele>746.9</ele>
        <time>2023-09-28T07:27:33Z</time>
      </trkpt>
      <trkpt lat="44.47562" lon="5.70488">
        <ele>746.4</ele>
        <time>2023-09-28T07:27:34Z</time>
      </trkpt>
      <trkpt lat="44.47565" lon="5.70498">
        <ele>745.8</ele>
        <time>2023-09-28T07:27:35Z</time>
      </trkpt>
      <trkpt lat="44.47567" lon="5.70509">
        <ele>745.2</ele>
        <time>2023-09-28T07:27:36Z</time>
      </trkpt>
      <trkpt lat="44.4757" lon="5.70519">
        <ele>744.5</ele>
        <time>2023-09-28T07:27:37Z</time>
      </trkpt>
      <trkpt lat="44.47573" lon="5.70531">
        <ele>743.8</ele>
        <time>2023-09-28T07:27:38Z</time>
      </trkpt>
      <trkpt lat="44.47576" lon="5.70542">
        <ele>743.1</ele>
        <time>2023-09-28T07:27:39Z</time>
      </trkpt>
      <trkpt lat="44.47579" lon="5.70554">
        <ele>742.4</ele>
        <time>2023-09-28T07:27:40Z</time>
      </trkpt>
      <trkpt lat="44.47583" lon="5.70565">
        <ele>741.7</ele>
        <time>2023-09-28T07:27:41Z</time>
      </trkpt>
      <trkpt lat="44.47586" lon="5.70577">
        <ele>741.1</ele>
        <time>2023-09-28T07:27:42Z</time>
      </trkpt>
      <trkpt lat="44.47589" lon="5.70586">
        <ele>740.6</ele>
        <time>2023-09-28T07:27:43Z</time>
      </trkpt>
      <trkpt lat="44.4759" lon="5.70592">
        <ele>740.3</ele>
        <time>2023-09-28T07:27:44Z</time>
      </trkpt>
      <trkpt lat="44.47591" lon="5.70596">
        <ele>740.1</ele>
        <time>2023-09-28T07:27:45Z</time>
      </trkpt>
      <trkpt lat="44.47592" lon="5.70598">
        <ele>739.9</ele>
        <time>2023-09-28T07:27:46Z</time>
      </trkpt>
      <trkpt lat="44.47592" lon="5.70599">
        <ele>739.9</ele>
        <time>2023-09-28T07:27:47Z</time>
      </trkpt>
      <trkpt lat="44.47593" lon="5.70602">
        <ele>739.7</ele>
        <time>2023-09-28T07:27:48Z</time>
      </trkpt>
      <trkpt lat="44.47593" lon="5.70603">
        <ele>739.7</ele>
        <time>2023-09-28T07:27:49Z</time>
      </trkpt>
      <trkpt lat="44.47594" lon="5.70604">
        <ele>739.6</ele>
        <time>2023-09-28T07:27:50Z</time>
      </trkpt>
      <trkpt lat="44.47595" lon="5.70608">
        <ele>739.4</ele>
        <time>2023-09-28T07:27:51Z</time>
      </trkpt>
      <trkpt lat="44.47595" lon="5.70609">
        <ele>739.3</ele>
        <time>2023-09-28T07:27:52Z</time>
      </trkpt>
      <trkpt lat="44.47597" lon="5.70615">
        <ele>739</ele>
        <time>2023-09-28T07:27:54Z</time>
      </trkpt>
      <trkpt lat="44.47598" lon="5.70621">
        <ele>738.7</ele>
        <time>2023-09-28T07:27:55Z</time>
      </trkpt>
      <trkpt lat="44.47599" lon="5.70626">
        <ele>738.5</ele>
        <time>2023-09-28T07:27:56Z</time>
      </trkpt>
      <trkpt lat="44.47601" lon="5.70632">
        <ele>738.2</ele>
        <time>2023-09-28T07:27:58Z</time>
      </trkpt>
      <trkpt lat="44.47602" lon="5.70636">
        <ele>738</ele>
        <time>2023-09-28T07:27:59Z</time>
      </trkpt>
      <trkpt lat="44.47603" lon="5.70643">
        <ele>737.7</ele>
        <time>2023-09-28T07:28:00Z</time>
      </trkpt>
      <trkpt lat="44.47605" lon="5.70649">
        <ele>737.4</ele>
        <time>2023-09-28T07:28:02Z</time>
      </trkpt>
      <trkpt lat="44.47606" lon="5.70655">
        <ele>737.2</ele>
        <time>2023-09-28T07:28:03Z</time>
      </trkpt>
      <trkpt lat="44.47608" lon="5.70666">
        <ele>736.7</ele>
        <time>2023-09-28T07:28:04Z</time>
      </trkpt>
      <trkpt lat="44.47609" lon="5.70672">
        <ele>736.4</ele>
        <time>2023-09-28T07:28:05Z</time>
      </trkpt>
      <trkpt lat="44.4761" lon="5.70679">
        <ele>736.2</ele>
        <time>2023-09-28T07:28:06Z</time>
      </trkpt>
      <trkpt lat="44.47612" lon="5.70687">
        <ele>735.8</ele>
        <time>2023-09-28T07:28:07Z</time>
      </trkpt>
      <trkpt lat="44.47613" lon="5.70695">
        <ele>735.5</ele>
        <time>2023-09-28T07:28:08Z</time>
      </trkpt>
      <trkpt lat="44.47615" lon="5.70703">
        <ele>735.1</ele>
        <time>2023-09-28T07:28:09Z</time>
      </trkpt>
      <trkpt lat="44.47617" lon="5.70711">
        <ele>734.7</ele>
        <time>2023-09-28T07:28:10Z</time>
      </trkpt>
      <trkpt lat="44.47619" lon="5.7072">
        <ele>734.3</ele>
        <time>2023-09-28T07:28:11Z</time>
      </trkpt>
      <trkpt lat="44.47621" lon="5.7073">
        <ele>733.9</ele>
        <time>2023-09-28T07:28:12Z</time>
      </trkpt>
      <trkpt lat="44.47623" lon="5.70739">
        <ele>733.5</ele>
        <time>2023-09-28T07:28:13Z</time>
      </trkpt>
      <trkpt lat="44.47625" lon="5.70749">
        <ele>733</ele>
        <time>2023-09-28T07:28:14Z</time>
      </trkpt>
      <trkpt lat="44.47628" lon="5.7076">
        <ele>732.5</ele>
        <time>2023-09-28T07:28:15Z</time>
      </trkpt>
      <trkpt lat="44.4763" lon="5.70771">
        <ele>731.9</ele>
        <time>2023-09-28T07:28:16Z</time>
      </trkpt>
      <trkpt lat="44.47633" lon="5.70782">
        <ele>731.4</ele>
        <time>2023-09-28T07:28:17Z</time>
      </trkpt>
      <trkpt lat="44.47635" lon="5.70794">
        <ele>730.8</ele>
        <time>2023-09-28T07:28:18Z</time>
      </trkpt>
      <trkpt lat="44.47638" lon="5.70806">
        <ele>730.4</ele>
        <time>2023-09-28T07:28:19Z</time>
      </trkpt>
      <trkpt lat="44.4764" lon="5.70818">
        <ele>729.9</ele>
        <time>2023-09-28T07:28:20Z</time>
      </trkpt>
      <trkpt lat="44.47643" lon="5.7083">
        <ele>729.4</ele>
        <time>2023-09-28T07:28:21Z</time>
      </trkpt>
      <trkpt lat="44.47645" lon="5.70842">
        <ele>728.9</ele>
        <time>2023-09-28T07:28:22Z</time>
      </trkpt>
      <trkpt lat="44.47648" lon="5.70855">
        <ele>728.4</ele>
        <time>2023-09-28T07:28:23Z</time>
      </trkpt>
      <trkpt lat="44.47651" lon="5.70867">
        <ele>727.9</ele>
        <time>2023-09-28T07:28:24Z</time>
      </trkpt>
      <trkpt lat="44.47654" lon="5.7088">
        <ele>727.3</ele>
        <time>2023-09-28T07:28:25Z</time>
      </trkpt>
      <trkpt lat="44.47657" lon="5.70893">
        <ele>726.8</ele>
        <time>2023-09-28T07:28:26Z</time>
      </trkpt>
      <trkpt lat="44.47662" lon="5.70905">
        <ele>726.3</ele>
        <time>2023-09-28T07:28:27Z</time>
      </trkpt>
      <trkpt lat="44.47667" lon="5.70916">
        <ele>725.7</ele>
        <time>2023-09-28T07:28:28Z</time>
      </trkpt>
      <trkpt lat="44.47672" lon="5.70928">
        <ele>725.1</ele>
        <time>2023-09-28T07:28:29Z</time>
      </trkpt>
      <trkpt lat="44.47677" lon="5.7094">
        <ele>724.6</ele>
        <time>2023-09-28T07:28:30Z</time>
      </trkpt>
      <trkpt lat="44.47682" lon="5.7095">
        <ele>724</ele>
        <time>2023-09-28T07:28:31Z</time>
      </trkpt>
      <trkpt lat="44.47687" lon="5.70962">
        <ele>723.5</ele>
        <time>2023-09-28T07:28:32Z</time>
      </trkpt>
      <trkpt lat="44.47693" lon="5.70973">
        <ele>722.9</ele>
        <time>2023-09-28T07:28:33Z</time>
      </trkpt>
      <trkpt lat="44.47697" lon="5.70985">
        <ele>722.3</ele>
        <time>2023-09-28T07:28:34Z</time>
      </trkpt>
      <trkpt lat="44.47702" lon="5.70998">
        <ele>721.8</ele>
        <time>2023-09-28T07:28:35Z</time>
      </trkpt>
      <trkpt lat="44.47708" lon="5.7101">
        <ele>721.2</ele>
        <time>2023-09-28T07:28:36Z</time>
      </trkpt>
      <trkpt lat="44.47713" lon="5.71022">
        <ele>720.7</ele>
        <time>2023-09-28T07:28:37Z</time>
      </trkpt>
      <trkpt lat="44.47718" lon="5.71035">
        <ele>720.2</ele>
        <time>2023-09-28T07:28:38Z</time>
      </trkpt>
      <trkpt lat="44.47723" lon="5.71047">
        <ele>719.7</ele>
        <time>2023-09-28T07:28:39Z</time>
      </trkpt>
      <trkpt lat="44.47729" lon="5.71059">
        <ele>719.3</ele>
        <time>2023-09-28T07:28:40Z</time>
      </trkpt>
      <trkpt lat="44.47734" lon="5.71072">
        <ele>718.9</ele>
        <time>2023-09-28T07:28:41Z</time>
      </trkpt>
      <trkpt lat="44.47739" lon="5.71084">
        <ele>718.6</ele>
        <time>2023-09-28T07:28:42Z</time>
      </trkpt>
      <trkpt lat="44.47744" lon="5.71095">
        <ele>718.3</ele>
        <time>2023-09-28T07:28:43Z</time>
      </trkpt>
      <trkpt lat="44.47749" lon="5.71107">
        <ele>718.1</ele>
        <time>2023-09-28T07:28:44Z</time>
      </trkpt>
      <trkpt lat="44.47753" lon="5.71119">
        <ele>717.9</ele>
        <time>2023-09-28T07:28:45Z</time>
      </trkpt>
      <trkpt lat="44.47756" lon="5.71131">
        <ele>717.8</ele>
        <time>2023-09-28T07:28:46Z</time>
      </trkpt>
      <trkpt lat="44.4776" lon="5.71143">
        <ele>717.8</ele>
        <time>2023-09-28T07:28:47Z</time>
      </trkpt>
      <trkpt lat="44.47763" lon="5.71155">
        <ele>717.7</ele>
        <time>2023-09-28T07:28:48Z</time>
      </trkpt>
      <trkpt lat="44.47766" lon="5.71167">
        <ele>717.8</ele>
        <time>2023-09-28T07:28:49Z</time>
      </trkpt>
      <trkpt lat="44.47769" lon="5.71178">
        <ele>717.8</ele>
        <time>2023-09-28T07:28:50Z</time>
      </trkpt>
      <trkpt lat="44.47772" lon="5.7119">
        <ele>717.9</ele>
        <time>2023-09-28T07:28:51Z</time>
      </trkpt>
      <trkpt lat="44.47775" lon="5.71201">
        <ele>717.9</ele>
        <time>2023-09-28T07:28:52Z</time>
      </trkpt>
      <trkpt lat="44.47777" lon="5.71212">
        <ele>718</ele>
        <time>2023-09-28T07:28:53Z</time>
      </trkpt>
      <trkpt lat="44.4778" lon="5.71222">
        <ele>718.1</ele>
        <time>2023-09-28T07:28:54Z</time>
      </trkpt>
      <trkpt lat="44.47783" lon="5.71233">
        <ele>718.3</ele>
        <time>2023-09-28T07:28:55Z</time>
      </trkpt>
      <trkpt lat="44.47785" lon="5.71243">
        <ele>718.5</ele>
        <time>2023-09-28T07:28:56Z</time>
      </trkpt>
      <trkpt lat="44.47788" lon="5.71253">
        <ele>718.7</ele>
        <time>2023-09-28T07:28:57Z</time>
      </trkpt>
      <trkpt lat="44.4779" lon="5.71262">
        <ele>718.8</ele>
        <time>2023-09-28T07:28:58Z</time>
      </trkpt>
      <trkpt lat="44.47792" lon="5.7127">
        <ele>718.8</ele>
        <time>2023-09-28T07:28:59Z</time>
      </trkpt>
      <trkpt lat="44.47794" lon="5.71278">
        <ele>718.8</ele>
        <time>2023-09-28T07:29:00Z</time>
      </trkpt>
      <trkpt lat="44.47796" lon="5.71285">
        <ele>718.7</ele>
        <time>2023-09-28T07:29:01Z</time>
      </trkpt>
      <trkpt lat="44.47798" lon="5.71292">
        <ele>718.6</ele>
        <time>2023-09-28T07:29:02Z</time>
      </trkpt>
      <trkpt lat="44.47799" lon="5.71299">
        <ele>718.4</ele>
        <time>2023-09-28T07:29:03Z</time>
      </trkpt>
      <trkpt lat="44.47801" lon="5.71306">
        <ele>718.2</ele>
        <time>2023-09-28T07:29:04Z</time>
      </trkpt>
      <trkpt lat="44.47804" lon="5.71314">
        <ele>718</ele>
        <time>2023-09-28T07:29:05Z</time>
      </trkpt>
      <trkpt lat="44.47806" lon="5.71322">
        <ele>717.7</ele>
        <time>2023-09-28T07:29:06Z</time>
      </trkpt>
      <trkpt lat="44.47808" lon="5.7133">
        <ele>717.5</ele>
        <time>2023-09-28T07:29:07Z</time>
      </trkpt>
      <trkpt lat="44.47812" lon="5.71338">
        <ele>717.3</ele>
        <time>2023-09-28T07:29:08Z</time>
      </trkpt>
      <trkpt lat="44.47816" lon="5.71347">
        <ele>717</ele>
        <time>2023-09-28T07:29:09Z</time>
      </trkpt>
      <trkpt lat="44.4782" lon="5.71355">
        <ele>716.7</ele>
        <time>2023-09-28T07:29:10Z</time>
      </trkpt>
      <trkpt lat="44.47824" lon="5.71364">
        <ele>716.4</ele>
        <time>2023-09-28T07:29:11Z</time>
      </trkpt>
      <trkpt lat="44.4783" lon="5.71372">
        <ele>716.1</ele>
        <time>2023-09-28T07:29:12Z</time>
      </trkpt>
      <trkpt lat="44.47834" lon="5.71381">
        <ele>715.9</ele>
        <time>2023-09-28T07:29:13Z</time>
      </trkpt>
      <trkpt lat="44.47839" lon="5.7139">
        <ele>715.8</ele>
        <time>2023-09-28T07:29:14Z</time>
      </trkpt>
      <trkpt lat="44.47844" lon="5.71399">
        <ele>715.7</ele>
        <time>2023-09-28T07:29:15Z</time>
      </trkpt>
      <trkpt lat="44.47849" lon="5.71407">
        <ele>715.5</ele>
        <time>2023-09-28T07:29:16Z</time>
      </trkpt>
      <trkpt lat="44.47854" lon="5.71416">
        <ele>715.4</ele>
        <time>2023-09-28T07:29:17Z</time>
      </trkpt>
      <trkpt lat="44.47859" lon="5.71424">
        <ele>715.3</ele>
        <time>2023-09-28T07:29:18Z</time>
      </trkpt>
      <trkpt lat="44.47863" lon="5.71432">
        <ele>715.2</ele>
        <time>2023-09-28T07:29:19Z</time>
      </trkpt>
      <trkpt lat="44.47868" lon="5.71439">
        <ele>715</ele>
        <time>2023-09-28T07:29:20Z</time>
      </trkpt>
      <trkpt lat="44.47873" lon="5.71446">
        <ele>714.8</ele>
        <time>2023-09-28T07:29:21Z</time>
      </trkpt>
      <trkpt lat="44.47878" lon="5.71453">
        <ele>714.5</ele>
        <time>2023-09-28T07:29:22Z</time>
      </trkpt>
      <trkpt lat="44.47883" lon="5.71459">
        <ele>714.3</ele>
        <time>2023-09-28T07:29:23Z</time>
      </trkpt>
      <trkpt lat="44.47889" lon="5.71465">
        <ele>714</ele>
        <time>2023-09-28T07:29:24Z</time>
      </trkpt>
      <trkpt lat="44.47895" lon="5.7147">
        <ele>713.8</ele>
        <time>2023-09-28T07:29:25Z</time>
      </trkpt>
      <trkpt lat="44.47902" lon="5.71474">
        <ele>713.5</ele>
        <time>2023-09-28T07:29:26Z</time>
      </trkpt>
      <trkpt lat="44.47909" lon="5.71477">
        <ele>713.3</ele>
        <time>2023-09-28T07:29:27Z</time>
      </trkpt>
      <trkpt lat="44.47916" lon="5.71481">
        <ele>713</ele>
        <time>2023-09-28T07:29:28Z</time>
      </trkpt>
      <trkpt lat="44.47923" lon="5.71486">
        <ele>712.8</ele>
        <time>2023-09-28T07:29:29Z</time>
      </trkpt>
      <trkpt lat="44.4793" lon="5.7149">
        <ele>712.6</ele>
        <time>2023-09-28T07:29:30Z</time>
      </trkpt>
      <trkpt lat="44.47937" lon="5.71495">
        <ele>712.3</ele>
        <time>2023-09-28T07:29:31Z</time>
      </trkpt>
      <trkpt lat="44.47943" lon="5.71501">
        <ele>712.1</ele>
        <time>2023-09-28T07:29:32Z</time>
      </trkpt>
      <trkpt lat="44.4795" lon="5.71507">
        <ele>711.8</ele>
        <time>2023-09-28T07:29:33Z</time>
      </trkpt>
      <trkpt lat="44.47957" lon="5.71514">
        <ele>711.5</ele>
        <time>2023-09-28T07:29:34Z</time>
      </trkpt>
      <trkpt lat="44.47963" lon="5.71521">
        <ele>711.3</ele>
        <time>2023-09-28T07:29:35Z</time>
      </trkpt>
      <trkpt lat="44.4797" lon="5.71527">
        <ele>711</ele>
        <time>2023-09-28T07:29:36Z</time>
      </trkpt>
      <trkpt lat="44.47977" lon="5.71534">
        <ele>710.8</ele>
        <time>2023-09-28T07:29:37Z</time>
      </trkpt>
      <trkpt lat="44.47983" lon="5.7154">
        <ele>710.5</ele>
        <time>2023-09-28T07:29:38Z</time>
      </trkpt>
      <trkpt lat="44.47988" lon="5.71546">
        <ele>710.3</ele>
        <time>2023-09-28T07:29:39Z</time>
      </trkpt>
      <trkpt lat="44.47994" lon="5.71552">
        <ele>710.1</ele>
        <time>2023-09-28T07:29:40Z</time>
      </trkpt>
      <trkpt lat="44.48" lon="5.71558">
        <ele>709.8</ele>
        <time>2023-09-28T07:29:41Z</time>
      </trkpt>
      <trkpt lat="44.48007" lon="5.71563">
        <ele>709.6</ele>
        <time>2023-09-28T07:29:42Z</time>
      </trkpt>
      <trkpt lat="44.48013" lon="5.71568">
        <ele>709.4</ele>
        <time>2023-09-28T07:29:43Z</time>
      </trkpt>
      <trkpt lat="44.4802" lon="5.71572">
        <ele>709.2</ele>
        <time>2023-09-28T07:29:44Z</time>
      </trkpt>
      <trkpt lat="44.48028" lon="5.71575">
        <ele>709.1</ele>
        <time>2023-09-28T07:29:45Z</time>
      </trkpt>
      <trkpt lat="44.48035" lon="5.71578">
        <ele>708.9</ele>
        <time>2023-09-28T07:29:46Z</time>
      </trkpt>
      <trkpt lat="44.48042" lon="5.7158">
        <ele>708.8</ele>
        <time>2023-09-28T07:29:47Z</time>
      </trkpt>
      <trkpt lat="44.48049" lon="5.71584">
        <ele>708.7</ele>
        <time>2023-09-28T07:29:48Z</time>
      </trkpt>
      <trkpt lat="44.48055" lon="5.71589">
        <ele>708.7</ele>
        <time>2023-09-28T07:29:49Z</time>
      </trkpt>
      <trkpt lat="44.4806" lon="5.71596">
        <ele>708.6</ele>
        <time>2023-09-28T07:29:50Z</time>
      </trkpt>
      <trkpt lat="44.48063" lon="5.71603">
        <ele>708.6</ele>
        <time>2023-09-28T07:29:51Z</time>
      </trkpt>
      <trkpt lat="44.48066" lon="5.7161">
        <ele>708.6</ele>
        <time>2023-09-28T07:29:52Z</time>
      </trkpt>
      <trkpt lat="44.48068" lon="5.71617">
        <ele>708.6</ele>
        <time>2023-09-28T07:29:53Z</time>
      </trkpt>
      <trkpt lat="44.48069" lon="5.71625">
        <ele>708.6</ele>
        <time>2023-09-28T07:29:54Z</time>
      </trkpt>
      <trkpt lat="44.48069" lon="5.71633">
        <ele>708.6</ele>
        <time>2023-09-28T07:29:55Z</time>
      </trkpt>
      <trkpt lat="44.48068" lon="5.71641">
        <ele>708.6</ele>
        <time>2023-09-28T07:29:56Z</time>
      </trkpt>
      <trkpt lat="44.48068" lon="5.71649">
        <ele>708.6</ele>
        <time>2023-09-28T07:29:57Z</time>
      </trkpt>
      <trkpt lat="44.48067" lon="5.71656">
        <ele>708.6</ele>
        <time>2023-09-28T07:29:58Z</time>
      </trkpt>
      <trkpt lat="44.48066" lon="5.71664">
        <ele>708.5</ele>
        <time>2023-09-28T07:29:59Z</time>
      </trkpt>
      <trkpt lat="44.48065" lon="5.71671">
        <ele>708.5</ele>
        <time>2023-09-28T07:30:00Z</time>
      </trkpt>
      <trkpt lat="44.48065" lon="5.71678">
        <ele>708.5</ele>
        <time>2023-09-28T07:30:01Z</time>
      </trkpt>
      <trkpt lat="44.48065" lon="5.71686">
        <ele>708.4</ele>
        <time>2023-09-28T07:30:02Z</time>
      </trkpt>
      <trkpt lat="44.48067" lon="5.71693">
        <ele>708.4</ele>
        <time>2023-09-28T07:30:03Z</time>
      </trkpt>
      <trkpt lat="44.4807" lon="5.717">
        <ele>708.3</ele>
        <time>2023-09-28T07:30:04Z</time>
      </trkpt>
      <trkpt lat="44.48074" lon="5.71706">
        <ele>708.2</ele>
        <time>2023-09-28T07:30:05Z</time>
      </trkpt>
      <trkpt lat="44.48078" lon="5.71712">
        <ele>708.2</ele>
        <time>2023-09-28T07:30:06Z</time>
      </trkpt>
      <trkpt lat="44.48083" lon="5.71718">
        <ele>708.1</ele>
        <time>2023-09-28T07:30:07Z</time>
      </trkpt>
      <trkpt lat="44.48087" lon="5.71724">
        <ele>708</ele>
        <time>2023-09-28T07:30:08Z</time>
      </trkpt>
      <trkpt lat="44.48091" lon="5.71731">
        <ele>708</ele>
        <time>2023-09-28T07:30:09Z</time>
      </trkpt>
      <trkpt lat="44.48095" lon="5.71738">
        <ele>707.9</ele>
        <time>2023-09-28T07:30:10Z</time>
      </trkpt>
      <trkpt lat="44.48098" lon="5.71746">
        <ele>707.9</ele>
        <time>2023-09-28T07:30:11Z</time>
      </trkpt>
      <trkpt lat="44.48102" lon="5.71754">
        <ele>707.8</ele>
        <time>2023-09-28T07:30:12Z</time>
      </trkpt>
      <trkpt lat="44.48105" lon="5.71762">
        <ele>707.8</ele>
        <time>2023-09-28T07:30:13Z</time>
      </trkpt>
      <trkpt lat="44.48108" lon="5.7177">
        <ele>707.8</ele>
        <time>2023-09-28T07:30:14Z</time>
      </trkpt>
      <trkpt lat="44.4811" lon="5.71779">
        <ele>707.8</ele>
        <time>2023-09-28T07:30:15Z</time>
      </trkpt>
      <trkpt lat="44.48113" lon="5.71787">
        <ele>707.8</ele>
        <time>2023-09-28T07:30:16Z</time>
      </trkpt>
      <trkpt lat="44.48116" lon="5.71794">
        <ele>707.8</ele>
        <time>2023-09-28T07:30:17Z</time>
      </trkpt>
      <trkpt lat="44.48119" lon="5.71802">
        <ele>707.9</ele>
        <time>2023-09-28T07:30:18Z</time>
      </trkpt>
      <trkpt lat="44.48122" lon="5.71809">
        <ele>707.9</ele>
        <time>2023-09-28T07:30:19Z</time>
      </trkpt>
      <trkpt lat="44.48126" lon="5.71815">
        <ele>707.9</ele>
        <time>2023-09-28T07:30:20Z</time>
      </trkpt>
      <trkpt lat="44.48131" lon="5.7182">
        <ele>707.9</ele>
        <time>2023-09-28T07:30:21Z</time>
      </trkpt>
      <trkpt lat="44.48136" lon="5.71825">
        <ele>707.9</ele>
        <time>2023-09-28T07:30:22Z</time>
      </trkpt>
      <trkpt lat="44.48141" lon="5.71829">
        <ele>708</ele>
        <time>2023-09-28T07:30:23Z</time>
      </trkpt>
      <trkpt lat="44.48146" lon="5.71832">
        <ele>707.9</ele>
        <time>2023-09-28T07:30:24Z</time>
      </trkpt>
      <trkpt lat="44.48152" lon="5.71835">
        <ele>707.9</ele>
        <time>2023-09-28T07:30:25Z</time>
      </trkpt>
      <trkpt lat="44.48157" lon="5.71839">
        <ele>707.9</ele>
        <time>2023-09-28T07:30:26Z</time>
      </trkpt>
      <trkpt lat="44.48162" lon="5.71842">
        <ele>707.9</ele>
        <time>2023-09-28T07:30:27Z</time>
      </trkpt>
      <trkpt lat="44.48167" lon="5.71844">
        <ele>707.9</ele>
        <time>2023-09-28T07:30:28Z</time>
      </trkpt>
      <trkpt lat="44.48173" lon="5.71846">
        <ele>708</ele>
        <time>2023-09-28T07:30:29Z</time>
      </trkpt>
      <trkpt lat="44.48178" lon="5.71848">
        <ele>708</ele>
        <time>2023-09-28T07:30:30Z</time>
      </trkpt>
      <trkpt lat="44.48183" lon="5.7185">
        <ele>708.1</ele>
        <time>2023-09-28T07:30:31Z</time>
      </trkpt>
      <trkpt lat="44.48189" lon="5.71851">
        <ele>708.2</ele>
        <time>2023-09-28T07:30:32Z</time>
      </trkpt>
      <trkpt lat="44.48194" lon="5.71853">
        <ele>708.2</ele>
        <time>2023-09-28T07:30:33Z</time>
      </trkpt>
      <trkpt lat="44.48199" lon="5.71855">
        <ele>708.3</ele>
        <time>2023-09-28T07:30:34Z</time>
      </trkpt>
      <trkpt lat="44.48204" lon="5.71858">
        <ele>708.3</ele>
        <time>2023-09-28T07:30:35Z</time>
      </trkpt>
      <trkpt lat="44.48209" lon="5.7186">
        <ele>708.4</ele>
        <time>2023-09-28T07:30:36Z</time>
      </trkpt>
      <trkpt lat="44.48215" lon="5.71862">
        <ele>708.4</ele>
        <time>2023-09-28T07:30:37Z</time>
      </trkpt>
      <trkpt lat="44.4822" lon="5.71864">
        <ele>708.5</ele>
        <time>2023-09-28T07:30:38Z</time>
      </trkpt>
      <trkpt lat="44.48225" lon="5.71866">
        <ele>708.5</ele>
        <time>2023-09-28T07:30:39Z</time>
      </trkpt>
      <trkpt lat="44.4823" lon="5.71868">
        <ele>708.6</ele>
        <time>2023-09-28T07:30:40Z</time>
      </trkpt>
      <trkpt lat="44.48235" lon="5.7187">
        <ele>708.6</ele>
        <time>2023-09-28T07:30:41Z</time>
      </trkpt>
      <trkpt lat="44.4824" lon="5.71872">
        <ele>708.7</ele>
        <time>2023-09-28T07:30:42Z</time>
      </trkpt>
      <trkpt lat="44.48244" lon="5.71875">
        <ele>708.7</ele>
        <time>2023-09-28T07:30:43Z</time>
      </trkpt>
      <trkpt lat="44.48249" lon="5.71878">
        <ele>708.7</ele>
        <time>2023-09-28T07:30:44Z</time>
      </trkpt>
      <trkpt lat="44.48253" lon="5.71882">
        <ele>708.8</ele>
        <time>2023-09-28T07:30:45Z</time>
      </trkpt>
      <trkpt lat="44.48256" lon="5.71887">
        <ele>708.8</ele>
        <time>2023-09-28T07:30:46Z</time>
      </trkpt>
      <trkpt lat="44.4826" lon="5.71892">
        <ele>708.9</ele>
        <time>2023-09-28T07:30:47Z</time>
      </trkpt>
      <trkpt lat="44.48262" lon="5.71898">
        <ele>708.9</ele>
        <time>2023-09-28T07:30:48Z</time>
      </trkpt>
      <trkpt lat="44.48264" lon="5.71904">
        <ele>708.9</ele>
        <time>2023-09-28T07:30:49Z</time>
      </trkpt>
      <trkpt lat="44.48266" lon="5.71911">
        <ele>709</ele>
        <time>2023-09-28T07:30:50Z</time>
      </trkpt>
      <trkpt lat="44.48267" lon="5.71918">
        <ele>709</ele>
        <time>2023-09-28T07:30:51Z</time>
      </trkpt>
      <trkpt lat="44.48269" lon="5.71925">
        <ele>709</ele>
        <time>2023-09-28T07:30:52Z</time>
      </trkpt>
      <trkpt lat="44.4827" lon="5.71931">
        <ele>709</ele>
        <time>2023-09-28T07:30:53Z</time>
      </trkpt>
      <trkpt lat="44.48271" lon="5.71938">
        <ele>709</ele>
        <time>2023-09-28T07:30:54Z</time>
      </trkpt>
      <trkpt lat="44.48273" lon="5.71945">
        <ele>709.1</ele>
        <time>2023-09-28T07:30:55Z</time>
      </trkpt>
      <trkpt lat="44.48274" lon="5.71952">
        <ele>709.1</ele>
        <time>2023-09-28T07:30:56Z</time>
      </trkpt>
      <trkpt lat="44.48275" lon="5.71959">
        <ele>709.1</ele>
        <time>2023-09-28T07:30:57Z</time>
      </trkpt>
      <trkpt lat="44.48276" lon="5.71965">
        <ele>709.1</ele>
        <time>2023-09-28T07:30:58Z</time>
      </trkpt>
      <trkpt lat="44.48278" lon="5.71972">
        <ele>709.1</ele>
        <time>2023-09-28T07:30:59Z</time>
      </trkpt>
      <trkpt lat="44.48279" lon="5.71979">
        <ele>709.1</ele>
        <time>2023-09-28T07:31:00Z</time>
      </trkpt>
      <trkpt lat="44.4828" lon="5.71985">
        <ele>709.1</ele>
        <time>2023-09-28T07:31:01Z</time>
      </trkpt>
      <trkpt lat="44.48281" lon="5.71992">
        <ele>709.1</ele>
        <time>2023-09-28T07:31:02Z</time>
      </trkpt>
      <trkpt lat="44.48282" lon="5.71999">
        <ele>709.1</ele>
        <time>2023-09-28T07:31:03Z</time>
      </trkpt>
      <trkpt lat="44.48284" lon="5.72005">
        <ele>709.1</ele>
        <time>2023-09-28T07:31:04Z</time>
      </trkpt>
      <trkpt lat="44.48285" lon="5.72012">
        <ele>709.1</ele>
        <time>2023-09-28T07:31:05Z</time>
      </trkpt>
      <trkpt lat="44.48286" lon="5.72018">
        <ele>709.1</ele>
        <time>2023-09-28T07:31:06Z</time>
      </trkpt>
      <trkpt lat="44.48287" lon="5.72025">
        <ele>709.1</ele>
        <time>2023-09-28T07:31:07Z</time>
      </trkpt>
      <trkpt lat="44.48288" lon="5.72031">
        <ele>709.1</ele>
        <time>2023-09-28T07:31:08Z</time>
      </trkpt>
      <trkpt lat="44.48289" lon="5.72038">
        <ele>709.2</ele>
        <time>2023-09-28T07:31:09Z</time>
      </trkpt>
      <trkpt lat="44.4829" lon="5.72044">
        <ele>709.2</ele>
        <time>2023-09-28T07:31:10Z</time>
      </trkpt>
      <trkpt lat="44.48291" lon="5.72051">
        <ele>709.2</ele>
        <time>2023-09-28T07:31:11Z</time>
      </trkpt>
      <trkpt lat="44.48292" lon="5.72057">
        <ele>709.2</ele>
        <time>2023-09-28T07:31:12Z</time>
      </trkpt>
      <trkpt lat="44.48293" lon="5.72063">
        <ele>709.3</ele>
        <time>2023-09-28T07:31:13Z</time>
      </trkpt>
      <trkpt lat="44.48295" lon="5.72069">
        <ele>709.3</ele>
        <time>2023-09-28T07:31:14Z</time>
      </trkpt>
      <trkpt lat="44.48298" lon="5.72075">
        <ele>709.4</ele>
        <time>2023-09-28T07:31:15Z</time>
      </trkpt>
      <trkpt lat="44.48301" lon="5.7208">
        <ele>709.4</ele>
        <time>2023-09-28T07:31:16Z</time>
      </trkpt>
      <trkpt lat="44.48305" lon="5.72084">
        <ele>709.5</ele>
        <time>2023-09-28T07:31:17Z</time>
      </trkpt>
      <trkpt lat="44.48309" lon="5.72088">
        <ele>709.5</ele>
        <time>2023-09-28T07:31:18Z</time>
      </trkpt>
      <trkpt lat="44.48313" lon="5.72091">
        <ele>709.5</ele>
        <time>2023-09-28T07:31:19Z</time>
      </trkpt>
      <trkpt lat="44.48318" lon="5.72094">
        <ele>709.5</ele>
        <time>2023-09-28T07:31:20Z</time>
      </trkpt>
      <trkpt lat="44.48322" lon="5.72096">
        <ele>709.6</ele>
        <time>2023-09-28T07:31:21Z</time>
      </trkpt>
      <trkpt lat="44.48327" lon="5.72099">
        <ele>709.6</ele>
        <time>2023-09-28T07:31:22Z</time>
      </trkpt>
      <trkpt lat="44.48332" lon="5.72101">
        <ele>709.6</ele>
        <time>2023-09-28T07:31:23Z</time>
      </trkpt>
      <trkpt lat="44.48336" lon="5.72104">
        <ele>709.7</ele>
        <time>2023-09-28T07:31:24Z</time>
      </trkpt>
      <trkpt lat="44.4834" lon="5.72106">
        <ele>709.7</ele>
        <time>2023-09-28T07:31:25Z</time>
      </trkpt>
      <trkpt lat="44.48345" lon="5.72108">
        <ele>709.7</ele>
        <time>2023-09-28T07:31:26Z</time>
      </trkpt>
      <trkpt lat="44.48349" lon="5.7211">
        <ele>709.8</ele>
        <time>2023-09-28T07:31:27Z</time>
      </trkpt>
      <trkpt lat="44.48354" lon="5.72113">
        <ele>709.8</ele>
        <time>2023-09-28T07:31:28Z</time>
      </trkpt>
      <trkpt lat="44.48358" lon="5.72115">
        <ele>709.9</ele>
        <time>2023-09-28T07:31:29Z</time>
      </trkpt>
      <trkpt lat="44.48363" lon="5.72117">
        <ele>709.9</ele>
        <time>2023-09-28T07:31:30Z</time>
      </trkpt>
      <trkpt lat="44.48367" lon="5.7212">
        <ele>709.9</ele>
        <time>2023-09-28T07:31:31Z</time>
      </trkpt>
      <trkpt lat="44.48371" lon="5.72122">
        <ele>710</ele>
        <time>2023-09-28T07:31:32Z</time>
      </trkpt>
      <trkpt lat="44.48376" lon="5.72124">
        <ele>710</ele>
        <time>2023-09-28T07:31:33Z</time>
      </trkpt>
      <trkpt lat="44.4838" lon="5.72126">
        <ele>710</ele>
        <time>2023-09-28T07:31:34Z</time>
      </trkpt>
      <trkpt lat="44.48384" lon="5.72129">
        <ele>710</ele>
        <time>2023-09-28T07:31:35Z</time>
      </trkpt>
      <trkpt lat="44.48389" lon="5.72131">
        <ele>710</ele>
        <time>2023-09-28T07:31:36Z</time>
      </trkpt>
      <trkpt lat="44.48393" lon="5.72133">
        <ele>710</ele>
        <time>2023-09-28T07:31:37Z</time>
      </trkpt>
      <trkpt lat="44.48397" lon="5.72135">
        <ele>710</ele>
        <time>2023-09-28T07:31:38Z</time>
      </trkpt>
      <trkpt lat="44.48401" lon="5.72137">
        <ele>710.1</ele>
        <time>2023-09-28T07:31:39Z</time>
      </trkpt>
      <trkpt lat="44.48406" lon="5.7214">
        <ele>710.1</ele>
        <time>2023-09-28T07:31:40Z</time>
      </trkpt>
      <trkpt lat="44.4841" lon="5.72142">
        <ele>710.1</ele>
        <time>2023-09-28T07:31:41Z</time>
      </trkpt>
      <trkpt lat="44.48414" lon="5.72144">
        <ele>710.1</ele>
        <time>2023-09-28T07:31:42Z</time>
      </trkpt>
      <trkpt lat="44.48418" lon="5.72146">
        <ele>710.2</ele>
        <time>2023-09-28T07:31:43Z</time>
      </trkpt>
      <trkpt lat="44.48422" lon="5.72149">
        <ele>710.2</ele>
        <time>2023-09-28T07:31:44Z</time>
      </trkpt>
      <trkpt lat="44.48426" lon="5.72151">
        <ele>710.3</ele>
        <time>2023-09-28T07:31:45Z</time>
      </trkpt>
      <trkpt lat="44.4843" lon="5.72153">
        <ele>710.3</ele>
        <time>2023-09-28T07:31:46Z</time>
      </trkpt>
      <trkpt lat="44.48435" lon="5.72155">
        <ele>710.4</ele>
        <time>2023-09-28T07:31:47Z</time>
      </trkpt>
      <trkpt lat="44.48439" lon="5.72157">
        <ele>710.4</ele>
        <time>2023-09-28T07:31:48Z</time>
      </trkpt>
      <trkpt lat="44.48443" lon="5.72159">
        <ele>710.5</ele>
        <time>2023-09-28T07:31:49Z</time>
      </trkpt>
      <trkpt lat="44.48447" lon="5.7216">
        <ele>710.5</ele>
        <time>2023-09-28T07:31:51Z</time>
      </trkpt>
      <trkpt lat="44.48452" lon="5.72163">
        <ele>710.6</ele>
        <time>2023-09-28T07:31:52Z</time>
      </trkpt>
      <trkpt lat="44.48456" lon="5.72166">
        <ele>710.7</ele>
        <time>2023-09-28T07:31:53Z</time>
      </trkpt>
      <trkpt lat="44.48462" lon="5.72169">
        <ele>710.7</ele>
        <time>2023-09-28T07:31:54Z</time>
      </trkpt>
      <trkpt lat="44.48465" lon="5.72171">
        <ele>710.8</ele>
        <time>2023-09-28T07:31:55Z</time>
      </trkpt>
      <trkpt lat="44.4847" lon="5.72173">
        <ele>710.8</ele>
        <time>2023-09-28T07:31:56Z</time>
      </trkpt>
      <trkpt lat="44.48474" lon="5.72175">
        <ele>710.9</ele>
        <time>2023-09-28T07:31:57Z</time>
      </trkpt>
      <trkpt lat="44.48479" lon="5.72178">
        <ele>711</ele>
        <time>2023-09-28T07:31:59Z</time>
      </trkpt>
      <trkpt lat="44.48484" lon="5.72181">
        <ele>711</ele>
        <time>2023-09-28T07:32:00Z</time>
      </trkpt>
      <trkpt lat="44.48489" lon="5.72184">
        <ele>711.1</ele>
        <time>2023-09-28T07:32:01Z</time>
      </trkpt>
      <trkpt lat="44.48493" lon="5.72186">
        <ele>711.1</ele>
        <time>2023-09-28T07:32:02Z</time>
      </trkpt>
      <trkpt lat="44.48497" lon="5.72188">
        <ele>711.2</ele>
        <time>2023-09-28T07:32:03Z</time>
      </trkpt>
      <trkpt lat="44.48501" lon="5.7219">
        <ele>711.2</ele>
        <time>2023-09-28T07:32:04Z</time>
      </trkpt>
      <trkpt lat="44.48506" lon="5.72193">
        <ele>711.2</ele>
        <time>2023-09-28T07:32:05Z</time>
      </trkpt>
      <trkpt lat="44.4851" lon="5.72194">
        <ele>711.3</ele>
        <time>2023-09-28T07:32:06Z</time>
      </trkpt>
      <trkpt lat="44.48514" lon="5.72197">
        <ele>711.3</ele>
        <time>2023-09-28T07:32:07Z</time>
      </trkpt>
      <trkpt lat="44.48519" lon="5.72199">
        <ele>711.4</ele>
        <time>2023-09-28T07:32:08Z</time>
      </trkpt>
      <trkpt lat="44.48524" lon="5.72201">
        <ele>711.5</ele>
        <time>2023-09-28T07:32:09Z</time>
      </trkpt>
      <trkpt lat="44.48529" lon="5.72204">
        <ele>711.5</ele>
        <time>2023-09-28T07:32:11Z</time>
      </trkpt>
      <trkpt lat="44.48533" lon="5.72207">
        <ele>711.6</ele>
        <time>2023-09-28T07:32:12Z</time>
      </trkpt>
      <trkpt lat="44.48537" lon="5.72208">
        <ele>711.7</ele>
        <time>2023-09-28T07:32:13Z</time>
      </trkpt>
      <trkpt lat="44.48543" lon="5.7221">
        <ele>711.7</ele>
        <time>2023-09-28T07:32:14Z</time>
      </trkpt>
      <trkpt lat="44.48547" lon="5.72213">
        <ele>711.8</ele>
        <time>2023-09-28T07:32:15Z</time>
      </trkpt>
      <trkpt lat="44.48551" lon="5.72215">
        <ele>711.9</ele>
        <time>2023-09-28T07:32:17Z</time>
      </trkpt>
      <trkpt lat="44.48556" lon="5.72217">
        <ele>711.9</ele>
        <time>2023-09-28T07:32:18Z</time>
      </trkpt>
      <trkpt lat="44.48561" lon="5.72219">
        <ele>712</ele>
        <time>2023-09-28T07:32:19Z</time>
      </trkpt>
      <trkpt lat="44.48566" lon="5.72221">
        <ele>712.1</ele>
        <time>2023-09-28T07:32:20Z</time>
      </trkpt>
      <trkpt lat="44.4857" lon="5.72223">
        <ele>712.1</ele>
        <time>2023-09-28T07:32:21Z</time>
      </trkpt>
      <trkpt lat="44.48575" lon="5.72226">
        <ele>712.2</ele>
        <time>2023-09-28T07:32:22Z</time>
      </trkpt>
      <trkpt lat="44.4858" lon="5.72228">
        <ele>712.2</ele>
        <time>2023-09-28T07:32:24Z</time>
      </trkpt>
      <trkpt lat="44.48584" lon="5.7223">
        <ele>712.3</ele>
        <time>2023-09-28T07:32:25Z</time>
      </trkpt>
      <trkpt lat="44.48589" lon="5.72232">
        <ele>712.3</ele>
        <time>2023-09-28T07:32:26Z</time>
      </trkpt>
      <trkpt lat="44.48594" lon="5.72235">
        <ele>712.4</ele>
        <time>2023-09-28T07:32:27Z</time>
      </trkpt>
      <trkpt lat="44.48599" lon="5.72237">
        <ele>712.4</ele>
        <time>2023-09-28T07:32:28Z</time>
      </trkpt>
      <trkpt lat="44.48603" lon="5.72239">
        <ele>712.5</ele>
        <time>2023-09-28T07:32:29Z</time>
      </trkpt>
      <trkpt lat="44.48607" lon="5.72241">
        <ele>712.5</ele>
        <time>2023-09-28T07:32:30Z</time>
      </trkpt>
      <trkpt lat="44.48615" lon="5.72243">
        <ele>712.6</ele>
        <time>2023-09-28T07:32:32Z</time>
      </trkpt>
      <trkpt lat="44.4862" lon="5.72245">
        <ele>712.7</ele>
        <time>2023-09-28T07:32:33Z</time>
      </trkpt>
      <trkpt lat="44.48625" lon="5.72246">
        <ele>712.7</ele>
        <time>2023-09-28T07:32:34Z</time>
      </trkpt>
      <trkpt lat="44.4863" lon="5.72247">
        <ele>712.8</ele>
        <time>2023-09-28T07:32:35Z</time>
      </trkpt>
      <trkpt lat="44.48635" lon="5.72247">
        <ele>712.9</ele>
        <time>2023-09-28T07:32:37Z</time>
      </trkpt>
      <trkpt lat="44.4864" lon="5.72247">
        <ele>712.9</ele>
        <time>2023-09-28T07:32:38Z</time>
      </trkpt>
      <trkpt lat="44.48645" lon="5.72247">
        <ele>713</ele>
        <time>2023-09-28T07:32:39Z</time>
      </trkpt>
      <trkpt lat="44.48649" lon="5.72247">
        <ele>713.1</ele>
        <time>2023-09-28T07:32:40Z</time>
      </trkpt>
      <trkpt lat="44.48654" lon="5.72246">
        <ele>713.2</ele>
        <time>2023-09-28T07:32:41Z</time>
      </trkpt>
      <trkpt lat="44.48659" lon="5.72245">
        <ele>713.3</ele>
        <time>2023-09-28T07:32:42Z</time>
      </trkpt>
      <trkpt lat="44.48663" lon="5.72245">
        <ele>713.3</ele>
        <time>2023-09-28T07:32:43Z</time>
      </trkpt>
      <trkpt lat="44.48668" lon="5.72245">
        <ele>713.5</ele>
        <time>2023-09-28T07:32:44Z</time>
      </trkpt>
      <trkpt lat="44.48673" lon="5.72244">
        <ele>713.6</ele>
        <time>2023-09-28T07:32:45Z</time>
      </trkpt>
      <trkpt lat="44.48677" lon="5.72244">
        <ele>713.7</ele>
        <time>2023-09-28T07:32:47Z</time>
      </trkpt>
      <trkpt lat="44.48682" lon="5.72243">
        <ele>713.9</ele>
        <time>2023-09-28T07:32:48Z</time>
      </trkpt>
      <trkpt lat="44.48687" lon="5.72243">
        <ele>714.1</ele>
        <time>2023-09-28T07:32:49Z</time>
      </trkpt>
      <trkpt lat="44.48691" lon="5.72242">
        <ele>714.3</ele>
        <time>2023-09-28T07:32:50Z</time>
      </trkpt>
      <trkpt lat="44.48695" lon="5.72242">
        <ele>714.5</ele>
        <time>2023-09-28T07:32:51Z</time>
      </trkpt>
      <trkpt lat="44.48699" lon="5.72241">
        <ele>714.7</ele>
        <time>2023-09-28T07:32:52Z</time>
      </trkpt>
      <trkpt lat="44.48703" lon="5.72241">
        <ele>714.9</ele>
        <time>2023-09-28T07:32:53Z</time>
      </trkpt>
      <trkpt lat="44.48706" lon="5.7224">
        <ele>715.2</ele>
        <time>2023-09-28T07:32:54Z</time>
      </trkpt>
      <trkpt lat="44.48712" lon="5.7224">
        <ele>715.6</ele>
        <time>2023-09-28T07:32:56Z</time>
      </trkpt>
      <trkpt lat="44.48716" lon="5.7224">
        <ele>715.8</ele>
        <time>2023-09-28T07:32:57Z</time>
      </trkpt>
      <trkpt lat="44.48719" lon="5.72242">
        <ele>716</ele>
        <time>2023-09-28T07:32:58Z</time>
      </trkpt>
      <trkpt lat="44.48721" lon="5.72246">
        <ele>716.1</ele>
        <time>2023-09-28T07:32:59Z</time>
      </trkpt>
      <trkpt lat="44.48724" lon="5.7225">
        <ele>716.2</ele>
        <time>2023-09-28T07:33:01Z</time>
      </trkpt>
      <trkpt lat="44.48727" lon="5.72255">
        <ele>716.4</ele>
        <time>2023-09-28T07:33:02Z</time>
      </trkpt>
      <trkpt lat="44.48728" lon="5.72261">
        <ele>716.6</ele>
        <time>2023-09-28T07:33:03Z</time>
      </trkpt>
      <trkpt lat="44.48729" lon="5.72265">
        <ele>716.7</ele>
        <time>2023-09-28T07:33:04Z</time>
      </trkpt>
      <trkpt lat="44.4873" lon="5.7227">
        <ele>716.9</ele>
        <time>2023-09-28T07:33:05Z</time>
      </trkpt>
      <trkpt lat="44.48731" lon="5.72276">
        <ele>717</ele>
        <time>2023-09-28T07:33:07Z</time>
      </trkpt>
      <trkpt lat="44.48732" lon="5.7228">
        <ele>717.2</ele>
        <time>2023-09-28T07:33:08Z</time>
      </trkpt>
      <trkpt lat="44.48733" lon="5.72286">
        <ele>717.3</ele>
        <time>2023-09-28T07:33:09Z</time>
      </trkpt>
      <trkpt lat="44.48733" lon="5.72291">
        <ele>717.4</ele>
        <time>2023-09-28T07:33:10Z</time>
      </trkpt>
      <trkpt lat="44.48733" lon="5.72296">
        <ele>717.5</ele>
        <time>2023-09-28T07:33:11Z</time>
      </trkpt>
      <trkpt lat="44.48733" lon="5.72301">
        <ele>717.6</ele>
        <time>2023-09-28T07:33:12Z</time>
      </trkpt>
      <trkpt lat="44.48734" lon="5.72307">
        <ele>717.7</ele>
        <time>2023-09-28T07:33:13Z</time>
      </trkpt>
      <trkpt lat="44.48734" lon="5.72313">
        <ele>717.8</ele>
        <time>2023-09-28T07:33:15Z</time>
      </trkpt>
      <trkpt lat="44.48734" lon="5.72318">
        <ele>717.9</ele>
        <time>2023-09-28T07:33:16Z</time>
      </trkpt>
      <trkpt lat="44.48734" lon="5.72324">
        <ele>718</ele>
        <time>2023-09-28T07:33:17Z</time>
      </trkpt>
      <trkpt lat="44.48734" lon="5.72331">
        <ele>718.1</ele>
        <time>2023-09-28T07:33:18Z</time>
      </trkpt>
      <trkpt lat="44.48734" lon="5.72338">
        <ele>718.2</ele>
        <time>2023-09-28T07:33:19Z</time>
      </trkpt>
      <trkpt lat="44.48735" lon="5.72343">
        <ele>718.3</ele>
        <time>2023-09-28T07:33:20Z</time>
      </trkpt>
      <trkpt lat="44.48735" lon="5.7235">
        <ele>718.4</ele>
        <time>2023-09-28T07:33:21Z</time>
      </trkpt>
      <trkpt lat="44.48735" lon="5.72358">
        <ele>718.5</ele>
        <time>2023-09-28T07:33:23Z</time>
      </trkpt>
      <trkpt lat="44.48736" lon="5.72365">
        <ele>718.6</ele>
        <time>2023-09-28T07:33:24Z</time>
      </trkpt>
      <trkpt lat="44.48736" lon="5.72372">
        <ele>718.6</ele>
        <time>2023-09-28T07:33:25Z</time>
      </trkpt>
      <trkpt lat="44.48737" lon="5.72381">
        <ele>718.7</ele>
        <time>2023-09-28T07:33:26Z</time>
      </trkpt>
      <trkpt lat="44.48737" lon="5.72387">
        <ele>718.8</ele>
        <time>2023-09-28T07:33:27Z</time>
      </trkpt>
      <trkpt lat="44.48737" lon="5.72393">
        <ele>718.8</ele>
        <time>2023-09-28T07:33:29Z</time>
      </trkpt>
      <trkpt lat="44.48739" lon="5.724">
        <ele>718.9</ele>
        <time>2023-09-28T07:33:30Z</time>
      </trkpt>
      <trkpt lat="44.48742" lon="5.72406">
        <ele>719</ele>
        <time>2023-09-28T07:33:31Z</time>
      </trkpt>
      <trkpt lat="44.48744" lon="5.72412">
        <ele>719.1</ele>
        <time>2023-09-28T07:33:32Z</time>
      </trkpt>
      <trkpt lat="44.48747" lon="5.72418">
        <ele>719.1</ele>
        <time>2023-09-28T07:33:33Z</time>
      </trkpt>
      <trkpt lat="44.4875" lon="5.72422">
        <ele>719.2</ele>
        <time>2023-09-28T07:33:34Z</time>
      </trkpt>
      <trkpt lat="44.48752" lon="5.72426">
        <ele>719.3</ele>
        <time>2023-09-28T07:33:35Z</time>
      </trkpt>
      <trkpt lat="44.48756" lon="5.72431">
        <ele>719.4</ele>
        <time>2023-09-28T07:33:36Z</time>
      </trkpt>
      <trkpt lat="44.4876" lon="5.72434">
        <ele>719.4</ele>
        <time>2023-09-28T07:33:37Z</time>
      </trkpt>
      <trkpt lat="44.48765" lon="5.72438">
        <ele>719.5</ele>
        <time>2023-09-28T07:33:38Z</time>
      </trkpt>
      <trkpt lat="44.48769" lon="5.72441">
        <ele>719.6</ele>
        <time>2023-09-28T07:33:40Z</time>
      </trkpt>
      <trkpt lat="44.48774" lon="5.72443">
        <ele>719.7</ele>
        <time>2023-09-28T07:33:41Z</time>
      </trkpt>
      <trkpt lat="44.48779" lon="5.72446">
        <ele>719.8</ele>
        <time>2023-09-28T07:33:42Z</time>
      </trkpt>
      <trkpt lat="44.48783" lon="5.72447">
        <ele>719.9</ele>
        <time>2023-09-28T07:33:43Z</time>
      </trkpt>
      <trkpt lat="44.48788" lon="5.7245">
        <ele>720</ele>
        <time>2023-09-28T07:33:44Z</time>
      </trkpt>
      <trkpt lat="44.48792" lon="5.72452">
        <ele>720.1</ele>
        <time>2023-09-28T07:33:45Z</time>
      </trkpt>
      <trkpt lat="44.48798" lon="5.72454">
        <ele>720.2</ele>
        <time>2023-09-28T07:33:47Z</time>
      </trkpt>
      <trkpt lat="44.48804" lon="5.72456">
        <ele>720.3</ele>
        <time>2023-09-28T07:33:48Z</time>
      </trkpt>
      <trkpt lat="44.48809" lon="5.72458">
        <ele>720.4</ele>
        <time>2023-09-28T07:33:49Z</time>
      </trkpt>
      <trkpt lat="44.48813" lon="5.72459">
        <ele>720.5</ele>
        <time>2023-09-28T07:33:50Z</time>
      </trkpt>
      <trkpt lat="44.48818" lon="5.72461">
        <ele>720.6</ele>
        <time>2023-09-28T07:33:52Z</time>
      </trkpt>
      <trkpt lat="44.48823" lon="5.72462">
        <ele>720.7</ele>
        <time>2023-09-28T07:33:53Z</time>
      </trkpt>
      <trkpt lat="44.48828" lon="5.72464">
        <ele>720.8</ele>
        <time>2023-09-28T07:33:54Z</time>
      </trkpt>
      <trkpt lat="44.48832" lon="5.72466">
        <ele>720.9</ele>
        <time>2023-09-28T07:33:55Z</time>
      </trkpt>
      <trkpt lat="44.48836" lon="5.72467">
        <ele>721</ele>
        <time>2023-09-28T07:33:56Z</time>
      </trkpt>
      <trkpt lat="44.4884" lon="5.72469">
        <ele>721</ele>
        <time>2023-09-28T07:33:57Z</time>
      </trkpt>
      <trkpt lat="44.48844" lon="5.7247">
        <ele>721.1</ele>
        <time>2023-09-28T07:33:58Z</time>
      </trkpt>
      <trkpt lat="44.4885" lon="5.72472">
        <ele>721.2</ele>
        <time>2023-09-28T07:34:00Z</time>
      </trkpt>
      <trkpt lat="44.48857" lon="5.72475">
        <ele>721.3</ele>
        <time>2023-09-28T07:34:01Z</time>
      </trkpt>
      <trkpt lat="44.48861" lon="5.72477">
        <ele>721.4</ele>
        <time>2023-09-28T07:34:03Z</time>
      </trkpt>
      <trkpt lat="44.48866" lon="5.72478">
        <ele>721.5</ele>
        <time>2023-09-28T07:34:04Z</time>
      </trkpt>
      <trkpt lat="44.48872" lon="5.7248">
        <ele>721.6</ele>
        <time>2023-09-28T07:34:05Z</time>
      </trkpt>
      <trkpt lat="44.48877" lon="5.72482">
        <ele>721.7</ele>
        <time>2023-09-28T07:34:06Z</time>
      </trkpt>
      <trkpt lat="44.48884" lon="5.72484">
        <ele>721.8</ele>
        <time>2023-09-28T07:34:08Z</time>
      </trkpt>
      <trkpt lat="44.48888" lon="5.72486">
        <ele>721.9</ele>
        <time>2023-09-28T07:34:09Z</time>
      </trkpt>
      <trkpt lat="44.48892" lon="5.72488">
        <ele>721.9</ele>
        <time>2023-09-28T07:34:10Z</time>
      </trkpt>
      <trkpt lat="44.48897" lon="5.7249">
        <ele>721.9</ele>
        <time>2023-09-28T07:34:11Z</time>
      </trkpt>
      <trkpt lat="44.48902" lon="5.72492">
        <ele>721.9</ele>
        <time>2023-09-28T07:34:12Z</time>
      </trkpt>
      <trkpt lat="44.48907" lon="5.72494">
        <ele>722</ele>
        <time>2023-09-28T07:34:14Z</time>
      </trkpt>
      <trkpt lat="44.48912" lon="5.72496">
        <ele>722</ele>
        <time>2023-09-28T07:34:15Z</time>
      </trkpt>
      <trkpt lat="44.48916" lon="5.72497">
        <ele>722</ele>
        <time>2023-09-28T07:34:16Z</time>
      </trkpt>
      <trkpt lat="44.48921" lon="5.72499">
        <ele>722.1</ele>
        <time>2023-09-28T07:34:17Z</time>
      </trkpt>
      <trkpt lat="44.48925" lon="5.725">
        <ele>722.1</ele>
        <time>2023-09-28T07:34:18Z</time>
      </trkpt>
      <trkpt lat="44.4893" lon="5.72503">
        <ele>722.1</ele>
        <time>2023-09-28T07:34:19Z</time>
      </trkpt>
      <trkpt lat="44.48935" lon="5.72505">
        <ele>722.2</ele>
        <time>2023-09-28T07:34:20Z</time>
      </trkpt>
      <trkpt lat="44.48939" lon="5.72508">
        <ele>722.2</ele>
        <time>2023-09-28T07:34:21Z</time>
      </trkpt>
      <trkpt lat="44.48944" lon="5.72508">
        <ele>722.3</ele>
        <time>2023-09-28T07:34:23Z</time>
      </trkpt>
      <trkpt lat="44.48948" lon="5.72512">
        <ele>722.3</ele>
        <time>2023-09-28T07:34:24Z</time>
      </trkpt>
      <trkpt lat="44.48953" lon="5.72518">
        <ele>722.4</ele>
        <time>2023-09-28T07:34:25Z</time>
      </trkpt>
      <trkpt lat="44.48958" lon="5.72522">
        <ele>722.4</ele>
        <time>2023-09-28T07:34:26Z</time>
      </trkpt>
      <trkpt lat="44.48963" lon="5.72526">
        <ele>722.5</ele>
        <time>2023-09-28T07:34:27Z</time>
      </trkpt>
      <trkpt lat="44.48967" lon="5.72529">
        <ele>722.5</ele>
        <time>2023-09-28T07:34:28Z</time>
      </trkpt>
      <trkpt lat="44.48973" lon="5.72536">
        <ele>722.5</ele>
        <time>2023-09-28T07:34:30Z</time>
      </trkpt>
      <trkpt lat="44.48977" lon="5.72539">
        <ele>722.5</ele>
        <time>2023-09-28T07:34:31Z</time>
      </trkpt>
      <trkpt lat="44.48983" lon="5.72545">
        <ele>722.6</ele>
        <time>2023-09-28T07:34:33Z</time>
      </trkpt>
      <trkpt lat="44.48988" lon="5.7255">
        <ele>722.6</ele>
        <time>2023-09-28T07:34:34Z</time>
      </trkpt>
      <trkpt lat="44.48993" lon="5.72554">
        <ele>722.6</ele>
        <time>2023-09-28T07:34:35Z</time>
      </trkpt>
      <trkpt lat="44.48997" lon="5.72558">
        <ele>722.6</ele>
        <time>2023-09-28T07:34:36Z</time>
      </trkpt>
      <trkpt lat="44.49" lon="5.72562">
        <ele>722.6</ele>
        <time>2023-09-28T07:34:37Z</time>
      </trkpt>
      <trkpt lat="44.49004" lon="5.72566">
        <ele>722.6</ele>
        <time>2023-09-28T07:34:38Z</time>
      </trkpt>
      <trkpt lat="44.49009" lon="5.7257">
        <ele>722.6</ele>
        <time>2023-09-28T07:34:40Z</time>
      </trkpt>
      <trkpt lat="44.49012" lon="5.72574">
        <ele>722.6</ele>
        <time>2023-09-28T07:34:41Z</time>
      </trkpt>
      <trkpt lat="44.49016" lon="5.72577">
        <ele>722.6</ele>
        <time>2023-09-28T07:34:42Z</time>
      </trkpt>
      <trkpt lat="44.49019" lon="5.7258">
        <ele>722.5</ele>
        <time>2023-09-28T07:34:43Z</time>
      </trkpt>
      <trkpt lat="44.49022" lon="5.72584">
        <ele>722.5</ele>
        <time>2023-09-28T07:34:44Z</time>
      </trkpt>
      <trkpt lat="44.49027" lon="5.72588">
        <ele>722.5</ele>
        <time>2023-09-28T07:34:45Z</time>
      </trkpt>
      <trkpt lat="44.49032" lon="5.72593">
        <ele>722.4</ele>
        <time>2023-09-28T07:34:46Z</time>
      </trkpt>
      <trkpt lat="44.49036" lon="5.72597">
        <ele>722.3</ele>
        <time>2023-09-28T07:34:47Z</time>
      </trkpt>
      <trkpt lat="44.4904" lon="5.72602">
        <ele>722.3</ele>
        <time>2023-09-28T07:34:48Z</time>
      </trkpt>
      <trkpt lat="44.49043" lon="5.72607">
        <ele>722.3</ele>
        <time>2023-09-28T07:34:49Z</time>
      </trkpt>
      <trkpt lat="44.49047" lon="5.72612">
        <ele>722.2</ele>
        <time>2023-09-28T07:34:50Z</time>
      </trkpt>
      <trkpt lat="44.4905" lon="5.72617">
        <ele>722.2</ele>
        <time>2023-09-28T07:34:51Z</time>
      </trkpt>
      <trkpt lat="44.49053" lon="5.72623">
        <ele>722.2</ele>
        <time>2023-09-28T07:34:52Z</time>
      </trkpt>
      <trkpt lat="44.49056" lon="5.72629">
        <ele>722.1</ele>
        <time>2023-09-28T07:34:53Z</time>
      </trkpt>
      <trkpt lat="44.49059" lon="5.72634">
        <ele>722.1</ele>
        <time>2023-09-28T07:34:54Z</time>
      </trkpt>
      <trkpt lat="44.49062" lon="5.72639">
        <ele>722.1</ele>
        <time>2023-09-28T07:34:55Z</time>
      </trkpt>
      <trkpt lat="44.49066" lon="5.72643">
        <ele>722.1</ele>
        <time>2023-09-28T07:34:56Z</time>
      </trkpt>
      <trkpt lat="44.4907" lon="5.72648">
        <ele>722.1</ele>
        <time>2023-09-28T07:34:57Z</time>
      </trkpt>
      <trkpt lat="44.49073" lon="5.72653">
        <ele>722.1</ele>
        <time>2023-09-28T07:34:58Z</time>
      </trkpt>
      <trkpt lat="44.49077" lon="5.72657">
        <ele>722</ele>
        <time>2023-09-28T07:34:59Z</time>
      </trkpt>
      <trkpt lat="44.4908" lon="5.72662">
        <ele>722</ele>
        <time>2023-09-28T07:35:00Z</time>
      </trkpt>
      <trkpt lat="44.49083" lon="5.72665">
        <ele>722</ele>
        <time>2023-09-28T07:35:01Z</time>
      </trkpt>
      <trkpt lat="44.49086" lon="5.72669">
        <ele>722</ele>
        <time>2023-09-28T07:35:02Z</time>
      </trkpt>
      <trkpt lat="44.49089" lon="5.72672">
        <ele>722</ele>
        <time>2023-09-28T07:35:03Z</time>
      </trkpt>
      <trkpt lat="44.49092" lon="5.72676">
        <ele>722</ele>
        <time>2023-09-28T07:35:04Z</time>
      </trkpt>
      <trkpt lat="44.49095" lon="5.7268">
        <ele>721.9</ele>
        <time>2023-09-28T07:35:05Z</time>
      </trkpt>
      <trkpt lat="44.49099" lon="5.72684">
        <ele>721.9</ele>
        <time>2023-09-28T07:35:06Z</time>
      </trkpt>
      <trkpt lat="44.49101" lon="5.72689">
        <ele>721.9</ele>
        <time>2023-09-28T07:35:07Z</time>
      </trkpt>
      <trkpt lat="44.49105" lon="5.72694">
        <ele>721.9</ele>
        <time>2023-09-28T07:35:09Z</time>
      </trkpt>
      <trkpt lat="44.49109" lon="5.72701">
        <ele>721.9</ele>
        <time>2023-09-28T07:35:10Z</time>
      </trkpt>
      <trkpt lat="44.49111" lon="5.72706">
        <ele>721.9</ele>
        <time>2023-09-28T07:35:11Z</time>
      </trkpt>
      <trkpt lat="44.49116" lon="5.72715">
        <ele>721.9</ele>
        <time>2023-09-28T07:35:13Z</time>
      </trkpt>
      <trkpt lat="44.49119" lon="5.72721">
        <ele>722</ele>
        <time>2023-09-28T07:35:14Z</time>
      </trkpt>
      <trkpt lat="44.49121" lon="5.72726">
        <ele>722</ele>
        <time>2023-09-28T07:35:15Z</time>
      </trkpt>
      <trkpt lat="44.49124" lon="5.7273">
        <ele>722</ele>
        <time>2023-09-28T07:35:16Z</time>
      </trkpt>
      <trkpt lat="44.49126" lon="5.72736">
        <ele>722.1</ele>
        <time>2023-09-28T07:35:17Z</time>
      </trkpt>
      <trkpt lat="44.49129" lon="5.72742">
        <ele>722.2</ele>
        <time>2023-09-28T07:35:19Z</time>
      </trkpt>
      <trkpt lat="44.49131" lon="5.72746">
        <ele>722.2</ele>
        <time>2023-09-28T07:35:20Z</time>
      </trkpt>
      <trkpt lat="44.49133" lon="5.72751">
        <ele>722.3</ele>
        <time>2023-09-28T07:35:21Z</time>
      </trkpt>
      <trkpt lat="44.49136" lon="5.72756">
        <ele>722.3</ele>
        <time>2023-09-28T07:35:22Z</time>
      </trkpt>
      <trkpt lat="44.49138" lon="5.7276">
        <ele>722.4</ele>
        <time>2023-09-28T07:35:23Z</time>
      </trkpt>
      <trkpt lat="44.4914" lon="5.72764">
        <ele>722.4</ele>
        <time>2023-09-28T07:35:24Z</time>
      </trkpt>
      <trkpt lat="44.49142" lon="5.72769">
        <ele>722.5</ele>
        <time>2023-09-28T07:35:25Z</time>
      </trkpt>
      <trkpt lat="44.49144" lon="5.72773">
        <ele>722.5</ele>
        <time>2023-09-28T07:35:26Z</time>
      </trkpt>
      <trkpt lat="44.49146" lon="5.72778">
        <ele>722.6</ele>
        <time>2023-09-28T07:35:28Z</time>
      </trkpt>
      <trkpt lat="44.49148" lon="5.72783">
        <ele>722.6</ele>
        <time>2023-09-28T07:35:29Z</time>
      </trkpt>
      <trkpt lat="44.49152" lon="5.72788">
        <ele>722.6</ele>
        <time>2023-09-28T07:35:30Z</time>
      </trkpt>
      <trkpt lat="44.49156" lon="5.72789">
        <ele>722.7</ele>
        <time>2023-09-28T07:35:31Z</time>
      </trkpt>
      <trkpt lat="44.49159" lon="5.7279">
        <ele>722.7</ele>
        <time>2023-09-28T07:35:32Z</time>
      </trkpt>
      <trkpt lat="44.49163" lon="5.72791">
        <ele>722.7</ele>
        <time>2023-09-28T07:35:33Z</time>
      </trkpt>
      <trkpt lat="44.49166" lon="5.7279">
        <ele>722.8</ele>
        <time>2023-09-28T07:35:34Z</time>
      </trkpt>
      <trkpt lat="44.4917" lon="5.72788">
        <ele>722.8</ele>
        <time>2023-09-28T07:35:36Z</time>
      </trkpt>
      <trkpt lat="44.49174" lon="5.72788">
        <ele>722.8</ele>
        <time>2023-09-28T07:35:37Z</time>
      </trkpt>
      <trkpt lat="44.49177" lon="5.72788">
        <ele>722.9</ele>
        <time>2023-09-28T07:35:38Z</time>
      </trkpt>
      <trkpt lat="44.49179" lon="5.72789">
        <ele>722.9</ele>
        <time>2023-09-28T07:35:39Z</time>
      </trkpt>
      <trkpt lat="44.49183" lon="5.72791">
        <ele>722.9</ele>
        <time>2023-09-28T07:35:40Z</time>
      </trkpt>
      <trkpt lat="44.49184" lon="5.72792">
        <ele>723</ele>
        <time>2023-09-28T07:35:41Z</time>
      </trkpt>
      <trkpt lat="44.49186" lon="5.72794">
        <ele>723</ele>
        <time>2023-09-28T07:35:42Z</time>
      </trkpt>
      <trkpt lat="44.49188" lon="5.72795">
        <ele>723</ele>
        <time>2023-09-28T07:35:44Z</time>
      </trkpt>
      <trkpt lat="44.49192" lon="5.72799">
        <ele>723</ele>
        <time>2023-09-28T07:35:45Z</time>
      </trkpt>
      <trkpt lat="44.49193" lon="5.72802">
        <ele>723</ele>
        <time>2023-09-28T07:35:46Z</time>
      </trkpt>
      <trkpt lat="44.49193" lon="5.72805">
        <ele>723</ele>
        <time>2023-09-28T07:35:47Z</time>
      </trkpt>
      <trkpt lat="44.49193" lon="5.72808">
        <ele>723</ele>
        <time>2023-09-28T07:35:49Z</time>
      </trkpt>
      <trkpt lat="44.49191" lon="5.72812">
        <ele>723</ele>
        <time>2023-09-28T07:35:50Z</time>
      </trkpt>
      <trkpt lat="44.49191" lon="5.72813">
        <ele>723</ele>
        <time>2023-09-28T07:35:51Z</time>
      </trkpt>
      <trkpt lat="44.4919" lon="5.72814">
        <ele>722.9</ele>
        <time>2023-09-28T07:35:52Z</time>
      </trkpt>
      <trkpt lat="44.49189" lon="5.72815">
        <ele>722.9</ele>
        <time>2023-09-28T07:35:54Z</time>
      </trkpt>
      <trkpt lat="44.4919" lon="5.72815">
        <ele>722.9</ele>
        <time>2023-09-28T07:35:55Z</time>
      </trkpt>
      <trkpt lat="44.4919" lon="5.72814">
        <ele>722.9</ele>
        <time>2023-09-28T07:35:57Z</time>
      </trkpt>
      <trkpt lat="44.4919" lon="5.72814">
        <ele>722.9</ele>
        <time>2023-09-28T07:35:58Z</time>
      </trkpt>
      <trkpt lat="44.4919" lon="5.72815">
        <ele>722.9</ele>
        <time>2023-09-28T07:35:59Z</time>
      </trkpt>
      <trkpt lat="44.4919" lon="5.72815">
        <ele>722.9</ele>
        <time>2023-09-28T07:36:00Z</time>
      </trkpt>
      <trkpt lat="44.4919" lon="5.72815">
        <ele>722.9</ele>
        <time>2023-09-28T07:36:02Z</time>
      </trkpt>
      <trkpt lat="44.49188" lon="5.7282">
        <ele>722.9</ele>
        <time>2023-09-28T07:36:54Z</time>
      </trkpt>
      <trkpt lat="44.49184" lon="5.72822">
        <ele>722.9</ele>
        <time>2023-09-28T07:36:56Z</time>
      </trkpt>
      <trkpt lat="44.4918" lon="5.72822">
        <ele>722.9</ele>
        <time>2023-09-28T07:36:57Z</time>
      </trkpt>
      <trkpt lat="44.49176" lon="5.72823">
        <ele>722.9</ele>
        <time>2023-09-28T07:36:58Z</time>
      </trkpt>
      <trkpt lat="44.49172" lon="5.72823">
        <ele>722.9</ele>
        <time>2023-09-28T07:36:59Z</time>
      </trkpt>
      <trkpt lat="44.49168" lon="5.72824">
        <ele>722.9</ele>
        <time>2023-09-28T07:37:00Z</time>
      </trkpt>
      <trkpt lat="44.49165" lon="5.72826">
        <ele>722.9</ele>
        <time>2023-09-28T07:37:02Z</time>
      </trkpt>
      <trkpt lat="44.49161" lon="5.72829">
        <ele>722.9</ele>
        <time>2023-09-28T07:37:03Z</time>
      </trkpt>
      <trkpt lat="44.49157" lon="5.72831">
        <ele>722.9</ele>
        <time>2023-09-28T07:37:04Z</time>
      </trkpt>
      <trkpt lat="44.49151" lon="5.72833">
        <ele>722.9</ele>
        <time>2023-09-28T07:37:05Z</time>
      </trkpt>
      <trkpt lat="44.49145" lon="5.72834">
        <ele>722.9</ele>
        <time>2023-09-28T07:37:07Z</time>
      </trkpt>
      <trkpt lat="44.49141" lon="5.72836">
        <ele>722.9</ele>
        <time>2023-09-28T07:37:08Z</time>
      </trkpt>
      <trkpt lat="44.49136" lon="5.72838">
        <ele>722.8</ele>
        <time>2023-09-28T07:37:09Z</time>
      </trkpt>
      <trkpt lat="44.49133" lon="5.72839">
        <ele>722.8</ele>
        <time>2023-09-28T07:37:10Z</time>
      </trkpt>
      <trkpt lat="44.49126" lon="5.72843">
        <ele>722.8</ele>
        <time>2023-09-28T07:37:11Z</time>
      </trkpt>
      <trkpt lat="44.49122" lon="5.72844">
        <ele>722.8</ele>
        <time>2023-09-28T07:37:12Z</time>
      </trkpt>
      <trkpt lat="44.49117" lon="5.72846">
        <ele>722.8</ele>
        <time>2023-09-28T07:37:14Z</time>
      </trkpt>
      <trkpt lat="44.49113" lon="5.72848">
        <ele>722.7</ele>
        <time>2023-09-28T07:37:15Z</time>
      </trkpt>
      <trkpt lat="44.49108" lon="5.72849">
        <ele>722.7</ele>
        <time>2023-09-28T07:37:16Z</time>
      </trkpt>
      <trkpt lat="44.49105" lon="5.7285">
        <ele>722.7</ele>
        <time>2023-09-28T07:37:17Z</time>
      </trkpt>
      <trkpt lat="44.49102" lon="5.72854">
        <ele>722.6</ele>
        <time>2023-09-28T07:37:18Z</time>
      </trkpt>
      <trkpt lat="44.49104" lon="5.7286">
        <ele>722.6</ele>
        <time>2023-09-28T07:37:19Z</time>
      </trkpt>
      <trkpt lat="44.49106" lon="5.72866">
        <ele>722.5</ele>
        <time>2023-09-28T07:37:20Z</time>
      </trkpt>
      <trkpt lat="44.49107" lon="5.72871">
        <ele>722.5</ele>
        <time>2023-09-28T07:37:21Z</time>
      </trkpt>
      <trkpt lat="44.49112" lon="5.72882">
        <ele>722.3</ele>
        <time>2023-09-28T07:37:23Z</time>
      </trkpt>
      <trkpt lat="44.49114" lon="5.72887">
        <ele>722.3</ele>
        <time>2023-09-28T07:37:25Z</time>
      </trkpt>
      <trkpt lat="44.49117" lon="5.72893">
        <ele>722.2</ele>
        <time>2023-09-28T07:37:26Z</time>
      </trkpt>
      <trkpt lat="44.49119" lon="5.72899">
        <ele>722.2</ele>
        <time>2023-09-28T07:37:27Z</time>
      </trkpt>
      <trkpt lat="44.49121" lon="5.72904">
        <ele>722.2</ele>
        <time>2023-09-28T07:37:28Z</time>
      </trkpt>
      <trkpt lat="44.49123" lon="5.72909">
        <ele>722.1</ele>
        <time>2023-09-28T07:37:29Z</time>
      </trkpt>
      <trkpt lat="44.49125" lon="5.72914">
        <ele>722.1</ele>
        <time>2023-09-28T07:37:30Z</time>
      </trkpt>
      <trkpt lat="44.49126" lon="5.7292">
        <ele>722</ele>
        <time>2023-09-28T07:37:32Z</time>
      </trkpt>
      <trkpt lat="44.49127" lon="5.72926">
        <ele>722</ele>
        <time>2023-09-28T07:37:33Z</time>
      </trkpt>
      <trkpt lat="44.49127" lon="5.72933">
        <ele>722</ele>
        <time>2023-09-28T07:37:34Z</time>
      </trkpt>
      <trkpt lat="44.49127" lon="5.72939">
        <ele>721.9</ele>
        <time>2023-09-28T07:37:35Z</time>
      </trkpt>
      <trkpt lat="44.49126" lon="5.72945">
        <ele>721.9</ele>
        <time>2023-09-28T07:37:36Z</time>
      </trkpt>
      <trkpt lat="44.49126" lon="5.72951">
        <ele>721.9</ele>
        <time>2023-09-28T07:37:37Z</time>
      </trkpt>
      <trkpt lat="44.49126" lon="5.72957">
        <ele>721.9</ele>
        <time>2023-09-28T07:37:38Z</time>
      </trkpt>
      <trkpt lat="44.49125" lon="5.72963">
        <ele>721.9</ele>
        <time>2023-09-28T07:37:39Z</time>
      </trkpt>
      <trkpt lat="44.49124" lon="5.72972">
        <ele>721.8</ele>
        <time>2023-09-28T07:37:41Z</time>
      </trkpt>
      <trkpt lat="44.49124" lon="5.72978">
        <ele>721.8</ele>
        <time>2023-09-28T07:37:42Z</time>
      </trkpt>
      <trkpt lat="44.49124" lon="5.72983">
        <ele>721.8</ele>
        <time>2023-09-28T07:37:43Z</time>
      </trkpt>
      <trkpt lat="44.49124" lon="5.72988">
        <ele>721.8</ele>
        <time>2023-09-28T07:37:44Z</time>
      </trkpt>
      <trkpt lat="44.49124" lon="5.72994">
        <ele>721.8</ele>
        <time>2023-09-28T07:37:46Z</time>
      </trkpt>
      <trkpt lat="44.49123" lon="5.73003">
        <ele>721.8</ele>
        <time>2023-09-28T07:37:47Z</time>
      </trkpt>
      <trkpt lat="44.49123" lon="5.73009">
        <ele>721.8</ele>
        <time>2023-09-28T07:37:48Z</time>
      </trkpt>
      <trkpt lat="44.49123" lon="5.73015">
        <ele>721.8</ele>
        <time>2023-09-28T07:37:49Z</time>
      </trkpt>
      <trkpt lat="44.49123" lon="5.73021">
        <ele>721.8</ele>
        <time>2023-09-28T07:37:50Z</time>
      </trkpt>
      <trkpt lat="44.49122" lon="5.73027">
        <ele>721.8</ele>
        <time>2023-09-28T07:37:52Z</time>
      </trkpt>
      <trkpt lat="44.49122" lon="5.73034">
        <ele>721.8</ele>
        <time>2023-09-28T07:37:53Z</time>
      </trkpt>
      <trkpt lat="44.49121" lon="5.73039">
        <ele>721.8</ele>
        <time>2023-09-28T07:37:54Z</time>
      </trkpt>
      <trkpt lat="44.49121" lon="5.73041">
        <ele>721.8</ele>
        <time>2023-09-28T07:37:55Z</time>
      </trkpt>
      <trkpt lat="44.49121" lon="5.73043">
        <ele>721.8</ele>
        <time>2023-09-28T07:37:56Z</time>
      </trkpt>
      <trkpt lat="44.49121" lon="5.73044">
        <ele>721.8</ele>
        <time>2023-09-28T07:37:57Z</time>
      </trkpt>
      <trkpt lat="44.49121" lon="5.73044">
        <ele>721.8</ele>
        <time>2023-09-28T07:37:58Z</time>
      </trkpt>
      <trkpt lat="44.4912" lon="5.73044">
        <ele>721.8</ele>
        <time>2023-09-28T07:38:00Z</time>
      </trkpt>
      <trkpt lat="44.4912" lon="5.73044">
        <ele>721.8</ele>
        <time>2023-09-28T07:38:01Z</time>
      </trkpt>
      <trkpt lat="44.49121" lon="5.73044">
        <ele>721.8</ele>
        <time>2023-09-28T07:38:02Z</time>
      </trkpt>
      <trkpt lat="44.49121" lon="5.73043">
        <ele>721.8</ele>
        <time>2023-09-28T07:38:03Z</time>
      </trkpt>
      <trkpt lat="44.49121" lon="5.73043">
        <ele>721.8</ele>
        <time>2023-09-28T07:38:05Z</time>
      </trkpt>
      <trkpt lat="44.49121" lon="5.73043">
        <ele>721.8</ele>
        <time>2023-09-28T07:38:06Z</time>
      </trkpt>
      <trkpt lat="44.49121" lon="5.73042">
        <ele>721.8</ele>
        <time>2023-09-28T07:38:07Z</time>
      </trkpt>
      <trkpt lat="44.49121" lon="5.73047">
        <ele>721.8</ele>
        <time>2023-09-28T07:38:35Z</time>
      </trkpt>
      <trkpt lat="44.49121" lon="5.73052">
        <ele>721.8</ele>
        <time>2023-09-28T07:38:36Z</time>
      </trkpt>
      <trkpt lat="44.49121" lon="5.73057">
        <ele>721.9</ele>
        <time>2023-09-28T07:38:37Z</time>
      </trkpt>
      <trkpt lat="44.4912" lon="5.73063">
        <ele>721.9</ele>
        <time>2023-09-28T07:38:38Z</time>
      </trkpt>
      <trkpt lat="44.4912" lon="5.73069">
        <ele>721.9</ele>
        <time>2023-09-28T07:38:39Z</time>
      </trkpt>
      <trkpt lat="44.49119" lon="5.73075">
        <ele>721.9</ele>
        <time>2023-09-28T07:38:40Z</time>
      </trkpt>
      <trkpt lat="44.49119" lon="5.73081">
        <ele>721.9</ele>
        <time>2023-09-28T07:38:41Z</time>
      </trkpt>
      <trkpt lat="44.49119" lon="5.73088">
        <ele>722</ele>
        <time>2023-09-28T07:38:42Z</time>
      </trkpt>
      <trkpt lat="44.49119" lon="5.73095">
        <ele>722</ele>
        <time>2023-09-28T07:38:44Z</time>
      </trkpt>
      <trkpt lat="44.49119" lon="5.73099">
        <ele>722.1</ele>
        <time>2023-09-28T07:38:45Z</time>
      </trkpt>
      <trkpt lat="44.49118" lon="5.73107">
        <ele>722.1</ele>
        <time>2023-09-28T07:38:46Z</time>
      </trkpt>
      <trkpt lat="44.49118" lon="5.73113">
        <ele>722.2</ele>
        <time>2023-09-28T07:38:47Z</time>
      </trkpt>
      <trkpt lat="44.49118" lon="5.73119">
        <ele>722.2</ele>
        <time>2023-09-28T07:38:48Z</time>
      </trkpt>
      <trkpt lat="44.49118" lon="5.73125">
        <ele>722.3</ele>
        <time>2023-09-28T07:38:49Z</time>
      </trkpt>
      <trkpt lat="44.49118" lon="5.73131">
        <ele>722.4</ele>
        <time>2023-09-28T07:38:50Z</time>
      </trkpt>
      <trkpt lat="44.49118" lon="5.73139">
        <ele>722.5</ele>
        <time>2023-09-28T07:38:52Z</time>
      </trkpt>
      <trkpt lat="44.49117" lon="5.73145">
        <ele>722.5</ele>
        <time>2023-09-28T07:38:53Z</time>
      </trkpt>
      <trkpt lat="44.49117" lon="5.73151">
        <ele>722.6</ele>
        <time>2023-09-28T07:38:54Z</time>
      </trkpt>
      <trkpt lat="44.49117" lon="5.73157">
        <ele>722.7</ele>
        <time>2023-09-28T07:38:55Z</time>
      </trkpt>
      <trkpt lat="44.49117" lon="5.73162">
        <ele>722.7</ele>
        <time>2023-09-28T07:38:56Z</time>
      </trkpt>
      <trkpt lat="44.49117" lon="5.73168">
        <ele>722.8</ele>
        <time>2023-09-28T07:38:57Z</time>
      </trkpt>
      <trkpt lat="44.49117" lon="5.73174">
        <ele>722.9</ele>
        <time>2023-09-28T07:38:58Z</time>
      </trkpt>
      <trkpt lat="44.49117" lon="5.73178">
        <ele>722.9</ele>
        <time>2023-09-28T07:38:59Z</time>
      </trkpt>
      <trkpt lat="44.49118" lon="5.73184">
        <ele>723</ele>
        <time>2023-09-28T07:39:00Z</time>
      </trkpt>
      <trkpt lat="44.49118" lon="5.73192">
        <ele>723.2</ele>
        <time>2023-09-28T07:39:02Z</time>
      </trkpt>
      <trkpt lat="44.49118" lon="5.73198">
        <ele>723.3</ele>
        <time>2023-09-28T07:39:03Z</time>
      </trkpt>
      <trkpt lat="44.49118" lon="5.73203">
        <ele>723.4</ele>
        <time>2023-09-28T07:39:04Z</time>
      </trkpt>
      <trkpt lat="44.49119" lon="5.7321">
        <ele>723.5</ele>
        <time>2023-09-28T07:39:06Z</time>
      </trkpt>
      <trkpt lat="44.49118" lon="5.73216">
        <ele>723.6</ele>
        <time>2023-09-28T07:39:07Z</time>
      </trkpt>
      <trkpt lat="44.49118" lon="5.73221">
        <ele>723.7</ele>
        <time>2023-09-28T07:39:08Z</time>
      </trkpt>
      <trkpt lat="44.49118" lon="5.7323">
        <ele>723.8</ele>
        <time>2023-09-28T07:39:09Z</time>
      </trkpt>
      <trkpt lat="44.49118" lon="5.73236">
        <ele>723.9</ele>
        <time>2023-09-28T07:39:10Z</time>
      </trkpt>
      <trkpt lat="44.49119" lon="5.73243">
        <ele>724</ele>
        <time>2023-09-28T07:39:12Z</time>
      </trkpt>
      <trkpt lat="44.49119" lon="5.73251">
        <ele>724</ele>
        <time>2023-09-28T07:39:13Z</time>
      </trkpt>
      <trkpt lat="44.4912" lon="5.73257">
        <ele>724.1</ele>
        <time>2023-09-28T07:39:14Z</time>
      </trkpt>
      <trkpt lat="44.4912" lon="5.73264">
        <ele>724.1</ele>
        <time>2023-09-28T07:39:16Z</time>
      </trkpt>
      <trkpt lat="44.49121" lon="5.73271">
        <ele>724.2</ele>
        <time>2023-09-28T07:39:17Z</time>
      </trkpt>
      <trkpt lat="44.49122" lon="5.73276">
        <ele>724.2</ele>
        <time>2023-09-28T07:39:18Z</time>
      </trkpt>
      <trkpt lat="44.49123" lon="5.73284">
        <ele>724.3</ele>
        <time>2023-09-28T07:39:19Z</time>
      </trkpt>
      <trkpt lat="44.49123" lon="5.7329">
        <ele>724.3</ele>
        <time>2023-09-28T07:39:20Z</time>
      </trkpt>
      <trkpt lat="44.49124" lon="5.73297">
        <ele>724.4</ele>
        <time>2023-09-28T07:39:21Z</time>
      </trkpt>
      <trkpt lat="44.49125" lon="5.73303">
        <ele>724.4</ele>
        <time>2023-09-28T07:39:22Z</time>
      </trkpt>
      <trkpt lat="44.49127" lon="5.73313">
        <ele>724.5</ele>
        <time>2023-09-28T07:39:24Z</time>
      </trkpt>
      <trkpt lat="44.49128" lon="5.7332">
        <ele>724.6</ele>
        <time>2023-09-28T07:39:25Z</time>
      </trkpt>
      <trkpt lat="44.49129" lon="5.73326">
        <ele>724.6</ele>
        <time>2023-09-28T07:39:26Z</time>
      </trkpt>
      <trkpt lat="44.4913" lon="5.73332">
        <ele>724.7</ele>
        <time>2023-09-28T07:39:27Z</time>
      </trkpt>
      <trkpt lat="44.49131" lon="5.73339">
        <ele>724.7</ele>
        <time>2023-09-28T07:39:28Z</time>
      </trkpt>
      <trkpt lat="44.49132" lon="5.73346">
        <ele>724.8</ele>
        <time>2023-09-28T07:39:30Z</time>
      </trkpt>
      <trkpt lat="44.49133" lon="5.73352">
        <ele>724.8</ele>
        <time>2023-09-28T07:39:31Z</time>
      </trkpt>
      <trkpt lat="44.49134" lon="5.73359">
        <ele>724.9</ele>
        <time>2023-09-28T07:39:32Z</time>
      </trkpt>
      <trkpt lat="44.49135" lon="5.73365">
        <ele>724.9</ele>
        <time>2023-09-28T07:39:33Z</time>
      </trkpt>
      <trkpt lat="44.49135" lon="5.73371">
        <ele>725</ele>
        <time>2023-09-28T07:39:34Z</time>
      </trkpt>
      <trkpt lat="44.49136" lon="5.73377">
        <ele>725.1</ele>
        <time>2023-09-28T07:39:35Z</time>
      </trkpt>
      <trkpt lat="44.49137" lon="5.73384">
        <ele>725.1</ele>
        <time>2023-09-28T07:39:37Z</time>
      </trkpt>
      <trkpt lat="44.49138" lon="5.73391">
        <ele>725.2</ele>
        <time>2023-09-28T07:39:38Z</time>
      </trkpt>
      <trkpt lat="44.49139" lon="5.73396">
        <ele>725.2</ele>
        <time>2023-09-28T07:39:39Z</time>
      </trkpt>
      <trkpt lat="44.4914" lon="5.73402">
        <ele>725.3</ele>
        <time>2023-09-28T07:39:40Z</time>
      </trkpt>
      <trkpt lat="44.49141" lon="5.73409">
        <ele>725.4</ele>
        <time>2023-09-28T07:39:41Z</time>
      </trkpt>
      <trkpt lat="44.49142" lon="5.73415">
        <ele>725.4</ele>
        <time>2023-09-28T07:39:42Z</time>
      </trkpt>
      <trkpt lat="44.49143" lon="5.7342">
        <ele>725.5</ele>
        <time>2023-09-28T07:39:43Z</time>
      </trkpt>
      <trkpt lat="44.49144" lon="5.73427">
        <ele>725.6</ele>
        <time>2023-09-28T07:39:45Z</time>
      </trkpt>
      <trkpt lat="44.49145" lon="5.73435">
        <ele>725.7</ele>
        <time>2023-09-28T07:39:46Z</time>
      </trkpt>
      <trkpt lat="44.49147" lon="5.73441">
        <ele>725.8</ele>
        <time>2023-09-28T07:39:47Z</time>
      </trkpt>
      <trkpt lat="44.49148" lon="5.73446">
        <ele>725.9</ele>
        <time>2023-09-28T07:39:48Z</time>
      </trkpt>
      <trkpt lat="44.49149" lon="5.73453">
        <ele>726</ele>
        <time>2023-09-28T07:39:49Z</time>
      </trkpt>
      <trkpt lat="44.49151" lon="5.73462">
        <ele>726.2</ele>
        <time>2023-09-28T07:39:51Z</time>
      </trkpt>
      <trkpt lat="44.49152" lon="5.73469">
        <ele>726.4</ele>
        <time>2023-09-28T07:39:53Z</time>
      </trkpt>
      <trkpt lat="44.49152" lon="5.73475">
        <ele>726.5</ele>
        <time>2023-09-28T07:39:54Z</time>
      </trkpt>
      <trkpt lat="44.49153" lon="5.73481">
        <ele>726.6</ele>
        <time>2023-09-28T07:39:55Z</time>
      </trkpt>
      <trkpt lat="44.49154" lon="5.73487">
        <ele>726.7</ele>
        <time>2023-09-28T07:39:56Z</time>
      </trkpt>
      <trkpt lat="44.49154" lon="5.73491">
        <ele>726.8</ele>
        <time>2023-09-28T07:39:57Z</time>
      </trkpt>
      <trkpt lat="44.49154" lon="5.73497">
        <ele>726.9</ele>
        <time>2023-09-28T07:39:58Z</time>
      </trkpt>
      <trkpt lat="44.49155" lon="5.73503">
        <ele>727</ele>
        <time>2023-09-28T07:39:59Z</time>
      </trkpt>
      <trkpt lat="44.49155" lon="5.73513">
        <ele>727.2</ele>
        <time>2023-09-28T07:40:01Z</time>
      </trkpt>
      <trkpt lat="44.49155" lon="5.73519">
        <ele>727.4</ele>
        <time>2023-09-28T07:40:02Z</time>
      </trkpt>
      <trkpt lat="44.49156" lon="5.73525">
        <ele>727.5</ele>
        <time>2023-09-28T07:40:03Z</time>
      </trkpt>
      <trkpt lat="44.49156" lon="5.73529">
        <ele>727.6</ele>
        <time>2023-09-28T07:40:04Z</time>
      </trkpt>
      <trkpt lat="44.49155" lon="5.73535">
        <ele>727.7</ele>
        <time>2023-09-28T07:40:05Z</time>
      </trkpt>
      <trkpt lat="44.49155" lon="5.7354">
        <ele>727.9</ele>
        <time>2023-09-28T07:40:06Z</time>
      </trkpt>
      <trkpt lat="44.49155" lon="5.73546">
        <ele>728</ele>
        <time>2023-09-28T07:40:08Z</time>
      </trkpt>
      <trkpt lat="44.49156" lon="5.73553">
        <ele>728.2</ele>
        <time>2023-09-28T07:40:09Z</time>
      </trkpt>
      <trkpt lat="44.49156" lon="5.73557">
        <ele>728.3</ele>
        <time>2023-09-28T07:40:10Z</time>
      </trkpt>
      <trkpt lat="44.49157" lon="5.73563">
        <ele>728.4</ele>
        <time>2023-09-28T07:40:11Z</time>
      </trkpt>
      <trkpt lat="44.49158" lon="5.73569">
        <ele>728.6</ele>
        <time>2023-09-28T07:40:12Z</time>
      </trkpt>
      <trkpt lat="44.49158" lon="5.73574">
        <ele>728.7</ele>
        <time>2023-09-28T07:40:13Z</time>
      </trkpt>
      <trkpt lat="44.49159" lon="5.7358">
        <ele>728.8</ele>
        <time>2023-09-28T07:40:14Z</time>
      </trkpt>
      <trkpt lat="44.49159" lon="5.73585">
        <ele>729</ele>
        <time>2023-09-28T07:40:15Z</time>
      </trkpt>
      <trkpt lat="44.49159" lon="5.73591">
        <ele>729.2</ele>
        <time>2023-09-28T07:40:16Z</time>
      </trkpt>
      <trkpt lat="44.49159" lon="5.73596">
        <ele>729.3</ele>
        <time>2023-09-28T07:40:18Z</time>
      </trkpt>
      <trkpt lat="44.4916" lon="5.73602">
        <ele>729.5</ele>
        <time>2023-09-28T07:40:19Z</time>
      </trkpt>
      <trkpt lat="44.49161" lon="5.73608">
        <ele>729.7</ele>
        <time>2023-09-28T07:40:20Z</time>
      </trkpt>
      <trkpt lat="44.49161" lon="5.73613">
        <ele>729.9</ele>
        <time>2023-09-28T07:40:21Z</time>
      </trkpt>
      <trkpt lat="44.49162" lon="5.73619">
        <ele>730</ele>
        <time>2023-09-28T07:40:22Z</time>
      </trkpt>
      <trkpt lat="44.49162" lon="5.73624">
        <ele>730.1</ele>
        <time>2023-09-28T07:40:23Z</time>
      </trkpt>
      <trkpt lat="44.49163" lon="5.73629">
        <ele>730.3</ele>
        <time>2023-09-28T07:40:24Z</time>
      </trkpt>
      <trkpt lat="44.49163" lon="5.73635">
        <ele>730.4</ele>
        <time>2023-09-28T07:40:25Z</time>
      </trkpt>
      <trkpt lat="44.49163" lon="5.73641">
        <ele>730.5</ele>
        <time>2023-09-28T07:40:26Z</time>
      </trkpt>
      <trkpt lat="44.49164" lon="5.73647">
        <ele>730.6</ele>
        <time>2023-09-28T07:40:27Z</time>
      </trkpt>
      <trkpt lat="44.49164" lon="5.73653">
        <ele>730.7</ele>
        <time>2023-09-28T07:40:28Z</time>
      </trkpt>
      <trkpt lat="44.49165" lon="5.7366">
        <ele>730.8</ele>
        <time>2023-09-28T07:40:30Z</time>
      </trkpt>
      <trkpt lat="44.49166" lon="5.73667">
        <ele>730.9</ele>
        <time>2023-09-28T07:40:31Z</time>
      </trkpt>
      <trkpt lat="44.49166" lon="5.73672">
        <ele>731</ele>
        <time>2023-09-28T07:40:32Z</time>
      </trkpt>
      <trkpt lat="44.49166" lon="5.73679">
        <ele>731</ele>
        <time>2023-09-28T07:40:33Z</time>
      </trkpt>
      <trkpt lat="44.49167" lon="5.73684">
        <ele>731</ele>
        <time>2023-09-28T07:40:34Z</time>
      </trkpt>
      <trkpt lat="44.49167" lon="5.73692">
        <ele>731.1</ele>
        <time>2023-09-28T07:40:36Z</time>
      </trkpt>
      <trkpt lat="44.49168" lon="5.73703">
        <ele>731</ele>
        <time>2023-09-28T07:40:37Z</time>
      </trkpt>
      <trkpt lat="44.49169" lon="5.7371">
        <ele>731</ele>
        <time>2023-09-28T07:40:38Z</time>
      </trkpt>
      <trkpt lat="44.49169" lon="5.73717">
        <ele>731</ele>
        <time>2023-09-28T07:40:39Z</time>
      </trkpt>
      <trkpt lat="44.4917" lon="5.73724">
        <ele>731</ele>
        <time>2023-09-28T07:40:40Z</time>
      </trkpt>
      <trkpt lat="44.49171" lon="5.73731">
        <ele>730.9</ele>
        <time>2023-09-28T07:40:41Z</time>
      </trkpt>
      <trkpt lat="44.49171" lon="5.73738">
        <ele>730.9</ele>
        <time>2023-09-28T07:40:42Z</time>
      </trkpt>
      <trkpt lat="44.49172" lon="5.73745">
        <ele>730.9</ele>
        <time>2023-09-28T07:40:43Z</time>
      </trkpt>
      <trkpt lat="44.49172" lon="5.73752">
        <ele>730.9</ele>
        <time>2023-09-28T07:40:44Z</time>
      </trkpt>
      <trkpt lat="44.49173" lon="5.73759">
        <ele>730.9</ele>
        <time>2023-09-28T07:40:45Z</time>
      </trkpt>
      <trkpt lat="44.49173" lon="5.73766">
        <ele>730.8</ele>
        <time>2023-09-28T07:40:46Z</time>
      </trkpt>
      <trkpt lat="44.49174" lon="5.73774">
        <ele>730.8</ele>
        <time>2023-09-28T07:40:47Z</time>
      </trkpt>
      <trkpt lat="44.49174" lon="5.73781">
        <ele>730.8</ele>
        <time>2023-09-28T07:40:48Z</time>
      </trkpt>
      <trkpt lat="44.49175" lon="5.73788">
        <ele>730.8</ele>
        <time>2023-09-28T07:40:49Z</time>
      </trkpt>
      <trkpt lat="44.49175" lon="5.73796">
        <ele>730.8</ele>
        <time>2023-09-28T07:40:50Z</time>
      </trkpt>
      <trkpt lat="44.49176" lon="5.73803">
        <ele>730.7</ele>
        <time>2023-09-28T07:40:51Z</time>
      </trkpt>
      <trkpt lat="44.49176" lon="5.7381">
        <ele>730.7</ele>
        <time>2023-09-28T07:40:52Z</time>
      </trkpt>
      <trkpt lat="44.49177" lon="5.73817">
        <ele>730.7</ele>
        <time>2023-09-28T07:40:53Z</time>
      </trkpt>
      <trkpt lat="44.49177" lon="5.73825">
        <ele>730.7</ele>
        <time>2023-09-28T07:40:54Z</time>
      </trkpt>
      <trkpt lat="44.49178" lon="5.73832">
        <ele>730.8</ele>
        <time>2023-09-28T07:40:55Z</time>
      </trkpt>
      <trkpt lat="44.49178" lon="5.7384">
        <ele>730.8</ele>
        <time>2023-09-28T07:40:56Z</time>
      </trkpt>
      <trkpt lat="44.49179" lon="5.73847">
        <ele>730.8</ele>
        <time>2023-09-28T07:40:57Z</time>
      </trkpt>
      <trkpt lat="44.49179" lon="5.73855">
        <ele>730.8</ele>
        <time>2023-09-28T07:40:58Z</time>
      </trkpt>
      <trkpt lat="44.4918" lon="5.73862">
        <ele>730.8</ele>
        <time>2023-09-28T07:40:59Z</time>
      </trkpt>
      <trkpt lat="44.4918" lon="5.73869">
        <ele>730.9</ele>
        <time>2023-09-28T07:41:00Z</time>
      </trkpt>
      <trkpt lat="44.49181" lon="5.73877">
        <ele>730.9</ele>
        <time>2023-09-28T07:41:01Z</time>
      </trkpt>
      <trkpt lat="44.49182" lon="5.73884">
        <ele>730.9</ele>
        <time>2023-09-28T07:41:02Z</time>
      </trkpt>
      <trkpt lat="44.49182" lon="5.73891">
        <ele>730.9</ele>
        <time>2023-09-28T07:41:03Z</time>
      </trkpt>
      <trkpt lat="44.49182" lon="5.73899">
        <ele>731</ele>
        <time>2023-09-28T07:41:04Z</time>
      </trkpt>
      <trkpt lat="44.49183" lon="5.73906">
        <ele>731</ele>
        <time>2023-09-28T07:41:05Z</time>
      </trkpt>
      <trkpt lat="44.49183" lon="5.73913">
        <ele>731.1</ele>
        <time>2023-09-28T07:41:06Z</time>
      </trkpt>
      <trkpt lat="44.49184" lon="5.7392">
        <ele>731.1</ele>
        <time>2023-09-28T07:41:07Z</time>
      </trkpt>
      <trkpt lat="44.49184" lon="5.73928">
        <ele>731.2</ele>
        <time>2023-09-28T07:41:08Z</time>
      </trkpt>
      <trkpt lat="44.49185" lon="5.73935">
        <ele>731.3</ele>
        <time>2023-09-28T07:41:09Z</time>
      </trkpt>
      <trkpt lat="44.49186" lon="5.73942">
        <ele>731.4</ele>
        <time>2023-09-28T07:41:10Z</time>
      </trkpt>
      <trkpt lat="44.49187" lon="5.73949">
        <ele>731.5</ele>
        <time>2023-09-28T07:41:11Z</time>
      </trkpt>
      <trkpt lat="44.49187" lon="5.73956">
        <ele>731.6</ele>
        <time>2023-09-28T07:41:12Z</time>
      </trkpt>
      <trkpt lat="44.49188" lon="5.73963">
        <ele>731.6</ele>
        <time>2023-09-28T07:41:13Z</time>
      </trkpt>
      <trkpt lat="44.49189" lon="5.7397">
        <ele>731.8</ele>
        <time>2023-09-28T07:41:14Z</time>
      </trkpt>
      <trkpt lat="44.49189" lon="5.73976">
        <ele>731.9</ele>
        <time>2023-09-28T07:41:15Z</time>
      </trkpt>
      <trkpt lat="44.4919" lon="5.73983">
        <ele>732.1</ele>
        <time>2023-09-28T07:41:16Z</time>
      </trkpt>
      <trkpt lat="44.49191" lon="5.7399">
        <ele>732.2</ele>
        <time>2023-09-28T07:41:17Z</time>
      </trkpt>
      <trkpt lat="44.49192" lon="5.73996">
        <ele>732.3</ele>
        <time>2023-09-28T07:41:18Z</time>
      </trkpt>
      <trkpt lat="44.49192" lon="5.74003">
        <ele>732.5</ele>
        <time>2023-09-28T07:41:19Z</time>
      </trkpt>
      <trkpt lat="44.49193" lon="5.74009">
        <ele>732.6</ele>
        <time>2023-09-28T07:41:20Z</time>
      </trkpt>
      <trkpt lat="44.49194" lon="5.74015">
        <ele>732.7</ele>
        <time>2023-09-28T07:41:21Z</time>
      </trkpt>
      <trkpt lat="44.49195" lon="5.74022">
        <ele>732.9</ele>
        <time>2023-09-28T07:41:22Z</time>
      </trkpt>
      <trkpt lat="44.49196" lon="5.74028">
        <ele>733</ele>
        <time>2023-09-28T07:41:23Z</time>
      </trkpt>
      <trkpt lat="44.49196" lon="5.74034">
        <ele>733.1</ele>
        <time>2023-09-28T07:41:24Z</time>
      </trkpt>
      <trkpt lat="44.49197" lon="5.7404">
        <ele>733.3</ele>
        <time>2023-09-28T07:41:25Z</time>
      </trkpt>
      <trkpt lat="44.49197" lon="5.74046">
        <ele>733.4</ele>
        <time>2023-09-28T07:41:26Z</time>
      </trkpt>
      <trkpt lat="44.49198" lon="5.74052">
        <ele>733.5</ele>
        <time>2023-09-28T07:41:27Z</time>
      </trkpt>
      <trkpt lat="44.49199" lon="5.74059">
        <ele>733.7</ele>
        <time>2023-09-28T07:41:28Z</time>
      </trkpt>
      <trkpt lat="44.492" lon="5.74065">
        <ele>733.8</ele>
        <time>2023-09-28T07:41:29Z</time>
      </trkpt>
      <trkpt lat="44.492" lon="5.74071">
        <ele>733.9</ele>
        <time>2023-09-28T07:41:30Z</time>
      </trkpt>
      <trkpt lat="44.49201" lon="5.74077">
        <ele>734</ele>
        <time>2023-09-28T07:41:31Z</time>
      </trkpt>
      <trkpt lat="44.49202" lon="5.74083">
        <ele>734.2</ele>
        <time>2023-09-28T07:41:32Z</time>
      </trkpt>
      <trkpt lat="44.49201" lon="5.74088">
        <ele>734.3</ele>
        <time>2023-09-28T07:41:33Z</time>
      </trkpt>
      <trkpt lat="44.49201" lon="5.74094">
        <ele>734.4</ele>
        <time>2023-09-28T07:41:34Z</time>
      </trkpt>
      <trkpt lat="44.49203" lon="5.74103">
        <ele>734.6</ele>
        <time>2023-09-28T07:41:36Z</time>
      </trkpt>
      <trkpt lat="44.49204" lon="5.74109">
        <ele>734.8</ele>
        <time>2023-09-28T07:41:37Z</time>
      </trkpt>
      <trkpt lat="44.49204" lon="5.74118">
        <ele>735</ele>
        <time>2023-09-28T07:41:38Z</time>
      </trkpt>
      <trkpt lat="44.49205" lon="5.74123">
        <ele>735.1</ele>
        <time>2023-09-28T07:41:39Z</time>
      </trkpt>
      <trkpt lat="44.49205" lon="5.74131">
        <ele>735.2</ele>
        <time>2023-09-28T07:41:40Z</time>
      </trkpt>
      <trkpt lat="44.49206" lon="5.74138">
        <ele>735.4</ele>
        <time>2023-09-28T07:41:41Z</time>
      </trkpt>
      <trkpt lat="44.49206" lon="5.74144">
        <ele>735.5</ele>
        <time>2023-09-28T07:41:42Z</time>
      </trkpt>
      <trkpt lat="44.49207" lon="5.74151">
        <ele>735.6</ele>
        <time>2023-09-28T07:41:44Z</time>
      </trkpt>
      <trkpt lat="44.49207" lon="5.74158">
        <ele>735.7</ele>
        <time>2023-09-28T07:41:45Z</time>
      </trkpt>
      <trkpt lat="44.49207" lon="5.74164">
        <ele>735.8</ele>
        <time>2023-09-28T07:41:46Z</time>
      </trkpt>
      <trkpt lat="44.49206" lon="5.74172">
        <ele>736</ele>
        <time>2023-09-28T07:41:47Z</time>
      </trkpt>
      <trkpt lat="44.49206" lon="5.74178">
        <ele>736.1</ele>
        <time>2023-09-28T07:41:48Z</time>
      </trkpt>
      <trkpt lat="44.49206" lon="5.74184">
        <ele>736.2</ele>
        <time>2023-09-28T07:41:49Z</time>
      </trkpt>
      <trkpt lat="44.49204" lon="5.74191">
        <ele>736.4</ele>
        <time>2023-09-28T07:41:50Z</time>
      </trkpt>
      <trkpt lat="44.49202" lon="5.74198">
        <ele>736.5</ele>
        <time>2023-09-28T07:41:52Z</time>
      </trkpt>
      <trkpt lat="44.49201" lon="5.74205">
        <ele>736.6</ele>
        <time>2023-09-28T07:41:53Z</time>
      </trkpt>
      <trkpt lat="44.49199" lon="5.7421">
        <ele>736.7</ele>
        <time>2023-09-28T07:41:54Z</time>
      </trkpt>
      <trkpt lat="44.49199" lon="5.74215">
        <ele>736.8</ele>
        <time>2023-09-28T07:41:55Z</time>
      </trkpt>
      <trkpt lat="44.49197" lon="5.74222">
        <ele>736.9</ele>
        <time>2023-09-28T07:41:56Z</time>
      </trkpt>
      <trkpt lat="44.49196" lon="5.74229">
        <ele>737</ele>
        <time>2023-09-28T07:41:57Z</time>
      </trkpt>
      <trkpt lat="44.49194" lon="5.74234">
        <ele>737.1</ele>
        <time>2023-09-28T07:41:58Z</time>
      </trkpt>
      <trkpt lat="44.49193" lon="5.74239">
        <ele>737.1</ele>
        <time>2023-09-28T07:41:59Z</time>
      </trkpt>
      <trkpt lat="44.49191" lon="5.74246">
        <ele>737.2</ele>
        <time>2023-09-28T07:42:01Z</time>
      </trkpt>
      <trkpt lat="44.49189" lon="5.74253">
        <ele>737.3</ele>
        <time>2023-09-28T07:42:02Z</time>
      </trkpt>
      <trkpt lat="44.49187" lon="5.74259">
        <ele>737.4</ele>
        <time>2023-09-28T07:42:03Z</time>
      </trkpt>
      <trkpt lat="44.49184" lon="5.74264">
        <ele>737.5</ele>
        <time>2023-09-28T07:42:04Z</time>
      </trkpt>
      <trkpt lat="44.49182" lon="5.74269">
        <ele>737.5</ele>
        <time>2023-09-28T07:42:05Z</time>
      </trkpt>
      <trkpt lat="44.4918" lon="5.74275">
        <ele>737.6</ele>
        <time>2023-09-28T07:42:06Z</time>
      </trkpt>
      <trkpt lat="44.49177" lon="5.74281">
        <ele>737.6</ele>
        <time>2023-09-28T07:42:07Z</time>
      </trkpt>
      <trkpt lat="44.49175" lon="5.74286">
        <ele>737.7</ele>
        <time>2023-09-28T07:42:08Z</time>
      </trkpt>
      <trkpt lat="44.49173" lon="5.74292">
        <ele>737.7</ele>
        <time>2023-09-28T07:42:09Z</time>
      </trkpt>
      <trkpt lat="44.4917" lon="5.74297">
        <ele>737.7</ele>
        <time>2023-09-28T07:42:10Z</time>
      </trkpt>
      <trkpt lat="44.49168" lon="5.74303">
        <ele>737.8</ele>
        <time>2023-09-28T07:42:11Z</time>
      </trkpt>
      <trkpt lat="44.49166" lon="5.74308">
        <ele>737.8</ele>
        <time>2023-09-28T07:42:12Z</time>
      </trkpt>
      <trkpt lat="44.49163" lon="5.74314">
        <ele>737.9</ele>
        <time>2023-09-28T07:42:13Z</time>
      </trkpt>
      <trkpt lat="44.49161" lon="5.7432">
        <ele>737.9</ele>
        <time>2023-09-28T07:42:14Z</time>
      </trkpt>
      <trkpt lat="44.49159" lon="5.74325">
        <ele>737.9</ele>
        <time>2023-09-28T07:42:15Z</time>
      </trkpt>
      <trkpt lat="44.49156" lon="5.7433">
        <ele>737.9</ele>
        <time>2023-09-28T07:42:16Z</time>
      </trkpt>
      <trkpt lat="44.49154" lon="5.74336">
        <ele>737.9</ele>
        <time>2023-09-28T07:42:17Z</time>
      </trkpt>
      <trkpt lat="44.49151" lon="5.74342">
        <ele>737.9</ele>
        <time>2023-09-28T07:42:18Z</time>
      </trkpt>
      <trkpt lat="44.49149" lon="5.74348">
        <ele>737.9</ele>
        <time>2023-09-28T07:42:19Z</time>
      </trkpt>
      <trkpt lat="44.49146" lon="5.74353">
        <ele>737.9</ele>
        <time>2023-09-28T07:42:20Z</time>
      </trkpt>
      <trkpt lat="44.49144" lon="5.7436">
        <ele>737.9</ele>
        <time>2023-09-28T07:42:21Z</time>
      </trkpt>
      <trkpt lat="44.49141" lon="5.74366">
        <ele>737.9</ele>
        <time>2023-09-28T07:42:22Z</time>
      </trkpt>
      <trkpt lat="44.49139" lon="5.74372">
        <ele>737.9</ele>
        <time>2023-09-28T07:42:23Z</time>
      </trkpt>
      <trkpt lat="44.49136" lon="5.74378">
        <ele>737.9</ele>
        <time>2023-09-28T07:42:24Z</time>
      </trkpt>
      <trkpt lat="44.49134" lon="5.74384">
        <ele>737.9</ele>
        <time>2023-09-28T07:42:25Z</time>
      </trkpt>
      <trkpt lat="44.49131" lon="5.7439">
        <ele>737.9</ele>
        <time>2023-09-28T07:42:26Z</time>
      </trkpt>
      <trkpt lat="44.49128" lon="5.74396">
        <ele>737.9</ele>
        <time>2023-09-28T07:42:27Z</time>
      </trkpt>
      <trkpt lat="44.49126" lon="5.74403">
        <ele>737.9</ele>
        <time>2023-09-28T07:42:28Z</time>
      </trkpt>
      <trkpt lat="44.49123" lon="5.74409">
        <ele>737.9</ele>
        <time>2023-09-28T07:42:29Z</time>
      </trkpt>
      <trkpt lat="44.4912" lon="5.74415">
        <ele>737.9</ele>
        <time>2023-09-28T07:42:30Z</time>
      </trkpt>
      <trkpt lat="44.49118" lon="5.74422">
        <ele>737.9</ele>
        <time>2023-09-28T07:42:31Z</time>
      </trkpt>
      <trkpt lat="44.49115" lon="5.74428">
        <ele>737.9</ele>
        <time>2023-09-28T07:42:32Z</time>
      </trkpt>
      <trkpt lat="44.49112" lon="5.74434">
        <ele>737.9</ele>
        <time>2023-09-28T07:42:33Z</time>
      </trkpt>
      <trkpt lat="44.49109" lon="5.74441">
        <ele>738</ele>
        <time>2023-09-28T07:42:34Z</time>
      </trkpt>
      <trkpt lat="44.49107" lon="5.74447">
        <ele>738</ele>
        <time>2023-09-28T07:42:35Z</time>
      </trkpt>
      <trkpt lat="44.49104" lon="5.74453">
        <ele>738.1</ele>
        <time>2023-09-28T07:42:36Z</time>
      </trkpt>
      <trkpt lat="44.49101" lon="5.74459">
        <ele>738.2</ele>
        <time>2023-09-28T07:42:37Z</time>
      </trkpt>
      <trkpt lat="44.49098" lon="5.74465">
        <ele>738.3</ele>
        <time>2023-09-28T07:42:38Z</time>
      </trkpt>
      <trkpt lat="44.49095" lon="5.74471">
        <ele>738.3</ele>
        <time>2023-09-28T07:42:39Z</time>
      </trkpt>
      <trkpt lat="44.49092" lon="5.74477">
        <ele>738.4</ele>
        <time>2023-09-28T07:42:40Z</time>
      </trkpt>
      <trkpt lat="44.4909" lon="5.74483">
        <ele>738.5</ele>
        <time>2023-09-28T07:42:41Z</time>
      </trkpt>
      <trkpt lat="44.49087" lon="5.74489">
        <ele>738.6</ele>
        <time>2023-09-28T07:42:42Z</time>
      </trkpt>
      <trkpt lat="44.49085" lon="5.74494">
        <ele>738.7</ele>
        <time>2023-09-28T07:42:43Z</time>
      </trkpt>
      <trkpt lat="44.49082" lon="5.745">
        <ele>738.8</ele>
        <time>2023-09-28T07:42:44Z</time>
      </trkpt>
      <trkpt lat="44.49079" lon="5.74506">
        <ele>738.9</ele>
        <time>2023-09-28T07:42:45Z</time>
      </trkpt>
      <trkpt lat="44.49077" lon="5.74511">
        <ele>739</ele>
        <time>2023-09-28T07:42:46Z</time>
      </trkpt>
      <trkpt lat="44.49075" lon="5.74516">
        <ele>739.1</ele>
        <time>2023-09-28T07:42:47Z</time>
      </trkpt>
      <trkpt lat="44.49072" lon="5.74522">
        <ele>739.2</ele>
        <time>2023-09-28T07:42:48Z</time>
      </trkpt>
      <trkpt lat="44.4907" lon="5.74527">
        <ele>739.3</ele>
        <time>2023-09-28T07:42:49Z</time>
      </trkpt>
      <trkpt lat="44.49067" lon="5.74532">
        <ele>739.4</ele>
        <time>2023-09-28T07:42:50Z</time>
      </trkpt>
      <trkpt lat="44.49065" lon="5.74537">
        <ele>739.5</ele>
        <time>2023-09-28T07:42:51Z</time>
      </trkpt>
      <trkpt lat="44.49063" lon="5.74543">
        <ele>739.6</ele>
        <time>2023-09-28T07:42:52Z</time>
      </trkpt>
      <trkpt lat="44.4906" lon="5.74548">
        <ele>739.7</ele>
        <time>2023-09-28T07:42:53Z</time>
      </trkpt>
      <trkpt lat="44.49058" lon="5.74553">
        <ele>739.9</ele>
        <time>2023-09-28T07:42:54Z</time>
      </trkpt>
      <trkpt lat="44.49055" lon="5.74558">
        <ele>740</ele>
        <time>2023-09-28T07:42:55Z</time>
      </trkpt>
      <trkpt lat="44.49053" lon="5.74564">
        <ele>740.1</ele>
        <time>2023-09-28T07:42:56Z</time>
      </trkpt>
      <trkpt lat="44.49051" lon="5.74569">
        <ele>740.3</ele>
        <time>2023-09-28T07:42:57Z</time>
      </trkpt>
      <trkpt lat="44.49047" lon="5.74577">
        <ele>740.5</ele>
        <time>2023-09-28T07:42:59Z</time>
      </trkpt>
      <trkpt lat="44.49045" lon="5.7458">
        <ele>740.6</ele>
        <time>2023-09-28T07:43:00Z</time>
      </trkpt>
      <trkpt lat="44.49041" lon="5.74587">
        <ele>740.8</ele>
        <time>2023-09-28T07:43:01Z</time>
      </trkpt>
      <trkpt lat="44.49038" lon="5.74593">
        <ele>741</ele>
        <time>2023-09-28T07:43:02Z</time>
      </trkpt>
      <trkpt lat="44.49036" lon="5.74598">
        <ele>741.1</ele>
        <time>2023-09-28T07:43:03Z</time>
      </trkpt>
      <trkpt lat="44.49033" lon="5.74603">
        <ele>741.2</ele>
        <time>2023-09-28T07:43:04Z</time>
      </trkpt>
      <trkpt lat="44.49031" lon="5.74608">
        <ele>741.3</ele>
        <time>2023-09-28T07:43:05Z</time>
      </trkpt>
      <trkpt lat="44.49026" lon="5.74616">
        <ele>741.5</ele>
        <time>2023-09-28T07:43:07Z</time>
      </trkpt>
      <trkpt lat="44.49023" lon="5.7462">
        <ele>741.7</ele>
        <time>2023-09-28T07:43:08Z</time>
      </trkpt>
      <trkpt lat="44.4902" lon="5.74625">
        <ele>741.8</ele>
        <time>2023-09-28T07:43:09Z</time>
      </trkpt>
      <trkpt lat="44.49017" lon="5.7463">
        <ele>741.9</ele>
        <time>2023-09-28T07:43:10Z</time>
      </trkpt>
      <trkpt lat="44.49011" lon="5.74639">
        <ele>742.2</ele>
        <time>2023-09-28T07:43:12Z</time>
      </trkpt>
      <trkpt lat="44.49008" lon="5.74644">
        <ele>742.3</ele>
        <time>2023-09-28T07:43:13Z</time>
      </trkpt>
      <trkpt lat="44.49004" lon="5.7465">
        <ele>742.4</ele>
        <time>2023-09-28T07:43:15Z</time>
      </trkpt>
      <trkpt lat="44.49001" lon="5.74654">
        <ele>742.4</ele>
        <time>2023-09-28T07:43:16Z</time>
      </trkpt>
      <trkpt lat="44.48998" lon="5.74658">
        <ele>742.5</ele>
        <time>2023-09-28T07:43:17Z</time>
      </trkpt>
      <trkpt lat="44.48994" lon="5.74663">
        <ele>742.5</ele>
        <time>2023-09-28T07:43:18Z</time>
      </trkpt>
      <trkpt lat="44.48991" lon="5.74667">
        <ele>742.6</ele>
        <time>2023-09-28T07:43:19Z</time>
      </trkpt>
      <trkpt lat="44.48987" lon="5.74671">
        <ele>742.6</ele>
        <time>2023-09-28T07:43:20Z</time>
      </trkpt>
      <trkpt lat="44.48983" lon="5.74675">
        <ele>742.6</ele>
        <time>2023-09-28T07:43:21Z</time>
      </trkpt>
      <trkpt lat="44.4898" lon="5.74679">
        <ele>742.6</ele>
        <time>2023-09-28T07:43:22Z</time>
      </trkpt>
      <trkpt lat="44.48977" lon="5.74684">
        <ele>742.6</ele>
        <time>2023-09-28T07:43:23Z</time>
      </trkpt>
      <trkpt lat="44.48973" lon="5.74688">
        <ele>742.6</ele>
        <time>2023-09-28T07:43:24Z</time>
      </trkpt>
      <trkpt lat="44.48969" lon="5.74692">
        <ele>742.6</ele>
        <time>2023-09-28T07:43:25Z</time>
      </trkpt>
      <trkpt lat="44.48966" lon="5.74697">
        <ele>742.6</ele>
        <time>2023-09-28T07:43:26Z</time>
      </trkpt>
      <trkpt lat="44.48962" lon="5.74701">
        <ele>742.6</ele>
        <time>2023-09-28T07:43:27Z</time>
      </trkpt>
      <trkpt lat="44.48958" lon="5.74706">
        <ele>742.5</ele>
        <time>2023-09-28T07:43:28Z</time>
      </trkpt>
      <trkpt lat="44.48954" lon="5.7471">
        <ele>742.5</ele>
        <time>2023-09-28T07:43:29Z</time>
      </trkpt>
      <trkpt lat="44.48951" lon="5.74715">
        <ele>742.5</ele>
        <time>2023-09-28T07:43:30Z</time>
      </trkpt>
      <trkpt lat="44.48947" lon="5.7472">
        <ele>742.5</ele>
        <time>2023-09-28T07:43:31Z</time>
      </trkpt>
      <trkpt lat="44.48943" lon="5.74724">
        <ele>742.4</ele>
        <time>2023-09-28T07:43:32Z</time>
      </trkpt>
      <trkpt lat="44.48939" lon="5.74729">
        <ele>742.4</ele>
        <time>2023-09-28T07:43:33Z</time>
      </trkpt>
      <trkpt lat="44.48935" lon="5.74733">
        <ele>742.4</ele>
        <time>2023-09-28T07:43:34Z</time>
      </trkpt>
      <trkpt lat="44.48931" lon="5.74738">
        <ele>742.4</ele>
        <time>2023-09-28T07:43:35Z</time>
      </trkpt>
      <trkpt lat="44.48927" lon="5.74742">
        <ele>742.4</ele>
        <time>2023-09-28T07:43:36Z</time>
      </trkpt>
      <trkpt lat="44.48923" lon="5.74747">
        <ele>742.4</ele>
        <time>2023-09-28T07:43:37Z</time>
      </trkpt>
      <trkpt lat="44.48919" lon="5.74753">
        <ele>742.3</ele>
        <time>2023-09-28T07:43:38Z</time>
      </trkpt>
      <trkpt lat="44.48915" lon="5.74757">
        <ele>742.3</ele>
        <time>2023-09-28T07:43:39Z</time>
      </trkpt>
      <trkpt lat="44.48911" lon="5.74762">
        <ele>742.3</ele>
        <time>2023-09-28T07:43:40Z</time>
      </trkpt>
      <trkpt lat="44.48907" lon="5.74767">
        <ele>742.3</ele>
        <time>2023-09-28T07:43:41Z</time>
      </trkpt>
      <trkpt lat="44.48902" lon="5.74771">
        <ele>742.2</ele>
        <time>2023-09-28T07:43:42Z</time>
      </trkpt>
      <trkpt lat="44.48898" lon="5.74776">
        <ele>742.2</ele>
        <time>2023-09-28T07:43:43Z</time>
      </trkpt>
      <trkpt lat="44.48894" lon="5.74781">
        <ele>742.2</ele>
        <time>2023-09-28T07:43:44Z</time>
      </trkpt>
      <trkpt lat="44.4889" lon="5.74786">
        <ele>742.2</ele>
        <time>2023-09-28T07:43:45Z</time>
      </trkpt>
      <trkpt lat="44.48886" lon="5.74791">
        <ele>742.2</ele>
        <time>2023-09-28T07:43:46Z</time>
      </trkpt>
      <trkpt lat="44.48882" lon="5.74796">
        <ele>742.2</ele>
        <time>2023-09-28T07:43:47Z</time>
      </trkpt>
      <trkpt lat="44.48878" lon="5.74801">
        <ele>742.2</ele>
        <time>2023-09-28T07:43:48Z</time>
      </trkpt>
      <trkpt lat="44.48874" lon="5.74806">
        <ele>742.2</ele>
        <time>2023-09-28T07:43:49Z</time>
      </trkpt>
      <trkpt lat="44.4887" lon="5.74811">
        <ele>742.2</ele>
        <time>2023-09-28T07:43:50Z</time>
      </trkpt>
      <trkpt lat="44.48866" lon="5.74816">
        <ele>742.2</ele>
        <time>2023-09-28T07:43:51Z</time>
      </trkpt>
      <trkpt lat="44.48863" lon="5.74821">
        <ele>742.2</ele>
        <time>2023-09-28T07:43:52Z</time>
      </trkpt>
      <trkpt lat="44.48859" lon="5.74826">
        <ele>742.2</ele>
        <time>2023-09-28T07:43:53Z</time>
      </trkpt>
      <trkpt lat="44.48855" lon="5.7483">
        <ele>742.2</ele>
        <time>2023-09-28T07:43:54Z</time>
      </trkpt>
      <trkpt lat="44.48851" lon="5.74835">
        <ele>742.2</ele>
        <time>2023-09-28T07:43:55Z</time>
      </trkpt>
      <trkpt lat="44.48847" lon="5.7484">
        <ele>742.3</ele>
        <time>2023-09-28T07:43:56Z</time>
      </trkpt>
      <trkpt lat="44.48843" lon="5.74845">
        <ele>742.3</ele>
        <time>2023-09-28T07:43:57Z</time>
      </trkpt>
      <trkpt lat="44.48839" lon="5.7485">
        <ele>742.3</ele>
        <time>2023-09-28T07:43:58Z</time>
      </trkpt>
      <trkpt lat="44.48835" lon="5.74855">
        <ele>742.4</ele>
        <time>2023-09-28T07:43:59Z</time>
      </trkpt>
      <trkpt lat="44.48831" lon="5.7486">
        <ele>742.4</ele>
        <time>2023-09-28T07:44:00Z</time>
      </trkpt>
      <trkpt lat="44.48827" lon="5.74865">
        <ele>742.5</ele>
        <time>2023-09-28T07:44:01Z</time>
      </trkpt>
      <trkpt lat="44.48823" lon="5.74869">
        <ele>742.5</ele>
        <time>2023-09-28T07:44:02Z</time>
      </trkpt>
      <trkpt lat="44.4882" lon="5.74873">
        <ele>742.6</ele>
        <time>2023-09-28T07:44:03Z</time>
      </trkpt>
      <trkpt lat="44.48816" lon="5.74877">
        <ele>742.6</ele>
        <time>2023-09-28T07:44:04Z</time>
      </trkpt>
      <trkpt lat="44.48813" lon="5.74881">
        <ele>742.7</ele>
        <time>2023-09-28T07:44:05Z</time>
      </trkpt>
      <trkpt lat="44.48809" lon="5.74886">
        <ele>742.8</ele>
        <time>2023-09-28T07:44:06Z</time>
      </trkpt>
      <trkpt lat="44.48805" lon="5.7489">
        <ele>742.8</ele>
        <time>2023-09-28T07:44:07Z</time>
      </trkpt>
      <trkpt lat="44.48801" lon="5.74895">
        <ele>742.9</ele>
        <time>2023-09-28T07:44:08Z</time>
      </trkpt>
      <trkpt lat="44.48798" lon="5.74899">
        <ele>743</ele>
        <time>2023-09-28T07:44:09Z</time>
      </trkpt>
      <trkpt lat="44.48794" lon="5.74903">
        <ele>743.1</ele>
        <time>2023-09-28T07:44:10Z</time>
      </trkpt>
      <trkpt lat="44.48791" lon="5.74907">
        <ele>743.1</ele>
        <time>2023-09-28T07:44:11Z</time>
      </trkpt>
      <trkpt lat="44.48787" lon="5.74912">
        <ele>743.3</ele>
        <time>2023-09-28T07:44:12Z</time>
      </trkpt>
      <trkpt lat="44.48784" lon="5.74916">
        <ele>743.4</ele>
        <time>2023-09-28T07:44:13Z</time>
      </trkpt>
      <trkpt lat="44.4878" lon="5.74921">
        <ele>743.5</ele>
        <time>2023-09-28T07:44:14Z</time>
      </trkpt>
      <trkpt lat="44.48777" lon="5.74925">
        <ele>743.6</ele>
        <time>2023-09-28T07:44:15Z</time>
      </trkpt>
      <trkpt lat="44.48773" lon="5.74929">
        <ele>743.8</ele>
        <time>2023-09-28T07:44:16Z</time>
      </trkpt>
      <trkpt lat="44.4877" lon="5.74933">
        <ele>744</ele>
        <time>2023-09-28T07:44:17Z</time>
      </trkpt>
      <trkpt lat="44.48767" lon="5.74938">
        <ele>744.1</ele>
        <time>2023-09-28T07:44:18Z</time>
      </trkpt>
      <trkpt lat="44.48763" lon="5.74942">
        <ele>744.3</ele>
        <time>2023-09-28T07:44:19Z</time>
      </trkpt>
      <trkpt lat="44.4876" lon="5.74946">
        <ele>744.4</ele>
        <time>2023-09-28T07:44:20Z</time>
      </trkpt>
      <trkpt lat="44.48757" lon="5.7495">
        <ele>744.6</ele>
        <time>2023-09-28T07:44:21Z</time>
      </trkpt>
      <trkpt lat="44.48754" lon="5.74954">
        <ele>744.7</ele>
        <time>2023-09-28T07:44:22Z</time>
      </trkpt>
      <trkpt lat="44.48751" lon="5.74958">
        <ele>744.9</ele>
        <time>2023-09-28T07:44:23Z</time>
      </trkpt>
      <trkpt lat="44.48748" lon="5.74962">
        <ele>745</ele>
        <time>2023-09-28T07:44:24Z</time>
      </trkpt>
      <trkpt lat="44.48744" lon="5.74966">
        <ele>745.2</ele>
        <time>2023-09-28T07:44:25Z</time>
      </trkpt>
      <trkpt lat="44.48741" lon="5.7497">
        <ele>745.4</ele>
        <time>2023-09-28T07:44:26Z</time>
      </trkpt>
      <trkpt lat="44.48738" lon="5.74972">
        <ele>745.5</ele>
        <time>2023-09-28T07:44:27Z</time>
      </trkpt>
      <trkpt lat="44.48734" lon="5.74978">
        <ele>745.7</ele>
        <time>2023-09-28T07:44:29Z</time>
      </trkpt>
      <trkpt lat="44.4873" lon="5.74984">
        <ele>746</ele>
        <time>2023-09-28T07:44:30Z</time>
      </trkpt>
      <trkpt lat="44.48727" lon="5.74989">
        <ele>746.1</ele>
        <time>2023-09-28T07:44:31Z</time>
      </trkpt>
      <trkpt lat="44.48725" lon="5.74992">
        <ele>746.3</ele>
        <time>2023-09-28T07:44:32Z</time>
      </trkpt>
      <trkpt lat="44.48722" lon="5.74997">
        <ele>746.5</ele>
        <time>2023-09-28T07:44:33Z</time>
      </trkpt>
      <trkpt lat="44.48718" lon="5.75001">
        <ele>746.7</ele>
        <time>2023-09-28T07:44:34Z</time>
      </trkpt>
      <trkpt lat="44.48715" lon="5.75006">
        <ele>746.9</ele>
        <time>2023-09-28T07:44:35Z</time>
      </trkpt>
      <trkpt lat="44.4871" lon="5.75015">
        <ele>747.3</ele>
        <time>2023-09-28T07:44:37Z</time>
      </trkpt>
      <trkpt lat="44.48707" lon="5.7502">
        <ele>747.5</ele>
        <time>2023-09-28T07:44:39Z</time>
      </trkpt>
      <trkpt lat="44.48704" lon="5.75025">
        <ele>747.7</ele>
        <time>2023-09-28T07:44:40Z</time>
      </trkpt>
      <trkpt lat="44.48701" lon="5.75029">
        <ele>747.9</ele>
        <time>2023-09-28T07:44:41Z</time>
      </trkpt>
      <trkpt lat="44.48699" lon="5.75033">
        <ele>748</ele>
        <time>2023-09-28T07:44:42Z</time>
      </trkpt>
      <trkpt lat="44.48696" lon="5.75038">
        <ele>748.2</ele>
        <time>2023-09-28T07:44:43Z</time>
      </trkpt>
      <trkpt lat="44.48693" lon="5.75041">
        <ele>748.4</ele>
        <time>2023-09-28T07:44:44Z</time>
      </trkpt>
      <trkpt lat="44.4869" lon="5.75046">
        <ele>748.5</ele>
        <time>2023-09-28T07:44:45Z</time>
      </trkpt>
      <trkpt lat="44.48687" lon="5.7505">
        <ele>748.7</ele>
        <time>2023-09-28T07:44:47Z</time>
      </trkpt>
      <trkpt lat="44.48685" lon="5.75055">
        <ele>748.9</ele>
        <time>2023-09-28T07:44:48Z</time>
      </trkpt>
      <trkpt lat="44.48682" lon="5.75059">
        <ele>749.1</ele>
        <time>2023-09-28T07:44:49Z</time>
      </trkpt>
      <trkpt lat="44.4868" lon="5.75062">
        <ele>749.2</ele>
        <time>2023-09-28T07:44:50Z</time>
      </trkpt>
      <trkpt lat="44.48677" lon="5.75066">
        <ele>749.3</ele>
        <time>2023-09-28T07:44:51Z</time>
      </trkpt>
      <trkpt lat="44.48675" lon="5.75069">
        <ele>749.5</ele>
        <time>2023-09-28T07:44:52Z</time>
      </trkpt>
      <trkpt lat="44.48672" lon="5.75074">
        <ele>749.6</ele>
        <time>2023-09-28T07:44:54Z</time>
      </trkpt>
      <trkpt lat="44.48669" lon="5.75079">
        <ele>749.8</ele>
        <time>2023-09-28T07:44:55Z</time>
      </trkpt>
      <trkpt lat="44.48667" lon="5.75083">
        <ele>750</ele>
        <time>2023-09-28T07:44:56Z</time>
      </trkpt>
      <trkpt lat="44.48665" lon="5.75087">
        <ele>750.2</ele>
        <time>2023-09-28T07:44:57Z</time>
      </trkpt>
      <trkpt lat="44.48662" lon="5.7509">
        <ele>750.3</ele>
        <time>2023-09-28T07:44:58Z</time>
      </trkpt>
      <trkpt lat="44.4866" lon="5.75095">
        <ele>750.5</ele>
        <time>2023-09-28T07:44:59Z</time>
      </trkpt>
      <trkpt lat="44.48658" lon="5.75098">
        <ele>750.6</ele>
        <time>2023-09-28T07:45:00Z</time>
      </trkpt>
      <trkpt lat="44.48655" lon="5.75103">
        <ele>750.8</ele>
        <time>2023-09-28T07:45:02Z</time>
      </trkpt>
      <trkpt lat="44.48653" lon="5.75107">
        <ele>750.9</ele>
        <time>2023-09-28T07:45:03Z</time>
      </trkpt>
      <trkpt lat="44.4865" lon="5.75111">
        <ele>751.1</ele>
        <time>2023-09-28T07:45:04Z</time>
      </trkpt>
      <trkpt lat="44.48648" lon="5.75116">
        <ele>751.2</ele>
        <time>2023-09-28T07:45:05Z</time>
      </trkpt>
      <trkpt lat="44.48646" lon="5.75119">
        <ele>751.4</ele>
        <time>2023-09-28T07:45:06Z</time>
      </trkpt>
      <trkpt lat="44.48643" lon="5.75123">
        <ele>751.5</ele>
        <time>2023-09-28T07:45:07Z</time>
      </trkpt>
      <trkpt lat="44.48641" lon="5.75127">
        <ele>751.6</ele>
        <time>2023-09-28T07:45:09Z</time>
      </trkpt>
      <trkpt lat="44.48638" lon="5.75131">
        <ele>751.8</ele>
        <time>2023-09-28T07:45:10Z</time>
      </trkpt>
      <trkpt lat="44.48635" lon="5.75137">
        <ele>752</ele>
        <time>2023-09-28T07:45:11Z</time>
      </trkpt>
      <trkpt lat="44.48632" lon="5.75141">
        <ele>752.1</ele>
        <time>2023-09-28T07:45:13Z</time>
      </trkpt>
      <trkpt lat="44.4863" lon="5.75144">
        <ele>752.2</ele>
        <time>2023-09-28T07:45:14Z</time>
      </trkpt>
      <trkpt lat="44.48628" lon="5.75149">
        <ele>752.4</ele>
        <time>2023-09-28T07:45:15Z</time>
      </trkpt>
      <trkpt lat="44.48626" lon="5.75153">
        <ele>752.5</ele>
        <time>2023-09-28T07:45:16Z</time>
      </trkpt>
      <trkpt lat="44.48624" lon="5.75156">
        <ele>752.6</ele>
        <time>2023-09-28T07:45:17Z</time>
      </trkpt>
      <trkpt lat="44.48621" lon="5.7516">
        <ele>752.7</ele>
        <time>2023-09-28T07:45:18Z</time>
      </trkpt>
      <trkpt lat="44.48619" lon="5.75163">
        <ele>752.8</ele>
        <time>2023-09-28T07:45:19Z</time>
      </trkpt>
      <trkpt lat="44.48617" lon="5.75167">
        <ele>752.9</ele>
        <time>2023-09-28T07:45:20Z</time>
      </trkpt>
      <trkpt lat="44.48615" lon="5.75171">
        <ele>753</ele>
        <time>2023-09-28T07:45:21Z</time>
      </trkpt>
      <trkpt lat="44.48612" lon="5.75175">
        <ele>753.1</ele>
        <time>2023-09-28T07:45:23Z</time>
      </trkpt>
      <trkpt lat="44.48609" lon="5.75179">
        <ele>753.2</ele>
        <time>2023-09-28T07:45:24Z</time>
      </trkpt>
      <trkpt lat="44.48607" lon="5.75183">
        <ele>753.3</ele>
        <time>2023-09-28T07:45:25Z</time>
      </trkpt>
      <trkpt lat="44.48604" lon="5.75188">
        <ele>753.4</ele>
        <time>2023-09-28T07:45:26Z</time>
      </trkpt>
      <trkpt lat="44.48601" lon="5.75193">
        <ele>753.5</ele>
        <time>2023-09-28T07:45:28Z</time>
      </trkpt>
      <trkpt lat="44.48599" lon="5.75198">
        <ele>753.5</ele>
        <time>2023-09-28T07:45:29Z</time>
      </trkpt>
      <trkpt lat="44.48596" lon="5.75203">
        <ele>753.6</ele>
        <time>2023-09-28T07:45:30Z</time>
      </trkpt>
      <trkpt lat="44.48593" lon="5.75208">
        <ele>753.7</ele>
        <time>2023-09-28T07:45:31Z</time>
      </trkpt>
      <trkpt lat="44.4859" lon="5.75212">
        <ele>753.7</ele>
        <time>2023-09-28T07:45:32Z</time>
      </trkpt>
      <trkpt lat="44.48586" lon="5.75215">
        <ele>753.8</ele>
        <time>2023-09-28T07:45:33Z</time>
      </trkpt>
      <trkpt lat="44.48583" lon="5.7522">
        <ele>753.8</ele>
        <time>2023-09-28T07:45:34Z</time>
      </trkpt>
      <trkpt lat="44.4858" lon="5.75223">
        <ele>753.9</ele>
        <time>2023-09-28T07:45:35Z</time>
      </trkpt>
      <trkpt lat="44.48575" lon="5.75227">
        <ele>754</ele>
        <time>2023-09-28T07:45:36Z</time>
      </trkpt>
      <trkpt lat="44.48572" lon="5.75229">
        <ele>754</ele>
        <time>2023-09-28T07:45:37Z</time>
      </trkpt>
      <trkpt lat="44.48567" lon="5.75233">
        <ele>754.1</ele>
        <time>2023-09-28T07:45:39Z</time>
      </trkpt>
      <trkpt lat="44.48561" lon="5.75237">
        <ele>754.1</ele>
        <time>2023-09-28T07:45:40Z</time>
      </trkpt>
      <trkpt lat="44.48557" lon="5.7524">
        <ele>754.2</ele>
        <time>2023-09-28T07:45:41Z</time>
      </trkpt>
      <trkpt lat="44.4855" lon="5.75245">
        <ele>754.3</ele>
        <time>2023-09-28T07:45:43Z</time>
      </trkpt>
      <trkpt lat="44.48546" lon="5.75248">
        <ele>754.3</ele>
        <time>2023-09-28T07:45:45Z</time>
      </trkpt>
      <trkpt lat="44.48542" lon="5.75251">
        <ele>754.4</ele>
        <time>2023-09-28T07:45:46Z</time>
      </trkpt>
      <trkpt lat="44.48537" lon="5.75254">
        <ele>754.4</ele>
        <time>2023-09-28T07:45:47Z</time>
      </trkpt>
      <trkpt lat="44.48533" lon="5.75256">
        <ele>754.4</ele>
        <time>2023-09-28T07:45:48Z</time>
      </trkpt>
      <trkpt lat="44.48529" lon="5.75259">
        <ele>754.4</ele>
        <time>2023-09-28T07:45:49Z</time>
      </trkpt>
      <trkpt lat="44.48522" lon="5.75263">
        <ele>754.4</ele>
        <time>2023-09-28T07:45:51Z</time>
      </trkpt>
      <trkpt lat="44.48517" lon="5.75266">
        <ele>754.4</ele>
        <time>2023-09-28T07:45:52Z</time>
      </trkpt>
      <trkpt lat="44.48513" lon="5.75268">
        <ele>754.4</ele>
        <time>2023-09-28T07:45:53Z</time>
      </trkpt>
      <trkpt lat="44.48508" lon="5.7527">
        <ele>754.4</ele>
        <time>2023-09-28T07:45:55Z</time>
      </trkpt>
      <trkpt lat="44.48504" lon="5.75272">
        <ele>754.4</ele>
        <time>2023-09-28T07:45:56Z</time>
      </trkpt>
      <trkpt lat="44.48496" lon="5.75275">
        <ele>754.4</ele>
        <time>2023-09-28T07:45:57Z</time>
      </trkpt>
      <trkpt lat="44.48492" lon="5.75277">
        <ele>754.4</ele>
        <time>2023-09-28T07:45:58Z</time>
      </trkpt>
      <trkpt lat="44.48488" lon="5.75279">
        <ele>754.4</ele>
        <time>2023-09-28T07:46:00Z</time>
      </trkpt>
      <trkpt lat="44.48483" lon="5.7528">
        <ele>754.4</ele>
        <time>2023-09-28T07:46:01Z</time>
      </trkpt>
      <trkpt lat="44.48478" lon="5.75282">
        <ele>754.4</ele>
        <time>2023-09-28T07:46:02Z</time>
      </trkpt>
      <trkpt lat="44.48471" lon="5.75285">
        <ele>754.5</ele>
        <time>2023-09-28T07:46:03Z</time>
      </trkpt>
      <trkpt lat="44.48466" lon="5.75287">
        <ele>754.5</ele>
        <time>2023-09-28T07:46:04Z</time>
      </trkpt>
      <trkpt lat="44.48461" lon="5.7529">
        <ele>754.6</ele>
        <time>2023-09-28T07:46:06Z</time>
      </trkpt>
      <trkpt lat="44.48457" lon="5.75292">
        <ele>754.6</ele>
        <time>2023-09-28T07:46:07Z</time>
      </trkpt>
      <trkpt lat="44.48451" lon="5.75297">
        <ele>754.6</ele>
        <time>2023-09-28T07:46:08Z</time>
      </trkpt>
      <trkpt lat="44.48446" lon="5.75301">
        <ele>754.7</ele>
        <time>2023-09-28T07:46:09Z</time>
      </trkpt>
      <trkpt lat="44.48442" lon="5.75304">
        <ele>754.7</ele>
        <time>2023-09-28T07:46:11Z</time>
      </trkpt>
      <trkpt lat="44.48437" lon="5.75307">
        <ele>754.8</ele>
        <time>2023-09-28T07:46:12Z</time>
      </trkpt>
      <trkpt lat="44.48433" lon="5.75311">
        <ele>754.8</ele>
        <time>2023-09-28T07:46:13Z</time>
      </trkpt>
      <trkpt lat="44.48429" lon="5.75315">
        <ele>754.9</ele>
        <time>2023-09-28T07:46:14Z</time>
      </trkpt>
      <trkpt lat="44.48425" lon="5.75319">
        <ele>755</ele>
        <time>2023-09-28T07:46:15Z</time>
      </trkpt>
      <trkpt lat="44.48422" lon="5.75323">
        <ele>755.1</ele>
        <time>2023-09-28T07:46:16Z</time>
      </trkpt>
      <trkpt lat="44.48418" lon="5.75326">
        <ele>755.2</ele>
        <time>2023-09-28T07:46:17Z</time>
      </trkpt>
      <trkpt lat="44.48412" lon="5.75334">
        <ele>755.4</ele>
        <time>2023-09-28T07:46:19Z</time>
      </trkpt>
      <trkpt lat="44.48408" lon="5.75338">
        <ele>755.6</ele>
        <time>2023-09-28T07:46:21Z</time>
      </trkpt>
      <trkpt lat="44.48405" lon="5.75343">
        <ele>755.7</ele>
        <time>2023-09-28T07:46:22Z</time>
      </trkpt>
      <trkpt lat="44.48402" lon="5.75347">
        <ele>755.9</ele>
        <time>2023-09-28T07:46:23Z</time>
      </trkpt>
      <trkpt lat="44.48398" lon="5.75351">
        <ele>756</ele>
        <time>2023-09-28T07:46:24Z</time>
      </trkpt>
      <trkpt lat="44.48396" lon="5.75356">
        <ele>756.2</ele>
        <time>2023-09-28T07:46:25Z</time>
      </trkpt>
      <trkpt lat="44.48393" lon="5.75361">
        <ele>756.4</ele>
        <time>2023-09-28T07:46:27Z</time>
      </trkpt>
      <trkpt lat="44.4839" lon="5.75367">
        <ele>756.6</ele>
        <time>2023-09-28T07:46:28Z</time>
      </trkpt>
      <trkpt lat="44.48388" lon="5.75371">
        <ele>756.8</ele>
        <time>2023-09-28T07:46:29Z</time>
      </trkpt>
      <trkpt lat="44.48385" lon="5.75376">
        <ele>756.9</ele>
        <time>2023-09-28T07:46:30Z</time>
      </trkpt>
      <trkpt lat="44.48383" lon="5.75379">
        <ele>757.1</ele>
        <time>2023-09-28T07:46:31Z</time>
      </trkpt>
      <trkpt lat="44.48381" lon="5.75384">
        <ele>757.3</ele>
        <time>2023-09-28T07:46:32Z</time>
      </trkpt>
      <trkpt lat="44.48379" lon="5.75388">
        <ele>757.4</ele>
        <time>2023-09-28T07:46:33Z</time>
      </trkpt>
      <trkpt lat="44.48377" lon="5.75393">
        <ele>757.6</ele>
        <time>2023-09-28T07:46:34Z</time>
      </trkpt>
      <trkpt lat="44.48375" lon="5.75396">
        <ele>757.8</ele>
        <time>2023-09-28T07:46:35Z</time>
      </trkpt>
      <trkpt lat="44.48372" lon="5.75402">
        <ele>758</ele>
        <time>2023-09-28T07:46:37Z</time>
      </trkpt>
      <trkpt lat="44.48369" lon="5.75409">
        <ele>758.3</ele>
        <time>2023-09-28T07:46:38Z</time>
      </trkpt>
      <trkpt lat="44.48367" lon="5.75414">
        <ele>758.5</ele>
        <time>2023-09-28T07:46:39Z</time>
      </trkpt>
      <trkpt lat="44.48365" lon="5.75419">
        <ele>758.7</ele>
        <time>2023-09-28T07:46:40Z</time>
      </trkpt>
      <trkpt lat="44.48363" lon="5.75424">
        <ele>758.9</ele>
        <time>2023-09-28T07:46:41Z</time>
      </trkpt>
      <trkpt lat="44.4836" lon="5.75431">
        <ele>759.2</ele>
        <time>2023-09-28T07:46:43Z</time>
      </trkpt>
      <trkpt lat="44.48357" lon="5.75436">
        <ele>759.5</ele>
        <time>2023-09-28T07:46:44Z</time>
      </trkpt>
      <trkpt lat="44.48355" lon="5.7544">
        <ele>759.6</ele>
        <time>2023-09-28T07:46:45Z</time>
      </trkpt>
      <trkpt lat="44.48352" lon="5.75447">
        <ele>759.9</ele>
        <time>2023-09-28T07:46:47Z</time>
      </trkpt>
      <trkpt lat="44.48351" lon="5.75452">
        <ele>760</ele>
        <time>2023-09-28T07:46:48Z</time>
      </trkpt>
      <trkpt lat="44.48349" lon="5.75456">
        <ele>760.2</ele>
        <time>2023-09-28T07:46:49Z</time>
      </trkpt>
      <trkpt lat="44.48347" lon="5.7546">
        <ele>760.3</ele>
        <time>2023-09-28T07:46:50Z</time>
      </trkpt>
      <trkpt lat="44.48345" lon="5.75466">
        <ele>760.5</ele>
        <time>2023-09-28T07:46:52Z</time>
      </trkpt>
      <trkpt lat="44.48343" lon="5.75471">
        <ele>760.6</ele>
        <time>2023-09-28T07:46:53Z</time>
      </trkpt>
      <trkpt lat="44.48341" lon="5.75476">
        <ele>760.8</ele>
        <time>2023-09-28T07:46:54Z</time>
      </trkpt>
      <trkpt lat="44.48339" lon="5.7548">
        <ele>760.9</ele>
        <time>2023-09-28T07:46:55Z</time>
      </trkpt>
      <trkpt lat="44.48337" lon="5.75484">
        <ele>761.1</ele>
        <time>2023-09-28T07:46:56Z</time>
      </trkpt>
      <trkpt lat="44.48334" lon="5.75488">
        <ele>761.2</ele>
        <time>2023-09-28T07:46:57Z</time>
      </trkpt>
      <trkpt lat="44.48331" lon="5.75491">
        <ele>761.3</ele>
        <time>2023-09-28T07:46:58Z</time>
      </trkpt>
      <trkpt lat="44.48327" lon="5.75497">
        <ele>761.5</ele>
        <time>2023-09-28T07:47:00Z</time>
      </trkpt>
      <trkpt lat="44.48324" lon="5.755">
        <ele>761.7</ele>
        <time>2023-09-28T07:47:01Z</time>
      </trkpt>
      <trkpt lat="44.48321" lon="5.75503">
        <ele>761.8</ele>
        <time>2023-09-28T07:47:02Z</time>
      </trkpt>
      <trkpt lat="44.48317" lon="5.75506">
        <ele>761.9</ele>
        <time>2023-09-28T07:47:04Z</time>
      </trkpt>
      <trkpt lat="44.48314" lon="5.75509">
        <ele>761.9</ele>
        <time>2023-09-28T07:47:05Z</time>
      </trkpt>
      <trkpt lat="44.4831" lon="5.75511">
        <ele>762</ele>
        <time>2023-09-28T07:47:06Z</time>
      </trkpt>
      <trkpt lat="44.48307" lon="5.75513">
        <ele>762.1</ele>
        <time>2023-09-28T07:47:07Z</time>
      </trkpt>
      <trkpt lat="44.48304" lon="5.75515">
        <ele>762.1</ele>
        <time>2023-09-28T07:47:08Z</time>
      </trkpt>
      <trkpt lat="44.48301" lon="5.75518">
        <ele>762</ele>
        <time>2023-09-28T07:47:09Z</time>
      </trkpt>
      <trkpt lat="44.48298" lon="5.7552">
        <ele>762</ele>
        <time>2023-09-28T07:47:10Z</time>
      </trkpt>
      <trkpt lat="44.48293" lon="5.75522">
        <ele>761.9</ele>
        <time>2023-09-28T07:47:12Z</time>
      </trkpt>
      <trkpt lat="44.48291" lon="5.75523">
        <ele>761.9</ele>
        <time>2023-09-28T07:47:13Z</time>
      </trkpt>
      <trkpt lat="44.48289" lon="5.75524">
        <ele>761.9</ele>
        <time>2023-09-28T07:47:14Z</time>
      </trkpt>
      <trkpt lat="44.48286" lon="5.75526">
        <ele>761.8</ele>
        <time>2023-09-28T07:47:15Z</time>
      </trkpt>
      <trkpt lat="44.48283" lon="5.75527">
        <ele>761.8</ele>
        <time>2023-09-28T07:47:16Z</time>
      </trkpt>
      <trkpt lat="44.48279" lon="5.7553">
        <ele>761.7</ele>
        <time>2023-09-28T07:47:18Z</time>
      </trkpt>
      <trkpt lat="44.48275" lon="5.75533">
        <ele>761.6</ele>
        <time>2023-09-28T07:47:19Z</time>
      </trkpt>
      <trkpt lat="44.48271" lon="5.75536">
        <ele>761.5</ele>
        <time>2023-09-28T07:47:20Z</time>
      </trkpt>
      <trkpt lat="44.48266" lon="5.75538">
        <ele>761.4</ele>
        <time>2023-09-28T07:47:21Z</time>
      </trkpt>
      <trkpt lat="44.48261" lon="5.75541">
        <ele>761.2</ele>
        <time>2023-09-28T07:47:22Z</time>
      </trkpt>
      <trkpt lat="44.48256" lon="5.75544">
        <ele>761</ele>
        <time>2023-09-28T07:47:23Z</time>
      </trkpt>
      <trkpt lat="44.48251" lon="5.75547">
        <ele>760.9</ele>
        <time>2023-09-28T07:47:24Z</time>
      </trkpt>
      <trkpt lat="44.48246" lon="5.7555">
        <ele>760.7</ele>
        <time>2023-09-28T07:47:25Z</time>
      </trkpt>
      <trkpt lat="44.48241" lon="5.75553">
        <ele>760.5</ele>
        <time>2023-09-28T07:47:26Z</time>
      </trkpt>
      <trkpt lat="44.48236" lon="5.75556">
        <ele>760.2</ele>
        <time>2023-09-28T07:47:27Z</time>
      </trkpt>
      <trkpt lat="44.48231" lon="5.75559">
        <ele>760</ele>
        <time>2023-09-28T07:47:28Z</time>
      </trkpt>
      <trkpt lat="44.48226" lon="5.75562">
        <ele>759.7</ele>
        <time>2023-09-28T07:47:29Z</time>
      </trkpt>
      <trkpt lat="44.4822" lon="5.75565">
        <ele>759.4</ele>
        <time>2023-09-28T07:47:30Z</time>
      </trkpt>
      <trkpt lat="44.48215" lon="5.75569">
        <ele>759.1</ele>
        <time>2023-09-28T07:47:31Z</time>
      </trkpt>
      <trkpt lat="44.48209" lon="5.75572">
        <ele>758.8</ele>
        <time>2023-09-28T07:47:32Z</time>
      </trkpt>
      <trkpt lat="44.48203" lon="5.75575">
        <ele>758.4</ele>
        <time>2023-09-28T07:47:33Z</time>
      </trkpt>
      <trkpt lat="44.48196" lon="5.75578">
        <ele>758</ele>
        <time>2023-09-28T07:47:34Z</time>
      </trkpt>
      <trkpt lat="44.4819" lon="5.75583">
        <ele>757.6</ele>
        <time>2023-09-28T07:47:35Z</time>
      </trkpt>
      <trkpt lat="44.48184" lon="5.75587">
        <ele>757.2</ele>
        <time>2023-09-28T07:47:36Z</time>
      </trkpt>
      <trkpt lat="44.48177" lon="5.75592">
        <ele>756.7</ele>
        <time>2023-09-28T07:47:37Z</time>
      </trkpt>
      <trkpt lat="44.48171" lon="5.75598">
        <ele>756.2</ele>
        <time>2023-09-28T07:47:38Z</time>
      </trkpt>
      <trkpt lat="44.48165" lon="5.75605">
        <ele>755.7</ele>
        <time>2023-09-28T07:47:39Z</time>
      </trkpt>
      <trkpt lat="44.4816" lon="5.75613">
        <ele>755.2</ele>
        <time>2023-09-28T07:47:40Z</time>
      </trkpt>
      <trkpt lat="44.48154" lon="5.75621">
        <ele>754.7</ele>
        <time>2023-09-28T07:47:41Z</time>
      </trkpt>
      <trkpt lat="44.48149" lon="5.7563">
        <ele>754.2</ele>
        <time>2023-09-28T07:47:42Z</time>
      </trkpt>
      <trkpt lat="44.48144" lon="5.7564">
        <ele>753.7</ele>
        <time>2023-09-28T07:47:43Z</time>
      </trkpt>
      <trkpt lat="44.48141" lon="5.7565">
        <ele>753.2</ele>
        <time>2023-09-28T07:47:44Z</time>
      </trkpt>
      <trkpt lat="44.48138" lon="5.75662">
        <ele>752.7</ele>
        <time>2023-09-28T07:47:45Z</time>
      </trkpt>
      <trkpt lat="44.48135" lon="5.75673">
        <ele>752.3</ele>
        <time>2023-09-28T07:47:46Z</time>
      </trkpt>
      <trkpt lat="44.48134" lon="5.75685">
        <ele>751.8</ele>
        <time>2023-09-28T07:47:47Z</time>
      </trkpt>
      <trkpt lat="44.48133" lon="5.75698">
        <ele>751.2</ele>
        <time>2023-09-28T07:47:48Z</time>
      </trkpt>
      <trkpt lat="44.48133" lon="5.7571">
        <ele>750.6</ele>
        <time>2023-09-28T07:47:49Z</time>
      </trkpt>
      <trkpt lat="44.48133" lon="5.75723">
        <ele>750</ele>
        <time>2023-09-28T07:47:50Z</time>
      </trkpt>
      <trkpt lat="44.48133" lon="5.75736">
        <ele>749.4</ele>
        <time>2023-09-28T07:47:51Z</time>
      </trkpt>
      <trkpt lat="44.48133" lon="5.75749">
        <ele>748.7</ele>
        <time>2023-09-28T07:47:52Z</time>
      </trkpt>
      <trkpt lat="44.48133" lon="5.75763">
        <ele>748.1</ele>
        <time>2023-09-28T07:47:53Z</time>
      </trkpt>
      <trkpt lat="44.48133" lon="5.75776">
        <ele>747.6</ele>
        <time>2023-09-28T07:47:54Z</time>
      </trkpt>
      <trkpt lat="44.48133" lon="5.7579">
        <ele>747.1</ele>
        <time>2023-09-28T07:47:55Z</time>
      </trkpt>
      <trkpt lat="44.48133" lon="5.75804">
        <ele>746.7</ele>
        <time>2023-09-28T07:47:56Z</time>
      </trkpt>
      <trkpt lat="44.48133" lon="5.75818">
        <ele>746.2</ele>
        <time>2023-09-28T07:47:57Z</time>
      </trkpt>
      <trkpt lat="44.48133" lon="5.75831">
        <ele>745.8</ele>
        <time>2023-09-28T07:47:58Z</time>
      </trkpt>
      <trkpt lat="44.48132" lon="5.75844">
        <ele>745.3</ele>
        <time>2023-09-28T07:47:59Z</time>
      </trkpt>
      <trkpt lat="44.48132" lon="5.75858">
        <ele>744.9</ele>
        <time>2023-09-28T07:48:00Z</time>
      </trkpt>
      <trkpt lat="44.48132" lon="5.75871">
        <ele>744.5</ele>
        <time>2023-09-28T07:48:01Z</time>
      </trkpt>
      <trkpt lat="44.48132" lon="5.75884">
        <ele>744.1</ele>
        <time>2023-09-28T07:48:02Z</time>
      </trkpt>
      <trkpt lat="44.48132" lon="5.75897">
        <ele>743.7</ele>
        <time>2023-09-28T07:48:03Z</time>
      </trkpt>
      <trkpt lat="44.48132" lon="5.75909">
        <ele>743.3</ele>
        <time>2023-09-28T07:48:04Z</time>
      </trkpt>
      <trkpt lat="44.48133" lon="5.75921">
        <ele>742.8</ele>
        <time>2023-09-28T07:48:05Z</time>
      </trkpt>
      <trkpt lat="44.48135" lon="5.75933">
        <ele>742.3</ele>
        <time>2023-09-28T07:48:06Z</time>
      </trkpt>
      <trkpt lat="44.48138" lon="5.75945">
        <ele>741.8</ele>
        <time>2023-09-28T07:48:07Z</time>
      </trkpt>
      <trkpt lat="44.48143" lon="5.75956">
        <ele>741.2</ele>
        <time>2023-09-28T07:48:08Z</time>
      </trkpt>
      <trkpt lat="44.4815" lon="5.75964">
        <ele>740.5</ele>
        <time>2023-09-28T07:48:09Z</time>
      </trkpt>
      <trkpt lat="44.48158" lon="5.75972">
        <ele>739.8</ele>
        <time>2023-09-28T07:48:10Z</time>
      </trkpt>
      <trkpt lat="44.48166" lon="5.75979">
        <ele>739.2</ele>
        <time>2023-09-28T07:48:11Z</time>
      </trkpt>
      <trkpt lat="44.48174" lon="5.75986">
        <ele>738.7</ele>
        <time>2023-09-28T07:48:12Z</time>
      </trkpt>
      <trkpt lat="44.48181" lon="5.75993">
        <ele>738.4</ele>
        <time>2023-09-28T07:48:13Z</time>
      </trkpt>
      <trkpt lat="44.48188" lon="5.75999">
        <ele>738.2</ele>
        <time>2023-09-28T07:48:14Z</time>
      </trkpt>
      <trkpt lat="44.48193" lon="5.76004">
        <ele>738.1</ele>
        <time>2023-09-28T07:48:15Z</time>
      </trkpt>
      <trkpt lat="44.48197" lon="5.76008">
        <ele>738</ele>
        <time>2023-09-28T07:48:16Z</time>
      </trkpt>
      <trkpt lat="44.482" lon="5.76014">
        <ele>737.9</ele>
        <time>2023-09-28T07:48:17Z</time>
      </trkpt>
      <trkpt lat="44.48201" lon="5.76022">
        <ele>737.8</ele>
        <time>2023-09-28T07:48:18Z</time>
      </trkpt>
      <trkpt lat="44.48201" lon="5.7603">
        <ele>737.7</ele>
        <time>2023-09-28T07:48:19Z</time>
      </trkpt>
      <trkpt lat="44.482" lon="5.76037">
        <ele>737.6</ele>
        <time>2023-09-28T07:48:20Z</time>
      </trkpt>
      <trkpt lat="44.48198" lon="5.76042">
        <ele>737.5</ele>
        <time>2023-09-28T07:48:21Z</time>
      </trkpt>
      <trkpt lat="44.48196" lon="5.76048">
        <ele>737.4</ele>
        <time>2023-09-28T07:48:22Z</time>
      </trkpt>
      <trkpt lat="44.48193" lon="5.76053">
        <ele>737.3</ele>
        <time>2023-09-28T07:48:23Z</time>
      </trkpt>
      <trkpt lat="44.48191" lon="5.76059">
        <ele>737.2</ele>
        <time>2023-09-28T07:48:24Z</time>
      </trkpt>
      <trkpt lat="44.48189" lon="5.76066">
        <ele>737</ele>
        <time>2023-09-28T07:48:25Z</time>
      </trkpt>
      <trkpt lat="44.48187" lon="5.76073">
        <ele>736.9</ele>
        <time>2023-09-28T07:48:26Z</time>
      </trkpt>
      <trkpt lat="44.48185" lon="5.7608">
        <ele>736.7</ele>
        <time>2023-09-28T07:48:27Z</time>
      </trkpt>
      <trkpt lat="44.48184" lon="5.76088">
        <ele>736.5</ele>
        <time>2023-09-28T07:48:28Z</time>
      </trkpt>
      <trkpt lat="44.48184" lon="5.76096">
        <ele>736.3</ele>
        <time>2023-09-28T07:48:29Z</time>
      </trkpt>
      <trkpt lat="44.48183" lon="5.76105">
        <ele>736</ele>
        <time>2023-09-28T07:48:30Z</time>
      </trkpt>
      <trkpt lat="44.48184" lon="5.76113">
        <ele>735.8</ele>
        <time>2023-09-28T07:48:31Z</time>
      </trkpt>
      <trkpt lat="44.48184" lon="5.76121">
        <ele>735.6</ele>
        <time>2023-09-28T07:48:32Z</time>
      </trkpt>
      <trkpt lat="44.48185" lon="5.76129">
        <ele>735.4</ele>
        <time>2023-09-28T07:48:33Z</time>
      </trkpt>
      <trkpt lat="44.48186" lon="5.76137">
        <ele>735.2</ele>
        <time>2023-09-28T07:48:34Z</time>
      </trkpt>
      <trkpt lat="44.48186" lon="5.76145">
        <ele>735.1</ele>
        <time>2023-09-28T07:48:35Z</time>
      </trkpt>
      <trkpt lat="44.48186" lon="5.76153">
        <ele>734.9</ele>
        <time>2023-09-28T07:48:36Z</time>
      </trkpt>
      <trkpt lat="44.48186" lon="5.76162">
        <ele>734.8</ele>
        <time>2023-09-28T07:48:37Z</time>
      </trkpt>
      <trkpt lat="44.48186" lon="5.7617">
        <ele>734.6</ele>
        <time>2023-09-28T07:48:38Z</time>
      </trkpt>
      <trkpt lat="44.48187" lon="5.76178">
        <ele>734.5</ele>
        <time>2023-09-28T07:48:39Z</time>
      </trkpt>
      <trkpt lat="44.48187" lon="5.76186">
        <ele>734.4</ele>
        <time>2023-09-28T07:48:40Z</time>
      </trkpt>
      <trkpt lat="44.48187" lon="5.76193">
        <ele>734.3</ele>
        <time>2023-09-28T07:48:41Z</time>
      </trkpt>
      <trkpt lat="44.48188" lon="5.76202">
        <ele>734.1</ele>
        <time>2023-09-28T07:48:42Z</time>
      </trkpt>
      <trkpt lat="44.48188" lon="5.7621">
        <ele>734</ele>
        <time>2023-09-28T07:48:43Z</time>
      </trkpt>
      <trkpt lat="44.48188" lon="5.76218">
        <ele>733.9</ele>
        <time>2023-09-28T07:48:44Z</time>
      </trkpt>
      <trkpt lat="44.48189" lon="5.76226">
        <ele>733.9</ele>
        <time>2023-09-28T07:48:45Z</time>
      </trkpt>
      <trkpt lat="44.48189" lon="5.76234">
        <ele>733.8</ele>
        <time>2023-09-28T07:48:46Z</time>
      </trkpt>
      <trkpt lat="44.4819" lon="5.76242">
        <ele>733.8</ele>
        <time>2023-09-28T07:48:47Z</time>
      </trkpt>
      <trkpt lat="44.4819" lon="5.76249">
        <ele>733.9</ele>
        <time>2023-09-28T07:48:48Z</time>
      </trkpt>
      <trkpt lat="44.4819" lon="5.76256">
        <ele>733.9</ele>
        <time>2023-09-28T07:48:49Z</time>
      </trkpt>
      <trkpt lat="44.4819" lon="5.76262">
        <ele>734</ele>
        <time>2023-09-28T07:48:50Z</time>
      </trkpt>
      <trkpt lat="44.4819" lon="5.76268">
        <ele>734</ele>
        <time>2023-09-28T07:48:51Z</time>
      </trkpt>
      <trkpt lat="44.48189" lon="5.76272">
        <ele>734.1</ele>
        <time>2023-09-28T07:48:52Z</time>
      </trkpt>
      <trkpt lat="44.48188" lon="5.76277">
        <ele>734.2</ele>
        <time>2023-09-28T07:48:53Z</time>
      </trkpt>
      <trkpt lat="44.48187" lon="5.76278">
        <ele>734.2</ele>
        <time>2023-09-28T07:48:54Z</time>
      </trkpt>
      <trkpt lat="44.48187" lon="5.76278">
        <ele>734.2</ele>
        <time>2023-09-28T07:48:55Z</time>
      </trkpt>
      <trkpt lat="44.48187" lon="5.76278">
        <ele>734.2</ele>
        <time>2023-09-28T07:48:56Z</time>
      </trkpt>
      <trkpt lat="44.48187" lon="5.76278">
        <ele>734.2</ele>
        <time>2023-09-28T07:48:57Z</time>
      </trkpt>
      <trkpt lat="44.48186" lon="5.76278">
        <ele>734.2</ele>
        <time>2023-09-28T07:48:59Z</time>
      </trkpt>
      <trkpt lat="44.48186" lon="5.76278">
        <ele>734.2</ele>
        <time>2023-09-28T07:49:00Z</time>
      </trkpt>
      <trkpt lat="44.48186" lon="5.76279">
        <ele>734.2</ele>
        <time>2023-09-28T07:49:01Z</time>
      </trkpt>
      <trkpt lat="44.48186" lon="5.76279">
        <ele>734.2</ele>
        <time>2023-09-28T07:49:03Z</time>
      </trkpt>
      <trkpt lat="44.48186" lon="5.76279">
        <ele>734.2</ele>
        <time>2023-09-28T07:49:04Z</time>
      </trkpt>
      <trkpt lat="44.48186" lon="5.76284">
        <ele>734.3</ele>
        <time>2023-09-28T07:49:25Z</time>
      </trkpt>
      <trkpt lat="44.48188" lon="5.76288">
        <ele>734.3</ele>
        <time>2023-09-28T07:49:26Z</time>
      </trkpt>
      <trkpt lat="44.4819" lon="5.76292">
        <ele>734.4</ele>
        <time>2023-09-28T07:49:27Z</time>
      </trkpt>
      <trkpt lat="44.48194" lon="5.76297">
        <ele>734.4</ele>
        <time>2023-09-28T07:49:29Z</time>
      </trkpt>
      <trkpt lat="44.48198" lon="5.76301">
        <ele>734.5</ele>
        <time>2023-09-28T07:49:30Z</time>
      </trkpt>
      <trkpt lat="44.48202" lon="5.76304">
        <ele>734.5</ele>
        <time>2023-09-28T07:49:31Z</time>
      </trkpt>
      <trkpt lat="44.48206" lon="5.76307">
        <ele>734.6</ele>
        <time>2023-09-28T07:49:32Z</time>
      </trkpt>
      <trkpt lat="44.4821" lon="5.76313">
        <ele>734.6</ele>
        <time>2023-09-28T07:49:34Z</time>
      </trkpt>
      <trkpt lat="44.48215" lon="5.76319">
        <ele>734.7</ele>
        <time>2023-09-28T07:49:35Z</time>
      </trkpt>
      <trkpt lat="44.48219" lon="5.76324">
        <ele>734.8</ele>
        <time>2023-09-28T07:49:36Z</time>
      </trkpt>
      <trkpt lat="44.48222" lon="5.76329">
        <ele>734.8</ele>
        <time>2023-09-28T07:49:37Z</time>
      </trkpt>
      <trkpt lat="44.48225" lon="5.76334">
        <ele>734.9</ele>
        <time>2023-09-28T07:49:38Z</time>
      </trkpt>
      <trkpt lat="44.4823" lon="5.76339">
        <ele>735</ele>
        <time>2023-09-28T07:49:40Z</time>
      </trkpt>
      <trkpt lat="44.48233" lon="5.76344">
        <ele>735</ele>
        <time>2023-09-28T07:49:41Z</time>
      </trkpt>
      <trkpt lat="44.48237" lon="5.76349">
        <ele>735.1</ele>
        <time>2023-09-28T07:49:42Z</time>
      </trkpt>
      <trkpt lat="44.48241" lon="5.76355">
        <ele>735.2</ele>
        <time>2023-09-28T07:49:43Z</time>
      </trkpt>
      <trkpt lat="44.48244" lon="5.7636">
        <ele>735.3</ele>
        <time>2023-09-28T07:49:44Z</time>
      </trkpt>
      <trkpt lat="44.48247" lon="5.76364">
        <ele>735.4</ele>
        <time>2023-09-28T07:49:45Z</time>
      </trkpt>
      <trkpt lat="44.4825" lon="5.76369">
        <ele>735.5</ele>
        <time>2023-09-28T07:49:46Z</time>
      </trkpt>
      <trkpt lat="44.48253" lon="5.76374">
        <ele>735.6</ele>
        <time>2023-09-28T07:49:47Z</time>
      </trkpt>
      <trkpt lat="44.48253" lon="5.7638">
        <ele>736</ele>
        <time>2023-09-28T07:49:48Z</time>
      </trkpt>
      <trkpt lat="44.48252" lon="5.76388">
        <ele>736.3</ele>
        <time>2023-09-28T07:49:50Z</time>
      </trkpt>
      <trkpt lat="44.4825" lon="5.76393">
        <ele>736.6</ele>
        <time>2023-09-28T07:49:51Z</time>
      </trkpt>
      <trkpt lat="44.48248" lon="5.76398">
        <ele>736.8</ele>
        <time>2023-09-28T07:49:52Z</time>
      </trkpt>
      <trkpt lat="44.48243" lon="5.76403">
        <ele>737</ele>
        <time>2023-09-28T07:49:53Z</time>
      </trkpt>
      <trkpt lat="44.48239" lon="5.76409">
        <ele>737.2</ele>
        <time>2023-09-28T07:49:55Z</time>
      </trkpt>
      <trkpt lat="44.48235" lon="5.76413">
        <ele>737.3</ele>
        <time>2023-09-28T07:49:56Z</time>
      </trkpt>
      <trkpt lat="44.48232" lon="5.76417">
        <ele>737.4</ele>
        <time>2023-09-28T07:49:57Z</time>
      </trkpt>
      <trkpt lat="44.48229" lon="5.76422">
        <ele>737.6</ele>
        <time>2023-09-28T07:49:58Z</time>
      </trkpt>
      <trkpt lat="44.48224" lon="5.76429">
        <ele>737.8</ele>
        <time>2023-09-28T07:50:00Z</time>
      </trkpt>
      <trkpt lat="44.4822" lon="5.76434">
        <ele>737.9</ele>
        <time>2023-09-28T07:50:01Z</time>
      </trkpt>
      <trkpt lat="44.48216" lon="5.76438">
        <ele>738</ele>
        <time>2023-09-28T07:50:02Z</time>
      </trkpt>
      <trkpt lat="44.48214" lon="5.76443">
        <ele>738.1</ele>
        <time>2023-09-28T07:50:03Z</time>
      </trkpt>
      <trkpt lat="44.48207" lon="5.76451">
        <ele>738.2</ele>
        <time>2023-09-28T07:50:05Z</time>
      </trkpt>
      <trkpt lat="44.48203" lon="5.76457">
        <ele>738.2</ele>
        <time>2023-09-28T07:50:07Z</time>
      </trkpt>
      <trkpt lat="44.48199" lon="5.76462">
        <ele>738.3</ele>
        <time>2023-09-28T07:50:08Z</time>
      </trkpt>
      <trkpt lat="44.48197" lon="5.76466">
        <ele>738.3</ele>
        <time>2023-09-28T07:50:09Z</time>
      </trkpt>
      <trkpt lat="44.48195" lon="5.76469">
        <ele>738.4</ele>
        <time>2023-09-28T07:50:10Z</time>
      </trkpt>
      <trkpt lat="44.48191" lon="5.76471">
        <ele>738.4</ele>
        <time>2023-09-28T07:50:11Z</time>
      </trkpt>
      <trkpt lat="44.48187" lon="5.76475">
        <ele>738.5</ele>
        <time>2023-09-28T07:50:13Z</time>
      </trkpt>
      <trkpt lat="44.48183" lon="5.76483">
        <ele>738.6</ele>
        <time>2023-09-28T07:50:14Z</time>
      </trkpt>
      <trkpt lat="44.48178" lon="5.76489">
        <ele>738.7</ele>
        <time>2023-09-28T07:50:16Z</time>
      </trkpt>
      <trkpt lat="44.48176" lon="5.76492">
        <ele>738.8</ele>
        <time>2023-09-28T07:50:17Z</time>
      </trkpt>
      <trkpt lat="44.48174" lon="5.76495">
        <ele>738.8</ele>
        <time>2023-09-28T07:50:18Z</time>
      </trkpt>
      <trkpt lat="44.4817" lon="5.76499">
        <ele>738.9</ele>
        <time>2023-09-28T07:50:20Z</time>
      </trkpt>
      <trkpt lat="44.4817" lon="5.765">
        <ele>738.9</ele>
        <time>2023-09-28T07:50:21Z</time>
      </trkpt>
      <trkpt lat="44.48169" lon="5.76502">
        <ele>738.9</ele>
        <time>2023-09-28T07:50:22Z</time>
      </trkpt>
      <trkpt lat="44.48167" lon="5.76505">
        <ele>738.9</ele>
        <time>2023-09-28T07:50:23Z</time>
      </trkpt>
      <trkpt lat="44.48166" lon="5.76506">
        <ele>738.9</ele>
        <time>2023-09-28T07:50:24Z</time>
      </trkpt>
      <trkpt lat="44.48164" lon="5.76508">
        <ele>739</ele>
        <time>2023-09-28T07:50:25Z</time>
      </trkpt>
      <trkpt lat="44.48163" lon="5.76509">
        <ele>739</ele>
        <time>2023-09-28T07:50:26Z</time>
      </trkpt>
      <trkpt lat="44.48162" lon="5.7651">
        <ele>739</ele>
        <time>2023-09-28T07:50:27Z</time>
      </trkpt>
      <trkpt lat="44.48161" lon="5.76512">
        <ele>739</ele>
        <time>2023-09-28T07:50:29Z</time>
      </trkpt>
      <trkpt lat="44.48161" lon="5.76512">
        <ele>739</ele>
        <time>2023-09-28T07:50:30Z</time>
      </trkpt>
      <trkpt lat="44.48161" lon="5.76512">
        <ele>739</ele>
        <time>2023-09-28T07:50:31Z</time>
      </trkpt>
      <trkpt lat="44.48162" lon="5.76511">
        <ele>739</ele>
        <time>2023-09-28T07:50:32Z</time>
      </trkpt>
      <trkpt lat="44.48162" lon="5.76511">
        <ele>739</ele>
        <time>2023-09-28T07:50:34Z</time>
      </trkpt>
      <trkpt lat="44.48162" lon="5.76511">
        <ele>739</ele>
        <time>2023-09-28T07:50:35Z</time>
      </trkpt>
      <trkpt lat="44.48162" lon="5.76511">
        <ele>739</ele>
        <time>2023-09-28T07:50:36Z</time>
      </trkpt>
      <trkpt lat="44.48162" lon="5.76511">
        <ele>739</ele>
        <time>2023-09-28T07:50:37Z</time>
      </trkpt>
      <trkpt lat="44.48162" lon="5.76511">
        <ele>739</ele>
        <time>2023-09-28T07:50:39Z</time>
      </trkpt>
      <trkpt lat="44.48162" lon="5.76518">
        <ele>739.1</ele>
        <time>2023-09-28T07:50:46Z</time>
      </trkpt>
      <trkpt lat="44.4816" lon="5.76524">
        <ele>739.1</ele>
        <time>2023-09-28T07:50:48Z</time>
      </trkpt>
      <trkpt lat="44.48157" lon="5.76527">
        <ele>739.2</ele>
        <time>2023-09-28T07:50:49Z</time>
      </trkpt>
      <trkpt lat="44.48155" lon="5.76532">
        <ele>739.3</ele>
        <time>2023-09-28T07:50:50Z</time>
      </trkpt>
      <trkpt lat="44.48152" lon="5.76537">
        <ele>739.3</ele>
        <time>2023-09-28T07:50:51Z</time>
      </trkpt>
      <trkpt lat="44.4815" lon="5.76542">
        <ele>739.4</ele>
        <time>2023-09-28T07:50:52Z</time>
      </trkpt>
      <trkpt lat="44.48148" lon="5.76546">
        <ele>739.4</ele>
        <time>2023-09-28T07:50:53Z</time>
      </trkpt>
      <trkpt lat="44.48145" lon="5.76553">
        <ele>739.5</ele>
        <time>2023-09-28T07:50:55Z</time>
      </trkpt>
      <trkpt lat="44.48143" lon="5.76557">
        <ele>739.6</ele>
        <time>2023-09-28T07:50:56Z</time>
      </trkpt>
      <trkpt lat="44.48141" lon="5.76563">
        <ele>739.6</ele>
        <time>2023-09-28T07:50:57Z</time>
      </trkpt>
      <trkpt lat="44.48139" lon="5.76569">
        <ele>739.7</ele>
        <time>2023-09-28T07:50:58Z</time>
      </trkpt>
      <trkpt lat="44.48136" lon="5.76575">
        <ele>739.8</ele>
        <time>2023-09-28T07:50:59Z</time>
      </trkpt>
      <trkpt lat="44.48133" lon="5.76581">
        <ele>739.8</ele>
        <time>2023-09-28T07:51:00Z</time>
      </trkpt>
      <trkpt lat="44.48131" lon="5.76586">
        <ele>739.9</ele>
        <time>2023-09-28T07:51:01Z</time>
      </trkpt>
      <trkpt lat="44.48129" lon="5.76592">
        <ele>740</ele>
        <time>2023-09-28T07:51:02Z</time>
      </trkpt>
      <trkpt lat="44.48125" lon="5.766">
        <ele>740.1</ele>
        <time>2023-09-28T07:51:04Z</time>
      </trkpt>
      <trkpt lat="44.48124" lon="5.76606">
        <ele>740.1</ele>
        <time>2023-09-28T07:51:05Z</time>
      </trkpt>
      <trkpt lat="44.48122" lon="5.76613">
        <ele>740.2</ele>
        <time>2023-09-28T07:51:06Z</time>
      </trkpt>
      <trkpt lat="44.4812" lon="5.76619">
        <ele>740.3</ele>
        <time>2023-09-28T07:51:07Z</time>
      </trkpt>
      <trkpt lat="44.48118" lon="5.76624">
        <ele>740.3</ele>
        <time>2023-09-28T07:51:09Z</time>
      </trkpt>
      <trkpt lat="44.48116" lon="5.76633">
        <ele>740.4</ele>
        <time>2023-09-28T07:51:10Z</time>
      </trkpt>
      <trkpt lat="44.48114" lon="5.7664">
        <ele>740.5</ele>
        <time>2023-09-28T07:51:11Z</time>
      </trkpt>
      <trkpt lat="44.48113" lon="5.76646">
        <ele>740.5</ele>
        <time>2023-09-28T07:51:12Z</time>
      </trkpt>
      <trkpt lat="44.48111" lon="5.76652">
        <ele>740.6</ele>
        <time>2023-09-28T07:51:13Z</time>
      </trkpt>
      <trkpt lat="44.48109" lon="5.76658">
        <ele>740.7</ele>
        <time>2023-09-28T07:51:15Z</time>
      </trkpt>
      <trkpt lat="44.48107" lon="5.76665">
        <ele>740.7</ele>
        <time>2023-09-28T07:51:16Z</time>
      </trkpt>
      <trkpt lat="44.48105" lon="5.7667">
        <ele>740.8</ele>
        <time>2023-09-28T07:51:17Z</time>
      </trkpt>
      <trkpt lat="44.48103" lon="5.76676">
        <ele>740.9</ele>
        <time>2023-09-28T07:51:18Z</time>
      </trkpt>
      <trkpt lat="44.48101" lon="5.76682">
        <ele>741</ele>
        <time>2023-09-28T07:51:19Z</time>
      </trkpt>
      <trkpt lat="44.48098" lon="5.76688">
        <ele>741.2</ele>
        <time>2023-09-28T07:51:21Z</time>
      </trkpt>
      <trkpt lat="44.48095" lon="5.76694">
        <ele>741.3</ele>
        <time>2023-09-28T07:51:22Z</time>
      </trkpt>
      <trkpt lat="44.48093" lon="5.767">
        <ele>741.4</ele>
        <time>2023-09-28T07:51:23Z</time>
      </trkpt>
      <trkpt lat="44.48091" lon="5.76705">
        <ele>741.5</ele>
        <time>2023-09-28T07:51:24Z</time>
      </trkpt>
      <trkpt lat="44.48089" lon="5.7671">
        <ele>741.6</ele>
        <time>2023-09-28T07:51:25Z</time>
      </trkpt>
      <trkpt lat="44.48087" lon="5.76715">
        <ele>741.8</ele>
        <time>2023-09-28T07:51:26Z</time>
      </trkpt>
      <trkpt lat="44.48084" lon="5.7672">
        <ele>741.9</ele>
        <time>2023-09-28T07:51:27Z</time>
      </trkpt>
      <trkpt lat="44.48082" lon="5.76726">
        <ele>742</ele>
        <time>2023-09-28T07:51:28Z</time>
      </trkpt>
      <trkpt lat="44.4808" lon="5.76732">
        <ele>742.1</ele>
        <time>2023-09-28T07:51:30Z</time>
      </trkpt>
      <trkpt lat="44.48078" lon="5.76738">
        <ele>742.3</ele>
        <time>2023-09-28T07:51:31Z</time>
      </trkpt>
      <trkpt lat="44.48076" lon="5.76742">
        <ele>742.4</ele>
        <time>2023-09-28T07:51:32Z</time>
      </trkpt>
      <trkpt lat="44.48074" lon="5.76748">
        <ele>742.6</ele>
        <time>2023-09-28T07:51:33Z</time>
      </trkpt>
      <trkpt lat="44.48072" lon="5.76754">
        <ele>742.7</ele>
        <time>2023-09-28T07:51:34Z</time>
      </trkpt>
      <trkpt lat="44.48071" lon="5.7676">
        <ele>742.9</ele>
        <time>2023-09-28T07:51:35Z</time>
      </trkpt>
      <trkpt lat="44.4807" lon="5.76764">
        <ele>743</ele>
        <time>2023-09-28T07:51:36Z</time>
      </trkpt>
      <trkpt lat="44.48069" lon="5.76771">
        <ele>743.1</ele>
        <time>2023-09-28T07:51:38Z</time>
      </trkpt>
      <trkpt lat="44.48069" lon="5.76776">
        <ele>743.2</ele>
        <time>2023-09-28T07:51:39Z</time>
      </trkpt>
      <trkpt lat="44.48068" lon="5.76782">
        <ele>743.4</ele>
        <time>2023-09-28T07:51:40Z</time>
      </trkpt>
      <trkpt lat="44.48068" lon="5.76787">
        <ele>743.5</ele>
        <time>2023-09-28T07:51:41Z</time>
      </trkpt>
      <trkpt lat="44.48067" lon="5.76792">
        <ele>743.6</ele>
        <time>2023-09-28T07:51:42Z</time>
      </trkpt>
      <trkpt lat="44.48066" lon="5.76797">
        <ele>743.8</ele>
        <time>2023-09-28T07:51:43Z</time>
      </trkpt>
      <trkpt lat="44.48065" lon="5.76803">
        <ele>743.9</ele>
        <time>2023-09-28T07:51:44Z</time>
      </trkpt>
      <trkpt lat="44.48065" lon="5.76808">
        <ele>744.1</ele>
        <time>2023-09-28T07:51:45Z</time>
      </trkpt>
      <trkpt lat="44.48064" lon="5.76813">
        <ele>744.2</ele>
        <time>2023-09-28T07:51:46Z</time>
      </trkpt>
      <trkpt lat="44.48064" lon="5.76816">
        <ele>744.3</ele>
        <time>2023-09-28T07:51:47Z</time>
      </trkpt>
      <trkpt lat="44.48063" lon="5.76822">
        <ele>744.5</ele>
        <time>2023-09-28T07:51:49Z</time>
      </trkpt>
      <trkpt lat="44.48063" lon="5.76825">
        <ele>744.5</ele>
        <time>2023-09-28T07:51:50Z</time>
      </trkpt>
      <trkpt lat="44.48063" lon="5.76827">
        <ele>744.6</ele>
        <time>2023-09-28T07:51:51Z</time>
      </trkpt>
      <trkpt lat="44.48062" lon="5.76829">
        <ele>744.7</ele>
        <time>2023-09-28T07:51:52Z</time>
      </trkpt>
      <trkpt lat="44.48062" lon="5.76831">
        <ele>744.7</ele>
        <time>2023-09-28T07:51:53Z</time>
      </trkpt>
      <trkpt lat="44.48062" lon="5.76832">
        <ele>744.7</ele>
        <time>2023-09-28T07:51:54Z</time>
      </trkpt>
      <trkpt lat="44.48062" lon="5.76833">
        <ele>744.7</ele>
        <time>2023-09-28T07:51:55Z</time>
      </trkpt>
      <trkpt lat="44.48062" lon="5.76832">
        <ele>744.7</ele>
        <time>2023-09-28T07:51:56Z</time>
      </trkpt>
      <trkpt lat="44.48062" lon="5.76832">
        <ele>744.7</ele>
        <time>2023-09-28T07:51:58Z</time>
      </trkpt>
      <trkpt lat="44.48062" lon="5.76832">
        <ele>744.7</ele>
        <time>2023-09-28T07:51:59Z</time>
      </trkpt>
      <trkpt lat="44.48062" lon="5.76832">
        <ele>744.7</ele>
        <time>2023-09-28T07:52:00Z</time>
      </trkpt>
      <trkpt lat="44.48062" lon="5.76832">
        <ele>744.7</ele>
        <time>2023-09-28T07:52:01Z</time>
      </trkpt>
      <trkpt lat="44.48062" lon="5.76831">
        <ele>744.7</ele>
        <time>2023-09-28T07:52:03Z</time>
      </trkpt>
      <trkpt lat="44.48062" lon="5.76831">
        <ele>744.7</ele>
        <time>2023-09-28T07:52:04Z</time>
      </trkpt>
      <trkpt lat="44.48066" lon="5.76833">
        <ele>744.7</ele>
        <time>2023-09-28T07:52:39Z</time>
      </trkpt>
      <trkpt lat="44.4807" lon="5.76834">
        <ele>744.7</ele>
        <time>2023-09-28T07:52:40Z</time>
      </trkpt>
      <trkpt lat="44.48073" lon="5.76836">
        <ele>744.7</ele>
        <time>2023-09-28T07:52:41Z</time>
      </trkpt>
      <trkpt lat="44.48077" lon="5.76838">
        <ele>744.8</ele>
        <time>2023-09-28T07:52:42Z</time>
      </trkpt>
      <trkpt lat="44.48082" lon="5.76841">
        <ele>744.8</ele>
        <time>2023-09-28T07:52:43Z</time>
      </trkpt>
      <trkpt lat="44.48085" lon="5.76842">
        <ele>744.8</ele>
        <time>2023-09-28T07:52:44Z</time>
      </trkpt>
      <trkpt lat="44.4809" lon="5.76843">
        <ele>744.8</ele>
        <time>2023-09-28T07:52:46Z</time>
      </trkpt>
      <trkpt lat="44.48097" lon="5.76844">
        <ele>744.9</ele>
        <time>2023-09-28T07:52:47Z</time>
      </trkpt>
      <trkpt lat="44.48102" lon="5.76845">
        <ele>745</ele>
        <time>2023-09-28T07:52:48Z</time>
      </trkpt>
      <trkpt lat="44.48106" lon="5.76847">
        <ele>745.1</ele>
        <time>2023-09-28T07:52:49Z</time>
      </trkpt>
      <trkpt lat="44.48111" lon="5.76848">
        <ele>745.3</ele>
        <time>2023-09-28T07:52:51Z</time>
      </trkpt>
      <trkpt lat="44.48118" lon="5.7685">
        <ele>745.5</ele>
        <time>2023-09-28T07:52:52Z</time>
      </trkpt>
      <trkpt lat="44.48123" lon="5.76852">
        <ele>745.6</ele>
        <time>2023-09-28T07:52:53Z</time>
      </trkpt>
      <trkpt lat="44.48126" lon="5.76854">
        <ele>745.7</ele>
        <time>2023-09-28T07:52:54Z</time>
      </trkpt>
      <trkpt lat="44.48132" lon="5.76856">
        <ele>745.9</ele>
        <time>2023-09-28T07:52:56Z</time>
      </trkpt>
      <trkpt lat="44.48136" lon="5.76857">
        <ele>746.1</ele>
        <time>2023-09-28T07:52:57Z</time>
      </trkpt>
      <trkpt lat="44.48141" lon="5.76859">
        <ele>746.3</ele>
        <time>2023-09-28T07:52:58Z</time>
      </trkpt>
      <trkpt lat="44.48148" lon="5.76862">
        <ele>746.6</ele>
        <time>2023-09-28T07:52:59Z</time>
      </trkpt>
      <trkpt lat="44.48153" lon="5.76865">
        <ele>746.8</ele>
        <time>2023-09-28T07:53:01Z</time>
      </trkpt>
      <trkpt lat="44.48156" lon="5.76868">
        <ele>746.9</ele>
        <time>2023-09-28T07:53:02Z</time>
      </trkpt>
      <trkpt lat="44.48161" lon="5.76871">
        <ele>747.1</ele>
        <time>2023-09-28T07:53:03Z</time>
      </trkpt>
      <trkpt lat="44.48165" lon="5.76874">
        <ele>747.3</ele>
        <time>2023-09-28T07:53:04Z</time>
      </trkpt>
      <trkpt lat="44.48168" lon="5.76876">
        <ele>747.5</ele>
        <time>2023-09-28T07:53:05Z</time>
      </trkpt>
      <trkpt lat="44.48172" lon="5.7688">
        <ele>747.7</ele>
        <time>2023-09-28T07:53:06Z</time>
      </trkpt>
      <trkpt lat="44.48176" lon="5.76884">
        <ele>747.9</ele>
        <time>2023-09-28T07:53:07Z</time>
      </trkpt>
      <trkpt lat="44.48179" lon="5.76888">
        <ele>748.1</ele>
        <time>2023-09-28T07:53:08Z</time>
      </trkpt>
      <trkpt lat="44.48183" lon="5.76892">
        <ele>748.3</ele>
        <time>2023-09-28T07:53:09Z</time>
      </trkpt>
      <trkpt lat="44.48186" lon="5.76897">
        <ele>748.5</ele>
        <time>2023-09-28T07:53:10Z</time>
      </trkpt>
      <trkpt lat="44.4819" lon="5.76902">
        <ele>748.7</ele>
        <time>2023-09-28T07:53:12Z</time>
      </trkpt>
      <trkpt lat="44.48193" lon="5.76906">
        <ele>748.8</ele>
        <time>2023-09-28T07:53:13Z</time>
      </trkpt>
      <trkpt lat="44.48194" lon="5.7691">
        <ele>749</ele>
        <time>2023-09-28T07:53:14Z</time>
      </trkpt>
      <trkpt lat="44.48197" lon="5.76915">
        <ele>749.1</ele>
        <time>2023-09-28T07:53:15Z</time>
      </trkpt>
      <trkpt lat="44.48199" lon="5.7692">
        <ele>749.3</ele>
        <time>2023-09-28T07:53:16Z</time>
      </trkpt>
      <trkpt lat="44.48201" lon="5.76924">
        <ele>749.4</ele>
        <time>2023-09-28T07:53:17Z</time>
      </trkpt>
      <trkpt lat="44.48204" lon="5.76932">
        <ele>749.5</ele>
        <time>2023-09-28T07:53:19Z</time>
      </trkpt>
      <trkpt lat="44.48206" lon="5.76938">
        <ele>749.7</ele>
        <time>2023-09-28T07:53:20Z</time>
      </trkpt>
      <trkpt lat="44.48207" lon="5.76943">
        <ele>749.8</ele>
        <time>2023-09-28T07:53:21Z</time>
      </trkpt>
      <trkpt lat="44.48209" lon="5.76947">
        <ele>749.8</ele>
        <time>2023-09-28T07:53:22Z</time>
      </trkpt>
      <trkpt lat="44.48211" lon="5.76953">
        <ele>749.9</ele>
        <time>2023-09-28T07:53:24Z</time>
      </trkpt>
      <trkpt lat="44.48213" lon="5.76958">
        <ele>750</ele>
        <time>2023-09-28T07:53:25Z</time>
      </trkpt>
      <trkpt lat="44.48214" lon="5.76962">
        <ele>750.1</ele>
        <time>2023-09-28T07:53:26Z</time>
      </trkpt>
      <trkpt lat="44.48216" lon="5.76968">
        <ele>750.2</ele>
        <time>2023-09-28T07:53:27Z</time>
      </trkpt>
      <trkpt lat="44.48217" lon="5.76972">
        <ele>750.3</ele>
        <time>2023-09-28T07:53:28Z</time>
      </trkpt>
      <trkpt lat="44.4822" lon="5.76978">
        <ele>750.4</ele>
        <time>2023-09-28T07:53:29Z</time>
      </trkpt>
      <trkpt lat="44.48222" lon="5.76982">
        <ele>750.4</ele>
        <time>2023-09-28T07:53:30Z</time>
      </trkpt>
      <trkpt lat="44.48224" lon="5.76988">
        <ele>750.5</ele>
        <time>2023-09-28T07:53:32Z</time>
      </trkpt>
      <trkpt lat="44.48226" lon="5.76994">
        <ele>750.6</ele>
        <time>2023-09-28T07:53:33Z</time>
      </trkpt>
      <trkpt lat="44.48228" lon="5.77">
        <ele>750.6</ele>
        <time>2023-09-28T07:53:34Z</time>
      </trkpt>
      <trkpt lat="44.48229" lon="5.77005">
        <ele>750.7</ele>
        <time>2023-09-28T07:53:35Z</time>
      </trkpt>
      <trkpt lat="44.48231" lon="5.7701">
        <ele>750.7</ele>
        <time>2023-09-28T07:53:36Z</time>
      </trkpt>
      <trkpt lat="44.48233" lon="5.77015">
        <ele>750.8</ele>
        <time>2023-09-28T07:53:37Z</time>
      </trkpt>
      <trkpt lat="44.48235" lon="5.7702">
        <ele>750.8</ele>
        <time>2023-09-28T07:53:38Z</time>
      </trkpt>
      <trkpt lat="44.48238" lon="5.77028">
        <ele>750.9</ele>
        <time>2023-09-28T07:53:40Z</time>
      </trkpt>
      <trkpt lat="44.48241" lon="5.77033">
        <ele>751</ele>
        <time>2023-09-28T07:53:41Z</time>
      </trkpt>
      <trkpt lat="44.48243" lon="5.77039">
        <ele>751.1</ele>
        <time>2023-09-28T07:53:42Z</time>
      </trkpt>
      <trkpt lat="44.48244" lon="5.77044">
        <ele>751.2</ele>
        <time>2023-09-28T07:53:43Z</time>
      </trkpt>
      <trkpt lat="44.48246" lon="5.77048">
        <ele>751.2</ele>
        <time>2023-09-28T07:53:44Z</time>
      </trkpt>
      <trkpt lat="44.48248" lon="5.77054">
        <ele>751.3</ele>
        <time>2023-09-28T07:53:46Z</time>
      </trkpt>
      <trkpt lat="44.48251" lon="5.77062">
        <ele>751.5</ele>
        <time>2023-09-28T07:53:47Z</time>
      </trkpt>
      <trkpt lat="44.48254" lon="5.77067">
        <ele>751.5</ele>
        <time>2023-09-28T07:53:48Z</time>
      </trkpt>
      <trkpt lat="44.48255" lon="5.77072">
        <ele>751.6</ele>
        <time>2023-09-28T07:53:49Z</time>
      </trkpt>
      <trkpt lat="44.48257" lon="5.77078">
        <ele>751.7</ele>
        <time>2023-09-28T07:53:51Z</time>
      </trkpt>
      <trkpt lat="44.48259" lon="5.77083">
        <ele>751.8</ele>
        <time>2023-09-28T07:53:52Z</time>
      </trkpt>
      <trkpt lat="44.48261" lon="5.77088">
        <ele>751.9</ele>
        <time>2023-09-28T07:53:53Z</time>
      </trkpt>
      <trkpt lat="44.48263" lon="5.77093">
        <ele>752</ele>
        <time>2023-09-28T07:53:54Z</time>
      </trkpt>
      <trkpt lat="44.48265" lon="5.77099">
        <ele>752.1</ele>
        <time>2023-09-28T07:53:55Z</time>
      </trkpt>
      <trkpt lat="44.48267" lon="5.77104">
        <ele>752.1</ele>
        <time>2023-09-28T07:53:56Z</time>
      </trkpt>
      <trkpt lat="44.48269" lon="5.77109">
        <ele>752.2</ele>
        <time>2023-09-28T07:53:57Z</time>
      </trkpt>
      <trkpt lat="44.48271" lon="5.77114">
        <ele>752.3</ele>
        <time>2023-09-28T07:53:58Z</time>
      </trkpt>
      <trkpt lat="44.48273" lon="5.7712">
        <ele>752.4</ele>
        <time>2023-09-28T07:53:59Z</time>
      </trkpt>
      <trkpt lat="44.48275" lon="5.77125">
        <ele>752.4</ele>
        <time>2023-09-28T07:54:00Z</time>
      </trkpt>
      <trkpt lat="44.48279" lon="5.77136">
        <ele>752.6</ele>
        <time>2023-09-28T07:54:02Z</time>
      </trkpt>
      <trkpt lat="44.48281" lon="5.77141">
        <ele>752.7</ele>
        <time>2023-09-28T07:54:03Z</time>
      </trkpt>
      <trkpt lat="44.48283" lon="5.77147">
        <ele>752.8</ele>
        <time>2023-09-28T07:54:05Z</time>
      </trkpt>
      <trkpt lat="44.48285" lon="5.77153">
        <ele>752.9</ele>
        <time>2023-09-28T07:54:06Z</time>
      </trkpt>
      <trkpt lat="44.48287" lon="5.77159">
        <ele>753.1</ele>
        <time>2023-09-28T07:54:07Z</time>
      </trkpt>
      <trkpt lat="44.48289" lon="5.77164">
        <ele>753.2</ele>
        <time>2023-09-28T07:54:08Z</time>
      </trkpt>
      <trkpt lat="44.48291" lon="5.77169">
        <ele>753.3</ele>
        <time>2023-09-28T07:54:09Z</time>
      </trkpt>
      <trkpt lat="44.48292" lon="5.77174">
        <ele>753.4</ele>
        <time>2023-09-28T07:54:10Z</time>
      </trkpt>
      <trkpt lat="44.48295" lon="5.7718">
        <ele>753.5</ele>
        <time>2023-09-28T07:54:12Z</time>
      </trkpt>
      <trkpt lat="44.48298" lon="5.77189">
        <ele>753.6</ele>
        <time>2023-09-28T07:54:13Z</time>
      </trkpt>
      <trkpt lat="44.483" lon="5.77196">
        <ele>753.7</ele>
        <time>2023-09-28T07:54:15Z</time>
      </trkpt>
      <trkpt lat="44.48302" lon="5.77201">
        <ele>753.8</ele>
        <time>2023-09-28T07:54:16Z</time>
      </trkpt>
      <trkpt lat="44.48304" lon="5.77206">
        <ele>753.8</ele>
        <time>2023-09-28T07:54:17Z</time>
      </trkpt>
      <trkpt lat="44.48306" lon="5.77211">
        <ele>753.9</ele>
        <time>2023-09-28T07:54:18Z</time>
      </trkpt>
      <trkpt lat="44.48308" lon="5.77217">
        <ele>754</ele>
        <time>2023-09-28T07:54:19Z</time>
      </trkpt>
      <trkpt lat="44.4831" lon="5.77222">
        <ele>754</ele>
        <time>2023-09-28T07:54:20Z</time>
      </trkpt>
      <trkpt lat="44.48312" lon="5.77228">
        <ele>754.1</ele>
        <time>2023-09-28T07:54:21Z</time>
      </trkpt>
      <trkpt lat="44.48314" lon="5.77234">
        <ele>754.2</ele>
        <time>2023-09-28T07:54:23Z</time>
      </trkpt>
      <trkpt lat="44.48316" lon="5.77239">
        <ele>754.2</ele>
        <time>2023-09-28T07:54:24Z</time>
      </trkpt>
      <trkpt lat="44.48318" lon="5.77246">
        <ele>754.3</ele>
        <time>2023-09-28T07:54:25Z</time>
      </trkpt>
      <trkpt lat="44.4832" lon="5.77252">
        <ele>754.3</ele>
        <time>2023-09-28T07:54:26Z</time>
      </trkpt>
      <trkpt lat="44.48322" lon="5.77257">
        <ele>754.4</ele>
        <time>2023-09-28T07:54:27Z</time>
      </trkpt>
      <trkpt lat="44.48324" lon="5.77262">
        <ele>754.4</ele>
        <time>2023-09-28T07:54:28Z</time>
      </trkpt>
      <trkpt lat="44.48326" lon="5.77268">
        <ele>754.5</ele>
        <time>2023-09-28T07:54:29Z</time>
      </trkpt>
      <trkpt lat="44.48328" lon="5.77274">
        <ele>754.5</ele>
        <time>2023-09-28T07:54:31Z</time>
      </trkpt>
      <trkpt lat="44.4833" lon="5.77279">
        <ele>754.6</ele>
        <time>2023-09-28T07:54:32Z</time>
      </trkpt>
      <trkpt lat="44.48332" lon="5.77283">
        <ele>754.6</ele>
        <time>2023-09-28T07:54:33Z</time>
      </trkpt>
      <trkpt lat="44.48335" lon="5.77289">
        <ele>754.7</ele>
        <time>2023-09-28T07:54:34Z</time>
      </trkpt>
      <trkpt lat="44.48336" lon="5.77295">
        <ele>754.7</ele>
        <time>2023-09-28T07:54:35Z</time>
      </trkpt>
      <trkpt lat="44.48338" lon="5.773">
        <ele>754.7</ele>
        <time>2023-09-28T07:54:36Z</time>
      </trkpt>
      <trkpt lat="44.4834" lon="5.77305">
        <ele>754.8</ele>
        <time>2023-09-28T07:54:37Z</time>
      </trkpt>
      <trkpt lat="44.48342" lon="5.7731">
        <ele>754.8</ele>
        <time>2023-09-28T07:54:38Z</time>
      </trkpt>
      <trkpt lat="44.48344" lon="5.77316">
        <ele>754.9</ele>
        <time>2023-09-28T07:54:39Z</time>
      </trkpt>
      <trkpt lat="44.48347" lon="5.77322">
        <ele>754.9</ele>
        <time>2023-09-28T07:54:40Z</time>
      </trkpt>
      <trkpt lat="44.48349" lon="5.77328">
        <ele>755</ele>
        <time>2023-09-28T07:54:42Z</time>
      </trkpt>
      <trkpt lat="44.48351" lon="5.77333">
        <ele>755</ele>
        <time>2023-09-28T07:54:43Z</time>
      </trkpt>
      <trkpt lat="44.48353" lon="5.77339">
        <ele>755.1</ele>
        <time>2023-09-28T07:54:44Z</time>
      </trkpt>
      <trkpt lat="44.48355" lon="5.77344">
        <ele>755.1</ele>
        <time>2023-09-28T07:54:45Z</time>
      </trkpt>
      <trkpt lat="44.48357" lon="5.7735">
        <ele>755.2</ele>
        <time>2023-09-28T07:54:46Z</time>
      </trkpt>
      <trkpt lat="44.48359" lon="5.77356">
        <ele>755.2</ele>
        <time>2023-09-28T07:54:47Z</time>
      </trkpt>
      <trkpt lat="44.48361" lon="5.77361">
        <ele>755.3</ele>
        <time>2023-09-28T07:54:48Z</time>
      </trkpt>
      <trkpt lat="44.48363" lon="5.77366">
        <ele>755.3</ele>
        <time>2023-09-28T07:54:49Z</time>
      </trkpt>
      <trkpt lat="44.48365" lon="5.77372">
        <ele>755.4</ele>
        <time>2023-09-28T07:54:51Z</time>
      </trkpt>
      <trkpt lat="44.48368" lon="5.7738">
        <ele>755.4</ele>
        <time>2023-09-28T07:54:52Z</time>
      </trkpt>
      <trkpt lat="44.4837" lon="5.77386">
        <ele>755.5</ele>
        <time>2023-09-28T07:54:53Z</time>
      </trkpt>
      <trkpt lat="44.48372" lon="5.77391">
        <ele>755.5</ele>
        <time>2023-09-28T07:54:54Z</time>
      </trkpt>
      <trkpt lat="44.48374" lon="5.77397">
        <ele>755.6</ele>
        <time>2023-09-28T07:54:55Z</time>
      </trkpt>
      <trkpt lat="44.48376" lon="5.77402">
        <ele>755.6</ele>
        <time>2023-09-28T07:54:57Z</time>
      </trkpt>
      <trkpt lat="44.48378" lon="5.77408">
        <ele>755.7</ele>
        <time>2023-09-28T07:54:58Z</time>
      </trkpt>
      <trkpt lat="44.48381" lon="5.77415">
        <ele>755.7</ele>
        <time>2023-09-28T07:54:59Z</time>
      </trkpt>
      <trkpt lat="44.48383" lon="5.77419">
        <ele>755.8</ele>
        <time>2023-09-28T07:55:00Z</time>
      </trkpt>
      <trkpt lat="44.48385" lon="5.77425">
        <ele>755.9</ele>
        <time>2023-09-28T07:55:01Z</time>
      </trkpt>
      <trkpt lat="44.48386" lon="5.7743">
        <ele>755.9</ele>
        <time>2023-09-28T07:55:02Z</time>
      </trkpt>
      <trkpt lat="44.48388" lon="5.77435">
        <ele>755.9</ele>
        <time>2023-09-28T07:55:03Z</time>
      </trkpt>
      <trkpt lat="44.48391" lon="5.77441">
        <ele>756</ele>
        <time>2023-09-28T07:55:04Z</time>
      </trkpt>
      <trkpt lat="44.48393" lon="5.77447">
        <ele>756.1</ele>
        <time>2023-09-28T07:55:06Z</time>
      </trkpt>
      <trkpt lat="44.48395" lon="5.77452">
        <ele>756.1</ele>
        <time>2023-09-28T07:55:07Z</time>
      </trkpt>
      <trkpt lat="44.48397" lon="5.77457">
        <ele>756.2</ele>
        <time>2023-09-28T07:55:08Z</time>
      </trkpt>
      <trkpt lat="44.48398" lon="5.77462">
        <ele>756.2</ele>
        <time>2023-09-28T07:55:09Z</time>
      </trkpt>
      <trkpt lat="44.48401" lon="5.77468">
        <ele>756.3</ele>
        <time>2023-09-28T07:55:10Z</time>
      </trkpt>
      <trkpt lat="44.48402" lon="5.77473">
        <ele>756.4</ele>
        <time>2023-09-28T07:55:11Z</time>
      </trkpt>
      <trkpt lat="44.48404" lon="5.77478">
        <ele>756.4</ele>
        <time>2023-09-28T07:55:12Z</time>
      </trkpt>
      <trkpt lat="44.48406" lon="5.77483">
        <ele>756.5</ele>
        <time>2023-09-28T07:55:13Z</time>
      </trkpt>
      <trkpt lat="44.48408" lon="5.77489">
        <ele>756.6</ele>
        <time>2023-09-28T07:55:15Z</time>
      </trkpt>
      <trkpt lat="44.4841" lon="5.77494">
        <ele>756.7</ele>
        <time>2023-09-28T07:55:16Z</time>
      </trkpt>
      <trkpt lat="44.48412" lon="5.77498">
        <ele>756.7</ele>
        <time>2023-09-28T07:55:17Z</time>
      </trkpt>
      <trkpt lat="44.48414" lon="5.77504">
        <ele>756.8</ele>
        <time>2023-09-28T07:55:18Z</time>
      </trkpt>
      <trkpt lat="44.48416" lon="5.77509">
        <ele>756.9</ele>
        <time>2023-09-28T07:55:19Z</time>
      </trkpt>
      <trkpt lat="44.48417" lon="5.77513">
        <ele>757</ele>
        <time>2023-09-28T07:55:20Z</time>
      </trkpt>
      <trkpt lat="44.48419" lon="5.77517">
        <ele>757.1</ele>
        <time>2023-09-28T07:55:21Z</time>
      </trkpt>
      <trkpt lat="44.48421" lon="5.77521">
        <ele>757.2</ele>
        <time>2023-09-28T07:55:22Z</time>
      </trkpt>
      <trkpt lat="44.48422" lon="5.77525">
        <ele>757.2</ele>
        <time>2023-09-28T07:55:23Z</time>
      </trkpt>
      <trkpt lat="44.48424" lon="5.7753">
        <ele>757.3</ele>
        <time>2023-09-28T07:55:24Z</time>
      </trkpt>
      <trkpt lat="44.48426" lon="5.77534">
        <ele>757.4</ele>
        <time>2023-09-28T07:55:25Z</time>
      </trkpt>
      <trkpt lat="44.48429" lon="5.77542">
        <ele>757.5</ele>
        <time>2023-09-28T07:55:27Z</time>
      </trkpt>
      <trkpt lat="44.4843" lon="5.77545">
        <ele>757.5</ele>
        <time>2023-09-28T07:55:28Z</time>
      </trkpt>
      <trkpt lat="44.48431" lon="5.7755">
        <ele>757.5</ele>
        <time>2023-09-28T07:55:29Z</time>
      </trkpt>
      <trkpt lat="44.48432" lon="5.77555">
        <ele>757.5</ele>
        <time>2023-09-28T07:55:31Z</time>
      </trkpt>
      <trkpt lat="44.48434" lon="5.77562">
        <ele>757.6</ele>
        <time>2023-09-28T07:55:32Z</time>
      </trkpt>
      <trkpt lat="44.48434" lon="5.77567">
        <ele>757.6</ele>
        <time>2023-09-28T07:55:33Z</time>
      </trkpt>
      <trkpt lat="44.48435" lon="5.77572">
        <ele>757.6</ele>
        <time>2023-09-28T07:55:34Z</time>
      </trkpt>
      <trkpt lat="44.48436" lon="5.77577">
        <ele>757.8</ele>
        <time>2023-09-28T07:55:36Z</time>
      </trkpt>
      <trkpt lat="44.48437" lon="5.77581">
        <ele>757.9</ele>
        <time>2023-09-28T07:55:37Z</time>
      </trkpt>
      <trkpt lat="44.48438" lon="5.77587">
        <ele>758.1</ele>
        <time>2023-09-28T07:55:38Z</time>
      </trkpt>
      <trkpt lat="44.48439" lon="5.77589">
        <ele>758.1</ele>
        <time>2023-09-28T07:55:39Z</time>
      </trkpt>
      <trkpt lat="44.4844" lon="5.77594">
        <ele>758.3</ele>
        <time>2023-09-28T07:55:40Z</time>
      </trkpt>
      <trkpt lat="44.48441" lon="5.77596">
        <ele>758.3</ele>
        <time>2023-09-28T07:55:41Z</time>
      </trkpt>
      <trkpt lat="44.48442" lon="5.776">
        <ele>758.5</ele>
        <time>2023-09-28T07:55:42Z</time>
      </trkpt>
      <trkpt lat="44.48443" lon="5.77602">
        <ele>758.5</ele>
        <time>2023-09-28T07:55:43Z</time>
      </trkpt>
      <trkpt lat="44.48444" lon="5.77603">
        <ele>758.6</ele>
        <time>2023-09-28T07:55:44Z</time>
      </trkpt>
      <trkpt lat="44.48444" lon="5.77605">
        <ele>758.6</ele>
        <time>2023-09-28T07:55:45Z</time>
      </trkpt>
      <trkpt lat="44.48443" lon="5.77609">
        <ele>758.8</ele>
        <time>2023-09-28T07:55:47Z</time>
      </trkpt>
      <trkpt lat="44.48443" lon="5.77608">
        <ele>758.8</ele>
        <time>2023-09-28T07:55:48Z</time>
      </trkpt>
      <trkpt lat="44.48444" lon="5.77606">
        <ele>758.8</ele>
        <time>2023-09-28T07:55:50Z</time>
      </trkpt>
      <trkpt lat="44.48444" lon="5.77606">
        <ele>758.9</ele>
        <time>2023-09-28T07:55:51Z</time>
      </trkpt>
      <trkpt lat="44.48444" lon="5.77606">
        <ele>758.9</ele>
        <time>2023-09-28T07:55:52Z</time>
      </trkpt>
      <trkpt lat="44.48443" lon="5.77607">
        <ele>758.9</ele>
        <time>2023-09-28T07:55:54Z</time>
      </trkpt>
      <trkpt lat="44.48443" lon="5.77607">
        <ele>758.9</ele>
        <time>2023-09-28T07:55:55Z</time>
      </trkpt>
      <trkpt lat="44.48443" lon="5.77608">
        <ele>758.9</ele>
        <time>2023-09-28T07:55:56Z</time>
      </trkpt>
      <trkpt lat="44.48443" lon="5.77609">
        <ele>759</ele>
        <time>2023-09-28T07:55:57Z</time>
      </trkpt>
      <trkpt lat="44.48443" lon="5.77609">
        <ele>759</ele>
        <time>2023-09-28T07:55:59Z</time>
      </trkpt>
      <trkpt lat="44.48443" lon="5.7761">
        <ele>759</ele>
        <time>2023-09-28T07:56:00Z</time>
      </trkpt>
      <trkpt lat="44.48443" lon="5.7761">
        <ele>759</ele>
        <time>2023-09-28T07:56:01Z</time>
      </trkpt>
      <trkpt lat="44.48443" lon="5.7761">
        <ele>759</ele>
        <time>2023-09-28T07:56:03Z</time>
      </trkpt>
      <trkpt lat="44.48443" lon="5.7761">
        <ele>759</ele>
        <time>2023-09-28T07:56:04Z</time>
      </trkpt>
      <trkpt lat="44.48446" lon="5.77612">
        <ele>759.2</ele>
        <time>2023-09-28T07:59:25Z</time>
      </trkpt>
      <trkpt lat="44.48447" lon="5.77612">
        <ele>759.2</ele>
        <time>2023-09-28T07:59:27Z</time>
      </trkpt>
      <trkpt lat="44.48448" lon="5.77615">
        <ele>759.3</ele>
        <time>2023-09-28T07:59:28Z</time>
      </trkpt>
      <trkpt lat="44.4845" lon="5.77619">
        <ele>759.5</ele>
        <time>2023-09-28T07:59:29Z</time>
      </trkpt>
      <trkpt lat="44.48451" lon="5.77622">
        <ele>759.6</ele>
        <time>2023-09-28T07:59:30Z</time>
      </trkpt>
      <trkpt lat="44.48453" lon="5.77626">
        <ele>759.7</ele>
        <time>2023-09-28T07:59:31Z</time>
      </trkpt>
      <trkpt lat="44.48456" lon="5.7763">
        <ele>759.9</ele>
        <time>2023-09-28T07:59:32Z</time>
      </trkpt>
      <trkpt lat="44.48456" lon="5.77632">
        <ele>760</ele>
        <time>2023-09-28T07:59:33Z</time>
      </trkpt>
      <trkpt lat="44.48459" lon="5.77638">
        <ele>760.2</ele>
        <time>2023-09-28T07:59:35Z</time>
      </trkpt>
      <trkpt lat="44.4846" lon="5.77642">
        <ele>760.4</ele>
        <time>2023-09-28T07:59:37Z</time>
      </trkpt>
      <trkpt lat="44.48462" lon="5.77646">
        <ele>760.5</ele>
        <time>2023-09-28T07:59:38Z</time>
      </trkpt>
      <trkpt lat="44.48463" lon="5.7765">
        <ele>760.6</ele>
        <time>2023-09-28T07:59:39Z</time>
      </trkpt>
      <trkpt lat="44.48464" lon="5.77653">
        <ele>760.7</ele>
        <time>2023-09-28T07:59:40Z</time>
      </trkpt>
      <trkpt lat="44.48466" lon="5.77658">
        <ele>760.9</ele>
        <time>2023-09-28T07:59:41Z</time>
      </trkpt>
      <trkpt lat="44.48467" lon="5.77664">
        <ele>761</ele>
        <time>2023-09-28T07:59:43Z</time>
      </trkpt>
      <trkpt lat="44.48468" lon="5.77669">
        <ele>761.2</ele>
        <time>2023-09-28T07:59:44Z</time>
      </trkpt>
      <trkpt lat="44.4847" lon="5.77673">
        <ele>761.3</ele>
        <time>2023-09-28T07:59:45Z</time>
      </trkpt>
      <trkpt lat="44.48471" lon="5.77678">
        <ele>761.4</ele>
        <time>2023-09-28T07:59:47Z</time>
      </trkpt>
      <trkpt lat="44.48472" lon="5.77682">
        <ele>761.5</ele>
        <time>2023-09-28T07:59:48Z</time>
      </trkpt>
      <trkpt lat="44.48473" lon="5.77686">
        <ele>761.6</ele>
        <time>2023-09-28T07:59:49Z</time>
      </trkpt>
      <trkpt lat="44.48474" lon="5.77691">
        <ele>761.8</ele>
        <time>2023-09-28T07:59:50Z</time>
      </trkpt>
      <trkpt lat="44.48475" lon="5.77697">
        <ele>761.9</ele>
        <time>2023-09-28T07:59:51Z</time>
      </trkpt>
      <trkpt lat="44.48476" lon="5.77699">
        <ele>762</ele>
        <time>2023-09-28T07:59:52Z</time>
      </trkpt>
      <trkpt lat="44.48476" lon="5.77703">
        <ele>762.1</ele>
        <time>2023-09-28T07:59:53Z</time>
      </trkpt>
      <trkpt lat="44.48477" lon="5.77708">
        <ele>762.2</ele>
        <time>2023-09-28T07:59:54Z</time>
      </trkpt>
      <trkpt lat="44.48478" lon="5.77712">
        <ele>762.3</ele>
        <time>2023-09-28T07:59:55Z</time>
      </trkpt>
      <trkpt lat="44.48479" lon="5.7772">
        <ele>762.5</ele>
        <time>2023-09-28T07:59:57Z</time>
      </trkpt>
      <trkpt lat="44.4848" lon="5.77725">
        <ele>762.7</ele>
        <time>2023-09-28T07:59:58Z</time>
      </trkpt>
      <trkpt lat="44.48481" lon="5.7773">
        <ele>762.8</ele>
        <time>2023-09-28T07:59:59Z</time>
      </trkpt>
      <trkpt lat="44.48482" lon="5.77735">
        <ele>762.9</ele>
        <time>2023-09-28T08:00:00Z</time>
      </trkpt>
      <trkpt lat="44.48483" lon="5.7774">
        <ele>763.1</ele>
        <time>2023-09-28T08:00:02Z</time>
      </trkpt>
      <trkpt lat="44.48484" lon="5.77744">
        <ele>763.2</ele>
        <time>2023-09-28T08:00:03Z</time>
      </trkpt>
      <trkpt lat="44.48485" lon="5.77749">
        <ele>763.3</ele>
        <time>2023-09-28T08:00:04Z</time>
      </trkpt>
      <trkpt lat="44.48486" lon="5.77753">
        <ele>763.4</ele>
        <time>2023-09-28T08:00:05Z</time>
      </trkpt>
      <trkpt lat="44.48486" lon="5.77757">
        <ele>763.5</ele>
        <time>2023-09-28T08:00:06Z</time>
      </trkpt>
      <trkpt lat="44.48487" lon="5.77763">
        <ele>763.6</ele>
        <time>2023-09-28T08:00:07Z</time>
      </trkpt>
      <trkpt lat="44.48487" lon="5.77768">
        <ele>763.7</ele>
        <time>2023-09-28T08:00:08Z</time>
      </trkpt>
      <trkpt lat="44.48488" lon="5.77772">
        <ele>763.8</ele>
        <time>2023-09-28T08:00:09Z</time>
      </trkpt>
      <trkpt lat="44.48489" lon="5.77782">
        <ele>763.9</ele>
        <time>2023-09-28T08:00:11Z</time>
      </trkpt>
      <trkpt lat="44.4849" lon="5.77787">
        <ele>763.9</ele>
        <time>2023-09-28T08:00:13Z</time>
      </trkpt>
      <trkpt lat="44.48491" lon="5.77793">
        <ele>764</ele>
        <time>2023-09-28T08:00:14Z</time>
      </trkpt>
      <trkpt lat="44.48492" lon="5.77799">
        <ele>764</ele>
        <time>2023-09-28T08:00:15Z</time>
      </trkpt>
      <trkpt lat="44.48492" lon="5.77805">
        <ele>764.1</ele>
        <time>2023-09-28T08:00:16Z</time>
      </trkpt>
      <trkpt lat="44.48493" lon="5.7781">
        <ele>764.1</ele>
        <time>2023-09-28T08:00:17Z</time>
      </trkpt>
      <trkpt lat="44.48493" lon="5.77816">
        <ele>764.1</ele>
        <time>2023-09-28T08:00:18Z</time>
      </trkpt>
      <trkpt lat="44.48493" lon="5.77823">
        <ele>764.1</ele>
        <time>2023-09-28T08:00:19Z</time>
      </trkpt>
      <trkpt lat="44.48494" lon="5.7783">
        <ele>764.1</ele>
        <time>2023-09-28T08:00:21Z</time>
      </trkpt>
      <trkpt lat="44.48494" lon="5.77837">
        <ele>764.1</ele>
        <time>2023-09-28T08:00:22Z</time>
      </trkpt>
      <trkpt lat="44.48495" lon="5.77843">
        <ele>764.1</ele>
        <time>2023-09-28T08:00:23Z</time>
      </trkpt>
      <trkpt lat="44.48496" lon="5.7785">
        <ele>764.1</ele>
        <time>2023-09-28T08:00:24Z</time>
      </trkpt>
      <trkpt lat="44.48496" lon="5.77857">
        <ele>764.1</ele>
        <time>2023-09-28T08:00:25Z</time>
      </trkpt>
      <trkpt lat="44.48496" lon="5.77864">
        <ele>764</ele>
        <time>2023-09-28T08:00:26Z</time>
      </trkpt>
      <trkpt lat="44.48495" lon="5.7787">
        <ele>764</ele>
        <time>2023-09-28T08:00:27Z</time>
      </trkpt>
      <trkpt lat="44.48494" lon="5.77882">
        <ele>763.9</ele>
        <time>2023-09-28T08:00:29Z</time>
      </trkpt>
      <trkpt lat="44.48493" lon="5.7789">
        <ele>763.9</ele>
        <time>2023-09-28T08:00:30Z</time>
      </trkpt>
      <trkpt lat="44.48492" lon="5.77898">
        <ele>763.9</ele>
        <time>2023-09-28T08:00:31Z</time>
      </trkpt>
      <trkpt lat="44.48491" lon="5.77905">
        <ele>763.9</ele>
        <time>2023-09-28T08:00:32Z</time>
      </trkpt>
      <trkpt lat="44.4849" lon="5.77912">
        <ele>764</ele>
        <time>2023-09-28T08:00:33Z</time>
      </trkpt>
      <trkpt lat="44.48488" lon="5.77918">
        <ele>764.1</ele>
        <time>2023-09-28T08:00:34Z</time>
      </trkpt>
      <trkpt lat="44.48487" lon="5.77924">
        <ele>764.2</ele>
        <time>2023-09-28T08:00:35Z</time>
      </trkpt>
      <trkpt lat="44.48486" lon="5.7793">
        <ele>764.4</ele>
        <time>2023-09-28T08:00:36Z</time>
      </trkpt>
      <trkpt lat="44.48483" lon="5.77941">
        <ele>764.7</ele>
        <time>2023-09-28T08:00:38Z</time>
      </trkpt>
      <trkpt lat="44.48482" lon="5.77948">
        <ele>765</ele>
        <time>2023-09-28T08:00:40Z</time>
      </trkpt>
      <trkpt lat="44.4848" lon="5.77953">
        <ele>765.1</ele>
        <time>2023-09-28T08:00:41Z</time>
      </trkpt>
      <trkpt lat="44.48479" lon="5.77959">
        <ele>765.4</ele>
        <time>2023-09-28T08:00:42Z</time>
      </trkpt>
      <trkpt lat="44.48478" lon="5.77963">
        <ele>765.6</ele>
        <time>2023-09-28T08:00:43Z</time>
      </trkpt>
      <trkpt lat="44.48477" lon="5.77968">
        <ele>765.7</ele>
        <time>2023-09-28T08:00:44Z</time>
      </trkpt>
      <trkpt lat="44.48475" lon="5.77972">
        <ele>765.9</ele>
        <time>2023-09-28T08:00:45Z</time>
      </trkpt>
      <trkpt lat="44.48475" lon="5.77976">
        <ele>766.1</ele>
        <time>2023-09-28T08:00:46Z</time>
      </trkpt>
      <trkpt lat="44.48474" lon="5.7798">
        <ele>766.3</ele>
        <time>2023-09-28T08:00:48Z</time>
      </trkpt>
      <trkpt lat="44.48473" lon="5.77985">
        <ele>766.4</ele>
        <time>2023-09-28T08:00:49Z</time>
      </trkpt>
      <trkpt lat="44.48471" lon="5.7799">
        <ele>766.7</ele>
        <time>2023-09-28T08:00:50Z</time>
      </trkpt>
      <trkpt lat="44.4847" lon="5.77994">
        <ele>766.9</ele>
        <time>2023-09-28T08:00:51Z</time>
      </trkpt>
      <trkpt lat="44.48469" lon="5.77998">
        <ele>767</ele>
        <time>2023-09-28T08:00:52Z</time>
      </trkpt>
      <trkpt lat="44.48468" lon="5.78002">
        <ele>767.2</ele>
        <time>2023-09-28T08:00:53Z</time>
      </trkpt>
      <trkpt lat="44.48467" lon="5.78006">
        <ele>767.4</ele>
        <time>2023-09-28T08:00:54Z</time>
      </trkpt>
      <trkpt lat="44.48466" lon="5.7801">
        <ele>767.6</ele>
        <time>2023-09-28T08:00:55Z</time>
      </trkpt>
      <trkpt lat="44.48465" lon="5.78015">
        <ele>767.8</ele>
        <time>2023-09-28T08:00:57Z</time>
      </trkpt>
      <trkpt lat="44.48464" lon="5.78019">
        <ele>768</ele>
        <time>2023-09-28T08:00:58Z</time>
      </trkpt>
      <trkpt lat="44.48463" lon="5.78024">
        <ele>768.3</ele>
        <time>2023-09-28T08:00:59Z</time>
      </trkpt>
      <trkpt lat="44.48461" lon="5.78028">
        <ele>768.5</ele>
        <time>2023-09-28T08:01:00Z</time>
      </trkpt>
      <trkpt lat="44.4846" lon="5.78032">
        <ele>768.8</ele>
        <time>2023-09-28T08:01:01Z</time>
      </trkpt>
      <trkpt lat="44.48459" lon="5.78037">
        <ele>769.1</ele>
        <time>2023-09-28T08:01:02Z</time>
      </trkpt>
      <trkpt lat="44.48459" lon="5.78039">
        <ele>769.2</ele>
        <time>2023-09-28T08:01:03Z</time>
      </trkpt>
      <trkpt lat="44.48457" lon="5.78046">
        <ele>769.6</ele>
        <time>2023-09-28T08:01:05Z</time>
      </trkpt>
      <trkpt lat="44.48456" lon="5.78051">
        <ele>769.9</ele>
        <time>2023-09-28T08:01:07Z</time>
      </trkpt>
      <trkpt lat="44.48455" lon="5.78054">
        <ele>770.2</ele>
        <time>2023-09-28T08:01:08Z</time>
      </trkpt>
      <trkpt lat="44.48454" lon="5.78058">
        <ele>770.4</ele>
        <time>2023-09-28T08:01:09Z</time>
      </trkpt>
      <trkpt lat="44.48453" lon="5.78062">
        <ele>770.7</ele>
        <time>2023-09-28T08:01:10Z</time>
      </trkpt>
      <trkpt lat="44.48452" lon="5.78066">
        <ele>771</ele>
        <time>2023-09-28T08:01:11Z</time>
      </trkpt>
      <trkpt lat="44.48452" lon="5.78068">
        <ele>771.1</ele>
        <time>2023-09-28T08:01:12Z</time>
      </trkpt>
      <trkpt lat="44.48451" lon="5.78071">
        <ele>771.3</ele>
        <time>2023-09-28T08:01:13Z</time>
      </trkpt>
      <trkpt lat="44.4845" lon="5.78075">
        <ele>771.6</ele>
        <time>2023-09-28T08:01:15Z</time>
      </trkpt>
      <trkpt lat="44.48449" lon="5.7808">
        <ele>772</ele>
        <time>2023-09-28T08:01:16Z</time>
      </trkpt>
      <trkpt lat="44.48449" lon="5.78081">
        <ele>772</ele>
        <time>2023-09-28T08:01:17Z</time>
      </trkpt>
      <trkpt lat="44.48449" lon="5.78086">
        <ele>772.4</ele>
        <time>2023-09-28T08:01:18Z</time>
      </trkpt>
      <trkpt lat="44.48448" lon="5.7809">
        <ele>772.6</ele>
        <time>2023-09-28T08:01:19Z</time>
      </trkpt>
      <trkpt lat="44.48448" lon="5.78092">
        <ele>772.8</ele>
        <time>2023-09-28T08:01:20Z</time>
      </trkpt>
      <trkpt lat="44.48449" lon="5.78095">
        <ele>773</ele>
        <time>2023-09-28T08:01:21Z</time>
      </trkpt>
      <trkpt lat="44.4845" lon="5.78097">
        <ele>773.1</ele>
        <time>2023-09-28T08:01:22Z</time>
      </trkpt>
      <trkpt lat="44.48452" lon="5.78099">
        <ele>773.4</ele>
        <time>2023-09-28T08:01:23Z</time>
      </trkpt>
      <trkpt lat="44.48457" lon="5.78101">
        <ele>773.4</ele>
        <time>2023-09-28T08:01:25Z</time>
      </trkpt>
      <trkpt lat="44.4846" lon="5.78101">
        <ele>773.3</ele>
        <time>2023-09-28T08:01:26Z</time>
      </trkpt>
      <trkpt lat="44.48464" lon="5.78102">
        <ele>773.1</ele>
        <time>2023-09-28T08:01:27Z</time>
      </trkpt>
      <trkpt lat="44.48467" lon="5.78104">
        <ele>773</ele>
        <time>2023-09-28T08:01:28Z</time>
      </trkpt>
      <trkpt lat="44.48476" lon="5.78105">
        <ele>772.6</ele>
        <time>2023-09-28T08:01:30Z</time>
      </trkpt>
      <trkpt lat="44.48486" lon="5.78106">
        <ele>772.2</ele>
        <time>2023-09-28T08:01:32Z</time>
      </trkpt>
      <trkpt lat="44.48491" lon="5.78107">
        <ele>772</ele>
        <time>2023-09-28T08:01:33Z</time>
      </trkpt>
      <trkpt lat="44.48497" lon="5.78107">
        <ele>771.9</ele>
        <time>2023-09-28T08:01:34Z</time>
      </trkpt>
      <trkpt lat="44.48502" lon="5.78108">
        <ele>771.8</ele>
        <time>2023-09-28T08:01:35Z</time>
      </trkpt>
      <trkpt lat="44.48507" lon="5.7811">
        <ele>771.7</ele>
        <time>2023-09-28T08:01:36Z</time>
      </trkpt>
      <trkpt lat="44.48511" lon="5.78111">
        <ele>771.6</ele>
        <time>2023-09-28T08:01:37Z</time>
      </trkpt>
      <trkpt lat="44.48516" lon="5.78113">
        <ele>771.5</ele>
        <time>2023-09-28T08:01:38Z</time>
      </trkpt>
      <trkpt lat="44.48521" lon="5.78116">
        <ele>771.3</ele>
        <time>2023-09-28T08:01:40Z</time>
      </trkpt>
      <trkpt lat="44.48525" lon="5.78118">
        <ele>771.2</ele>
        <time>2023-09-28T08:01:41Z</time>
      </trkpt>
      <trkpt lat="44.48529" lon="5.78122">
        <ele>771</ele>
        <time>2023-09-28T08:01:42Z</time>
      </trkpt>
      <trkpt lat="44.48534" lon="5.78125">
        <ele>770.8</ele>
        <time>2023-09-28T08:01:43Z</time>
      </trkpt>
      <trkpt lat="44.48538" lon="5.78128">
        <ele>770.6</ele>
        <time>2023-09-28T08:01:44Z</time>
      </trkpt>
      <trkpt lat="44.48544" lon="5.78133">
        <ele>770.2</ele>
        <time>2023-09-28T08:01:45Z</time>
      </trkpt>
      <trkpt lat="44.48548" lon="5.78136">
        <ele>770.1</ele>
        <time>2023-09-28T08:01:46Z</time>
      </trkpt>
      <trkpt lat="44.48552" lon="5.78139">
        <ele>769.9</ele>
        <time>2023-09-28T08:01:47Z</time>
      </trkpt>
      <trkpt lat="44.48557" lon="5.78143">
        <ele>769.6</ele>
        <time>2023-09-28T08:01:48Z</time>
      </trkpt>
      <trkpt lat="44.48562" lon="5.78146">
        <ele>769.4</ele>
        <time>2023-09-28T08:01:49Z</time>
      </trkpt>
      <trkpt lat="44.48567" lon="5.78149">
        <ele>769.2</ele>
        <time>2023-09-28T08:01:50Z</time>
      </trkpt>
      <trkpt lat="44.48572" lon="5.78153">
        <ele>768.9</ele>
        <time>2023-09-28T08:01:51Z</time>
      </trkpt>
      <trkpt lat="44.48577" lon="5.78156">
        <ele>768.6</ele>
        <time>2023-09-28T08:01:52Z</time>
      </trkpt>
      <trkpt lat="44.48583" lon="5.78159">
        <ele>768.3</ele>
        <time>2023-09-28T08:01:53Z</time>
      </trkpt>
      <trkpt lat="44.48589" lon="5.78161">
        <ele>768</ele>
        <time>2023-09-28T08:01:54Z</time>
      </trkpt>
      <trkpt lat="44.48595" lon="5.78162">
        <ele>767.7</ele>
        <time>2023-09-28T08:01:55Z</time>
      </trkpt>
      <trkpt lat="44.48601" lon="5.78162">
        <ele>767.4</ele>
        <time>2023-09-28T08:01:56Z</time>
      </trkpt>
      <trkpt lat="44.48607" lon="5.78162">
        <ele>767</ele>
        <time>2023-09-28T08:01:57Z</time>
      </trkpt>
      <trkpt lat="44.48613" lon="5.7816">
        <ele>766.7</ele>
        <time>2023-09-28T08:01:58Z</time>
      </trkpt>
      <trkpt lat="44.48619" lon="5.78159">
        <ele>766.3</ele>
        <time>2023-09-28T08:01:59Z</time>
      </trkpt>
      <trkpt lat="44.48626" lon="5.78158">
        <ele>765.9</ele>
        <time>2023-09-28T08:02:00Z</time>
      </trkpt>
      <trkpt lat="44.48634" lon="5.78158">
        <ele>765.5</ele>
        <time>2023-09-28T08:02:01Z</time>
      </trkpt>
      <trkpt lat="44.48641" lon="5.78156">
        <ele>765.2</ele>
        <time>2023-09-28T08:02:02Z</time>
      </trkpt>
      <trkpt lat="44.48648" lon="5.78155">
        <ele>764.9</ele>
        <time>2023-09-28T08:02:03Z</time>
      </trkpt>
      <trkpt lat="44.48656" lon="5.78154">
        <ele>764.7</ele>
        <time>2023-09-28T08:02:04Z</time>
      </trkpt>
      <trkpt lat="44.48664" lon="5.78152">
        <ele>764.4</ele>
        <time>2023-09-28T08:02:05Z</time>
      </trkpt>
      <trkpt lat="44.48671" lon="5.78151">
        <ele>764.2</ele>
        <time>2023-09-28T08:02:06Z</time>
      </trkpt>
      <trkpt lat="44.48679" lon="5.7815">
        <ele>764</ele>
        <time>2023-09-28T08:02:07Z</time>
      </trkpt>
      <trkpt lat="44.48687" lon="5.78148">
        <ele>763.8</ele>
        <time>2023-09-28T08:02:08Z</time>
      </trkpt>
      <trkpt lat="44.48695" lon="5.78147">
        <ele>763.6</ele>
        <time>2023-09-28T08:02:09Z</time>
      </trkpt>
      <trkpt lat="44.48703" lon="5.78146">
        <ele>763.5</ele>
        <time>2023-09-28T08:02:10Z</time>
      </trkpt>
      <trkpt lat="44.4871" lon="5.78145">
        <ele>763.4</ele>
        <time>2023-09-28T08:02:11Z</time>
      </trkpt>
      <trkpt lat="44.48717" lon="5.78144">
        <ele>763.4</ele>
        <time>2023-09-28T08:02:12Z</time>
      </trkpt>
      <trkpt lat="44.48725" lon="5.78143">
        <ele>763.3</ele>
        <time>2023-09-28T08:02:13Z</time>
      </trkpt>
      <trkpt lat="44.48732" lon="5.78142">
        <ele>763.3</ele>
        <time>2023-09-28T08:02:14Z</time>
      </trkpt>
      <trkpt lat="44.4874" lon="5.78142">
        <ele>763.3</ele>
        <time>2023-09-28T08:02:15Z</time>
      </trkpt>
      <trkpt lat="44.48747" lon="5.78141">
        <ele>763.3</ele>
        <time>2023-09-28T08:02:16Z</time>
      </trkpt>
      <trkpt lat="44.48754" lon="5.7814">
        <ele>763.4</ele>
        <time>2023-09-28T08:02:17Z</time>
      </trkpt>
      <trkpt lat="44.48762" lon="5.7814">
        <ele>763.4</ele>
        <time>2023-09-28T08:02:18Z</time>
      </trkpt>
      <trkpt lat="44.48769" lon="5.7814">
        <ele>763.5</ele>
        <time>2023-09-28T08:02:19Z</time>
      </trkpt>
      <trkpt lat="44.48776" lon="5.78141">
        <ele>763.6</ele>
        <time>2023-09-28T08:02:20Z</time>
      </trkpt>
      <trkpt lat="44.48784" lon="5.78142">
        <ele>763.7</ele>
        <time>2023-09-28T08:02:21Z</time>
      </trkpt>
      <trkpt lat="44.48791" lon="5.78142">
        <ele>763.8</ele>
        <time>2023-09-28T08:02:22Z</time>
      </trkpt>
      <trkpt lat="44.48798" lon="5.78143">
        <ele>764</ele>
        <time>2023-09-28T08:02:23Z</time>
      </trkpt>
      <trkpt lat="44.48804" lon="5.78145">
        <ele>764.1</ele>
        <time>2023-09-28T08:02:24Z</time>
      </trkpt>
      <trkpt lat="44.48811" lon="5.78146">
        <ele>764.3</ele>
        <time>2023-09-28T08:02:25Z</time>
      </trkpt>
      <trkpt lat="44.48817" lon="5.78147">
        <ele>764.4</ele>
        <time>2023-09-28T08:02:26Z</time>
      </trkpt>
      <trkpt lat="44.48824" lon="5.78149">
        <ele>764.5</ele>
        <time>2023-09-28T08:02:27Z</time>
      </trkpt>
      <trkpt lat="44.4883" lon="5.78149">
        <ele>764.7</ele>
        <time>2023-09-28T08:02:28Z</time>
      </trkpt>
      <trkpt lat="44.48837" lon="5.7815">
        <ele>764.8</ele>
        <time>2023-09-28T08:02:29Z</time>
      </trkpt>
      <trkpt lat="44.48843" lon="5.78151">
        <ele>765</ele>
        <time>2023-09-28T08:02:30Z</time>
      </trkpt>
      <trkpt lat="44.48849" lon="5.78152">
        <ele>765.1</ele>
        <time>2023-09-28T08:02:31Z</time>
      </trkpt>
      <trkpt lat="44.48855" lon="5.78153">
        <ele>765.3</ele>
        <time>2023-09-28T08:02:32Z</time>
      </trkpt>
      <trkpt lat="44.48861" lon="5.78155">
        <ele>765.5</ele>
        <time>2023-09-28T08:02:33Z</time>
      </trkpt>
      <trkpt lat="44.48867" lon="5.78156">
        <ele>765.6</ele>
        <time>2023-09-28T08:02:34Z</time>
      </trkpt>
      <trkpt lat="44.48873" lon="5.78157">
        <ele>765.8</ele>
        <time>2023-09-28T08:02:35Z</time>
      </trkpt>
      <trkpt lat="44.48878" lon="5.78157">
        <ele>766</ele>
        <time>2023-09-28T08:02:36Z</time>
      </trkpt>
      <trkpt lat="44.48884" lon="5.78159">
        <ele>766.1</ele>
        <time>2023-09-28T08:02:37Z</time>
      </trkpt>
      <trkpt lat="44.48889" lon="5.7816">
        <ele>766.3</ele>
        <time>2023-09-28T08:02:38Z</time>
      </trkpt>
      <trkpt lat="44.48895" lon="5.78161">
        <ele>766.4</ele>
        <time>2023-09-28T08:02:39Z</time>
      </trkpt>
      <trkpt lat="44.48901" lon="5.78161">
        <ele>766.6</ele>
        <time>2023-09-28T08:02:40Z</time>
      </trkpt>
      <trkpt lat="44.48906" lon="5.78162">
        <ele>766.8</ele>
        <time>2023-09-28T08:02:41Z</time>
      </trkpt>
      <trkpt lat="44.48912" lon="5.78163">
        <ele>766.9</ele>
        <time>2023-09-28T08:02:42Z</time>
      </trkpt>
      <trkpt lat="44.48917" lon="5.78164">
        <ele>767.1</ele>
        <time>2023-09-28T08:02:43Z</time>
      </trkpt>
      <trkpt lat="44.48922" lon="5.78165">
        <ele>767.2</ele>
        <time>2023-09-28T08:02:44Z</time>
      </trkpt>
      <trkpt lat="44.48927" lon="5.78165">
        <ele>767.3</ele>
        <time>2023-09-28T08:02:45Z</time>
      </trkpt>
      <trkpt lat="44.48932" lon="5.78166">
        <ele>767.5</ele>
        <time>2023-09-28T08:02:46Z</time>
      </trkpt>
      <trkpt lat="44.48937" lon="5.78167">
        <ele>767.6</ele>
        <time>2023-09-28T08:02:47Z</time>
      </trkpt>
      <trkpt lat="44.48943" lon="5.78168">
        <ele>767.7</ele>
        <time>2023-09-28T08:02:48Z</time>
      </trkpt>
      <trkpt lat="44.48948" lon="5.78169">
        <ele>767.9</ele>
        <time>2023-09-28T08:02:49Z</time>
      </trkpt>
      <trkpt lat="44.48953" lon="5.7817">
        <ele>768</ele>
        <time>2023-09-28T08:02:50Z</time>
      </trkpt>
      <trkpt lat="44.48958" lon="5.78171">
        <ele>768.1</ele>
        <time>2023-09-28T08:02:51Z</time>
      </trkpt>
      <trkpt lat="44.48962" lon="5.78171">
        <ele>768.2</ele>
        <time>2023-09-28T08:02:52Z</time>
      </trkpt>
      <trkpt lat="44.48967" lon="5.78172">
        <ele>768.3</ele>
        <time>2023-09-28T08:02:53Z</time>
      </trkpt>
      <trkpt lat="44.48973" lon="5.78173">
        <ele>768.4</ele>
        <time>2023-09-28T08:02:54Z</time>
      </trkpt>
      <trkpt lat="44.48978" lon="5.78174">
        <ele>768.5</ele>
        <time>2023-09-28T08:02:55Z</time>
      </trkpt>
      <trkpt lat="44.48983" lon="5.78175">
        <ele>768.6</ele>
        <time>2023-09-28T08:02:56Z</time>
      </trkpt>
      <trkpt lat="44.48988" lon="5.78175">
        <ele>768.6</ele>
        <time>2023-09-28T08:02:57Z</time>
      </trkpt>
      <trkpt lat="44.48993" lon="5.78176">
        <ele>768.7</ele>
        <time>2023-09-28T08:02:58Z</time>
      </trkpt>
      <trkpt lat="44.48998" lon="5.78177">
        <ele>768.7</ele>
        <time>2023-09-28T08:02:59Z</time>
      </trkpt>
      <trkpt lat="44.49003" lon="5.78178">
        <ele>768.8</ele>
        <time>2023-09-28T08:03:00Z</time>
      </trkpt>
      <trkpt lat="44.49008" lon="5.78178">
        <ele>768.8</ele>
        <time>2023-09-28T08:03:01Z</time>
      </trkpt>
      <trkpt lat="44.49013" lon="5.78179">
        <ele>768.8</ele>
        <time>2023-09-28T08:03:02Z</time>
      </trkpt>
      <trkpt lat="44.49019" lon="5.78179">
        <ele>768.9</ele>
        <time>2023-09-28T08:03:03Z</time>
      </trkpt>
      <trkpt lat="44.49024" lon="5.7818">
        <ele>768.9</ele>
        <time>2023-09-28T08:03:04Z</time>
      </trkpt>
      <trkpt lat="44.49029" lon="5.78181">
        <ele>768.9</ele>
        <time>2023-09-28T08:03:05Z</time>
      </trkpt>
      <trkpt lat="44.49034" lon="5.78183">
        <ele>768.9</ele>
        <time>2023-09-28T08:03:06Z</time>
      </trkpt>
      <trkpt lat="44.49039" lon="5.78184">
        <ele>768.9</ele>
        <time>2023-09-28T08:03:07Z</time>
      </trkpt>
      <trkpt lat="44.49045" lon="5.78184">
        <ele>768.9</ele>
        <time>2023-09-28T08:03:08Z</time>
      </trkpt>
      <trkpt lat="44.4905" lon="5.78186">
        <ele>768.8</ele>
        <time>2023-09-28T08:03:09Z</time>
      </trkpt>
      <trkpt lat="44.49056" lon="5.78187">
        <ele>768.7</ele>
        <time>2023-09-28T08:03:10Z</time>
      </trkpt>
      <trkpt lat="44.49062" lon="5.78187">
        <ele>768.7</ele>
        <time>2023-09-28T08:03:11Z</time>
      </trkpt>
      <trkpt lat="44.49068" lon="5.78189">
        <ele>768.6</ele>
        <time>2023-09-28T08:03:12Z</time>
      </trkpt>
      <trkpt lat="44.49073" lon="5.7819">
        <ele>768.6</ele>
        <time>2023-09-28T08:03:13Z</time>
      </trkpt>
      <trkpt lat="44.49079" lon="5.78191">
        <ele>768.6</ele>
        <time>2023-09-28T08:03:14Z</time>
      </trkpt>
      <trkpt lat="44.49085" lon="5.78192">
        <ele>768.6</ele>
        <time>2023-09-28T08:03:15Z</time>
      </trkpt>
      <trkpt lat="44.49091" lon="5.78194">
        <ele>768.6</ele>
        <time>2023-09-28T08:03:16Z</time>
      </trkpt>
      <trkpt lat="44.49097" lon="5.78195">
        <ele>768.6</ele>
        <time>2023-09-28T08:03:17Z</time>
      </trkpt>
      <trkpt lat="44.49102" lon="5.78196">
        <ele>768.6</ele>
        <time>2023-09-28T08:03:18Z</time>
      </trkpt>
      <trkpt lat="44.49108" lon="5.78197">
        <ele>768.6</ele>
        <time>2023-09-28T08:03:19Z</time>
      </trkpt>
      <trkpt lat="44.49114" lon="5.78199">
        <ele>768.6</ele>
        <time>2023-09-28T08:03:20Z</time>
      </trkpt>
      <trkpt lat="44.49119" lon="5.78201">
        <ele>768.6</ele>
        <time>2023-09-28T08:03:21Z</time>
      </trkpt>
      <trkpt lat="44.49124" lon="5.78204">
        <ele>768.7</ele>
        <time>2023-09-28T08:03:22Z</time>
      </trkpt>
      <trkpt lat="44.49129" lon="5.78208">
        <ele>768.7</ele>
        <time>2023-09-28T08:03:23Z</time>
      </trkpt>
      <trkpt lat="44.49133" lon="5.78214">
        <ele>768.7</ele>
        <time>2023-09-28T08:03:24Z</time>
      </trkpt>
      <trkpt lat="44.49137" lon="5.78219">
        <ele>768.8</ele>
        <time>2023-09-28T08:03:25Z</time>
      </trkpt>
      <trkpt lat="44.4914" lon="5.78225">
        <ele>768.8</ele>
        <time>2023-09-28T08:03:26Z</time>
      </trkpt>
      <trkpt lat="44.49144" lon="5.78231">
        <ele>768.9</ele>
        <time>2023-09-28T08:03:27Z</time>
      </trkpt>
      <trkpt lat="44.49147" lon="5.78237">
        <ele>768.9</ele>
        <time>2023-09-28T08:03:28Z</time>
      </trkpt>
      <trkpt lat="44.49151" lon="5.78243">
        <ele>768.9</ele>
        <time>2023-09-28T08:03:29Z</time>
      </trkpt>
      <trkpt lat="44.49155" lon="5.78248">
        <ele>769</ele>
        <time>2023-09-28T08:03:30Z</time>
      </trkpt>
      <trkpt lat="44.49158" lon="5.78254">
        <ele>769</ele>
        <time>2023-09-28T08:03:31Z</time>
      </trkpt>
      <trkpt lat="44.49161" lon="5.7826">
        <ele>769.1</ele>
        <time>2023-09-28T08:03:32Z</time>
      </trkpt>
      <trkpt lat="44.49165" lon="5.78266">
        <ele>769.2</ele>
        <time>2023-09-28T08:03:33Z</time>
      </trkpt>
      <trkpt lat="44.49168" lon="5.78272">
        <ele>769.2</ele>
        <time>2023-09-28T08:03:34Z</time>
      </trkpt>
      <trkpt lat="44.49172" lon="5.78277">
        <ele>769.3</ele>
        <time>2023-09-28T08:03:35Z</time>
      </trkpt>
      <trkpt lat="44.49176" lon="5.78283">
        <ele>769.4</ele>
        <time>2023-09-28T08:03:36Z</time>
      </trkpt>
      <trkpt lat="44.49179" lon="5.78289">
        <ele>769.4</ele>
        <time>2023-09-28T08:03:37Z</time>
      </trkpt>
      <trkpt lat="44.49182" lon="5.78294">
        <ele>769.5</ele>
        <time>2023-09-28T08:03:38Z</time>
      </trkpt>
      <trkpt lat="44.49186" lon="5.783">
        <ele>769.6</ele>
        <time>2023-09-28T08:03:39Z</time>
      </trkpt>
      <trkpt lat="44.49189" lon="5.78306">
        <ele>769.7</ele>
        <time>2023-09-28T08:03:40Z</time>
      </trkpt>
      <trkpt lat="44.49193" lon="5.78312">
        <ele>769.8</ele>
        <time>2023-09-28T08:03:41Z</time>
      </trkpt>
      <trkpt lat="44.49196" lon="5.78318">
        <ele>769.9</ele>
        <time>2023-09-28T08:03:42Z</time>
      </trkpt>
      <trkpt lat="44.49199" lon="5.78324">
        <ele>769.9</ele>
        <time>2023-09-28T08:03:43Z</time>
      </trkpt>
      <trkpt lat="44.49202" lon="5.78329">
        <ele>770</ele>
        <time>2023-09-28T08:03:44Z</time>
      </trkpt>
      <trkpt lat="44.49206" lon="5.78335">
        <ele>770.1</ele>
        <time>2023-09-28T08:03:45Z</time>
      </trkpt>
      <trkpt lat="44.49209" lon="5.7834">
        <ele>770.2</ele>
        <time>2023-09-28T08:03:46Z</time>
      </trkpt>
      <trkpt lat="44.49212" lon="5.78346">
        <ele>770.3</ele>
        <time>2023-09-28T08:03:47Z</time>
      </trkpt>
      <trkpt lat="44.49215" lon="5.78352">
        <ele>770.3</ele>
        <time>2023-09-28T08:03:48Z</time>
      </trkpt>
      <trkpt lat="44.49219" lon="5.78357">
        <ele>770.4</ele>
        <time>2023-09-28T08:03:49Z</time>
      </trkpt>
      <trkpt lat="44.49222" lon="5.78363">
        <ele>770.5</ele>
        <time>2023-09-28T08:03:50Z</time>
      </trkpt>
      <trkpt lat="44.49226" lon="5.78368">
        <ele>770.6</ele>
        <time>2023-09-28T08:03:51Z</time>
      </trkpt>
      <trkpt lat="44.49229" lon="5.78373">
        <ele>770.8</ele>
        <time>2023-09-28T08:03:52Z</time>
      </trkpt>
      <trkpt lat="44.49233" lon="5.78378">
        <ele>770.9</ele>
        <time>2023-09-28T08:03:53Z</time>
      </trkpt>
      <trkpt lat="44.49236" lon="5.78382">
        <ele>771</ele>
        <time>2023-09-28T08:03:54Z</time>
      </trkpt>
      <trkpt lat="44.4924" lon="5.78386">
        <ele>771.1</ele>
        <time>2023-09-28T08:03:55Z</time>
      </trkpt>
      <trkpt lat="44.49244" lon="5.7839">
        <ele>771.3</ele>
        <time>2023-09-28T08:03:56Z</time>
      </trkpt>
      <trkpt lat="44.49248" lon="5.78393">
        <ele>771.4</ele>
        <time>2023-09-28T08:03:57Z</time>
      </trkpt>
      <trkpt lat="44.49252" lon="5.78397">
        <ele>771.6</ele>
        <time>2023-09-28T08:03:58Z</time>
      </trkpt>
      <trkpt lat="44.49255" lon="5.784">
        <ele>771.7</ele>
        <time>2023-09-28T08:03:59Z</time>
      </trkpt>
      <trkpt lat="44.49259" lon="5.78404">
        <ele>771.8</ele>
        <time>2023-09-28T08:04:00Z</time>
      </trkpt>
      <trkpt lat="44.49263" lon="5.78407">
        <ele>772</ele>
        <time>2023-09-28T08:04:01Z</time>
      </trkpt>
      <trkpt lat="44.49266" lon="5.7841">
        <ele>772.1</ele>
        <time>2023-09-28T08:04:02Z</time>
      </trkpt>
      <trkpt lat="44.4927" lon="5.78414">
        <ele>772.3</ele>
        <time>2023-09-28T08:04:03Z</time>
      </trkpt>
      <trkpt lat="44.49273" lon="5.78417">
        <ele>772.4</ele>
        <time>2023-09-28T08:04:04Z</time>
      </trkpt>
      <trkpt lat="44.49277" lon="5.7842">
        <ele>772.5</ele>
        <time>2023-09-28T08:04:05Z</time>
      </trkpt>
      <trkpt lat="44.49281" lon="5.78422">
        <ele>772.7</ele>
        <time>2023-09-28T08:04:06Z</time>
      </trkpt>
      <trkpt lat="44.49284" lon="5.78425">
        <ele>772.8</ele>
        <time>2023-09-28T08:04:07Z</time>
      </trkpt>
      <trkpt lat="44.49287" lon="5.78429">
        <ele>772.9</ele>
        <time>2023-09-28T08:04:08Z</time>
      </trkpt>
      <trkpt lat="44.49292" lon="5.78434">
        <ele>773.1</ele>
        <time>2023-09-28T08:04:10Z</time>
      </trkpt>
      <trkpt lat="44.49296" lon="5.78437">
        <ele>773.3</ele>
        <time>2023-09-28T08:04:11Z</time>
      </trkpt>
      <trkpt lat="44.493" lon="5.78441">
        <ele>773.5</ele>
        <time>2023-09-28T08:04:12Z</time>
      </trkpt>
      <trkpt lat="44.49303" lon="5.78444">
        <ele>773.6</ele>
        <time>2023-09-28T08:04:13Z</time>
      </trkpt>
      <trkpt lat="44.49306" lon="5.78447">
        <ele>773.8</ele>
        <time>2023-09-28T08:04:14Z</time>
      </trkpt>
      <trkpt lat="44.4931" lon="5.78451">
        <ele>774</ele>
        <time>2023-09-28T08:04:15Z</time>
      </trkpt>
      <trkpt lat="44.49314" lon="5.78454">
        <ele>774.1</ele>
        <time>2023-09-28T08:04:16Z</time>
      </trkpt>
      <trkpt lat="44.49318" lon="5.78457">
        <ele>774.3</ele>
        <time>2023-09-28T08:04:18Z</time>
      </trkpt>
      <trkpt lat="44.49321" lon="5.7846">
        <ele>774.4</ele>
        <time>2023-09-28T08:04:19Z</time>
      </trkpt>
      <trkpt lat="44.49324" lon="5.78463">
        <ele>774.6</ele>
        <time>2023-09-28T08:04:20Z</time>
      </trkpt>
      <trkpt lat="44.49328" lon="5.78466">
        <ele>774.8</ele>
        <time>2023-09-28T08:04:21Z</time>
      </trkpt>
      <trkpt lat="44.49331" lon="5.78468">
        <ele>774.9</ele>
        <time>2023-09-28T08:04:22Z</time>
      </trkpt>
      <trkpt lat="44.49336" lon="5.78472">
        <ele>775.1</ele>
        <time>2023-09-28T08:04:23Z</time>
      </trkpt>
      <trkpt lat="44.49339" lon="5.78475">
        <ele>775.3</ele>
        <time>2023-09-28T08:04:24Z</time>
      </trkpt>
      <trkpt lat="44.49343" lon="5.78479">
        <ele>775.5</ele>
        <time>2023-09-28T08:04:26Z</time>
      </trkpt>
      <trkpt lat="44.49347" lon="5.78484">
        <ele>775.7</ele>
        <time>2023-09-28T08:04:27Z</time>
      </trkpt>
      <trkpt lat="44.49351" lon="5.78487">
        <ele>775.8</ele>
        <time>2023-09-28T08:04:28Z</time>
      </trkpt>
      <trkpt lat="44.49354" lon="5.78489">
        <ele>775.9</ele>
        <time>2023-09-28T08:04:29Z</time>
      </trkpt>
      <trkpt lat="44.49359" lon="5.78494">
        <ele>776.1</ele>
        <time>2023-09-28T08:04:31Z</time>
      </trkpt>
      <trkpt lat="44.49361" lon="5.78496">
        <ele>776.2</ele>
        <time>2023-09-28T08:04:32Z</time>
      </trkpt>
      <trkpt lat="44.49365" lon="5.78499">
        <ele>776.4</ele>
        <time>2023-09-28T08:04:33Z</time>
      </trkpt>
      <trkpt lat="44.49369" lon="5.78502">
        <ele>776.4</ele>
        <time>2023-09-28T08:04:34Z</time>
      </trkpt>
      <trkpt lat="44.49373" lon="5.78506">
        <ele>776.5</ele>
        <time>2023-09-28T08:04:36Z</time>
      </trkpt>
      <trkpt lat="44.49377" lon="5.78509">
        <ele>776.7</ele>
        <time>2023-09-28T08:04:37Z</time>
      </trkpt>
      <trkpt lat="44.4938" lon="5.78513">
        <ele>776.8</ele>
        <time>2023-09-28T08:04:38Z</time>
      </trkpt>
      <trkpt lat="44.49383" lon="5.78516">
        <ele>776.9</ele>
        <time>2023-09-28T08:04:39Z</time>
      </trkpt>
      <trkpt lat="44.49387" lon="5.78519">
        <ele>777.1</ele>
        <time>2023-09-28T08:04:40Z</time>
      </trkpt>
      <trkpt lat="44.4939" lon="5.78522">
        <ele>777.2</ele>
        <time>2023-09-28T08:04:41Z</time>
      </trkpt>
      <trkpt lat="44.49394" lon="5.78526">
        <ele>777.4</ele>
        <time>2023-09-28T08:04:42Z</time>
      </trkpt>
      <trkpt lat="44.49397" lon="5.78529">
        <ele>777.6</ele>
        <time>2023-09-28T08:04:43Z</time>
      </trkpt>
      <trkpt lat="44.49401" lon="5.78532">
        <ele>777.7</ele>
        <time>2023-09-28T08:04:45Z</time>
      </trkpt>
      <trkpt lat="44.49404" lon="5.78535">
        <ele>777.9</ele>
        <time>2023-09-28T08:04:46Z</time>
      </trkpt>
      <trkpt lat="44.49408" lon="5.78538">
        <ele>778</ele>
        <time>2023-09-28T08:04:47Z</time>
      </trkpt>
      <trkpt lat="44.49411" lon="5.7854">
        <ele>778</ele>
        <time>2023-09-28T08:04:48Z</time>
      </trkpt>
      <trkpt lat="44.49415" lon="5.78544">
        <ele>778.1</ele>
        <time>2023-09-28T08:04:49Z</time>
      </trkpt>
      <trkpt lat="44.49418" lon="5.78545">
        <ele>778.2</ele>
        <time>2023-09-28T08:04:50Z</time>
      </trkpt>
      <trkpt lat="44.49424" lon="5.78548">
        <ele>778.3</ele>
        <time>2023-09-28T08:04:52Z</time>
      </trkpt>
      <trkpt lat="44.49428" lon="5.78551">
        <ele>778.3</ele>
        <time>2023-09-28T08:04:53Z</time>
      </trkpt>
      <trkpt lat="44.49432" lon="5.78553">
        <ele>778.4</ele>
        <time>2023-09-28T08:04:54Z</time>
      </trkpt>
      <trkpt lat="44.49437" lon="5.78555">
        <ele>778.4</ele>
        <time>2023-09-28T08:04:55Z</time>
      </trkpt>
      <trkpt lat="44.49441" lon="5.78557">
        <ele>778.5</ele>
        <time>2023-09-28T08:04:57Z</time>
      </trkpt>
      <trkpt lat="44.49448" lon="5.78559">
        <ele>778.5</ele>
        <time>2023-09-28T08:04:58Z</time>
      </trkpt>
      <trkpt lat="44.49452" lon="5.78562">
        <ele>778.6</ele>
        <time>2023-09-28T08:04:59Z</time>
      </trkpt>
      <trkpt lat="44.49456" lon="5.78564">
        <ele>778.6</ele>
        <time>2023-09-28T08:05:01Z</time>
      </trkpt>
      <trkpt lat="44.49461" lon="5.78567">
        <ele>778.6</ele>
        <time>2023-09-28T08:05:02Z</time>
      </trkpt>
      <trkpt lat="44.49465" lon="5.78569">
        <ele>778.6</ele>
        <time>2023-09-28T08:05:03Z</time>
      </trkpt>
      <trkpt lat="44.49467" lon="5.78571">
        <ele>778.7</ele>
        <time>2023-09-28T08:05:04Z</time>
      </trkpt>
      <trkpt lat="44.49471" lon="5.78572">
        <ele>778.7</ele>
        <time>2023-09-28T08:05:05Z</time>
      </trkpt>
      <trkpt lat="44.49476" lon="5.78575">
        <ele>778.7</ele>
        <time>2023-09-28T08:05:06Z</time>
      </trkpt>
      <trkpt lat="44.49481" lon="5.78578">
        <ele>778.8</ele>
        <time>2023-09-28T08:05:07Z</time>
      </trkpt>
      <trkpt lat="44.49488" lon="5.78582">
        <ele>778.9</ele>
        <time>2023-09-28T08:05:09Z</time>
      </trkpt>
      <trkpt lat="44.49493" lon="5.78584">
        <ele>778.9</ele>
        <time>2023-09-28T08:05:10Z</time>
      </trkpt>
      <trkpt lat="44.49497" lon="5.78586">
        <ele>779</ele>
        <time>2023-09-28T08:05:11Z</time>
      </trkpt>
      <trkpt lat="44.49501" lon="5.78588">
        <ele>779</ele>
        <time>2023-09-28T08:05:12Z</time>
      </trkpt>
      <trkpt lat="44.49506" lon="5.78591">
        <ele>779.1</ele>
        <time>2023-09-28T08:05:14Z</time>
      </trkpt>
      <trkpt lat="44.4951" lon="5.78594">
        <ele>779.1</ele>
        <time>2023-09-28T08:05:15Z</time>
      </trkpt>
      <trkpt lat="44.49515" lon="5.78596">
        <ele>779.1</ele>
        <time>2023-09-28T08:05:16Z</time>
      </trkpt>
      <trkpt lat="44.49519" lon="5.78598">
        <ele>779.2</ele>
        <time>2023-09-28T08:05:17Z</time>
      </trkpt>
      <trkpt lat="44.49523" lon="5.786">
        <ele>779.2</ele>
        <time>2023-09-28T08:05:18Z</time>
      </trkpt>
      <trkpt lat="44.49526" lon="5.78602">
        <ele>779.1</ele>
        <time>2023-09-28T08:05:19Z</time>
      </trkpt>
      <trkpt lat="44.49534" lon="5.78606">
        <ele>779.1</ele>
        <time>2023-09-28T08:05:21Z</time>
      </trkpt>
      <trkpt lat="44.49539" lon="5.78608">
        <ele>779</ele>
        <time>2023-09-28T08:05:22Z</time>
      </trkpt>
      <trkpt lat="44.49543" lon="5.7861">
        <ele>779</ele>
        <time>2023-09-28T08:05:23Z</time>
      </trkpt>
      <trkpt lat="44.49547" lon="5.78613">
        <ele>779</ele>
        <time>2023-09-28T08:05:25Z</time>
      </trkpt>
      <trkpt lat="44.49551" lon="5.78616">
        <ele>778.9</ele>
        <time>2023-09-28T08:05:26Z</time>
      </trkpt>
      <trkpt lat="44.49556" lon="5.7862">
        <ele>778.9</ele>
        <time>2023-09-28T08:05:27Z</time>
      </trkpt>
      <trkpt lat="44.49562" lon="5.78624">
        <ele>778.9</ele>
        <time>2023-09-28T08:05:28Z</time>
      </trkpt>
      <trkpt lat="44.49565" lon="5.78629">
        <ele>778.9</ele>
        <time>2023-09-28T08:05:29Z</time>
      </trkpt>
      <trkpt lat="44.4957" lon="5.78634">
        <ele>778.9</ele>
        <time>2023-09-28T08:05:30Z</time>
      </trkpt>
      <trkpt lat="44.49574" lon="5.78638">
        <ele>779</ele>
        <time>2023-09-28T08:05:31Z</time>
      </trkpt>
      <trkpt lat="44.49578" lon="5.78641">
        <ele>779</ele>
        <time>2023-09-28T08:05:32Z</time>
      </trkpt>
      <trkpt lat="44.49581" lon="5.78645">
        <ele>779.1</ele>
        <time>2023-09-28T08:05:33Z</time>
      </trkpt>
      <trkpt lat="44.49585" lon="5.78649">
        <ele>779.1</ele>
        <time>2023-09-28T08:05:34Z</time>
      </trkpt>
      <trkpt lat="44.49592" lon="5.78655">
        <ele>779.2</ele>
        <time>2023-09-28T08:05:36Z</time>
      </trkpt>
      <trkpt lat="44.49596" lon="5.7866">
        <ele>779.2</ele>
        <time>2023-09-28T08:05:38Z</time>
      </trkpt>
      <trkpt lat="44.496" lon="5.78665">
        <ele>779.3</ele>
        <time>2023-09-28T08:05:39Z</time>
      </trkpt>
      <trkpt lat="44.49603" lon="5.7867">
        <ele>779.3</ele>
        <time>2023-09-28T08:05:40Z</time>
      </trkpt>
      <trkpt lat="44.49607" lon="5.78673">
        <ele>779.3</ele>
        <time>2023-09-28T08:05:41Z</time>
      </trkpt>
      <trkpt lat="44.4961" lon="5.78677">
        <ele>779.4</ele>
        <time>2023-09-28T08:05:42Z</time>
      </trkpt>
      <trkpt lat="44.49614" lon="5.78682">
        <ele>779.4</ele>
        <time>2023-09-28T08:05:43Z</time>
      </trkpt>
      <trkpt lat="44.49618" lon="5.78686">
        <ele>779.4</ele>
        <time>2023-09-28T08:05:44Z</time>
      </trkpt>
      <trkpt lat="44.49621" lon="5.7869">
        <ele>779.5</ele>
        <time>2023-09-28T08:05:45Z</time>
      </trkpt>
      <trkpt lat="44.49626" lon="5.78694">
        <ele>779.6</ele>
        <time>2023-09-28T08:05:47Z</time>
      </trkpt>
      <trkpt lat="44.49629" lon="5.78699">
        <ele>779.7</ele>
        <time>2023-09-28T08:05:48Z</time>
      </trkpt>
      <trkpt lat="44.49635" lon="5.78706">
        <ele>779.8</ele>
        <time>2023-09-28T08:05:49Z</time>
      </trkpt>
      <trkpt lat="44.49639" lon="5.78709">
        <ele>779.9</ele>
        <time>2023-09-28T08:05:50Z</time>
      </trkpt>
      <trkpt lat="44.49642" lon="5.78714">
        <ele>780</ele>
        <time>2023-09-28T08:05:51Z</time>
      </trkpt>
      <trkpt lat="44.49648" lon="5.7872">
        <ele>780.2</ele>
        <time>2023-09-28T08:05:53Z</time>
      </trkpt>
      <trkpt lat="44.49651" lon="5.78724">
        <ele>780.3</ele>
        <time>2023-09-28T08:05:54Z</time>
      </trkpt>
      <trkpt lat="44.49655" lon="5.78728">
        <ele>780.4</ele>
        <time>2023-09-28T08:05:55Z</time>
      </trkpt>
      <trkpt lat="44.49658" lon="5.78733">
        <ele>780.5</ele>
        <time>2023-09-28T08:05:56Z</time>
      </trkpt>
      <trkpt lat="44.49662" lon="5.78737">
        <ele>780.6</ele>
        <time>2023-09-28T08:05:58Z</time>
      </trkpt>
      <trkpt lat="44.49667" lon="5.78742">
        <ele>780.8</ele>
        <time>2023-09-28T08:05:59Z</time>
      </trkpt>
      <trkpt lat="44.4967" lon="5.78746">
        <ele>780.9</ele>
        <time>2023-09-28T08:06:00Z</time>
      </trkpt>
      <trkpt lat="44.49674" lon="5.7875">
        <ele>781</ele>
        <time>2023-09-28T08:06:02Z</time>
      </trkpt>
      <trkpt lat="44.49677" lon="5.78753">
        <ele>781.1</ele>
        <time>2023-09-28T08:06:03Z</time>
      </trkpt>
      <trkpt lat="44.4968" lon="5.78756">
        <ele>781.2</ele>
        <time>2023-09-28T08:06:04Z</time>
      </trkpt>
      <trkpt lat="44.49684" lon="5.78761">
        <ele>781.3</ele>
        <time>2023-09-28T08:06:05Z</time>
      </trkpt>
      <trkpt lat="44.49688" lon="5.78764">
        <ele>781.5</ele>
        <time>2023-09-28T08:06:06Z</time>
      </trkpt>
      <trkpt lat="44.49692" lon="5.78767">
        <ele>781.6</ele>
        <time>2023-09-28T08:06:07Z</time>
      </trkpt>
      <trkpt lat="44.49696" lon="5.7877">
        <ele>781.8</ele>
        <time>2023-09-28T08:06:08Z</time>
      </trkpt>
      <trkpt lat="44.49699" lon="5.78774">
        <ele>781.9</ele>
        <time>2023-09-28T08:06:09Z</time>
      </trkpt>
      <trkpt lat="44.49705" lon="5.78777">
        <ele>782.2</ele>
        <time>2023-09-28T08:06:11Z</time>
      </trkpt>
      <trkpt lat="44.49709" lon="5.78779">
        <ele>782.3</ele>
        <time>2023-09-28T08:06:12Z</time>
      </trkpt>
      <trkpt lat="44.49713" lon="5.78781">
        <ele>782.5</ele>
        <time>2023-09-28T08:06:13Z</time>
      </trkpt>
      <trkpt lat="44.49717" lon="5.78783">
        <ele>782.6</ele>
        <time>2023-09-28T08:06:14Z</time>
      </trkpt>
      <trkpt lat="44.49721" lon="5.78785">
        <ele>782.8</ele>
        <time>2023-09-28T08:06:15Z</time>
      </trkpt>
      <trkpt lat="44.49725" lon="5.78788">
        <ele>782.9</ele>
        <time>2023-09-28T08:06:17Z</time>
      </trkpt>
      <trkpt lat="44.49731" lon="5.78791">
        <ele>783.1</ele>
        <time>2023-09-28T08:06:18Z</time>
      </trkpt>
      <trkpt lat="44.49735" lon="5.78792">
        <ele>783.2</ele>
        <time>2023-09-28T08:06:19Z</time>
      </trkpt>
      <trkpt lat="44.49739" lon="5.78794">
        <ele>783.4</ele>
        <time>2023-09-28T08:06:20Z</time>
      </trkpt>
      <trkpt lat="44.49743" lon="5.78796">
        <ele>783.5</ele>
        <time>2023-09-28T08:06:22Z</time>
      </trkpt>
      <trkpt lat="44.49747" lon="5.78798">
        <ele>783.7</ele>
        <time>2023-09-28T08:06:23Z</time>
      </trkpt>
      <trkpt lat="44.49751" lon="5.788">
        <ele>783.8</ele>
        <time>2023-09-28T08:06:24Z</time>
      </trkpt>
      <trkpt lat="44.49755" lon="5.78802">
        <ele>784</ele>
        <time>2023-09-28T08:06:25Z</time>
      </trkpt>
      <trkpt lat="44.49759" lon="5.78804">
        <ele>784.1</ele>
        <time>2023-09-28T08:06:26Z</time>
      </trkpt>
      <trkpt lat="44.49763" lon="5.78805">
        <ele>784.2</ele>
        <time>2023-09-28T08:06:27Z</time>
      </trkpt>
      <trkpt lat="44.49767" lon="5.78807">
        <ele>784.4</ele>
        <time>2023-09-28T08:06:29Z</time>
      </trkpt>
      <trkpt lat="44.49771" lon="5.78809">
        <ele>784.5</ele>
        <time>2023-09-28T08:06:30Z</time>
      </trkpt>
      <trkpt lat="44.49774" lon="5.78811">
        <ele>784.6</ele>
        <time>2023-09-28T08:06:31Z</time>
      </trkpt>
      <trkpt lat="44.49779" lon="5.78813">
        <ele>784.8</ele>
        <time>2023-09-28T08:06:32Z</time>
      </trkpt>
      <trkpt lat="44.49783" lon="5.78814">
        <ele>785</ele>
        <time>2023-09-28T08:06:33Z</time>
      </trkpt>
      <trkpt lat="44.49787" lon="5.78816">
        <ele>785.1</ele>
        <time>2023-09-28T08:06:34Z</time>
      </trkpt>
      <trkpt lat="44.49791" lon="5.78819">
        <ele>785.3</ele>
        <time>2023-09-28T08:06:35Z</time>
      </trkpt>
      <trkpt lat="44.49794" lon="5.7882">
        <ele>785.5</ele>
        <time>2023-09-28T08:06:36Z</time>
      </trkpt>
      <trkpt lat="44.49798" lon="5.78822">
        <ele>785.7</ele>
        <time>2023-09-28T08:06:37Z</time>
      </trkpt>
      <trkpt lat="44.49802" lon="5.78824">
        <ele>785.8</ele>
        <time>2023-09-28T08:06:38Z</time>
      </trkpt>
      <trkpt lat="44.49808" lon="5.78827">
        <ele>786.2</ele>
        <time>2023-09-28T08:06:40Z</time>
      </trkpt>
      <trkpt lat="44.49813" lon="5.78829">
        <ele>786.4</ele>
        <time>2023-09-28T08:06:42Z</time>
      </trkpt>
      <trkpt lat="44.49817" lon="5.78831">
        <ele>786.6</ele>
        <time>2023-09-28T08:06:43Z</time>
      </trkpt>
      <trkpt lat="44.4982" lon="5.78832">
        <ele>786.7</ele>
        <time>2023-09-28T08:06:44Z</time>
      </trkpt>
      <trkpt lat="44.49823" lon="5.78834">
        <ele>786.9</ele>
        <time>2023-09-28T08:06:45Z</time>
      </trkpt>
      <trkpt lat="44.49827" lon="5.78836">
        <ele>787</ele>
        <time>2023-09-28T08:06:46Z</time>
      </trkpt>
      <trkpt lat="44.49831" lon="5.78837">
        <ele>787.2</ele>
        <time>2023-09-28T08:06:47Z</time>
      </trkpt>
      <trkpt lat="44.49833" lon="5.78839">
        <ele>787.4</ele>
        <time>2023-09-28T08:06:48Z</time>
      </trkpt>
      <trkpt lat="44.49837" lon="5.78841">
        <ele>787.6</ele>
        <time>2023-09-28T08:06:50Z</time>
      </trkpt>
      <trkpt lat="44.4984" lon="5.78842">
        <ele>787.7</ele>
        <time>2023-09-28T08:06:51Z</time>
      </trkpt>
      <trkpt lat="44.49844" lon="5.78845">
        <ele>788</ele>
        <time>2023-09-28T08:06:52Z</time>
      </trkpt>
      <trkpt lat="44.49847" lon="5.78846">
        <ele>788.2</ele>
        <time>2023-09-28T08:06:53Z</time>
      </trkpt>
      <trkpt lat="44.4985" lon="5.78849">
        <ele>788.3</ele>
        <time>2023-09-28T08:06:55Z</time>
      </trkpt>
      <trkpt lat="44.49853" lon="5.78851">
        <ele>788.5</ele>
        <time>2023-09-28T08:06:56Z</time>
      </trkpt>
      <trkpt lat="44.49856" lon="5.78853">
        <ele>788.7</ele>
        <time>2023-09-28T08:06:57Z</time>
      </trkpt>
      <trkpt lat="44.4986" lon="5.78855">
        <ele>788.9</ele>
        <time>2023-09-28T08:06:58Z</time>
      </trkpt>
      <trkpt lat="44.49863" lon="5.78858">
        <ele>789.2</ele>
        <time>2023-09-28T08:06:59Z</time>
      </trkpt>
      <trkpt lat="44.49865" lon="5.7886">
        <ele>789.3</ele>
        <time>2023-09-28T08:07:00Z</time>
      </trkpt>
      <trkpt lat="44.49868" lon="5.78862">
        <ele>789.5</ele>
        <time>2023-09-28T08:07:01Z</time>
      </trkpt>
      <trkpt lat="44.49871" lon="5.78865">
        <ele>789.6</ele>
        <time>2023-09-28T08:07:02Z</time>
      </trkpt>
      <trkpt lat="44.49874" lon="5.78868">
        <ele>789.8</ele>
        <time>2023-09-28T08:07:03Z</time>
      </trkpt>
      <trkpt lat="44.49878" lon="5.78871">
        <ele>790</ele>
        <time>2023-09-28T08:07:04Z</time>
      </trkpt>
      <trkpt lat="44.49881" lon="5.78873">
        <ele>790.2</ele>
        <time>2023-09-28T08:07:06Z</time>
      </trkpt>
      <trkpt lat="44.49884" lon="5.78876">
        <ele>790.3</ele>
        <time>2023-09-28T08:07:07Z</time>
      </trkpt>
      <trkpt lat="44.49886" lon="5.78878">
        <ele>790.5</ele>
        <time>2023-09-28T08:07:08Z</time>
      </trkpt>
      <trkpt lat="44.4989" lon="5.78881">
        <ele>790.7</ele>
        <time>2023-09-28T08:07:09Z</time>
      </trkpt>
      <trkpt lat="44.49892" lon="5.78884">
        <ele>790.9</ele>
        <time>2023-09-28T08:07:10Z</time>
      </trkpt>
      <trkpt lat="44.49895" lon="5.78887">
        <ele>791</ele>
        <time>2023-09-28T08:07:11Z</time>
      </trkpt>
      <trkpt lat="44.49898" lon="5.78889">
        <ele>791.2</ele>
        <time>2023-09-28T08:07:12Z</time>
      </trkpt>
      <trkpt lat="44.49901" lon="5.78891">
        <ele>791.4</ele>
        <time>2023-09-28T08:07:13Z</time>
      </trkpt>
      <trkpt lat="44.49904" lon="5.78894">
        <ele>791.6</ele>
        <time>2023-09-28T08:07:15Z</time>
      </trkpt>
      <trkpt lat="44.49907" lon="5.78897">
        <ele>791.8</ele>
        <time>2023-09-28T08:07:16Z</time>
      </trkpt>
      <trkpt lat="44.4991" lon="5.78899">
        <ele>791.9</ele>
        <time>2023-09-28T08:07:17Z</time>
      </trkpt>
      <trkpt lat="44.49913" lon="5.78901">
        <ele>792.1</ele>
        <time>2023-09-28T08:07:18Z</time>
      </trkpt>
      <trkpt lat="44.49915" lon="5.78904">
        <ele>792.3</ele>
        <time>2023-09-28T08:07:19Z</time>
      </trkpt>
      <trkpt lat="44.49919" lon="5.78907">
        <ele>792.5</ele>
        <time>2023-09-28T08:07:21Z</time>
      </trkpt>
      <trkpt lat="44.49921" lon="5.78909">
        <ele>792.7</ele>
        <time>2023-09-28T08:07:22Z</time>
      </trkpt>
      <trkpt lat="44.49924" lon="5.78912">
        <ele>792.9</ele>
        <time>2023-09-28T08:07:23Z</time>
      </trkpt>
      <trkpt lat="44.49928" lon="5.78915">
        <ele>793.1</ele>
        <time>2023-09-28T08:07:24Z</time>
      </trkpt>
      <trkpt lat="44.4993" lon="5.78918">
        <ele>793.2</ele>
        <time>2023-09-28T08:07:25Z</time>
      </trkpt>
      <trkpt lat="44.49933" lon="5.7892">
        <ele>793.4</ele>
        <time>2023-09-28T08:07:26Z</time>
      </trkpt>
      <trkpt lat="44.49936" lon="5.78922">
        <ele>793.6</ele>
        <time>2023-09-28T08:07:27Z</time>
      </trkpt>
      <trkpt lat="44.49939" lon="5.78925">
        <ele>793.7</ele>
        <time>2023-09-28T08:07:28Z</time>
      </trkpt>
      <trkpt lat="44.49942" lon="5.78927">
        <ele>793.9</ele>
        <time>2023-09-28T08:07:29Z</time>
      </trkpt>
      <trkpt lat="44.49945" lon="5.7893">
        <ele>794.1</ele>
        <time>2023-09-28T08:07:31Z</time>
      </trkpt>
      <trkpt lat="44.49948" lon="5.78932">
        <ele>794.3</ele>
        <time>2023-09-28T08:07:32Z</time>
      </trkpt>
      <trkpt lat="44.49952" lon="5.78936">
        <ele>794.5</ele>
        <time>2023-09-28T08:07:33Z</time>
      </trkpt>
      <trkpt lat="44.49954" lon="5.78937">
        <ele>794.7</ele>
        <time>2023-09-28T08:07:34Z</time>
      </trkpt>
      <trkpt lat="44.49958" lon="5.7894">
        <ele>794.9</ele>
        <time>2023-09-28T08:07:35Z</time>
      </trkpt>
      <trkpt lat="44.4996" lon="5.78941">
        <ele>795</ele>
        <time>2023-09-28T08:07:36Z</time>
      </trkpt>
      <trkpt lat="44.49962" lon="5.78943">
        <ele>795.1</ele>
        <time>2023-09-28T08:07:37Z</time>
      </trkpt>
      <trkpt lat="44.49967" lon="5.78947">
        <ele>795.5</ele>
        <time>2023-09-28T08:07:39Z</time>
      </trkpt>
      <trkpt lat="44.49971" lon="5.7895">
        <ele>795.7</ele>
        <time>2023-09-28T08:07:41Z</time>
      </trkpt>
      <trkpt lat="44.49973" lon="5.78952">
        <ele>795.9</ele>
        <time>2023-09-28T08:07:42Z</time>
      </trkpt>
      <trkpt lat="44.49976" lon="5.78955">
        <ele>796.1</ele>
        <time>2023-09-28T08:07:43Z</time>
      </trkpt>
      <trkpt lat="44.49979" lon="5.78957">
        <ele>796.3</ele>
        <time>2023-09-28T08:07:44Z</time>
      </trkpt>
      <trkpt lat="44.49982" lon="5.78959">
        <ele>796.5</ele>
        <time>2023-09-28T08:07:45Z</time>
      </trkpt>
      <trkpt lat="44.49985" lon="5.78961">
        <ele>796.6</ele>
        <time>2023-09-28T08:07:46Z</time>
      </trkpt>
      <trkpt lat="44.49988" lon="5.78962">
        <ele>796.8</ele>
        <time>2023-09-28T08:07:48Z</time>
      </trkpt>
      <trkpt lat="44.49991" lon="5.78964">
        <ele>797</ele>
        <time>2023-09-28T08:07:49Z</time>
      </trkpt>
      <trkpt lat="44.49994" lon="5.78965">
        <ele>797.2</ele>
        <time>2023-09-28T08:07:50Z</time>
      </trkpt>
      <trkpt lat="44.49998" lon="5.78966">
        <ele>797.4</ele>
        <time>2023-09-28T08:07:51Z</time>
      </trkpt>
      <trkpt lat="44.50001" lon="5.78966">
        <ele>797.6</ele>
        <time>2023-09-28T08:07:52Z</time>
      </trkpt>
      <trkpt lat="44.50004" lon="5.78965">
        <ele>797.8</ele>
        <time>2023-09-28T08:07:53Z</time>
      </trkpt>
      <trkpt lat="44.50007" lon="5.78964">
        <ele>798</ele>
        <time>2023-09-28T08:07:55Z</time>
      </trkpt>
      <trkpt lat="44.50011" lon="5.78963">
        <ele>798.2</ele>
        <time>2023-09-28T08:07:56Z</time>
      </trkpt>
      <trkpt lat="44.50013" lon="5.78962">
        <ele>798.3</ele>
        <time>2023-09-28T08:07:57Z</time>
      </trkpt>
      <trkpt lat="44.50017" lon="5.7896">
        <ele>798.5</ele>
        <time>2023-09-28T08:07:58Z</time>
      </trkpt>
      <trkpt lat="44.5002" lon="5.7896">
        <ele>798.8</ele>
        <time>2023-09-28T08:07:59Z</time>
      </trkpt>
      <trkpt lat="44.50023" lon="5.78959">
        <ele>799</ele>
        <time>2023-09-28T08:08:00Z</time>
      </trkpt>
      <trkpt lat="44.50027" lon="5.78959">
        <ele>799.1</ele>
        <time>2023-09-28T08:08:01Z</time>
      </trkpt>
      <trkpt lat="44.5003" lon="5.78959">
        <ele>799.3</ele>
        <time>2023-09-28T08:08:02Z</time>
      </trkpt>
      <trkpt lat="44.50034" lon="5.7896">
        <ele>799.5</ele>
        <time>2023-09-28T08:08:04Z</time>
      </trkpt>
      <trkpt lat="44.50037" lon="5.78962">
        <ele>799.6</ele>
        <time>2023-09-28T08:08:05Z</time>
      </trkpt>
      <trkpt lat="44.5004" lon="5.78964">
        <ele>799.8</ele>
        <time>2023-09-28T08:08:06Z</time>
      </trkpt>
      <trkpt lat="44.50043" lon="5.78967">
        <ele>800</ele>
        <time>2023-09-28T08:08:07Z</time>
      </trkpt>
      <trkpt lat="44.50046" lon="5.7897">
        <ele>800.1</ele>
        <time>2023-09-28T08:08:08Z</time>
      </trkpt>
      <trkpt lat="44.50047" lon="5.78973">
        <ele>800.2</ele>
        <time>2023-09-28T08:08:09Z</time>
      </trkpt>
      <trkpt lat="44.50049" lon="5.78977">
        <ele>800.4</ele>
        <time>2023-09-28T08:08:10Z</time>
      </trkpt>
      <trkpt lat="44.50051" lon="5.7898">
        <ele>800.5</ele>
        <time>2023-09-28T08:08:11Z</time>
      </trkpt>
      <trkpt lat="44.50053" lon="5.78985">
        <ele>800.7</ele>
        <time>2023-09-28T08:08:13Z</time>
      </trkpt>
      <trkpt lat="44.50055" lon="5.78989">
        <ele>800.8</ele>
        <time>2023-09-28T08:08:14Z</time>
      </trkpt>
      <trkpt lat="44.50057" lon="5.78992">
        <ele>800.9</ele>
        <time>2023-09-28T08:08:15Z</time>
      </trkpt>
      <trkpt lat="44.50058" lon="5.78996">
        <ele>801</ele>
        <time>2023-09-28T08:08:16Z</time>
      </trkpt>
      <trkpt lat="44.50061" lon="5.79001">
        <ele>801.2</ele>
        <time>2023-09-28T08:08:17Z</time>
      </trkpt>
      <trkpt lat="44.50063" lon="5.79003">
        <ele>801.3</ele>
        <time>2023-09-28T08:08:18Z</time>
      </trkpt>
      <trkpt lat="44.50064" lon="5.79006">
        <ele>801.4</ele>
        <time>2023-09-28T08:08:19Z</time>
      </trkpt>
      <trkpt lat="44.50067" lon="5.7901">
        <ele>801.5</ele>
        <time>2023-09-28T08:08:21Z</time>
      </trkpt>
      <trkpt lat="44.50071" lon="5.79016">
        <ele>801.7</ele>
        <time>2023-09-28T08:08:22Z</time>
      </trkpt>
      <trkpt lat="44.50073" lon="5.79019">
        <ele>801.8</ele>
        <time>2023-09-28T08:08:23Z</time>
      </trkpt>
      <trkpt lat="44.50075" lon="5.79022">
        <ele>802</ele>
        <time>2023-09-28T08:08:24Z</time>
      </trkpt>
      <trkpt lat="44.50077" lon="5.79025">
        <ele>802.1</ele>
        <time>2023-09-28T08:08:25Z</time>
      </trkpt>
      <trkpt lat="44.5008" lon="5.79029">
        <ele>802.3</ele>
        <time>2023-09-28T08:08:27Z</time>
      </trkpt>
      <trkpt lat="44.50082" lon="5.79031">
        <ele>802.4</ele>
        <time>2023-09-28T08:08:28Z</time>
      </trkpt>
      <trkpt lat="44.50085" lon="5.79034">
        <ele>802.6</ele>
        <time>2023-09-28T08:08:29Z</time>
      </trkpt>
      <trkpt lat="44.50088" lon="5.79038">
        <ele>802.8</ele>
        <time>2023-09-28T08:08:30Z</time>
      </trkpt>
      <trkpt lat="44.5009" lon="5.7904">
        <ele>802.9</ele>
        <time>2023-09-28T08:08:31Z</time>
      </trkpt>
      <trkpt lat="44.50092" lon="5.79042">
        <ele>803</ele>
        <time>2023-09-28T08:08:32Z</time>
      </trkpt>
      <trkpt lat="44.50096" lon="5.79047">
        <ele>803.2</ele>
        <time>2023-09-28T08:08:34Z</time>
      </trkpt>
      <trkpt lat="44.50098" lon="5.7905">
        <ele>803.3</ele>
        <time>2023-09-28T08:08:35Z</time>
      </trkpt>
      <trkpt lat="44.50101" lon="5.79052">
        <ele>803.5</ele>
        <time>2023-09-28T08:08:37Z</time>
      </trkpt>
      <trkpt lat="44.50105" lon="5.79056">
        <ele>803.7</ele>
        <time>2023-09-28T08:08:38Z</time>
      </trkpt>
      <trkpt lat="44.50107" lon="5.79059">
        <ele>803.9</ele>
        <time>2023-09-28T08:08:39Z</time>
      </trkpt>
      <trkpt lat="44.5011" lon="5.79062">
        <ele>804</ele>
        <time>2023-09-28T08:08:40Z</time>
      </trkpt>
      <trkpt lat="44.50112" lon="5.79064">
        <ele>804.1</ele>
        <time>2023-09-28T08:08:41Z</time>
      </trkpt>
      <trkpt lat="44.50114" lon="5.79067">
        <ele>804.3</ele>
        <time>2023-09-28T08:08:42Z</time>
      </trkpt>
      <trkpt lat="44.50117" lon="5.79071">
        <ele>804.5</ele>
        <time>2023-09-28T08:08:44Z</time>
      </trkpt>
      <trkpt lat="44.5012" lon="5.79073">
        <ele>804.7</ele>
        <time>2023-09-28T08:08:45Z</time>
      </trkpt>
      <trkpt lat="44.50123" lon="5.79076">
        <ele>804.9</ele>
        <time>2023-09-28T08:08:46Z</time>
      </trkpt>
      <trkpt lat="44.50125" lon="5.79078">
        <ele>805</ele>
        <time>2023-09-28T08:08:47Z</time>
      </trkpt>
      <trkpt lat="44.50128" lon="5.7908">
        <ele>805.2</ele>
        <time>2023-09-28T08:08:48Z</time>
      </trkpt>
      <trkpt lat="44.5013" lon="5.79083">
        <ele>805.4</ele>
        <time>2023-09-28T08:08:49Z</time>
      </trkpt>
      <trkpt lat="44.50133" lon="5.79086">
        <ele>805.5</ele>
        <time>2023-09-28T08:08:50Z</time>
      </trkpt>
      <trkpt lat="44.50136" lon="5.79088">
        <ele>805.7</ele>
        <time>2023-09-28T08:08:51Z</time>
      </trkpt>
      <trkpt lat="44.5014" lon="5.79094">
        <ele>806</ele>
        <time>2023-09-28T08:08:53Z</time>
      </trkpt>
      <trkpt lat="44.50145" lon="5.79099">
        <ele>806.3</ele>
        <time>2023-09-28T08:08:55Z</time>
      </trkpt>
      <trkpt lat="44.50147" lon="5.79102">
        <ele>806.5</ele>
        <time>2023-09-28T08:08:56Z</time>
      </trkpt>
      <trkpt lat="44.50149" lon="5.79106">
        <ele>806.6</ele>
        <time>2023-09-28T08:08:57Z</time>
      </trkpt>
      <trkpt lat="44.50151" lon="5.7911">
        <ele>806.8</ele>
        <time>2023-09-28T08:08:59Z</time>
      </trkpt>
      <trkpt lat="44.50153" lon="5.79113">
        <ele>806.9</ele>
        <time>2023-09-28T08:09:00Z</time>
      </trkpt>
      <trkpt lat="44.50155" lon="5.79118">
        <ele>807.1</ele>
        <time>2023-09-28T08:09:01Z</time>
      </trkpt>
      <trkpt lat="44.50158" lon="5.79122">
        <ele>807.3</ele>
        <time>2023-09-28T08:09:03Z</time>
      </trkpt>
      <trkpt lat="44.5016" lon="5.79128">
        <ele>807.5</ele>
        <time>2023-09-28T08:09:04Z</time>
      </trkpt>
      <trkpt lat="44.50161" lon="5.7913">
        <ele>807.5</ele>
        <time>2023-09-28T08:09:05Z</time>
      </trkpt>
      <trkpt lat="44.50163" lon="5.79133">
        <ele>807.7</ele>
        <time>2023-09-28T08:09:06Z</time>
      </trkpt>
      <trkpt lat="44.50165" lon="5.79137">
        <ele>807.8</ele>
        <time>2023-09-28T08:09:07Z</time>
      </trkpt>
      <trkpt lat="44.50166" lon="5.79141">
        <ele>807.9</ele>
        <time>2023-09-28T08:09:08Z</time>
      </trkpt>
      <trkpt lat="44.50167" lon="5.79145">
        <ele>808.1</ele>
        <time>2023-09-28T08:09:09Z</time>
      </trkpt>
      <trkpt lat="44.50168" lon="5.79149">
        <ele>808.2</ele>
        <time>2023-09-28T08:09:11Z</time>
      </trkpt>
      <trkpt lat="44.5017" lon="5.79152">
        <ele>808.3</ele>
        <time>2023-09-28T08:09:12Z</time>
      </trkpt>
      <trkpt lat="44.50173" lon="5.79157">
        <ele>808.5</ele>
        <time>2023-09-28T08:09:13Z</time>
      </trkpt>
      <trkpt lat="44.50174" lon="5.7916">
        <ele>808.6</ele>
        <time>2023-09-28T08:09:14Z</time>
      </trkpt>
      <trkpt lat="44.50175" lon="5.79164">
        <ele>808.8</ele>
        <time>2023-09-28T08:09:16Z</time>
      </trkpt>
      <trkpt lat="44.50177" lon="5.79167">
        <ele>808.9</ele>
        <time>2023-09-28T08:09:17Z</time>
      </trkpt>
      <trkpt lat="44.50179" lon="5.79171">
        <ele>809.1</ele>
        <time>2023-09-28T08:09:18Z</time>
      </trkpt>
      <trkpt lat="44.50181" lon="5.79176">
        <ele>809.3</ele>
        <time>2023-09-28T08:09:19Z</time>
      </trkpt>
      <trkpt lat="44.50182" lon="5.79178">
        <ele>809.4</ele>
        <time>2023-09-28T08:09:20Z</time>
      </trkpt>
      <trkpt lat="44.50183" lon="5.79181">
        <ele>809.5</ele>
        <time>2023-09-28T08:09:21Z</time>
      </trkpt>
      <trkpt lat="44.50185" lon="5.79185">
        <ele>809.6</ele>
        <time>2023-09-28T08:09:22Z</time>
      </trkpt>
      <trkpt lat="44.50187" lon="5.79188">
        <ele>809.8</ele>
        <time>2023-09-28T08:09:23Z</time>
      </trkpt>
      <trkpt lat="44.50189" lon="5.79191">
        <ele>809.9</ele>
        <time>2023-09-28T08:09:25Z</time>
      </trkpt>
      <trkpt lat="44.5019" lon="5.79195">
        <ele>810.1</ele>
        <time>2023-09-28T08:09:26Z</time>
      </trkpt>
      <trkpt lat="44.50192" lon="5.79198">
        <ele>810.2</ele>
        <time>2023-09-28T08:09:27Z</time>
      </trkpt>
      <trkpt lat="44.50194" lon="5.79202">
        <ele>810.4</ele>
        <time>2023-09-28T08:09:28Z</time>
      </trkpt>
      <trkpt lat="44.50195" lon="5.79205">
        <ele>810.5</ele>
        <time>2023-09-28T08:09:29Z</time>
      </trkpt>
      <trkpt lat="44.50197" lon="5.79208">
        <ele>810.7</ele>
        <time>2023-09-28T08:09:30Z</time>
      </trkpt>
      <trkpt lat="44.50199" lon="5.79211">
        <ele>810.8</ele>
        <time>2023-09-28T08:09:31Z</time>
      </trkpt>
      <trkpt lat="44.50201" lon="5.79215">
        <ele>811</ele>
        <time>2023-09-28T08:09:32Z</time>
      </trkpt>
      <trkpt lat="44.50203" lon="5.79219">
        <ele>811.2</ele>
        <time>2023-09-28T08:09:33Z</time>
      </trkpt>
      <trkpt lat="44.50206" lon="5.79223">
        <ele>811.4</ele>
        <time>2023-09-28T08:09:35Z</time>
      </trkpt>
      <trkpt lat="44.5021" lon="5.79228">
        <ele>811.8</ele>
        <time>2023-09-28T08:09:36Z</time>
      </trkpt>
      <trkpt lat="44.50213" lon="5.79231">
        <ele>812</ele>
        <time>2023-09-28T08:09:38Z</time>
      </trkpt>
      <trkpt lat="44.50216" lon="5.79234">
        <ele>812.2</ele>
        <time>2023-09-28T08:09:39Z</time>
      </trkpt>
      <trkpt lat="44.50219" lon="5.79238">
        <ele>812.5</ele>
        <time>2023-09-28T08:09:40Z</time>
      </trkpt>
      <trkpt lat="44.5022" lon="5.79239">
        <ele>812.5</ele>
        <time>2023-09-28T08:09:41Z</time>
      </trkpt>
      <trkpt lat="44.50222" lon="5.79242">
        <ele>812.7</ele>
        <time>2023-09-28T08:09:42Z</time>
      </trkpt>
      <trkpt lat="44.50224" lon="5.79244">
        <ele>812.9</ele>
        <time>2023-09-28T08:09:43Z</time>
      </trkpt>
      <trkpt lat="44.50229" lon="5.79248">
        <ele>813.2</ele>
        <time>2023-09-28T08:09:45Z</time>
      </trkpt>
      <trkpt lat="44.50231" lon="5.79251">
        <ele>813.4</ele>
        <time>2023-09-28T08:09:46Z</time>
      </trkpt>
      <trkpt lat="44.50233" lon="5.79255">
        <ele>813.6</ele>
        <time>2023-09-28T08:09:48Z</time>
      </trkpt>
      <trkpt lat="44.50236" lon="5.79258">
        <ele>813.8</ele>
        <time>2023-09-28T08:09:49Z</time>
      </trkpt>
      <trkpt lat="44.50239" lon="5.79262">
        <ele>814</ele>
        <time>2023-09-28T08:09:50Z</time>
      </trkpt>
      <trkpt lat="44.50241" lon="5.79263">
        <ele>814.1</ele>
        <time>2023-09-28T08:09:51Z</time>
      </trkpt>
      <trkpt lat="44.50243" lon="5.79268">
        <ele>814.3</ele>
        <time>2023-09-28T08:09:52Z</time>
      </trkpt>
      <trkpt lat="44.50244" lon="5.79272">
        <ele>814.4</ele>
        <time>2023-09-28T08:09:53Z</time>
      </trkpt>
      <trkpt lat="44.50246" lon="5.79276">
        <ele>814.6</ele>
        <time>2023-09-28T08:09:55Z</time>
      </trkpt>
      <trkpt lat="44.50248" lon="5.7928">
        <ele>814.8</ele>
        <time>2023-09-28T08:09:56Z</time>
      </trkpt>
      <trkpt lat="44.5025" lon="5.79284">
        <ele>814.9</ele>
        <time>2023-09-28T08:09:57Z</time>
      </trkpt>
      <trkpt lat="44.50251" lon="5.79287">
        <ele>815.1</ele>
        <time>2023-09-28T08:09:58Z</time>
      </trkpt>
      <trkpt lat="44.50252" lon="5.79291">
        <ele>815.2</ele>
        <time>2023-09-28T08:09:59Z</time>
      </trkpt>
      <trkpt lat="44.50254" lon="5.79295">
        <ele>815.4</ele>
        <time>2023-09-28T08:10:00Z</time>
      </trkpt>
      <trkpt lat="44.50257" lon="5.79303">
        <ele>815.6</ele>
        <time>2023-09-28T08:10:02Z</time>
      </trkpt>
      <trkpt lat="44.50258" lon="5.79307">
        <ele>815.8</ele>
        <time>2023-09-28T08:10:04Z</time>
      </trkpt>
      <trkpt lat="44.5026" lon="5.79311">
        <ele>816</ele>
        <time>2023-09-28T08:10:05Z</time>
      </trkpt>
      <trkpt lat="44.50261" lon="5.79315">
        <ele>816.1</ele>
        <time>2023-09-28T08:10:06Z</time>
      </trkpt>
      <trkpt lat="44.50263" lon="5.7932">
        <ele>816.3</ele>
        <time>2023-09-28T08:10:07Z</time>
      </trkpt>
      <trkpt lat="44.50265" lon="5.79323">
        <ele>816.4</ele>
        <time>2023-09-28T08:10:08Z</time>
      </trkpt>
      <trkpt lat="44.50266" lon="5.79327">
        <ele>816.6</ele>
        <time>2023-09-28T08:10:09Z</time>
      </trkpt>
      <trkpt lat="44.50268" lon="5.79332">
        <ele>816.8</ele>
        <time>2023-09-28T08:10:10Z</time>
      </trkpt>
      <trkpt lat="44.50269" lon="5.79335">
        <ele>816.9</ele>
        <time>2023-09-28T08:10:11Z</time>
      </trkpt>
      <trkpt lat="44.50271" lon="5.79338">
        <ele>817</ele>
        <time>2023-09-28T08:10:13Z</time>
      </trkpt>
      <trkpt lat="44.50273" lon="5.79343">
        <ele>817.3</ele>
        <time>2023-09-28T08:10:14Z</time>
      </trkpt>
      <trkpt lat="44.50276" lon="5.79346">
        <ele>817.4</ele>
        <time>2023-09-28T08:10:15Z</time>
      </trkpt>
      <trkpt lat="44.50278" lon="5.7935">
        <ele>817.6</ele>
        <time>2023-09-28T08:10:17Z</time>
      </trkpt>
      <trkpt lat="44.50281" lon="5.79352">
        <ele>817.7</ele>
        <time>2023-09-28T08:10:18Z</time>
      </trkpt>
      <trkpt lat="44.50283" lon="5.79355">
        <ele>817.8</ele>
        <time>2023-09-28T08:10:19Z</time>
      </trkpt>
      <trkpt lat="44.50285" lon="5.79359">
        <ele>817.9</ele>
        <time>2023-09-28T08:10:20Z</time>
      </trkpt>
      <trkpt lat="44.50287" lon="5.79362">
        <ele>818</ele>
        <time>2023-09-28T08:10:21Z</time>
      </trkpt>
      <trkpt lat="44.5029" lon="5.79365">
        <ele>818.1</ele>
        <time>2023-09-28T08:10:22Z</time>
      </trkpt>
      <trkpt lat="44.50293" lon="5.79368">
        <ele>818.2</ele>
        <time>2023-09-28T08:10:23Z</time>
      </trkpt>
      <trkpt lat="44.50295" lon="5.7937">
        <ele>818.3</ele>
        <time>2023-09-28T08:10:24Z</time>
      </trkpt>
      <trkpt lat="44.50298" lon="5.79373">
        <ele>818.3</ele>
        <time>2023-09-28T08:10:25Z</time>
      </trkpt>
      <trkpt lat="44.503" lon="5.79375">
        <ele>818.4</ele>
        <time>2023-09-28T08:10:26Z</time>
      </trkpt>
      <trkpt lat="44.50302" lon="5.79379">
        <ele>818.5</ele>
        <time>2023-09-28T08:10:28Z</time>
      </trkpt>
      <trkpt lat="44.50305" lon="5.79383">
        <ele>818.5</ele>
        <time>2023-09-28T08:10:29Z</time>
      </trkpt>
      <trkpt lat="44.50307" lon="5.79386">
        <ele>818.6</ele>
        <time>2023-09-28T08:10:30Z</time>
      </trkpt>
      <trkpt lat="44.50309" lon="5.79389">
        <ele>818.6</ele>
        <time>2023-09-28T08:10:31Z</time>
      </trkpt>
      <trkpt lat="44.50311" lon="5.79392">
        <ele>818.7</ele>
        <time>2023-09-28T08:10:32Z</time>
      </trkpt>
      <trkpt lat="44.50314" lon="5.79397">
        <ele>818.8</ele>
        <time>2023-09-28T08:10:34Z</time>
      </trkpt>
      <trkpt lat="44.50315" lon="5.79399">
        <ele>818.8</ele>
        <time>2023-09-28T08:10:35Z</time>
      </trkpt>
      <trkpt lat="44.50317" lon="5.79401">
        <ele>818.8</ele>
        <time>2023-09-28T08:10:36Z</time>
      </trkpt>
      <trkpt lat="44.50319" lon="5.79405">
        <ele>818.9</ele>
        <time>2023-09-28T08:10:37Z</time>
      </trkpt>
      <trkpt lat="44.5032" lon="5.79407">
        <ele>818.9</ele>
        <time>2023-09-28T08:10:38Z</time>
      </trkpt>
      <trkpt lat="44.50322" lon="5.7941">
        <ele>818.9</ele>
        <time>2023-09-28T08:10:39Z</time>
      </trkpt>
      <trkpt lat="44.50324" lon="5.79413">
        <ele>818.9</ele>
        <time>2023-09-28T08:10:40Z</time>
      </trkpt>
      <trkpt lat="44.50325" lon="5.79417">
        <ele>819</ele>
        <time>2023-09-28T08:10:41Z</time>
      </trkpt>
      <trkpt lat="44.50326" lon="5.7942">
        <ele>819</ele>
        <time>2023-09-28T08:10:42Z</time>
      </trkpt>
      <trkpt lat="44.50328" lon="5.79426">
        <ele>818.9</ele>
        <time>2023-09-28T08:10:44Z</time>
      </trkpt>
      <trkpt lat="44.5033" lon="5.7943">
        <ele>818.9</ele>
        <time>2023-09-28T08:10:45Z</time>
      </trkpt>
      <trkpt lat="44.50332" lon="5.79433">
        <ele>818.9</ele>
        <time>2023-09-28T08:10:46Z</time>
      </trkpt>
      <trkpt lat="44.50335" lon="5.79437">
        <ele>818.9</ele>
        <time>2023-09-28T08:10:48Z</time>
      </trkpt>
      <trkpt lat="44.50336" lon="5.7944">
        <ele>818.9</ele>
        <time>2023-09-28T08:10:49Z</time>
      </trkpt>
      <trkpt lat="44.50336" lon="5.79441">
        <ele>818.9</ele>
        <time>2023-09-28T08:10:50Z</time>
      </trkpt>
      <trkpt lat="44.50337" lon="5.79442">
        <ele>818.9</ele>
        <time>2023-09-28T08:10:51Z</time>
      </trkpt>
      <trkpt lat="44.50338" lon="5.79446">
        <ele>818.8</ele>
        <time>2023-09-28T08:10:53Z</time>
      </trkpt>
      <trkpt lat="44.50338" lon="5.79445">
        <ele>818.8</ele>
        <time>2023-09-28T08:10:54Z</time>
      </trkpt>
      <trkpt lat="44.50338" lon="5.79445">
        <ele>818.8</ele>
        <time>2023-09-28T08:10:56Z</time>
      </trkpt>
      <trkpt lat="44.50338" lon="5.79445">
        <ele>818.8</ele>
        <time>2023-09-28T08:10:57Z</time>
      </trkpt>
      <trkpt lat="44.50338" lon="5.79445">
        <ele>818.8</ele>
        <time>2023-09-28T08:10:58Z</time>
      </trkpt>
      <trkpt lat="44.50339" lon="5.79444">
        <ele>818.8</ele>
        <time>2023-09-28T08:11:00Z</time>
      </trkpt>
      <trkpt lat="44.50339" lon="5.79444">
        <ele>818.8</ele>
        <time>2023-09-28T08:11:01Z</time>
      </trkpt>
      <trkpt lat="44.50339" lon="5.79444">
        <ele>818.8</ele>
        <time>2023-09-28T08:11:02Z</time>
      </trkpt>
      <trkpt lat="44.50338" lon="5.79444">
        <ele>818.8</ele>
        <time>2023-09-28T08:11:04Z</time>
      </trkpt>
      <trkpt lat="44.50338" lon="5.79443">
        <ele>818.8</ele>
        <time>2023-09-28T08:11:05Z</time>
      </trkpt>
      <trkpt lat="44.50338" lon="5.79443">
        <ele>818.8</ele>
        <time>2023-09-28T08:11:06Z</time>
      </trkpt>
      <trkpt lat="44.50338" lon="5.79443">
        <ele>818.8</ele>
        <time>2023-09-28T08:11:07Z</time>
      </trkpt>
      <trkpt lat="44.50338" lon="5.79442">
        <ele>818.8</ele>
        <time>2023-09-28T08:11:09Z</time>
      </trkpt>
      <trkpt lat="44.5034" lon="5.79445">
        <ele>818.8</ele>
        <time>2023-09-28T08:11:20Z</time>
      </trkpt>
      <trkpt lat="44.50341" lon="5.79448">
        <ele>818.8</ele>
        <time>2023-09-28T08:11:22Z</time>
      </trkpt>
      <trkpt lat="44.50341" lon="5.79449">
        <ele>818.8</ele>
        <time>2023-09-28T08:11:23Z</time>
      </trkpt>
      <trkpt lat="44.50341" lon="5.7945">
        <ele>818.7</ele>
        <time>2023-09-28T08:11:24Z</time>
      </trkpt>
      <trkpt lat="44.50341" lon="5.79451">
        <ele>818.7</ele>
        <time>2023-09-28T08:11:26Z</time>
      </trkpt>
      <trkpt lat="44.50341" lon="5.79452">
        <ele>818.7</ele>
        <time>2023-09-28T08:11:27Z</time>
      </trkpt>
      <trkpt lat="44.50341" lon="5.79452">
        <ele>818.7</ele>
        <time>2023-09-28T08:11:28Z</time>
      </trkpt>
      <trkpt lat="44.50341" lon="5.79452">
        <ele>818.7</ele>
        <time>2023-09-28T08:11:30Z</time>
      </trkpt>
      <trkpt lat="44.50341" lon="5.79452">
        <ele>818.7</ele>
        <time>2023-09-28T08:11:31Z</time>
      </trkpt>
      <trkpt lat="44.50341" lon="5.79452">
        <ele>818.7</ele>
        <time>2023-09-28T08:11:32Z</time>
      </trkpt>
      <trkpt lat="44.50341" lon="5.79452">
        <ele>818.7</ele>
        <time>2023-09-28T08:11:34Z</time>
      </trkpt>
      <trkpt lat="44.50343" lon="5.79453">
        <ele>818.7</ele>
        <time>2023-09-28T08:12:31Z</time>
      </trkpt>
      <trkpt lat="44.50344" lon="5.79455">
        <ele>818.7</ele>
        <time>2023-09-28T08:12:32Z</time>
      </trkpt>
      <trkpt lat="44.50345" lon="5.79456">
        <ele>818.7</ele>
        <time>2023-09-28T08:12:33Z</time>
      </trkpt>
      <trkpt lat="44.50348" lon="5.7946">
        <ele>818.6</ele>
        <time>2023-09-28T08:12:34Z</time>
      </trkpt>
      <trkpt lat="44.50348" lon="5.79462">
        <ele>818.6</ele>
        <time>2023-09-28T08:12:35Z</time>
      </trkpt>
      <trkpt lat="44.5035" lon="5.79466">
        <ele>818.6</ele>
        <time>2023-09-28T08:12:36Z</time>
      </trkpt>
      <trkpt lat="44.50351" lon="5.7947">
        <ele>818.6</ele>
        <time>2023-09-28T08:12:37Z</time>
      </trkpt>
      <trkpt lat="44.50353" lon="5.79474">
        <ele>818.5</ele>
        <time>2023-09-28T08:12:38Z</time>
      </trkpt>
      <trkpt lat="44.50355" lon="5.79479">
        <ele>818.4</ele>
        <time>2023-09-28T08:12:39Z</time>
      </trkpt>
      <trkpt lat="44.50357" lon="5.79483">
        <ele>818.3</ele>
        <time>2023-09-28T08:12:40Z</time>
      </trkpt>
      <trkpt lat="44.50359" lon="5.7949">
        <ele>818.2</ele>
        <time>2023-09-28T08:12:42Z</time>
      </trkpt>
      <trkpt lat="44.50361" lon="5.79495">
        <ele>818.1</ele>
        <time>2023-09-28T08:12:43Z</time>
      </trkpt>
      <trkpt lat="44.50363" lon="5.79502">
        <ele>818</ele>
        <time>2023-09-28T08:12:44Z</time>
      </trkpt>
      <trkpt lat="44.50365" lon="5.79507">
        <ele>818</ele>
        <time>2023-09-28T08:12:45Z</time>
      </trkpt>
      <trkpt lat="44.50367" lon="5.79514">
        <ele>817.9</ele>
        <time>2023-09-28T08:12:46Z</time>
      </trkpt>
      <trkpt lat="44.5037" lon="5.79522">
        <ele>817.8</ele>
        <time>2023-09-28T08:12:47Z</time>
      </trkpt>
      <trkpt lat="44.50372" lon="5.79528">
        <ele>817.7</ele>
        <time>2023-09-28T08:12:48Z</time>
      </trkpt>
      <trkpt lat="44.50374" lon="5.79535">
        <ele>817.6</ele>
        <time>2023-09-28T08:12:49Z</time>
      </trkpt>
      <trkpt lat="44.50377" lon="5.79542">
        <ele>817.6</ele>
        <time>2023-09-28T08:12:50Z</time>
      </trkpt>
      <trkpt lat="44.50379" lon="5.79549">
        <ele>817.5</ele>
        <time>2023-09-28T08:12:51Z</time>
      </trkpt>
      <trkpt lat="44.50381" lon="5.79555">
        <ele>817.5</ele>
        <time>2023-09-28T08:12:52Z</time>
      </trkpt>
      <trkpt lat="44.50384" lon="5.79562">
        <ele>817.5</ele>
        <time>2023-09-28T08:12:53Z</time>
      </trkpt>
      <trkpt lat="44.50386" lon="5.79569">
        <ele>817.5</ele>
        <time>2023-09-28T08:12:54Z</time>
      </trkpt>
      <trkpt lat="44.50388" lon="5.79576">
        <ele>817.5</ele>
        <time>2023-09-28T08:12:55Z</time>
      </trkpt>
      <trkpt lat="44.50391" lon="5.79583">
        <ele>817.5</ele>
        <time>2023-09-28T08:12:56Z</time>
      </trkpt>
      <trkpt lat="44.50393" lon="5.7959">
        <ele>817.5</ele>
        <time>2023-09-28T08:12:57Z</time>
      </trkpt>
      <trkpt lat="44.50394" lon="5.79597">
        <ele>817.6</ele>
        <time>2023-09-28T08:12:58Z</time>
      </trkpt>
      <trkpt lat="44.50396" lon="5.79604">
        <ele>817.7</ele>
        <time>2023-09-28T08:12:59Z</time>
      </trkpt>
      <trkpt lat="44.50398" lon="5.79611">
        <ele>817.8</ele>
        <time>2023-09-28T08:13:00Z</time>
      </trkpt>
      <trkpt lat="44.50399" lon="5.79618">
        <ele>817.9</ele>
        <time>2023-09-28T08:13:01Z</time>
      </trkpt>
      <trkpt lat="44.504" lon="5.79625">
        <ele>817.9</ele>
        <time>2023-09-28T08:13:02Z</time>
      </trkpt>
      <trkpt lat="44.504" lon="5.79632">
        <ele>818</ele>
        <time>2023-09-28T08:13:03Z</time>
      </trkpt>
      <trkpt lat="44.50401" lon="5.79639">
        <ele>818</ele>
        <time>2023-09-28T08:13:04Z</time>
      </trkpt>
      <trkpt lat="44.50401" lon="5.79646">
        <ele>818</ele>
        <time>2023-09-28T08:13:05Z</time>
      </trkpt>
      <trkpt lat="44.50401" lon="5.79653">
        <ele>817.9</ele>
        <time>2023-09-28T08:13:06Z</time>
      </trkpt>
      <trkpt lat="44.50401" lon="5.79661">
        <ele>817.9</ele>
        <time>2023-09-28T08:13:07Z</time>
      </trkpt>
      <trkpt lat="44.50401" lon="5.79669">
        <ele>817.8</ele>
        <time>2023-09-28T08:13:08Z</time>
      </trkpt>
      <trkpt lat="44.50401" lon="5.79677">
        <ele>817.7</ele>
        <time>2023-09-28T08:13:09Z</time>
      </trkpt>
      <trkpt lat="44.504" lon="5.79686">
        <ele>817.7</ele>
        <time>2023-09-28T08:13:10Z</time>
      </trkpt>
      <trkpt lat="44.50399" lon="5.79694">
        <ele>817.6</ele>
        <time>2023-09-28T08:13:11Z</time>
      </trkpt>
      <trkpt lat="44.50396" lon="5.79702">
        <ele>817.6</ele>
        <time>2023-09-28T08:13:12Z</time>
      </trkpt>
      <trkpt lat="44.50394" lon="5.7971">
        <ele>817.6</ele>
        <time>2023-09-28T08:13:13Z</time>
      </trkpt>
      <trkpt lat="44.50391" lon="5.79718">
        <ele>817.6</ele>
        <time>2023-09-28T08:13:14Z</time>
      </trkpt>
      <trkpt lat="44.50387" lon="5.79725">
        <ele>817.7</ele>
        <time>2023-09-28T08:13:15Z</time>
      </trkpt>
      <trkpt lat="44.50384" lon="5.79733">
        <ele>817.7</ele>
        <time>2023-09-28T08:13:16Z</time>
      </trkpt>
      <trkpt lat="44.50381" lon="5.79739">
        <ele>817.8</ele>
        <time>2023-09-28T08:13:17Z</time>
      </trkpt>
      <trkpt lat="44.50378" lon="5.79747">
        <ele>817.8</ele>
        <time>2023-09-28T08:13:18Z</time>
      </trkpt>
      <trkpt lat="44.50376" lon="5.79754">
        <ele>817.9</ele>
        <time>2023-09-28T08:13:19Z</time>
      </trkpt>
      <trkpt lat="44.50374" lon="5.79762">
        <ele>818</ele>
        <time>2023-09-28T08:13:20Z</time>
      </trkpt>
      <trkpt lat="44.50372" lon="5.79769">
        <ele>818</ele>
        <time>2023-09-28T08:13:21Z</time>
      </trkpt>
      <trkpt lat="44.50371" lon="5.79777">
        <ele>818</ele>
        <time>2023-09-28T08:13:22Z</time>
      </trkpt>
      <trkpt lat="44.5037" lon="5.79785">
        <ele>818</ele>
        <time>2023-09-28T08:13:23Z</time>
      </trkpt>
      <trkpt lat="44.50369" lon="5.79792">
        <ele>818.1</ele>
        <time>2023-09-28T08:13:24Z</time>
      </trkpt>
      <trkpt lat="44.50369" lon="5.798">
        <ele>818.1</ele>
        <time>2023-09-28T08:13:25Z</time>
      </trkpt>
      <trkpt lat="44.50369" lon="5.79808">
        <ele>818.2</ele>
        <time>2023-09-28T08:13:26Z</time>
      </trkpt>
      <trkpt lat="44.50368" lon="5.79815">
        <ele>818.3</ele>
        <time>2023-09-28T08:13:27Z</time>
      </trkpt>
      <trkpt lat="44.50368" lon="5.79823">
        <ele>818.3</ele>
        <time>2023-09-28T08:13:28Z</time>
      </trkpt>
      <trkpt lat="44.50368" lon="5.7983">
        <ele>818.4</ele>
        <time>2023-09-28T08:13:29Z</time>
      </trkpt>
      <trkpt lat="44.50367" lon="5.79837">
        <ele>818.5</ele>
        <time>2023-09-28T08:13:30Z</time>
      </trkpt>
      <trkpt lat="44.50367" lon="5.79844">
        <ele>818.6</ele>
        <time>2023-09-28T08:13:31Z</time>
      </trkpt>
      <trkpt lat="44.50366" lon="5.79851">
        <ele>818.7</ele>
        <time>2023-09-28T08:13:32Z</time>
      </trkpt>
      <trkpt lat="44.50366" lon="5.79858">
        <ele>818.7</ele>
        <time>2023-09-28T08:13:33Z</time>
      </trkpt>
      <trkpt lat="44.50366" lon="5.79866">
        <ele>818.8</ele>
        <time>2023-09-28T08:13:34Z</time>
      </trkpt>
      <trkpt lat="44.50367" lon="5.79873">
        <ele>818.8</ele>
        <time>2023-09-28T08:13:35Z</time>
      </trkpt>
      <trkpt lat="44.50367" lon="5.7988">
        <ele>818.8</ele>
        <time>2023-09-28T08:13:36Z</time>
      </trkpt>
      <trkpt lat="44.50368" lon="5.79888">
        <ele>818.7</ele>
        <time>2023-09-28T08:13:37Z</time>
      </trkpt>
      <trkpt lat="44.50369" lon="5.79896">
        <ele>818.7</ele>
        <time>2023-09-28T08:13:38Z</time>
      </trkpt>
      <trkpt lat="44.5037" lon="5.79904">
        <ele>818.6</ele>
        <time>2023-09-28T08:13:39Z</time>
      </trkpt>
      <trkpt lat="44.50372" lon="5.79912">
        <ele>818.6</ele>
        <time>2023-09-28T08:13:40Z</time>
      </trkpt>
      <trkpt lat="44.50373" lon="5.79921">
        <ele>818.6</ele>
        <time>2023-09-28T08:13:41Z</time>
      </trkpt>
      <trkpt lat="44.50375" lon="5.79929">
        <ele>818.6</ele>
        <time>2023-09-28T08:13:42Z</time>
      </trkpt>
      <trkpt lat="44.50376" lon="5.79937">
        <ele>818.6</ele>
        <time>2023-09-28T08:13:43Z</time>
      </trkpt>
      <trkpt lat="44.50377" lon="5.79945">
        <ele>818.6</ele>
        <time>2023-09-28T08:13:44Z</time>
      </trkpt>
      <trkpt lat="44.50378" lon="5.79954">
        <ele>818.7</ele>
        <time>2023-09-28T08:13:45Z</time>
      </trkpt>
      <trkpt lat="44.50379" lon="5.79962">
        <ele>818.8</ele>
        <time>2023-09-28T08:13:46Z</time>
      </trkpt>
      <trkpt lat="44.50381" lon="5.79969">
        <ele>818.9</ele>
        <time>2023-09-28T08:13:47Z</time>
      </trkpt>
      <trkpt lat="44.50382" lon="5.79977">
        <ele>819</ele>
        <time>2023-09-28T08:13:48Z</time>
      </trkpt>
      <trkpt lat="44.50382" lon="5.79984">
        <ele>819.2</ele>
        <time>2023-09-28T08:13:49Z</time>
      </trkpt>
      <trkpt lat="44.50383" lon="5.79991">
        <ele>819.3</ele>
        <time>2023-09-28T08:13:50Z</time>
      </trkpt>
      <trkpt lat="44.50383" lon="5.79998">
        <ele>819.5</ele>
        <time>2023-09-28T08:13:51Z</time>
      </trkpt>
      <trkpt lat="44.50384" lon="5.80005">
        <ele>819.7</ele>
        <time>2023-09-28T08:13:52Z</time>
      </trkpt>
      <trkpt lat="44.50384" lon="5.80012">
        <ele>819.9</ele>
        <time>2023-09-28T08:13:53Z</time>
      </trkpt>
      <trkpt lat="44.50384" lon="5.80018">
        <ele>820.1</ele>
        <time>2023-09-28T08:13:54Z</time>
      </trkpt>
      <trkpt lat="44.50384" lon="5.80024">
        <ele>820.3</ele>
        <time>2023-09-28T08:13:55Z</time>
      </trkpt>
      <trkpt lat="44.50383" lon="5.8003">
        <ele>820.5</ele>
        <time>2023-09-28T08:13:56Z</time>
      </trkpt>
      <trkpt lat="44.50383" lon="5.80036">
        <ele>820.7</ele>
        <time>2023-09-28T08:13:57Z</time>
      </trkpt>
      <trkpt lat="44.50382" lon="5.80041">
        <ele>820.8</ele>
        <time>2023-09-28T08:13:58Z</time>
      </trkpt>
      <trkpt lat="44.50381" lon="5.80046">
        <ele>821.1</ele>
        <time>2023-09-28T08:13:59Z</time>
      </trkpt>
      <trkpt lat="44.5038" lon="5.80052">
        <ele>821.3</ele>
        <time>2023-09-28T08:14:00Z</time>
      </trkpt>
      <trkpt lat="44.5038" lon="5.80057">
        <ele>821.5</ele>
        <time>2023-09-28T08:14:01Z</time>
      </trkpt>
      <trkpt lat="44.50379" lon="5.80062">
        <ele>821.7</ele>
        <time>2023-09-28T08:14:02Z</time>
      </trkpt>
      <trkpt lat="44.50377" lon="5.80071">
        <ele>822.1</ele>
        <time>2023-09-28T08:14:04Z</time>
      </trkpt>
      <trkpt lat="44.50377" lon="5.80077">
        <ele>822.3</ele>
        <time>2023-09-28T08:14:05Z</time>
      </trkpt>
      <trkpt lat="44.50377" lon="5.80084">
        <ele>822.6</ele>
        <time>2023-09-28T08:14:07Z</time>
      </trkpt>
      <trkpt lat="44.50377" lon="5.80089">
        <ele>822.9</ele>
        <time>2023-09-28T08:14:08Z</time>
      </trkpt>
      <trkpt lat="44.50377" lon="5.80095">
        <ele>823.2</ele>
        <time>2023-09-28T08:14:09Z</time>
      </trkpt>
      <trkpt lat="44.50378" lon="5.80101">
        <ele>823.4</ele>
        <time>2023-09-28T08:14:10Z</time>
      </trkpt>
      <trkpt lat="44.50379" lon="5.80105">
        <ele>823.6</ele>
        <time>2023-09-28T08:14:11Z</time>
      </trkpt>
      <trkpt lat="44.5038" lon="5.8011">
        <ele>823.8</ele>
        <time>2023-09-28T08:14:12Z</time>
      </trkpt>
      <trkpt lat="44.50381" lon="5.80115">
        <ele>824</ele>
        <time>2023-09-28T08:14:13Z</time>
      </trkpt>
      <trkpt lat="44.50383" lon="5.8012">
        <ele>824.3</ele>
        <time>2023-09-28T08:14:14Z</time>
      </trkpt>
      <trkpt lat="44.50386" lon="5.80124">
        <ele>824.5</ele>
        <time>2023-09-28T08:14:16Z</time>
      </trkpt>
      <trkpt lat="44.50388" lon="5.80127">
        <ele>824.7</ele>
        <time>2023-09-28T08:14:17Z</time>
      </trkpt>
      <trkpt lat="44.5039" lon="5.80132">
        <ele>825</ele>
        <time>2023-09-28T08:14:18Z</time>
      </trkpt>
      <trkpt lat="44.50393" lon="5.80134">
        <ele>825.3</ele>
        <time>2023-09-28T08:14:19Z</time>
      </trkpt>
      <trkpt lat="44.50396" lon="5.80137">
        <ele>825.5</ele>
        <time>2023-09-28T08:14:20Z</time>
      </trkpt>
      <trkpt lat="44.50398" lon="5.80139">
        <ele>825.7</ele>
        <time>2023-09-28T08:14:21Z</time>
      </trkpt>
      <trkpt lat="44.504" lon="5.80142">
        <ele>826</ele>
        <time>2023-09-28T08:14:22Z</time>
      </trkpt>
      <trkpt lat="44.50403" lon="5.80146">
        <ele>826.3</ele>
        <time>2023-09-28T08:14:24Z</time>
      </trkpt>
      <trkpt lat="44.50405" lon="5.80149">
        <ele>826.6</ele>
        <time>2023-09-28T08:14:25Z</time>
      </trkpt>
      <trkpt lat="44.50408" lon="5.80153">
        <ele>827</ele>
        <time>2023-09-28T08:14:26Z</time>
      </trkpt>
      <trkpt lat="44.50409" lon="5.80155">
        <ele>827.1</ele>
        <time>2023-09-28T08:14:27Z</time>
      </trkpt>
      <trkpt lat="44.50411" lon="5.8016">
        <ele>827.4</ele>
        <time>2023-09-28T08:14:28Z</time>
      </trkpt>
      <trkpt lat="44.50412" lon="5.80162">
        <ele>827.6</ele>
        <time>2023-09-28T08:14:29Z</time>
      </trkpt>
      <trkpt lat="44.50414" lon="5.80165">
        <ele>827.8</ele>
        <time>2023-09-28T08:14:30Z</time>
      </trkpt>
      <trkpt lat="44.50415" lon="5.80171">
        <ele>828.1</ele>
        <time>2023-09-28T08:14:31Z</time>
      </trkpt>
      <trkpt lat="44.50416" lon="5.80173">
        <ele>828.1</ele>
        <time>2023-09-28T08:14:32Z</time>
      </trkpt>
      <trkpt lat="44.50417" lon="5.80178">
        <ele>828.2</ele>
        <time>2023-09-28T08:14:34Z</time>
      </trkpt>
      <trkpt lat="44.50418" lon="5.80182">
        <ele>828.4</ele>
        <time>2023-09-28T08:14:35Z</time>
      </trkpt>
      <trkpt lat="44.50418" lon="5.80186">
        <ele>828.6</ele>
        <time>2023-09-28T08:14:36Z</time>
      </trkpt>
      <trkpt lat="44.50418" lon="5.80192">
        <ele>828.9</ele>
        <time>2023-09-28T08:14:37Z</time>
      </trkpt>
      <trkpt lat="44.50418" lon="5.80193">
        <ele>829</ele>
        <time>2023-09-28T08:14:38Z</time>
      </trkpt>
      <trkpt lat="44.50418" lon="5.80199">
        <ele>829.2</ele>
        <time>2023-09-28T08:14:39Z</time>
      </trkpt>
      <trkpt lat="44.50418" lon="5.80201">
        <ele>829.3</ele>
        <time>2023-09-28T08:14:40Z</time>
      </trkpt>
      <trkpt lat="44.50417" lon="5.80206">
        <ele>829.6</ele>
        <time>2023-09-28T08:14:41Z</time>
      </trkpt>
      <trkpt lat="44.50418" lon="5.8021">
        <ele>829.7</ele>
        <time>2023-09-28T08:14:43Z</time>
      </trkpt>
      <trkpt lat="44.50417" lon="5.80216">
        <ele>829.9</ele>
        <time>2023-09-28T08:14:44Z</time>
      </trkpt>
      <trkpt lat="44.50417" lon="5.8022">
        <ele>830.1</ele>
        <time>2023-09-28T08:14:45Z</time>
      </trkpt>
      <trkpt lat="44.50418" lon="5.80226">
        <ele>830.2</ele>
        <time>2023-09-28T08:14:46Z</time>
      </trkpt>
      <trkpt lat="44.50418" lon="5.8023">
        <ele>830.4</ele>
        <time>2023-09-28T08:14:47Z</time>
      </trkpt>
      <trkpt lat="44.50418" lon="5.80235">
        <ele>830.5</ele>
        <time>2023-09-28T08:14:48Z</time>
      </trkpt>
      <trkpt lat="44.5042" lon="5.80241">
        <ele>830.6</ele>
        <time>2023-09-28T08:14:49Z</time>
      </trkpt>
      <trkpt lat="44.50421" lon="5.80247">
        <ele>830.8</ele>
        <time>2023-09-28T08:14:51Z</time>
      </trkpt>
      <trkpt lat="44.50422" lon="5.80252">
        <ele>830.9</ele>
        <time>2023-09-28T08:14:52Z</time>
      </trkpt>
      <trkpt lat="44.50423" lon="5.80257">
        <ele>831</ele>
        <time>2023-09-28T08:14:53Z</time>
      </trkpt>
      <trkpt lat="44.50424" lon="5.80262">
        <ele>831.1</ele>
        <time>2023-09-28T08:14:54Z</time>
      </trkpt>
      <trkpt lat="44.50425" lon="5.80268">
        <ele>831.2</ele>
        <time>2023-09-28T08:14:55Z</time>
      </trkpt>
      <trkpt lat="44.50427" lon="5.80273">
        <ele>831.3</ele>
        <time>2023-09-28T08:14:56Z</time>
      </trkpt>
      <trkpt lat="44.50428" lon="5.80279">
        <ele>831.4</ele>
        <time>2023-09-28T08:14:58Z</time>
      </trkpt>
      <trkpt lat="44.5043" lon="5.80286">
        <ele>831.5</ele>
        <time>2023-09-28T08:14:59Z</time>
      </trkpt>
      <trkpt lat="44.50431" lon="5.80291">
        <ele>831.6</ele>
        <time>2023-09-28T08:15:00Z</time>
      </trkpt>
      <trkpt lat="44.50434" lon="5.803">
        <ele>831.8</ele>
        <time>2023-09-28T08:15:02Z</time>
      </trkpt>
      <trkpt lat="44.50436" lon="5.80305">
        <ele>831.9</ele>
        <time>2023-09-28T08:15:03Z</time>
      </trkpt>
      <trkpt lat="44.50438" lon="5.80311">
        <ele>832.1</ele>
        <time>2023-09-28T08:15:04Z</time>
      </trkpt>
      <trkpt lat="44.5044" lon="5.80317">
        <ele>832.2</ele>
        <time>2023-09-28T08:15:06Z</time>
      </trkpt>
      <trkpt lat="44.50442" lon="5.80324">
        <ele>832.4</ele>
        <time>2023-09-28T08:15:07Z</time>
      </trkpt>
      <trkpt lat="44.50444" lon="5.8033">
        <ele>832.6</ele>
        <time>2023-09-28T08:15:08Z</time>
      </trkpt>
      <trkpt lat="44.50445" lon="5.80335">
        <ele>832.7</ele>
        <time>2023-09-28T08:15:09Z</time>
      </trkpt>
      <trkpt lat="44.50447" lon="5.80341">
        <ele>832.9</ele>
        <time>2023-09-28T08:15:11Z</time>
      </trkpt>
      <trkpt lat="44.50449" lon="5.80347">
        <ele>833.1</ele>
        <time>2023-09-28T08:15:12Z</time>
      </trkpt>
      <trkpt lat="44.5045" lon="5.80352">
        <ele>833.3</ele>
        <time>2023-09-28T08:15:13Z</time>
      </trkpt>
      <trkpt lat="44.50451" lon="5.80356">
        <ele>833.5</ele>
        <time>2023-09-28T08:15:14Z</time>
      </trkpt>
      <trkpt lat="44.50452" lon="5.80361">
        <ele>833.6</ele>
        <time>2023-09-28T08:15:15Z</time>
      </trkpt>
      <trkpt lat="44.50453" lon="5.80366">
        <ele>833.6</ele>
        <time>2023-09-28T08:15:16Z</time>
      </trkpt>
      <trkpt lat="44.50454" lon="5.80371">
        <ele>833.7</ele>
        <time>2023-09-28T08:15:17Z</time>
      </trkpt>
      <trkpt lat="44.50454" lon="5.80376">
        <ele>833.9</ele>
        <time>2023-09-28T08:15:18Z</time>
      </trkpt>
      <trkpt lat="44.50455" lon="5.8038">
        <ele>834</ele>
        <time>2023-09-28T08:15:19Z</time>
      </trkpt>
      <trkpt lat="44.50456" lon="5.80386">
        <ele>834.2</ele>
        <time>2023-09-28T08:15:20Z</time>
      </trkpt>
      <trkpt lat="44.50456" lon="5.80391">
        <ele>834.4</ele>
        <time>2023-09-28T08:15:21Z</time>
      </trkpt>
      <trkpt lat="44.50457" lon="5.80397">
        <ele>834.6</ele>
        <time>2023-09-28T08:15:23Z</time>
      </trkpt>
      <trkpt lat="44.50457" lon="5.80401">
        <ele>834.8</ele>
        <time>2023-09-28T08:15:24Z</time>
      </trkpt>
      <trkpt lat="44.50458" lon="5.80406">
        <ele>835</ele>
        <time>2023-09-28T08:15:25Z</time>
      </trkpt>
      <trkpt lat="44.50458" lon="5.80411">
        <ele>835.1</ele>
        <time>2023-09-28T08:15:26Z</time>
      </trkpt>
      <trkpt lat="44.50459" lon="5.8042">
        <ele>835.4</ele>
        <time>2023-09-28T08:15:28Z</time>
      </trkpt>
      <trkpt lat="44.5046" lon="5.80426">
        <ele>835.7</ele>
        <time>2023-09-28T08:15:29Z</time>
      </trkpt>
      <trkpt lat="44.5046" lon="5.80431">
        <ele>835.9</ele>
        <time>2023-09-28T08:15:31Z</time>
      </trkpt>
      <trkpt lat="44.50461" lon="5.80437">
        <ele>836.1</ele>
        <time>2023-09-28T08:15:32Z</time>
      </trkpt>
      <trkpt lat="44.50462" lon="5.80441">
        <ele>836.3</ele>
        <time>2023-09-28T08:15:33Z</time>
      </trkpt>
      <trkpt lat="44.50463" lon="5.80445">
        <ele>836.5</ele>
        <time>2023-09-28T08:15:34Z</time>
      </trkpt>
      <trkpt lat="44.50466" lon="5.80448">
        <ele>836.6</ele>
        <time>2023-09-28T08:15:36Z</time>
      </trkpt>
      <trkpt lat="44.5047" lon="5.80452">
        <ele>836.8</ele>
        <time>2023-09-28T08:15:37Z</time>
      </trkpt>
      <trkpt lat="44.50473" lon="5.80454">
        <ele>836.9</ele>
        <time>2023-09-28T08:15:38Z</time>
      </trkpt>
      <trkpt lat="44.50478" lon="5.80453">
        <ele>837.1</ele>
        <time>2023-09-28T08:15:40Z</time>
      </trkpt>
      <trkpt lat="44.50481" lon="5.80452">
        <ele>837.2</ele>
        <time>2023-09-28T08:15:41Z</time>
      </trkpt>
      <trkpt lat="44.50485" lon="5.80452">
        <ele>837.2</ele>
        <time>2023-09-28T08:15:42Z</time>
      </trkpt>
      <trkpt lat="44.50488" lon="5.80451">
        <ele>837.3</ele>
        <time>2023-09-28T08:15:43Z</time>
      </trkpt>
      <trkpt lat="44.50492" lon="5.8045">
        <ele>837.4</ele>
        <time>2023-09-28T08:15:44Z</time>
      </trkpt>
      <trkpt lat="44.50495" lon="5.8045">
        <ele>837.5</ele>
        <time>2023-09-28T08:15:45Z</time>
      </trkpt>
      <trkpt lat="44.50499" lon="5.80451">
        <ele>837.5</ele>
        <time>2023-09-28T08:15:46Z</time>
      </trkpt>
      <trkpt lat="44.50502" lon="5.8045">
        <ele>837.6</ele>
        <time>2023-09-28T08:15:47Z</time>
      </trkpt>
      <trkpt lat="44.50509" lon="5.8045">
        <ele>837.7</ele>
        <time>2023-09-28T08:15:49Z</time>
      </trkpt>
      <trkpt lat="44.50513" lon="5.80449">
        <ele>837.8</ele>
        <time>2023-09-28T08:15:50Z</time>
      </trkpt>
      <trkpt lat="44.50517" lon="5.80449">
        <ele>837.9</ele>
        <time>2023-09-28T08:15:51Z</time>
      </trkpt>
      <trkpt lat="44.50521" lon="5.80448">
        <ele>837.9</ele>
        <time>2023-09-28T08:15:52Z</time>
      </trkpt>
      <trkpt lat="44.50525" lon="5.80447">
        <ele>838</ele>
        <time>2023-09-28T08:15:53Z</time>
      </trkpt>
      <trkpt lat="44.50529" lon="5.80445">
        <ele>838</ele>
        <time>2023-09-28T08:15:55Z</time>
      </trkpt>
      <trkpt lat="44.50534" lon="5.80444">
        <ele>838.1</ele>
        <time>2023-09-28T08:15:56Z</time>
      </trkpt>
      <trkpt lat="44.50536" lon="5.80442">
        <ele>838.1</ele>
        <time>2023-09-28T08:15:57Z</time>
      </trkpt>
      <trkpt lat="44.5054" lon="5.80441">
        <ele>838.2</ele>
        <time>2023-09-28T08:15:58Z</time>
      </trkpt>
      <trkpt lat="44.50544" lon="5.80438">
        <ele>838.2</ele>
        <time>2023-09-28T08:15:59Z</time>
      </trkpt>
      <trkpt lat="44.50548" lon="5.80437">
        <ele>838.3</ele>
        <time>2023-09-28T08:16:00Z</time>
      </trkpt>
      <trkpt lat="44.50551" lon="5.80435">
        <ele>838.3</ele>
        <time>2023-09-28T08:16:01Z</time>
      </trkpt>
      <trkpt lat="44.50554" lon="5.80432">
        <ele>838.4</ele>
        <time>2023-09-28T08:16:02Z</time>
      </trkpt>
      <trkpt lat="44.50558" lon="5.80429">
        <ele>838.4</ele>
        <time>2023-09-28T08:16:04Z</time>
      </trkpt>
      <trkpt lat="44.50562" lon="5.80426">
        <ele>838.5</ele>
        <time>2023-09-28T08:16:05Z</time>
      </trkpt>
      <trkpt lat="44.50566" lon="5.80423">
        <ele>838.5</ele>
        <time>2023-09-28T08:16:06Z</time>
      </trkpt>
      <trkpt lat="44.50569" lon="5.8042">
        <ele>838.6</ele>
        <time>2023-09-28T08:16:07Z</time>
      </trkpt>
      <trkpt lat="44.50573" lon="5.80417">
        <ele>838.7</ele>
        <time>2023-09-28T08:16:08Z</time>
      </trkpt>
      <trkpt lat="44.50576" lon="5.80415">
        <ele>838.7</ele>
        <time>2023-09-28T08:16:09Z</time>
      </trkpt>
      <trkpt lat="44.5058" lon="5.80412">
        <ele>838.8</ele>
        <time>2023-09-28T08:16:10Z</time>
      </trkpt>
      <trkpt lat="44.50584" lon="5.80409">
        <ele>838.9</ele>
        <time>2023-09-28T08:16:12Z</time>
      </trkpt>
      <trkpt lat="44.50587" lon="5.80407">
        <ele>838.9</ele>
        <time>2023-09-28T08:16:13Z</time>
      </trkpt>
      <trkpt lat="44.5059" lon="5.80404">
        <ele>839</ele>
        <time>2023-09-28T08:16:14Z</time>
      </trkpt>
      <trkpt lat="44.50594" lon="5.80401">
        <ele>839.1</ele>
        <time>2023-09-28T08:16:15Z</time>
      </trkpt>
      <trkpt lat="44.50598" lon="5.80398">
        <ele>839.2</ele>
        <time>2023-09-28T08:16:16Z</time>
      </trkpt>
      <trkpt lat="44.506" lon="5.80396">
        <ele>839.2</ele>
        <time>2023-09-28T08:16:17Z</time>
      </trkpt>
      <trkpt lat="44.50602" lon="5.80393">
        <ele>839.3</ele>
        <time>2023-09-28T08:16:18Z</time>
      </trkpt>
      <trkpt lat="44.50606" lon="5.8039">
        <ele>839.3</ele>
        <time>2023-09-28T08:16:19Z</time>
      </trkpt>
      <trkpt lat="44.50609" lon="5.80388">
        <ele>839.4</ele>
        <time>2023-09-28T08:16:21Z</time>
      </trkpt>
      <trkpt lat="44.50613" lon="5.80387">
        <ele>839.3</ele>
        <time>2023-09-28T08:16:22Z</time>
      </trkpt>
      <trkpt lat="44.50617" lon="5.80386">
        <ele>839.2</ele>
        <time>2023-09-28T08:16:23Z</time>
      </trkpt>
      <trkpt lat="44.50622" lon="5.80386">
        <ele>839.1</ele>
        <time>2023-09-28T08:16:24Z</time>
      </trkpt>
      <trkpt lat="44.50626" lon="5.80386">
        <ele>839</ele>
        <time>2023-09-28T08:16:25Z</time>
      </trkpt>
      <trkpt lat="44.5063" lon="5.80389">
        <ele>838.8</ele>
        <time>2023-09-28T08:16:26Z</time>
      </trkpt>
      <trkpt lat="44.50636" lon="5.80392">
        <ele>838.6</ele>
        <time>2023-09-28T08:16:28Z</time>
      </trkpt>
      <trkpt lat="44.50639" lon="5.80395">
        <ele>838.5</ele>
        <time>2023-09-28T08:16:29Z</time>
      </trkpt>
      <trkpt lat="44.50642" lon="5.804">
        <ele>838.3</ele>
        <time>2023-09-28T08:16:30Z</time>
      </trkpt>
      <trkpt lat="44.50645" lon="5.80403">
        <ele>838</ele>
        <time>2023-09-28T08:16:31Z</time>
      </trkpt>
      <trkpt lat="44.50651" lon="5.8041">
        <ele>837.6</ele>
        <time>2023-09-28T08:16:32Z</time>
      </trkpt>
      <trkpt lat="44.50655" lon="5.80414">
        <ele>837.2</ele>
        <time>2023-09-28T08:16:33Z</time>
      </trkpt>
      <trkpt lat="44.50659" lon="5.80419">
        <ele>836.8</ele>
        <time>2023-09-28T08:16:34Z</time>
      </trkpt>
      <trkpt lat="44.50664" lon="5.80424">
        <ele>836.4</ele>
        <time>2023-09-28T08:16:35Z</time>
      </trkpt>
      <trkpt lat="44.50669" lon="5.8043">
        <ele>836</ele>
        <time>2023-09-28T08:16:36Z</time>
      </trkpt>
      <trkpt lat="44.50674" lon="5.80435">
        <ele>835.6</ele>
        <time>2023-09-28T08:16:37Z</time>
      </trkpt>
      <trkpt lat="44.5068" lon="5.80442">
        <ele>835.2</ele>
        <time>2023-09-28T08:16:38Z</time>
      </trkpt>
      <trkpt lat="44.50685" lon="5.80448">
        <ele>834.8</ele>
        <time>2023-09-28T08:16:39Z</time>
      </trkpt>
      <trkpt lat="44.50692" lon="5.80455">
        <ele>834.5</ele>
        <time>2023-09-28T08:16:40Z</time>
      </trkpt>
      <trkpt lat="44.50699" lon="5.80459">
        <ele>834.1</ele>
        <time>2023-09-28T08:16:41Z</time>
      </trkpt>
      <trkpt lat="44.50706" lon="5.80463">
        <ele>833.8</ele>
        <time>2023-09-28T08:16:42Z</time>
      </trkpt>
      <trkpt lat="44.50714" lon="5.80465">
        <ele>833.5</ele>
        <time>2023-09-28T08:16:43Z</time>
      </trkpt>
      <trkpt lat="44.50721" lon="5.80467">
        <ele>833.2</ele>
        <time>2023-09-28T08:16:44Z</time>
      </trkpt>
      <trkpt lat="44.50729" lon="5.80469">
        <ele>833</ele>
        <time>2023-09-28T08:16:45Z</time>
      </trkpt>
      <trkpt lat="44.50737" lon="5.8047">
        <ele>832.9</ele>
        <time>2023-09-28T08:16:46Z</time>
      </trkpt>
      <trkpt lat="44.50745" lon="5.80471">
        <ele>832.8</ele>
        <time>2023-09-28T08:16:47Z</time>
      </trkpt>
      <trkpt lat="44.50752" lon="5.8047">
        <ele>832.6</ele>
        <time>2023-09-28T08:16:48Z</time>
      </trkpt>
      <trkpt lat="44.50758" lon="5.80467">
        <ele>832.2</ele>
        <time>2023-09-28T08:16:49Z</time>
      </trkpt>
      <trkpt lat="44.50765" lon="5.80462">
        <ele>831.9</ele>
        <time>2023-09-28T08:16:50Z</time>
      </trkpt>
      <trkpt lat="44.50771" lon="5.80457">
        <ele>831.6</ele>
        <time>2023-09-28T08:16:51Z</time>
      </trkpt>
      <trkpt lat="44.50777" lon="5.80451">
        <ele>831.2</ele>
        <time>2023-09-28T08:16:52Z</time>
      </trkpt>
      <trkpt lat="44.50782" lon="5.80446">
        <ele>830.9</ele>
        <time>2023-09-28T08:16:53Z</time>
      </trkpt>
      <trkpt lat="44.50788" lon="5.80441">
        <ele>830.6</ele>
        <time>2023-09-28T08:16:54Z</time>
      </trkpt>
      <trkpt lat="44.50792" lon="5.80436">
        <ele>830.4</ele>
        <time>2023-09-28T08:16:55Z</time>
      </trkpt>
      <trkpt lat="44.50798" lon="5.80431">
        <ele>830.1</ele>
        <time>2023-09-28T08:16:56Z</time>
      </trkpt>
      <trkpt lat="44.50803" lon="5.80427">
        <ele>829.8</ele>
        <time>2023-09-28T08:16:57Z</time>
      </trkpt>
      <trkpt lat="44.50809" lon="5.80424">
        <ele>829.6</ele>
        <time>2023-09-28T08:16:58Z</time>
      </trkpt>
      <trkpt lat="44.50815" lon="5.80421">
        <ele>829.3</ele>
        <time>2023-09-28T08:16:59Z</time>
      </trkpt>
      <trkpt lat="44.50822" lon="5.8042">
        <ele>829</ele>
        <time>2023-09-28T08:17:00Z</time>
      </trkpt>
      <trkpt lat="44.50828" lon="5.80421">
        <ele>828.7</ele>
        <time>2023-09-28T08:17:01Z</time>
      </trkpt>
      <trkpt lat="44.50835" lon="5.80424">
        <ele>828.4</ele>
        <time>2023-09-28T08:17:02Z</time>
      </trkpt>
      <trkpt lat="44.50842" lon="5.80426">
        <ele>828.1</ele>
        <time>2023-09-28T08:17:03Z</time>
      </trkpt>
      <trkpt lat="44.50848" lon="5.8043">
        <ele>827.9</ele>
        <time>2023-09-28T08:17:04Z</time>
      </trkpt>
      <trkpt lat="44.50854" lon="5.80433">
        <ele>827.7</ele>
        <time>2023-09-28T08:17:05Z</time>
      </trkpt>
      <trkpt lat="44.5086" lon="5.80438">
        <ele>827.6</ele>
        <time>2023-09-28T08:17:06Z</time>
      </trkpt>
      <trkpt lat="44.50865" lon="5.80442">
        <ele>827.5</ele>
        <time>2023-09-28T08:17:07Z</time>
      </trkpt>
      <trkpt lat="44.50871" lon="5.80446">
        <ele>827.5</ele>
        <time>2023-09-28T08:17:08Z</time>
      </trkpt>
      <trkpt lat="44.50876" lon="5.80451">
        <ele>827.4</ele>
        <time>2023-09-28T08:17:09Z</time>
      </trkpt>
      <trkpt lat="44.50881" lon="5.80456">
        <ele>827.4</ele>
        <time>2023-09-28T08:17:10Z</time>
      </trkpt>
      <trkpt lat="44.50885" lon="5.80461">
        <ele>827.4</ele>
        <time>2023-09-28T08:17:11Z</time>
      </trkpt>
      <trkpt lat="44.5089" lon="5.80466">
        <ele>827.4</ele>
        <time>2023-09-28T08:17:12Z</time>
      </trkpt>
      <trkpt lat="44.50894" lon="5.80471">
        <ele>827.4</ele>
        <time>2023-09-28T08:17:13Z</time>
      </trkpt>
      <trkpt lat="44.50899" lon="5.80476">
        <ele>827.5</ele>
        <time>2023-09-28T08:17:14Z</time>
      </trkpt>
      <trkpt lat="44.50903" lon="5.80481">
        <ele>827.5</ele>
        <time>2023-09-28T08:17:15Z</time>
      </trkpt>
      <trkpt lat="44.50907" lon="5.80486">
        <ele>827.5</ele>
        <time>2023-09-28T08:17:16Z</time>
      </trkpt>
      <trkpt lat="44.50911" lon="5.80491">
        <ele>827.6</ele>
        <time>2023-09-28T08:17:17Z</time>
      </trkpt>
      <trkpt lat="44.50915" lon="5.80496">
        <ele>827.6</ele>
        <time>2023-09-28T08:17:18Z</time>
      </trkpt>
      <trkpt lat="44.50919" lon="5.80501">
        <ele>827.7</ele>
        <time>2023-09-28T08:17:19Z</time>
      </trkpt>
      <trkpt lat="44.50923" lon="5.80506">
        <ele>827.7</ele>
        <time>2023-09-28T08:17:20Z</time>
      </trkpt>
      <trkpt lat="44.50928" lon="5.80511">
        <ele>827.7</ele>
        <time>2023-09-28T08:17:21Z</time>
      </trkpt>
      <trkpt lat="44.50932" lon="5.80517">
        <ele>827.6</ele>
        <time>2023-09-28T08:17:22Z</time>
      </trkpt>
      <trkpt lat="44.50936" lon="5.80523">
        <ele>827.5</ele>
        <time>2023-09-28T08:17:23Z</time>
      </trkpt>
      <trkpt lat="44.5094" lon="5.80528">
        <ele>827.5</ele>
        <time>2023-09-28T08:17:24Z</time>
      </trkpt>
      <trkpt lat="44.50944" lon="5.80532">
        <ele>827.5</ele>
        <time>2023-09-28T08:17:25Z</time>
      </trkpt>
      <trkpt lat="44.50948" lon="5.80537">
        <ele>827.6</ele>
        <time>2023-09-28T08:17:26Z</time>
      </trkpt>
      <trkpt lat="44.50952" lon="5.80542">
        <ele>827.6</ele>
        <time>2023-09-28T08:17:27Z</time>
      </trkpt>
      <trkpt lat="44.50956" lon="5.80547">
        <ele>827.7</ele>
        <time>2023-09-28T08:17:28Z</time>
      </trkpt>
      <trkpt lat="44.5096" lon="5.80552">
        <ele>827.8</ele>
        <time>2023-09-28T08:17:29Z</time>
      </trkpt>
      <trkpt lat="44.50963" lon="5.80557">
        <ele>827.9</ele>
        <time>2023-09-28T08:17:30Z</time>
      </trkpt>
      <trkpt lat="44.50967" lon="5.80562">
        <ele>828</ele>
        <time>2023-09-28T08:17:31Z</time>
      </trkpt>
      <trkpt lat="44.5097" lon="5.80567">
        <ele>828.1</ele>
        <time>2023-09-28T08:17:32Z</time>
      </trkpt>
      <trkpt lat="44.50974" lon="5.80571">
        <ele>828.3</ele>
        <time>2023-09-28T08:17:33Z</time>
      </trkpt>
      <trkpt lat="44.50978" lon="5.80576">
        <ele>828.4</ele>
        <time>2023-09-28T08:17:34Z</time>
      </trkpt>
      <trkpt lat="44.50981" lon="5.80581">
        <ele>828.5</ele>
        <time>2023-09-28T08:17:35Z</time>
      </trkpt>
      <trkpt lat="44.50985" lon="5.80585">
        <ele>828.7</ele>
        <time>2023-09-28T08:17:36Z</time>
      </trkpt>
      <trkpt lat="44.50988" lon="5.8059">
        <ele>828.8</ele>
        <time>2023-09-28T08:17:37Z</time>
      </trkpt>
      <trkpt lat="44.50991" lon="5.80594">
        <ele>829</ele>
        <time>2023-09-28T08:17:38Z</time>
      </trkpt>
      <trkpt lat="44.50995" lon="5.80598">
        <ele>829.2</ele>
        <time>2023-09-28T08:17:39Z</time>
      </trkpt>
      <trkpt lat="44.50998" lon="5.80603">
        <ele>829.3</ele>
        <time>2023-09-28T08:17:40Z</time>
      </trkpt>
      <trkpt lat="44.51001" lon="5.80607">
        <ele>829.5</ele>
        <time>2023-09-28T08:17:41Z</time>
      </trkpt>
      <trkpt lat="44.51004" lon="5.80611">
        <ele>829.7</ele>
        <time>2023-09-28T08:17:42Z</time>
      </trkpt>
      <trkpt lat="44.51007" lon="5.80614">
        <ele>829.9</ele>
        <time>2023-09-28T08:17:43Z</time>
      </trkpt>
      <trkpt lat="44.5101" lon="5.80618">
        <ele>830</ele>
        <time>2023-09-28T08:17:44Z</time>
      </trkpt>
      <trkpt lat="44.51012" lon="5.80622">
        <ele>830.2</ele>
        <time>2023-09-28T08:17:45Z</time>
      </trkpt>
      <trkpt lat="44.51015" lon="5.80625">
        <ele>830.3</ele>
        <time>2023-09-28T08:17:46Z</time>
      </trkpt>
      <trkpt lat="44.51018" lon="5.80631">
        <ele>830.5</ele>
        <time>2023-09-28T08:17:48Z</time>
      </trkpt>
      <trkpt lat="44.51023" lon="5.80635">
        <ele>830.7</ele>
        <time>2023-09-28T08:17:49Z</time>
      </trkpt>
      <trkpt lat="44.51026" lon="5.80639">
        <ele>830.8</ele>
        <time>2023-09-28T08:17:50Z</time>
      </trkpt>
      <trkpt lat="44.51029" lon="5.80643">
        <ele>831</ele>
        <time>2023-09-28T08:17:51Z</time>
      </trkpt>
      <trkpt lat="44.51032" lon="5.80648">
        <ele>831.1</ele>
        <time>2023-09-28T08:17:53Z</time>
      </trkpt>
      <trkpt lat="44.51035" lon="5.80652">
        <ele>831.3</ele>
        <time>2023-09-28T08:17:54Z</time>
      </trkpt>
      <trkpt lat="44.51038" lon="5.80656">
        <ele>831.5</ele>
        <time>2023-09-28T08:17:55Z</time>
      </trkpt>
      <trkpt lat="44.51041" lon="5.80661">
        <ele>831.7</ele>
        <time>2023-09-28T08:17:56Z</time>
      </trkpt>
      <trkpt lat="44.51043" lon="5.80667">
        <ele>831.9</ele>
        <time>2023-09-28T08:17:57Z</time>
      </trkpt>
      <trkpt lat="44.51045" lon="5.80672">
        <ele>832</ele>
        <time>2023-09-28T08:17:58Z</time>
      </trkpt>
      <trkpt lat="44.51047" lon="5.80677">
        <ele>832.2</ele>
        <time>2023-09-28T08:17:59Z</time>
      </trkpt>
      <trkpt lat="44.51049" lon="5.80683">
        <ele>832.4</ele>
        <time>2023-09-28T08:18:01Z</time>
      </trkpt>
      <trkpt lat="44.51051" lon="5.80687">
        <ele>832.6</ele>
        <time>2023-09-28T08:18:02Z</time>
      </trkpt>
      <trkpt lat="44.51054" lon="5.80694">
        <ele>832.8</ele>
        <time>2023-09-28T08:18:03Z</time>
      </trkpt>
      <trkpt lat="44.51056" lon="5.80699">
        <ele>832.9</ele>
        <time>2023-09-28T08:18:04Z</time>
      </trkpt>
      <trkpt lat="44.51058" lon="5.80703">
        <ele>833.1</ele>
        <time>2023-09-28T08:18:05Z</time>
      </trkpt>
      <trkpt lat="44.51062" lon="5.80707">
        <ele>833.2</ele>
        <time>2023-09-28T08:18:07Z</time>
      </trkpt>
      <trkpt lat="44.51067" lon="5.80709">
        <ele>833.4</ele>
        <time>2023-09-28T08:18:08Z</time>
      </trkpt>
      <trkpt lat="44.51071" lon="5.80711">
        <ele>833.4</ele>
        <time>2023-09-28T08:18:09Z</time>
      </trkpt>
      <trkpt lat="44.51076" lon="5.80712">
        <ele>833.5</ele>
        <time>2023-09-28T08:18:10Z</time>
      </trkpt>
      <trkpt lat="44.51081" lon="5.80712">
        <ele>833.6</ele>
        <time>2023-09-28T08:18:12Z</time>
      </trkpt>
      <trkpt lat="44.51085" lon="5.80713">
        <ele>833.7</ele>
        <time>2023-09-28T08:18:13Z</time>
      </trkpt>
      <trkpt lat="44.51091" lon="5.80712">
        <ele>833.8</ele>
        <time>2023-09-28T08:18:14Z</time>
      </trkpt>
      <trkpt lat="44.51096" lon="5.80712">
        <ele>833.9</ele>
        <time>2023-09-28T08:18:15Z</time>
      </trkpt>
      <trkpt lat="44.51101" lon="5.80713">
        <ele>834</ele>
        <time>2023-09-28T08:18:16Z</time>
      </trkpt>
      <trkpt lat="44.5111" lon="5.80714">
        <ele>834.1</ele>
        <time>2023-09-28T08:18:18Z</time>
      </trkpt>
      <trkpt lat="44.51115" lon="5.80714">
        <ele>834.2</ele>
        <time>2023-09-28T08:18:20Z</time>
      </trkpt>
      <trkpt lat="44.5112" lon="5.80715">
        <ele>834.3</ele>
        <time>2023-09-28T08:18:21Z</time>
      </trkpt>
      <trkpt lat="44.51125" lon="5.80715">
        <ele>834.5</ele>
        <time>2023-09-28T08:18:22Z</time>
      </trkpt>
      <trkpt lat="44.51129" lon="5.80715">
        <ele>834.6</ele>
        <time>2023-09-28T08:18:23Z</time>
      </trkpt>
      <trkpt lat="44.51134" lon="5.80716">
        <ele>834.7</ele>
        <time>2023-09-28T08:18:24Z</time>
      </trkpt>
      <trkpt lat="44.51138" lon="5.80716">
        <ele>834.9</ele>
        <time>2023-09-28T08:18:25Z</time>
      </trkpt>
      <trkpt lat="44.51142" lon="5.80717">
        <ele>835</ele>
        <time>2023-09-28T08:18:26Z</time>
      </trkpt>
      <trkpt lat="44.51149" lon="5.80718">
        <ele>835.3</ele>
        <time>2023-09-28T08:18:28Z</time>
      </trkpt>
      <trkpt lat="44.51153" lon="5.80719">
        <ele>835.4</ele>
        <time>2023-09-28T08:18:29Z</time>
      </trkpt>
      <trkpt lat="44.51157" lon="5.8072">
        <ele>835.6</ele>
        <time>2023-09-28T08:18:30Z</time>
      </trkpt>
      <trkpt lat="44.51162" lon="5.80722">
        <ele>835.8</ele>
        <time>2023-09-28T08:18:32Z</time>
      </trkpt>
      <trkpt lat="44.51166" lon="5.80724">
        <ele>836</ele>
        <time>2023-09-28T08:18:33Z</time>
      </trkpt>
      <trkpt lat="44.5117" lon="5.80727">
        <ele>836.2</ele>
        <time>2023-09-28T08:18:34Z</time>
      </trkpt>
      <trkpt lat="44.51174" lon="5.8073">
        <ele>836.3</ele>
        <time>2023-09-28T08:18:35Z</time>
      </trkpt>
      <trkpt lat="44.51176" lon="5.80733">
        <ele>836.5</ele>
        <time>2023-09-28T08:18:36Z</time>
      </trkpt>
      <trkpt lat="44.51179" lon="5.80737">
        <ele>836.6</ele>
        <time>2023-09-28T08:18:37Z</time>
      </trkpt>
      <trkpt lat="44.51181" lon="5.80741">
        <ele>836.7</ele>
        <time>2023-09-28T08:18:38Z</time>
      </trkpt>
      <trkpt lat="44.51184" lon="5.80746">
        <ele>836.8</ele>
        <time>2023-09-28T08:18:40Z</time>
      </trkpt>
      <trkpt lat="44.51186" lon="5.80751">
        <ele>836.8</ele>
        <time>2023-09-28T08:18:41Z</time>
      </trkpt>
      <trkpt lat="44.51188" lon="5.80756">
        <ele>836.9</ele>
        <time>2023-09-28T08:18:42Z</time>
      </trkpt>
      <trkpt lat="44.51189" lon="5.8076">
        <ele>836.9</ele>
        <time>2023-09-28T08:18:43Z</time>
      </trkpt>
      <trkpt lat="44.51191" lon="5.80765">
        <ele>836.8</ele>
        <time>2023-09-28T08:18:44Z</time>
      </trkpt>
      <trkpt lat="44.51192" lon="5.80771">
        <ele>836.7</ele>
        <time>2023-09-28T08:18:45Z</time>
      </trkpt>
      <trkpt lat="44.51193" lon="5.80775">
        <ele>836.6</ele>
        <time>2023-09-28T08:18:46Z</time>
      </trkpt>
      <trkpt lat="44.51195" lon="5.8078">
        <ele>836.5</ele>
        <time>2023-09-28T08:18:47Z</time>
      </trkpt>
      <trkpt lat="44.51198" lon="5.80792">
        <ele>836.1</ele>
        <time>2023-09-28T08:18:49Z</time>
      </trkpt>
      <trkpt lat="44.51202" lon="5.80803">
        <ele>835.7</ele>
        <time>2023-09-28T08:18:51Z</time>
      </trkpt>
      <trkpt lat="44.51204" lon="5.80808">
        <ele>835.5</ele>
        <time>2023-09-28T08:18:52Z</time>
      </trkpt>
      <trkpt lat="44.51206" lon="5.80813">
        <ele>835.2</ele>
        <time>2023-09-28T08:18:54Z</time>
      </trkpt>
      <trkpt lat="44.51208" lon="5.8082">
        <ele>835</ele>
        <time>2023-09-28T08:18:55Z</time>
      </trkpt>
      <trkpt lat="44.5121" lon="5.80825">
        <ele>834.7</ele>
        <time>2023-09-28T08:18:56Z</time>
      </trkpt>
      <trkpt lat="44.51211" lon="5.80827">
        <ele>834.6</ele>
        <time>2023-09-28T08:18:57Z</time>
      </trkpt>
      <trkpt lat="44.51213" lon="5.80831">
        <ele>834.5</ele>
        <time>2023-09-28T08:18:58Z</time>
      </trkpt>
      <trkpt lat="44.51215" lon="5.80834">
        <ele>834.3</ele>
        <time>2023-09-28T08:18:59Z</time>
      </trkpt>
      <trkpt lat="44.51216" lon="5.80835">
        <ele>834.2</ele>
        <time>2023-09-28T08:19:00Z</time>
      </trkpt>
      <trkpt lat="44.51217" lon="5.80835">
        <ele>834.2</ele>
        <time>2023-09-28T08:19:02Z</time>
      </trkpt>
      <trkpt lat="44.51218" lon="5.80834">
        <ele>834.1</ele>
        <time>2023-09-28T08:19:03Z</time>
      </trkpt>
      <trkpt lat="44.51219" lon="5.80834">
        <ele>834.1</ele>
        <time>2023-09-28T08:19:04Z</time>
      </trkpt>
      <trkpt lat="44.5122" lon="5.80833">
        <ele>834</ele>
        <time>2023-09-28T08:19:05Z</time>
      </trkpt>
      <trkpt lat="44.5122" lon="5.80833">
        <ele>833.9</ele>
        <time>2023-09-28T08:19:07Z</time>
      </trkpt>
      <trkpt lat="44.51221" lon="5.80832">
        <ele>833.9</ele>
        <time>2023-09-28T08:19:08Z</time>
      </trkpt>
      <trkpt lat="44.51222" lon="5.80832">
        <ele>833.8</ele>
        <time>2023-09-28T08:19:10Z</time>
      </trkpt>
      <trkpt lat="44.51223" lon="5.80831">
        <ele>833.7</ele>
        <time>2023-09-28T08:19:43Z</time>
      </trkpt>
      <trkpt lat="44.51224" lon="5.80831">
        <ele>833.7</ele>
        <time>2023-09-28T08:19:44Z</time>
      </trkpt>
      <trkpt lat="44.51227" lon="5.80828">
        <ele>833.5</ele>
        <time>2023-09-28T08:19:45Z</time>
      </trkpt>
      <trkpt lat="44.5123" lon="5.80824">
        <ele>833.2</ele>
        <time>2023-09-28T08:19:46Z</time>
      </trkpt>
      <trkpt lat="44.51233" lon="5.80819">
        <ele>832.9</ele>
        <time>2023-09-28T08:19:47Z</time>
      </trkpt>
      <trkpt lat="44.51237" lon="5.80815">
        <ele>832.6</ele>
        <time>2023-09-28T08:19:48Z</time>
      </trkpt>
      <trkpt lat="44.51241" lon="5.80809">
        <ele>832.3</ele>
        <time>2023-09-28T08:19:49Z</time>
      </trkpt>
      <trkpt lat="44.51246" lon="5.80804">
        <ele>831.9</ele>
        <time>2023-09-28T08:19:50Z</time>
      </trkpt>
      <trkpt lat="44.51251" lon="5.80799">
        <ele>831.5</ele>
        <time>2023-09-28T08:19:51Z</time>
      </trkpt>
      <trkpt lat="44.51256" lon="5.80795">
        <ele>831.1</ele>
        <time>2023-09-28T08:19:52Z</time>
      </trkpt>
      <trkpt lat="44.51262" lon="5.8079">
        <ele>830.6</ele>
        <time>2023-09-28T08:19:53Z</time>
      </trkpt>
      <trkpt lat="44.51268" lon="5.80785">
        <ele>830.1</ele>
        <time>2023-09-28T08:19:54Z</time>
      </trkpt>
      <trkpt lat="44.51275" lon="5.8078">
        <ele>829.5</ele>
        <time>2023-09-28T08:19:55Z</time>
      </trkpt>
      <trkpt lat="44.51282" lon="5.80775">
        <ele>829</ele>
        <time>2023-09-28T08:19:56Z</time>
      </trkpt>
      <trkpt lat="44.51289" lon="5.8077">
        <ele>828.5</ele>
        <time>2023-09-28T08:19:57Z</time>
      </trkpt>
      <trkpt lat="44.51297" lon="5.80765">
        <ele>828</ele>
        <time>2023-09-28T08:19:58Z</time>
      </trkpt>
      <trkpt lat="44.51304" lon="5.8076">
        <ele>827.5</ele>
        <time>2023-09-28T08:19:59Z</time>
      </trkpt>
      <trkpt lat="44.51312" lon="5.80755">
        <ele>827</ele>
        <time>2023-09-28T08:20:00Z</time>
      </trkpt>
      <trkpt lat="44.51319" lon="5.80752">
        <ele>826.6</ele>
        <time>2023-09-28T08:20:01Z</time>
      </trkpt>
      <trkpt lat="44.51326" lon="5.80747">
        <ele>826.2</ele>
        <time>2023-09-28T08:20:02Z</time>
      </trkpt>
      <trkpt lat="44.51333" lon="5.80742">
        <ele>825.7</ele>
        <time>2023-09-28T08:20:03Z</time>
      </trkpt>
      <trkpt lat="44.51341" lon="5.80737">
        <ele>825.1</ele>
        <time>2023-09-28T08:20:04Z</time>
      </trkpt>
      <trkpt lat="44.51348" lon="5.80731">
        <ele>824.5</ele>
        <time>2023-09-28T08:20:05Z</time>
      </trkpt>
      <trkpt lat="44.51355" lon="5.80726">
        <ele>823.9</ele>
        <time>2023-09-28T08:20:06Z</time>
      </trkpt>
      <trkpt lat="44.51361" lon="5.80722">
        <ele>823.4</ele>
        <time>2023-09-28T08:20:07Z</time>
      </trkpt>
      <trkpt lat="44.51367" lon="5.80717">
        <ele>823.1</ele>
        <time>2023-09-28T08:20:08Z</time>
      </trkpt>
      <trkpt lat="44.51373" lon="5.80713">
        <ele>822.7</ele>
        <time>2023-09-28T08:20:09Z</time>
      </trkpt>
      <trkpt lat="44.51378" lon="5.8071">
        <ele>822.5</ele>
        <time>2023-09-28T08:20:10Z</time>
      </trkpt>
      <trkpt lat="44.51383" lon="5.80706">
        <ele>822.2</ele>
        <time>2023-09-28T08:20:11Z</time>
      </trkpt>
      <trkpt lat="44.51389" lon="5.80704">
        <ele>822</ele>
        <time>2023-09-28T08:20:12Z</time>
      </trkpt>
      <trkpt lat="44.51394" lon="5.80704">
        <ele>821.8</ele>
        <time>2023-09-28T08:20:13Z</time>
      </trkpt>
      <trkpt lat="44.51399" lon="5.80706">
        <ele>821.8</ele>
        <time>2023-09-28T08:20:14Z</time>
      </trkpt>
      <trkpt lat="44.51403" lon="5.80711">
        <ele>821.8</ele>
        <time>2023-09-28T08:20:15Z</time>
      </trkpt>
      <trkpt lat="44.51406" lon="5.80718">
        <ele>821.7</ele>
        <time>2023-09-28T08:20:16Z</time>
      </trkpt>
      <trkpt lat="44.51408" lon="5.80725">
        <ele>821.7</ele>
        <time>2023-09-28T08:20:17Z</time>
      </trkpt>
      <trkpt lat="44.51411" lon="5.80731">
        <ele>821.6</ele>
        <time>2023-09-28T08:20:18Z</time>
      </trkpt>
      <trkpt lat="44.51413" lon="5.80738">
        <ele>821.6</ele>
        <time>2023-09-28T08:20:19Z</time>
      </trkpt>
      <trkpt lat="44.51416" lon="5.80744">
        <ele>821.6</ele>
        <time>2023-09-28T08:20:20Z</time>
      </trkpt>
      <trkpt lat="44.51419" lon="5.80749">
        <ele>821.6</ele>
        <time>2023-09-28T08:20:21Z</time>
      </trkpt>
      <trkpt lat="44.51422" lon="5.80754">
        <ele>821.5</ele>
        <time>2023-09-28T08:20:22Z</time>
      </trkpt>
      <trkpt lat="44.51426" lon="5.80758">
        <ele>821.5</ele>
        <time>2023-09-28T08:20:23Z</time>
      </trkpt>
      <trkpt lat="44.5143" lon="5.8076">
        <ele>821.5</ele>
        <time>2023-09-28T08:20:24Z</time>
      </trkpt>
      <trkpt lat="44.51435" lon="5.80762">
        <ele>821.5</ele>
        <time>2023-09-28T08:20:25Z</time>
      </trkpt>
      <trkpt lat="44.5144" lon="5.80763">
        <ele>821.4</ele>
        <time>2023-09-28T08:20:26Z</time>
      </trkpt>
      <trkpt lat="44.51444" lon="5.80763">
        <ele>821.4</ele>
        <time>2023-09-28T08:20:27Z</time>
      </trkpt>
      <trkpt lat="44.51449" lon="5.80762">
        <ele>821.4</ele>
        <time>2023-09-28T08:20:28Z</time>
      </trkpt>
      <trkpt lat="44.51453" lon="5.80762">
        <ele>821.3</ele>
        <time>2023-09-28T08:20:29Z</time>
      </trkpt>
      <trkpt lat="44.51458" lon="5.8076">
        <ele>821.3</ele>
        <time>2023-09-28T08:20:30Z</time>
      </trkpt>
      <trkpt lat="44.51462" lon="5.8076">
        <ele>821.2</ele>
        <time>2023-09-28T08:20:31Z</time>
      </trkpt>
      <trkpt lat="44.51467" lon="5.80759">
        <ele>821.2</ele>
        <time>2023-09-28T08:20:32Z</time>
      </trkpt>
      <trkpt lat="44.51472" lon="5.80757">
        <ele>821.2</ele>
        <time>2023-09-28T08:20:33Z</time>
      </trkpt>
      <trkpt lat="44.51477" lon="5.80756">
        <ele>821.2</ele>
        <time>2023-09-28T08:20:34Z</time>
      </trkpt>
      <trkpt lat="44.51482" lon="5.80756">
        <ele>821.2</ele>
        <time>2023-09-28T08:20:35Z</time>
      </trkpt>
      <trkpt lat="44.51487" lon="5.80756">
        <ele>821.2</ele>
        <time>2023-09-28T08:20:36Z</time>
      </trkpt>
      <trkpt lat="44.51492" lon="5.80757">
        <ele>821.3</ele>
        <time>2023-09-28T08:20:37Z</time>
      </trkpt>
      <trkpt lat="44.51497" lon="5.80758">
        <ele>821.3</ele>
        <time>2023-09-28T08:20:38Z</time>
      </trkpt>
      <trkpt lat="44.51501" lon="5.80761">
        <ele>821.3</ele>
        <time>2023-09-28T08:20:39Z</time>
      </trkpt>
      <trkpt lat="44.51504" lon="5.80763">
        <ele>821.3</ele>
        <time>2023-09-28T08:20:40Z</time>
      </trkpt>
      <trkpt lat="44.51506" lon="5.80765">
        <ele>821.4</ele>
        <time>2023-09-28T08:20:41Z</time>
      </trkpt>
      <trkpt lat="44.51507" lon="5.80766">
        <ele>821.4</ele>
        <time>2023-09-28T08:20:42Z</time>
      </trkpt>
      <trkpt lat="44.51509" lon="5.80768">
        <ele>821.4</ele>
        <time>2023-09-28T08:20:43Z</time>
      </trkpt>
      <trkpt lat="44.5151" lon="5.80769">
        <ele>821.4</ele>
        <time>2023-09-28T08:20:44Z</time>
      </trkpt>
      <trkpt lat="44.51511" lon="5.8077">
        <ele>821.4</ele>
        <time>2023-09-28T08:20:45Z</time>
      </trkpt>
      <trkpt lat="44.51512" lon="5.80772">
        <ele>821.4</ele>
        <time>2023-09-28T08:20:46Z</time>
      </trkpt>
      <trkpt lat="44.51515" lon="5.80772">
        <ele>821.5</ele>
        <time>2023-09-28T08:20:47Z</time>
      </trkpt>
      <trkpt lat="44.51516" lon="5.80773">
        <ele>821.5</ele>
        <time>2023-09-28T08:20:49Z</time>
      </trkpt>
      <trkpt lat="44.51517" lon="5.80773">
        <ele>821.5</ele>
        <time>2023-09-28T08:20:50Z</time>
      </trkpt>
      <trkpt lat="44.5152" lon="5.80776">
        <ele>821.5</ele>
        <time>2023-09-28T08:20:51Z</time>
      </trkpt>
      <trkpt lat="44.5152" lon="5.80777">
        <ele>821.5</ele>
        <time>2023-09-28T08:20:52Z</time>
      </trkpt>
      <trkpt lat="44.51521" lon="5.80779">
        <ele>821.5</ele>
        <time>2023-09-28T08:20:53Z</time>
      </trkpt>
      <trkpt lat="44.51522" lon="5.80781">
        <ele>821.6</ele>
        <time>2023-09-28T08:20:54Z</time>
      </trkpt>
      <trkpt lat="44.51524" lon="5.80784">
        <ele>821.6</ele>
        <time>2023-09-28T08:20:55Z</time>
      </trkpt>
      <trkpt lat="44.51525" lon="5.80785">
        <ele>821.6</ele>
        <time>2023-09-28T08:20:56Z</time>
      </trkpt>
      <trkpt lat="44.51527" lon="5.80789">
        <ele>821.7</ele>
        <time>2023-09-28T08:20:58Z</time>
      </trkpt>
      <trkpt lat="44.51528" lon="5.8079">
        <ele>821.7</ele>
        <time>2023-09-28T08:20:59Z</time>
      </trkpt>
      <trkpt lat="44.5153" lon="5.80792">
        <ele>821.7</ele>
        <time>2023-09-28T08:21:00Z</time>
      </trkpt>
      <trkpt lat="44.51533" lon="5.80796">
        <ele>821.8</ele>
        <time>2023-09-28T08:21:01Z</time>
      </trkpt>
      <trkpt lat="44.51534" lon="5.80798">
        <ele>821.8</ele>
        <time>2023-09-28T08:21:02Z</time>
      </trkpt>
      <trkpt lat="44.51536" lon="5.80801">
        <ele>821.9</ele>
        <time>2023-09-28T08:21:03Z</time>
      </trkpt>
      <trkpt lat="44.51539" lon="5.80805">
        <ele>822</ele>
        <time>2023-09-28T08:21:04Z</time>
      </trkpt>
      <trkpt lat="44.51543" lon="5.80809">
        <ele>822.1</ele>
        <time>2023-09-28T08:21:06Z</time>
      </trkpt>
      <trkpt lat="44.51546" lon="5.80812">
        <ele>822.2</ele>
        <time>2023-09-28T08:21:07Z</time>
      </trkpt>
      <trkpt lat="44.51549" lon="5.80815">
        <ele>822.2</ele>
        <time>2023-09-28T08:21:08Z</time>
      </trkpt>
      <trkpt lat="44.51553" lon="5.80818">
        <ele>822.3</ele>
        <time>2023-09-28T08:21:09Z</time>
      </trkpt>
      <trkpt lat="44.51556" lon="5.80821">
        <ele>822.4</ele>
        <time>2023-09-28T08:21:10Z</time>
      </trkpt>
      <trkpt lat="44.51559" lon="5.80824">
        <ele>822.4</ele>
        <time>2023-09-28T08:21:11Z</time>
      </trkpt>
      <trkpt lat="44.51563" lon="5.80827">
        <ele>822.5</ele>
        <time>2023-09-28T08:21:12Z</time>
      </trkpt>
      <trkpt lat="44.51567" lon="5.8083">
        <ele>822.6</ele>
        <time>2023-09-28T08:21:13Z</time>
      </trkpt>
      <trkpt lat="44.51571" lon="5.80833">
        <ele>822.6</ele>
        <time>2023-09-28T08:21:15Z</time>
      </trkpt>
      <trkpt lat="44.51574" lon="5.80836">
        <ele>822.7</ele>
        <time>2023-09-28T08:21:16Z</time>
      </trkpt>
      <trkpt lat="44.51578" lon="5.80839">
        <ele>822.8</ele>
        <time>2023-09-28T08:21:17Z</time>
      </trkpt>
      <trkpt lat="44.51582" lon="5.80842">
        <ele>822.9</ele>
        <time>2023-09-28T08:21:18Z</time>
      </trkpt>
      <trkpt lat="44.51586" lon="5.80846">
        <ele>823</ele>
        <time>2023-09-28T08:21:19Z</time>
      </trkpt>
      <trkpt lat="44.5159" lon="5.80849">
        <ele>823.1</ele>
        <time>2023-09-28T08:21:20Z</time>
      </trkpt>
      <trkpt lat="44.51594" lon="5.80852">
        <ele>823.2</ele>
        <time>2023-09-28T08:21:21Z</time>
      </trkpt>
      <trkpt lat="44.51598" lon="5.80855">
        <ele>823.3</ele>
        <time>2023-09-28T08:21:23Z</time>
      </trkpt>
      <trkpt lat="44.51602" lon="5.80859">
        <ele>823.4</ele>
        <time>2023-09-28T08:21:24Z</time>
      </trkpt>
      <trkpt lat="44.51605" lon="5.80862">
        <ele>823.4</ele>
        <time>2023-09-28T08:21:25Z</time>
      </trkpt>
      <trkpt lat="44.51609" lon="5.80867">
        <ele>823.5</ele>
        <time>2023-09-28T08:21:26Z</time>
      </trkpt>
      <trkpt lat="44.51611" lon="5.8087">
        <ele>823.6</ele>
        <time>2023-09-28T08:21:27Z</time>
      </trkpt>
      <trkpt lat="44.51614" lon="5.80874">
        <ele>823.7</ele>
        <time>2023-09-28T08:21:28Z</time>
      </trkpt>
      <trkpt lat="44.51617" lon="5.8088">
        <ele>823.8</ele>
        <time>2023-09-28T08:21:29Z</time>
      </trkpt>
      <trkpt lat="44.51619" lon="5.80885">
        <ele>823.9</ele>
        <time>2023-09-28T08:21:30Z</time>
      </trkpt>
      <trkpt lat="44.51621" lon="5.8089">
        <ele>824</ele>
        <time>2023-09-28T08:21:31Z</time>
      </trkpt>
      <trkpt lat="44.51624" lon="5.80896">
        <ele>824.1</ele>
        <time>2023-09-28T08:21:33Z</time>
      </trkpt>
      <trkpt lat="44.51625" lon="5.80902">
        <ele>824.2</ele>
        <time>2023-09-28T08:21:34Z</time>
      </trkpt>
      <trkpt lat="44.51626" lon="5.80907">
        <ele>824.3</ele>
        <time>2023-09-28T08:21:35Z</time>
      </trkpt>
      <trkpt lat="44.51628" lon="5.80914">
        <ele>824.5</ele>
        <time>2023-09-28T08:21:36Z</time>
      </trkpt>
      <trkpt lat="44.51629" lon="5.80919">
        <ele>824.7</ele>
        <time>2023-09-28T08:21:37Z</time>
      </trkpt>
      <trkpt lat="44.5163" lon="5.80925">
        <ele>824.8</ele>
        <time>2023-09-28T08:21:38Z</time>
      </trkpt>
      <trkpt lat="44.5163" lon="5.8093">
        <ele>825</ele>
        <time>2023-09-28T08:21:39Z</time>
      </trkpt>
      <trkpt lat="44.51632" lon="5.80937">
        <ele>825.2</ele>
        <time>2023-09-28T08:21:41Z</time>
      </trkpt>
      <trkpt lat="44.51633" lon="5.80944">
        <ele>825.4</ele>
        <time>2023-09-28T08:21:42Z</time>
      </trkpt>
      <trkpt lat="44.51634" lon="5.8095">
        <ele>825.5</ele>
        <time>2023-09-28T08:21:43Z</time>
      </trkpt>
      <trkpt lat="44.51635" lon="5.80958">
        <ele>825.7</ele>
        <time>2023-09-28T08:21:44Z</time>
      </trkpt>
      <trkpt lat="44.51637" lon="5.80963">
        <ele>825.8</ele>
        <time>2023-09-28T08:21:45Z</time>
      </trkpt>
      <trkpt lat="44.51639" lon="5.80968">
        <ele>826</ele>
        <time>2023-09-28T08:21:46Z</time>
      </trkpt>
      <trkpt lat="44.51641" lon="5.80973">
        <ele>826.1</ele>
        <time>2023-09-28T08:21:47Z</time>
      </trkpt>
      <trkpt lat="44.51644" lon="5.80976">
        <ele>826.2</ele>
        <time>2023-09-28T08:21:48Z</time>
      </trkpt>
      <trkpt lat="44.51647" lon="5.80978">
        <ele>826.3</ele>
        <time>2023-09-28T08:21:49Z</time>
      </trkpt>
      <trkpt lat="44.51651" lon="5.8098">
        <ele>826.3</ele>
        <time>2023-09-28T08:21:50Z</time>
      </trkpt>
      <trkpt lat="44.51657" lon="5.80979">
        <ele>826.4</ele>
        <time>2023-09-28T08:21:52Z</time>
      </trkpt>
      <trkpt lat="44.51663" lon="5.80976">
        <ele>826.5</ele>
        <time>2023-09-28T08:21:53Z</time>
      </trkpt>
      <trkpt lat="44.51668" lon="5.80972">
        <ele>826.5</ele>
        <time>2023-09-28T08:21:54Z</time>
      </trkpt>
      <trkpt lat="44.51672" lon="5.80968">
        <ele>826.5</ele>
        <time>2023-09-28T08:21:55Z</time>
      </trkpt>
      <trkpt lat="44.51677" lon="5.80964">
        <ele>826.6</ele>
        <time>2023-09-28T08:21:56Z</time>
      </trkpt>
      <trkpt lat="44.51682" lon="5.80957">
        <ele>826.7</ele>
        <time>2023-09-28T08:21:58Z</time>
      </trkpt>
      <trkpt lat="44.51683" lon="5.8095">
        <ele>826.9</ele>
        <time>2023-09-28T08:21:59Z</time>
      </trkpt>
      <trkpt lat="44.51685" lon="5.80944">
        <ele>827</ele>
        <time>2023-09-28T08:22:00Z</time>
      </trkpt>
      <trkpt lat="44.51686" lon="5.80938">
        <ele>827.1</ele>
        <time>2023-09-28T08:22:01Z</time>
      </trkpt>
      <trkpt lat="44.51688" lon="5.80931">
        <ele>827.3</ele>
        <time>2023-09-28T08:22:03Z</time>
      </trkpt>
      <trkpt lat="44.5169" lon="5.80922">
        <ele>827.5</ele>
        <time>2023-09-28T08:22:04Z</time>
      </trkpt>
      <trkpt lat="44.51691" lon="5.80915">
        <ele>827.6</ele>
        <time>2023-09-28T08:22:05Z</time>
      </trkpt>
      <trkpt lat="44.51693" lon="5.80908">
        <ele>827.7</ele>
        <time>2023-09-28T08:22:06Z</time>
      </trkpt>
      <trkpt lat="44.51695" lon="5.80903">
        <ele>827.9</ele>
        <time>2023-09-28T08:22:07Z</time>
      </trkpt>
      <trkpt lat="44.51697" lon="5.80897">
        <ele>828</ele>
        <time>2023-09-28T08:22:09Z</time>
      </trkpt>
      <trkpt lat="44.51701" lon="5.80891">
        <ele>828.2</ele>
        <time>2023-09-28T08:22:10Z</time>
      </trkpt>
      <trkpt lat="44.51704" lon="5.80887">
        <ele>828.4</ele>
        <time>2023-09-28T08:22:11Z</time>
      </trkpt>
      <trkpt lat="44.51707" lon="5.80884">
        <ele>828.5</ele>
        <time>2023-09-28T08:22:12Z</time>
      </trkpt>
      <trkpt lat="44.51712" lon="5.80881">
        <ele>828.7</ele>
        <time>2023-09-28T08:22:13Z</time>
      </trkpt>
      <trkpt lat="44.51715" lon="5.80878">
        <ele>828.9</ele>
        <time>2023-09-28T08:22:14Z</time>
      </trkpt>
      <trkpt lat="44.5172" lon="5.80875">
        <ele>829</ele>
        <time>2023-09-28T08:22:16Z</time>
      </trkpt>
      <trkpt lat="44.51723" lon="5.80872">
        <ele>829.2</ele>
        <time>2023-09-28T08:22:17Z</time>
      </trkpt>
      <trkpt lat="44.51726" lon="5.8087">
        <ele>829.3</ele>
        <time>2023-09-28T08:22:18Z</time>
      </trkpt>
      <trkpt lat="44.5173" lon="5.80867">
        <ele>829.4</ele>
        <time>2023-09-28T08:22:19Z</time>
      </trkpt>
      <trkpt lat="44.51733" lon="5.80865">
        <ele>829.6</ele>
        <time>2023-09-28T08:22:20Z</time>
      </trkpt>
      <trkpt lat="44.51737" lon="5.80861">
        <ele>829.7</ele>
        <time>2023-09-28T08:22:21Z</time>
      </trkpt>
      <trkpt lat="44.51739" lon="5.80858">
        <ele>829.8</ele>
        <time>2023-09-28T08:22:22Z</time>
      </trkpt>
      <trkpt lat="44.51742" lon="5.80856">
        <ele>829.8</ele>
        <time>2023-09-28T08:22:23Z</time>
      </trkpt>
      <trkpt lat="44.51749" lon="5.8085">
        <ele>830</ele>
        <time>2023-09-28T08:22:25Z</time>
      </trkpt>
      <trkpt lat="44.51752" lon="5.80847">
        <ele>830.2</ele>
        <time>2023-09-28T08:22:27Z</time>
      </trkpt>
      <trkpt lat="44.51756" lon="5.80844">
        <ele>830.3</ele>
        <time>2023-09-28T08:22:28Z</time>
      </trkpt>
      <trkpt lat="44.51759" lon="5.80841">
        <ele>830.4</ele>
        <time>2023-09-28T08:22:29Z</time>
      </trkpt>
      <trkpt lat="44.51762" lon="5.80838">
        <ele>830.5</ele>
        <time>2023-09-28T08:22:30Z</time>
      </trkpt>
      <trkpt lat="44.51765" lon="5.80834">
        <ele>830.7</ele>
        <time>2023-09-28T08:22:31Z</time>
      </trkpt>
      <trkpt lat="44.51768" lon="5.80831">
        <ele>830.8</ele>
        <time>2023-09-28T08:22:33Z</time>
      </trkpt>
      <trkpt lat="44.51772" lon="5.80828">
        <ele>831</ele>
        <time>2023-09-28T08:22:34Z</time>
      </trkpt>
      <trkpt lat="44.51775" lon="5.80826">
        <ele>831.1</ele>
        <time>2023-09-28T08:22:35Z</time>
      </trkpt>
      <trkpt lat="44.5178" lon="5.80823">
        <ele>831.3</ele>
        <time>2023-09-28T08:22:36Z</time>
      </trkpt>
      <trkpt lat="44.51788" lon="5.8082">
        <ele>831.5</ele>
        <time>2023-09-28T08:22:38Z</time>
      </trkpt>
      <trkpt lat="44.51792" lon="5.80819">
        <ele>831.6</ele>
        <time>2023-09-28T08:22:40Z</time>
      </trkpt>
      <trkpt lat="44.51797" lon="5.80818">
        <ele>831.7</ele>
        <time>2023-09-28T08:22:41Z</time>
      </trkpt>
      <trkpt lat="44.518" lon="5.80818">
        <ele>831.8</ele>
        <time>2023-09-28T08:22:42Z</time>
      </trkpt>
      <trkpt lat="44.51804" lon="5.80818">
        <ele>831.9</ele>
        <time>2023-09-28T08:22:43Z</time>
      </trkpt>
      <trkpt lat="44.51808" lon="5.80818">
        <ele>832</ele>
        <time>2023-09-28T08:22:44Z</time>
      </trkpt>
      <trkpt lat="44.51812" lon="5.80818">
        <ele>832.1</ele>
        <time>2023-09-28T08:22:45Z</time>
      </trkpt>
      <trkpt lat="44.51816" lon="5.80819">
        <ele>832.1</ele>
        <time>2023-09-28T08:22:46Z</time>
      </trkpt>
      <trkpt lat="44.5182" lon="5.80819">
        <ele>832.2</ele>
        <time>2023-09-28T08:22:47Z</time>
      </trkpt>
      <trkpt lat="44.51824" lon="5.8082">
        <ele>832.2</ele>
        <time>2023-09-28T08:22:49Z</time>
      </trkpt>
      <trkpt lat="44.51828" lon="5.80821">
        <ele>832.3</ele>
        <time>2023-09-28T08:22:50Z</time>
      </trkpt>
      <trkpt lat="44.51832" lon="5.80823">
        <ele>832.3</ele>
        <time>2023-09-28T08:22:51Z</time>
      </trkpt>
      <trkpt lat="44.51836" lon="5.80825">
        <ele>832.2</ele>
        <time>2023-09-28T08:22:52Z</time>
      </trkpt>
      <trkpt lat="44.5184" lon="5.80827">
        <ele>832.2</ele>
        <time>2023-09-28T08:22:53Z</time>
      </trkpt>
      <trkpt lat="44.51843" lon="5.80828">
        <ele>832.1</ele>
        <time>2023-09-28T08:22:54Z</time>
      </trkpt>
      <trkpt lat="44.51848" lon="5.80832">
        <ele>832</ele>
        <time>2023-09-28T08:22:55Z</time>
      </trkpt>
      <trkpt lat="44.51851" lon="5.80836">
        <ele>831.8</ele>
        <time>2023-09-28T08:22:56Z</time>
      </trkpt>
      <trkpt lat="44.51856" lon="5.80841">
        <ele>831.5</ele>
        <time>2023-09-28T08:22:57Z</time>
      </trkpt>
      <trkpt lat="44.51862" lon="5.8085">
        <ele>831</ele>
        <time>2023-09-28T08:22:59Z</time>
      </trkpt>
      <trkpt lat="44.51865" lon="5.80857">
        <ele>830.6</ele>
        <time>2023-09-28T08:23:00Z</time>
      </trkpt>
      <trkpt lat="44.51869" lon="5.80864">
        <ele>830.2</ele>
        <time>2023-09-28T08:23:01Z</time>
      </trkpt>
      <trkpt lat="44.51872" lon="5.80871">
        <ele>829.7</ele>
        <time>2023-09-28T08:23:02Z</time>
      </trkpt>
      <trkpt lat="44.51876" lon="5.8088">
        <ele>829.2</ele>
        <time>2023-09-28T08:23:03Z</time>
      </trkpt>
      <trkpt lat="44.51879" lon="5.80889">
        <ele>828.7</ele>
        <time>2023-09-28T08:23:04Z</time>
      </trkpt>
      <trkpt lat="44.51882" lon="5.80899">
        <ele>828.1</ele>
        <time>2023-09-28T08:23:05Z</time>
      </trkpt>
      <trkpt lat="44.51885" lon="5.8091">
        <ele>827.6</ele>
        <time>2023-09-28T08:23:06Z</time>
      </trkpt>
      <trkpt lat="44.51888" lon="5.80921">
        <ele>827</ele>
        <time>2023-09-28T08:23:07Z</time>
      </trkpt>
      <trkpt lat="44.51891" lon="5.80933">
        <ele>826.4</ele>
        <time>2023-09-28T08:23:08Z</time>
      </trkpt>
      <trkpt lat="44.51894" lon="5.80944">
        <ele>825.8</ele>
        <time>2023-09-28T08:23:09Z</time>
      </trkpt>
      <trkpt lat="44.51897" lon="5.80956">
        <ele>825.2</ele>
        <time>2023-09-28T08:23:10Z</time>
      </trkpt>
      <trkpt lat="44.51902" lon="5.80967">
        <ele>824.6</ele>
        <time>2023-09-28T08:23:11Z</time>
      </trkpt>
      <trkpt lat="44.51908" lon="5.80977">
        <ele>823.9</ele>
        <time>2023-09-28T08:23:12Z</time>
      </trkpt>
      <trkpt lat="44.51915" lon="5.80986">
        <ele>823.3</ele>
        <time>2023-09-28T08:23:13Z</time>
      </trkpt>
      <trkpt lat="44.51923" lon="5.80994">
        <ele>822.6</ele>
        <time>2023-09-28T08:23:14Z</time>
      </trkpt>
      <trkpt lat="44.51931" lon="5.81002">
        <ele>822</ele>
        <time>2023-09-28T08:23:15Z</time>
      </trkpt>
      <trkpt lat="44.5194" lon="5.81009">
        <ele>821.4</ele>
        <time>2023-09-28T08:23:16Z</time>
      </trkpt>
      <trkpt lat="44.51948" lon="5.81016">
        <ele>820.8</ele>
        <time>2023-09-28T08:23:17Z</time>
      </trkpt>
      <trkpt lat="44.51957" lon="5.81023">
        <ele>820.2</ele>
        <time>2023-09-28T08:23:18Z</time>
      </trkpt>
      <trkpt lat="44.51966" lon="5.81029">
        <ele>819.6</ele>
        <time>2023-09-28T08:23:19Z</time>
      </trkpt>
      <trkpt lat="44.51976" lon="5.81034">
        <ele>819</ele>
        <time>2023-09-28T08:23:20Z</time>
      </trkpt>
      <trkpt lat="44.51984" lon="5.81039">
        <ele>818.3</ele>
        <time>2023-09-28T08:23:21Z</time>
      </trkpt>
      <trkpt lat="44.51993" lon="5.81043">
        <ele>817.6</ele>
        <time>2023-09-28T08:23:22Z</time>
      </trkpt>
      <trkpt lat="44.52001" lon="5.81047">
        <ele>816.8</ele>
        <time>2023-09-28T08:23:23Z</time>
      </trkpt>
      <trkpt lat="44.52009" lon="5.8105">
        <ele>816</ele>
        <time>2023-09-28T08:23:24Z</time>
      </trkpt>
      <trkpt lat="44.52016" lon="5.81052">
        <ele>815.4</ele>
        <time>2023-09-28T08:23:25Z</time>
      </trkpt>
      <trkpt lat="44.52023" lon="5.81051">
        <ele>814.7</ele>
        <time>2023-09-28T08:23:26Z</time>
      </trkpt>
      <trkpt lat="44.5203" lon="5.81046">
        <ele>814.1</ele>
        <time>2023-09-28T08:23:27Z</time>
      </trkpt>
      <trkpt lat="44.52034" lon="5.81038">
        <ele>813.5</ele>
        <time>2023-09-28T08:23:28Z</time>
      </trkpt>
      <trkpt lat="44.52036" lon="5.81027">
        <ele>812.9</ele>
        <time>2023-09-28T08:23:29Z</time>
      </trkpt>
      <trkpt lat="44.52034" lon="5.81015">
        <ele>812.3</ele>
        <time>2023-09-28T08:23:30Z</time>
      </trkpt>
      <trkpt lat="44.52031" lon="5.81005">
        <ele>811.7</ele>
        <time>2023-09-28T08:23:31Z</time>
      </trkpt>
      <trkpt lat="44.52026" lon="5.80994">
        <ele>811.1</ele>
        <time>2023-09-28T08:23:32Z</time>
      </trkpt>
      <trkpt lat="44.52022" lon="5.80984">
        <ele>810.6</ele>
        <time>2023-09-28T08:23:33Z</time>
      </trkpt>
      <trkpt lat="44.52018" lon="5.80974">
        <ele>810.1</ele>
        <time>2023-09-28T08:23:34Z</time>
      </trkpt>
      <trkpt lat="44.52016" lon="5.80965">
        <ele>809.7</ele>
        <time>2023-09-28T08:23:35Z</time>
      </trkpt>
      <trkpt lat="44.52017" lon="5.80956">
        <ele>809.3</ele>
        <time>2023-09-28T08:23:36Z</time>
      </trkpt>
      <trkpt lat="44.52022" lon="5.80949">
        <ele>808.8</ele>
        <time>2023-09-28T08:23:37Z</time>
      </trkpt>
      <trkpt lat="44.52028" lon="5.80945">
        <ele>808.3</ele>
        <time>2023-09-28T08:23:38Z</time>
      </trkpt>
      <trkpt lat="44.52035" lon="5.80944">
        <ele>807.7</ele>
        <time>2023-09-28T08:23:39Z</time>
      </trkpt>
      <trkpt lat="44.52042" lon="5.80947">
        <ele>807.1</ele>
        <time>2023-09-28T08:23:40Z</time>
      </trkpt>
      <trkpt lat="44.52049" lon="5.8095">
        <ele>806.4</ele>
        <time>2023-09-28T08:23:41Z</time>
      </trkpt>
      <trkpt lat="44.52057" lon="5.80954">
        <ele>805.7</ele>
        <time>2023-09-28T08:23:42Z</time>
      </trkpt>
      <trkpt lat="44.52064" lon="5.80959">
        <ele>805.1</ele>
        <time>2023-09-28T08:23:43Z</time>
      </trkpt>
      <trkpt lat="44.52071" lon="5.80964">
        <ele>804.5</ele>
        <time>2023-09-28T08:23:44Z</time>
      </trkpt>
      <trkpt lat="44.52079" lon="5.8097">
        <ele>803.9</ele>
        <time>2023-09-28T08:23:45Z</time>
      </trkpt>
      <trkpt lat="44.52087" lon="5.80977">
        <ele>803.3</ele>
        <time>2023-09-28T08:23:46Z</time>
      </trkpt>
      <trkpt lat="44.52094" lon="5.80984">
        <ele>802.7</ele>
        <time>2023-09-28T08:23:47Z</time>
      </trkpt>
      <trkpt lat="44.52101" lon="5.80992">
        <ele>802.2</ele>
        <time>2023-09-28T08:23:48Z</time>
      </trkpt>
      <trkpt lat="44.52108" lon="5.81">
        <ele>801.8</ele>
        <time>2023-09-28T08:23:49Z</time>
      </trkpt>
      <trkpt lat="44.52113" lon="5.81008">
        <ele>801.5</ele>
        <time>2023-09-28T08:23:50Z</time>
      </trkpt>
      <trkpt lat="44.52118" lon="5.81014">
        <ele>801.2</ele>
        <time>2023-09-28T08:23:51Z</time>
      </trkpt>
      <trkpt lat="44.52123" lon="5.8102">
        <ele>801</ele>
        <time>2023-09-28T08:23:52Z</time>
      </trkpt>
      <trkpt lat="44.52128" lon="5.81024">
        <ele>800.7</ele>
        <time>2023-09-28T08:23:53Z</time>
      </trkpt>
      <trkpt lat="44.52134" lon="5.81024">
        <ele>800.5</ele>
        <time>2023-09-28T08:23:54Z</time>
      </trkpt>
      <trkpt lat="44.5214" lon="5.81021">
        <ele>800.3</ele>
        <time>2023-09-28T08:23:55Z</time>
      </trkpt>
      <trkpt lat="44.52145" lon="5.81016">
        <ele>800.2</ele>
        <time>2023-09-28T08:23:56Z</time>
      </trkpt>
      <trkpt lat="44.5215" lon="5.81011">
        <ele>800.2</ele>
        <time>2023-09-28T08:23:57Z</time>
      </trkpt>
      <trkpt lat="44.52155" lon="5.81007">
        <ele>800.1</ele>
        <time>2023-09-28T08:23:58Z</time>
      </trkpt>
      <trkpt lat="44.52159" lon="5.81002">
        <ele>800.1</ele>
        <time>2023-09-28T08:23:59Z</time>
      </trkpt>
      <trkpt lat="44.52163" lon="5.80998">
        <ele>800</ele>
        <time>2023-09-28T08:24:00Z</time>
      </trkpt>
      <trkpt lat="44.52167" lon="5.80996">
        <ele>800</ele>
        <time>2023-09-28T08:24:01Z</time>
      </trkpt>
      <trkpt lat="44.52172" lon="5.80998">
        <ele>799.9</ele>
        <time>2023-09-28T08:24:02Z</time>
      </trkpt>
      <trkpt lat="44.52176" lon="5.81002">
        <ele>799.9</ele>
        <time>2023-09-28T08:24:03Z</time>
      </trkpt>
      <trkpt lat="44.52178" lon="5.81007">
        <ele>799.9</ele>
        <time>2023-09-28T08:24:04Z</time>
      </trkpt>
      <trkpt lat="44.5218" lon="5.81013">
        <ele>799.9</ele>
        <time>2023-09-28T08:24:05Z</time>
      </trkpt>
      <trkpt lat="44.52181" lon="5.81018">
        <ele>799.9</ele>
        <time>2023-09-28T08:24:06Z</time>
      </trkpt>
      <trkpt lat="44.52183" lon="5.81024">
        <ele>799.9</ele>
        <time>2023-09-28T08:24:07Z</time>
      </trkpt>
      <trkpt lat="44.52184" lon="5.81029">
        <ele>799.9</ele>
        <time>2023-09-28T08:24:08Z</time>
      </trkpt>
      <trkpt lat="44.52186" lon="5.81034">
        <ele>799.9</ele>
        <time>2023-09-28T08:24:09Z</time>
      </trkpt>
      <trkpt lat="44.52188" lon="5.81039">
        <ele>799.8</ele>
        <time>2023-09-28T08:24:10Z</time>
      </trkpt>
      <trkpt lat="44.52189" lon="5.81044">
        <ele>799.8</ele>
        <time>2023-09-28T08:24:11Z</time>
      </trkpt>
      <trkpt lat="44.52193" lon="5.81052">
        <ele>799.8</ele>
        <time>2023-09-28T08:24:13Z</time>
      </trkpt>
      <trkpt lat="44.52194" lon="5.81057">
        <ele>799.8</ele>
        <time>2023-09-28T08:24:14Z</time>
      </trkpt>
      <trkpt lat="44.52196" lon="5.81061">
        <ele>799.8</ele>
        <time>2023-09-28T08:24:15Z</time>
      </trkpt>
      <trkpt lat="44.52197" lon="5.81066">
        <ele>799.8</ele>
        <time>2023-09-28T08:24:17Z</time>
      </trkpt>
      <trkpt lat="44.52199" lon="5.8107">
        <ele>799.8</ele>
        <time>2023-09-28T08:24:18Z</time>
      </trkpt>
      <trkpt lat="44.52202" lon="5.81075">
        <ele>799.8</ele>
        <time>2023-09-28T08:24:19Z</time>
      </trkpt>
      <trkpt lat="44.52203" lon="5.81078">
        <ele>799.8</ele>
        <time>2023-09-28T08:24:20Z</time>
      </trkpt>
      <trkpt lat="44.52204" lon="5.81082">
        <ele>799.8</ele>
        <time>2023-09-28T08:24:21Z</time>
      </trkpt>
      <trkpt lat="44.52205" lon="5.81087">
        <ele>799.8</ele>
        <time>2023-09-28T08:24:22Z</time>
      </trkpt>
      <trkpt lat="44.52206" lon="5.81092">
        <ele>799.8</ele>
        <time>2023-09-28T08:24:23Z</time>
      </trkpt>
      <trkpt lat="44.52208" lon="5.81096">
        <ele>799.8</ele>
        <time>2023-09-28T08:24:24Z</time>
      </trkpt>
      <trkpt lat="44.5221" lon="5.81101">
        <ele>799.9</ele>
        <time>2023-09-28T08:24:25Z</time>
      </trkpt>
      <trkpt lat="44.52212" lon="5.81107">
        <ele>799.9</ele>
        <time>2023-09-28T08:24:27Z</time>
      </trkpt>
      <trkpt lat="44.52214" lon="5.81112">
        <ele>799.9</ele>
        <time>2023-09-28T08:24:28Z</time>
      </trkpt>
      <trkpt lat="44.52217" lon="5.81119">
        <ele>799.9</ele>
        <time>2023-09-28T08:24:29Z</time>
      </trkpt>
      <trkpt lat="44.52218" lon="5.81123">
        <ele>799.9</ele>
        <time>2023-09-28T08:24:30Z</time>
      </trkpt>
      <trkpt lat="44.5222" lon="5.8113">
        <ele>799.9</ele>
        <time>2023-09-28T08:24:31Z</time>
      </trkpt>
      <trkpt lat="44.52222" lon="5.81134">
        <ele>799.9</ele>
        <time>2023-09-28T08:24:32Z</time>
      </trkpt>
      <trkpt lat="44.52224" lon="5.8114">
        <ele>800</ele>
        <time>2023-09-28T08:24:33Z</time>
      </trkpt>
      <trkpt lat="44.52227" lon="5.81148">
        <ele>800</ele>
        <time>2023-09-28T08:24:35Z</time>
      </trkpt>
      <trkpt lat="44.5223" lon="5.81153">
        <ele>800</ele>
        <time>2023-09-28T08:24:36Z</time>
      </trkpt>
      <trkpt lat="44.52232" lon="5.81159">
        <ele>800</ele>
        <time>2023-09-28T08:24:37Z</time>
      </trkpt>
      <trkpt lat="44.52233" lon="5.81164">
        <ele>800</ele>
        <time>2023-09-28T08:24:38Z</time>
      </trkpt>
      <trkpt lat="44.52235" lon="5.81171">
        <ele>800</ele>
        <time>2023-09-28T08:24:40Z</time>
      </trkpt>
      <trkpt lat="44.52237" lon="5.8118">
        <ele>800.1</ele>
        <time>2023-09-28T08:24:41Z</time>
      </trkpt>
      <trkpt lat="44.52238" lon="5.81186">
        <ele>800.1</ele>
        <time>2023-09-28T08:24:42Z</time>
      </trkpt>
      <trkpt lat="44.52242" lon="5.81194">
        <ele>800.2</ele>
        <time>2023-09-28T08:24:44Z</time>
      </trkpt>
      <trkpt lat="44.52244" lon="5.812">
        <ele>800.2</ele>
        <time>2023-09-28T08:24:45Z</time>
      </trkpt>
      <trkpt lat="44.52246" lon="5.81205">
        <ele>800.3</ele>
        <time>2023-09-28T08:24:46Z</time>
      </trkpt>
      <trkpt lat="44.52248" lon="5.81211">
        <ele>800.3</ele>
        <time>2023-09-28T08:24:47Z</time>
      </trkpt>
      <trkpt lat="44.5225" lon="5.81217">
        <ele>800.4</ele>
        <time>2023-09-28T08:24:49Z</time>
      </trkpt>
      <trkpt lat="44.52253" lon="5.81225">
        <ele>800.5</ele>
        <time>2023-09-28T08:24:50Z</time>
      </trkpt>
      <trkpt lat="44.52255" lon="5.81231">
        <ele>800.5</ele>
        <time>2023-09-28T08:24:51Z</time>
      </trkpt>
      <trkpt lat="44.52258" lon="5.81241">
        <ele>800.6</ele>
        <time>2023-09-28T08:24:53Z</time>
      </trkpt>
      <trkpt lat="44.5226" lon="5.81247">
        <ele>800.7</ele>
        <time>2023-09-28T08:24:54Z</time>
      </trkpt>
      <trkpt lat="44.52263" lon="5.81254">
        <ele>800.8</ele>
        <time>2023-09-28T08:24:56Z</time>
      </trkpt>
      <trkpt lat="44.52265" lon="5.81261">
        <ele>800.8</ele>
        <time>2023-09-28T08:24:57Z</time>
      </trkpt>
      <trkpt lat="44.52267" lon="5.81266">
        <ele>800.8</ele>
        <time>2023-09-28T08:24:58Z</time>
      </trkpt>
      <trkpt lat="44.52269" lon="5.81272">
        <ele>800.9</ele>
        <time>2023-09-28T08:24:59Z</time>
      </trkpt>
      <trkpt lat="44.52271" lon="5.81277">
        <ele>800.9</ele>
        <time>2023-09-28T08:25:00Z</time>
      </trkpt>
      <trkpt lat="44.52274" lon="5.81285">
        <ele>800.9</ele>
        <time>2023-09-28T08:25:02Z</time>
      </trkpt>
      <trkpt lat="44.52276" lon="5.81292">
        <ele>801</ele>
        <time>2023-09-28T08:25:03Z</time>
      </trkpt>
      <trkpt lat="44.52278" lon="5.81298">
        <ele>801</ele>
        <time>2023-09-28T08:25:04Z</time>
      </trkpt>
      <trkpt lat="44.5228" lon="5.81303">
        <ele>801.1</ele>
        <time>2023-09-28T08:25:05Z</time>
      </trkpt>
      <trkpt lat="44.52282" lon="5.81309">
        <ele>801.2</ele>
        <time>2023-09-28T08:25:07Z</time>
      </trkpt>
      <trkpt lat="44.52284" lon="5.81315">
        <ele>801.2</ele>
        <time>2023-09-28T08:25:08Z</time>
      </trkpt>
      <trkpt lat="44.52288" lon="5.81324">
        <ele>801.3</ele>
        <time>2023-09-28T08:25:09Z</time>
      </trkpt>
      <trkpt lat="44.52289" lon="5.81329">
        <ele>801.4</ele>
        <time>2023-09-28T08:25:10Z</time>
      </trkpt>
      <trkpt lat="44.52292" lon="5.81338">
        <ele>801.5</ele>
        <time>2023-09-28T08:25:12Z</time>
      </trkpt>
      <trkpt lat="44.52294" lon="5.81344">
        <ele>801.5</ele>
        <time>2023-09-28T08:25:13Z</time>
      </trkpt>
      <trkpt lat="44.52297" lon="5.81351">
        <ele>801.6</ele>
        <time>2023-09-28T08:25:14Z</time>
      </trkpt>
      <trkpt lat="44.52298" lon="5.81357">
        <ele>801.7</ele>
        <time>2023-09-28T08:25:15Z</time>
      </trkpt>
      <trkpt lat="44.52301" lon="5.81363">
        <ele>801.7</ele>
        <time>2023-09-28T08:25:16Z</time>
      </trkpt>
      <trkpt lat="44.52303" lon="5.81373">
        <ele>801.8</ele>
        <time>2023-09-28T08:25:18Z</time>
      </trkpt>
      <trkpt lat="44.52306" lon="5.81378">
        <ele>801.9</ele>
        <time>2023-09-28T08:25:19Z</time>
      </trkpt>
      <trkpt lat="44.52308" lon="5.81384">
        <ele>801.9</ele>
        <time>2023-09-28T08:25:20Z</time>
      </trkpt>
      <trkpt lat="44.52311" lon="5.81392">
        <ele>802</ele>
        <time>2023-09-28T08:25:22Z</time>
      </trkpt>
      <trkpt lat="44.52313" lon="5.81398">
        <ele>802.1</ele>
        <time>2023-09-28T08:25:23Z</time>
      </trkpt>
      <trkpt lat="44.52316" lon="5.81405">
        <ele>802.1</ele>
        <time>2023-09-28T08:25:24Z</time>
      </trkpt>
      <trkpt lat="44.52317" lon="5.81409">
        <ele>802.2</ele>
        <time>2023-09-28T08:25:25Z</time>
      </trkpt>
      <trkpt lat="44.5232" lon="5.81416">
        <ele>802.3</ele>
        <time>2023-09-28T08:25:26Z</time>
      </trkpt>
      <trkpt lat="44.52323" lon="5.81423">
        <ele>802.3</ele>
        <time>2023-09-28T08:25:27Z</time>
      </trkpt>
      <trkpt lat="44.52325" lon="5.81428">
        <ele>802.4</ele>
        <time>2023-09-28T08:25:28Z</time>
      </trkpt>
      <trkpt lat="44.52327" lon="5.81434">
        <ele>802.4</ele>
        <time>2023-09-28T08:25:29Z</time>
      </trkpt>
      <trkpt lat="44.52329" lon="5.81439">
        <ele>802.5</ele>
        <time>2023-09-28T08:25:31Z</time>
      </trkpt>
      <trkpt lat="44.52331" lon="5.81446">
        <ele>802.5</ele>
        <time>2023-09-28T08:25:32Z</time>
      </trkpt>
      <trkpt lat="44.52333" lon="5.81452">
        <ele>802.6</ele>
        <time>2023-09-28T08:25:33Z</time>
      </trkpt>
      <trkpt lat="44.52337" lon="5.81462">
        <ele>802.6</ele>
        <time>2023-09-28T08:25:34Z</time>
      </trkpt>
      <trkpt lat="44.52338" lon="5.81468">
        <ele>802.6</ele>
        <time>2023-09-28T08:25:35Z</time>
      </trkpt>
      <trkpt lat="44.5234" lon="5.81474">
        <ele>802.7</ele>
        <time>2023-09-28T08:25:36Z</time>
      </trkpt>
      <trkpt lat="44.52342" lon="5.8148">
        <ele>802.7</ele>
        <time>2023-09-28T08:25:37Z</time>
      </trkpt>
      <trkpt lat="44.52345" lon="5.81485">
        <ele>802.8</ele>
        <time>2023-09-28T08:25:38Z</time>
      </trkpt>
      <trkpt lat="44.52347" lon="5.81491">
        <ele>802.8</ele>
        <time>2023-09-28T08:25:39Z</time>
      </trkpt>
      <trkpt lat="44.52349" lon="5.81497">
        <ele>802.9</ele>
        <time>2023-09-28T08:25:40Z</time>
      </trkpt>
      <trkpt lat="44.52351" lon="5.81503">
        <ele>802.9</ele>
        <time>2023-09-28T08:25:41Z</time>
      </trkpt>
      <trkpt lat="44.52353" lon="5.81509">
        <ele>802.9</ele>
        <time>2023-09-28T08:25:42Z</time>
      </trkpt>
      <trkpt lat="44.52355" lon="5.81515">
        <ele>803</ele>
        <time>2023-09-28T08:25:43Z</time>
      </trkpt>
      <trkpt lat="44.52357" lon="5.81521">
        <ele>803</ele>
        <time>2023-09-28T08:25:44Z</time>
      </trkpt>
      <trkpt lat="44.52359" lon="5.81527">
        <ele>803</ele>
        <time>2023-09-28T08:25:45Z</time>
      </trkpt>
      <trkpt lat="44.52361" lon="5.81533">
        <ele>803</ele>
        <time>2023-09-28T08:25:46Z</time>
      </trkpt>
      <trkpt lat="44.52363" lon="5.81539">
        <ele>803.1</ele>
        <time>2023-09-28T08:25:47Z</time>
      </trkpt>
      <trkpt lat="44.52364" lon="5.81545">
        <ele>803.1</ele>
        <time>2023-09-28T08:25:48Z</time>
      </trkpt>
      <trkpt lat="44.52366" lon="5.81551">
        <ele>803.1</ele>
        <time>2023-09-28T08:25:49Z</time>
      </trkpt>
      <trkpt lat="44.52369" lon="5.81557">
        <ele>803.2</ele>
        <time>2023-09-28T08:25:50Z</time>
      </trkpt>
      <trkpt lat="44.52371" lon="5.81564">
        <ele>803.2</ele>
        <time>2023-09-28T08:25:51Z</time>
      </trkpt>
      <trkpt lat="44.52372" lon="5.8157">
        <ele>803.2</ele>
        <time>2023-09-28T08:25:52Z</time>
      </trkpt>
      <trkpt lat="44.52375" lon="5.81576">
        <ele>803.3</ele>
        <time>2023-09-28T08:25:53Z</time>
      </trkpt>
      <trkpt lat="44.52377" lon="5.81581">
        <ele>803.3</ele>
        <time>2023-09-28T08:25:54Z</time>
      </trkpt>
      <trkpt lat="44.52379" lon="5.81587">
        <ele>803.3</ele>
        <time>2023-09-28T08:25:55Z</time>
      </trkpt>
      <trkpt lat="44.52381" lon="5.81593">
        <ele>803.4</ele>
        <time>2023-09-28T08:25:56Z</time>
      </trkpt>
      <trkpt lat="44.52383" lon="5.816">
        <ele>803.4</ele>
        <time>2023-09-28T08:25:57Z</time>
      </trkpt>
      <trkpt lat="44.52385" lon="5.81606">
        <ele>803.5</ele>
        <time>2023-09-28T08:25:58Z</time>
      </trkpt>
      <trkpt lat="44.52388" lon="5.81612">
        <ele>803.5</ele>
        <time>2023-09-28T08:25:59Z</time>
      </trkpt>
      <trkpt lat="44.5239" lon="5.81618">
        <ele>803.6</ele>
        <time>2023-09-28T08:26:00Z</time>
      </trkpt>
      <trkpt lat="44.52392" lon="5.81624">
        <ele>803.6</ele>
        <time>2023-09-28T08:26:01Z</time>
      </trkpt>
      <trkpt lat="44.52394" lon="5.8163">
        <ele>803.6</ele>
        <time>2023-09-28T08:26:02Z</time>
      </trkpt>
      <trkpt lat="44.52396" lon="5.81636">
        <ele>803.7</ele>
        <time>2023-09-28T08:26:03Z</time>
      </trkpt>
      <trkpt lat="44.52399" lon="5.81643">
        <ele>803.7</ele>
        <time>2023-09-28T08:26:04Z</time>
      </trkpt>
      <trkpt lat="44.52401" lon="5.81649">
        <ele>803.7</ele>
        <time>2023-09-28T08:26:05Z</time>
      </trkpt>
      <trkpt lat="44.52403" lon="5.81655">
        <ele>803.8</ele>
        <time>2023-09-28T08:26:06Z</time>
      </trkpt>
      <trkpt lat="44.52406" lon="5.81661">
        <ele>803.8</ele>
        <time>2023-09-28T08:26:07Z</time>
      </trkpt>
      <trkpt lat="44.52408" lon="5.81668">
        <ele>803.9</ele>
        <time>2023-09-28T08:26:08Z</time>
      </trkpt>
      <trkpt lat="44.5241" lon="5.81674">
        <ele>803.9</ele>
        <time>2023-09-28T08:26:09Z</time>
      </trkpt>
      <trkpt lat="44.52413" lon="5.81681">
        <ele>804</ele>
        <time>2023-09-28T08:26:10Z</time>
      </trkpt>
      <trkpt lat="44.52415" lon="5.81687">
        <ele>804</ele>
        <time>2023-09-28T08:26:11Z</time>
      </trkpt>
      <trkpt lat="44.52417" lon="5.81693">
        <ele>804.1</ele>
        <time>2023-09-28T08:26:12Z</time>
      </trkpt>
      <trkpt lat="44.52419" lon="5.81699">
        <ele>804.1</ele>
        <time>2023-09-28T08:26:13Z</time>
      </trkpt>
      <trkpt lat="44.52422" lon="5.81706">
        <ele>804.2</ele>
        <time>2023-09-28T08:26:14Z</time>
      </trkpt>
      <trkpt lat="44.52424" lon="5.81712">
        <ele>804.2</ele>
        <time>2023-09-28T08:26:15Z</time>
      </trkpt>
      <trkpt lat="44.52426" lon="5.81718">
        <ele>804.2</ele>
        <time>2023-09-28T08:26:16Z</time>
      </trkpt>
      <trkpt lat="44.52429" lon="5.81724">
        <ele>804.3</ele>
        <time>2023-09-28T08:26:17Z</time>
      </trkpt>
      <trkpt lat="44.52431" lon="5.81731">
        <ele>804.4</ele>
        <time>2023-09-28T08:26:18Z</time>
      </trkpt>
      <trkpt lat="44.52433" lon="5.81737">
        <ele>804.4</ele>
        <time>2023-09-28T08:26:19Z</time>
      </trkpt>
      <trkpt lat="44.52435" lon="5.81744">
        <ele>804.5</ele>
        <time>2023-09-28T08:26:20Z</time>
      </trkpt>
      <trkpt lat="44.52437" lon="5.8175">
        <ele>804.6</ele>
        <time>2023-09-28T08:26:21Z</time>
      </trkpt>
      <trkpt lat="44.52439" lon="5.81756">
        <ele>804.7</ele>
        <time>2023-09-28T08:26:22Z</time>
      </trkpt>
      <trkpt lat="44.52442" lon="5.81763">
        <ele>804.7</ele>
        <time>2023-09-28T08:26:23Z</time>
      </trkpt>
      <trkpt lat="44.52444" lon="5.81769">
        <ele>804.8</ele>
        <time>2023-09-28T08:26:24Z</time>
      </trkpt>
      <trkpt lat="44.52446" lon="5.81775">
        <ele>804.8</ele>
        <time>2023-09-28T08:26:25Z</time>
      </trkpt>
      <trkpt lat="44.52448" lon="5.81782">
        <ele>804.9</ele>
        <time>2023-09-28T08:26:26Z</time>
      </trkpt>
      <trkpt lat="44.5245" lon="5.81788">
        <ele>804.9</ele>
        <time>2023-09-28T08:26:27Z</time>
      </trkpt>
      <trkpt lat="44.52453" lon="5.81795">
        <ele>805</ele>
        <time>2023-09-28T08:26:28Z</time>
      </trkpt>
      <trkpt lat="44.52455" lon="5.81801">
        <ele>805</ele>
        <time>2023-09-28T08:26:29Z</time>
      </trkpt>
      <trkpt lat="44.52457" lon="5.81808">
        <ele>805.1</ele>
        <time>2023-09-28T08:26:30Z</time>
      </trkpt>
      <trkpt lat="44.5246" lon="5.81814">
        <ele>805.1</ele>
        <time>2023-09-28T08:26:31Z</time>
      </trkpt>
      <trkpt lat="44.52462" lon="5.81821">
        <ele>805.2</ele>
        <time>2023-09-28T08:26:32Z</time>
      </trkpt>
      <trkpt lat="44.52464" lon="5.81827">
        <ele>805.2</ele>
        <time>2023-09-28T08:26:33Z</time>
      </trkpt>
      <trkpt lat="44.52466" lon="5.81834">
        <ele>805.3</ele>
        <time>2023-09-28T08:26:34Z</time>
      </trkpt>
      <trkpt lat="44.52468" lon="5.8184">
        <ele>805.3</ele>
        <time>2023-09-28T08:26:35Z</time>
      </trkpt>
      <trkpt lat="44.5247" lon="5.81847">
        <ele>805.4</ele>
        <time>2023-09-28T08:26:36Z</time>
      </trkpt>
      <trkpt lat="44.52472" lon="5.81853">
        <ele>805.5</ele>
        <time>2023-09-28T08:26:37Z</time>
      </trkpt>
      <trkpt lat="44.52475" lon="5.8186">
        <ele>805.5</ele>
        <time>2023-09-28T08:26:38Z</time>
      </trkpt>
      <trkpt lat="44.52477" lon="5.81866">
        <ele>805.6</ele>
        <time>2023-09-28T08:26:39Z</time>
      </trkpt>
      <trkpt lat="44.52479" lon="5.81872">
        <ele>805.6</ele>
        <time>2023-09-28T08:26:40Z</time>
      </trkpt>
      <trkpt lat="44.52481" lon="5.81878">
        <ele>805.7</ele>
        <time>2023-09-28T08:26:41Z</time>
      </trkpt>
      <trkpt lat="44.52483" lon="5.81885">
        <ele>805.7</ele>
        <time>2023-09-28T08:26:42Z</time>
      </trkpt>
      <trkpt lat="44.52485" lon="5.81891">
        <ele>805.8</ele>
        <time>2023-09-28T08:26:43Z</time>
      </trkpt>
      <trkpt lat="44.52488" lon="5.81898">
        <ele>805.8</ele>
        <time>2023-09-28T08:26:44Z</time>
      </trkpt>
      <trkpt lat="44.5249" lon="5.81904">
        <ele>805.9</ele>
        <time>2023-09-28T08:26:45Z</time>
      </trkpt>
      <trkpt lat="44.52492" lon="5.81911">
        <ele>805.9</ele>
        <time>2023-09-28T08:26:46Z</time>
      </trkpt>
      <trkpt lat="44.52494" lon="5.81917">
        <ele>806</ele>
        <time>2023-09-28T08:26:47Z</time>
      </trkpt>
      <trkpt lat="44.52497" lon="5.81924">
        <ele>806</ele>
        <time>2023-09-28T08:26:48Z</time>
      </trkpt>
      <trkpt lat="44.52499" lon="5.8193">
        <ele>806.1</ele>
        <time>2023-09-28T08:26:49Z</time>
      </trkpt>
      <trkpt lat="44.52502" lon="5.81937">
        <ele>806.2</ele>
        <time>2023-09-28T08:26:50Z</time>
      </trkpt>
      <trkpt lat="44.52504" lon="5.81943">
        <ele>806.2</ele>
        <time>2023-09-28T08:26:51Z</time>
      </trkpt>
      <trkpt lat="44.52506" lon="5.81949">
        <ele>806.3</ele>
        <time>2023-09-28T08:26:52Z</time>
      </trkpt>
      <trkpt lat="44.52508" lon="5.81956">
        <ele>806.3</ele>
        <time>2023-09-28T08:26:53Z</time>
      </trkpt>
      <trkpt lat="44.5251" lon="5.81962">
        <ele>806.4</ele>
        <time>2023-09-28T08:26:54Z</time>
      </trkpt>
      <trkpt lat="44.52513" lon="5.81968">
        <ele>806.4</ele>
        <time>2023-09-28T08:26:55Z</time>
      </trkpt>
      <trkpt lat="44.52515" lon="5.81974">
        <ele>806.5</ele>
        <time>2023-09-28T08:26:56Z</time>
      </trkpt>
      <trkpt lat="44.52517" lon="5.81981">
        <ele>806.5</ele>
        <time>2023-09-28T08:26:57Z</time>
      </trkpt>
      <trkpt lat="44.5252" lon="5.81987">
        <ele>806.6</ele>
        <time>2023-09-28T08:26:58Z</time>
      </trkpt>
      <trkpt lat="44.52523" lon="5.81993">
        <ele>806.6</ele>
        <time>2023-09-28T08:26:59Z</time>
      </trkpt>
      <trkpt lat="44.52525" lon="5.82">
        <ele>806.7</ele>
        <time>2023-09-28T08:27:00Z</time>
      </trkpt>
      <trkpt lat="44.52528" lon="5.82005">
        <ele>806.7</ele>
        <time>2023-09-28T08:27:01Z</time>
      </trkpt>
      <trkpt lat="44.52531" lon="5.82011">
        <ele>806.8</ele>
        <time>2023-09-28T08:27:02Z</time>
      </trkpt>
      <trkpt lat="44.52535" lon="5.82017">
        <ele>806.8</ele>
        <time>2023-09-28T08:27:03Z</time>
      </trkpt>
      <trkpt lat="44.52538" lon="5.82022">
        <ele>806.9</ele>
        <time>2023-09-28T08:27:04Z</time>
      </trkpt>
      <trkpt lat="44.52541" lon="5.82028">
        <ele>807</ele>
        <time>2023-09-28T08:27:05Z</time>
      </trkpt>
      <trkpt lat="44.52545" lon="5.82033">
        <ele>807</ele>
        <time>2023-09-28T08:27:06Z</time>
      </trkpt>
      <trkpt lat="44.52548" lon="5.82039">
        <ele>807.1</ele>
        <time>2023-09-28T08:27:07Z</time>
      </trkpt>
      <trkpt lat="44.52552" lon="5.82044">
        <ele>807.1</ele>
        <time>2023-09-28T08:27:08Z</time>
      </trkpt>
      <trkpt lat="44.52555" lon="5.82049">
        <ele>807.2</ele>
        <time>2023-09-28T08:27:09Z</time>
      </trkpt>
      <trkpt lat="44.52558" lon="5.82055">
        <ele>807.2</ele>
        <time>2023-09-28T08:27:10Z</time>
      </trkpt>
      <trkpt lat="44.52562" lon="5.8206">
        <ele>807.3</ele>
        <time>2023-09-28T08:27:11Z</time>
      </trkpt>
      <trkpt lat="44.52565" lon="5.82066">
        <ele>807.4</ele>
        <time>2023-09-28T08:27:12Z</time>
      </trkpt>
      <trkpt lat="44.52569" lon="5.82071">
        <ele>807.4</ele>
        <time>2023-09-28T08:27:13Z</time>
      </trkpt>
      <trkpt lat="44.52572" lon="5.82077">
        <ele>807.5</ele>
        <time>2023-09-28T08:27:14Z</time>
      </trkpt>
      <trkpt lat="44.52576" lon="5.82082">
        <ele>807.5</ele>
        <time>2023-09-28T08:27:15Z</time>
      </trkpt>
      <trkpt lat="44.52579" lon="5.82088">
        <ele>807.6</ele>
        <time>2023-09-28T08:27:16Z</time>
      </trkpt>
      <trkpt lat="44.52582" lon="5.82093">
        <ele>807.6</ele>
        <time>2023-09-28T08:27:17Z</time>
      </trkpt>
      <trkpt lat="44.52586" lon="5.82099">
        <ele>807.7</ele>
        <time>2023-09-28T08:27:18Z</time>
      </trkpt>
      <trkpt lat="44.52589" lon="5.82104">
        <ele>807.8</ele>
        <time>2023-09-28T08:27:19Z</time>
      </trkpt>
      <trkpt lat="44.52592" lon="5.8211">
        <ele>807.8</ele>
        <time>2023-09-28T08:27:20Z</time>
      </trkpt>
      <trkpt lat="44.52596" lon="5.82115">
        <ele>807.9</ele>
        <time>2023-09-28T08:27:21Z</time>
      </trkpt>
      <trkpt lat="44.52599" lon="5.82121">
        <ele>808</ele>
        <time>2023-09-28T08:27:22Z</time>
      </trkpt>
      <trkpt lat="44.52603" lon="5.82127">
        <ele>808</ele>
        <time>2023-09-28T08:27:23Z</time>
      </trkpt>
      <trkpt lat="44.52606" lon="5.82132">
        <ele>808.1</ele>
        <time>2023-09-28T08:27:24Z</time>
      </trkpt>
      <trkpt lat="44.5261" lon="5.82138">
        <ele>808.2</ele>
        <time>2023-09-28T08:27:25Z</time>
      </trkpt>
      <trkpt lat="44.52613" lon="5.82143">
        <ele>808.2</ele>
        <time>2023-09-28T08:27:26Z</time>
      </trkpt>
      <trkpt lat="44.52616" lon="5.82149">
        <ele>808.2</ele>
        <time>2023-09-28T08:27:27Z</time>
      </trkpt>
      <trkpt lat="44.5262" lon="5.82154">
        <ele>808.3</ele>
        <time>2023-09-28T08:27:28Z</time>
      </trkpt>
      <trkpt lat="44.52623" lon="5.82159">
        <ele>808.3</ele>
        <time>2023-09-28T08:27:29Z</time>
      </trkpt>
      <trkpt lat="44.52626" lon="5.82165">
        <ele>808.4</ele>
        <time>2023-09-28T08:27:30Z</time>
      </trkpt>
      <trkpt lat="44.52629" lon="5.8217">
        <ele>808.4</ele>
        <time>2023-09-28T08:27:31Z</time>
      </trkpt>
      <trkpt lat="44.52633" lon="5.82175">
        <ele>808.4</ele>
        <time>2023-09-28T08:27:32Z</time>
      </trkpt>
      <trkpt lat="44.52636" lon="5.8218">
        <ele>808.5</ele>
        <time>2023-09-28T08:27:33Z</time>
      </trkpt>
      <trkpt lat="44.52639" lon="5.82185">
        <ele>808.5</ele>
        <time>2023-09-28T08:27:34Z</time>
      </trkpt>
      <trkpt lat="44.52642" lon="5.82191">
        <ele>808.5</ele>
        <time>2023-09-28T08:27:35Z</time>
      </trkpt>
      <trkpt lat="44.52645" lon="5.82196">
        <ele>808.6</ele>
        <time>2023-09-28T08:27:36Z</time>
      </trkpt>
      <trkpt lat="44.52649" lon="5.82202">
        <ele>808.6</ele>
        <time>2023-09-28T08:27:37Z</time>
      </trkpt>
      <trkpt lat="44.52652" lon="5.82207">
        <ele>808.6</ele>
        <time>2023-09-28T08:27:38Z</time>
      </trkpt>
      <trkpt lat="44.52656" lon="5.82212">
        <ele>808.7</ele>
        <time>2023-09-28T08:27:39Z</time>
      </trkpt>
      <trkpt lat="44.52659" lon="5.82218">
        <ele>808.7</ele>
        <time>2023-09-28T08:27:40Z</time>
      </trkpt>
      <trkpt lat="44.52662" lon="5.82223">
        <ele>808.8</ele>
        <time>2023-09-28T08:27:41Z</time>
      </trkpt>
      <trkpt lat="44.52665" lon="5.82228">
        <ele>808.8</ele>
        <time>2023-09-28T08:27:42Z</time>
      </trkpt>
      <trkpt lat="44.52669" lon="5.82233">
        <ele>808.9</ele>
        <time>2023-09-28T08:27:43Z</time>
      </trkpt>
      <trkpt lat="44.52672" lon="5.82239">
        <ele>808.9</ele>
        <time>2023-09-28T08:27:44Z</time>
      </trkpt>
      <trkpt lat="44.52675" lon="5.82244">
        <ele>808.9</ele>
        <time>2023-09-28T08:27:45Z</time>
      </trkpt>
      <trkpt lat="44.52678" lon="5.8225">
        <ele>808.9</ele>
        <time>2023-09-28T08:27:46Z</time>
      </trkpt>
      <trkpt lat="44.52681" lon="5.82255">
        <ele>808.9</ele>
        <time>2023-09-28T08:27:47Z</time>
      </trkpt>
      <trkpt lat="44.52685" lon="5.8226">
        <ele>808.9</ele>
        <time>2023-09-28T08:27:48Z</time>
      </trkpt>
      <trkpt lat="44.52688" lon="5.82265">
        <ele>808.9</ele>
        <time>2023-09-28T08:27:49Z</time>
      </trkpt>
      <trkpt lat="44.52692" lon="5.82271">
        <ele>808.9</ele>
        <time>2023-09-28T08:27:50Z</time>
      </trkpt>
      <trkpt lat="44.52695" lon="5.82276">
        <ele>809</ele>
        <time>2023-09-28T08:27:51Z</time>
      </trkpt>
      <trkpt lat="44.52698" lon="5.82281">
        <ele>809</ele>
        <time>2023-09-28T08:27:52Z</time>
      </trkpt>
      <trkpt lat="44.52702" lon="5.82286">
        <ele>809</ele>
        <time>2023-09-28T08:27:53Z</time>
      </trkpt>
      <trkpt lat="44.52705" lon="5.82291">
        <ele>809.1</ele>
        <time>2023-09-28T08:27:54Z</time>
      </trkpt>
      <trkpt lat="44.52708" lon="5.82297">
        <ele>809.1</ele>
        <time>2023-09-28T08:27:55Z</time>
      </trkpt>
      <trkpt lat="44.52711" lon="5.82302">
        <ele>809.2</ele>
        <time>2023-09-28T08:27:56Z</time>
      </trkpt>
      <trkpt lat="44.52714" lon="5.82307">
        <ele>809.2</ele>
        <time>2023-09-28T08:27:57Z</time>
      </trkpt>
      <trkpt lat="44.52718" lon="5.82312">
        <ele>809.3</ele>
        <time>2023-09-28T08:27:58Z</time>
      </trkpt>
      <trkpt lat="44.52721" lon="5.82318">
        <ele>809.3</ele>
        <time>2023-09-28T08:27:59Z</time>
      </trkpt>
      <trkpt lat="44.52724" lon="5.82323">
        <ele>809.4</ele>
        <time>2023-09-28T08:28:00Z</time>
      </trkpt>
      <trkpt lat="44.52728" lon="5.82328">
        <ele>809.5</ele>
        <time>2023-09-28T08:28:01Z</time>
      </trkpt>
      <trkpt lat="44.52731" lon="5.82334">
        <ele>809.6</ele>
        <time>2023-09-28T08:28:02Z</time>
      </trkpt>
      <trkpt lat="44.52734" lon="5.82339">
        <ele>809.6</ele>
        <time>2023-09-28T08:28:03Z</time>
      </trkpt>
      <trkpt lat="44.52738" lon="5.82344">
        <ele>809.7</ele>
        <time>2023-09-28T08:28:04Z</time>
      </trkpt>
      <trkpt lat="44.52741" lon="5.8235">
        <ele>809.8</ele>
        <time>2023-09-28T08:28:05Z</time>
      </trkpt>
      <trkpt lat="44.52744" lon="5.82355">
        <ele>809.8</ele>
        <time>2023-09-28T08:28:06Z</time>
      </trkpt>
      <trkpt lat="44.52747" lon="5.82361">
        <ele>809.9</ele>
        <time>2023-09-28T08:28:07Z</time>
      </trkpt>
      <trkpt lat="44.52751" lon="5.82367">
        <ele>809.9</ele>
        <time>2023-09-28T08:28:08Z</time>
      </trkpt>
      <trkpt lat="44.52754" lon="5.82372">
        <ele>810</ele>
        <time>2023-09-28T08:28:09Z</time>
      </trkpt>
      <trkpt lat="44.52757" lon="5.82377">
        <ele>810</ele>
        <time>2023-09-28T08:28:10Z</time>
      </trkpt>
      <trkpt lat="44.52761" lon="5.82383">
        <ele>810.1</ele>
        <time>2023-09-28T08:28:11Z</time>
      </trkpt>
      <trkpt lat="44.52764" lon="5.82389">
        <ele>810.2</ele>
        <time>2023-09-28T08:28:12Z</time>
      </trkpt>
      <trkpt lat="44.52767" lon="5.82395">
        <ele>810.2</ele>
        <time>2023-09-28T08:28:13Z</time>
      </trkpt>
      <trkpt lat="44.52769" lon="5.824">
        <ele>810.3</ele>
        <time>2023-09-28T08:28:14Z</time>
      </trkpt>
      <trkpt lat="44.52772" lon="5.82406">
        <ele>810.4</ele>
        <time>2023-09-28T08:28:15Z</time>
      </trkpt>
      <trkpt lat="44.52775" lon="5.82412">
        <ele>810.5</ele>
        <time>2023-09-28T08:28:16Z</time>
      </trkpt>
      <trkpt lat="44.52778" lon="5.82417">
        <ele>810.6</ele>
        <time>2023-09-28T08:28:17Z</time>
      </trkpt>
      <trkpt lat="44.5278" lon="5.82423">
        <ele>810.7</ele>
        <time>2023-09-28T08:28:18Z</time>
      </trkpt>
      <trkpt lat="44.52783" lon="5.82428">
        <ele>810.8</ele>
        <time>2023-09-28T08:28:19Z</time>
      </trkpt>
      <trkpt lat="44.52786" lon="5.82434">
        <ele>810.8</ele>
        <time>2023-09-28T08:28:20Z</time>
      </trkpt>
      <trkpt lat="44.52788" lon="5.82439">
        <ele>810.9</ele>
        <time>2023-09-28T08:28:21Z</time>
      </trkpt>
      <trkpt lat="44.52791" lon="5.82444">
        <ele>811</ele>
        <time>2023-09-28T08:28:22Z</time>
      </trkpt>
      <trkpt lat="44.52793" lon="5.8245">
        <ele>811.1</ele>
        <time>2023-09-28T08:28:23Z</time>
      </trkpt>
      <trkpt lat="44.52795" lon="5.82456">
        <ele>811.2</ele>
        <time>2023-09-28T08:28:24Z</time>
      </trkpt>
      <trkpt lat="44.52798" lon="5.82461">
        <ele>811.2</ele>
        <time>2023-09-28T08:28:25Z</time>
      </trkpt>
      <trkpt lat="44.528" lon="5.82466">
        <ele>811.3</ele>
        <time>2023-09-28T08:28:26Z</time>
      </trkpt>
      <trkpt lat="44.52801" lon="5.82471">
        <ele>811.4</ele>
        <time>2023-09-28T08:28:27Z</time>
      </trkpt>
      <trkpt lat="44.52804" lon="5.82475">
        <ele>811.5</ele>
        <time>2023-09-28T08:28:28Z</time>
      </trkpt>
      <trkpt lat="44.52807" lon="5.82478">
        <ele>811.5</ele>
        <time>2023-09-28T08:28:29Z</time>
      </trkpt>
      <trkpt lat="44.52809" lon="5.82481">
        <ele>811.6</ele>
        <time>2023-09-28T08:28:30Z</time>
      </trkpt>
      <trkpt lat="44.52812" lon="5.82485">
        <ele>811.6</ele>
        <time>2023-09-28T08:28:31Z</time>
      </trkpt>
      <trkpt lat="44.52815" lon="5.82488">
        <ele>811.7</ele>
        <time>2023-09-28T08:28:32Z</time>
      </trkpt>
      <trkpt lat="44.52818" lon="5.82492">
        <ele>811.7</ele>
        <time>2023-09-28T08:28:34Z</time>
      </trkpt>
      <trkpt lat="44.52821" lon="5.82495">
        <ele>811.7</ele>
        <time>2023-09-28T08:28:35Z</time>
      </trkpt>
      <trkpt lat="44.52822" lon="5.82498">
        <ele>811.7</ele>
        <time>2023-09-28T08:28:37Z</time>
      </trkpt>
      <trkpt lat="44.52822" lon="5.82497">
        <ele>811.7</ele>
        <time>2023-09-28T08:28:38Z</time>
      </trkpt>
      <trkpt lat="44.52821" lon="5.82496">
        <ele>811.7</ele>
        <time>2023-09-28T08:28:39Z</time>
      </trkpt>
      <trkpt lat="44.52821" lon="5.82496">
        <ele>811.7</ele>
        <time>2023-09-28T08:28:40Z</time>
      </trkpt>
      <trkpt lat="44.52821" lon="5.82495">
        <ele>811.7</ele>
        <time>2023-09-28T08:28:41Z</time>
      </trkpt>
      <trkpt lat="44.52821" lon="5.82495">
        <ele>811.7</ele>
        <time>2023-09-28T08:28:42Z</time>
      </trkpt>
      <trkpt lat="44.52821" lon="5.82495">
        <ele>811.7</ele>
        <time>2023-09-28T08:28:44Z</time>
      </trkpt>
      <trkpt lat="44.52821" lon="5.82495">
        <ele>811.7</ele>
        <time>2023-09-28T08:28:46Z</time>
      </trkpt>
      <trkpt lat="44.52821" lon="5.82495">
        <ele>811.7</ele>
        <time>2023-09-28T08:28:47Z</time>
      </trkpt>
      <trkpt lat="44.52825" lon="5.82498">
        <ele>811.8</ele>
        <time>2023-09-28T08:29:04Z</time>
      </trkpt>
      <trkpt lat="44.52828" lon="5.825">
        <ele>811.7</ele>
        <time>2023-09-28T08:29:05Z</time>
      </trkpt>
      <trkpt lat="44.52832" lon="5.82498">
        <ele>811.5</ele>
        <time>2023-09-28T08:29:06Z</time>
      </trkpt>
      <trkpt lat="44.52836" lon="5.82495">
        <ele>811.3</ele>
        <time>2023-09-28T08:29:07Z</time>
      </trkpt>
      <trkpt lat="44.5284" lon="5.82492">
        <ele>811.2</ele>
        <time>2023-09-28T08:29:08Z</time>
      </trkpt>
      <trkpt lat="44.52845" lon="5.82489">
        <ele>811</ele>
        <time>2023-09-28T08:29:09Z</time>
      </trkpt>
      <trkpt lat="44.5285" lon="5.82487">
        <ele>810.8</ele>
        <time>2023-09-28T08:29:10Z</time>
      </trkpt>
      <trkpt lat="44.52854" lon="5.82485">
        <ele>810.7</ele>
        <time>2023-09-28T08:29:11Z</time>
      </trkpt>
      <trkpt lat="44.52859" lon="5.82482">
        <ele>810.5</ele>
        <time>2023-09-28T08:29:12Z</time>
      </trkpt>
      <trkpt lat="44.52865" lon="5.8248">
        <ele>810.4</ele>
        <time>2023-09-28T08:29:13Z</time>
      </trkpt>
      <trkpt lat="44.5287" lon="5.82478">
        <ele>810.2</ele>
        <time>2023-09-28T08:29:14Z</time>
      </trkpt>
      <trkpt lat="44.52875" lon="5.82476">
        <ele>810.1</ele>
        <time>2023-09-28T08:29:15Z</time>
      </trkpt>
      <trkpt lat="44.5288" lon="5.82474">
        <ele>810</ele>
        <time>2023-09-28T08:29:16Z</time>
      </trkpt>
      <trkpt lat="44.52885" lon="5.82473">
        <ele>809.9</ele>
        <time>2023-09-28T08:29:17Z</time>
      </trkpt>
      <trkpt lat="44.52891" lon="5.82471">
        <ele>809.8</ele>
        <time>2023-09-28T08:29:18Z</time>
      </trkpt>
      <trkpt lat="44.52896" lon="5.82468">
        <ele>809.8</ele>
        <time>2023-09-28T08:29:19Z</time>
      </trkpt>
      <trkpt lat="44.52901" lon="5.82467">
        <ele>809.9</ele>
        <time>2023-09-28T08:29:20Z</time>
      </trkpt>
      <trkpt lat="44.52906" lon="5.82465">
        <ele>809.9</ele>
        <time>2023-09-28T08:29:21Z</time>
      </trkpt>
      <trkpt lat="44.52911" lon="5.82463">
        <ele>809.9</ele>
        <time>2023-09-28T08:29:22Z</time>
      </trkpt>
      <trkpt lat="44.52916" lon="5.82461">
        <ele>809.8</ele>
        <time>2023-09-28T08:29:23Z</time>
      </trkpt>
      <trkpt lat="44.52921" lon="5.82459">
        <ele>809.8</ele>
        <time>2023-09-28T08:29:24Z</time>
      </trkpt>
      <trkpt lat="44.52926" lon="5.82458">
        <ele>809.8</ele>
        <time>2023-09-28T08:29:25Z</time>
      </trkpt>
      <trkpt lat="44.52931" lon="5.82456">
        <ele>809.8</ele>
        <time>2023-09-28T08:29:26Z</time>
      </trkpt>
      <trkpt lat="44.52936" lon="5.82454">
        <ele>809.8</ele>
        <time>2023-09-28T08:29:27Z</time>
      </trkpt>
      <trkpt lat="44.52941" lon="5.82453">
        <ele>809.7</ele>
        <time>2023-09-28T08:29:28Z</time>
      </trkpt>
      <trkpt lat="44.52945" lon="5.82451">
        <ele>809.7</ele>
        <time>2023-09-28T08:29:29Z</time>
      </trkpt>
      <trkpt lat="44.5295" lon="5.82449">
        <ele>809.8</ele>
        <time>2023-09-28T08:29:30Z</time>
      </trkpt>
      <trkpt lat="44.52955" lon="5.82447">
        <ele>809.8</ele>
        <time>2023-09-28T08:29:31Z</time>
      </trkpt>
      <trkpt lat="44.52959" lon="5.82445">
        <ele>809.8</ele>
        <time>2023-09-28T08:29:32Z</time>
      </trkpt>
      <trkpt lat="44.52964" lon="5.82443">
        <ele>809.9</ele>
        <time>2023-09-28T08:29:33Z</time>
      </trkpt>
      <trkpt lat="44.52968" lon="5.82442">
        <ele>809.9</ele>
        <time>2023-09-28T08:29:34Z</time>
      </trkpt>
      <trkpt lat="44.52973" lon="5.8244">
        <ele>809.9</ele>
        <time>2023-09-28T08:29:35Z</time>
      </trkpt>
      <trkpt lat="44.52977" lon="5.82439">
        <ele>809.9</ele>
        <time>2023-09-28T08:29:36Z</time>
      </trkpt>
      <trkpt lat="44.52981" lon="5.82437">
        <ele>809.9</ele>
        <time>2023-09-28T08:29:37Z</time>
      </trkpt>
      <trkpt lat="44.52985" lon="5.82436">
        <ele>810</ele>
        <time>2023-09-28T08:29:38Z</time>
      </trkpt>
      <trkpt lat="44.52989" lon="5.82435">
        <ele>810</ele>
        <time>2023-09-28T08:29:39Z</time>
      </trkpt>
      <trkpt lat="44.52993" lon="5.82433">
        <ele>810</ele>
        <time>2023-09-28T08:29:40Z</time>
      </trkpt>
      <trkpt lat="44.52996" lon="5.82432">
        <ele>810</ele>
        <time>2023-09-28T08:29:41Z</time>
      </trkpt>
      <trkpt lat="44.53" lon="5.82431">
        <ele>810.1</ele>
        <time>2023-09-28T08:29:42Z</time>
      </trkpt>
      <trkpt lat="44.53006" lon="5.82428">
        <ele>810.1</ele>
        <time>2023-09-28T08:29:44Z</time>
      </trkpt>
      <trkpt lat="44.5301" lon="5.82427">
        <ele>810.1</ele>
        <time>2023-09-28T08:29:45Z</time>
      </trkpt>
      <trkpt lat="44.53015" lon="5.82426">
        <ele>810.1</ele>
        <time>2023-09-28T08:29:47Z</time>
      </trkpt>
      <trkpt lat="44.53019" lon="5.82425">
        <ele>810.1</ele>
        <time>2023-09-28T08:29:48Z</time>
      </trkpt>
      <trkpt lat="44.53023" lon="5.82424">
        <ele>810.2</ele>
        <time>2023-09-28T08:29:49Z</time>
      </trkpt>
      <trkpt lat="44.53028" lon="5.82422">
        <ele>810.2</ele>
        <time>2023-09-28T08:29:50Z</time>
      </trkpt>
      <trkpt lat="44.53032" lon="5.82423">
        <ele>810.2</ele>
        <time>2023-09-28T08:29:51Z</time>
      </trkpt>
      <trkpt lat="44.53037" lon="5.82423">
        <ele>810.2</ele>
        <time>2023-09-28T08:29:52Z</time>
      </trkpt>
      <trkpt lat="44.53042" lon="5.82421">
        <ele>810.2</ele>
        <time>2023-09-28T08:29:53Z</time>
      </trkpt>
      <trkpt lat="44.53046" lon="5.82419">
        <ele>810.3</ele>
        <time>2023-09-28T08:29:54Z</time>
      </trkpt>
      <trkpt lat="44.53051" lon="5.82418">
        <ele>810.3</ele>
        <time>2023-09-28T08:29:55Z</time>
      </trkpt>
      <trkpt lat="44.53056" lon="5.82417">
        <ele>810.4</ele>
        <time>2023-09-28T08:29:56Z</time>
      </trkpt>
      <trkpt lat="44.53062" lon="5.82417">
        <ele>810.4</ele>
        <time>2023-09-28T08:29:58Z</time>
      </trkpt>
      <trkpt lat="44.53069" lon="5.82416">
        <ele>810.5</ele>
        <time>2023-09-28T08:29:59Z</time>
      </trkpt>
      <trkpt lat="44.53072" lon="5.82416">
        <ele>810.5</ele>
        <time>2023-09-28T08:30:00Z</time>
      </trkpt>
      <trkpt lat="44.53082" lon="5.82416">
        <ele>810.6</ele>
        <time>2023-09-28T08:30:02Z</time>
      </trkpt>
      <trkpt lat="44.53086" lon="5.82415">
        <ele>810.7</ele>
        <time>2023-09-28T08:30:04Z</time>
      </trkpt>
      <trkpt lat="44.53094" lon="5.82415">
        <ele>810.8</ele>
        <time>2023-09-28T08:30:05Z</time>
      </trkpt>
      <trkpt lat="44.531" lon="5.82415">
        <ele>810.9</ele>
        <time>2023-09-28T08:30:06Z</time>
      </trkpt>
      <trkpt lat="44.53105" lon="5.82414">
        <ele>810.9</ele>
        <time>2023-09-28T08:30:07Z</time>
      </trkpt>
      <trkpt lat="44.53112" lon="5.82413">
        <ele>811</ele>
        <time>2023-09-28T08:30:09Z</time>
      </trkpt>
      <trkpt lat="44.53116" lon="5.82413">
        <ele>811.1</ele>
        <time>2023-09-28T08:30:10Z</time>
      </trkpt>
      <trkpt lat="44.53121" lon="5.82413">
        <ele>811.1</ele>
        <time>2023-09-28T08:30:11Z</time>
      </trkpt>
      <trkpt lat="44.53126" lon="5.82412">
        <ele>811.2</ele>
        <time>2023-09-28T08:30:13Z</time>
      </trkpt>
      <trkpt lat="44.53132" lon="5.82412">
        <ele>811.3</ele>
        <time>2023-09-28T08:30:14Z</time>
      </trkpt>
      <trkpt lat="44.53138" lon="5.8241">
        <ele>811.3</ele>
        <time>2023-09-28T08:30:15Z</time>
      </trkpt>
      <trkpt lat="44.53142" lon="5.82409">
        <ele>811.4</ele>
        <time>2023-09-28T08:30:16Z</time>
      </trkpt>
      <trkpt lat="44.53148" lon="5.82408">
        <ele>811.5</ele>
        <time>2023-09-28T08:30:18Z</time>
      </trkpt>
      <trkpt lat="44.53154" lon="5.82406">
        <ele>811.6</ele>
        <time>2023-09-28T08:30:19Z</time>
      </trkpt>
      <trkpt lat="44.5316" lon="5.82404">
        <ele>811.7</ele>
        <time>2023-09-28T08:30:21Z</time>
      </trkpt>
      <trkpt lat="44.53164" lon="5.82403">
        <ele>811.8</ele>
        <time>2023-09-28T08:30:22Z</time>
      </trkpt>
      <trkpt lat="44.53172" lon="5.824">
        <ele>812</ele>
        <time>2023-09-28T08:30:23Z</time>
      </trkpt>
      <trkpt lat="44.53176" lon="5.82398">
        <ele>812.1</ele>
        <time>2023-09-28T08:30:24Z</time>
      </trkpt>
      <trkpt lat="44.53182" lon="5.82398">
        <ele>812.3</ele>
        <time>2023-09-28T08:30:26Z</time>
      </trkpt>
      <trkpt lat="44.53188" lon="5.82396">
        <ele>812.6</ele>
        <time>2023-09-28T08:30:27Z</time>
      </trkpt>
      <trkpt lat="44.53192" lon="5.82393">
        <ele>812.8</ele>
        <time>2023-09-28T08:30:28Z</time>
      </trkpt>
      <trkpt lat="44.53195" lon="5.82392">
        <ele>813.1</ele>
        <time>2023-09-28T08:30:29Z</time>
      </trkpt>
      <trkpt lat="44.53198" lon="5.82391">
        <ele>813.3</ele>
        <time>2023-09-28T08:30:30Z</time>
      </trkpt>
      <trkpt lat="44.53203" lon="5.8239">
        <ele>813.5</ele>
        <time>2023-09-28T08:30:32Z</time>
      </trkpt>
      <trkpt lat="44.53207" lon="5.82388">
        <ele>813.8</ele>
        <time>2023-09-28T08:30:33Z</time>
      </trkpt>
      <trkpt lat="44.53211" lon="5.82386">
        <ele>814.1</ele>
        <time>2023-09-28T08:30:34Z</time>
      </trkpt>
      <trkpt lat="44.53215" lon="5.82385">
        <ele>814.4</ele>
        <time>2023-09-28T08:30:36Z</time>
      </trkpt>
      <trkpt lat="44.53219" lon="5.82384">
        <ele>814.7</ele>
        <time>2023-09-28T08:30:37Z</time>
      </trkpt>
      <trkpt lat="44.53222" lon="5.82383">
        <ele>814.9</ele>
        <time>2023-09-28T08:30:38Z</time>
      </trkpt>
      <trkpt lat="44.53227" lon="5.82382">
        <ele>815.3</ele>
        <time>2023-09-28T08:30:39Z</time>
      </trkpt>
      <trkpt lat="44.5323" lon="5.82382">
        <ele>815.5</ele>
        <time>2023-09-28T08:30:40Z</time>
      </trkpt>
      <trkpt lat="44.53233" lon="5.82381">
        <ele>815.7</ele>
        <time>2023-09-28T08:30:41Z</time>
      </trkpt>
      <trkpt lat="44.53236" lon="5.8238">
        <ele>816</ele>
        <time>2023-09-28T08:30:42Z</time>
      </trkpt>
      <trkpt lat="44.53241" lon="5.82377">
        <ele>816.4</ele>
        <time>2023-09-28T08:30:44Z</time>
      </trkpt>
      <trkpt lat="44.53244" lon="5.82376">
        <ele>816.7</ele>
        <time>2023-09-28T08:30:45Z</time>
      </trkpt>
      <trkpt lat="44.53247" lon="5.82375">
        <ele>816.9</ele>
        <time>2023-09-28T08:30:46Z</time>
      </trkpt>
      <trkpt lat="44.53251" lon="5.82374">
        <ele>817.2</ele>
        <time>2023-09-28T08:30:47Z</time>
      </trkpt>
      <trkpt lat="44.53253" lon="5.82373">
        <ele>817.4</ele>
        <time>2023-09-28T08:30:48Z</time>
      </trkpt>
      <trkpt lat="44.53256" lon="5.82372">
        <ele>817.7</ele>
        <time>2023-09-28T08:30:50Z</time>
      </trkpt>
      <trkpt lat="44.53259" lon="5.82371">
        <ele>817.9</ele>
        <time>2023-09-28T08:30:51Z</time>
      </trkpt>
      <trkpt lat="44.53262" lon="5.8237">
        <ele>818.1</ele>
        <time>2023-09-28T08:30:52Z</time>
      </trkpt>
      <trkpt lat="44.53265" lon="5.82369">
        <ele>818.3</ele>
        <time>2023-09-28T08:30:53Z</time>
      </trkpt>
      <trkpt lat="44.53268" lon="5.82369">
        <ele>818.6</ele>
        <time>2023-09-28T08:30:54Z</time>
      </trkpt>
      <trkpt lat="44.53273" lon="5.82366">
        <ele>818.9</ele>
        <time>2023-09-28T08:30:56Z</time>
      </trkpt>
      <trkpt lat="44.53276" lon="5.82365">
        <ele>819.2</ele>
        <time>2023-09-28T08:30:57Z</time>
      </trkpt>
      <trkpt lat="44.5328" lon="5.82364">
        <ele>819.5</ele>
        <time>2023-09-28T08:30:58Z</time>
      </trkpt>
      <trkpt lat="44.53281" lon="5.82363">
        <ele>819.6</ele>
        <time>2023-09-28T08:30:59Z</time>
      </trkpt>
      <trkpt lat="44.53286" lon="5.82361">
        <ele>819.9</ele>
        <time>2023-09-28T08:31:01Z</time>
      </trkpt>
      <trkpt lat="44.53289" lon="5.82359">
        <ele>820.2</ele>
        <time>2023-09-28T08:31:02Z</time>
      </trkpt>
      <trkpt lat="44.5329" lon="5.82358">
        <ele>820.2</ele>
        <time>2023-09-28T08:31:03Z</time>
      </trkpt>
      <trkpt lat="44.53293" lon="5.82357">
        <ele>820.4</ele>
        <time>2023-09-28T08:31:05Z</time>
      </trkpt>
      <trkpt lat="44.53295" lon="5.82355">
        <ele>820.6</ele>
        <time>2023-09-28T08:31:06Z</time>
      </trkpt>
      <trkpt lat="44.533" lon="5.82353">
        <ele>820.9</ele>
        <time>2023-09-28T08:31:07Z</time>
      </trkpt>
      <trkpt lat="44.53302" lon="5.82352">
        <ele>821.1</ele>
        <time>2023-09-28T08:31:08Z</time>
      </trkpt>
      <trkpt lat="44.53306" lon="5.8235">
        <ele>821.4</ele>
        <time>2023-09-28T08:31:10Z</time>
      </trkpt>
      <trkpt lat="44.53309" lon="5.82349">
        <ele>821.6</ele>
        <time>2023-09-28T08:31:11Z</time>
      </trkpt>
      <trkpt lat="44.53313" lon="5.82348">
        <ele>821.8</ele>
        <time>2023-09-28T08:31:12Z</time>
      </trkpt>
      <trkpt lat="44.53314" lon="5.82347">
        <ele>821.8</ele>
        <time>2023-09-28T08:31:13Z</time>
      </trkpt>
      <trkpt lat="44.53318" lon="5.82346">
        <ele>822.1</ele>
        <time>2023-09-28T08:31:15Z</time>
      </trkpt>
      <trkpt lat="44.53321" lon="5.82346">
        <ele>822.2</ele>
        <time>2023-09-28T08:31:16Z</time>
      </trkpt>
      <trkpt lat="44.53325" lon="5.82344">
        <ele>822.5</ele>
        <time>2023-09-28T08:31:18Z</time>
      </trkpt>
      <trkpt lat="44.53328" lon="5.82344">
        <ele>822.7</ele>
        <time>2023-09-28T08:31:19Z</time>
      </trkpt>
      <trkpt lat="44.53329" lon="5.82344">
        <ele>822.8</ele>
        <time>2023-09-28T08:31:20Z</time>
      </trkpt>
      <trkpt lat="44.53331" lon="5.82343">
        <ele>822.9</ele>
        <time>2023-09-28T08:31:21Z</time>
      </trkpt>
      <trkpt lat="44.53333" lon="5.82342">
        <ele>823</ele>
        <time>2023-09-28T08:31:23Z</time>
      </trkpt>
      <trkpt lat="44.53336" lon="5.82341">
        <ele>823.2</ele>
        <time>2023-09-28T08:31:24Z</time>
      </trkpt>
      <trkpt lat="44.53339" lon="5.82341">
        <ele>823.3</ele>
        <time>2023-09-28T08:31:26Z</time>
      </trkpt>
      <trkpt lat="44.5334" lon="5.82342">
        <ele>823.8</ele>
        <time>2023-09-28T08:31:27Z</time>
      </trkpt>
      <trkpt lat="44.53341" lon="5.82343">
        <ele>823.9</ele>
        <time>2023-09-28T08:31:28Z</time>
      </trkpt>
      <trkpt lat="44.53341" lon="5.82343">
        <ele>824</ele>
        <time>2023-09-28T08:31:30Z</time>
      </trkpt>
      <trkpt lat="44.53342" lon="5.82342">
        <ele>824</ele>
        <time>2023-09-28T08:31:31Z</time>
      </trkpt>
      <trkpt lat="44.53343" lon="5.82342">
        <ele>824.1</ele>
        <time>2023-09-28T08:31:32Z</time>
      </trkpt>
      <trkpt lat="44.53343" lon="5.82342">
        <ele>824.2</ele>
        <time>2023-09-28T08:31:34Z</time>
      </trkpt>
      <trkpt lat="44.53344" lon="5.82341">
        <ele>824.2</ele>
        <time>2023-09-28T08:31:35Z</time>
      </trkpt>
      <trkpt lat="44.53345" lon="5.82341">
        <ele>824.3</ele>
        <time>2023-09-28T08:31:36Z</time>
      </trkpt>
      <trkpt lat="44.53347" lon="5.82341">
        <ele>824.4</ele>
        <time>2023-09-28T08:31:37Z</time>
      </trkpt>
      <trkpt lat="44.5335" lon="5.82341">
        <ele>824.4</ele>
        <time>2023-09-28T08:31:39Z</time>
      </trkpt>
      <trkpt lat="44.53354" lon="5.82339">
        <ele>824.4</ele>
        <time>2023-09-28T08:31:40Z</time>
      </trkpt>
      <trkpt lat="44.53356" lon="5.82336">
        <ele>824.9</ele>
        <time>2023-09-28T08:31:42Z</time>
      </trkpt>
      <trkpt lat="44.53358" lon="5.82334">
        <ele>825.1</ele>
        <time>2023-09-28T08:31:43Z</time>
      </trkpt>
      <trkpt lat="44.53362" lon="5.82331">
        <ele>825.3</ele>
        <time>2023-09-28T08:31:44Z</time>
      </trkpt>
      <trkpt lat="44.53363" lon="5.8233">
        <ele>825.4</ele>
        <time>2023-09-28T08:31:45Z</time>
      </trkpt>
      <trkpt lat="44.53367" lon="5.82329">
        <ele>825.6</ele>
        <time>2023-09-28T08:31:46Z</time>
      </trkpt>
      <trkpt lat="44.53368" lon="5.82328">
        <ele>825.7</ele>
        <time>2023-09-28T08:31:47Z</time>
      </trkpt>
      <trkpt lat="44.53372" lon="5.82327">
        <ele>825.9</ele>
        <time>2023-09-28T08:31:48Z</time>
      </trkpt>
      <trkpt lat="44.53373" lon="5.82327">
        <ele>826</ele>
        <time>2023-09-28T08:31:49Z</time>
      </trkpt>
      <trkpt lat="44.53377" lon="5.82325">
        <ele>826.2</ele>
        <time>2023-09-28T08:31:51Z</time>
      </trkpt>
      <trkpt lat="44.53379" lon="5.82325">
        <ele>826.3</ele>
        <time>2023-09-28T08:31:52Z</time>
      </trkpt>
      <trkpt lat="44.5338" lon="5.82324">
        <ele>826.4</ele>
        <time>2023-09-28T08:31:53Z</time>
      </trkpt>
      <trkpt lat="44.53384" lon="5.82322">
        <ele>826.6</ele>
        <time>2023-09-28T08:31:54Z</time>
      </trkpt>
      <trkpt lat="44.53384" lon="5.82321">
        <ele>826.6</ele>
        <time>2023-09-28T08:31:55Z</time>
      </trkpt>
      <trkpt lat="44.53386" lon="5.8232">
        <ele>826.7</ele>
        <time>2023-09-28T08:31:56Z</time>
      </trkpt>
      <trkpt lat="44.53389" lon="5.82318">
        <ele>827</ele>
        <time>2023-09-28T08:31:58Z</time>
      </trkpt>
      <trkpt lat="44.53393" lon="5.82317">
        <ele>827.3</ele>
        <time>2023-09-28T08:31:59Z</time>
      </trkpt>
      <trkpt lat="44.53394" lon="5.82317">
        <ele>827.4</ele>
        <time>2023-09-28T08:32:00Z</time>
      </trkpt>
      <trkpt lat="44.53397" lon="5.82319">
        <ele>827.8</ele>
        <time>2023-09-28T08:32:01Z</time>
      </trkpt>
      <trkpt lat="44.53401" lon="5.82319">
        <ele>828.1</ele>
        <time>2023-09-28T08:32:02Z</time>
      </trkpt>
      <trkpt lat="44.53402" lon="5.82318">
        <ele>828.3</ele>
        <time>2023-09-28T08:32:03Z</time>
      </trkpt>
      <trkpt lat="44.53404" lon="5.82317">
        <ele>828.4</ele>
        <time>2023-09-28T08:32:04Z</time>
      </trkpt>
      <trkpt lat="44.53405" lon="5.82315">
        <ele>828.7</ele>
        <time>2023-09-28T08:32:06Z</time>
      </trkpt>
      <trkpt lat="44.53407" lon="5.82314">
        <ele>828.8</ele>
        <time>2023-09-28T08:32:07Z</time>
      </trkpt>
      <trkpt lat="44.53408" lon="5.82314">
        <ele>828.8</ele>
        <time>2023-09-28T08:32:08Z</time>
      </trkpt>
      <trkpt lat="44.5341" lon="5.82315">
        <ele>828.7</ele>
        <time>2023-09-28T08:32:09Z</time>
      </trkpt>
      <trkpt lat="44.53411" lon="5.82315">
        <ele>828.7</ele>
        <time>2023-09-28T08:32:10Z</time>
      </trkpt>
      <trkpt lat="44.53411" lon="5.82315">
        <ele>828.6</ele>
        <time>2023-09-28T08:32:11Z</time>
      </trkpt>
      <trkpt lat="44.5341" lon="5.82315">
        <ele>828.6</ele>
        <time>2023-09-28T08:32:13Z</time>
      </trkpt>
      <trkpt lat="44.5341" lon="5.82315">
        <ele>828.6</ele>
        <time>2023-09-28T08:32:14Z</time>
      </trkpt>
      <trkpt lat="44.53411" lon="5.82315">
        <ele>828.5</ele>
        <time>2023-09-28T08:32:15Z</time>
      </trkpt>
      <trkpt lat="44.53411" lon="5.82316">
        <ele>828.5</ele>
        <time>2023-09-28T08:32:16Z</time>
      </trkpt>
      <trkpt lat="44.53411" lon="5.82316">
        <ele>828.5</ele>
        <time>2023-09-28T08:32:18Z</time>
      </trkpt>
      <trkpt lat="44.5341" lon="5.82316">
        <ele>828.5</ele>
        <time>2023-09-28T08:32:19Z</time>
      </trkpt>
      <trkpt lat="44.5341" lon="5.82316">
        <ele>828.4</ele>
        <time>2023-09-28T08:32:21Z</time>
      </trkpt>
      <trkpt lat="44.53409" lon="5.82317">
        <ele>828.4</ele>
        <time>2023-09-28T08:32:22Z</time>
      </trkpt>
      <trkpt lat="44.53409" lon="5.82317">
        <ele>828.4</ele>
        <time>2023-09-28T08:32:23Z</time>
      </trkpt>
      <trkpt lat="44.53408" lon="5.82317">
        <ele>828.3</ele>
        <time>2023-09-28T08:32:25Z</time>
      </trkpt>
      <trkpt lat="44.53408" lon="5.82317">
        <ele>828.3</ele>
        <time>2023-09-28T08:32:26Z</time>
      </trkpt>
      <trkpt lat="44.53407" lon="5.82317">
        <ele>828.3</ele>
        <time>2023-09-28T08:32:27Z</time>
      </trkpt>
      <trkpt lat="44.53407" lon="5.82318">
        <ele>828.2</ele>
        <time>2023-09-28T08:32:29Z</time>
      </trkpt>
      <trkpt lat="44.53407" lon="5.82318">
        <ele>828.2</ele>
        <time>2023-09-28T08:32:30Z</time>
      </trkpt>
      <trkpt lat="44.53406" lon="5.82318">
        <ele>828.2</ele>
        <time>2023-09-28T08:32:31Z</time>
      </trkpt>
      <trkpt lat="44.53406" lon="5.82318">
        <ele>828.1</ele>
        <time>2023-09-28T08:32:33Z</time>
      </trkpt>
      <trkpt lat="44.53405" lon="5.82319">
        <ele>828.1</ele>
        <time>2023-09-28T08:32:34Z</time>
      </trkpt>
      <trkpt lat="44.53405" lon="5.82319">
        <ele>828.1</ele>
        <time>2023-09-28T08:32:35Z</time>
      </trkpt>
      <trkpt lat="44.53404" lon="5.82319">
        <ele>828</ele>
        <time>2023-09-28T08:32:37Z</time>
      </trkpt>
      <trkpt lat="44.53404" lon="5.82319">
        <ele>828</ele>
        <time>2023-09-28T08:32:38Z</time>
      </trkpt>
      <trkpt lat="44.53403" lon="5.82319">
        <ele>828</ele>
        <time>2023-09-28T08:32:39Z</time>
      </trkpt>
      <trkpt lat="44.53403" lon="5.8232">
        <ele>827.9</ele>
        <time>2023-09-28T08:32:41Z</time>
      </trkpt>
      <trkpt lat="44.53402" lon="5.8232">
        <ele>827.9</ele>
        <time>2023-09-28T08:45:10Z</time>
      </trkpt>
      <trkpt lat="44.53402" lon="5.8232">
        <ele>827.9</ele>
        <time>2023-09-28T08:45:11Z</time>
      </trkpt>
      <trkpt lat="44.53397" lon="5.8232">
        <ele>827.6</ele>
        <time>2023-09-28T08:45:13Z</time>
      </trkpt>
      <trkpt lat="44.53392" lon="5.82321">
        <ele>827.2</ele>
        <time>2023-09-28T08:45:14Z</time>
      </trkpt>
      <trkpt lat="44.53387" lon="5.82323">
        <ele>826.7</ele>
        <time>2023-09-28T08:45:15Z</time>
      </trkpt>
      <trkpt lat="44.53383" lon="5.82324">
        <ele>826.5</ele>
        <time>2023-09-28T08:45:16Z</time>
      </trkpt>
      <trkpt lat="44.53379" lon="5.82326">
        <ele>826.3</ele>
        <time>2023-09-28T08:45:17Z</time>
      </trkpt>
      <trkpt lat="44.53376" lon="5.82327">
        <ele>826.1</ele>
        <time>2023-09-28T08:45:19Z</time>
      </trkpt>
      <trkpt lat="44.53372" lon="5.82326">
        <ele>825.9</ele>
        <time>2023-09-28T08:45:20Z</time>
      </trkpt>
      <trkpt lat="44.53369" lon="5.82328">
        <ele>825.7</ele>
        <time>2023-09-28T08:45:21Z</time>
      </trkpt>
      <trkpt lat="44.53367" lon="5.82331">
        <ele>825.6</ele>
        <time>2023-09-28T08:45:23Z</time>
      </trkpt>
      <trkpt lat="44.53363" lon="5.8233">
        <ele>825.4</ele>
        <time>2023-09-28T08:45:24Z</time>
      </trkpt>
      <trkpt lat="44.5336" lon="5.82329">
        <ele>825.2</ele>
        <time>2023-09-28T08:45:25Z</time>
      </trkpt>
      <trkpt lat="44.53355" lon="5.82329">
        <ele>824.9</ele>
        <time>2023-09-28T08:45:26Z</time>
      </trkpt>
      <trkpt lat="44.53351" lon="5.82328">
        <ele>824.7</ele>
        <time>2023-09-28T08:45:27Z</time>
      </trkpt>
      <trkpt lat="44.53348" lon="5.82327">
        <ele>824.5</ele>
        <time>2023-09-28T08:45:28Z</time>
      </trkpt>
      <trkpt lat="44.53342" lon="5.82328">
        <ele>824.3</ele>
        <time>2023-09-28T08:45:30Z</time>
      </trkpt>
      <trkpt lat="44.53335" lon="5.82334">
        <ele>823.3</ele>
        <time>2023-09-28T08:45:31Z</time>
      </trkpt>
      <trkpt lat="44.53331" lon="5.82337">
        <ele>823</ele>
        <time>2023-09-28T08:45:32Z</time>
      </trkpt>
      <trkpt lat="44.53327" lon="5.82339">
        <ele>822.7</ele>
        <time>2023-09-28T08:45:33Z</time>
      </trkpt>
      <trkpt lat="44.53323" lon="5.8234">
        <ele>822.4</ele>
        <time>2023-09-28T08:45:34Z</time>
      </trkpt>
      <trkpt lat="44.53321" lon="5.82341">
        <ele>822.3</ele>
        <time>2023-09-28T08:45:36Z</time>
      </trkpt>
      <trkpt lat="44.53317" lon="5.82342">
        <ele>822</ele>
        <time>2023-09-28T08:45:37Z</time>
      </trkpt>
      <trkpt lat="44.53313" lon="5.82344">
        <ele>821.8</ele>
        <time>2023-09-28T08:45:38Z</time>
      </trkpt>
      <trkpt lat="44.5331" lon="5.82346">
        <ele>821.6</ele>
        <time>2023-09-28T08:45:39Z</time>
      </trkpt>
      <trkpt lat="44.53304" lon="5.8235">
        <ele>821.3</ele>
        <time>2023-09-28T08:45:41Z</time>
      </trkpt>
      <trkpt lat="44.53299" lon="5.82352">
        <ele>820.9</ele>
        <time>2023-09-28T08:45:42Z</time>
      </trkpt>
      <trkpt lat="44.53293" lon="5.82355">
        <ele>820.5</ele>
        <time>2023-09-28T08:45:43Z</time>
      </trkpt>
      <trkpt lat="44.53288" lon="5.82358">
        <ele>820.1</ele>
        <time>2023-09-28T08:45:44Z</time>
      </trkpt>
      <trkpt lat="44.53282" lon="5.82361">
        <ele>819.7</ele>
        <time>2023-09-28T08:45:45Z</time>
      </trkpt>
      <trkpt lat="44.53276" lon="5.82363">
        <ele>819.3</ele>
        <time>2023-09-28T08:45:46Z</time>
      </trkpt>
      <trkpt lat="44.5327" lon="5.82365">
        <ele>818.8</ele>
        <time>2023-09-28T08:45:47Z</time>
      </trkpt>
      <trkpt lat="44.53266" lon="5.82366">
        <ele>818.5</ele>
        <time>2023-09-28T08:45:48Z</time>
      </trkpt>
      <trkpt lat="44.53261" lon="5.82367">
        <ele>818.1</ele>
        <time>2023-09-28T08:45:49Z</time>
      </trkpt>
      <trkpt lat="44.53255" lon="5.82369">
        <ele>817.6</ele>
        <time>2023-09-28T08:45:50Z</time>
      </trkpt>
      <trkpt lat="44.53249" lon="5.8237">
        <ele>817.1</ele>
        <time>2023-09-28T08:45:51Z</time>
      </trkpt>
      <trkpt lat="44.53243" lon="5.82372">
        <ele>816.6</ele>
        <time>2023-09-28T08:45:52Z</time>
      </trkpt>
      <trkpt lat="44.53235" lon="5.82374">
        <ele>816</ele>
        <time>2023-09-28T08:45:53Z</time>
      </trkpt>
      <trkpt lat="44.53228" lon="5.82376">
        <ele>815.4</ele>
        <time>2023-09-28T08:45:54Z</time>
      </trkpt>
      <trkpt lat="44.5322" lon="5.82379">
        <ele>814.8</ele>
        <time>2023-09-28T08:45:55Z</time>
      </trkpt>
      <trkpt lat="44.53212" lon="5.82381">
        <ele>814.3</ele>
        <time>2023-09-28T08:45:56Z</time>
      </trkpt>
      <trkpt lat="44.53203" lon="5.82384">
        <ele>813.7</ele>
        <time>2023-09-28T08:45:57Z</time>
      </trkpt>
      <trkpt lat="44.53195" lon="5.82386">
        <ele>813.1</ele>
        <time>2023-09-28T08:45:58Z</time>
      </trkpt>
      <trkpt lat="44.53187" lon="5.82388">
        <ele>812.6</ele>
        <time>2023-09-28T08:45:59Z</time>
      </trkpt>
      <trkpt lat="44.53178" lon="5.82392">
        <ele>812.2</ele>
        <time>2023-09-28T08:46:00Z</time>
      </trkpt>
      <trkpt lat="44.5317" lon="5.82395">
        <ele>811.9</ele>
        <time>2023-09-28T08:46:01Z</time>
      </trkpt>
      <trkpt lat="44.53161" lon="5.82398">
        <ele>811.7</ele>
        <time>2023-09-28T08:46:02Z</time>
      </trkpt>
      <trkpt lat="44.53153" lon="5.82401">
        <ele>811.6</ele>
        <time>2023-09-28T08:46:03Z</time>
      </trkpt>
      <trkpt lat="44.53144" lon="5.82403">
        <ele>811.4</ele>
        <time>2023-09-28T08:46:04Z</time>
      </trkpt>
      <trkpt lat="44.53136" lon="5.82406">
        <ele>811.3</ele>
        <time>2023-09-28T08:46:05Z</time>
      </trkpt>
      <trkpt lat="44.53129" lon="5.82407">
        <ele>811.2</ele>
        <time>2023-09-28T08:46:06Z</time>
      </trkpt>
      <trkpt lat="44.53121" lon="5.82409">
        <ele>811.2</ele>
        <time>2023-09-28T08:46:07Z</time>
      </trkpt>
      <trkpt lat="44.53114" lon="5.82409">
        <ele>811.1</ele>
        <time>2023-09-28T08:46:08Z</time>
      </trkpt>
      <trkpt lat="44.53108" lon="5.82409">
        <ele>811</ele>
        <time>2023-09-28T08:46:09Z</time>
      </trkpt>
      <trkpt lat="44.53102" lon="5.82409">
        <ele>810.9</ele>
        <time>2023-09-28T08:46:10Z</time>
      </trkpt>
      <trkpt lat="44.53097" lon="5.8241">
        <ele>810.8</ele>
        <time>2023-09-28T08:46:11Z</time>
      </trkpt>
      <trkpt lat="44.53091" lon="5.8241">
        <ele>810.8</ele>
        <time>2023-09-28T08:46:12Z</time>
      </trkpt>
      <trkpt lat="44.53086" lon="5.8241">
        <ele>810.7</ele>
        <time>2023-09-28T08:46:13Z</time>
      </trkpt>
      <trkpt lat="44.5308" lon="5.8241">
        <ele>810.6</ele>
        <time>2023-09-28T08:46:14Z</time>
      </trkpt>
      <trkpt lat="44.53074" lon="5.8241">
        <ele>810.6</ele>
        <time>2023-09-28T08:46:15Z</time>
      </trkpt>
      <trkpt lat="44.53069" lon="5.82411">
        <ele>810.5</ele>
        <time>2023-09-28T08:46:16Z</time>
      </trkpt>
      <trkpt lat="44.53063" lon="5.82411">
        <ele>810.4</ele>
        <time>2023-09-28T08:46:17Z</time>
      </trkpt>
      <trkpt lat="44.53058" lon="5.82412">
        <ele>810.4</ele>
        <time>2023-09-28T08:46:18Z</time>
      </trkpt>
      <trkpt lat="44.53052" lon="5.82412">
        <ele>810.3</ele>
        <time>2023-09-28T08:46:19Z</time>
      </trkpt>
      <trkpt lat="44.53047" lon="5.82413">
        <ele>810.3</ele>
        <time>2023-09-28T08:46:20Z</time>
      </trkpt>
      <trkpt lat="44.53042" lon="5.82413">
        <ele>810.2</ele>
        <time>2023-09-28T08:46:21Z</time>
      </trkpt>
      <trkpt lat="44.53036" lon="5.82413">
        <ele>810.2</ele>
        <time>2023-09-28T08:46:22Z</time>
      </trkpt>
      <trkpt lat="44.53031" lon="5.82414">
        <ele>810.2</ele>
        <time>2023-09-28T08:46:23Z</time>
      </trkpt>
      <trkpt lat="44.53026" lon="5.82415">
        <ele>810.2</ele>
        <time>2023-09-28T08:46:24Z</time>
      </trkpt>
      <trkpt lat="44.53021" lon="5.82417">
        <ele>810.2</ele>
        <time>2023-09-28T08:46:25Z</time>
      </trkpt>
      <trkpt lat="44.53016" lon="5.82417">
        <ele>810.1</ele>
        <time>2023-09-28T08:46:26Z</time>
      </trkpt>
      <trkpt lat="44.53011" lon="5.82419">
        <ele>810.1</ele>
        <time>2023-09-28T08:46:27Z</time>
      </trkpt>
      <trkpt lat="44.53006" lon="5.82421">
        <ele>810.1</ele>
        <time>2023-09-28T08:46:28Z</time>
      </trkpt>
      <trkpt lat="44.53002" lon="5.82424">
        <ele>810.1</ele>
        <time>2023-09-28T08:46:29Z</time>
      </trkpt>
      <trkpt lat="44.52997" lon="5.82426">
        <ele>810</ele>
        <time>2023-09-28T08:46:30Z</time>
      </trkpt>
      <trkpt lat="44.52992" lon="5.82428">
        <ele>810</ele>
        <time>2023-09-28T08:46:31Z</time>
      </trkpt>
      <trkpt lat="44.52987" lon="5.8243">
        <ele>810</ele>
        <time>2023-09-28T08:46:32Z</time>
      </trkpt>
      <trkpt lat="44.52983" lon="5.82432">
        <ele>810</ele>
        <time>2023-09-28T08:46:33Z</time>
      </trkpt>
      <trkpt lat="44.52977" lon="5.82434">
        <ele>809.9</ele>
        <time>2023-09-28T08:46:34Z</time>
      </trkpt>
      <trkpt lat="44.52972" lon="5.82436">
        <ele>809.9</ele>
        <time>2023-09-28T08:46:35Z</time>
      </trkpt>
      <trkpt lat="44.52967" lon="5.82438">
        <ele>809.9</ele>
        <time>2023-09-28T08:46:36Z</time>
      </trkpt>
      <trkpt lat="44.52962" lon="5.8244">
        <ele>809.8</ele>
        <time>2023-09-28T08:46:37Z</time>
      </trkpt>
      <trkpt lat="44.52957" lon="5.82442">
        <ele>809.8</ele>
        <time>2023-09-28T08:46:38Z</time>
      </trkpt>
      <trkpt lat="44.52952" lon="5.82444">
        <ele>809.8</ele>
        <time>2023-09-28T08:46:39Z</time>
      </trkpt>
      <trkpt lat="44.52946" lon="5.82446">
        <ele>809.7</ele>
        <time>2023-09-28T08:46:40Z</time>
      </trkpt>
      <trkpt lat="44.52941" lon="5.82448">
        <ele>809.7</ele>
        <time>2023-09-28T08:46:41Z</time>
      </trkpt>
      <trkpt lat="44.52936" lon="5.8245">
        <ele>809.7</ele>
        <time>2023-09-28T08:46:42Z</time>
      </trkpt>
      <trkpt lat="44.52931" lon="5.82452">
        <ele>809.8</ele>
        <time>2023-09-28T08:46:43Z</time>
      </trkpt>
      <trkpt lat="44.52926" lon="5.82453">
        <ele>809.8</ele>
        <time>2023-09-28T08:46:44Z</time>
      </trkpt>
      <trkpt lat="44.52922" lon="5.82455">
        <ele>809.8</ele>
        <time>2023-09-28T08:46:45Z</time>
      </trkpt>
      <trkpt lat="44.52917" lon="5.82457">
        <ele>809.8</ele>
        <time>2023-09-28T08:46:46Z</time>
      </trkpt>
      <trkpt lat="44.52913" lon="5.82458">
        <ele>809.9</ele>
        <time>2023-09-28T08:46:47Z</time>
      </trkpt>
      <trkpt lat="44.52909" lon="5.8246">
        <ele>809.9</ele>
        <time>2023-09-28T08:46:48Z</time>
      </trkpt>
      <trkpt lat="44.52905" lon="5.82462">
        <ele>809.9</ele>
        <time>2023-09-28T08:46:49Z</time>
      </trkpt>
      <trkpt lat="44.52901" lon="5.82463">
        <ele>809.9</ele>
        <time>2023-09-28T08:46:50Z</time>
      </trkpt>
      <trkpt lat="44.52897" lon="5.82465">
        <ele>809.8</ele>
        <time>2023-09-28T08:46:51Z</time>
      </trkpt>
      <trkpt lat="44.52893" lon="5.82466">
        <ele>809.8</ele>
        <time>2023-09-28T08:46:52Z</time>
      </trkpt>
      <trkpt lat="44.52889" lon="5.82467">
        <ele>809.8</ele>
        <time>2023-09-28T08:46:53Z</time>
      </trkpt>
      <trkpt lat="44.52885" lon="5.82469">
        <ele>809.9</ele>
        <time>2023-09-28T08:46:54Z</time>
      </trkpt>
      <trkpt lat="44.52881" lon="5.8247">
        <ele>809.9</ele>
        <time>2023-09-28T08:46:55Z</time>
      </trkpt>
      <trkpt lat="44.52877" lon="5.82472">
        <ele>810</ele>
        <time>2023-09-28T08:46:57Z</time>
      </trkpt>
      <trkpt lat="44.52872" lon="5.82473">
        <ele>810.2</ele>
        <time>2023-09-28T08:46:58Z</time>
      </trkpt>
      <trkpt lat="44.52868" lon="5.82474">
        <ele>810.3</ele>
        <time>2023-09-28T08:46:59Z</time>
      </trkpt>
      <trkpt lat="44.52864" lon="5.82476">
        <ele>810.4</ele>
        <time>2023-09-28T08:47:00Z</time>
      </trkpt>
      <trkpt lat="44.52859" lon="5.82477">
        <ele>810.5</ele>
        <time>2023-09-28T08:47:01Z</time>
      </trkpt>
      <trkpt lat="44.52855" lon="5.82479">
        <ele>810.6</ele>
        <time>2023-09-28T08:47:02Z</time>
      </trkpt>
      <trkpt lat="44.5285" lon="5.82481">
        <ele>810.8</ele>
        <time>2023-09-28T08:47:03Z</time>
      </trkpt>
      <trkpt lat="44.52846" lon="5.82482">
        <ele>810.9</ele>
        <time>2023-09-28T08:47:05Z</time>
      </trkpt>
      <trkpt lat="44.52841" lon="5.82483">
        <ele>811.1</ele>
        <time>2023-09-28T08:47:06Z</time>
      </trkpt>
      <trkpt lat="44.52837" lon="5.82484">
        <ele>811.2</ele>
        <time>2023-09-28T08:47:07Z</time>
      </trkpt>
      <trkpt lat="44.52834" lon="5.82485">
        <ele>811.3</ele>
        <time>2023-09-28T08:47:08Z</time>
      </trkpt>
      <trkpt lat="44.52829" lon="5.82487">
        <ele>811.5</ele>
        <time>2023-09-28T08:47:09Z</time>
      </trkpt>
      <trkpt lat="44.52827" lon="5.8249">
        <ele>811.6</ele>
        <time>2023-09-28T08:47:10Z</time>
      </trkpt>
      <trkpt lat="44.52824" lon="5.82493">
        <ele>811.7</ele>
        <time>2023-09-28T08:47:11Z</time>
      </trkpt>
      <trkpt lat="44.52822" lon="5.82498">
        <ele>811.8</ele>
        <time>2023-09-28T08:47:13Z</time>
      </trkpt>
      <trkpt lat="44.52823" lon="5.82505">
        <ele>811.9</ele>
        <time>2023-09-28T08:47:14Z</time>
      </trkpt>
      <trkpt lat="44.52826" lon="5.82509">
        <ele>812</ele>
        <time>2023-09-28T08:47:15Z</time>
      </trkpt>
      <trkpt lat="44.52828" lon="5.82513">
        <ele>812.1</ele>
        <time>2023-09-28T08:47:16Z</time>
      </trkpt>
      <trkpt lat="44.52831" lon="5.82518">
        <ele>812.1</ele>
        <time>2023-09-28T08:47:17Z</time>
      </trkpt>
      <trkpt lat="44.52834" lon="5.82525">
        <ele>812.1</ele>
        <time>2023-09-28T08:47:19Z</time>
      </trkpt>
      <trkpt lat="44.52837" lon="5.82529">
        <ele>812.1</ele>
        <time>2023-09-28T08:47:20Z</time>
      </trkpt>
      <trkpt lat="44.52839" lon="5.82534">
        <ele>812.1</ele>
        <time>2023-09-28T08:47:21Z</time>
      </trkpt>
      <trkpt lat="44.52842" lon="5.82538">
        <ele>812.1</ele>
        <time>2023-09-28T08:47:22Z</time>
      </trkpt>
      <trkpt lat="44.52844" lon="5.82543">
        <ele>812.1</ele>
        <time>2023-09-28T08:47:24Z</time>
      </trkpt>
      <trkpt lat="44.52847" lon="5.82548">
        <ele>812.2</ele>
        <time>2023-09-28T08:47:25Z</time>
      </trkpt>
      <trkpt lat="44.52849" lon="5.82552">
        <ele>812.2</ele>
        <time>2023-09-28T08:47:26Z</time>
      </trkpt>
      <trkpt lat="44.52851" lon="5.82557">
        <ele>812.2</ele>
        <time>2023-09-28T08:47:27Z</time>
      </trkpt>
      <trkpt lat="44.52854" lon="5.82562">
        <ele>812.2</ele>
        <time>2023-09-28T08:47:28Z</time>
      </trkpt>
      <trkpt lat="44.52857" lon="5.82571">
        <ele>812.2</ele>
        <time>2023-09-28T08:47:30Z</time>
      </trkpt>
      <trkpt lat="44.52859" lon="5.82576">
        <ele>812.2</ele>
        <time>2023-09-28T08:47:31Z</time>
      </trkpt>
      <trkpt lat="44.5286" lon="5.82581">
        <ele>812.3</ele>
        <time>2023-09-28T08:47:32Z</time>
      </trkpt>
      <trkpt lat="44.52862" lon="5.82588">
        <ele>812.3</ele>
        <time>2023-09-28T08:47:33Z</time>
      </trkpt>
      <trkpt lat="44.52864" lon="5.82595">
        <ele>812.3</ele>
        <time>2023-09-28T08:47:35Z</time>
      </trkpt>
      <trkpt lat="44.52866" lon="5.82601">
        <ele>812.4</ele>
        <time>2023-09-28T08:47:36Z</time>
      </trkpt>
      <trkpt lat="44.52868" lon="5.82608">
        <ele>812.5</ele>
        <time>2023-09-28T08:47:37Z</time>
      </trkpt>
      <trkpt lat="44.5287" lon="5.82614">
        <ele>812.5</ele>
        <time>2023-09-28T08:47:38Z</time>
      </trkpt>
      <trkpt lat="44.52871" lon="5.8262">
        <ele>812.6</ele>
        <time>2023-09-28T08:47:39Z</time>
      </trkpt>
      <trkpt lat="44.52873" lon="5.82626">
        <ele>812.6</ele>
        <time>2023-09-28T08:47:40Z</time>
      </trkpt>
      <trkpt lat="44.52875" lon="5.82633">
        <ele>812.6</ele>
        <time>2023-09-28T08:47:41Z</time>
      </trkpt>
      <trkpt lat="44.52877" lon="5.82639">
        <ele>812.6</ele>
        <time>2023-09-28T08:47:43Z</time>
      </trkpt>
      <trkpt lat="44.52878" lon="5.82645">
        <ele>812.7</ele>
        <time>2023-09-28T08:47:44Z</time>
      </trkpt>
      <trkpt lat="44.5288" lon="5.82651">
        <ele>812.7</ele>
        <time>2023-09-28T08:47:45Z</time>
      </trkpt>
      <trkpt lat="44.52882" lon="5.82657">
        <ele>812.7</ele>
        <time>2023-09-28T08:47:46Z</time>
      </trkpt>
      <trkpt lat="44.52884" lon="5.82663">
        <ele>812.8</ele>
        <time>2023-09-28T08:47:47Z</time>
      </trkpt>
      <trkpt lat="44.52886" lon="5.82668">
        <ele>812.8</ele>
        <time>2023-09-28T08:47:48Z</time>
      </trkpt>
      <trkpt lat="44.52888" lon="5.82675">
        <ele>812.9</ele>
        <time>2023-09-28T08:47:49Z</time>
      </trkpt>
      <trkpt lat="44.5289" lon="5.82682">
        <ele>812.9</ele>
        <time>2023-09-28T08:47:51Z</time>
      </trkpt>
      <trkpt lat="44.52891" lon="5.82687">
        <ele>813</ele>
        <time>2023-09-28T08:47:52Z</time>
      </trkpt>
      <trkpt lat="44.52894" lon="5.82695">
        <ele>813</ele>
        <time>2023-09-28T08:47:53Z</time>
      </trkpt>
      <trkpt lat="44.52896" lon="5.82701">
        <ele>813.1</ele>
        <time>2023-09-28T08:47:54Z</time>
      </trkpt>
      <trkpt lat="44.52898" lon="5.82707">
        <ele>813.1</ele>
        <time>2023-09-28T08:47:55Z</time>
      </trkpt>
      <trkpt lat="44.52899" lon="5.82713">
        <ele>813.2</ele>
        <time>2023-09-28T08:47:56Z</time>
      </trkpt>
      <trkpt lat="44.52901" lon="5.8272">
        <ele>813.2</ele>
        <time>2023-09-28T08:47:57Z</time>
      </trkpt>
      <trkpt lat="44.52903" lon="5.82726">
        <ele>813.2</ele>
        <time>2023-09-28T08:47:59Z</time>
      </trkpt>
      <trkpt lat="44.52905" lon="5.82733">
        <ele>813.2</ele>
        <time>2023-09-28T08:48:00Z</time>
      </trkpt>
      <trkpt lat="44.52906" lon="5.82739">
        <ele>813.3</ele>
        <time>2023-09-28T08:48:01Z</time>
      </trkpt>
      <trkpt lat="44.52908" lon="5.82743">
        <ele>813.3</ele>
        <time>2023-09-28T08:48:02Z</time>
      </trkpt>
      <trkpt lat="44.5291" lon="5.82751">
        <ele>813.3</ele>
        <time>2023-09-28T08:48:03Z</time>
      </trkpt>
      <trkpt lat="44.52911" lon="5.82756">
        <ele>813.3</ele>
        <time>2023-09-28T08:48:04Z</time>
      </trkpt>
      <trkpt lat="44.52913" lon="5.82762">
        <ele>813.4</ele>
        <time>2023-09-28T08:48:05Z</time>
      </trkpt>
      <trkpt lat="44.52915" lon="5.82767">
        <ele>813.4</ele>
        <time>2023-09-28T08:48:06Z</time>
      </trkpt>
      <trkpt lat="44.52918" lon="5.82777">
        <ele>813.5</ele>
        <time>2023-09-28T08:48:08Z</time>
      </trkpt>
      <trkpt lat="44.5292" lon="5.82782">
        <ele>813.5</ele>
        <time>2023-09-28T08:48:09Z</time>
      </trkpt>
      <trkpt lat="44.52922" lon="5.82788">
        <ele>813.6</ele>
        <time>2023-09-28T08:48:10Z</time>
      </trkpt>
      <trkpt lat="44.52927" lon="5.82798">
        <ele>813.8</ele>
        <time>2023-09-28T08:48:12Z</time>
      </trkpt>
      <trkpt lat="44.52931" lon="5.82803">
        <ele>813.9</ele>
        <time>2023-09-28T08:48:14Z</time>
      </trkpt>
      <trkpt lat="44.52935" lon="5.82807">
        <ele>814</ele>
        <time>2023-09-28T08:48:15Z</time>
      </trkpt>
      <trkpt lat="44.52938" lon="5.8281">
        <ele>814</ele>
        <time>2023-09-28T08:48:16Z</time>
      </trkpt>
      <trkpt lat="44.52941" lon="5.82813">
        <ele>814.1</ele>
        <time>2023-09-28T08:48:17Z</time>
      </trkpt>
      <trkpt lat="44.52945" lon="5.82815">
        <ele>814.2</ele>
        <time>2023-09-28T08:48:18Z</time>
      </trkpt>
      <trkpt lat="44.52949" lon="5.82817">
        <ele>814.2</ele>
        <time>2023-09-28T08:48:19Z</time>
      </trkpt>
      <trkpt lat="44.52953" lon="5.8282">
        <ele>814.3</ele>
        <time>2023-09-28T08:48:20Z</time>
      </trkpt>
      <trkpt lat="44.52957" lon="5.82824">
        <ele>814.4</ele>
        <time>2023-09-28T08:48:22Z</time>
      </trkpt>
      <trkpt lat="44.52961" lon="5.8283">
        <ele>814.4</ele>
        <time>2023-09-28T08:48:23Z</time>
      </trkpt>
      <trkpt lat="44.52964" lon="5.82835">
        <ele>814.4</ele>
        <time>2023-09-28T08:48:25Z</time>
      </trkpt>
      <trkpt lat="44.52965" lon="5.82838">
        <ele>814.4</ele>
        <time>2023-09-28T08:48:26Z</time>
      </trkpt>
      <trkpt lat="44.52966" lon="5.82844">
        <ele>814.5</ele>
        <time>2023-09-28T08:48:27Z</time>
      </trkpt>
      <trkpt lat="44.52967" lon="5.82848">
        <ele>814.5</ele>
        <time>2023-09-28T08:48:28Z</time>
      </trkpt>
      <trkpt lat="44.5297" lon="5.82852">
        <ele>814.5</ele>
        <time>2023-09-28T08:48:29Z</time>
      </trkpt>
      <trkpt lat="44.5297" lon="5.82857">
        <ele>814.5</ele>
        <time>2023-09-28T08:48:30Z</time>
      </trkpt>
      <trkpt lat="44.52971" lon="5.82861">
        <ele>814.5</ele>
        <time>2023-09-28T08:48:31Z</time>
      </trkpt>
      <trkpt lat="44.52973" lon="5.82867">
        <ele>814.5</ele>
        <time>2023-09-28T08:48:32Z</time>
      </trkpt>
      <trkpt lat="44.52975" lon="5.82874">
        <ele>814.5</ele>
        <time>2023-09-28T08:48:34Z</time>
      </trkpt>
      <trkpt lat="44.52978" lon="5.8288">
        <ele>814.6</ele>
        <time>2023-09-28T08:48:35Z</time>
      </trkpt>
      <trkpt lat="44.52979" lon="5.82885">
        <ele>814.6</ele>
        <time>2023-09-28T08:48:36Z</time>
      </trkpt>
      <trkpt lat="44.52981" lon="5.82889">
        <ele>814.6</ele>
        <time>2023-09-28T08:48:37Z</time>
      </trkpt>
      <trkpt lat="44.52983" lon="5.82895">
        <ele>814.6</ele>
        <time>2023-09-28T08:48:38Z</time>
      </trkpt>
      <trkpt lat="44.52986" lon="5.82901">
        <ele>814.6</ele>
        <time>2023-09-28T08:48:39Z</time>
      </trkpt>
      <trkpt lat="44.52987" lon="5.82906">
        <ele>814.7</ele>
        <time>2023-09-28T08:48:40Z</time>
      </trkpt>
      <trkpt lat="44.52989" lon="5.82911">
        <ele>814.7</ele>
        <time>2023-09-28T08:48:41Z</time>
      </trkpt>
      <trkpt lat="44.52991" lon="5.82918">
        <ele>814.7</ele>
        <time>2023-09-28T08:48:43Z</time>
      </trkpt>
      <trkpt lat="44.52994" lon="5.82923">
        <ele>814.7</ele>
        <time>2023-09-28T08:48:44Z</time>
      </trkpt>
      <trkpt lat="44.52997" lon="5.82929">
        <ele>814.7</ele>
        <time>2023-09-28T08:48:45Z</time>
      </trkpt>
      <trkpt lat="44.53" lon="5.82935">
        <ele>814.7</ele>
        <time>2023-09-28T08:48:46Z</time>
      </trkpt>
      <trkpt lat="44.53002" lon="5.8294">
        <ele>814.8</ele>
        <time>2023-09-28T08:48:47Z</time>
      </trkpt>
      <trkpt lat="44.53004" lon="5.82946">
        <ele>814.8</ele>
        <time>2023-09-28T08:48:48Z</time>
      </trkpt>
      <trkpt lat="44.53006" lon="5.82952">
        <ele>814.8</ele>
        <time>2023-09-28T08:48:49Z</time>
      </trkpt>
      <trkpt lat="44.53008" lon="5.82958">
        <ele>814.8</ele>
        <time>2023-09-28T08:48:50Z</time>
      </trkpt>
      <trkpt lat="44.53011" lon="5.82964">
        <ele>814.9</ele>
        <time>2023-09-28T08:48:52Z</time>
      </trkpt>
      <trkpt lat="44.53012" lon="5.82968">
        <ele>814.9</ele>
        <time>2023-09-28T08:48:53Z</time>
      </trkpt>
      <trkpt lat="44.53015" lon="5.82974">
        <ele>814.9</ele>
        <time>2023-09-28T08:48:54Z</time>
      </trkpt>
      <trkpt lat="44.53017" lon="5.82979">
        <ele>814.9</ele>
        <time>2023-09-28T08:48:55Z</time>
      </trkpt>
      <trkpt lat="44.53018" lon="5.82984">
        <ele>815</ele>
        <time>2023-09-28T08:48:56Z</time>
      </trkpt>
      <trkpt lat="44.53019" lon="5.82988">
        <ele>815</ele>
        <time>2023-09-28T08:48:57Z</time>
      </trkpt>
      <trkpt lat="44.53021" lon="5.82994">
        <ele>815</ele>
        <time>2023-09-28T08:48:58Z</time>
      </trkpt>
      <trkpt lat="44.53024" lon="5.82999">
        <ele>815</ele>
        <time>2023-09-28T08:49:00Z</time>
      </trkpt>
      <trkpt lat="44.53026" lon="5.83004">
        <ele>815</ele>
        <time>2023-09-28T08:49:01Z</time>
      </trkpt>
      <trkpt lat="44.53028" lon="5.83009">
        <ele>815</ele>
        <time>2023-09-28T08:49:02Z</time>
      </trkpt>
      <trkpt lat="44.53029" lon="5.83015">
        <ele>815</ele>
        <time>2023-09-28T08:49:03Z</time>
      </trkpt>
      <trkpt lat="44.5303" lon="5.83017">
        <ele>815</ele>
        <time>2023-09-28T08:49:04Z</time>
      </trkpt>
      <trkpt lat="44.53033" lon="5.83022">
        <ele>815</ele>
        <time>2023-09-28T08:49:05Z</time>
      </trkpt>
      <trkpt lat="44.53035" lon="5.83027">
        <ele>815</ele>
        <time>2023-09-28T08:49:06Z</time>
      </trkpt>
      <trkpt lat="44.53037" lon="5.83033">
        <ele>815</ele>
        <time>2023-09-28T08:49:07Z</time>
      </trkpt>
      <trkpt lat="44.5304" lon="5.83039">
        <ele>815</ele>
        <time>2023-09-28T08:49:09Z</time>
      </trkpt>
      <trkpt lat="44.53042" lon="5.83045">
        <ele>815</ele>
        <time>2023-09-28T08:49:10Z</time>
      </trkpt>
      <trkpt lat="44.53045" lon="5.83051">
        <ele>815.1</ele>
        <time>2023-09-28T08:49:11Z</time>
      </trkpt>
      <trkpt lat="44.53047" lon="5.83056">
        <ele>815.1</ele>
        <time>2023-09-28T08:49:12Z</time>
      </trkpt>
      <trkpt lat="44.5305" lon="5.83062">
        <ele>815.2</ele>
        <time>2023-09-28T08:49:13Z</time>
      </trkpt>
      <trkpt lat="44.53052" lon="5.83067">
        <ele>815.2</ele>
        <time>2023-09-28T08:49:14Z</time>
      </trkpt>
      <trkpt lat="44.53055" lon="5.83073">
        <ele>815.2</ele>
        <time>2023-09-28T08:49:15Z</time>
      </trkpt>
      <trkpt lat="44.53058" lon="5.83079">
        <ele>815.3</ele>
        <time>2023-09-28T08:49:17Z</time>
      </trkpt>
      <trkpt lat="44.53061" lon="5.83084">
        <ele>815.3</ele>
        <time>2023-09-28T08:49:18Z</time>
      </trkpt>
      <trkpt lat="44.53063" lon="5.83089">
        <ele>815.4</ele>
        <time>2023-09-28T08:49:19Z</time>
      </trkpt>
      <trkpt lat="44.53067" lon="5.83096">
        <ele>815.5</ele>
        <time>2023-09-28T08:49:20Z</time>
      </trkpt>
      <trkpt lat="44.5307" lon="5.83102">
        <ele>815.5</ele>
        <time>2023-09-28T08:49:22Z</time>
      </trkpt>
      <trkpt lat="44.53073" lon="5.83109">
        <ele>815.6</ele>
        <time>2023-09-28T08:49:23Z</time>
      </trkpt>
      <trkpt lat="44.53076" lon="5.83114">
        <ele>815.7</ele>
        <time>2023-09-28T08:49:24Z</time>
      </trkpt>
      <trkpt lat="44.53079" lon="5.83119">
        <ele>815.8</ele>
        <time>2023-09-28T08:49:25Z</time>
      </trkpt>
      <trkpt lat="44.53083" lon="5.83129">
        <ele>815.9</ele>
        <time>2023-09-28T08:49:27Z</time>
      </trkpt>
      <trkpt lat="44.53086" lon="5.83134">
        <ele>816</ele>
        <time>2023-09-28T08:49:29Z</time>
      </trkpt>
      <trkpt lat="44.53089" lon="5.8314">
        <ele>816.1</ele>
        <time>2023-09-28T08:49:30Z</time>
      </trkpt>
      <trkpt lat="44.53092" lon="5.83145">
        <ele>816.1</ele>
        <time>2023-09-28T08:49:31Z</time>
      </trkpt>
      <trkpt lat="44.53094" lon="5.8315">
        <ele>816.2</ele>
        <time>2023-09-28T08:49:32Z</time>
      </trkpt>
      <trkpt lat="44.53097" lon="5.83155">
        <ele>816.2</ele>
        <time>2023-09-28T08:49:33Z</time>
      </trkpt>
      <trkpt lat="44.531" lon="5.83161">
        <ele>816.3</ele>
        <time>2023-09-28T08:49:34Z</time>
      </trkpt>
      <trkpt lat="44.53102" lon="5.83166">
        <ele>816.3</ele>
        <time>2023-09-28T08:49:35Z</time>
      </trkpt>
      <trkpt lat="44.53106" lon="5.83174">
        <ele>816.4</ele>
        <time>2023-09-28T08:49:37Z</time>
      </trkpt>
      <trkpt lat="44.53109" lon="5.83179">
        <ele>816.4</ele>
        <time>2023-09-28T08:49:38Z</time>
      </trkpt>
      <trkpt lat="44.53112" lon="5.83185">
        <ele>816.5</ele>
        <time>2023-09-28T08:49:39Z</time>
      </trkpt>
      <trkpt lat="44.53114" lon="5.83189">
        <ele>816.5</ele>
        <time>2023-09-28T08:49:40Z</time>
      </trkpt>
      <trkpt lat="44.53117" lon="5.83195">
        <ele>816.5</ele>
        <time>2023-09-28T08:49:41Z</time>
      </trkpt>
      <trkpt lat="44.5312" lon="5.83201">
        <ele>816.6</ele>
        <time>2023-09-28T08:49:43Z</time>
      </trkpt>
      <trkpt lat="44.53122" lon="5.83206">
        <ele>816.6</ele>
        <time>2023-09-28T08:49:44Z</time>
      </trkpt>
      <trkpt lat="44.53125" lon="5.83211">
        <ele>816.7</ele>
        <time>2023-09-28T08:49:45Z</time>
      </trkpt>
      <trkpt lat="44.53128" lon="5.83217">
        <ele>816.7</ele>
        <time>2023-09-28T08:49:46Z</time>
      </trkpt>
      <trkpt lat="44.5313" lon="5.83222">
        <ele>816.8</ele>
        <time>2023-09-28T08:49:47Z</time>
      </trkpt>
      <trkpt lat="44.53133" lon="5.83227">
        <ele>816.8</ele>
        <time>2023-09-28T08:49:48Z</time>
      </trkpt>
      <trkpt lat="44.53136" lon="5.83233">
        <ele>816.9</ele>
        <time>2023-09-28T08:49:49Z</time>
      </trkpt>
      <trkpt lat="44.5314" lon="5.83241">
        <ele>816.9</ele>
        <time>2023-09-28T08:49:51Z</time>
      </trkpt>
      <trkpt lat="44.53142" lon="5.83247">
        <ele>817</ele>
        <time>2023-09-28T08:49:52Z</time>
      </trkpt>
      <trkpt lat="44.53145" lon="5.83252">
        <ele>817</ele>
        <time>2023-09-28T08:49:53Z</time>
      </trkpt>
      <trkpt lat="44.53147" lon="5.83256">
        <ele>817.1</ele>
        <time>2023-09-28T08:49:54Z</time>
      </trkpt>
      <trkpt lat="44.5315" lon="5.83263">
        <ele>817.2</ele>
        <time>2023-09-28T08:49:56Z</time>
      </trkpt>
      <trkpt lat="44.53153" lon="5.83269">
        <ele>817.2</ele>
        <time>2023-09-28T08:49:57Z</time>
      </trkpt>
      <trkpt lat="44.53156" lon="5.83275">
        <ele>817.3</ele>
        <time>2023-09-28T08:49:58Z</time>
      </trkpt>
      <trkpt lat="44.53159" lon="5.8328">
        <ele>817.4</ele>
        <time>2023-09-28T08:49:59Z</time>
      </trkpt>
      <trkpt lat="44.53161" lon="5.83284">
        <ele>817.5</ele>
        <time>2023-09-28T08:50:00Z</time>
      </trkpt>
      <trkpt lat="44.53164" lon="5.8329">
        <ele>817.5</ele>
        <time>2023-09-28T08:50:01Z</time>
      </trkpt>
      <trkpt lat="44.53168" lon="5.83299">
        <ele>817.7</ele>
        <time>2023-09-28T08:50:03Z</time>
      </trkpt>
      <trkpt lat="44.53171" lon="5.83304">
        <ele>817.7</ele>
        <time>2023-09-28T08:50:04Z</time>
      </trkpt>
      <trkpt lat="44.53173" lon="5.83309">
        <ele>817.8</ele>
        <time>2023-09-28T08:50:05Z</time>
      </trkpt>
      <trkpt lat="44.53176" lon="5.83315">
        <ele>817.8</ele>
        <time>2023-09-28T08:50:06Z</time>
      </trkpt>
      <trkpt lat="44.53178" lon="5.83319">
        <ele>817.9</ele>
        <time>2023-09-28T08:50:07Z</time>
      </trkpt>
      <trkpt lat="44.53181" lon="5.83325">
        <ele>818</ele>
        <time>2023-09-28T08:50:09Z</time>
      </trkpt>
      <trkpt lat="44.53184" lon="5.83329">
        <ele>818.1</ele>
        <time>2023-09-28T08:50:10Z</time>
      </trkpt>
      <trkpt lat="44.53186" lon="5.83335">
        <ele>818.2</ele>
        <time>2023-09-28T08:50:11Z</time>
      </trkpt>
      <trkpt lat="44.53189" lon="5.83341">
        <ele>818.2</ele>
        <time>2023-09-28T08:50:12Z</time>
      </trkpt>
      <trkpt lat="44.53192" lon="5.83346">
        <ele>818.3</ele>
        <time>2023-09-28T08:50:13Z</time>
      </trkpt>
      <trkpt lat="44.53195" lon="5.83352">
        <ele>818.4</ele>
        <time>2023-09-28T08:50:14Z</time>
      </trkpt>
      <trkpt lat="44.53197" lon="5.83357">
        <ele>818.5</ele>
        <time>2023-09-28T08:50:15Z</time>
      </trkpt>
      <trkpt lat="44.532" lon="5.83363">
        <ele>818.6</ele>
        <time>2023-09-28T08:50:16Z</time>
      </trkpt>
      <trkpt lat="44.53202" lon="5.83367">
        <ele>818.6</ele>
        <time>2023-09-28T08:50:18Z</time>
      </trkpt>
      <trkpt lat="44.53204" lon="5.83372">
        <ele>818.7</ele>
        <time>2023-09-28T08:50:19Z</time>
      </trkpt>
      <trkpt lat="44.53207" lon="5.83378">
        <ele>818.7</ele>
        <time>2023-09-28T08:50:20Z</time>
      </trkpt>
      <trkpt lat="44.5321" lon="5.83382">
        <ele>818.8</ele>
        <time>2023-09-28T08:50:21Z</time>
      </trkpt>
      <trkpt lat="44.53212" lon="5.83386">
        <ele>818.8</ele>
        <time>2023-09-28T08:50:22Z</time>
      </trkpt>
      <trkpt lat="44.53215" lon="5.83392">
        <ele>818.9</ele>
        <time>2023-09-28T08:50:23Z</time>
      </trkpt>
      <trkpt lat="44.53218" lon="5.83397">
        <ele>819</ele>
        <time>2023-09-28T08:50:25Z</time>
      </trkpt>
      <trkpt lat="44.53221" lon="5.83405">
        <ele>819.1</ele>
        <time>2023-09-28T08:50:26Z</time>
      </trkpt>
      <trkpt lat="44.53224" lon="5.83409">
        <ele>819.1</ele>
        <time>2023-09-28T08:50:27Z</time>
      </trkpt>
      <trkpt lat="44.5323" lon="5.8342">
        <ele>819.2</ele>
        <time>2023-09-28T08:50:29Z</time>
      </trkpt>
      <trkpt lat="44.53233" lon="5.83426">
        <ele>819.3</ele>
        <time>2023-09-28T08:50:31Z</time>
      </trkpt>
      <trkpt lat="44.53237" lon="5.83433">
        <ele>819.5</ele>
        <time>2023-09-28T08:50:32Z</time>
      </trkpt>
      <trkpt lat="44.5324" lon="5.83439">
        <ele>819.6</ele>
        <time>2023-09-28T08:50:34Z</time>
      </trkpt>
      <trkpt lat="44.53242" lon="5.83445">
        <ele>819.7</ele>
        <time>2023-09-28T08:50:35Z</time>
      </trkpt>
      <trkpt lat="44.53247" lon="5.83452">
        <ele>819.8</ele>
        <time>2023-09-28T08:50:36Z</time>
      </trkpt>
      <trkpt lat="44.53251" lon="5.83459">
        <ele>819.9</ele>
        <time>2023-09-28T08:50:38Z</time>
      </trkpt>
      <trkpt lat="44.53253" lon="5.83464">
        <ele>820</ele>
        <time>2023-09-28T08:50:39Z</time>
      </trkpt>
      <trkpt lat="44.53256" lon="5.83469">
        <ele>820</ele>
        <time>2023-09-28T08:50:40Z</time>
      </trkpt>
      <trkpt lat="44.5326" lon="5.83477">
        <ele>820.1</ele>
        <time>2023-09-28T08:50:41Z</time>
      </trkpt>
      <trkpt lat="44.53265" lon="5.83488">
        <ele>820.3</ele>
        <time>2023-09-28T08:50:43Z</time>
      </trkpt>
      <trkpt lat="44.53268" lon="5.83494">
        <ele>820.3</ele>
        <time>2023-09-28T08:50:45Z</time>
      </trkpt>
      <trkpt lat="44.53271" lon="5.835">
        <ele>820.4</ele>
        <time>2023-09-28T08:50:46Z</time>
      </trkpt>
      <trkpt lat="44.53274" lon="5.83506">
        <ele>820.4</ele>
        <time>2023-09-28T08:50:47Z</time>
      </trkpt>
      <trkpt lat="44.53277" lon="5.83512">
        <ele>820.5</ele>
        <time>2023-09-28T08:50:48Z</time>
      </trkpt>
      <trkpt lat="44.53279" lon="5.83516">
        <ele>820.5</ele>
        <time>2023-09-28T08:50:49Z</time>
      </trkpt>
      <trkpt lat="44.53282" lon="5.83522">
        <ele>820.6</ele>
        <time>2023-09-28T08:50:50Z</time>
      </trkpt>
      <trkpt lat="44.53285" lon="5.83527">
        <ele>820.6</ele>
        <time>2023-09-28T08:50:51Z</time>
      </trkpt>
      <trkpt lat="44.53288" lon="5.83533">
        <ele>820.7</ele>
        <time>2023-09-28T08:50:52Z</time>
      </trkpt>
      <trkpt lat="44.53291" lon="5.83539">
        <ele>820.7</ele>
        <time>2023-09-28T08:50:54Z</time>
      </trkpt>
      <trkpt lat="44.53295" lon="5.83546">
        <ele>820.8</ele>
        <time>2023-09-28T08:50:55Z</time>
      </trkpt>
      <trkpt lat="44.53297" lon="5.83551">
        <ele>820.8</ele>
        <time>2023-09-28T08:50:56Z</time>
      </trkpt>
      <trkpt lat="44.533" lon="5.83557">
        <ele>820.8</ele>
        <time>2023-09-28T08:50:57Z</time>
      </trkpt>
      <trkpt lat="44.53304" lon="5.83565">
        <ele>820.9</ele>
        <time>2023-09-28T08:50:59Z</time>
      </trkpt>
      <trkpt lat="44.53306" lon="5.8357">
        <ele>821</ele>
        <time>2023-09-28T08:51:00Z</time>
      </trkpt>
      <trkpt lat="44.53309" lon="5.83575">
        <ele>821</ele>
        <time>2023-09-28T08:51:01Z</time>
      </trkpt>
      <trkpt lat="44.53312" lon="5.83581">
        <ele>821.1</ele>
        <time>2023-09-28T08:51:03Z</time>
      </trkpt>
      <trkpt lat="44.53315" lon="5.83586">
        <ele>821.1</ele>
        <time>2023-09-28T08:51:04Z</time>
      </trkpt>
      <trkpt lat="44.53317" lon="5.83592">
        <ele>821.2</ele>
        <time>2023-09-28T08:51:05Z</time>
      </trkpt>
      <trkpt lat="44.5332" lon="5.83598">
        <ele>821.2</ele>
        <time>2023-09-28T08:51:06Z</time>
      </trkpt>
      <trkpt lat="44.53323" lon="5.83603">
        <ele>821.2</ele>
        <time>2023-09-28T08:51:07Z</time>
      </trkpt>
      <trkpt lat="44.53326" lon="5.83608">
        <ele>821.3</ele>
        <time>2023-09-28T08:51:08Z</time>
      </trkpt>
      <trkpt lat="44.53329" lon="5.83613">
        <ele>821.3</ele>
        <time>2023-09-28T08:51:09Z</time>
      </trkpt>
      <trkpt lat="44.53331" lon="5.83619">
        <ele>821.4</ele>
        <time>2023-09-28T08:51:10Z</time>
      </trkpt>
      <trkpt lat="44.53336" lon="5.83627">
        <ele>821.5</ele>
        <time>2023-09-28T08:51:12Z</time>
      </trkpt>
      <trkpt lat="44.53338" lon="5.83632">
        <ele>821.6</ele>
        <time>2023-09-28T08:51:13Z</time>
      </trkpt>
      <trkpt lat="44.53343" lon="5.83641">
        <ele>821.7</ele>
        <time>2023-09-28T08:51:15Z</time>
      </trkpt>
      <trkpt lat="44.53345" lon="5.83647">
        <ele>821.8</ele>
        <time>2023-09-28T08:51:16Z</time>
      </trkpt>
      <trkpt lat="44.53348" lon="5.83652">
        <ele>821.8</ele>
        <time>2023-09-28T08:51:17Z</time>
      </trkpt>
      <trkpt lat="44.53351" lon="5.83657">
        <ele>821.8</ele>
        <time>2023-09-28T08:51:19Z</time>
      </trkpt>
      <trkpt lat="44.53354" lon="5.83663">
        <ele>821.9</ele>
        <time>2023-09-28T08:51:20Z</time>
      </trkpt>
      <trkpt lat="44.53356" lon="5.83668">
        <ele>821.9</ele>
        <time>2023-09-28T08:51:21Z</time>
      </trkpt>
      <trkpt lat="44.53359" lon="5.83674">
        <ele>821.9</ele>
        <time>2023-09-28T08:51:22Z</time>
      </trkpt>
      <trkpt lat="44.53362" lon="5.83679">
        <ele>822</ele>
        <time>2023-09-28T08:51:23Z</time>
      </trkpt>
      <trkpt lat="44.53364" lon="5.83685">
        <ele>822</ele>
        <time>2023-09-28T08:51:24Z</time>
      </trkpt>
      <trkpt lat="44.53367" lon="5.8369">
        <ele>822</ele>
        <time>2023-09-28T08:51:25Z</time>
      </trkpt>
      <trkpt lat="44.5337" lon="5.83696">
        <ele>822.1</ele>
        <time>2023-09-28T08:51:26Z</time>
      </trkpt>
      <trkpt lat="44.53373" lon="5.83702">
        <ele>822.2</ele>
        <time>2023-09-28T08:51:27Z</time>
      </trkpt>
      <trkpt lat="44.53376" lon="5.83708">
        <ele>822.2</ele>
        <time>2023-09-28T08:51:29Z</time>
      </trkpt>
      <trkpt lat="44.5338" lon="5.83716">
        <ele>822.3</ele>
        <time>2023-09-28T08:51:30Z</time>
      </trkpt>
      <trkpt lat="44.53383" lon="5.83721">
        <ele>822.4</ele>
        <time>2023-09-28T08:51:31Z</time>
      </trkpt>
      <trkpt lat="44.53386" lon="5.83728">
        <ele>822.4</ele>
        <time>2023-09-28T08:51:33Z</time>
      </trkpt>
      <trkpt lat="44.53388" lon="5.83733">
        <ele>822.5</ele>
        <time>2023-09-28T08:51:34Z</time>
      </trkpt>
      <trkpt lat="44.53391" lon="5.83738">
        <ele>822.6</ele>
        <time>2023-09-28T08:51:35Z</time>
      </trkpt>
      <trkpt lat="44.53394" lon="5.83744">
        <ele>822.6</ele>
        <time>2023-09-28T08:51:36Z</time>
      </trkpt>
      <trkpt lat="44.53397" lon="5.83749">
        <ele>822.7</ele>
        <time>2023-09-28T08:51:37Z</time>
      </trkpt>
      <trkpt lat="44.53399" lon="5.83755">
        <ele>822.7</ele>
        <time>2023-09-28T08:51:38Z</time>
      </trkpt>
      <trkpt lat="44.53402" lon="5.8376">
        <ele>822.8</ele>
        <time>2023-09-28T08:51:39Z</time>
      </trkpt>
      <trkpt lat="44.53405" lon="5.83767">
        <ele>822.8</ele>
        <time>2023-09-28T08:51:41Z</time>
      </trkpt>
      <trkpt lat="44.5341" lon="5.83776">
        <ele>822.9</ele>
        <time>2023-09-28T08:51:42Z</time>
      </trkpt>
      <trkpt lat="44.53415" lon="5.83786">
        <ele>823</ele>
        <time>2023-09-28T08:51:44Z</time>
      </trkpt>
      <trkpt lat="44.53418" lon="5.83791">
        <ele>823</ele>
        <time>2023-09-28T08:51:45Z</time>
      </trkpt>
      <trkpt lat="44.53421" lon="5.83797">
        <ele>823.1</ele>
        <time>2023-09-28T08:51:46Z</time>
      </trkpt>
      <trkpt lat="44.53424" lon="5.83802">
        <ele>823.1</ele>
        <time>2023-09-28T08:51:48Z</time>
      </trkpt>
      <trkpt lat="44.53427" lon="5.83807">
        <ele>823.2</ele>
        <time>2023-09-28T08:51:49Z</time>
      </trkpt>
      <trkpt lat="44.5343" lon="5.83813">
        <ele>823.2</ele>
        <time>2023-09-28T08:51:50Z</time>
      </trkpt>
      <trkpt lat="44.53433" lon="5.83819">
        <ele>823.3</ele>
        <time>2023-09-28T08:51:51Z</time>
      </trkpt>
      <trkpt lat="44.53436" lon="5.83825">
        <ele>823.3</ele>
        <time>2023-09-28T08:51:52Z</time>
      </trkpt>
      <trkpt lat="44.5344" lon="5.83833">
        <ele>823.4</ele>
        <time>2023-09-28T08:51:54Z</time>
      </trkpt>
      <trkpt lat="44.53443" lon="5.83838">
        <ele>823.4</ele>
        <time>2023-09-28T08:51:55Z</time>
      </trkpt>
      <trkpt lat="44.53446" lon="5.83843">
        <ele>823.5</ele>
        <time>2023-09-28T08:51:56Z</time>
      </trkpt>
      <trkpt lat="44.53449" lon="5.8385">
        <ele>823.5</ele>
        <time>2023-09-28T08:51:57Z</time>
      </trkpt>
      <trkpt lat="44.53452" lon="5.83856">
        <ele>823.6</ele>
        <time>2023-09-28T08:51:59Z</time>
      </trkpt>
      <trkpt lat="44.53455" lon="5.83862">
        <ele>823.6</ele>
        <time>2023-09-28T08:52:00Z</time>
      </trkpt>
      <trkpt lat="44.53458" lon="5.83867">
        <ele>823.7</ele>
        <time>2023-09-28T08:52:01Z</time>
      </trkpt>
      <trkpt lat="44.5346" lon="5.83872">
        <ele>823.7</ele>
        <time>2023-09-28T08:52:02Z</time>
      </trkpt>
      <trkpt lat="44.53463" lon="5.83878">
        <ele>823.7</ele>
        <time>2023-09-28T08:52:03Z</time>
      </trkpt>
      <trkpt lat="44.53466" lon="5.83883">
        <ele>823.8</ele>
        <time>2023-09-28T08:52:04Z</time>
      </trkpt>
      <trkpt lat="44.53469" lon="5.83889">
        <ele>823.8</ele>
        <time>2023-09-28T08:52:05Z</time>
      </trkpt>
      <trkpt lat="44.53473" lon="5.83897">
        <ele>823.8</ele>
        <time>2023-09-28T08:52:07Z</time>
      </trkpt>
      <trkpt lat="44.53476" lon="5.83903">
        <ele>823.9</ele>
        <time>2023-09-28T08:52:08Z</time>
      </trkpt>
      <trkpt lat="44.53479" lon="5.83907">
        <ele>823.9</ele>
        <time>2023-09-28T08:52:09Z</time>
      </trkpt>
      <trkpt lat="44.53483" lon="5.83916">
        <ele>824</ele>
        <time>2023-09-28T08:52:11Z</time>
      </trkpt>
      <trkpt lat="44.53487" lon="5.83922">
        <ele>824.1</ele>
        <time>2023-09-28T08:52:12Z</time>
      </trkpt>
      <trkpt lat="44.53489" lon="5.83928">
        <ele>824.1</ele>
        <time>2023-09-28T08:52:13Z</time>
      </trkpt>
      <trkpt lat="44.53493" lon="5.83934">
        <ele>824.2</ele>
        <time>2023-09-28T08:52:15Z</time>
      </trkpt>
      <trkpt lat="44.53495" lon="5.83939">
        <ele>824.2</ele>
        <time>2023-09-28T08:52:16Z</time>
      </trkpt>
      <trkpt lat="44.53498" lon="5.83945">
        <ele>824.3</ele>
        <time>2023-09-28T08:52:17Z</time>
      </trkpt>
      <trkpt lat="44.53501" lon="5.8395">
        <ele>824.3</ele>
        <time>2023-09-28T08:52:18Z</time>
      </trkpt>
      <trkpt lat="44.53503" lon="5.83956">
        <ele>824.4</ele>
        <time>2023-09-28T08:52:19Z</time>
      </trkpt>
      <trkpt lat="44.53506" lon="5.83961">
        <ele>824.5</ele>
        <time>2023-09-28T08:52:20Z</time>
      </trkpt>
      <trkpt lat="44.53508" lon="5.83967">
        <ele>824.5</ele>
        <time>2023-09-28T08:52:21Z</time>
      </trkpt>
      <trkpt lat="44.53512" lon="5.83973">
        <ele>824.6</ele>
        <time>2023-09-28T08:52:22Z</time>
      </trkpt>
      <trkpt lat="44.53515" lon="5.83979">
        <ele>824.7</ele>
        <time>2023-09-28T08:52:24Z</time>
      </trkpt>
      <trkpt lat="44.53518" lon="5.83985">
        <ele>824.7</ele>
        <time>2023-09-28T08:52:25Z</time>
      </trkpt>
      <trkpt lat="44.5352" lon="5.83989">
        <ele>824.8</ele>
        <time>2023-09-28T08:52:26Z</time>
      </trkpt>
      <trkpt lat="44.53524" lon="5.83995">
        <ele>824.9</ele>
        <time>2023-09-28T08:52:27Z</time>
      </trkpt>
      <trkpt lat="44.53526" lon="5.84">
        <ele>824.9</ele>
        <time>2023-09-28T08:52:28Z</time>
      </trkpt>
      <trkpt lat="44.53528" lon="5.84005">
        <ele>825</ele>
        <time>2023-09-28T08:52:29Z</time>
      </trkpt>
      <trkpt lat="44.53532" lon="5.84011">
        <ele>825.1</ele>
        <time>2023-09-28T08:52:30Z</time>
      </trkpt>
      <trkpt lat="44.53535" lon="5.84017">
        <ele>825.2</ele>
        <time>2023-09-28T08:52:32Z</time>
      </trkpt>
      <trkpt lat="44.53538" lon="5.84023">
        <ele>825.3</ele>
        <time>2023-09-28T08:52:33Z</time>
      </trkpt>
      <trkpt lat="44.5354" lon="5.84028">
        <ele>825.4</ele>
        <time>2023-09-28T08:52:34Z</time>
      </trkpt>
      <trkpt lat="44.53543" lon="5.84033">
        <ele>825.5</ele>
        <time>2023-09-28T08:52:35Z</time>
      </trkpt>
      <trkpt lat="44.53545" lon="5.84039">
        <ele>825.5</ele>
        <time>2023-09-28T08:52:36Z</time>
      </trkpt>
      <trkpt lat="44.53547" lon="5.84044">
        <ele>825.6</ele>
        <time>2023-09-28T08:52:37Z</time>
      </trkpt>
      <trkpt lat="44.5355" lon="5.8405">
        <ele>825.7</ele>
        <time>2023-09-28T08:52:39Z</time>
      </trkpt>
      <trkpt lat="44.53552" lon="5.84056">
        <ele>825.7</ele>
        <time>2023-09-28T08:52:40Z</time>
      </trkpt>
      <trkpt lat="44.53554" lon="5.84062">
        <ele>825.8</ele>
        <time>2023-09-28T08:52:41Z</time>
      </trkpt>
      <trkpt lat="44.53557" lon="5.84067">
        <ele>825.8</ele>
        <time>2023-09-28T08:52:42Z</time>
      </trkpt>
      <trkpt lat="44.5356" lon="5.84073">
        <ele>825.9</ele>
        <time>2023-09-28T08:52:43Z</time>
      </trkpt>
      <trkpt lat="44.53562" lon="5.84078">
        <ele>825.9</ele>
        <time>2023-09-28T08:52:44Z</time>
      </trkpt>
      <trkpt lat="44.53565" lon="5.84083">
        <ele>825.9</ele>
        <time>2023-09-28T08:52:45Z</time>
      </trkpt>
      <trkpt lat="44.53567" lon="5.84089">
        <ele>825.9</ele>
        <time>2023-09-28T08:52:46Z</time>
      </trkpt>
      <trkpt lat="44.5357" lon="5.84095">
        <ele>826</ele>
        <time>2023-09-28T08:52:48Z</time>
      </trkpt>
      <trkpt lat="44.53574" lon="5.84103">
        <ele>826</ele>
        <time>2023-09-28T08:52:49Z</time>
      </trkpt>
      <trkpt lat="44.53578" lon="5.8411">
        <ele>826</ele>
        <time>2023-09-28T08:52:50Z</time>
      </trkpt>
      <trkpt lat="44.5358" lon="5.84116">
        <ele>826</ele>
        <time>2023-09-28T08:52:51Z</time>
      </trkpt>
      <trkpt lat="44.53583" lon="5.84121">
        <ele>826.1</ele>
        <time>2023-09-28T08:52:52Z</time>
      </trkpt>
      <trkpt lat="44.53586" lon="5.84126">
        <ele>826.1</ele>
        <time>2023-09-28T08:52:53Z</time>
      </trkpt>
      <trkpt lat="44.53588" lon="5.84132">
        <ele>826.2</ele>
        <time>2023-09-28T08:52:55Z</time>
      </trkpt>
      <trkpt lat="44.53592" lon="5.8414">
        <ele>826.2</ele>
        <time>2023-09-28T08:52:56Z</time>
      </trkpt>
      <trkpt lat="44.53595" lon="5.84146">
        <ele>826.3</ele>
        <time>2023-09-28T08:52:57Z</time>
      </trkpt>
      <trkpt lat="44.53598" lon="5.84152">
        <ele>826.4</ele>
        <time>2023-09-28T08:52:59Z</time>
      </trkpt>
      <trkpt lat="44.536" lon="5.84158">
        <ele>826.4</ele>
        <time>2023-09-28T08:53:00Z</time>
      </trkpt>
      <trkpt lat="44.53603" lon="5.84163">
        <ele>826.5</ele>
        <time>2023-09-28T08:53:01Z</time>
      </trkpt>
      <trkpt lat="44.53605" lon="5.84169">
        <ele>826.6</ele>
        <time>2023-09-28T08:53:02Z</time>
      </trkpt>
      <trkpt lat="44.53609" lon="5.84177">
        <ele>826.7</ele>
        <time>2023-09-28T08:53:03Z</time>
      </trkpt>
      <trkpt lat="44.53611" lon="5.84183">
        <ele>826.7</ele>
        <time>2023-09-28T08:53:04Z</time>
      </trkpt>
      <trkpt lat="44.53614" lon="5.84188">
        <ele>826.8</ele>
        <time>2023-09-28T08:53:05Z</time>
      </trkpt>
      <trkpt lat="44.53617" lon="5.84194">
        <ele>826.8</ele>
        <time>2023-09-28T08:53:06Z</time>
      </trkpt>
      <trkpt lat="44.53619" lon="5.84199">
        <ele>826.9</ele>
        <time>2023-09-28T08:53:07Z</time>
      </trkpt>
      <trkpt lat="44.53622" lon="5.84205">
        <ele>827</ele>
        <time>2023-09-28T08:53:08Z</time>
      </trkpt>
      <trkpt lat="44.53624" lon="5.8421">
        <ele>827</ele>
        <time>2023-09-28T08:53:09Z</time>
      </trkpt>
      <trkpt lat="44.53627" lon="5.84215">
        <ele>827.1</ele>
        <time>2023-09-28T08:53:10Z</time>
      </trkpt>
      <trkpt lat="44.53629" lon="5.84221">
        <ele>827.2</ele>
        <time>2023-09-28T08:53:11Z</time>
      </trkpt>
      <trkpt lat="44.53632" lon="5.84226">
        <ele>827.2</ele>
        <time>2023-09-28T08:53:12Z</time>
      </trkpt>
      <trkpt lat="44.53633" lon="5.84229">
        <ele>827.3</ele>
        <time>2023-09-28T08:53:13Z</time>
      </trkpt>
      <trkpt lat="44.53638" lon="5.84239">
        <ele>827.4</ele>
        <time>2023-09-28T08:53:15Z</time>
      </trkpt>
      <trkpt lat="44.5364" lon="5.84246">
        <ele>827.4</ele>
        <time>2023-09-28T08:53:16Z</time>
      </trkpt>
      <trkpt lat="44.53643" lon="5.84251">
        <ele>827.5</ele>
        <time>2023-09-28T08:53:17Z</time>
      </trkpt>
      <trkpt lat="44.53646" lon="5.84257">
        <ele>827.5</ele>
        <time>2023-09-28T08:53:19Z</time>
      </trkpt>
      <trkpt lat="44.53649" lon="5.84264">
        <ele>827.6</ele>
        <time>2023-09-28T08:53:20Z</time>
      </trkpt>
      <trkpt lat="44.53651" lon="5.84269">
        <ele>827.6</ele>
        <time>2023-09-28T08:53:21Z</time>
      </trkpt>
      <trkpt lat="44.53654" lon="5.84275">
        <ele>827.7</ele>
        <time>2023-09-28T08:53:22Z</time>
      </trkpt>
      <trkpt lat="44.53656" lon="5.8428">
        <ele>827.7</ele>
        <time>2023-09-28T08:53:23Z</time>
      </trkpt>
      <trkpt lat="44.53659" lon="5.84286">
        <ele>827.7</ele>
        <time>2023-09-28T08:53:24Z</time>
      </trkpt>
      <trkpt lat="44.53661" lon="5.84291">
        <ele>827.8</ele>
        <time>2023-09-28T08:53:25Z</time>
      </trkpt>
      <trkpt lat="44.53664" lon="5.84298">
        <ele>827.8</ele>
        <time>2023-09-28T08:53:27Z</time>
      </trkpt>
      <trkpt lat="44.53666" lon="5.84302">
        <ele>827.9</ele>
        <time>2023-09-28T08:53:28Z</time>
      </trkpt>
      <trkpt lat="44.53669" lon="5.84309">
        <ele>827.9</ele>
        <time>2023-09-28T08:53:29Z</time>
      </trkpt>
      <trkpt lat="44.53671" lon="5.84315">
        <ele>827.9</ele>
        <time>2023-09-28T08:53:30Z</time>
      </trkpt>
      <trkpt lat="44.53675" lon="5.84321">
        <ele>828</ele>
        <time>2023-09-28T08:53:31Z</time>
      </trkpt>
      <trkpt lat="44.53677" lon="5.84326">
        <ele>828.1</ele>
        <time>2023-09-28T08:53:32Z</time>
      </trkpt>
      <trkpt lat="44.5368" lon="5.84331">
        <ele>828.1</ele>
        <time>2023-09-28T08:53:33Z</time>
      </trkpt>
      <trkpt lat="44.53682" lon="5.84337">
        <ele>828.2</ele>
        <time>2023-09-28T08:53:34Z</time>
      </trkpt>
      <trkpt lat="44.53685" lon="5.84344">
        <ele>828.3</ele>
        <time>2023-09-28T08:53:36Z</time>
      </trkpt>
      <trkpt lat="44.53688" lon="5.8435">
        <ele>828.3</ele>
        <time>2023-09-28T08:53:37Z</time>
      </trkpt>
      <trkpt lat="44.53691" lon="5.84357">
        <ele>828.4</ele>
        <time>2023-09-28T08:53:38Z</time>
      </trkpt>
      <trkpt lat="44.53693" lon="5.84362">
        <ele>828.5</ele>
        <time>2023-09-28T08:53:39Z</time>
      </trkpt>
      <trkpt lat="44.53696" lon="5.84368">
        <ele>828.5</ele>
        <time>2023-09-28T08:53:40Z</time>
      </trkpt>
      <trkpt lat="44.53699" lon="5.84372">
        <ele>828.6</ele>
        <time>2023-09-28T08:53:41Z</time>
      </trkpt>
      <trkpt lat="44.53702" lon="5.84378">
        <ele>828.6</ele>
        <time>2023-09-28T08:53:43Z</time>
      </trkpt>
      <trkpt lat="44.53706" lon="5.84386">
        <ele>828.7</ele>
        <time>2023-09-28T08:53:44Z</time>
      </trkpt>
      <trkpt lat="44.53708" lon="5.84391">
        <ele>828.8</ele>
        <time>2023-09-28T08:53:45Z</time>
      </trkpt>
      <trkpt lat="44.53714" lon="5.84403">
        <ele>828.9</ele>
        <time>2023-09-28T08:53:47Z</time>
      </trkpt>
      <trkpt lat="44.53716" lon="5.84408">
        <ele>829</ele>
        <time>2023-09-28T08:53:49Z</time>
      </trkpt>
      <trkpt lat="44.53718" lon="5.84413">
        <ele>829</ele>
        <time>2023-09-28T08:53:50Z</time>
      </trkpt>
      <trkpt lat="44.5372" lon="5.8442">
        <ele>829.1</ele>
        <time>2023-09-28T08:53:51Z</time>
      </trkpt>
      <trkpt lat="44.53722" lon="5.84424">
        <ele>829.1</ele>
        <time>2023-09-28T08:53:52Z</time>
      </trkpt>
      <trkpt lat="44.53725" lon="5.8443">
        <ele>829.2</ele>
        <time>2023-09-28T08:53:53Z</time>
      </trkpt>
      <trkpt lat="44.53727" lon="5.84435">
        <ele>829.2</ele>
        <time>2023-09-28T08:53:54Z</time>
      </trkpt>
      <trkpt lat="44.5373" lon="5.84441">
        <ele>829.3</ele>
        <time>2023-09-28T08:53:55Z</time>
      </trkpt>
      <trkpt lat="44.53732" lon="5.84447">
        <ele>829.3</ele>
        <time>2023-09-28T08:53:57Z</time>
      </trkpt>
      <trkpt lat="44.53735" lon="5.84452">
        <ele>829.4</ele>
        <time>2023-09-28T08:53:58Z</time>
      </trkpt>
      <trkpt lat="44.53738" lon="5.84457">
        <ele>829.4</ele>
        <time>2023-09-28T08:53:59Z</time>
      </trkpt>
      <trkpt lat="44.5374" lon="5.84463">
        <ele>829.4</ele>
        <time>2023-09-28T08:54:00Z</time>
      </trkpt>
      <trkpt lat="44.53742" lon="5.84468">
        <ele>829.5</ele>
        <time>2023-09-28T08:54:01Z</time>
      </trkpt>
      <trkpt lat="44.53745" lon="5.84474">
        <ele>829.5</ele>
        <time>2023-09-28T08:54:02Z</time>
      </trkpt>
      <trkpt lat="44.53748" lon="5.8448">
        <ele>829.6</ele>
        <time>2023-09-28T08:54:04Z</time>
      </trkpt>
      <trkpt lat="44.5375" lon="5.84485">
        <ele>829.6</ele>
        <time>2023-09-28T08:54:05Z</time>
      </trkpt>
      <trkpt lat="44.53753" lon="5.84492">
        <ele>829.7</ele>
        <time>2023-09-28T08:54:06Z</time>
      </trkpt>
      <trkpt lat="44.53756" lon="5.84498">
        <ele>829.8</ele>
        <time>2023-09-28T08:54:07Z</time>
      </trkpt>
      <trkpt lat="44.53758" lon="5.84503">
        <ele>829.8</ele>
        <time>2023-09-28T08:54:08Z</time>
      </trkpt>
      <trkpt lat="44.53761" lon="5.84508">
        <ele>829.9</ele>
        <time>2023-09-28T08:54:09Z</time>
      </trkpt>
      <trkpt lat="44.53764" lon="5.84514">
        <ele>830</ele>
        <time>2023-09-28T08:54:11Z</time>
      </trkpt>
      <trkpt lat="44.53767" lon="5.8452">
        <ele>830.1</ele>
        <time>2023-09-28T08:54:12Z</time>
      </trkpt>
      <trkpt lat="44.53768" lon="5.84525">
        <ele>830.1</ele>
        <time>2023-09-28T08:54:13Z</time>
      </trkpt>
      <trkpt lat="44.53771" lon="5.84531">
        <ele>830.2</ele>
        <time>2023-09-28T08:54:14Z</time>
      </trkpt>
      <trkpt lat="44.53774" lon="5.84536">
        <ele>830.3</ele>
        <time>2023-09-28T08:54:15Z</time>
      </trkpt>
      <trkpt lat="44.53776" lon="5.84541">
        <ele>830.4</ele>
        <time>2023-09-28T08:54:16Z</time>
      </trkpt>
      <trkpt lat="44.53779" lon="5.84547">
        <ele>830.4</ele>
        <time>2023-09-28T08:54:17Z</time>
      </trkpt>
      <trkpt lat="44.53783" lon="5.84556">
        <ele>830.5</ele>
        <time>2023-09-28T08:54:19Z</time>
      </trkpt>
      <trkpt lat="44.53786" lon="5.84562">
        <ele>830.5</ele>
        <time>2023-09-28T08:54:20Z</time>
      </trkpt>
      <trkpt lat="44.53789" lon="5.84569">
        <ele>830.6</ele>
        <time>2023-09-28T08:54:21Z</time>
      </trkpt>
      <trkpt lat="44.53792" lon="5.84574">
        <ele>830.6</ele>
        <time>2023-09-28T08:54:22Z</time>
      </trkpt>
      <trkpt lat="44.53795" lon="5.84579">
        <ele>830.7</ele>
        <time>2023-09-28T08:54:23Z</time>
      </trkpt>
      <trkpt lat="44.53797" lon="5.84585">
        <ele>830.7</ele>
        <time>2023-09-28T08:54:24Z</time>
      </trkpt>
      <trkpt lat="44.538" lon="5.8459">
        <ele>830.8</ele>
        <time>2023-09-28T08:54:25Z</time>
      </trkpt>
      <trkpt lat="44.53802" lon="5.84595">
        <ele>830.8</ele>
        <time>2023-09-28T08:54:26Z</time>
      </trkpt>
      <trkpt lat="44.53805" lon="5.846">
        <ele>830.9</ele>
        <time>2023-09-28T08:54:27Z</time>
      </trkpt>
      <trkpt lat="44.53807" lon="5.84609">
        <ele>830.9</ele>
        <time>2023-09-28T08:54:29Z</time>
      </trkpt>
      <trkpt lat="44.53811" lon="5.84615">
        <ele>831</ele>
        <time>2023-09-28T08:54:30Z</time>
      </trkpt>
      <trkpt lat="44.53814" lon="5.84621">
        <ele>831.1</ele>
        <time>2023-09-28T08:54:31Z</time>
      </trkpt>
      <trkpt lat="44.53816" lon="5.84627">
        <ele>831.1</ele>
        <time>2023-09-28T08:54:32Z</time>
      </trkpt>
      <trkpt lat="44.5382" lon="5.84633">
        <ele>831.2</ele>
        <time>2023-09-28T08:54:33Z</time>
      </trkpt>
      <trkpt lat="44.53823" lon="5.84639">
        <ele>831.3</ele>
        <time>2023-09-28T08:54:35Z</time>
      </trkpt>
      <trkpt lat="44.53825" lon="5.84644">
        <ele>831.3</ele>
        <time>2023-09-28T08:54:36Z</time>
      </trkpt>
      <trkpt lat="44.53828" lon="5.84651">
        <ele>831.4</ele>
        <time>2023-09-28T08:54:37Z</time>
      </trkpt>
      <trkpt lat="44.5383" lon="5.84656">
        <ele>831.5</ele>
        <time>2023-09-28T08:54:38Z</time>
      </trkpt>
      <trkpt lat="44.53834" lon="5.84662">
        <ele>831.6</ele>
        <time>2023-09-28T08:54:39Z</time>
      </trkpt>
      <trkpt lat="44.53836" lon="5.84667">
        <ele>831.6</ele>
        <time>2023-09-28T08:54:40Z</time>
      </trkpt>
      <trkpt lat="44.5384" lon="5.84676">
        <ele>831.7</ele>
        <time>2023-09-28T08:54:42Z</time>
      </trkpt>
      <trkpt lat="44.53842" lon="5.84681">
        <ele>831.8</ele>
        <time>2023-09-28T08:54:43Z</time>
      </trkpt>
      <trkpt lat="44.53845" lon="5.84687">
        <ele>831.8</ele>
        <time>2023-09-28T08:54:44Z</time>
      </trkpt>
      <trkpt lat="44.53847" lon="5.84692">
        <ele>831.9</ele>
        <time>2023-09-28T08:54:45Z</time>
      </trkpt>
      <trkpt lat="44.5385" lon="5.84698">
        <ele>831.9</ele>
        <time>2023-09-28T08:54:47Z</time>
      </trkpt>
      <trkpt lat="44.53853" lon="5.84704">
        <ele>832</ele>
        <time>2023-09-28T08:54:48Z</time>
      </trkpt>
      <trkpt lat="44.53855" lon="5.84709">
        <ele>832</ele>
        <time>2023-09-28T08:54:49Z</time>
      </trkpt>
      <trkpt lat="44.53858" lon="5.84716">
        <ele>832.1</ele>
        <time>2023-09-28T08:54:50Z</time>
      </trkpt>
      <trkpt lat="44.5386" lon="5.84721">
        <ele>832.2</ele>
        <time>2023-09-28T08:54:51Z</time>
      </trkpt>
      <trkpt lat="44.53863" lon="5.84727">
        <ele>832.2</ele>
        <time>2023-09-28T08:54:52Z</time>
      </trkpt>
      <trkpt lat="44.53865" lon="5.84732">
        <ele>832.3</ele>
        <time>2023-09-28T08:54:53Z</time>
      </trkpt>
      <trkpt lat="44.53868" lon="5.84738">
        <ele>832.3</ele>
        <time>2023-09-28T08:54:54Z</time>
      </trkpt>
      <trkpt lat="44.5387" lon="5.84743">
        <ele>832.4</ele>
        <time>2023-09-28T08:54:55Z</time>
      </trkpt>
      <trkpt lat="44.53873" lon="5.8475">
        <ele>832.5</ele>
        <time>2023-09-28T08:54:57Z</time>
      </trkpt>
      <trkpt lat="44.53876" lon="5.84756">
        <ele>832.5</ele>
        <time>2023-09-28T08:54:58Z</time>
      </trkpt>
      <trkpt lat="44.53879" lon="5.84762">
        <ele>832.6</ele>
        <time>2023-09-28T08:54:59Z</time>
      </trkpt>
      <trkpt lat="44.53882" lon="5.84766">
        <ele>832.6</ele>
        <time>2023-09-28T08:55:00Z</time>
      </trkpt>
      <trkpt lat="44.53884" lon="5.84772">
        <ele>832.7</ele>
        <time>2023-09-28T08:55:01Z</time>
      </trkpt>
      <trkpt lat="44.53887" lon="5.84778">
        <ele>832.8</ele>
        <time>2023-09-28T08:55:02Z</time>
      </trkpt>
      <trkpt lat="44.53889" lon="5.84783">
        <ele>832.9</ele>
        <time>2023-09-28T08:55:03Z</time>
      </trkpt>
      <trkpt lat="44.53892" lon="5.84788">
        <ele>832.9</ele>
        <time>2023-09-28T08:55:04Z</time>
      </trkpt>
      <trkpt lat="44.53894" lon="5.84794">
        <ele>833</ele>
        <time>2023-09-28T08:55:06Z</time>
      </trkpt>
      <trkpt lat="44.53897" lon="5.84799">
        <ele>833.1</ele>
        <time>2023-09-28T08:55:07Z</time>
      </trkpt>
      <trkpt lat="44.53901" lon="5.84808">
        <ele>833.2</ele>
        <time>2023-09-28T08:55:08Z</time>
      </trkpt>
      <trkpt lat="44.53903" lon="5.84814">
        <ele>833.3</ele>
        <time>2023-09-28T08:55:09Z</time>
      </trkpt>
      <trkpt lat="44.53907" lon="5.84822">
        <ele>833.4</ele>
        <time>2023-09-28T08:55:11Z</time>
      </trkpt>
      <trkpt lat="44.5391" lon="5.84828">
        <ele>833.5</ele>
        <time>2023-09-28T08:55:12Z</time>
      </trkpt>
      <trkpt lat="44.53913" lon="5.84834">
        <ele>833.5</ele>
        <time>2023-09-28T08:55:14Z</time>
      </trkpt>
      <trkpt lat="44.53917" lon="5.84842">
        <ele>833.6</ele>
        <time>2023-09-28T08:55:15Z</time>
      </trkpt>
      <trkpt lat="44.53919" lon="5.84847">
        <ele>833.7</ele>
        <time>2023-09-28T08:55:16Z</time>
      </trkpt>
      <trkpt lat="44.53924" lon="5.84858">
        <ele>833.8</ele>
        <time>2023-09-28T08:55:18Z</time>
      </trkpt>
      <trkpt lat="44.53928" lon="5.84867">
        <ele>834</ele>
        <time>2023-09-28T08:55:20Z</time>
      </trkpt>
      <trkpt lat="44.53931" lon="5.84872">
        <ele>834</ele>
        <time>2023-09-28T08:55:21Z</time>
      </trkpt>
      <trkpt lat="44.53933" lon="5.84879">
        <ele>834.1</ele>
        <time>2023-09-28T08:55:23Z</time>
      </trkpt>
      <trkpt lat="44.53935" lon="5.84883">
        <ele>834.2</ele>
        <time>2023-09-28T08:55:24Z</time>
      </trkpt>
      <trkpt lat="44.53938" lon="5.84888">
        <ele>834.3</ele>
        <time>2023-09-28T08:55:25Z</time>
      </trkpt>
      <trkpt lat="44.53941" lon="5.84896">
        <ele>834.4</ele>
        <time>2023-09-28T08:55:26Z</time>
      </trkpt>
      <trkpt lat="44.53945" lon="5.84904">
        <ele>834.5</ele>
        <time>2023-09-28T08:55:28Z</time>
      </trkpt>
      <trkpt lat="44.53948" lon="5.8491">
        <ele>834.6</ele>
        <time>2023-09-28T08:55:29Z</time>
      </trkpt>
      <trkpt lat="44.53949" lon="5.84914">
        <ele>834.7</ele>
        <time>2023-09-28T08:55:30Z</time>
      </trkpt>
      <trkpt lat="44.53954" lon="5.84924">
        <ele>834.8</ele>
        <time>2023-09-28T08:55:32Z</time>
      </trkpt>
      <trkpt lat="44.53958" lon="5.84932">
        <ele>834.9</ele>
        <time>2023-09-28T08:55:34Z</time>
      </trkpt>
      <trkpt lat="44.5396" lon="5.84936">
        <ele>835</ele>
        <time>2023-09-28T08:55:35Z</time>
      </trkpt>
      <trkpt lat="44.53962" lon="5.84942">
        <ele>835.1</ele>
        <time>2023-09-28T08:55:37Z</time>
      </trkpt>
      <trkpt lat="44.53965" lon="5.84947">
        <ele>835.2</ele>
        <time>2023-09-28T08:55:38Z</time>
      </trkpt>
      <trkpt lat="44.53967" lon="5.84952">
        <ele>835.3</ele>
        <time>2023-09-28T08:55:39Z</time>
      </trkpt>
      <trkpt lat="44.53969" lon="5.84956">
        <ele>835.3</ele>
        <time>2023-09-28T08:55:40Z</time>
      </trkpt>
      <trkpt lat="44.53972" lon="5.84962">
        <ele>835.4</ele>
        <time>2023-09-28T08:55:42Z</time>
      </trkpt>
      <trkpt lat="44.53974" lon="5.84966">
        <ele>835.5</ele>
        <time>2023-09-28T08:55:43Z</time>
      </trkpt>
      <trkpt lat="44.53975" lon="5.84968">
        <ele>835.5</ele>
        <time>2023-09-28T08:55:44Z</time>
      </trkpt>
      <trkpt lat="44.53976" lon="5.84971">
        <ele>835.5</ele>
        <time>2023-09-28T08:55:46Z</time>
      </trkpt>
      <trkpt lat="44.53977" lon="5.84972">
        <ele>835.5</ele>
        <time>2023-09-28T08:55:47Z</time>
      </trkpt>
      <trkpt lat="44.53977" lon="5.84971">
        <ele>835.5</ele>
        <time>2023-09-28T08:55:48Z</time>
      </trkpt>
      <trkpt lat="44.53977" lon="5.84971">
        <ele>835.5</ele>
        <time>2023-09-28T08:55:50Z</time>
      </trkpt>
      <trkpt lat="44.53977" lon="5.84971">
        <ele>835.5</ele>
        <time>2023-09-28T08:55:51Z</time>
      </trkpt>
      <trkpt lat="44.53977" lon="5.84971">
        <ele>835.5</ele>
        <time>2023-09-28T08:55:52Z</time>
      </trkpt>
      <trkpt lat="44.53977" lon="5.8497">
        <ele>835.5</ele>
        <time>2023-09-28T08:55:53Z</time>
      </trkpt>
      <trkpt lat="44.53977" lon="5.8497">
        <ele>835.5</ele>
        <time>2023-09-28T08:55:55Z</time>
      </trkpt>
      <trkpt lat="44.53977" lon="5.8497">
        <ele>835.5</ele>
        <time>2023-09-28T08:55:56Z</time>
      </trkpt>
      <trkpt lat="44.53977" lon="5.8497">
        <ele>835.5</ele>
        <time>2023-09-28T08:55:57Z</time>
      </trkpt>
      <trkpt lat="44.53979" lon="5.84971">
        <ele>835.5</ele>
        <time>2023-09-28T08:56:19Z</time>
      </trkpt>
      <trkpt lat="44.53983" lon="5.84977">
        <ele>835.5</ele>
        <time>2023-09-28T08:56:21Z</time>
      </trkpt>
      <trkpt lat="44.53987" lon="5.84979">
        <ele>835.5</ele>
        <time>2023-09-28T08:56:22Z</time>
      </trkpt>
      <trkpt lat="44.53991" lon="5.84979">
        <ele>835.5</ele>
        <time>2023-09-28T08:56:23Z</time>
      </trkpt>
      <trkpt lat="44.53995" lon="5.84975">
        <ele>835.5</ele>
        <time>2023-09-28T08:56:24Z</time>
      </trkpt>
      <trkpt lat="44.54" lon="5.84971">
        <ele>835.5</ele>
        <time>2023-09-28T08:56:25Z</time>
      </trkpt>
      <trkpt lat="44.54005" lon="5.84969">
        <ele>835.5</ele>
        <time>2023-09-28T08:56:26Z</time>
      </trkpt>
      <trkpt lat="44.54009" lon="5.84967">
        <ele>835.5</ele>
        <time>2023-09-28T08:56:27Z</time>
      </trkpt>
      <trkpt lat="44.54014" lon="5.84965">
        <ele>835.5</ele>
        <time>2023-09-28T08:56:28Z</time>
      </trkpt>
      <trkpt lat="44.54018" lon="5.84963">
        <ele>835.6</ele>
        <time>2023-09-28T08:56:29Z</time>
      </trkpt>
      <trkpt lat="44.54023" lon="5.84962">
        <ele>835.6</ele>
        <time>2023-09-28T08:56:30Z</time>
      </trkpt>
      <trkpt lat="44.54028" lon="5.84961">
        <ele>835.6</ele>
        <time>2023-09-28T08:56:31Z</time>
      </trkpt>
      <trkpt lat="44.54033" lon="5.8496">
        <ele>835.6</ele>
        <time>2023-09-28T08:56:32Z</time>
      </trkpt>
      <trkpt lat="44.54038" lon="5.8496">
        <ele>835.6</ele>
        <time>2023-09-28T08:56:33Z</time>
      </trkpt>
      <trkpt lat="44.54042" lon="5.8496">
        <ele>835.7</ele>
        <time>2023-09-28T08:56:34Z</time>
      </trkpt>
      <trkpt lat="44.54047" lon="5.8496">
        <ele>835.7</ele>
        <time>2023-09-28T08:56:35Z</time>
      </trkpt>
      <trkpt lat="44.54052" lon="5.84961">
        <ele>835.7</ele>
        <time>2023-09-28T08:56:36Z</time>
      </trkpt>
      <trkpt lat="44.54057" lon="5.84961">
        <ele>835.7</ele>
        <time>2023-09-28T08:56:37Z</time>
      </trkpt>
      <trkpt lat="44.54062" lon="5.84961">
        <ele>835.7</ele>
        <time>2023-09-28T08:56:38Z</time>
      </trkpt>
      <trkpt lat="44.54067" lon="5.84962">
        <ele>835.7</ele>
        <time>2023-09-28T08:56:39Z</time>
      </trkpt>
      <trkpt lat="44.54072" lon="5.84962">
        <ele>835.7</ele>
        <time>2023-09-28T08:56:40Z</time>
      </trkpt>
      <trkpt lat="44.54076" lon="5.84963">
        <ele>835.7</ele>
        <time>2023-09-28T08:56:41Z</time>
      </trkpt>
      <trkpt lat="44.54081" lon="5.84963">
        <ele>835.8</ele>
        <time>2023-09-28T08:56:42Z</time>
      </trkpt>
      <trkpt lat="44.54086" lon="5.84964">
        <ele>835.8</ele>
        <time>2023-09-28T08:56:43Z</time>
      </trkpt>
      <trkpt lat="44.5409" lon="5.84964">
        <ele>835.8</ele>
        <time>2023-09-28T08:56:44Z</time>
      </trkpt>
      <trkpt lat="44.54094" lon="5.84965">
        <ele>835.8</ele>
        <time>2023-09-28T08:56:45Z</time>
      </trkpt>
      <trkpt lat="44.54099" lon="5.84966">
        <ele>835.9</ele>
        <time>2023-09-28T08:56:46Z</time>
      </trkpt>
      <trkpt lat="44.54103" lon="5.84966">
        <ele>835.9</ele>
        <time>2023-09-28T08:56:47Z</time>
      </trkpt>
      <trkpt lat="44.54108" lon="5.84967">
        <ele>836</ele>
        <time>2023-09-28T08:56:48Z</time>
      </trkpt>
      <trkpt lat="44.54112" lon="5.84967">
        <ele>836</ele>
        <time>2023-09-28T08:56:49Z</time>
      </trkpt>
      <trkpt lat="44.54116" lon="5.84968">
        <ele>836.1</ele>
        <time>2023-09-28T08:56:50Z</time>
      </trkpt>
      <trkpt lat="44.54118" lon="5.84968">
        <ele>836.1</ele>
        <time>2023-09-28T08:56:51Z</time>
      </trkpt>
      <trkpt lat="44.54129" lon="5.8497">
        <ele>836.2</ele>
        <time>2023-09-28T08:56:53Z</time>
      </trkpt>
      <trkpt lat="44.54135" lon="5.84971">
        <ele>836.3</ele>
        <time>2023-09-28T08:56:55Z</time>
      </trkpt>
      <trkpt lat="44.5414" lon="5.84972">
        <ele>836.4</ele>
        <time>2023-09-28T08:56:56Z</time>
      </trkpt>
      <trkpt lat="44.54143" lon="5.84972">
        <ele>836.4</ele>
        <time>2023-09-28T08:56:57Z</time>
      </trkpt>
      <trkpt lat="44.54148" lon="5.84972">
        <ele>836.4</ele>
        <time>2023-09-28T08:56:58Z</time>
      </trkpt>
      <trkpt lat="44.54152" lon="5.84973">
        <ele>836.5</ele>
        <time>2023-09-28T08:56:59Z</time>
      </trkpt>
      <trkpt lat="44.54157" lon="5.84974">
        <ele>836.6</ele>
        <time>2023-09-28T08:57:00Z</time>
      </trkpt>
      <trkpt lat="44.54161" lon="5.84976">
        <ele>836.6</ele>
        <time>2023-09-28T08:57:02Z</time>
      </trkpt>
      <trkpt lat="44.54166" lon="5.84978">
        <ele>836.8</ele>
        <time>2023-09-28T08:57:03Z</time>
      </trkpt>
      <trkpt lat="44.5417" lon="5.84979">
        <ele>836.8</ele>
        <time>2023-09-28T08:57:04Z</time>
      </trkpt>
      <trkpt lat="44.54174" lon="5.8498">
        <ele>837</ele>
        <time>2023-09-28T08:57:05Z</time>
      </trkpt>
      <trkpt lat="44.54178" lon="5.84983">
        <ele>837.1</ele>
        <time>2023-09-28T08:57:06Z</time>
      </trkpt>
      <trkpt lat="44.54181" lon="5.84984">
        <ele>837.2</ele>
        <time>2023-09-28T08:57:07Z</time>
      </trkpt>
      <trkpt lat="44.54185" lon="5.84986">
        <ele>837.3</ele>
        <time>2023-09-28T08:57:08Z</time>
      </trkpt>
      <trkpt lat="44.54188" lon="5.84989">
        <ele>837.4</ele>
        <time>2023-09-28T08:57:09Z</time>
      </trkpt>
      <trkpt lat="44.54192" lon="5.84991">
        <ele>837.5</ele>
        <time>2023-09-28T08:57:10Z</time>
      </trkpt>
      <trkpt lat="44.54196" lon="5.84995">
        <ele>837.5</ele>
        <time>2023-09-28T08:57:11Z</time>
      </trkpt>
      <trkpt lat="44.542" lon="5.84999">
        <ele>837.6</ele>
        <time>2023-09-28T08:57:13Z</time>
      </trkpt>
      <trkpt lat="44.54204" lon="5.85003">
        <ele>837.7</ele>
        <time>2023-09-28T08:57:14Z</time>
      </trkpt>
      <trkpt lat="44.54207" lon="5.85007">
        <ele>837.7</ele>
        <time>2023-09-28T08:57:15Z</time>
      </trkpt>
      <trkpt lat="44.5421" lon="5.85012">
        <ele>837.8</ele>
        <time>2023-09-28T08:57:16Z</time>
      </trkpt>
      <trkpt lat="44.54213" lon="5.85016">
        <ele>837.8</ele>
        <time>2023-09-28T08:57:17Z</time>
      </trkpt>
      <trkpt lat="44.54216" lon="5.8502">
        <ele>837.9</ele>
        <time>2023-09-28T08:57:18Z</time>
      </trkpt>
      <trkpt lat="44.54219" lon="5.85024">
        <ele>838</ele>
        <time>2023-09-28T08:57:20Z</time>
      </trkpt>
      <trkpt lat="44.54222" lon="5.85028">
        <ele>838.1</ele>
        <time>2023-09-28T08:57:21Z</time>
      </trkpt>
      <trkpt lat="44.54226" lon="5.85033">
        <ele>838.1</ele>
        <time>2023-09-28T08:57:22Z</time>
      </trkpt>
      <trkpt lat="44.54228" lon="5.85036">
        <ele>838.2</ele>
        <time>2023-09-28T08:57:23Z</time>
      </trkpt>
      <trkpt lat="44.54232" lon="5.8504">
        <ele>838.3</ele>
        <time>2023-09-28T08:57:24Z</time>
      </trkpt>
      <trkpt lat="44.54234" lon="5.85044">
        <ele>838.4</ele>
        <time>2023-09-28T08:57:25Z</time>
      </trkpt>
      <trkpt lat="44.54237" lon="5.85049">
        <ele>838.4</ele>
        <time>2023-09-28T08:57:26Z</time>
      </trkpt>
      <trkpt lat="44.54239" lon="5.85053">
        <ele>838.5</ele>
        <time>2023-09-28T08:57:27Z</time>
      </trkpt>
      <trkpt lat="44.54243" lon="5.85057">
        <ele>838.6</ele>
        <time>2023-09-28T08:57:28Z</time>
      </trkpt>
      <trkpt lat="44.54246" lon="5.8506">
        <ele>838.6</ele>
        <time>2023-09-28T08:57:29Z</time>
      </trkpt>
      <trkpt lat="44.54249" lon="5.85066">
        <ele>838.7</ele>
        <time>2023-09-28T08:57:31Z</time>
      </trkpt>
      <trkpt lat="44.54252" lon="5.8507">
        <ele>838.8</ele>
        <time>2023-09-28T08:57:32Z</time>
      </trkpt>
      <trkpt lat="44.54254" lon="5.85075">
        <ele>838.9</ele>
        <time>2023-09-28T08:57:33Z</time>
      </trkpt>
      <trkpt lat="44.54257" lon="5.8508">
        <ele>838.9</ele>
        <time>2023-09-28T08:57:34Z</time>
      </trkpt>
      <trkpt lat="44.54258" lon="5.85084">
        <ele>839</ele>
        <time>2023-09-28T08:57:35Z</time>
      </trkpt>
      <trkpt lat="44.5426" lon="5.85088">
        <ele>839</ele>
        <time>2023-09-28T08:57:36Z</time>
      </trkpt>
      <trkpt lat="44.54261" lon="5.85092">
        <ele>839.1</ele>
        <time>2023-09-28T08:57:37Z</time>
      </trkpt>
      <trkpt lat="44.54262" lon="5.85099">
        <ele>839.2</ele>
        <time>2023-09-28T08:57:39Z</time>
      </trkpt>
      <trkpt lat="44.54263" lon="5.85102">
        <ele>839.2</ele>
        <time>2023-09-28T08:57:40Z</time>
      </trkpt>
      <trkpt lat="44.54264" lon="5.85106">
        <ele>839.3</ele>
        <time>2023-09-28T08:57:42Z</time>
      </trkpt>
      <trkpt lat="44.54266" lon="5.8511">
        <ele>839.3</ele>
        <time>2023-09-28T08:57:43Z</time>
      </trkpt>
      <trkpt lat="44.54268" lon="5.85114">
        <ele>839.4</ele>
        <time>2023-09-28T08:57:44Z</time>
      </trkpt>
      <trkpt lat="44.54271" lon="5.85118">
        <ele>839.5</ele>
        <time>2023-09-28T08:57:45Z</time>
      </trkpt>
      <trkpt lat="44.54274" lon="5.8512">
        <ele>839.6</ele>
        <time>2023-09-28T08:57:46Z</time>
      </trkpt>
      <trkpt lat="44.54277" lon="5.85122">
        <ele>839.6</ele>
        <time>2023-09-28T08:57:47Z</time>
      </trkpt>
      <trkpt lat="44.54283" lon="5.85125">
        <ele>839.8</ele>
        <time>2023-09-28T08:57:49Z</time>
      </trkpt>
      <trkpt lat="44.54287" lon="5.85126">
        <ele>839.9</ele>
        <time>2023-09-28T08:57:50Z</time>
      </trkpt>
      <trkpt lat="44.54291" lon="5.85127">
        <ele>840</ele>
        <time>2023-09-28T08:57:51Z</time>
      </trkpt>
      <trkpt lat="44.54294" lon="5.85128">
        <ele>840.1</ele>
        <time>2023-09-28T08:57:52Z</time>
      </trkpt>
      <trkpt lat="44.54298" lon="5.8513">
        <ele>840.1</ele>
        <time>2023-09-28T08:57:54Z</time>
      </trkpt>
      <trkpt lat="44.54299" lon="5.8513">
        <ele>840.2</ele>
        <time>2023-09-28T08:57:55Z</time>
      </trkpt>
      <trkpt lat="44.54299" lon="5.8513">
        <ele>840.2</ele>
        <time>2023-09-28T08:57:56Z</time>
      </trkpt>
      <trkpt lat="44.54299" lon="5.8513">
        <ele>840.2</ele>
        <time>2023-09-28T08:57:57Z</time>
      </trkpt>
      <trkpt lat="44.54298" lon="5.8513">
        <ele>840.2</ele>
        <time>2023-09-28T08:57:59Z</time>
      </trkpt>
      <trkpt lat="44.54298" lon="5.8513">
        <ele>840.2</ele>
        <time>2023-09-28T08:58:00Z</time>
      </trkpt>
      <trkpt lat="44.54298" lon="5.8513">
        <ele>840.2</ele>
        <time>2023-09-28T08:58:02Z</time>
      </trkpt>
      <trkpt lat="44.54298" lon="5.8513">
        <ele>840.2</ele>
        <time>2023-09-28T08:58:03Z</time>
      </trkpt>
      <trkpt lat="44.54298" lon="5.85131">
        <ele>840.2</ele>
        <time>2023-09-28T08:58:04Z</time>
      </trkpt>
      <trkpt lat="44.54298" lon="5.85131">
        <ele>840.2</ele>
        <time>2023-09-28T08:58:05Z</time>
      </trkpt>
      <trkpt lat="44.54298" lon="5.85131">
        <ele>840.2</ele>
        <time>2023-09-28T08:58:07Z</time>
      </trkpt>
      <trkpt lat="44.54298" lon="5.85131">
        <ele>840.2</ele>
        <time>2023-09-28T08:58:08Z</time>
      </trkpt>
      <trkpt lat="44.54298" lon="5.85131">
        <ele>840.2</ele>
        <time>2023-09-28T08:58:09Z</time>
      </trkpt>
      <trkpt lat="44.54299" lon="5.85131">
        <ele>840.2</ele>
        <time>2023-09-28T08:58:10Z</time>
      </trkpt>
      <trkpt lat="44.54299" lon="5.85131">
        <ele>840.2</ele>
        <time>2023-09-28T08:58:12Z</time>
      </trkpt>
      <trkpt lat="44.54297" lon="5.8513">
        <ele>840.2</ele>
        <time>2023-09-28T08:58:13Z</time>
      </trkpt>
      <trkpt lat="44.54297" lon="5.8513">
        <ele>840.3</ele>
        <time>2023-09-28T08:58:14Z</time>
      </trkpt>
      <trkpt lat="44.54297" lon="5.85131">
        <ele>840.3</ele>
        <time>2023-09-28T08:58:15Z</time>
      </trkpt>
      <trkpt lat="44.54297" lon="5.85131">
        <ele>840.3</ele>
        <time>2023-09-28T08:58:16Z</time>
      </trkpt>
      <trkpt lat="44.54297" lon="5.85132">
        <ele>840.3</ele>
        <time>2023-09-28T08:58:17Z</time>
      </trkpt>
      <trkpt lat="44.54296" lon="5.85132">
        <ele>840.3</ele>
        <time>2023-09-28T08:58:18Z</time>
      </trkpt>
      <trkpt lat="44.54296" lon="5.85133">
        <ele>840.3</ele>
        <time>2023-09-28T08:58:19Z</time>
      </trkpt>
      <trkpt lat="44.54296" lon="5.85133">
        <ele>840.3</ele>
        <time>2023-09-28T08:58:20Z</time>
      </trkpt>
      <trkpt lat="44.54297" lon="5.85133">
        <ele>840.3</ele>
        <time>2023-09-28T08:58:21Z</time>
      </trkpt>
      <trkpt lat="44.54297" lon="5.85133">
        <ele>840.3</ele>
        <time>2023-09-28T08:58:22Z</time>
      </trkpt>
      <trkpt lat="44.54297" lon="5.85133">
        <ele>840.3</ele>
        <time>2023-09-28T08:58:23Z</time>
      </trkpt>
      <trkpt lat="44.54297" lon="5.85133">
        <ele>840.3</ele>
        <time>2023-09-28T08:58:25Z</time>
      </trkpt>
      <trkpt lat="44.54297" lon="5.85133">
        <ele>840.3</ele>
        <time>2023-09-28T08:58:26Z</time>
      </trkpt>
      <trkpt lat="44.54297" lon="5.85133">
        <ele>840.3</ele>
        <time>2023-09-28T08:58:27Z</time>
      </trkpt>
      <trkpt lat="44.54301" lon="5.85129">
        <ele>840.4</ele>
        <time>2023-09-28T09:01:32Z</time>
      </trkpt>
      <trkpt lat="44.54305" lon="5.85127">
        <ele>840.5</ele>
        <time>2023-09-28T09:01:34Z</time>
      </trkpt>
      <trkpt lat="44.54309" lon="5.85128">
        <ele>840.5</ele>
        <time>2023-09-28T09:01:35Z</time>
      </trkpt>
      <trkpt lat="44.54313" lon="5.85129">
        <ele>840.6</ele>
        <time>2023-09-28T09:01:36Z</time>
      </trkpt>
      <trkpt lat="44.54316" lon="5.8513">
        <ele>840.7</ele>
        <time>2023-09-28T09:01:37Z</time>
      </trkpt>
      <trkpt lat="44.5432" lon="5.85132">
        <ele>840.8</ele>
        <time>2023-09-28T09:01:39Z</time>
      </trkpt>
      <trkpt lat="44.54324" lon="5.85133">
        <ele>840.8</ele>
        <time>2023-09-28T09:01:40Z</time>
      </trkpt>
      <trkpt lat="44.54329" lon="5.85133">
        <ele>841</ele>
        <time>2023-09-28T09:01:41Z</time>
      </trkpt>
      <trkpt lat="44.54333" lon="5.85133">
        <ele>841.1</ele>
        <time>2023-09-28T09:01:42Z</time>
      </trkpt>
      <trkpt lat="44.54338" lon="5.85135">
        <ele>841.2</ele>
        <time>2023-09-28T09:01:44Z</time>
      </trkpt>
      <trkpt lat="44.54342" lon="5.85137">
        <ele>841.3</ele>
        <time>2023-09-28T09:01:45Z</time>
      </trkpt>
      <trkpt lat="44.54346" lon="5.85139">
        <ele>841.4</ele>
        <time>2023-09-28T09:01:46Z</time>
      </trkpt>
      <trkpt lat="44.5435" lon="5.8514">
        <ele>841.5</ele>
        <time>2023-09-28T09:01:47Z</time>
      </trkpt>
      <trkpt lat="44.54354" lon="5.8514">
        <ele>841.6</ele>
        <time>2023-09-28T09:01:48Z</time>
      </trkpt>
      <trkpt lat="44.54358" lon="5.85141">
        <ele>841.8</ele>
        <time>2023-09-28T09:01:49Z</time>
      </trkpt>
      <trkpt lat="44.54362" lon="5.85143">
        <ele>841.9</ele>
        <time>2023-09-28T09:01:50Z</time>
      </trkpt>
      <trkpt lat="44.54366" lon="5.85143">
        <ele>842</ele>
        <time>2023-09-28T09:01:51Z</time>
      </trkpt>
      <trkpt lat="44.54371" lon="5.85144">
        <ele>842.1</ele>
        <time>2023-09-28T09:01:53Z</time>
      </trkpt>
      <trkpt lat="44.54375" lon="5.85145">
        <ele>842.2</ele>
        <time>2023-09-28T09:01:54Z</time>
      </trkpt>
      <trkpt lat="44.54379" lon="5.85145">
        <ele>842.3</ele>
        <time>2023-09-28T09:01:55Z</time>
      </trkpt>
      <trkpt lat="44.54383" lon="5.85146">
        <ele>842.4</ele>
        <time>2023-09-28T09:01:56Z</time>
      </trkpt>
      <trkpt lat="44.54387" lon="5.85146">
        <ele>842.5</ele>
        <time>2023-09-28T09:01:57Z</time>
      </trkpt>
      <trkpt lat="44.54391" lon="5.85146">
        <ele>842.6</ele>
        <time>2023-09-28T09:01:58Z</time>
      </trkpt>
      <trkpt lat="44.54395" lon="5.85147">
        <ele>842.7</ele>
        <time>2023-09-28T09:01:59Z</time>
      </trkpt>
      <trkpt lat="44.544" lon="5.85149">
        <ele>842.8</ele>
        <time>2023-09-28T09:02:01Z</time>
      </trkpt>
      <trkpt lat="44.54404" lon="5.85149">
        <ele>842.9</ele>
        <time>2023-09-28T09:02:02Z</time>
      </trkpt>
      <trkpt lat="44.54408" lon="5.8515">
        <ele>843</ele>
        <time>2023-09-28T09:02:03Z</time>
      </trkpt>
      <trkpt lat="44.54412" lon="5.85151">
        <ele>843.1</ele>
        <time>2023-09-28T09:02:04Z</time>
      </trkpt>
      <trkpt lat="44.54415" lon="5.85152">
        <ele>843.2</ele>
        <time>2023-09-28T09:02:05Z</time>
      </trkpt>
      <trkpt lat="44.54419" lon="5.85153">
        <ele>843.3</ele>
        <time>2023-09-28T09:02:06Z</time>
      </trkpt>
      <trkpt lat="44.54422" lon="5.85154">
        <ele>843.4</ele>
        <time>2023-09-28T09:02:07Z</time>
      </trkpt>
      <trkpt lat="44.54426" lon="5.85154">
        <ele>843.5</ele>
        <time>2023-09-28T09:02:08Z</time>
      </trkpt>
      <trkpt lat="44.5443" lon="5.85156">
        <ele>843.7</ele>
        <time>2023-09-28T09:02:09Z</time>
      </trkpt>
      <trkpt lat="44.54436" lon="5.85158">
        <ele>843.8</ele>
        <time>2023-09-28T09:02:11Z</time>
      </trkpt>
      <trkpt lat="44.5444" lon="5.8516">
        <ele>843.9</ele>
        <time>2023-09-28T09:02:12Z</time>
      </trkpt>
      <trkpt lat="44.54446" lon="5.85162">
        <ele>844.1</ele>
        <time>2023-09-28T09:02:14Z</time>
      </trkpt>
      <trkpt lat="44.5445" lon="5.85164">
        <ele>844.3</ele>
        <time>2023-09-28T09:02:15Z</time>
      </trkpt>
      <trkpt lat="44.54454" lon="5.85165">
        <ele>844.4</ele>
        <time>2023-09-28T09:02:16Z</time>
      </trkpt>
      <trkpt lat="44.54458" lon="5.85166">
        <ele>844.5</ele>
        <time>2023-09-28T09:02:17Z</time>
      </trkpt>
      <trkpt lat="44.54462" lon="5.85169">
        <ele>844.6</ele>
        <time>2023-09-28T09:02:18Z</time>
      </trkpt>
      <trkpt lat="44.54465" lon="5.8517">
        <ele>844.7</ele>
        <time>2023-09-28T09:02:20Z</time>
      </trkpt>
      <trkpt lat="44.54469" lon="5.8517">
        <ele>844.8</ele>
        <time>2023-09-28T09:02:21Z</time>
      </trkpt>
      <trkpt lat="44.54473" lon="5.85172">
        <ele>844.9</ele>
        <time>2023-09-28T09:02:22Z</time>
      </trkpt>
      <trkpt lat="44.54477" lon="5.85173">
        <ele>845</ele>
        <time>2023-09-28T09:02:23Z</time>
      </trkpt>
      <trkpt lat="44.54482" lon="5.85174">
        <ele>845.2</ele>
        <time>2023-09-28T09:02:24Z</time>
      </trkpt>
      <trkpt lat="44.54485" lon="5.85176">
        <ele>845.3</ele>
        <time>2023-09-28T09:02:25Z</time>
      </trkpt>
      <trkpt lat="44.54489" lon="5.85178">
        <ele>845.3</ele>
        <time>2023-09-28T09:02:26Z</time>
      </trkpt>
      <trkpt lat="44.54493" lon="5.85179">
        <ele>845.4</ele>
        <time>2023-09-28T09:02:27Z</time>
      </trkpt>
      <trkpt lat="44.54497" lon="5.85181">
        <ele>845.5</ele>
        <time>2023-09-28T09:02:29Z</time>
      </trkpt>
      <trkpt lat="44.54502" lon="5.85182">
        <ele>845.6</ele>
        <time>2023-09-28T09:02:30Z</time>
      </trkpt>
      <trkpt lat="44.54506" lon="5.85184">
        <ele>845.7</ele>
        <time>2023-09-28T09:02:31Z</time>
      </trkpt>
      <trkpt lat="44.5451" lon="5.85186">
        <ele>845.8</ele>
        <time>2023-09-28T09:02:33Z</time>
      </trkpt>
      <trkpt lat="44.54514" lon="5.85188">
        <ele>845.9</ele>
        <time>2023-09-28T09:02:34Z</time>
      </trkpt>
      <trkpt lat="44.54518" lon="5.8519">
        <ele>846</ele>
        <time>2023-09-28T09:02:35Z</time>
      </trkpt>
      <trkpt lat="44.54522" lon="5.85192">
        <ele>846</ele>
        <time>2023-09-28T09:02:36Z</time>
      </trkpt>
      <trkpt lat="44.54525" lon="5.85194">
        <ele>846.1</ele>
        <time>2023-09-28T09:02:37Z</time>
      </trkpt>
      <trkpt lat="44.54529" lon="5.85196">
        <ele>846.2</ele>
        <time>2023-09-28T09:02:38Z</time>
      </trkpt>
      <trkpt lat="44.54533" lon="5.85198">
        <ele>846.3</ele>
        <time>2023-09-28T09:02:39Z</time>
      </trkpt>
      <trkpt lat="44.54537" lon="5.852">
        <ele>846.4</ele>
        <time>2023-09-28T09:02:41Z</time>
      </trkpt>
      <trkpt lat="44.54542" lon="5.85202">
        <ele>846.4</ele>
        <time>2023-09-28T09:02:42Z</time>
      </trkpt>
      <trkpt lat="44.54545" lon="5.85205">
        <ele>846.5</ele>
        <time>2023-09-28T09:02:43Z</time>
      </trkpt>
      <trkpt lat="44.54549" lon="5.85207">
        <ele>846.6</ele>
        <time>2023-09-28T09:02:44Z</time>
      </trkpt>
      <trkpt lat="44.54552" lon="5.85209">
        <ele>846.6</ele>
        <time>2023-09-28T09:02:45Z</time>
      </trkpt>
      <trkpt lat="44.54557" lon="5.85212">
        <ele>846.7</ele>
        <time>2023-09-28T09:02:46Z</time>
      </trkpt>
      <trkpt lat="44.5456" lon="5.85214">
        <ele>846.8</ele>
        <time>2023-09-28T09:02:47Z</time>
      </trkpt>
      <trkpt lat="44.54563" lon="5.85217">
        <ele>846.9</ele>
        <time>2023-09-28T09:02:48Z</time>
      </trkpt>
      <trkpt lat="44.54567" lon="5.85221">
        <ele>847</ele>
        <time>2023-09-28T09:02:50Z</time>
      </trkpt>
      <trkpt lat="44.54571" lon="5.85225">
        <ele>847.1</ele>
        <time>2023-09-28T09:02:51Z</time>
      </trkpt>
      <trkpt lat="44.54576" lon="5.8523">
        <ele>847.2</ele>
        <time>2023-09-28T09:02:52Z</time>
      </trkpt>
      <trkpt lat="44.54579" lon="5.85234">
        <ele>847.3</ele>
        <time>2023-09-28T09:02:53Z</time>
      </trkpt>
      <trkpt lat="44.54582" lon="5.85238">
        <ele>847.5</ele>
        <time>2023-09-28T09:02:54Z</time>
      </trkpt>
      <trkpt lat="44.54585" lon="5.85243">
        <ele>847.6</ele>
        <time>2023-09-28T09:02:56Z</time>
      </trkpt>
      <trkpt lat="44.54588" lon="5.85248">
        <ele>847.7</ele>
        <time>2023-09-28T09:02:57Z</time>
      </trkpt>
      <trkpt lat="44.54591" lon="5.85252">
        <ele>847.8</ele>
        <time>2023-09-28T09:02:58Z</time>
      </trkpt>
      <trkpt lat="44.54594" lon="5.85257">
        <ele>847.9</ele>
        <time>2023-09-28T09:02:59Z</time>
      </trkpt>
      <trkpt lat="44.54597" lon="5.85261">
        <ele>848</ele>
        <time>2023-09-28T09:03:00Z</time>
      </trkpt>
      <trkpt lat="44.54599" lon="5.85267">
        <ele>848.1</ele>
        <time>2023-09-28T09:03:01Z</time>
      </trkpt>
      <trkpt lat="44.54602" lon="5.85271">
        <ele>848.2</ele>
        <time>2023-09-28T09:03:02Z</time>
      </trkpt>
      <trkpt lat="44.54604" lon="5.85275">
        <ele>848.3</ele>
        <time>2023-09-28T09:03:03Z</time>
      </trkpt>
      <trkpt lat="44.54607" lon="5.85281">
        <ele>848.4</ele>
        <time>2023-09-28T09:03:04Z</time>
      </trkpt>
      <trkpt lat="44.5461" lon="5.85287">
        <ele>848.5</ele>
        <time>2023-09-28T09:03:06Z</time>
      </trkpt>
      <trkpt lat="44.54612" lon="5.85291">
        <ele>848.6</ele>
        <time>2023-09-28T09:03:07Z</time>
      </trkpt>
      <trkpt lat="44.54615" lon="5.85296">
        <ele>848.7</ele>
        <time>2023-09-28T09:03:08Z</time>
      </trkpt>
      <trkpt lat="44.54618" lon="5.85301">
        <ele>848.8</ele>
        <time>2023-09-28T09:03:09Z</time>
      </trkpt>
      <trkpt lat="44.5462" lon="5.85306">
        <ele>848.9</ele>
        <time>2023-09-28T09:03:10Z</time>
      </trkpt>
      <trkpt lat="44.54622" lon="5.8531">
        <ele>849</ele>
        <time>2023-09-28T09:03:11Z</time>
      </trkpt>
      <trkpt lat="44.54625" lon="5.85316">
        <ele>849.1</ele>
        <time>2023-09-28T09:03:12Z</time>
      </trkpt>
      <trkpt lat="44.54628" lon="5.85321">
        <ele>849.2</ele>
        <time>2023-09-28T09:03:14Z</time>
      </trkpt>
      <trkpt lat="44.54631" lon="5.85327">
        <ele>849.4</ele>
        <time>2023-09-28T09:03:15Z</time>
      </trkpt>
      <trkpt lat="44.54634" lon="5.85331">
        <ele>849.5</ele>
        <time>2023-09-28T09:03:16Z</time>
      </trkpt>
      <trkpt lat="44.54637" lon="5.85336">
        <ele>849.6</ele>
        <time>2023-09-28T09:03:17Z</time>
      </trkpt>
      <trkpt lat="44.54639" lon="5.85341">
        <ele>849.7</ele>
        <time>2023-09-28T09:03:18Z</time>
      </trkpt>
      <trkpt lat="44.54642" lon="5.85346">
        <ele>849.8</ele>
        <time>2023-09-28T09:03:19Z</time>
      </trkpt>
      <trkpt lat="44.54645" lon="5.85351">
        <ele>849.9</ele>
        <time>2023-09-28T09:03:20Z</time>
      </trkpt>
      <trkpt lat="44.54648" lon="5.85356">
        <ele>850</ele>
        <time>2023-09-28T09:03:22Z</time>
      </trkpt>
      <trkpt lat="44.5465" lon="5.85361">
        <ele>850.1</ele>
        <time>2023-09-28T09:03:23Z</time>
      </trkpt>
      <trkpt lat="44.54653" lon="5.85366">
        <ele>850.2</ele>
        <time>2023-09-28T09:03:24Z</time>
      </trkpt>
      <trkpt lat="44.54656" lon="5.85371">
        <ele>850.3</ele>
        <time>2023-09-28T09:03:25Z</time>
      </trkpt>
      <trkpt lat="44.54659" lon="5.85375">
        <ele>850.4</ele>
        <time>2023-09-28T09:03:26Z</time>
      </trkpt>
      <trkpt lat="44.54662" lon="5.8538">
        <ele>850.5</ele>
        <time>2023-09-28T09:03:27Z</time>
      </trkpt>
      <trkpt lat="44.54665" lon="5.85384">
        <ele>850.6</ele>
        <time>2023-09-28T09:03:29Z</time>
      </trkpt>
      <trkpt lat="44.54669" lon="5.85391">
        <ele>850.7</ele>
        <time>2023-09-28T09:03:30Z</time>
      </trkpt>
      <trkpt lat="44.54673" lon="5.85395">
        <ele>850.8</ele>
        <time>2023-09-28T09:03:31Z</time>
      </trkpt>
      <trkpt lat="44.54676" lon="5.85399">
        <ele>851</ele>
        <time>2023-09-28T09:03:33Z</time>
      </trkpt>
      <trkpt lat="44.5468" lon="5.85403">
        <ele>851.1</ele>
        <time>2023-09-28T09:03:34Z</time>
      </trkpt>
      <trkpt lat="44.54683" lon="5.85407">
        <ele>851.2</ele>
        <time>2023-09-28T09:03:35Z</time>
      </trkpt>
      <trkpt lat="44.54687" lon="5.85409">
        <ele>851.3</ele>
        <time>2023-09-28T09:03:36Z</time>
      </trkpt>
      <trkpt lat="44.5469" lon="5.85412">
        <ele>851.4</ele>
        <time>2023-09-28T09:03:37Z</time>
      </trkpt>
      <trkpt lat="44.54694" lon="5.85415">
        <ele>851.5</ele>
        <time>2023-09-28T09:03:38Z</time>
      </trkpt>
      <trkpt lat="44.54697" lon="5.85418">
        <ele>851.6</ele>
        <time>2023-09-28T09:03:39Z</time>
      </trkpt>
      <trkpt lat="44.547" lon="5.8542">
        <ele>851.7</ele>
        <time>2023-09-28T09:03:40Z</time>
      </trkpt>
      <trkpt lat="44.54707" lon="5.85423">
        <ele>851.9</ele>
        <time>2023-09-28T09:03:42Z</time>
      </trkpt>
      <trkpt lat="44.5471" lon="5.85424">
        <ele>852.1</ele>
        <time>2023-09-28T09:03:44Z</time>
      </trkpt>
      <trkpt lat="44.54714" lon="5.85426">
        <ele>852.2</ele>
        <time>2023-09-28T09:03:45Z</time>
      </trkpt>
      <trkpt lat="44.54717" lon="5.85426">
        <ele>852.3</ele>
        <time>2023-09-28T09:03:46Z</time>
      </trkpt>
      <trkpt lat="44.54719" lon="5.85426">
        <ele>852.4</ele>
        <time>2023-09-28T09:03:47Z</time>
      </trkpt>
      <trkpt lat="44.5472" lon="5.85425">
        <ele>852.4</ele>
        <time>2023-09-28T09:03:48Z</time>
      </trkpt>
      <trkpt lat="44.54721" lon="5.85424">
        <ele>852.5</ele>
        <time>2023-09-28T09:03:49Z</time>
      </trkpt>
      <trkpt lat="44.54722" lon="5.85424">
        <ele>852.5</ele>
        <time>2023-09-28T09:03:50Z</time>
      </trkpt>
      <trkpt lat="44.54724" lon="5.85425">
        <ele>852.6</ele>
        <time>2023-09-28T09:03:51Z</time>
      </trkpt>
      <trkpt lat="44.54726" lon="5.85426">
        <ele>852.7</ele>
        <time>2023-09-28T09:03:53Z</time>
      </trkpt>
      <trkpt lat="44.54726" lon="5.85426">
        <ele>852.7</ele>
        <time>2023-09-28T09:03:55Z</time>
      </trkpt>
      <trkpt lat="44.54725" lon="5.85426">
        <ele>852.7</ele>
        <time>2023-09-28T09:03:56Z</time>
      </trkpt>
      <trkpt lat="44.54725" lon="5.85426">
        <ele>852.7</ele>
        <time>2023-09-28T09:03:57Z</time>
      </trkpt>
      <trkpt lat="44.54725" lon="5.85426">
        <ele>852.7</ele>
        <time>2023-09-28T09:03:58Z</time>
      </trkpt>
      <trkpt lat="44.54725" lon="5.85427">
        <ele>852.7</ele>
        <time>2023-09-28T09:04:00Z</time>
      </trkpt>
      <trkpt lat="44.54725" lon="5.85427">
        <ele>852.7</ele>
        <time>2023-09-28T09:04:01Z</time>
      </trkpt>
      <trkpt lat="44.54725" lon="5.85426">
        <ele>852.8</ele>
        <time>2023-09-28T09:04:02Z</time>
      </trkpt>
      <trkpt lat="44.54726" lon="5.85425">
        <ele>852.8</ele>
        <time>2023-09-28T09:04:03Z</time>
      </trkpt>
      <trkpt lat="44.54727" lon="5.85425">
        <ele>852.9</ele>
        <time>2023-09-28T09:04:05Z</time>
      </trkpt>
      <trkpt lat="44.54727" lon="5.85425">
        <ele>852.9</ele>
        <time>2023-09-28T09:04:06Z</time>
      </trkpt>
      <trkpt lat="44.54728" lon="5.85424">
        <ele>852.9</ele>
        <time>2023-09-28T09:04:07Z</time>
      </trkpt>
      <trkpt lat="44.54728" lon="5.85424">
        <ele>852.9</ele>
        <time>2023-09-28T09:04:09Z</time>
      </trkpt>
      <trkpt lat="44.54729" lon="5.85423">
        <ele>852.9</ele>
        <time>2023-09-28T09:04:10Z</time>
      </trkpt>
      <trkpt lat="44.54729" lon="5.85423">
        <ele>853</ele>
        <time>2023-09-28T09:04:11Z</time>
      </trkpt>
      <trkpt lat="44.54729" lon="5.85423">
        <ele>853</ele>
        <time>2023-09-28T09:04:13Z</time>
      </trkpt>
      <trkpt lat="44.54729" lon="5.85423">
        <ele>853</ele>
        <time>2023-09-28T09:04:14Z</time>
      </trkpt>
      <trkpt lat="44.54729" lon="5.85423">
        <ele>853</ele>
        <time>2023-09-28T09:04:15Z</time>
      </trkpt>
      <trkpt lat="44.5473" lon="5.85422">
        <ele>853</ele>
        <time>2023-09-28T09:04:16Z</time>
      </trkpt>
      <trkpt lat="44.5473" lon="5.85421">
        <ele>853.1</ele>
        <time>2023-09-28T09:04:17Z</time>
      </trkpt>
      <trkpt lat="44.54731" lon="5.8542">
        <ele>853.1</ele>
        <time>2023-09-28T09:04:18Z</time>
      </trkpt>
      <trkpt lat="44.54731" lon="5.85419">
        <ele>853.1</ele>
        <time>2023-09-28T09:04:19Z</time>
      </trkpt>
      <trkpt lat="44.54731" lon="5.85418">
        <ele>853.1</ele>
        <time>2023-09-28T09:04:20Z</time>
      </trkpt>
      <trkpt lat="44.54732" lon="5.85417">
        <ele>853.1</ele>
        <time>2023-09-28T09:05:33Z</time>
      </trkpt>
      <trkpt lat="44.54732" lon="5.85417">
        <ele>853.1</ele>
        <time>2023-09-28T09:05:34Z</time>
      </trkpt>
      <trkpt lat="44.54732" lon="5.85416">
        <ele>853.1</ele>
        <time>2023-09-28T09:05:36Z</time>
      </trkpt>
      <trkpt lat="44.54733" lon="5.85415">
        <ele>853.1</ele>
        <time>2023-09-28T09:05:37Z</time>
      </trkpt>
      <trkpt lat="44.54734" lon="5.85414">
        <ele>853.1</ele>
        <time>2023-09-28T09:05:38Z</time>
      </trkpt>
      <trkpt lat="44.54736" lon="5.85413">
        <ele>853.1</ele>
        <time>2023-09-28T09:05:39Z</time>
      </trkpt>
      <trkpt lat="44.54737" lon="5.85414">
        <ele>853.1</ele>
        <time>2023-09-28T09:05:40Z</time>
      </trkpt>
      <trkpt lat="44.54737" lon="5.85414">
        <ele>853.1</ele>
        <time>2023-09-28T09:05:42Z</time>
      </trkpt>
      <trkpt lat="44.54737" lon="5.85414">
        <ele>853.1</ele>
        <time>2023-09-28T09:05:43Z</time>
      </trkpt>
      <trkpt lat="44.54738" lon="5.85414">
        <ele>853.1</ele>
        <time>2023-09-28T09:05:44Z</time>
      </trkpt>
      <trkpt lat="44.54738" lon="5.85414">
        <ele>853.1</ele>
        <time>2023-09-28T09:05:45Z</time>
      </trkpt>
      <trkpt lat="44.54739" lon="5.85414">
        <ele>853.1</ele>
        <time>2023-09-28T09:05:47Z</time>
      </trkpt>
      <trkpt lat="44.54739" lon="5.85414">
        <ele>853.1</ele>
        <time>2023-09-28T09:05:48Z</time>
      </trkpt>
      <trkpt lat="44.5474" lon="5.85415">
        <ele>853.1</ele>
        <time>2023-09-28T09:05:49Z</time>
      </trkpt>
      <trkpt lat="44.5474" lon="5.85415">
        <ele>853.1</ele>
        <time>2023-09-28T09:05:50Z</time>
      </trkpt>
      <trkpt lat="44.5474" lon="5.85415">
        <ele>853.1</ele>
        <time>2023-09-28T09:05:52Z</time>
      </trkpt>
      <trkpt lat="44.54741" lon="5.85415">
        <ele>853.1</ele>
        <time>2023-09-28T09:05:53Z</time>
      </trkpt>
      <trkpt lat="44.54741" lon="5.85416">
        <ele>853.1</ele>
        <time>2023-09-28T09:05:54Z</time>
      </trkpt>
      <trkpt lat="44.54741" lon="5.85416">
        <ele>853.3</ele>
        <time>2023-09-28T09:05:56Z</time>
      </trkpt>
      <trkpt lat="44.54742" lon="5.85416">
        <ele>853.3</ele>
        <time>2023-09-28T09:05:57Z</time>
      </trkpt>
      <trkpt lat="44.54742" lon="5.85416">
        <ele>853.3</ele>
        <time>2023-09-28T09:05:58Z</time>
      </trkpt>
      <trkpt lat="44.54743" lon="5.85417">
        <ele>853.3</ele>
        <time>2023-09-28T09:06:00Z</time>
      </trkpt>
      <trkpt lat="44.54743" lon="5.85417">
        <ele>853.3</ele>
        <time>2023-09-28T09:06:01Z</time>
      </trkpt>
      <trkpt lat="44.54743" lon="5.85417">
        <ele>853.4</ele>
        <time>2023-09-28T09:06:02Z</time>
      </trkpt>
      <trkpt lat="44.54744" lon="5.85417">
        <ele>853.4</ele>
        <time>2023-09-28T09:06:03Z</time>
      </trkpt>
      <trkpt lat="44.54744" lon="5.85417">
        <ele>853.4</ele>
        <time>2023-09-28T09:06:04Z</time>
      </trkpt>
      <trkpt lat="44.54744" lon="5.85418">
        <ele>853.4</ele>
        <time>2023-09-28T09:06:11Z</time>
      </trkpt>
      <trkpt lat="44.54745" lon="5.85418">
        <ele>853.4</ele>
        <time>2023-09-28T09:06:12Z</time>
      </trkpt>
      <trkpt lat="44.54745" lon="5.85418">
        <ele>853.4</ele>
        <time>2023-09-28T09:06:13Z</time>
      </trkpt>
      <trkpt lat="44.54746" lon="5.85418">
        <ele>853.4</ele>
        <time>2023-09-28T09:06:14Z</time>
      </trkpt>
      <trkpt lat="44.54746" lon="5.85419">
        <ele>853.4</ele>
        <time>2023-09-28T09:06:16Z</time>
      </trkpt>
      <trkpt lat="44.54748" lon="5.8542">
        <ele>853.5</ele>
        <time>2023-09-28T09:06:17Z</time>
      </trkpt>
      <trkpt lat="44.54751" lon="5.85422">
        <ele>853.5</ele>
        <time>2023-09-28T09:06:18Z</time>
      </trkpt>
      <trkpt lat="44.54752" lon="5.85423">
        <ele>853.5</ele>
        <time>2023-09-28T09:06:19Z</time>
      </trkpt>
      <trkpt lat="44.54753" lon="5.85425">
        <ele>853.6</ele>
        <time>2023-09-28T09:06:20Z</time>
      </trkpt>
      <trkpt lat="44.54754" lon="5.85427">
        <ele>853.6</ele>
        <time>2023-09-28T09:06:21Z</time>
      </trkpt>
      <trkpt lat="44.54755" lon="5.85431">
        <ele>853.7</ele>
        <time>2023-09-28T09:06:23Z</time>
      </trkpt>
      <trkpt lat="44.54756" lon="5.85432">
        <ele>853.7</ele>
        <time>2023-09-28T09:06:24Z</time>
      </trkpt>
      <trkpt lat="44.54757" lon="5.85436">
        <ele>853.8</ele>
        <time>2023-09-28T09:06:25Z</time>
      </trkpt>
      <trkpt lat="44.54759" lon="5.8544">
        <ele>853.8</ele>
        <time>2023-09-28T09:06:26Z</time>
      </trkpt>
      <trkpt lat="44.54762" lon="5.85443">
        <ele>853.9</ele>
        <time>2023-09-28T09:06:27Z</time>
      </trkpt>
      <trkpt lat="44.54764" lon="5.85446">
        <ele>853.9</ele>
        <time>2023-09-28T09:06:28Z</time>
      </trkpt>
      <trkpt lat="44.54766" lon="5.85451">
        <ele>854</ele>
        <time>2023-09-28T09:06:29Z</time>
      </trkpt>
      <trkpt lat="44.54769" lon="5.85456">
        <ele>854.1</ele>
        <time>2023-09-28T09:06:31Z</time>
      </trkpt>
      <trkpt lat="44.54772" lon="5.85461">
        <ele>854.2</ele>
        <time>2023-09-28T09:06:32Z</time>
      </trkpt>
      <trkpt lat="44.54775" lon="5.85467">
        <ele>854.3</ele>
        <time>2023-09-28T09:06:34Z</time>
      </trkpt>
      <trkpt lat="44.54777" lon="5.85472">
        <ele>854.3</ele>
        <time>2023-09-28T09:06:35Z</time>
      </trkpt>
      <trkpt lat="44.54779" lon="5.85475">
        <ele>854.4</ele>
        <time>2023-09-28T09:06:36Z</time>
      </trkpt>
      <trkpt lat="44.5478" lon="5.85479">
        <ele>854.4</ele>
        <time>2023-09-28T09:06:37Z</time>
      </trkpt>
      <trkpt lat="44.54783" lon="5.85485">
        <ele>854.5</ele>
        <time>2023-09-28T09:06:39Z</time>
      </trkpt>
      <trkpt lat="44.54785" lon="5.85489">
        <ele>854.6</ele>
        <time>2023-09-28T09:06:40Z</time>
      </trkpt>
      <trkpt lat="44.54787" lon="5.85494">
        <ele>854.6</ele>
        <time>2023-09-28T09:06:42Z</time>
      </trkpt>
      <trkpt lat="44.54788" lon="5.85498">
        <ele>854.7</ele>
        <time>2023-09-28T09:06:43Z</time>
      </trkpt>
      <trkpt lat="44.5479" lon="5.85502">
        <ele>854.7</ele>
        <time>2023-09-28T09:06:44Z</time>
      </trkpt>
      <trkpt lat="44.54791" lon="5.85505">
        <ele>854.8</ele>
        <time>2023-09-28T09:06:45Z</time>
      </trkpt>
      <trkpt lat="44.54793" lon="5.85509">
        <ele>854.8</ele>
        <time>2023-09-28T09:06:47Z</time>
      </trkpt>
      <trkpt lat="44.54794" lon="5.85512">
        <ele>854.9</ele>
        <time>2023-09-28T09:06:48Z</time>
      </trkpt>
      <trkpt lat="44.54796" lon="5.85516">
        <ele>854.9</ele>
        <time>2023-09-28T09:06:49Z</time>
      </trkpt>
      <trkpt lat="44.54797" lon="5.8552">
        <ele>855</ele>
        <time>2023-09-28T09:06:50Z</time>
      </trkpt>
      <trkpt lat="44.54799" lon="5.85523">
        <ele>855</ele>
        <time>2023-09-28T09:06:51Z</time>
      </trkpt>
      <trkpt lat="44.548" lon="5.85524">
        <ele>855.1</ele>
        <time>2023-09-28T09:06:52Z</time>
      </trkpt>
      <trkpt lat="44.54801" lon="5.85527">
        <ele>855.1</ele>
        <time>2023-09-28T09:06:53Z</time>
      </trkpt>
      <trkpt lat="44.54803" lon="5.8553">
        <ele>855.2</ele>
        <time>2023-09-28T09:06:55Z</time>
      </trkpt>
      <trkpt lat="44.54804" lon="5.85531">
        <ele>855.2</ele>
        <time>2023-09-28T09:06:56Z</time>
      </trkpt>
      <trkpt lat="44.54804" lon="5.85533">
        <ele>855.2</ele>
        <time>2023-09-28T09:06:57Z</time>
      </trkpt>
      <trkpt lat="44.54804" lon="5.85534">
        <ele>855.2</ele>
        <time>2023-09-28T09:06:58Z</time>
      </trkpt>
      <trkpt lat="44.54805" lon="5.85536">
        <ele>855.2</ele>
        <time>2023-09-28T09:07:00Z</time>
      </trkpt>
      <trkpt lat="44.54805" lon="5.85536">
        <ele>855.2</ele>
        <time>2023-09-28T09:07:01Z</time>
      </trkpt>
      <trkpt lat="44.54806" lon="5.85536">
        <ele>855.3</ele>
        <time>2023-09-28T09:07:03Z</time>
      </trkpt>
      <trkpt lat="44.54806" lon="5.85536">
        <ele>855.2</ele>
        <time>2023-09-28T09:07:04Z</time>
      </trkpt>
      <trkpt lat="44.54806" lon="5.85537">
        <ele>855.2</ele>
        <time>2023-09-28T09:07:05Z</time>
      </trkpt>
      <trkpt lat="44.54807" lon="5.85537">
        <ele>855.2</ele>
        <time>2023-09-28T09:07:06Z</time>
      </trkpt>
      <trkpt lat="44.54807" lon="5.85537">
        <ele>855.2</ele>
        <time>2023-09-28T09:07:08Z</time>
      </trkpt>
      <trkpt lat="44.54808" lon="5.85538">
        <ele>855.2</ele>
        <time>2023-09-28T09:07:09Z</time>
      </trkpt>
      <trkpt lat="44.54811" lon="5.85537">
        <ele>855.2</ele>
        <time>2023-09-28T09:07:10Z</time>
      </trkpt>
      <trkpt lat="44.54815" lon="5.85537">
        <ele>855.2</ele>
        <time>2023-09-28T09:07:11Z</time>
      </trkpt>
      <trkpt lat="44.54819" lon="5.85536">
        <ele>855.2</ele>
        <time>2023-09-28T09:07:12Z</time>
      </trkpt>
      <trkpt lat="44.54823" lon="5.85534">
        <ele>855.2</ele>
        <time>2023-09-28T09:07:14Z</time>
      </trkpt>
      <trkpt lat="44.54826" lon="5.85531">
        <ele>855.3</ele>
        <time>2023-09-28T09:07:15Z</time>
      </trkpt>
      <trkpt lat="44.54829" lon="5.8553">
        <ele>855.3</ele>
        <time>2023-09-28T09:07:16Z</time>
      </trkpt>
      <trkpt lat="44.54833" lon="5.85531">
        <ele>855.3</ele>
        <time>2023-09-28T09:07:17Z</time>
      </trkpt>
      <trkpt lat="44.54836" lon="5.85531">
        <ele>855.4</ele>
        <time>2023-09-28T09:07:18Z</time>
      </trkpt>
      <trkpt lat="44.5484" lon="5.85531">
        <ele>855.4</ele>
        <time>2023-09-28T09:07:19Z</time>
      </trkpt>
      <trkpt lat="44.54844" lon="5.85531">
        <ele>855.4</ele>
        <time>2023-09-28T09:07:21Z</time>
      </trkpt>
      <trkpt lat="44.54847" lon="5.85531">
        <ele>855.5</ele>
        <time>2023-09-28T09:07:22Z</time>
      </trkpt>
      <trkpt lat="44.54851" lon="5.8553">
        <ele>855.5</ele>
        <time>2023-09-28T09:07:23Z</time>
      </trkpt>
      <trkpt lat="44.54854" lon="5.8553">
        <ele>855.6</ele>
        <time>2023-09-28T09:07:24Z</time>
      </trkpt>
      <trkpt lat="44.54857" lon="5.8553">
        <ele>855.6</ele>
        <time>2023-09-28T09:07:25Z</time>
      </trkpt>
      <trkpt lat="44.54861" lon="5.8553">
        <ele>855.7</ele>
        <time>2023-09-28T09:07:26Z</time>
      </trkpt>
      <trkpt lat="44.54864" lon="5.8553">
        <ele>855.7</ele>
        <time>2023-09-28T09:07:27Z</time>
      </trkpt>
      <trkpt lat="44.54869" lon="5.85531">
        <ele>855.8</ele>
        <time>2023-09-28T09:07:29Z</time>
      </trkpt>
      <trkpt lat="44.54873" lon="5.85531">
        <ele>855.9</ele>
        <time>2023-09-28T09:07:30Z</time>
      </trkpt>
      <trkpt lat="44.54877" lon="5.85531">
        <ele>856</ele>
        <time>2023-09-28T09:07:31Z</time>
      </trkpt>
      <trkpt lat="44.54881" lon="5.85531">
        <ele>856</ele>
        <time>2023-09-28T09:07:32Z</time>
      </trkpt>
      <trkpt lat="44.54887" lon="5.85531">
        <ele>856.1</ele>
        <time>2023-09-28T09:07:34Z</time>
      </trkpt>
      <trkpt lat="44.5489" lon="5.85532">
        <ele>856.2</ele>
        <time>2023-09-28T09:07:35Z</time>
      </trkpt>
      <trkpt lat="44.54896" lon="5.85533">
        <ele>856.3</ele>
        <time>2023-09-28T09:07:37Z</time>
      </trkpt>
      <trkpt lat="44.549" lon="5.85533">
        <ele>856.3</ele>
        <time>2023-09-28T09:07:38Z</time>
      </trkpt>
      <trkpt lat="44.54904" lon="5.85533">
        <ele>856.4</ele>
        <time>2023-09-28T09:07:39Z</time>
      </trkpt>
      <trkpt lat="44.54908" lon="5.85533">
        <ele>856.4</ele>
        <time>2023-09-28T09:07:40Z</time>
      </trkpt>
      <trkpt lat="44.54912" lon="5.85534">
        <ele>856.5</ele>
        <time>2023-09-28T09:07:42Z</time>
      </trkpt>
      <trkpt lat="44.54916" lon="5.85535">
        <ele>856.6</ele>
        <time>2023-09-28T09:07:43Z</time>
      </trkpt>
      <trkpt lat="44.54921" lon="5.85536">
        <ele>856.7</ele>
        <time>2023-09-28T09:07:44Z</time>
      </trkpt>
      <trkpt lat="44.54924" lon="5.85537">
        <ele>856.8</ele>
        <time>2023-09-28T09:07:45Z</time>
      </trkpt>
      <trkpt lat="44.54929" lon="5.85539">
        <ele>856.9</ele>
        <time>2023-09-28T09:07:46Z</time>
      </trkpt>
      <trkpt lat="44.54932" lon="5.85539">
        <ele>857</ele>
        <time>2023-09-28T09:07:47Z</time>
      </trkpt>
      <trkpt lat="44.54937" lon="5.85541">
        <ele>857.1</ele>
        <time>2023-09-28T09:07:48Z</time>
      </trkpt>
      <trkpt lat="44.5494" lon="5.85543">
        <ele>857.3</ele>
        <time>2023-09-28T09:07:50Z</time>
      </trkpt>
      <trkpt lat="44.54944" lon="5.85544">
        <ele>857.4</ele>
        <time>2023-09-28T09:07:51Z</time>
      </trkpt>
      <trkpt lat="44.54948" lon="5.85546">
        <ele>857.5</ele>
        <time>2023-09-28T09:07:52Z</time>
      </trkpt>
      <trkpt lat="44.54951" lon="5.85547">
        <ele>857.6</ele>
        <time>2023-09-28T09:07:53Z</time>
      </trkpt>
      <trkpt lat="44.54955" lon="5.85548">
        <ele>857.8</ele>
        <time>2023-09-28T09:07:54Z</time>
      </trkpt>
      <trkpt lat="44.54958" lon="5.85549">
        <ele>857.9</ele>
        <time>2023-09-28T09:07:55Z</time>
      </trkpt>
      <trkpt lat="44.54961" lon="5.8555">
        <ele>858</ele>
        <time>2023-09-28T09:07:56Z</time>
      </trkpt>
      <trkpt lat="44.54964" lon="5.85551">
        <ele>858.1</ele>
        <time>2023-09-28T09:07:57Z</time>
      </trkpt>
      <trkpt lat="44.54968" lon="5.85553">
        <ele>858.3</ele>
        <time>2023-09-28T09:07:58Z</time>
      </trkpt>
      <trkpt lat="44.54971" lon="5.85554">
        <ele>858.4</ele>
        <time>2023-09-28T09:07:59Z</time>
      </trkpt>
      <trkpt lat="44.54975" lon="5.85555">
        <ele>858.5</ele>
        <time>2023-09-28T09:08:00Z</time>
      </trkpt>
      <trkpt lat="44.5498" lon="5.85558">
        <ele>858.7</ele>
        <time>2023-09-28T09:08:02Z</time>
      </trkpt>
      <trkpt lat="44.54983" lon="5.85559">
        <ele>858.8</ele>
        <time>2023-09-28T09:08:03Z</time>
      </trkpt>
      <trkpt lat="44.54987" lon="5.8556">
        <ele>858.9</ele>
        <time>2023-09-28T09:08:05Z</time>
      </trkpt>
      <trkpt lat="44.54991" lon="5.85563">
        <ele>859.1</ele>
        <time>2023-09-28T09:08:06Z</time>
      </trkpt>
      <trkpt lat="44.54995" lon="5.85564">
        <ele>859.2</ele>
        <time>2023-09-28T09:08:07Z</time>
      </trkpt>
      <trkpt lat="44.54998" lon="5.85566">
        <ele>859.3</ele>
        <time>2023-09-28T09:08:08Z</time>
      </trkpt>
      <trkpt lat="44.55001" lon="5.85568">
        <ele>859.4</ele>
        <time>2023-09-28T09:08:09Z</time>
      </trkpt>
      <trkpt lat="44.55005" lon="5.8557">
        <ele>859.6</ele>
        <time>2023-09-28T09:08:10Z</time>
      </trkpt>
      <trkpt lat="44.55009" lon="5.85572">
        <ele>859.7</ele>
        <time>2023-09-28T09:08:11Z</time>
      </trkpt>
      <trkpt lat="44.55012" lon="5.85574">
        <ele>859.8</ele>
        <time>2023-09-28T09:08:12Z</time>
      </trkpt>
      <trkpt lat="44.55016" lon="5.85576">
        <ele>859.9</ele>
        <time>2023-09-28T09:08:13Z</time>
      </trkpt>
      <trkpt lat="44.5502" lon="5.85578">
        <ele>860</ele>
        <time>2023-09-28T09:08:15Z</time>
      </trkpt>
      <trkpt lat="44.55025" lon="5.85582">
        <ele>860.2</ele>
        <time>2023-09-28T09:08:16Z</time>
      </trkpt>
      <trkpt lat="44.55028" lon="5.85584">
        <ele>860.2</ele>
        <time>2023-09-28T09:08:17Z</time>
      </trkpt>
      <trkpt lat="44.55033" lon="5.85586">
        <ele>860.4</ele>
        <time>2023-09-28T09:08:19Z</time>
      </trkpt>
      <trkpt lat="44.55036" lon="5.85588">
        <ele>860.4</ele>
        <time>2023-09-28T09:08:20Z</time>
      </trkpt>
      <trkpt lat="44.5504" lon="5.8559">
        <ele>860.5</ele>
        <time>2023-09-28T09:08:21Z</time>
      </trkpt>
      <trkpt lat="44.55045" lon="5.85593">
        <ele>860.7</ele>
        <time>2023-09-28T09:08:22Z</time>
      </trkpt>
      <trkpt lat="44.55049" lon="5.85596">
        <ele>860.8</ele>
        <time>2023-09-28T09:08:23Z</time>
      </trkpt>
      <trkpt lat="44.55053" lon="5.85599">
        <ele>860.9</ele>
        <time>2023-09-28T09:08:25Z</time>
      </trkpt>
      <trkpt lat="44.55059" lon="5.85603">
        <ele>861</ele>
        <time>2023-09-28T09:08:26Z</time>
      </trkpt>
      <trkpt lat="44.55063" lon="5.85605">
        <ele>861.1</ele>
        <time>2023-09-28T09:08:27Z</time>
      </trkpt>
      <trkpt lat="44.55067" lon="5.85608">
        <ele>861.2</ele>
        <time>2023-09-28T09:08:28Z</time>
      </trkpt>
      <trkpt lat="44.55072" lon="5.85611">
        <ele>861.3</ele>
        <time>2023-09-28T09:08:29Z</time>
      </trkpt>
      <trkpt lat="44.55076" lon="5.85613">
        <ele>861.4</ele>
        <time>2023-09-28T09:08:31Z</time>
      </trkpt>
      <trkpt lat="44.55079" lon="5.85615">
        <ele>861.5</ele>
        <time>2023-09-28T09:08:32Z</time>
      </trkpt>
      <trkpt lat="44.55084" lon="5.85619">
        <ele>861.6</ele>
        <time>2023-09-28T09:08:33Z</time>
      </trkpt>
      <trkpt lat="44.55087" lon="5.8562">
        <ele>861.7</ele>
        <time>2023-09-28T09:08:34Z</time>
      </trkpt>
      <trkpt lat="44.55091" lon="5.85622">
        <ele>861.8</ele>
        <time>2023-09-28T09:08:35Z</time>
      </trkpt>
      <trkpt lat="44.55095" lon="5.85625">
        <ele>862</ele>
        <time>2023-09-28T09:08:37Z</time>
      </trkpt>
      <trkpt lat="44.55099" lon="5.85627">
        <ele>862.1</ele>
        <time>2023-09-28T09:08:38Z</time>
      </trkpt>
      <trkpt lat="44.55102" lon="5.85629">
        <ele>862.2</ele>
        <time>2023-09-28T09:08:39Z</time>
      </trkpt>
      <trkpt lat="44.55106" lon="5.85631">
        <ele>862.3</ele>
        <time>2023-09-28T09:08:40Z</time>
      </trkpt>
      <trkpt lat="44.55111" lon="5.85632">
        <ele>862.4</ele>
        <time>2023-09-28T09:08:41Z</time>
      </trkpt>
      <trkpt lat="44.55114" lon="5.85633">
        <ele>862.5</ele>
        <time>2023-09-28T09:08:42Z</time>
      </trkpt>
      <trkpt lat="44.55117" lon="5.85634">
        <ele>862.6</ele>
        <time>2023-09-28T09:08:43Z</time>
      </trkpt>
      <trkpt lat="44.55121" lon="5.85634">
        <ele>862.7</ele>
        <time>2023-09-28T09:08:44Z</time>
      </trkpt>
      <trkpt lat="44.55125" lon="5.85635">
        <ele>862.8</ele>
        <time>2023-09-28T09:08:45Z</time>
      </trkpt>
      <trkpt lat="44.55129" lon="5.85635">
        <ele>862.8</ele>
        <time>2023-09-28T09:08:46Z</time>
      </trkpt>
      <trkpt lat="44.55137" lon="5.85637">
        <ele>863</ele>
        <time>2023-09-28T09:08:48Z</time>
      </trkpt>
      <trkpt lat="44.55142" lon="5.85637">
        <ele>863.2</ele>
        <time>2023-09-28T09:08:50Z</time>
      </trkpt>
      <trkpt lat="44.55146" lon="5.85637">
        <ele>863.3</ele>
        <time>2023-09-28T09:08:51Z</time>
      </trkpt>
      <trkpt lat="44.55149" lon="5.85637">
        <ele>863.4</ele>
        <time>2023-09-28T09:08:52Z</time>
      </trkpt>
      <trkpt lat="44.55153" lon="5.85636">
        <ele>863.5</ele>
        <time>2023-09-28T09:08:53Z</time>
      </trkpt>
      <trkpt lat="44.55157" lon="5.85636">
        <ele>863.6</ele>
        <time>2023-09-28T09:08:54Z</time>
      </trkpt>
      <trkpt lat="44.55161" lon="5.85636">
        <ele>863.7</ele>
        <time>2023-09-28T09:08:55Z</time>
      </trkpt>
      <trkpt lat="44.55165" lon="5.85635">
        <ele>863.8</ele>
        <time>2023-09-28T09:08:56Z</time>
      </trkpt>
      <trkpt lat="44.5517" lon="5.85635">
        <ele>863.9</ele>
        <time>2023-09-28T09:08:58Z</time>
      </trkpt>
      <trkpt lat="44.55173" lon="5.85635">
        <ele>864</ele>
        <time>2023-09-28T09:08:59Z</time>
      </trkpt>
      <trkpt lat="44.55177" lon="5.85635">
        <ele>864.1</ele>
        <time>2023-09-28T09:09:00Z</time>
      </trkpt>
      <trkpt lat="44.55182" lon="5.85634">
        <ele>864.2</ele>
        <time>2023-09-28T09:09:01Z</time>
      </trkpt>
      <trkpt lat="44.55185" lon="5.85634">
        <ele>864.3</ele>
        <time>2023-09-28T09:09:02Z</time>
      </trkpt>
      <trkpt lat="44.55189" lon="5.85634">
        <ele>864.4</ele>
        <time>2023-09-28T09:09:03Z</time>
      </trkpt>
      <trkpt lat="44.55194" lon="5.85636">
        <ele>864.5</ele>
        <time>2023-09-28T09:09:04Z</time>
      </trkpt>
      <trkpt lat="44.55198" lon="5.85636">
        <ele>864.6</ele>
        <time>2023-09-28T09:09:05Z</time>
      </trkpt>
      <trkpt lat="44.55201" lon="5.85637">
        <ele>864.7</ele>
        <time>2023-09-28T09:09:06Z</time>
      </trkpt>
      <trkpt lat="44.55206" lon="5.85637">
        <ele>864.8</ele>
        <time>2023-09-28T09:09:08Z</time>
      </trkpt>
      <trkpt lat="44.55211" lon="5.85638">
        <ele>864.9</ele>
        <time>2023-09-28T09:09:09Z</time>
      </trkpt>
      <trkpt lat="44.55215" lon="5.85639">
        <ele>865</ele>
        <time>2023-09-28T09:09:10Z</time>
      </trkpt>
      <trkpt lat="44.55218" lon="5.8564">
        <ele>865.1</ele>
        <time>2023-09-28T09:09:11Z</time>
      </trkpt>
      <trkpt lat="44.55223" lon="5.8564">
        <ele>865.1</ele>
        <time>2023-09-28T09:09:12Z</time>
      </trkpt>
      <trkpt lat="44.55227" lon="5.85641">
        <ele>865.2</ele>
        <time>2023-09-28T09:09:13Z</time>
      </trkpt>
      <trkpt lat="44.5523" lon="5.85642">
        <ele>865.3</ele>
        <time>2023-09-28T09:09:14Z</time>
      </trkpt>
      <trkpt lat="44.55235" lon="5.85643">
        <ele>865.4</ele>
        <time>2023-09-28T09:09:16Z</time>
      </trkpt>
      <trkpt lat="44.55239" lon="5.85643">
        <ele>865.5</ele>
        <time>2023-09-28T09:09:17Z</time>
      </trkpt>
      <trkpt lat="44.55244" lon="5.85643">
        <ele>865.6</ele>
        <time>2023-09-28T09:09:18Z</time>
      </trkpt>
      <trkpt lat="44.55248" lon="5.85644">
        <ele>865.7</ele>
        <time>2023-09-28T09:09:19Z</time>
      </trkpt>
      <trkpt lat="44.55252" lon="5.85645">
        <ele>865.8</ele>
        <time>2023-09-28T09:09:20Z</time>
      </trkpt>
      <trkpt lat="44.55257" lon="5.85645">
        <ele>865.9</ele>
        <time>2023-09-28T09:09:21Z</time>
      </trkpt>
      <trkpt lat="44.55261" lon="5.85647">
        <ele>866</ele>
        <time>2023-09-28T09:09:22Z</time>
      </trkpt>
      <trkpt lat="44.55266" lon="5.85647">
        <ele>866.1</ele>
        <time>2023-09-28T09:09:24Z</time>
      </trkpt>
      <trkpt lat="44.55272" lon="5.85648">
        <ele>866.3</ele>
        <time>2023-09-28T09:09:25Z</time>
      </trkpt>
      <trkpt lat="44.55276" lon="5.85649">
        <ele>866.4</ele>
        <time>2023-09-28T09:09:26Z</time>
      </trkpt>
      <trkpt lat="44.55279" lon="5.8565">
        <ele>866.4</ele>
        <time>2023-09-28T09:09:27Z</time>
      </trkpt>
      <trkpt lat="44.55284" lon="5.85651">
        <ele>866.5</ele>
        <time>2023-09-28T09:09:28Z</time>
      </trkpt>
      <trkpt lat="44.55289" lon="5.85651">
        <ele>866.6</ele>
        <time>2023-09-28T09:09:30Z</time>
      </trkpt>
      <trkpt lat="44.55293" lon="5.85651">
        <ele>866.7</ele>
        <time>2023-09-28T09:09:31Z</time>
      </trkpt>
      <trkpt lat="44.55298" lon="5.85652">
        <ele>866.8</ele>
        <time>2023-09-28T09:09:32Z</time>
      </trkpt>
      <trkpt lat="44.55302" lon="5.85653">
        <ele>866.9</ele>
        <time>2023-09-28T09:09:33Z</time>
      </trkpt>
      <trkpt lat="44.55307" lon="5.85654">
        <ele>867</ele>
        <time>2023-09-28T09:09:34Z</time>
      </trkpt>
      <trkpt lat="44.55312" lon="5.85655">
        <ele>867</ele>
        <time>2023-09-28T09:09:35Z</time>
      </trkpt>
      <trkpt lat="44.55315" lon="5.85656">
        <ele>867.1</ele>
        <time>2023-09-28T09:09:36Z</time>
      </trkpt>
      <trkpt lat="44.55323" lon="5.85657">
        <ele>867.3</ele>
        <time>2023-09-28T09:09:38Z</time>
      </trkpt>
      <trkpt lat="44.55328" lon="5.85658">
        <ele>867.3</ele>
        <time>2023-09-28T09:09:39Z</time>
      </trkpt>
      <trkpt lat="44.55333" lon="5.85658">
        <ele>867.4</ele>
        <time>2023-09-28T09:09:40Z</time>
      </trkpt>
      <trkpt lat="44.55338" lon="5.85659">
        <ele>867.5</ele>
        <time>2023-09-28T09:09:42Z</time>
      </trkpt>
      <trkpt lat="44.55343" lon="5.8566">
        <ele>867.6</ele>
        <time>2023-09-28T09:09:43Z</time>
      </trkpt>
      <trkpt lat="44.55347" lon="5.85661">
        <ele>867.7</ele>
        <time>2023-09-28T09:09:44Z</time>
      </trkpt>
      <trkpt lat="44.55352" lon="5.85662">
        <ele>867.8</ele>
        <time>2023-09-28T09:09:45Z</time>
      </trkpt>
      <trkpt lat="44.55356" lon="5.85662">
        <ele>867.8</ele>
        <time>2023-09-28T09:09:46Z</time>
      </trkpt>
      <trkpt lat="44.5536" lon="5.85663">
        <ele>867.9</ele>
        <time>2023-09-28T09:09:47Z</time>
      </trkpt>
      <trkpt lat="44.55365" lon="5.85663">
        <ele>868</ele>
        <time>2023-09-28T09:09:48Z</time>
      </trkpt>
      <trkpt lat="44.55369" lon="5.85664">
        <ele>868.1</ele>
        <time>2023-09-28T09:09:49Z</time>
      </trkpt>
      <trkpt lat="44.55374" lon="5.85664">
        <ele>868.2</ele>
        <time>2023-09-28T09:09:50Z</time>
      </trkpt>
      <trkpt lat="44.55379" lon="5.85665">
        <ele>868.3</ele>
        <time>2023-09-28T09:09:52Z</time>
      </trkpt>
      <trkpt lat="44.55384" lon="5.85666">
        <ele>868.5</ele>
        <time>2023-09-28T09:09:53Z</time>
      </trkpt>
      <trkpt lat="44.55391" lon="5.85668">
        <ele>868.7</ele>
        <time>2023-09-28T09:09:55Z</time>
      </trkpt>
      <trkpt lat="44.55396" lon="5.85668">
        <ele>868.8</ele>
        <time>2023-09-28T09:09:56Z</time>
      </trkpt>
      <trkpt lat="44.554" lon="5.85668">
        <ele>868.9</ele>
        <time>2023-09-28T09:09:57Z</time>
      </trkpt>
      <trkpt lat="44.55404" lon="5.85669">
        <ele>869</ele>
        <time>2023-09-28T09:09:58Z</time>
      </trkpt>
      <trkpt lat="44.5541" lon="5.85669">
        <ele>869.2</ele>
        <time>2023-09-28T09:10:00Z</time>
      </trkpt>
      <trkpt lat="44.55415" lon="5.85671">
        <ele>869.3</ele>
        <time>2023-09-28T09:10:01Z</time>
      </trkpt>
      <trkpt lat="44.55419" lon="5.85672">
        <ele>869.4</ele>
        <time>2023-09-28T09:10:02Z</time>
      </trkpt>
      <trkpt lat="44.55423" lon="5.85671">
        <ele>869.5</ele>
        <time>2023-09-28T09:10:03Z</time>
      </trkpt>
      <trkpt lat="44.55428" lon="5.85672">
        <ele>869.6</ele>
        <time>2023-09-28T09:10:04Z</time>
      </trkpt>
      <trkpt lat="44.55432" lon="5.85673">
        <ele>869.8</ele>
        <time>2023-09-28T09:10:05Z</time>
      </trkpt>
      <trkpt lat="44.55436" lon="5.85673">
        <ele>869.9</ele>
        <time>2023-09-28T09:10:06Z</time>
      </trkpt>
      <trkpt lat="44.5544" lon="5.85674">
        <ele>870</ele>
        <time>2023-09-28T09:10:07Z</time>
      </trkpt>
      <trkpt lat="44.55445" lon="5.85675">
        <ele>870.1</ele>
        <time>2023-09-28T09:10:08Z</time>
      </trkpt>
      <trkpt lat="44.55452" lon="5.85676">
        <ele>870.3</ele>
        <time>2023-09-28T09:10:10Z</time>
      </trkpt>
      <trkpt lat="44.55456" lon="5.85677">
        <ele>870.4</ele>
        <time>2023-09-28T09:10:11Z</time>
      </trkpt>
      <trkpt lat="44.5546" lon="5.85677">
        <ele>870.5</ele>
        <time>2023-09-28T09:10:12Z</time>
      </trkpt>
      <trkpt lat="44.55464" lon="5.85678">
        <ele>870.6</ele>
        <time>2023-09-28T09:10:13Z</time>
      </trkpt>
      <trkpt lat="44.55469" lon="5.85678">
        <ele>870.8</ele>
        <time>2023-09-28T09:10:15Z</time>
      </trkpt>
      <trkpt lat="44.55474" lon="5.85679">
        <ele>870.9</ele>
        <time>2023-09-28T09:10:16Z</time>
      </trkpt>
      <trkpt lat="44.55478" lon="5.8568">
        <ele>871</ele>
        <time>2023-09-28T09:10:17Z</time>
      </trkpt>
      <trkpt lat="44.55483" lon="5.8568">
        <ele>871.2</ele>
        <time>2023-09-28T09:10:18Z</time>
      </trkpt>
      <trkpt lat="44.55487" lon="5.85681">
        <ele>871.3</ele>
        <time>2023-09-28T09:10:19Z</time>
      </trkpt>
      <trkpt lat="44.5549" lon="5.85681">
        <ele>871.4</ele>
        <time>2023-09-28T09:10:20Z</time>
      </trkpt>
      <trkpt lat="44.55494" lon="5.85682">
        <ele>871.5</ele>
        <time>2023-09-28T09:10:21Z</time>
      </trkpt>
      <trkpt lat="44.55499" lon="5.85683">
        <ele>871.7</ele>
        <time>2023-09-28T09:10:22Z</time>
      </trkpt>
      <trkpt lat="44.55503" lon="5.85683">
        <ele>871.8</ele>
        <time>2023-09-28T09:10:24Z</time>
      </trkpt>
      <trkpt lat="44.55509" lon="5.85684">
        <ele>872</ele>
        <time>2023-09-28T09:10:25Z</time>
      </trkpt>
      <trkpt lat="44.55513" lon="5.85685">
        <ele>872.1</ele>
        <time>2023-09-28T09:10:26Z</time>
      </trkpt>
      <trkpt lat="44.55518" lon="5.85686">
        <ele>872.2</ele>
        <time>2023-09-28T09:10:28Z</time>
      </trkpt>
      <trkpt lat="44.55522" lon="5.85687">
        <ele>872.4</ele>
        <time>2023-09-28T09:10:29Z</time>
      </trkpt>
      <trkpt lat="44.55526" lon="5.85687">
        <ele>872.5</ele>
        <time>2023-09-28T09:10:30Z</time>
      </trkpt>
      <trkpt lat="44.5553" lon="5.85688">
        <ele>872.6</ele>
        <time>2023-09-28T09:10:31Z</time>
      </trkpt>
      <trkpt lat="44.55534" lon="5.85689">
        <ele>872.7</ele>
        <time>2023-09-28T09:10:32Z</time>
      </trkpt>
      <trkpt lat="44.55539" lon="5.85689">
        <ele>872.9</ele>
        <time>2023-09-28T09:10:33Z</time>
      </trkpt>
      <trkpt lat="44.55543" lon="5.8569">
        <ele>873</ele>
        <time>2023-09-28T09:10:34Z</time>
      </trkpt>
      <trkpt lat="44.55547" lon="5.8569">
        <ele>873.1</ele>
        <time>2023-09-28T09:10:35Z</time>
      </trkpt>
      <trkpt lat="44.55554" lon="5.85691">
        <ele>873.3</ele>
        <time>2023-09-28T09:10:37Z</time>
      </trkpt>
      <trkpt lat="44.55558" lon="5.85692">
        <ele>873.4</ele>
        <time>2023-09-28T09:10:38Z</time>
      </trkpt>
      <trkpt lat="44.55562" lon="5.85692">
        <ele>873.5</ele>
        <time>2023-09-28T09:10:39Z</time>
      </trkpt>
      <trkpt lat="44.55566" lon="5.85693">
        <ele>873.7</ele>
        <time>2023-09-28T09:10:40Z</time>
      </trkpt>
      <trkpt lat="44.55573" lon="5.85694">
        <ele>873.9</ele>
        <time>2023-09-28T09:10:42Z</time>
      </trkpt>
      <trkpt lat="44.55578" lon="5.85695">
        <ele>874</ele>
        <time>2023-09-28T09:10:43Z</time>
      </trkpt>
      <trkpt lat="44.55582" lon="5.85695">
        <ele>874.2</ele>
        <time>2023-09-28T09:10:44Z</time>
      </trkpt>
      <trkpt lat="44.55587" lon="5.85696">
        <ele>874.3</ele>
        <time>2023-09-28T09:10:46Z</time>
      </trkpt>
      <trkpt lat="44.5559" lon="5.85697">
        <ele>874.4</ele>
        <time>2023-09-28T09:10:47Z</time>
      </trkpt>
      <trkpt lat="44.55595" lon="5.85697">
        <ele>874.6</ele>
        <time>2023-09-28T09:10:48Z</time>
      </trkpt>
      <trkpt lat="44.55599" lon="5.85697">
        <ele>874.7</ele>
        <time>2023-09-28T09:10:49Z</time>
      </trkpt>
      <trkpt lat="44.55603" lon="5.85697">
        <ele>874.8</ele>
        <time>2023-09-28T09:10:50Z</time>
      </trkpt>
      <trkpt lat="44.55606" lon="5.85698">
        <ele>874.9</ele>
        <time>2023-09-28T09:10:51Z</time>
      </trkpt>
      <trkpt lat="44.55611" lon="5.85699">
        <ele>875.1</ele>
        <time>2023-09-28T09:10:52Z</time>
      </trkpt>
      <trkpt lat="44.55615" lon="5.857">
        <ele>875.2</ele>
        <time>2023-09-28T09:10:53Z</time>
      </trkpt>
      <trkpt lat="44.5562" lon="5.857">
        <ele>875.4</ele>
        <time>2023-09-28T09:10:55Z</time>
      </trkpt>
      <trkpt lat="44.55627" lon="5.85702">
        <ele>875.6</ele>
        <time>2023-09-28T09:10:56Z</time>
      </trkpt>
      <trkpt lat="44.55631" lon="5.85702">
        <ele>875.7</ele>
        <time>2023-09-28T09:10:57Z</time>
      </trkpt>
      <trkpt lat="44.55634" lon="5.85702">
        <ele>875.8</ele>
        <time>2023-09-28T09:10:58Z</time>
      </trkpt>
      <trkpt lat="44.5564" lon="5.85703">
        <ele>876</ele>
        <time>2023-09-28T09:11:00Z</time>
      </trkpt>
      <trkpt lat="44.55644" lon="5.85704">
        <ele>876.1</ele>
        <time>2023-09-28T09:11:01Z</time>
      </trkpt>
      <trkpt lat="44.55648" lon="5.85704">
        <ele>876.3</ele>
        <time>2023-09-28T09:11:02Z</time>
      </trkpt>
      <trkpt lat="44.55653" lon="5.85705">
        <ele>876.4</ele>
        <time>2023-09-28T09:11:03Z</time>
      </trkpt>
      <trkpt lat="44.55657" lon="5.85705">
        <ele>876.5</ele>
        <time>2023-09-28T09:11:04Z</time>
      </trkpt>
      <trkpt lat="44.55661" lon="5.85706">
        <ele>876.6</ele>
        <time>2023-09-28T09:11:05Z</time>
      </trkpt>
      <trkpt lat="44.55665" lon="5.85707">
        <ele>876.8</ele>
        <time>2023-09-28T09:11:06Z</time>
      </trkpt>
      <trkpt lat="44.55672" lon="5.85708">
        <ele>877</ele>
        <time>2023-09-28T09:11:08Z</time>
      </trkpt>
      <trkpt lat="44.55676" lon="5.85708">
        <ele>877.1</ele>
        <time>2023-09-28T09:11:09Z</time>
      </trkpt>
      <trkpt lat="44.5568" lon="5.85708">
        <ele>877.2</ele>
        <time>2023-09-28T09:11:10Z</time>
      </trkpt>
      <trkpt lat="44.55684" lon="5.85709">
        <ele>877.3</ele>
        <time>2023-09-28T09:11:11Z</time>
      </trkpt>
      <trkpt lat="44.5569" lon="5.8571">
        <ele>877.5</ele>
        <time>2023-09-28T09:11:13Z</time>
      </trkpt>
      <trkpt lat="44.55695" lon="5.85711">
        <ele>877.6</ele>
        <time>2023-09-28T09:11:14Z</time>
      </trkpt>
      <trkpt lat="44.55699" lon="5.85711">
        <ele>877.7</ele>
        <time>2023-09-28T09:11:15Z</time>
      </trkpt>
      <trkpt lat="44.55703" lon="5.85712">
        <ele>877.8</ele>
        <time>2023-09-28T09:11:17Z</time>
      </trkpt>
      <trkpt lat="44.55709" lon="5.85712">
        <ele>877.9</ele>
        <time>2023-09-28T09:11:18Z</time>
      </trkpt>
      <trkpt lat="44.55714" lon="5.85713">
        <ele>878.1</ele>
        <time>2023-09-28T09:11:19Z</time>
      </trkpt>
      <trkpt lat="44.55718" lon="5.85713">
        <ele>878.1</ele>
        <time>2023-09-28T09:11:20Z</time>
      </trkpt>
      <trkpt lat="44.55725" lon="5.85714">
        <ele>878.3</ele>
        <time>2023-09-28T09:11:22Z</time>
      </trkpt>
      <trkpt lat="44.5573" lon="5.85715">
        <ele>878.4</ele>
        <time>2023-09-28T09:11:23Z</time>
      </trkpt>
      <trkpt lat="44.55734" lon="5.85715">
        <ele>878.5</ele>
        <time>2023-09-28T09:11:24Z</time>
      </trkpt>
      <trkpt lat="44.55739" lon="5.85716">
        <ele>878.6</ele>
        <time>2023-09-28T09:11:25Z</time>
      </trkpt>
      <trkpt lat="44.55743" lon="5.85717">
        <ele>878.7</ele>
        <time>2023-09-28T09:11:26Z</time>
      </trkpt>
      <trkpt lat="44.55748" lon="5.85718">
        <ele>878.9</ele>
        <time>2023-09-28T09:11:28Z</time>
      </trkpt>
      <trkpt lat="44.55754" lon="5.85719">
        <ele>879</ele>
        <time>2023-09-28T09:11:29Z</time>
      </trkpt>
      <trkpt lat="44.55759" lon="5.8572">
        <ele>879.2</ele>
        <time>2023-09-28T09:11:30Z</time>
      </trkpt>
      <trkpt lat="44.55763" lon="5.8572">
        <ele>879.3</ele>
        <time>2023-09-28T09:11:31Z</time>
      </trkpt>
      <trkpt lat="44.55768" lon="5.85721">
        <ele>879.4</ele>
        <time>2023-09-28T09:11:33Z</time>
      </trkpt>
      <trkpt lat="44.55772" lon="5.85721">
        <ele>879.6</ele>
        <time>2023-09-28T09:11:34Z</time>
      </trkpt>
      <trkpt lat="44.55776" lon="5.85722">
        <ele>879.7</ele>
        <time>2023-09-28T09:11:35Z</time>
      </trkpt>
      <trkpt lat="44.5578" lon="5.85722">
        <ele>879.8</ele>
        <time>2023-09-28T09:11:36Z</time>
      </trkpt>
      <trkpt lat="44.55785" lon="5.85723">
        <ele>880</ele>
        <time>2023-09-28T09:11:37Z</time>
      </trkpt>
      <trkpt lat="44.55789" lon="5.85723">
        <ele>880.1</ele>
        <time>2023-09-28T09:11:38Z</time>
      </trkpt>
      <trkpt lat="44.55793" lon="5.85724">
        <ele>880.2</ele>
        <time>2023-09-28T09:11:39Z</time>
      </trkpt>
      <trkpt lat="44.55797" lon="5.85725">
        <ele>880.3</ele>
        <time>2023-09-28T09:11:40Z</time>
      </trkpt>
      <trkpt lat="44.55802" lon="5.85725">
        <ele>880.5</ele>
        <time>2023-09-28T09:11:42Z</time>
      </trkpt>
      <trkpt lat="44.55806" lon="5.85726">
        <ele>880.6</ele>
        <time>2023-09-28T09:11:43Z</time>
      </trkpt>
      <trkpt lat="44.55811" lon="5.85726">
        <ele>880.7</ele>
        <time>2023-09-28T09:11:44Z</time>
      </trkpt>
      <trkpt lat="44.55815" lon="5.85727">
        <ele>880.9</ele>
        <time>2023-09-28T09:11:45Z</time>
      </trkpt>
      <trkpt lat="44.5582" lon="5.85728">
        <ele>881</ele>
        <time>2023-09-28T09:11:46Z</time>
      </trkpt>
      <trkpt lat="44.55824" lon="5.85728">
        <ele>881.1</ele>
        <time>2023-09-28T09:11:47Z</time>
      </trkpt>
      <trkpt lat="44.55828" lon="5.85729">
        <ele>881.2</ele>
        <time>2023-09-28T09:11:48Z</time>
      </trkpt>
      <trkpt lat="44.55833" lon="5.85729">
        <ele>881.3</ele>
        <time>2023-09-28T09:11:50Z</time>
      </trkpt>
      <trkpt lat="44.55838" lon="5.8573">
        <ele>881.4</ele>
        <time>2023-09-28T09:11:51Z</time>
      </trkpt>
      <trkpt lat="44.55843" lon="5.85731">
        <ele>881.6</ele>
        <time>2023-09-28T09:11:52Z</time>
      </trkpt>
      <trkpt lat="44.55846" lon="5.85732">
        <ele>881.7</ele>
        <time>2023-09-28T09:11:53Z</time>
      </trkpt>
      <trkpt lat="44.55851" lon="5.85733">
        <ele>881.8</ele>
        <time>2023-09-28T09:11:54Z</time>
      </trkpt>
      <trkpt lat="44.55855" lon="5.85733">
        <ele>881.9</ele>
        <time>2023-09-28T09:11:55Z</time>
      </trkpt>
      <trkpt lat="44.5586" lon="5.85734">
        <ele>882</ele>
        <time>2023-09-28T09:11:56Z</time>
      </trkpt>
      <trkpt lat="44.55864" lon="5.85734">
        <ele>882.2</ele>
        <time>2023-09-28T09:11:57Z</time>
      </trkpt>
      <trkpt lat="44.55869" lon="5.85735">
        <ele>882.3</ele>
        <time>2023-09-28T09:11:58Z</time>
      </trkpt>
      <trkpt lat="44.55874" lon="5.85736">
        <ele>882.4</ele>
        <time>2023-09-28T09:12:00Z</time>
      </trkpt>
      <trkpt lat="44.55878" lon="5.85736">
        <ele>882.6</ele>
        <time>2023-09-28T09:12:01Z</time>
      </trkpt>
      <trkpt lat="44.55883" lon="5.85737">
        <ele>882.7</ele>
        <time>2023-09-28T09:12:02Z</time>
      </trkpt>
      <trkpt lat="44.55887" lon="5.85737">
        <ele>882.8</ele>
        <time>2023-09-28T09:12:03Z</time>
      </trkpt>
      <trkpt lat="44.55892" lon="5.85738">
        <ele>882.9</ele>
        <time>2023-09-28T09:12:04Z</time>
      </trkpt>
      <trkpt lat="44.55898" lon="5.85739">
        <ele>883.1</ele>
        <time>2023-09-28T09:12:06Z</time>
      </trkpt>
      <trkpt lat="44.55903" lon="5.8574">
        <ele>883.2</ele>
        <time>2023-09-28T09:12:07Z</time>
      </trkpt>
      <trkpt lat="44.55907" lon="5.8574">
        <ele>883.3</ele>
        <time>2023-09-28T09:12:08Z</time>
      </trkpt>
      <trkpt lat="44.55911" lon="5.85741">
        <ele>883.4</ele>
        <time>2023-09-28T09:12:09Z</time>
      </trkpt>
      <trkpt lat="44.55917" lon="5.85741">
        <ele>883.5</ele>
        <time>2023-09-28T09:12:11Z</time>
      </trkpt>
      <trkpt lat="44.5592" lon="5.85742">
        <ele>883.6</ele>
        <time>2023-09-28T09:12:12Z</time>
      </trkpt>
      <trkpt lat="44.55927" lon="5.85742">
        <ele>883.8</ele>
        <time>2023-09-28T09:12:13Z</time>
      </trkpt>
      <trkpt lat="44.55931" lon="5.85743">
        <ele>883.9</ele>
        <time>2023-09-28T09:12:14Z</time>
      </trkpt>
      <trkpt lat="44.55936" lon="5.85744">
        <ele>884.1</ele>
        <time>2023-09-28T09:12:16Z</time>
      </trkpt>
      <trkpt lat="44.55941" lon="5.85745">
        <ele>884.2</ele>
        <time>2023-09-28T09:12:17Z</time>
      </trkpt>
      <trkpt lat="44.55945" lon="5.85746">
        <ele>884.3</ele>
        <time>2023-09-28T09:12:18Z</time>
      </trkpt>
      <trkpt lat="44.5595" lon="5.85746">
        <ele>884.5</ele>
        <time>2023-09-28T09:12:19Z</time>
      </trkpt>
      <trkpt lat="44.55954" lon="5.85747">
        <ele>884.6</ele>
        <time>2023-09-28T09:12:20Z</time>
      </trkpt>
      <trkpt lat="44.55958" lon="5.85748">
        <ele>884.7</ele>
        <time>2023-09-28T09:12:21Z</time>
      </trkpt>
      <trkpt lat="44.55962" lon="5.85748">
        <ele>884.8</ele>
        <time>2023-09-28T09:12:22Z</time>
      </trkpt>
      <trkpt lat="44.5597" lon="5.8575">
        <ele>885.1</ele>
        <time>2023-09-28T09:12:24Z</time>
      </trkpt>
      <trkpt lat="44.55975" lon="5.85751">
        <ele>885.2</ele>
        <time>2023-09-28T09:12:26Z</time>
      </trkpt>
      <trkpt lat="44.5598" lon="5.85751">
        <ele>885.3</ele>
        <time>2023-09-28T09:12:27Z</time>
      </trkpt>
      <trkpt lat="44.55985" lon="5.85751">
        <ele>885.4</ele>
        <time>2023-09-28T09:12:28Z</time>
      </trkpt>
      <trkpt lat="44.5599" lon="5.85752">
        <ele>885.6</ele>
        <time>2023-09-28T09:12:29Z</time>
      </trkpt>
      <trkpt lat="44.55994" lon="5.85754">
        <ele>885.7</ele>
        <time>2023-09-28T09:12:30Z</time>
      </trkpt>
      <trkpt lat="44.55999" lon="5.85754">
        <ele>885.8</ele>
        <time>2023-09-28T09:12:31Z</time>
      </trkpt>
      <trkpt lat="44.56004" lon="5.85755">
        <ele>885.9</ele>
        <time>2023-09-28T09:12:32Z</time>
      </trkpt>
      <trkpt lat="44.56009" lon="5.85755">
        <ele>886.1</ele>
        <time>2023-09-28T09:12:34Z</time>
      </trkpt>
      <trkpt lat="44.56014" lon="5.85756">
        <ele>886.2</ele>
        <time>2023-09-28T09:12:35Z</time>
      </trkpt>
      <trkpt lat="44.56018" lon="5.85757">
        <ele>886.3</ele>
        <time>2023-09-28T09:12:36Z</time>
      </trkpt>
      <trkpt lat="44.56023" lon="5.85757">
        <ele>886.5</ele>
        <time>2023-09-28T09:12:37Z</time>
      </trkpt>
      <trkpt lat="44.56027" lon="5.85758">
        <ele>886.6</ele>
        <time>2023-09-28T09:12:38Z</time>
      </trkpt>
      <trkpt lat="44.56032" lon="5.85759">
        <ele>886.8</ele>
        <time>2023-09-28T09:12:39Z</time>
      </trkpt>
      <trkpt lat="44.56036" lon="5.8576">
        <ele>886.9</ele>
        <time>2023-09-28T09:12:41Z</time>
      </trkpt>
      <trkpt lat="44.56043" lon="5.85761">
        <ele>887</ele>
        <time>2023-09-28T09:12:42Z</time>
      </trkpt>
      <trkpt lat="44.56047" lon="5.85761">
        <ele>887.1</ele>
        <time>2023-09-28T09:12:43Z</time>
      </trkpt>
      <trkpt lat="44.56053" lon="5.85762">
        <ele>887.3</ele>
        <time>2023-09-28T09:12:45Z</time>
      </trkpt>
      <trkpt lat="44.56058" lon="5.85763">
        <ele>887.4</ele>
        <time>2023-09-28T09:12:46Z</time>
      </trkpt>
      <trkpt lat="44.56062" lon="5.85763">
        <ele>887.5</ele>
        <time>2023-09-28T09:12:47Z</time>
      </trkpt>
      <trkpt lat="44.56066" lon="5.85764">
        <ele>887.6</ele>
        <time>2023-09-28T09:12:48Z</time>
      </trkpt>
      <trkpt lat="44.56071" lon="5.85764">
        <ele>887.8</ele>
        <time>2023-09-28T09:12:50Z</time>
      </trkpt>
      <trkpt lat="44.56077" lon="5.85765">
        <ele>888</ele>
        <time>2023-09-28T09:12:51Z</time>
      </trkpt>
      <trkpt lat="44.56082" lon="5.85766">
        <ele>888.1</ele>
        <time>2023-09-28T09:12:52Z</time>
      </trkpt>
      <trkpt lat="44.56086" lon="5.85767">
        <ele>888.3</ele>
        <time>2023-09-28T09:12:53Z</time>
      </trkpt>
      <trkpt lat="44.56092" lon="5.85767">
        <ele>888.5</ele>
        <time>2023-09-28T09:12:55Z</time>
      </trkpt>
      <trkpt lat="44.56096" lon="5.85768">
        <ele>888.6</ele>
        <time>2023-09-28T09:12:56Z</time>
      </trkpt>
      <trkpt lat="44.561" lon="5.85768">
        <ele>888.8</ele>
        <time>2023-09-28T09:12:57Z</time>
      </trkpt>
      <trkpt lat="44.56106" lon="5.85769">
        <ele>889</ele>
        <time>2023-09-28T09:12:58Z</time>
      </trkpt>
      <trkpt lat="44.56109" lon="5.85769">
        <ele>889.1</ele>
        <time>2023-09-28T09:12:59Z</time>
      </trkpt>
      <trkpt lat="44.56114" lon="5.8577">
        <ele>889.3</ele>
        <time>2023-09-28T09:13:00Z</time>
      </trkpt>
      <trkpt lat="44.56118" lon="5.8577">
        <ele>889.4</ele>
        <time>2023-09-28T09:13:01Z</time>
      </trkpt>
      <trkpt lat="44.56122" lon="5.8577">
        <ele>889.5</ele>
        <time>2023-09-28T09:13:02Z</time>
      </trkpt>
      <trkpt lat="44.5613" lon="5.85771">
        <ele>889.7</ele>
        <time>2023-09-28T09:13:04Z</time>
      </trkpt>
      <trkpt lat="44.56134" lon="5.85771">
        <ele>889.8</ele>
        <time>2023-09-28T09:13:05Z</time>
      </trkpt>
      <trkpt lat="44.56142" lon="5.85769">
        <ele>890</ele>
        <time>2023-09-28T09:13:07Z</time>
      </trkpt>
      <trkpt lat="44.56147" lon="5.85768">
        <ele>890.1</ele>
        <time>2023-09-28T09:13:08Z</time>
      </trkpt>
      <trkpt lat="44.56152" lon="5.85767">
        <ele>890.3</ele>
        <time>2023-09-28T09:13:10Z</time>
      </trkpt>
      <trkpt lat="44.56156" lon="5.85765">
        <ele>890.4</ele>
        <time>2023-09-28T09:13:11Z</time>
      </trkpt>
      <trkpt lat="44.56161" lon="5.85764">
        <ele>890.5</ele>
        <time>2023-09-28T09:13:12Z</time>
      </trkpt>
      <trkpt lat="44.56165" lon="5.85762">
        <ele>890.6</ele>
        <time>2023-09-28T09:13:13Z</time>
      </trkpt>
      <trkpt lat="44.56169" lon="5.85761">
        <ele>890.7</ele>
        <time>2023-09-28T09:13:14Z</time>
      </trkpt>
      <trkpt lat="44.56174" lon="5.85759">
        <ele>890.9</ele>
        <time>2023-09-28T09:13:15Z</time>
      </trkpt>
      <trkpt lat="44.56179" lon="5.85758">
        <ele>891</ele>
        <time>2023-09-28T09:13:17Z</time>
      </trkpt>
      <trkpt lat="44.56184" lon="5.85757">
        <ele>891.2</ele>
        <time>2023-09-28T09:13:18Z</time>
      </trkpt>
      <trkpt lat="44.56188" lon="5.85756">
        <ele>891.3</ele>
        <time>2023-09-28T09:13:19Z</time>
      </trkpt>
      <trkpt lat="44.56193" lon="5.85754">
        <ele>891.4</ele>
        <time>2023-09-28T09:13:20Z</time>
      </trkpt>
      <trkpt lat="44.56196" lon="5.85753">
        <ele>891.5</ele>
        <time>2023-09-28T09:13:21Z</time>
      </trkpt>
      <trkpt lat="44.56201" lon="5.85752">
        <ele>891.6</ele>
        <time>2023-09-28T09:13:22Z</time>
      </trkpt>
      <trkpt lat="44.56206" lon="5.8575">
        <ele>891.8</ele>
        <time>2023-09-28T09:13:24Z</time>
      </trkpt>
      <trkpt lat="44.56211" lon="5.85749">
        <ele>891.9</ele>
        <time>2023-09-28T09:13:25Z</time>
      </trkpt>
      <trkpt lat="44.56215" lon="5.85748">
        <ele>892.1</ele>
        <time>2023-09-28T09:13:26Z</time>
      </trkpt>
      <trkpt lat="44.56219" lon="5.85747">
        <ele>892.2</ele>
        <time>2023-09-28T09:13:27Z</time>
      </trkpt>
      <trkpt lat="44.56223" lon="5.85746">
        <ele>892.4</ele>
        <time>2023-09-28T09:13:28Z</time>
      </trkpt>
      <trkpt lat="44.56228" lon="5.85744">
        <ele>892.5</ele>
        <time>2023-09-28T09:13:29Z</time>
      </trkpt>
      <trkpt lat="44.56232" lon="5.85743">
        <ele>892.6</ele>
        <time>2023-09-28T09:13:30Z</time>
      </trkpt>
      <trkpt lat="44.56236" lon="5.85742">
        <ele>892.8</ele>
        <time>2023-09-28T09:13:32Z</time>
      </trkpt>
      <trkpt lat="44.5624" lon="5.8574">
        <ele>893</ele>
        <time>2023-09-28T09:13:33Z</time>
      </trkpt>
      <trkpt lat="44.56245" lon="5.85739">
        <ele>893.1</ele>
        <time>2023-09-28T09:13:34Z</time>
      </trkpt>
      <trkpt lat="44.56249" lon="5.85738">
        <ele>893.3</ele>
        <time>2023-09-28T09:13:35Z</time>
      </trkpt>
      <trkpt lat="44.56253" lon="5.85737">
        <ele>893.4</ele>
        <time>2023-09-28T09:13:36Z</time>
      </trkpt>
      <trkpt lat="44.56257" lon="5.85736">
        <ele>893.5</ele>
        <time>2023-09-28T09:13:37Z</time>
      </trkpt>
      <trkpt lat="44.56262" lon="5.85735">
        <ele>893.7</ele>
        <time>2023-09-28T09:13:38Z</time>
      </trkpt>
      <trkpt lat="44.56266" lon="5.85734">
        <ele>893.8</ele>
        <time>2023-09-28T09:13:39Z</time>
      </trkpt>
      <trkpt lat="44.5627" lon="5.85732">
        <ele>894</ele>
        <time>2023-09-28T09:13:40Z</time>
      </trkpt>
      <trkpt lat="44.56274" lon="5.85731">
        <ele>894.1</ele>
        <time>2023-09-28T09:13:42Z</time>
      </trkpt>
      <trkpt lat="44.56278" lon="5.8573">
        <ele>894.3</ele>
        <time>2023-09-28T09:13:43Z</time>
      </trkpt>
      <trkpt lat="44.56282" lon="5.85729">
        <ele>894.4</ele>
        <time>2023-09-28T09:13:44Z</time>
      </trkpt>
      <trkpt lat="44.56287" lon="5.85728">
        <ele>894.6</ele>
        <time>2023-09-28T09:13:45Z</time>
      </trkpt>
      <trkpt lat="44.56291" lon="5.85727">
        <ele>894.8</ele>
        <time>2023-09-28T09:13:46Z</time>
      </trkpt>
      <trkpt lat="44.56295" lon="5.85726">
        <ele>894.9</ele>
        <time>2023-09-28T09:13:48Z</time>
      </trkpt>
      <trkpt lat="44.56301" lon="5.85725">
        <ele>895.2</ele>
        <time>2023-09-28T09:13:49Z</time>
      </trkpt>
      <trkpt lat="44.56305" lon="5.85725">
        <ele>895.4</ele>
        <time>2023-09-28T09:13:50Z</time>
      </trkpt>
      <trkpt lat="44.56308" lon="5.85724">
        <ele>895.5</ele>
        <time>2023-09-28T09:13:51Z</time>
      </trkpt>
      <trkpt lat="44.56313" lon="5.85724">
        <ele>895.7</ele>
        <time>2023-09-28T09:13:52Z</time>
      </trkpt>
      <trkpt lat="44.56317" lon="5.85724">
        <ele>895.9</ele>
        <time>2023-09-28T09:13:53Z</time>
      </trkpt>
      <trkpt lat="44.56321" lon="5.85724">
        <ele>896.1</ele>
        <time>2023-09-28T09:13:55Z</time>
      </trkpt>
      <trkpt lat="44.56326" lon="5.85725">
        <ele>896.2</ele>
        <time>2023-09-28T09:13:56Z</time>
      </trkpt>
      <trkpt lat="44.56333" lon="5.85725">
        <ele>896.4</ele>
        <time>2023-09-28T09:13:58Z</time>
      </trkpt>
      <trkpt lat="44.56336" lon="5.85725">
        <ele>896.5</ele>
        <time>2023-09-28T09:13:59Z</time>
      </trkpt>
      <trkpt lat="44.5634" lon="5.85725">
        <ele>896.6</ele>
        <time>2023-09-28T09:14:00Z</time>
      </trkpt>
      <trkpt lat="44.56344" lon="5.85726">
        <ele>896.7</ele>
        <time>2023-09-28T09:14:02Z</time>
      </trkpt>
      <trkpt lat="44.56349" lon="5.85727">
        <ele>896.8</ele>
        <time>2023-09-28T09:14:03Z</time>
      </trkpt>
      <trkpt lat="44.56353" lon="5.85728">
        <ele>896.9</ele>
        <time>2023-09-28T09:14:04Z</time>
      </trkpt>
      <trkpt lat="44.56358" lon="5.85728">
        <ele>896.9</ele>
        <time>2023-09-28T09:14:05Z</time>
      </trkpt>
      <trkpt lat="44.56362" lon="5.85729">
        <ele>897</ele>
        <time>2023-09-28T09:14:06Z</time>
      </trkpt>
      <trkpt lat="44.56366" lon="5.8573">
        <ele>897.1</ele>
        <time>2023-09-28T09:14:07Z</time>
      </trkpt>
      <trkpt lat="44.5637" lon="5.85731">
        <ele>897.2</ele>
        <time>2023-09-28T09:14:08Z</time>
      </trkpt>
      <trkpt lat="44.56374" lon="5.85733">
        <ele>897.3</ele>
        <time>2023-09-28T09:14:09Z</time>
      </trkpt>
      <trkpt lat="44.56379" lon="5.85734">
        <ele>897.4</ele>
        <time>2023-09-28T09:14:10Z</time>
      </trkpt>
      <trkpt lat="44.56384" lon="5.85736">
        <ele>897.5</ele>
        <time>2023-09-28T09:14:12Z</time>
      </trkpt>
      <trkpt lat="44.56388" lon="5.85738">
        <ele>897.6</ele>
        <time>2023-09-28T09:14:13Z</time>
      </trkpt>
      <trkpt lat="44.56392" lon="5.85739">
        <ele>897.7</ele>
        <time>2023-09-28T09:14:14Z</time>
      </trkpt>
      <trkpt lat="44.56396" lon="5.85741">
        <ele>897.9</ele>
        <time>2023-09-28T09:14:15Z</time>
      </trkpt>
      <trkpt lat="44.564" lon="5.85742">
        <ele>898</ele>
        <time>2023-09-28T09:14:16Z</time>
      </trkpt>
      <trkpt lat="44.56403" lon="5.85743">
        <ele>898.1</ele>
        <time>2023-09-28T09:14:17Z</time>
      </trkpt>
      <trkpt lat="44.56407" lon="5.85745">
        <ele>898.3</ele>
        <time>2023-09-28T09:14:18Z</time>
      </trkpt>
      <trkpt lat="44.56412" lon="5.85746">
        <ele>898.5</ele>
        <time>2023-09-28T09:14:20Z</time>
      </trkpt>
      <trkpt lat="44.56416" lon="5.85746">
        <ele>898.6</ele>
        <time>2023-09-28T09:14:21Z</time>
      </trkpt>
      <trkpt lat="44.5642" lon="5.85747">
        <ele>898.8</ele>
        <time>2023-09-28T09:14:22Z</time>
      </trkpt>
      <trkpt lat="44.56425" lon="5.85747">
        <ele>898.9</ele>
        <time>2023-09-28T09:14:23Z</time>
      </trkpt>
      <trkpt lat="44.56428" lon="5.85747">
        <ele>899.1</ele>
        <time>2023-09-28T09:14:24Z</time>
      </trkpt>
      <trkpt lat="44.56432" lon="5.85747">
        <ele>899.2</ele>
        <time>2023-09-28T09:14:25Z</time>
      </trkpt>
      <trkpt lat="44.56436" lon="5.85747">
        <ele>899.4</ele>
        <time>2023-09-28T09:14:26Z</time>
      </trkpt>
      <trkpt lat="44.56444" lon="5.85747">
        <ele>899.7</ele>
        <time>2023-09-28T09:14:28Z</time>
      </trkpt>
      <trkpt lat="44.56449" lon="5.85746">
        <ele>899.8</ele>
        <time>2023-09-28T09:14:30Z</time>
      </trkpt>
      <trkpt lat="44.56453" lon="5.85746">
        <ele>900</ele>
        <time>2023-09-28T09:14:31Z</time>
      </trkpt>
      <trkpt lat="44.56456" lon="5.85745">
        <ele>900.1</ele>
        <time>2023-09-28T09:14:32Z</time>
      </trkpt>
      <trkpt lat="44.56461" lon="5.85746">
        <ele>900.3</ele>
        <time>2023-09-28T09:14:33Z</time>
      </trkpt>
      <trkpt lat="44.56465" lon="5.85746">
        <ele>900.4</ele>
        <time>2023-09-28T09:14:34Z</time>
      </trkpt>
      <trkpt lat="44.56468" lon="5.85746">
        <ele>900.6</ele>
        <time>2023-09-28T09:14:36Z</time>
      </trkpt>
      <trkpt lat="44.56473" lon="5.85745">
        <ele>900.8</ele>
        <time>2023-09-28T09:14:37Z</time>
      </trkpt>
      <trkpt lat="44.56476" lon="5.85746">
        <ele>900.9</ele>
        <time>2023-09-28T09:14:38Z</time>
      </trkpt>
      <trkpt lat="44.5648" lon="5.85746">
        <ele>901.1</ele>
        <time>2023-09-28T09:14:39Z</time>
      </trkpt>
      <trkpt lat="44.56484" lon="5.85747">
        <ele>901.2</ele>
        <time>2023-09-28T09:14:40Z</time>
      </trkpt>
      <trkpt lat="44.56488" lon="5.85747">
        <ele>901.4</ele>
        <time>2023-09-28T09:14:41Z</time>
      </trkpt>
      <trkpt lat="44.56492" lon="5.85748">
        <ele>901.6</ele>
        <time>2023-09-28T09:14:42Z</time>
      </trkpt>
      <trkpt lat="44.56495" lon="5.85749">
        <ele>901.8</ele>
        <time>2023-09-28T09:14:43Z</time>
      </trkpt>
      <trkpt lat="44.56499" lon="5.85749">
        <ele>902</ele>
        <time>2023-09-28T09:14:44Z</time>
      </trkpt>
      <trkpt lat="44.56505" lon="5.8575">
        <ele>902.2</ele>
        <time>2023-09-28T09:14:46Z</time>
      </trkpt>
      <trkpt lat="44.56508" lon="5.85751">
        <ele>902.4</ele>
        <time>2023-09-28T09:14:47Z</time>
      </trkpt>
      <trkpt lat="44.56514" lon="5.85752">
        <ele>902.7</ele>
        <time>2023-09-28T09:14:49Z</time>
      </trkpt>
      <trkpt lat="44.56518" lon="5.85753">
        <ele>902.9</ele>
        <time>2023-09-28T09:14:50Z</time>
      </trkpt>
      <trkpt lat="44.56521" lon="5.85755">
        <ele>903.1</ele>
        <time>2023-09-28T09:14:51Z</time>
      </trkpt>
      <trkpt lat="44.56525" lon="5.85756">
        <ele>903.3</ele>
        <time>2023-09-28T09:14:53Z</time>
      </trkpt>
      <trkpt lat="44.5653" lon="5.85757">
        <ele>903.5</ele>
        <time>2023-09-28T09:14:54Z</time>
      </trkpt>
      <trkpt lat="44.56533" lon="5.85757">
        <ele>903.7</ele>
        <time>2023-09-28T09:14:55Z</time>
      </trkpt>
      <trkpt lat="44.56536" lon="5.85759">
        <ele>903.8</ele>
        <time>2023-09-28T09:14:56Z</time>
      </trkpt>
      <trkpt lat="44.56542" lon="5.8576">
        <ele>904.1</ele>
        <time>2023-09-28T09:14:58Z</time>
      </trkpt>
      <trkpt lat="44.56543" lon="5.8576">
        <ele>904.2</ele>
        <time>2023-09-28T09:14:59Z</time>
      </trkpt>
      <trkpt lat="44.56545" lon="5.85761">
        <ele>904.3</ele>
        <time>2023-09-28T09:15:00Z</time>
      </trkpt>
      <trkpt lat="44.56549" lon="5.85761">
        <ele>904.4</ele>
        <time>2023-09-28T09:15:01Z</time>
      </trkpt>
      <trkpt lat="44.56553" lon="5.85762">
        <ele>904.6</ele>
        <time>2023-09-28T09:15:03Z</time>
      </trkpt>
      <trkpt lat="44.56558" lon="5.85763">
        <ele>904.9</ele>
        <time>2023-09-28T09:15:04Z</time>
      </trkpt>
      <trkpt lat="44.56561" lon="5.85764">
        <ele>905.1</ele>
        <time>2023-09-28T09:15:06Z</time>
      </trkpt>
      <trkpt lat="44.56566" lon="5.85765">
        <ele>905.3</ele>
        <time>2023-09-28T09:15:07Z</time>
      </trkpt>
      <trkpt lat="44.56569" lon="5.85766">
        <ele>905.4</ele>
        <time>2023-09-28T09:15:08Z</time>
      </trkpt>
      <trkpt lat="44.56572" lon="5.85767">
        <ele>905.6</ele>
        <time>2023-09-28T09:15:09Z</time>
      </trkpt>
      <trkpt lat="44.56574" lon="5.85767">
        <ele>905.7</ele>
        <time>2023-09-28T09:15:10Z</time>
      </trkpt>
      <trkpt lat="44.56579" lon="5.85769">
        <ele>906</ele>
        <time>2023-09-28T09:15:12Z</time>
      </trkpt>
      <trkpt lat="44.56582" lon="5.8577">
        <ele>906.1</ele>
        <time>2023-09-28T09:15:13Z</time>
      </trkpt>
      <trkpt lat="44.56585" lon="5.85771">
        <ele>906.3</ele>
        <time>2023-09-28T09:15:14Z</time>
      </trkpt>
      <trkpt lat="44.56588" lon="5.85772">
        <ele>906.4</ele>
        <time>2023-09-28T09:15:15Z</time>
      </trkpt>
      <trkpt lat="44.56592" lon="5.85773">
        <ele>906.5</ele>
        <time>2023-09-28T09:15:17Z</time>
      </trkpt>
      <trkpt lat="44.56596" lon="5.85775">
        <ele>906.7</ele>
        <time>2023-09-28T09:15:18Z</time>
      </trkpt>
      <trkpt lat="44.56598" lon="5.85777">
        <ele>906.8</ele>
        <time>2023-09-28T09:15:19Z</time>
      </trkpt>
      <trkpt lat="44.56601" lon="5.85779">
        <ele>906.9</ele>
        <time>2023-09-28T09:15:20Z</time>
      </trkpt>
      <trkpt lat="44.56604" lon="5.85781">
        <ele>907.1</ele>
        <time>2023-09-28T09:15:21Z</time>
      </trkpt>
      <trkpt lat="44.56608" lon="5.85782">
        <ele>907.2</ele>
        <time>2023-09-28T09:15:23Z</time>
      </trkpt>
      <trkpt lat="44.56611" lon="5.85784">
        <ele>907.3</ele>
        <time>2023-09-28T09:15:24Z</time>
      </trkpt>
      <trkpt lat="44.56615" lon="5.85786">
        <ele>907.5</ele>
        <time>2023-09-28T09:15:25Z</time>
      </trkpt>
      <trkpt lat="44.56618" lon="5.85788">
        <ele>907.6</ele>
        <time>2023-09-28T09:15:26Z</time>
      </trkpt>
      <trkpt lat="44.56621" lon="5.8579">
        <ele>907.7</ele>
        <time>2023-09-28T09:15:27Z</time>
      </trkpt>
      <trkpt lat="44.56624" lon="5.85792">
        <ele>907.8</ele>
        <time>2023-09-28T09:15:28Z</time>
      </trkpt>
      <trkpt lat="44.56627" lon="5.85794">
        <ele>908</ele>
        <time>2023-09-28T09:15:29Z</time>
      </trkpt>
      <trkpt lat="44.5663" lon="5.85794">
        <ele>908.1</ele>
        <time>2023-09-28T09:15:30Z</time>
      </trkpt>
      <trkpt lat="44.56634" lon="5.85796">
        <ele>908.3</ele>
        <time>2023-09-28T09:15:32Z</time>
      </trkpt>
      <trkpt lat="44.5664" lon="5.85797">
        <ele>908.5</ele>
        <time>2023-09-28T09:15:33Z</time>
      </trkpt>
      <trkpt lat="44.56643" lon="5.85797">
        <ele>908.5</ele>
        <time>2023-09-28T09:15:34Z</time>
      </trkpt>
      <trkpt lat="44.56645" lon="5.85796">
        <ele>908.6</ele>
        <time>2023-09-28T09:15:35Z</time>
      </trkpt>
      <trkpt lat="44.56649" lon="5.85796">
        <ele>908.7</ele>
        <time>2023-09-28T09:15:36Z</time>
      </trkpt>
      <trkpt lat="44.56652" lon="5.85794">
        <ele>908.9</ele>
        <time>2023-09-28T09:15:38Z</time>
      </trkpt>
      <trkpt lat="44.56656" lon="5.85791">
        <ele>909</ele>
        <time>2023-09-28T09:15:39Z</time>
      </trkpt>
      <trkpt lat="44.5666" lon="5.85788">
        <ele>909.1</ele>
        <time>2023-09-28T09:15:40Z</time>
      </trkpt>
      <trkpt lat="44.56662" lon="5.85787">
        <ele>909.2</ele>
        <time>2023-09-28T09:15:41Z</time>
      </trkpt>
      <trkpt lat="44.56664" lon="5.85785">
        <ele>909.3</ele>
        <time>2023-09-28T09:15:42Z</time>
      </trkpt>
      <trkpt lat="44.56667" lon="5.85783">
        <ele>909.4</ele>
        <time>2023-09-28T09:15:43Z</time>
      </trkpt>
      <trkpt lat="44.56673" lon="5.85779">
        <ele>909.6</ele>
        <time>2023-09-28T09:15:45Z</time>
      </trkpt>
      <trkpt lat="44.56676" lon="5.85776">
        <ele>909.7</ele>
        <time>2023-09-28T09:15:46Z</time>
      </trkpt>
      <trkpt lat="44.56679" lon="5.85773">
        <ele>909.8</ele>
        <time>2023-09-28T09:15:47Z</time>
      </trkpt>
      <trkpt lat="44.56683" lon="5.8577">
        <ele>909.9</ele>
        <time>2023-09-28T09:15:49Z</time>
      </trkpt>
      <trkpt lat="44.56687" lon="5.85767">
        <ele>910.1</ele>
        <time>2023-09-28T09:15:50Z</time>
      </trkpt>
      <trkpt lat="44.56691" lon="5.85764">
        <ele>910.3</ele>
        <time>2023-09-28T09:15:51Z</time>
      </trkpt>
      <trkpt lat="44.56694" lon="5.85761">
        <ele>910.4</ele>
        <time>2023-09-28T09:15:53Z</time>
      </trkpt>
      <trkpt lat="44.56697" lon="5.85759">
        <ele>910.6</ele>
        <time>2023-09-28T09:15:54Z</time>
      </trkpt>
      <trkpt lat="44.56701" lon="5.85756">
        <ele>910.7</ele>
        <time>2023-09-28T09:15:55Z</time>
      </trkpt>
      <trkpt lat="44.56704" lon="5.85754">
        <ele>910.9</ele>
        <time>2023-09-28T09:15:56Z</time>
      </trkpt>
      <trkpt lat="44.56707" lon="5.85752">
        <ele>911</ele>
        <time>2023-09-28T09:15:57Z</time>
      </trkpt>
      <trkpt lat="44.5671" lon="5.8575">
        <ele>911.1</ele>
        <time>2023-09-28T09:15:58Z</time>
      </trkpt>
      <trkpt lat="44.56713" lon="5.85747">
        <ele>911.2</ele>
        <time>2023-09-28T09:15:59Z</time>
      </trkpt>
      <trkpt lat="44.56718" lon="5.85743">
        <ele>911.3</ele>
        <time>2023-09-28T09:16:01Z</time>
      </trkpt>
      <trkpt lat="44.56721" lon="5.85741">
        <ele>911.4</ele>
        <time>2023-09-28T09:16:02Z</time>
      </trkpt>
      <trkpt lat="44.56723" lon="5.85738">
        <ele>911.4</ele>
        <time>2023-09-28T09:16:03Z</time>
      </trkpt>
      <trkpt lat="44.56725" lon="5.85735">
        <ele>911.4</ele>
        <time>2023-09-28T09:16:04Z</time>
      </trkpt>
      <trkpt lat="44.5673" lon="5.85735">
        <ele>911.5</ele>
        <time>2023-09-28T09:16:06Z</time>
      </trkpt>
      <trkpt lat="44.56733" lon="5.85735">
        <ele>911.5</ele>
        <time>2023-09-28T09:16:07Z</time>
      </trkpt>
      <trkpt lat="44.56734" lon="5.85735">
        <ele>911.5</ele>
        <time>2023-09-28T09:16:08Z</time>
      </trkpt>
      <trkpt lat="44.56738" lon="5.85734">
        <ele>911.5</ele>
        <time>2023-09-28T09:16:10Z</time>
      </trkpt>
      <trkpt lat="44.5674" lon="5.85733">
        <ele>911.5</ele>
        <time>2023-09-28T09:16:11Z</time>
      </trkpt>
      <trkpt lat="44.56741" lon="5.85732">
        <ele>911.5</ele>
        <time>2023-09-28T09:16:12Z</time>
      </trkpt>
      <trkpt lat="44.56743" lon="5.85731">
        <ele>911.5</ele>
        <time>2023-09-28T09:16:13Z</time>
      </trkpt>
      <trkpt lat="44.56745" lon="5.85731">
        <ele>911.5</ele>
        <time>2023-09-28T09:16:15Z</time>
      </trkpt>
      <trkpt lat="44.56748" lon="5.85732">
        <ele>911.5</ele>
        <time>2023-09-28T09:16:16Z</time>
      </trkpt>
      <trkpt lat="44.56748" lon="5.85732">
        <ele>911.5</ele>
        <time>2023-09-28T09:16:17Z</time>
      </trkpt>
      <trkpt lat="44.56748" lon="5.85732">
        <ele>911.5</ele>
        <time>2023-09-28T09:16:19Z</time>
      </trkpt>
      <trkpt lat="44.56749" lon="5.85731">
        <ele>911.5</ele>
        <time>2023-09-28T09:16:20Z</time>
      </trkpt>
      <trkpt lat="44.56749" lon="5.85731">
        <ele>911.5</ele>
        <time>2023-09-28T09:16:22Z</time>
      </trkpt>
      <trkpt lat="44.5675" lon="5.85731">
        <ele>911.5</ele>
        <time>2023-09-28T09:16:23Z</time>
      </trkpt>
      <trkpt lat="44.5675" lon="5.85731">
        <ele>911.5</ele>
        <time>2023-09-28T09:16:24Z</time>
      </trkpt>
      <trkpt lat="44.5675" lon="5.8573">
        <ele>911.5</ele>
        <time>2023-09-28T09:16:25Z</time>
      </trkpt>
      <trkpt lat="44.56751" lon="5.8573">
        <ele>911.5</ele>
        <time>2023-09-28T09:16:27Z</time>
      </trkpt>
      <trkpt lat="44.56751" lon="5.8573">
        <ele>911.5</ele>
        <time>2023-09-28T09:17:08Z</time>
      </trkpt>
      <trkpt lat="44.56752" lon="5.85729">
        <ele>911.5</ele>
        <time>2023-09-28T09:17:09Z</time>
      </trkpt>
      <trkpt lat="44.56752" lon="5.85729">
        <ele>911.5</ele>
        <time>2023-09-28T09:17:10Z</time>
      </trkpt>
      <trkpt lat="44.56756" lon="5.85728">
        <ele>911.5</ele>
        <time>2023-09-28T09:17:11Z</time>
      </trkpt>
      <trkpt lat="44.56757" lon="5.85728">
        <ele>911.5</ele>
        <time>2023-09-28T09:17:12Z</time>
      </trkpt>
      <trkpt lat="44.5676" lon="5.85728">
        <ele>911.5</ele>
        <time>2023-09-28T09:17:13Z</time>
      </trkpt>
      <trkpt lat="44.56763" lon="5.85727">
        <ele>911.5</ele>
        <time>2023-09-28T09:17:14Z</time>
      </trkpt>
      <trkpt lat="44.56767" lon="5.85727">
        <ele>911.5</ele>
        <time>2023-09-28T09:17:15Z</time>
      </trkpt>
      <trkpt lat="44.56768" lon="5.85727">
        <ele>911.5</ele>
        <time>2023-09-28T09:17:16Z</time>
      </trkpt>
      <trkpt lat="44.56773" lon="5.85726">
        <ele>911.5</ele>
        <time>2023-09-28T09:17:18Z</time>
      </trkpt>
      <trkpt lat="44.56779" lon="5.85725">
        <ele>911.6</ele>
        <time>2023-09-28T09:17:19Z</time>
      </trkpt>
      <trkpt lat="44.56782" lon="5.85725">
        <ele>911.6</ele>
        <time>2023-09-28T09:17:20Z</time>
      </trkpt>
      <trkpt lat="44.56786" lon="5.85724">
        <ele>911.6</ele>
        <time>2023-09-28T09:17:21Z</time>
      </trkpt>
      <trkpt lat="44.56791" lon="5.85724">
        <ele>911.6</ele>
        <time>2023-09-28T09:17:22Z</time>
      </trkpt>
      <trkpt lat="44.56796" lon="5.85724">
        <ele>911.7</ele>
        <time>2023-09-28T09:17:24Z</time>
      </trkpt>
      <trkpt lat="44.568" lon="5.85724">
        <ele>911.7</ele>
        <time>2023-09-28T09:17:25Z</time>
      </trkpt>
      <trkpt lat="44.56805" lon="5.85723">
        <ele>911.7</ele>
        <time>2023-09-28T09:17:26Z</time>
      </trkpt>
      <trkpt lat="44.56808" lon="5.85723">
        <ele>911.7</ele>
        <time>2023-09-28T09:17:27Z</time>
      </trkpt>
      <trkpt lat="44.56813" lon="5.85722">
        <ele>911.8</ele>
        <time>2023-09-28T09:17:29Z</time>
      </trkpt>
      <trkpt lat="44.56819" lon="5.85722">
        <ele>911.8</ele>
        <time>2023-09-28T09:17:30Z</time>
      </trkpt>
      <trkpt lat="44.56823" lon="5.85722">
        <ele>911.8</ele>
        <time>2023-09-28T09:17:31Z</time>
      </trkpt>
      <trkpt lat="44.56827" lon="5.85721">
        <ele>911.8</ele>
        <time>2023-09-28T09:17:32Z</time>
      </trkpt>
      <trkpt lat="44.56832" lon="5.85721">
        <ele>911.9</ele>
        <time>2023-09-28T09:17:33Z</time>
      </trkpt>
      <trkpt lat="44.56838" lon="5.8572">
        <ele>911.9</ele>
        <time>2023-09-28T09:17:35Z</time>
      </trkpt>
      <trkpt lat="44.56845" lon="5.85719">
        <ele>912</ele>
        <time>2023-09-28T09:17:37Z</time>
      </trkpt>
      <trkpt lat="44.56849" lon="5.85719">
        <ele>912</ele>
        <time>2023-09-28T09:17:38Z</time>
      </trkpt>
      <trkpt lat="44.56853" lon="5.85719">
        <ele>912.1</ele>
        <time>2023-09-28T09:17:39Z</time>
      </trkpt>
      <trkpt lat="44.56856" lon="5.85719">
        <ele>912.1</ele>
        <time>2023-09-28T09:17:40Z</time>
      </trkpt>
      <trkpt lat="44.5686" lon="5.85719">
        <ele>912.1</ele>
        <time>2023-09-28T09:17:41Z</time>
      </trkpt>
      <trkpt lat="44.56864" lon="5.85718">
        <ele>912.1</ele>
        <time>2023-09-28T09:17:42Z</time>
      </trkpt>
      <trkpt lat="44.56869" lon="5.85718">
        <ele>912.2</ele>
        <time>2023-09-28T09:17:44Z</time>
      </trkpt>
      <trkpt lat="44.56875" lon="5.85717">
        <ele>912.2</ele>
        <time>2023-09-28T09:17:45Z</time>
      </trkpt>
      <trkpt lat="44.5688" lon="5.85716">
        <ele>912.2</ele>
        <time>2023-09-28T09:17:46Z</time>
      </trkpt>
      <trkpt lat="44.56885" lon="5.85716">
        <ele>912.3</ele>
        <time>2023-09-28T09:17:48Z</time>
      </trkpt>
      <trkpt lat="44.56889" lon="5.85715">
        <ele>912.3</ele>
        <time>2023-09-28T09:17:49Z</time>
      </trkpt>
      <trkpt lat="44.56894" lon="5.85714">
        <ele>912.4</ele>
        <time>2023-09-28T09:17:50Z</time>
      </trkpt>
      <trkpt lat="44.56898" lon="5.85714">
        <ele>912.4</ele>
        <time>2023-09-28T09:17:51Z</time>
      </trkpt>
      <trkpt lat="44.56902" lon="5.85714">
        <ele>912.5</ele>
        <time>2023-09-28T09:17:52Z</time>
      </trkpt>
      <trkpt lat="44.56906" lon="5.85714">
        <ele>912.5</ele>
        <time>2023-09-28T09:17:53Z</time>
      </trkpt>
      <trkpt lat="44.56911" lon="5.85713">
        <ele>912.6</ele>
        <time>2023-09-28T09:17:54Z</time>
      </trkpt>
      <trkpt lat="44.56916" lon="5.85712">
        <ele>912.7</ele>
        <time>2023-09-28T09:17:56Z</time>
      </trkpt>
      <trkpt lat="44.56921" lon="5.85712">
        <ele>912.8</ele>
        <time>2023-09-28T09:17:57Z</time>
      </trkpt>
      <trkpt lat="44.56925" lon="5.85712">
        <ele>912.9</ele>
        <time>2023-09-28T09:17:58Z</time>
      </trkpt>
      <trkpt lat="44.5693" lon="5.85711">
        <ele>913</ele>
        <time>2023-09-28T09:17:59Z</time>
      </trkpt>
      <trkpt lat="44.56934" lon="5.85711">
        <ele>913.1</ele>
        <time>2023-09-28T09:18:00Z</time>
      </trkpt>
      <trkpt lat="44.56938" lon="5.85711">
        <ele>913.2</ele>
        <time>2023-09-28T09:18:01Z</time>
      </trkpt>
      <trkpt lat="44.56942" lon="5.85711">
        <ele>913.3</ele>
        <time>2023-09-28T09:18:02Z</time>
      </trkpt>
      <trkpt lat="44.56947" lon="5.85711">
        <ele>913.4</ele>
        <time>2023-09-28T09:18:04Z</time>
      </trkpt>
      <trkpt lat="44.56951" lon="5.8571">
        <ele>913.6</ele>
        <time>2023-09-28T09:18:05Z</time>
      </trkpt>
      <trkpt lat="44.56957" lon="5.8571">
        <ele>913.8</ele>
        <time>2023-09-28T09:18:06Z</time>
      </trkpt>
      <trkpt lat="44.56961" lon="5.8571">
        <ele>913.9</ele>
        <time>2023-09-28T09:18:08Z</time>
      </trkpt>
      <trkpt lat="44.56966" lon="5.85709">
        <ele>914.1</ele>
        <time>2023-09-28T09:18:09Z</time>
      </trkpt>
      <trkpt lat="44.5697" lon="5.85709">
        <ele>914.2</ele>
        <time>2023-09-28T09:18:10Z</time>
      </trkpt>
      <trkpt lat="44.56973" lon="5.85709">
        <ele>914.3</ele>
        <time>2023-09-28T09:18:11Z</time>
      </trkpt>
      <trkpt lat="44.56978" lon="5.85708">
        <ele>914.4</ele>
        <time>2023-09-28T09:18:12Z</time>
      </trkpt>
      <trkpt lat="44.56982" lon="5.85708">
        <ele>914.5</ele>
        <time>2023-09-28T09:18:13Z</time>
      </trkpt>
      <trkpt lat="44.56986" lon="5.85707">
        <ele>914.6</ele>
        <time>2023-09-28T09:18:14Z</time>
      </trkpt>
      <trkpt lat="44.5699" lon="5.85706">
        <ele>914.7</ele>
        <time>2023-09-28T09:18:15Z</time>
      </trkpt>
      <trkpt lat="44.56995" lon="5.85706">
        <ele>914.8</ele>
        <time>2023-09-28T09:18:17Z</time>
      </trkpt>
      <trkpt lat="44.56999" lon="5.85706">
        <ele>914.9</ele>
        <time>2023-09-28T09:18:18Z</time>
      </trkpt>
      <trkpt lat="44.57002" lon="5.85706">
        <ele>914.9</ele>
        <time>2023-09-28T09:18:19Z</time>
      </trkpt>
      <trkpt lat="44.57007" lon="5.85706">
        <ele>915</ele>
        <time>2023-09-28T09:18:20Z</time>
      </trkpt>
      <trkpt lat="44.57011" lon="5.85705">
        <ele>915.1</ele>
        <time>2023-09-28T09:18:21Z</time>
      </trkpt>
      <trkpt lat="44.57016" lon="5.85704">
        <ele>915.3</ele>
        <time>2023-09-28T09:18:22Z</time>
      </trkpt>
      <trkpt lat="44.57019" lon="5.85704">
        <ele>915.3</ele>
        <time>2023-09-28T09:18:23Z</time>
      </trkpt>
      <trkpt lat="44.57023" lon="5.85704">
        <ele>915.4</ele>
        <time>2023-09-28T09:18:24Z</time>
      </trkpt>
      <trkpt lat="44.57028" lon="5.85703">
        <ele>915.6</ele>
        <time>2023-09-28T09:18:26Z</time>
      </trkpt>
      <trkpt lat="44.57033" lon="5.85703">
        <ele>915.8</ele>
        <time>2023-09-28T09:18:27Z</time>
      </trkpt>
      <trkpt lat="44.57036" lon="5.85702">
        <ele>915.9</ele>
        <time>2023-09-28T09:18:28Z</time>
      </trkpt>
      <trkpt lat="44.57041" lon="5.85701">
        <ele>916.1</ele>
        <time>2023-09-28T09:18:29Z</time>
      </trkpt>
      <trkpt lat="44.57045" lon="5.85701">
        <ele>916.2</ele>
        <time>2023-09-28T09:18:30Z</time>
      </trkpt>
      <trkpt lat="44.57049" lon="5.85701">
        <ele>916.4</ele>
        <time>2023-09-28T09:18:31Z</time>
      </trkpt>
      <trkpt lat="44.57053" lon="5.857">
        <ele>916.5</ele>
        <time>2023-09-28T09:18:32Z</time>
      </trkpt>
      <trkpt lat="44.57057" lon="5.857">
        <ele>916.6</ele>
        <time>2023-09-28T09:18:33Z</time>
      </trkpt>
      <trkpt lat="44.57061" lon="5.85699">
        <ele>916.8</ele>
        <time>2023-09-28T09:18:35Z</time>
      </trkpt>
      <trkpt lat="44.57065" lon="5.85699">
        <ele>916.9</ele>
        <time>2023-09-28T09:18:36Z</time>
      </trkpt>
      <trkpt lat="44.57069" lon="5.85699">
        <ele>917</ele>
        <time>2023-09-28T09:18:37Z</time>
      </trkpt>
      <trkpt lat="44.57073" lon="5.85698">
        <ele>917.2</ele>
        <time>2023-09-28T09:18:38Z</time>
      </trkpt>
      <trkpt lat="44.57077" lon="5.85698">
        <ele>917.3</ele>
        <time>2023-09-28T09:18:39Z</time>
      </trkpt>
      <trkpt lat="44.57081" lon="5.85698">
        <ele>917.4</ele>
        <time>2023-09-28T09:18:40Z</time>
      </trkpt>
      <trkpt lat="44.57085" lon="5.85698">
        <ele>917.5</ele>
        <time>2023-09-28T09:18:41Z</time>
      </trkpt>
      <trkpt lat="44.5709" lon="5.85697">
        <ele>917.7</ele>
        <time>2023-09-28T09:18:43Z</time>
      </trkpt>
      <trkpt lat="44.57094" lon="5.85697">
        <ele>917.8</ele>
        <time>2023-09-28T09:18:44Z</time>
      </trkpt>
      <trkpt lat="44.571" lon="5.85696">
        <ele>918</ele>
        <time>2023-09-28T09:18:45Z</time>
      </trkpt>
      <trkpt lat="44.57104" lon="5.85697">
        <ele>918.1</ele>
        <time>2023-09-28T09:18:46Z</time>
      </trkpt>
      <trkpt lat="44.57109" lon="5.85698">
        <ele>918.3</ele>
        <time>2023-09-28T09:18:48Z</time>
      </trkpt>
      <trkpt lat="44.57114" lon="5.85698">
        <ele>918.4</ele>
        <time>2023-09-28T09:18:49Z</time>
      </trkpt>
      <trkpt lat="44.57118" lon="5.85699">
        <ele>918.6</ele>
        <time>2023-09-28T09:18:50Z</time>
      </trkpt>
      <trkpt lat="44.57122" lon="5.857">
        <ele>918.7</ele>
        <time>2023-09-28T09:18:51Z</time>
      </trkpt>
      <trkpt lat="44.57125" lon="5.85701">
        <ele>918.8</ele>
        <time>2023-09-28T09:18:52Z</time>
      </trkpt>
      <trkpt lat="44.57129" lon="5.85702">
        <ele>919</ele>
        <time>2023-09-28T09:18:53Z</time>
      </trkpt>
      <trkpt lat="44.57133" lon="5.85703">
        <ele>919.1</ele>
        <time>2023-09-28T09:18:54Z</time>
      </trkpt>
      <trkpt lat="44.57138" lon="5.85705">
        <ele>919.3</ele>
        <time>2023-09-28T09:18:56Z</time>
      </trkpt>
      <trkpt lat="44.57142" lon="5.85706">
        <ele>919.5</ele>
        <time>2023-09-28T09:18:57Z</time>
      </trkpt>
      <trkpt lat="44.57145" lon="5.85707">
        <ele>919.6</ele>
        <time>2023-09-28T09:18:58Z</time>
      </trkpt>
      <trkpt lat="44.57149" lon="5.85708">
        <ele>919.8</ele>
        <time>2023-09-28T09:18:59Z</time>
      </trkpt>
      <trkpt lat="44.57153" lon="5.85709">
        <ele>920</ele>
        <time>2023-09-28T09:19:00Z</time>
      </trkpt>
      <trkpt lat="44.57158" lon="5.85709">
        <ele>920.2</ele>
        <time>2023-09-28T09:19:01Z</time>
      </trkpt>
      <trkpt lat="44.57162" lon="5.85709">
        <ele>920.4</ele>
        <time>2023-09-28T09:19:02Z</time>
      </trkpt>
      <trkpt lat="44.57165" lon="5.85709">
        <ele>920.5</ele>
        <time>2023-09-28T09:19:03Z</time>
      </trkpt>
      <trkpt lat="44.57169" lon="5.85708">
        <ele>920.7</ele>
        <time>2023-09-28T09:19:05Z</time>
      </trkpt>
      <trkpt lat="44.57173" lon="5.85707">
        <ele>920.8</ele>
        <time>2023-09-28T09:19:06Z</time>
      </trkpt>
      <trkpt lat="44.57177" lon="5.85705">
        <ele>920.9</ele>
        <time>2023-09-28T09:19:07Z</time>
      </trkpt>
      <trkpt lat="44.57181" lon="5.85704">
        <ele>921.1</ele>
        <time>2023-09-28T09:19:08Z</time>
      </trkpt>
      <trkpt lat="44.57185" lon="5.85702">
        <ele>921.2</ele>
        <time>2023-09-28T09:19:09Z</time>
      </trkpt>
      <trkpt lat="44.57189" lon="5.85701">
        <ele>921.3</ele>
        <time>2023-09-28T09:19:10Z</time>
      </trkpt>
      <trkpt lat="44.57193" lon="5.85699">
        <ele>921.4</ele>
        <time>2023-09-28T09:19:11Z</time>
      </trkpt>
      <trkpt lat="44.57196" lon="5.85697">
        <ele>921.4</ele>
        <time>2023-09-28T09:19:12Z</time>
      </trkpt>
      <trkpt lat="44.572" lon="5.85695">
        <ele>921.5</ele>
        <time>2023-09-28T09:19:13Z</time>
      </trkpt>
      <trkpt lat="44.57204" lon="5.85693">
        <ele>921.6</ele>
        <time>2023-09-28T09:19:15Z</time>
      </trkpt>
      <trkpt lat="44.5721" lon="5.8569">
        <ele>921.7</ele>
        <time>2023-09-28T09:19:16Z</time>
      </trkpt>
      <trkpt lat="44.57215" lon="5.85688">
        <ele>921.7</ele>
        <time>2023-09-28T09:19:17Z</time>
      </trkpt>
      <trkpt lat="44.57219" lon="5.85685">
        <ele>921.8</ele>
        <time>2023-09-28T09:19:19Z</time>
      </trkpt>
      <trkpt lat="44.57223" lon="5.85682">
        <ele>921.8</ele>
        <time>2023-09-28T09:19:20Z</time>
      </trkpt>
      <trkpt lat="44.57228" lon="5.85679">
        <ele>921.9</ele>
        <time>2023-09-28T09:19:21Z</time>
      </trkpt>
      <trkpt lat="44.57233" lon="5.85676">
        <ele>921.9</ele>
        <time>2023-09-28T09:19:22Z</time>
      </trkpt>
      <trkpt lat="44.57238" lon="5.85671">
        <ele>921.9</ele>
        <time>2023-09-28T09:19:23Z</time>
      </trkpt>
      <trkpt lat="44.57242" lon="5.85668">
        <ele>921.9</ele>
        <time>2023-09-28T09:19:24Z</time>
      </trkpt>
      <trkpt lat="44.57246" lon="5.85665">
        <ele>921.8</ele>
        <time>2023-09-28T09:19:25Z</time>
      </trkpt>
      <trkpt lat="44.57251" lon="5.85661">
        <ele>921.7</ele>
        <time>2023-09-28T09:19:26Z</time>
      </trkpt>
      <trkpt lat="44.57255" lon="5.85657">
        <ele>921.6</ele>
        <time>2023-09-28T09:19:27Z</time>
      </trkpt>
      <trkpt lat="44.57259" lon="5.85652">
        <ele>921.5</ele>
        <time>2023-09-28T09:19:28Z</time>
      </trkpt>
      <trkpt lat="44.57264" lon="5.85647">
        <ele>921.4</ele>
        <time>2023-09-28T09:19:29Z</time>
      </trkpt>
      <trkpt lat="44.57268" lon="5.85643">
        <ele>921.3</ele>
        <time>2023-09-28T09:19:30Z</time>
      </trkpt>
      <trkpt lat="44.57272" lon="5.85638">
        <ele>921.3</ele>
        <time>2023-09-28T09:19:31Z</time>
      </trkpt>
      <trkpt lat="44.57277" lon="5.85633">
        <ele>921.2</ele>
        <time>2023-09-28T09:19:32Z</time>
      </trkpt>
      <trkpt lat="44.57282" lon="5.85628">
        <ele>921.1</ele>
        <time>2023-09-28T09:19:33Z</time>
      </trkpt>
      <trkpt lat="44.57286" lon="5.85623">
        <ele>921.1</ele>
        <time>2023-09-28T09:19:34Z</time>
      </trkpt>
      <trkpt lat="44.57291" lon="5.85618">
        <ele>921.1</ele>
        <time>2023-09-28T09:19:35Z</time>
      </trkpt>
      <trkpt lat="44.57296" lon="5.85614">
        <ele>921.1</ele>
        <time>2023-09-28T09:19:36Z</time>
      </trkpt>
      <trkpt lat="44.57301" lon="5.8561">
        <ele>921.1</ele>
        <time>2023-09-28T09:19:37Z</time>
      </trkpt>
      <trkpt lat="44.57306" lon="5.85606">
        <ele>921.1</ele>
        <time>2023-09-28T09:19:38Z</time>
      </trkpt>
      <trkpt lat="44.5731" lon="5.85603">
        <ele>921.2</ele>
        <time>2023-09-28T09:19:39Z</time>
      </trkpt>
      <trkpt lat="44.57315" lon="5.85599">
        <ele>921.3</ele>
        <time>2023-09-28T09:19:40Z</time>
      </trkpt>
      <trkpt lat="44.5732" lon="5.85595">
        <ele>921.4</ele>
        <time>2023-09-28T09:19:41Z</time>
      </trkpt>
      <trkpt lat="44.57325" lon="5.85592">
        <ele>921.5</ele>
        <time>2023-09-28T09:19:42Z</time>
      </trkpt>
      <trkpt lat="44.57329" lon="5.85588">
        <ele>921.6</ele>
        <time>2023-09-28T09:19:43Z</time>
      </trkpt>
      <trkpt lat="44.57334" lon="5.85585">
        <ele>921.8</ele>
        <time>2023-09-28T09:19:44Z</time>
      </trkpt>
      <trkpt lat="44.57339" lon="5.85582">
        <ele>921.9</ele>
        <time>2023-09-28T09:19:45Z</time>
      </trkpt>
      <trkpt lat="44.57343" lon="5.8558">
        <ele>922.1</ele>
        <time>2023-09-28T09:19:46Z</time>
      </trkpt>
      <trkpt lat="44.57348" lon="5.85578">
        <ele>922.2</ele>
        <time>2023-09-28T09:19:47Z</time>
      </trkpt>
      <trkpt lat="44.57353" lon="5.85576">
        <ele>922.4</ele>
        <time>2023-09-28T09:19:48Z</time>
      </trkpt>
      <trkpt lat="44.57357" lon="5.85574">
        <ele>922.6</ele>
        <time>2023-09-28T09:19:49Z</time>
      </trkpt>
      <trkpt lat="44.57362" lon="5.85573">
        <ele>922.8</ele>
        <time>2023-09-28T09:19:50Z</time>
      </trkpt>
      <trkpt lat="44.57367" lon="5.85571">
        <ele>923</ele>
        <time>2023-09-28T09:19:51Z</time>
      </trkpt>
      <trkpt lat="44.57371" lon="5.8557">
        <ele>923.2</ele>
        <time>2023-09-28T09:19:52Z</time>
      </trkpt>
      <trkpt lat="44.57376" lon="5.85568">
        <ele>923.4</ele>
        <time>2023-09-28T09:19:53Z</time>
      </trkpt>
      <trkpt lat="44.57381" lon="5.85567">
        <ele>923.5</ele>
        <time>2023-09-28T09:19:54Z</time>
      </trkpt>
      <trkpt lat="44.57385" lon="5.85566">
        <ele>923.7</ele>
        <time>2023-09-28T09:19:55Z</time>
      </trkpt>
      <trkpt lat="44.5739" lon="5.85564">
        <ele>923.9</ele>
        <time>2023-09-28T09:19:56Z</time>
      </trkpt>
      <trkpt lat="44.57394" lon="5.85563">
        <ele>924</ele>
        <time>2023-09-28T09:19:57Z</time>
      </trkpt>
      <trkpt lat="44.57398" lon="5.85561">
        <ele>924.2</ele>
        <time>2023-09-28T09:19:58Z</time>
      </trkpt>
      <trkpt lat="44.57403" lon="5.8556">
        <ele>924.3</ele>
        <time>2023-09-28T09:19:59Z</time>
      </trkpt>
      <trkpt lat="44.57408" lon="5.8556">
        <ele>924.5</ele>
        <time>2023-09-28T09:20:00Z</time>
      </trkpt>
      <trkpt lat="44.57413" lon="5.85558">
        <ele>924.7</ele>
        <time>2023-09-28T09:20:01Z</time>
      </trkpt>
      <trkpt lat="44.57417" lon="5.85557">
        <ele>924.8</ele>
        <time>2023-09-28T09:20:02Z</time>
      </trkpt>
      <trkpt lat="44.57422" lon="5.85555">
        <ele>925</ele>
        <time>2023-09-28T09:20:03Z</time>
      </trkpt>
      <trkpt lat="44.57426" lon="5.85554">
        <ele>925.1</ele>
        <time>2023-09-28T09:20:04Z</time>
      </trkpt>
      <trkpt lat="44.57431" lon="5.85553">
        <ele>925.3</ele>
        <time>2023-09-28T09:20:05Z</time>
      </trkpt>
      <trkpt lat="44.57433" lon="5.85552">
        <ele>925.3</ele>
        <time>2023-09-28T09:20:06Z</time>
      </trkpt>
      <trkpt lat="44.57439" lon="5.8555">
        <ele>925.5</ele>
        <time>2023-09-28T09:20:08Z</time>
      </trkpt>
      <trkpt lat="44.57445" lon="5.85548">
        <ele>925.7</ele>
        <time>2023-09-28T09:20:09Z</time>
      </trkpt>
      <trkpt lat="44.57451" lon="5.85547">
        <ele>925.9</ele>
        <time>2023-09-28T09:20:10Z</time>
      </trkpt>
      <trkpt lat="44.57456" lon="5.85545">
        <ele>926</ele>
        <time>2023-09-28T09:20:11Z</time>
      </trkpt>
      <trkpt lat="44.5746" lon="5.85544">
        <ele>926.2</ele>
        <time>2023-09-28T09:20:12Z</time>
      </trkpt>
      <trkpt lat="44.57464" lon="5.85543">
        <ele>926.4</ele>
        <time>2023-09-28T09:20:13Z</time>
      </trkpt>
      <trkpt lat="44.57469" lon="5.85541">
        <ele>926.5</ele>
        <time>2023-09-28T09:20:14Z</time>
      </trkpt>
      <trkpt lat="44.57474" lon="5.8554">
        <ele>926.7</ele>
        <time>2023-09-28T09:20:15Z</time>
      </trkpt>
      <trkpt lat="44.57479" lon="5.85539">
        <ele>926.9</ele>
        <time>2023-09-28T09:20:16Z</time>
      </trkpt>
      <trkpt lat="44.57483" lon="5.85538">
        <ele>927.1</ele>
        <time>2023-09-28T09:20:18Z</time>
      </trkpt>
      <trkpt lat="44.5749" lon="5.85536">
        <ele>927.4</ele>
        <time>2023-09-28T09:20:19Z</time>
      </trkpt>
      <trkpt lat="44.57494" lon="5.85535">
        <ele>927.5</ele>
        <time>2023-09-28T09:20:20Z</time>
      </trkpt>
      <trkpt lat="44.57499" lon="5.85533">
        <ele>927.7</ele>
        <time>2023-09-28T09:20:21Z</time>
      </trkpt>
      <trkpt lat="44.57503" lon="5.85532">
        <ele>927.9</ele>
        <time>2023-09-28T09:20:22Z</time>
      </trkpt>
      <trkpt lat="44.57507" lon="5.8553">
        <ele>928.1</ele>
        <time>2023-09-28T09:20:23Z</time>
      </trkpt>
      <trkpt lat="44.57513" lon="5.85527">
        <ele>928.3</ele>
        <time>2023-09-28T09:20:25Z</time>
      </trkpt>
      <trkpt lat="44.57517" lon="5.85525">
        <ele>928.5</ele>
        <time>2023-09-28T09:20:26Z</time>
      </trkpt>
      <trkpt lat="44.5752" lon="5.85523">
        <ele>928.7</ele>
        <time>2023-09-28T09:20:27Z</time>
      </trkpt>
      <trkpt lat="44.57525" lon="5.8552">
        <ele>929</ele>
        <time>2023-09-28T09:20:28Z</time>
      </trkpt>
      <trkpt lat="44.57529" lon="5.85519">
        <ele>929.2</ele>
        <time>2023-09-28T09:20:29Z</time>
      </trkpt>
      <trkpt lat="44.57533" lon="5.85516">
        <ele>929.5</ele>
        <time>2023-09-28T09:20:30Z</time>
      </trkpt>
      <trkpt lat="44.57537" lon="5.85514">
        <ele>929.7</ele>
        <time>2023-09-28T09:20:32Z</time>
      </trkpt>
      <trkpt lat="44.57541" lon="5.85512">
        <ele>930</ele>
        <time>2023-09-28T09:20:33Z</time>
      </trkpt>
      <trkpt lat="44.57545" lon="5.8551">
        <ele>930.2</ele>
        <time>2023-09-28T09:20:34Z</time>
      </trkpt>
      <trkpt lat="44.57549" lon="5.85509">
        <ele>930.5</ele>
        <time>2023-09-28T09:20:35Z</time>
      </trkpt>
      <trkpt lat="44.57553" lon="5.85509">
        <ele>930.7</ele>
        <time>2023-09-28T09:20:36Z</time>
      </trkpt>
      <trkpt lat="44.57557" lon="5.85508">
        <ele>931</ele>
        <time>2023-09-28T09:20:37Z</time>
      </trkpt>
      <trkpt lat="44.57561" lon="5.85508">
        <ele>931.3</ele>
        <time>2023-09-28T09:20:39Z</time>
      </trkpt>
      <trkpt lat="44.57568" lon="5.8551">
        <ele>931.7</ele>
        <time>2023-09-28T09:20:40Z</time>
      </trkpt>
      <trkpt lat="44.57571" lon="5.85513">
        <ele>931.9</ele>
        <time>2023-09-28T09:20:42Z</time>
      </trkpt>
      <trkpt lat="44.57573" lon="5.85518">
        <ele>932</ele>
        <time>2023-09-28T09:20:43Z</time>
      </trkpt>
      <trkpt lat="44.57575" lon="5.85521">
        <ele>932.1</ele>
        <time>2023-09-28T09:20:44Z</time>
      </trkpt>
      <trkpt lat="44.57577" lon="5.85525">
        <ele>932.2</ele>
        <time>2023-09-28T09:20:45Z</time>
      </trkpt>
      <trkpt lat="44.5758" lon="5.85529">
        <ele>932.3</ele>
        <time>2023-09-28T09:20:46Z</time>
      </trkpt>
      <trkpt lat="44.57582" lon="5.85532">
        <ele>932.3</ele>
        <time>2023-09-28T09:20:47Z</time>
      </trkpt>
      <trkpt lat="44.57584" lon="5.85536">
        <ele>932.4</ele>
        <time>2023-09-28T09:20:48Z</time>
      </trkpt>
      <trkpt lat="44.57588" lon="5.85543">
        <ele>932.6</ele>
        <time>2023-09-28T09:20:50Z</time>
      </trkpt>
      <trkpt lat="44.57591" lon="5.85546">
        <ele>932.6</ele>
        <time>2023-09-28T09:20:51Z</time>
      </trkpt>
      <trkpt lat="44.57592" lon="5.85549">
        <ele>932.7</ele>
        <time>2023-09-28T09:20:52Z</time>
      </trkpt>
      <trkpt lat="44.57596" lon="5.85556">
        <ele>932.8</ele>
        <time>2023-09-28T09:20:54Z</time>
      </trkpt>
      <trkpt lat="44.57597" lon="5.8556">
        <ele>932.9</ele>
        <time>2023-09-28T09:20:55Z</time>
      </trkpt>
      <trkpt lat="44.576" lon="5.85565">
        <ele>932.9</ele>
        <time>2023-09-28T09:20:56Z</time>
      </trkpt>
      <trkpt lat="44.57601" lon="5.85566">
        <ele>932.9</ele>
        <time>2023-09-28T09:20:57Z</time>
      </trkpt>
      <trkpt lat="44.57604" lon="5.85569">
        <ele>933</ele>
        <time>2023-09-28T09:20:59Z</time>
      </trkpt>
      <trkpt lat="44.57608" lon="5.8557">
        <ele>933</ele>
        <time>2023-09-28T09:21:00Z</time>
      </trkpt>
      <trkpt lat="44.57612" lon="5.8557">
        <ele>932.9</ele>
        <time>2023-09-28T09:21:01Z</time>
      </trkpt>
      <trkpt lat="44.57616" lon="5.85568">
        <ele>932.9</ele>
        <time>2023-09-28T09:21:02Z</time>
      </trkpt>
      <trkpt lat="44.5762" lon="5.85565">
        <ele>932.9</ele>
        <time>2023-09-28T09:21:03Z</time>
      </trkpt>
      <trkpt lat="44.57623" lon="5.85562">
        <ele>932.9</ele>
        <time>2023-09-28T09:21:04Z</time>
      </trkpt>
      <trkpt lat="44.57626" lon="5.85559">
        <ele>932.8</ele>
        <time>2023-09-28T09:21:05Z</time>
      </trkpt>
      <trkpt lat="44.57629" lon="5.85555">
        <ele>932.8</ele>
        <time>2023-09-28T09:21:06Z</time>
      </trkpt>
      <trkpt lat="44.57633" lon="5.85551">
        <ele>932.9</ele>
        <time>2023-09-28T09:21:08Z</time>
      </trkpt>
      <trkpt lat="44.57636" lon="5.85548">
        <ele>932.9</ele>
        <time>2023-09-28T09:21:09Z</time>
      </trkpt>
      <trkpt lat="44.5764" lon="5.85543">
        <ele>932.9</ele>
        <time>2023-09-28T09:21:10Z</time>
      </trkpt>
      <trkpt lat="44.57645" lon="5.85538">
        <ele>933</ele>
        <time>2023-09-28T09:21:12Z</time>
      </trkpt>
      <trkpt lat="44.57648" lon="5.85535">
        <ele>933</ele>
        <time>2023-09-28T09:21:13Z</time>
      </trkpt>
      <trkpt lat="44.57652" lon="5.85532">
        <ele>933</ele>
        <time>2023-09-28T09:21:14Z</time>
      </trkpt>
      <trkpt lat="44.57657" lon="5.85527">
        <ele>933.1</ele>
        <time>2023-09-28T09:21:16Z</time>
      </trkpt>
      <trkpt lat="44.57659" lon="5.85524">
        <ele>933.1</ele>
        <time>2023-09-28T09:21:17Z</time>
      </trkpt>
      <trkpt lat="44.57662" lon="5.85521">
        <ele>933.2</ele>
        <time>2023-09-28T09:21:18Z</time>
      </trkpt>
      <trkpt lat="44.57668" lon="5.85517">
        <ele>933.2</ele>
        <time>2023-09-28T09:21:20Z</time>
      </trkpt>
      <trkpt lat="44.57672" lon="5.85514">
        <ele>933.3</ele>
        <time>2023-09-28T09:21:21Z</time>
      </trkpt>
      <trkpt lat="44.57675" lon="5.85511">
        <ele>933.3</ele>
        <time>2023-09-28T09:21:22Z</time>
      </trkpt>
      <trkpt lat="44.57678" lon="5.85508">
        <ele>933.4</ele>
        <time>2023-09-28T09:21:23Z</time>
      </trkpt>
      <trkpt lat="44.57684" lon="5.85504">
        <ele>933.4</ele>
        <time>2023-09-28T09:21:25Z</time>
      </trkpt>
      <trkpt lat="44.57688" lon="5.855">
        <ele>933.5</ele>
        <time>2023-09-28T09:21:26Z</time>
      </trkpt>
      <trkpt lat="44.57693" lon="5.85497">
        <ele>933.6</ele>
        <time>2023-09-28T09:21:27Z</time>
      </trkpt>
      <trkpt lat="44.577" lon="5.8549">
        <ele>933.8</ele>
        <time>2023-09-28T09:21:29Z</time>
      </trkpt>
      <trkpt lat="44.57705" lon="5.85487">
        <ele>933.9</ele>
        <time>2023-09-28T09:21:31Z</time>
      </trkpt>
      <trkpt lat="44.5771" lon="5.85483">
        <ele>934</ele>
        <time>2023-09-28T09:21:32Z</time>
      </trkpt>
      <trkpt lat="44.57714" lon="5.85481">
        <ele>934</ele>
        <time>2023-09-28T09:21:33Z</time>
      </trkpt>
      <trkpt lat="44.57718" lon="5.85477">
        <ele>934.1</ele>
        <time>2023-09-28T09:21:34Z</time>
      </trkpt>
      <trkpt lat="44.57722" lon="5.85475">
        <ele>934.2</ele>
        <time>2023-09-28T09:21:35Z</time>
      </trkpt>
      <trkpt lat="44.57726" lon="5.85472">
        <ele>934.3</ele>
        <time>2023-09-28T09:21:36Z</time>
      </trkpt>
      <trkpt lat="44.5773" lon="5.85469">
        <ele>934.4</ele>
        <time>2023-09-28T09:21:37Z</time>
      </trkpt>
      <trkpt lat="44.57734" lon="5.85467">
        <ele>934.5</ele>
        <time>2023-09-28T09:21:38Z</time>
      </trkpt>
      <trkpt lat="44.57739" lon="5.85464">
        <ele>934.7</ele>
        <time>2023-09-28T09:21:40Z</time>
      </trkpt>
      <trkpt lat="44.57744" lon="5.8546">
        <ele>934.8</ele>
        <time>2023-09-28T09:21:42Z</time>
      </trkpt>
      <trkpt lat="44.57747" lon="5.85458">
        <ele>934.9</ele>
        <time>2023-09-28T09:21:43Z</time>
      </trkpt>
      <trkpt lat="44.5775" lon="5.85457">
        <ele>935</ele>
        <time>2023-09-28T09:21:44Z</time>
      </trkpt>
      <trkpt lat="44.57753" lon="5.85455">
        <ele>935.1</ele>
        <time>2023-09-28T09:21:46Z</time>
      </trkpt>
      <trkpt lat="44.57757" lon="5.85452">
        <ele>935.2</ele>
        <time>2023-09-28T09:21:47Z</time>
      </trkpt>
      <trkpt lat="44.57759" lon="5.85451">
        <ele>935.3</ele>
        <time>2023-09-28T09:21:48Z</time>
      </trkpt>
      <trkpt lat="44.57764" lon="5.85447">
        <ele>935.4</ele>
        <time>2023-09-28T09:21:49Z</time>
      </trkpt>
      <trkpt lat="44.57768" lon="5.85445">
        <ele>935.5</ele>
        <time>2023-09-28T09:21:51Z</time>
      </trkpt>
      <trkpt lat="44.57771" lon="5.85443">
        <ele>935.6</ele>
        <time>2023-09-28T09:21:52Z</time>
      </trkpt>
      <trkpt lat="44.57774" lon="5.85441">
        <ele>935.7</ele>
        <time>2023-09-28T09:21:53Z</time>
      </trkpt>
      <trkpt lat="44.57778" lon="5.85439">
        <ele>935.8</ele>
        <time>2023-09-28T09:21:54Z</time>
      </trkpt>
      <trkpt lat="44.57781" lon="5.85437">
        <ele>935.9</ele>
        <time>2023-09-28T09:21:55Z</time>
      </trkpt>
      <trkpt lat="44.57784" lon="5.85435">
        <ele>936</ele>
        <time>2023-09-28T09:21:56Z</time>
      </trkpt>
      <trkpt lat="44.57787" lon="5.85433">
        <ele>936.1</ele>
        <time>2023-09-28T09:21:57Z</time>
      </trkpt>
      <trkpt lat="44.5779" lon="5.85431">
        <ele>936.2</ele>
        <time>2023-09-28T09:21:58Z</time>
      </trkpt>
      <trkpt lat="44.57794" lon="5.85429">
        <ele>936.3</ele>
        <time>2023-09-28T09:21:59Z</time>
      </trkpt>
      <trkpt lat="44.57797" lon="5.85427">
        <ele>936.4</ele>
        <time>2023-09-28T09:22:00Z</time>
      </trkpt>
      <trkpt lat="44.57801" lon="5.85424">
        <ele>936.5</ele>
        <time>2023-09-28T09:22:02Z</time>
      </trkpt>
      <trkpt lat="44.57805" lon="5.85422">
        <ele>936.6</ele>
        <time>2023-09-28T09:22:03Z</time>
      </trkpt>
      <trkpt lat="44.57808" lon="5.8542">
        <ele>936.8</ele>
        <time>2023-09-28T09:22:04Z</time>
      </trkpt>
      <trkpt lat="44.57812" lon="5.85418">
        <ele>936.9</ele>
        <time>2023-09-28T09:22:05Z</time>
      </trkpt>
      <trkpt lat="44.57815" lon="5.85417">
        <ele>937</ele>
        <time>2023-09-28T09:22:06Z</time>
      </trkpt>
      <trkpt lat="44.5782" lon="5.85415">
        <ele>937.1</ele>
        <time>2023-09-28T09:22:08Z</time>
      </trkpt>
      <trkpt lat="44.57825" lon="5.85413">
        <ele>937.3</ele>
        <time>2023-09-28T09:22:09Z</time>
      </trkpt>
      <trkpt lat="44.57829" lon="5.85412">
        <ele>937.4</ele>
        <time>2023-09-28T09:22:10Z</time>
      </trkpt>
      <trkpt lat="44.57833" lon="5.85411">
        <ele>937.5</ele>
        <time>2023-09-28T09:22:12Z</time>
      </trkpt>
      <trkpt lat="44.57837" lon="5.8541">
        <ele>937.6</ele>
        <time>2023-09-28T09:22:13Z</time>
      </trkpt>
      <trkpt lat="44.57841" lon="5.85409">
        <ele>937.8</ele>
        <time>2023-09-28T09:22:14Z</time>
      </trkpt>
      <trkpt lat="44.57846" lon="5.85409">
        <ele>937.9</ele>
        <time>2023-09-28T09:22:15Z</time>
      </trkpt>
      <trkpt lat="44.57849" lon="5.85409">
        <ele>938</ele>
        <time>2023-09-28T09:22:16Z</time>
      </trkpt>
      <trkpt lat="44.57853" lon="5.85409">
        <ele>938.1</ele>
        <time>2023-09-28T09:22:17Z</time>
      </trkpt>
      <trkpt lat="44.57857" lon="5.85409">
        <ele>938.2</ele>
        <time>2023-09-28T09:22:18Z</time>
      </trkpt>
      <trkpt lat="44.57861" lon="5.85409">
        <ele>938.4</ele>
        <time>2023-09-28T09:22:19Z</time>
      </trkpt>
      <trkpt lat="44.57867" lon="5.85409">
        <ele>938.6</ele>
        <time>2023-09-28T09:22:21Z</time>
      </trkpt>
      <trkpt lat="44.57872" lon="5.8541">
        <ele>938.8</ele>
        <time>2023-09-28T09:22:22Z</time>
      </trkpt>
      <trkpt lat="44.57878" lon="5.85412">
        <ele>939</ele>
        <time>2023-09-28T09:22:24Z</time>
      </trkpt>
      <trkpt lat="44.57882" lon="5.85413">
        <ele>939.1</ele>
        <time>2023-09-28T09:22:25Z</time>
      </trkpt>
      <trkpt lat="44.57886" lon="5.85414">
        <ele>939.2</ele>
        <time>2023-09-28T09:22:26Z</time>
      </trkpt>
      <trkpt lat="44.5789" lon="5.85416">
        <ele>939.4</ele>
        <time>2023-09-28T09:22:27Z</time>
      </trkpt>
      <trkpt lat="44.57896" lon="5.85419">
        <ele>939.6</ele>
        <time>2023-09-28T09:22:29Z</time>
      </trkpt>
      <trkpt lat="44.579" lon="5.85421">
        <ele>939.7</ele>
        <time>2023-09-28T09:22:30Z</time>
      </trkpt>
      <trkpt lat="44.57903" lon="5.85423">
        <ele>939.8</ele>
        <time>2023-09-28T09:22:31Z</time>
      </trkpt>
      <trkpt lat="44.57907" lon="5.85425">
        <ele>940</ele>
        <time>2023-09-28T09:22:32Z</time>
      </trkpt>
      <trkpt lat="44.57912" lon="5.85428">
        <ele>940.1</ele>
        <time>2023-09-28T09:22:34Z</time>
      </trkpt>
      <trkpt lat="44.57916" lon="5.85431">
        <ele>940.3</ele>
        <time>2023-09-28T09:22:35Z</time>
      </trkpt>
      <trkpt lat="44.5792" lon="5.85433">
        <ele>940.4</ele>
        <time>2023-09-28T09:22:36Z</time>
      </trkpt>
      <trkpt lat="44.57923" lon="5.85435">
        <ele>940.5</ele>
        <time>2023-09-28T09:22:37Z</time>
      </trkpt>
      <trkpt lat="44.57927" lon="5.85438">
        <ele>940.7</ele>
        <time>2023-09-28T09:22:38Z</time>
      </trkpt>
      <trkpt lat="44.5793" lon="5.85441">
        <ele>940.8</ele>
        <time>2023-09-28T09:22:39Z</time>
      </trkpt>
      <trkpt lat="44.57937" lon="5.85447">
        <ele>941</ele>
        <time>2023-09-28T09:22:41Z</time>
      </trkpt>
      <trkpt lat="44.57943" lon="5.85451">
        <ele>941.2</ele>
        <time>2023-09-28T09:22:43Z</time>
      </trkpt>
      <trkpt lat="44.57947" lon="5.85454">
        <ele>941.4</ele>
        <time>2023-09-28T09:22:45Z</time>
      </trkpt>
      <trkpt lat="44.57952" lon="5.85459">
        <ele>941.6</ele>
        <time>2023-09-28T09:22:46Z</time>
      </trkpt>
      <trkpt lat="44.57955" lon="5.85461">
        <ele>941.7</ele>
        <time>2023-09-28T09:22:47Z</time>
      </trkpt>
      <trkpt lat="44.57959" lon="5.85463">
        <ele>941.9</ele>
        <time>2023-09-28T09:22:48Z</time>
      </trkpt>
      <trkpt lat="44.57962" lon="5.85465">
        <ele>942</ele>
        <time>2023-09-28T09:22:50Z</time>
      </trkpt>
      <trkpt lat="44.57968" lon="5.85468">
        <ele>942.2</ele>
        <time>2023-09-28T09:22:51Z</time>
      </trkpt>
      <trkpt lat="44.57972" lon="5.85471">
        <ele>942.3</ele>
        <time>2023-09-28T09:22:52Z</time>
      </trkpt>
      <trkpt lat="44.57977" lon="5.85474">
        <ele>942.5</ele>
        <time>2023-09-28T09:22:54Z</time>
      </trkpt>
      <trkpt lat="44.57982" lon="5.85476">
        <ele>942.7</ele>
        <time>2023-09-28T09:22:55Z</time>
      </trkpt>
      <trkpt lat="44.57985" lon="5.85478">
        <ele>942.8</ele>
        <time>2023-09-28T09:22:56Z</time>
      </trkpt>
      <trkpt lat="44.57989" lon="5.8548">
        <ele>942.9</ele>
        <time>2023-09-28T09:22:57Z</time>
      </trkpt>
      <trkpt lat="44.57993" lon="5.85482">
        <ele>943.1</ele>
        <time>2023-09-28T09:22:59Z</time>
      </trkpt>
      <trkpt lat="44.57997" lon="5.85484">
        <ele>943.2</ele>
        <time>2023-09-28T09:23:00Z</time>
      </trkpt>
      <trkpt lat="44.58001" lon="5.85485">
        <ele>943.3</ele>
        <time>2023-09-28T09:23:01Z</time>
      </trkpt>
      <trkpt lat="44.58005" lon="5.85488">
        <ele>943.5</ele>
        <time>2023-09-28T09:23:02Z</time>
      </trkpt>
      <trkpt lat="44.5801" lon="5.85488">
        <ele>943.6</ele>
        <time>2023-09-28T09:23:03Z</time>
      </trkpt>
      <trkpt lat="44.58014" lon="5.85489">
        <ele>943.7</ele>
        <time>2023-09-28T09:23:04Z</time>
      </trkpt>
      <trkpt lat="44.58018" lon="5.8549">
        <ele>943.8</ele>
        <time>2023-09-28T09:23:05Z</time>
      </trkpt>
      <trkpt lat="44.58024" lon="5.85492">
        <ele>944</ele>
        <time>2023-09-28T09:23:07Z</time>
      </trkpt>
      <trkpt lat="44.58028" lon="5.85492">
        <ele>944.1</ele>
        <time>2023-09-28T09:23:08Z</time>
      </trkpt>
      <trkpt lat="44.58033" lon="5.85493">
        <ele>944.2</ele>
        <time>2023-09-28T09:23:09Z</time>
      </trkpt>
      <trkpt lat="44.5804" lon="5.85495">
        <ele>944.5</ele>
        <time>2023-09-28T09:23:11Z</time>
      </trkpt>
      <trkpt lat="44.58044" lon="5.85495">
        <ele>944.6</ele>
        <time>2023-09-28T09:23:12Z</time>
      </trkpt>
      <trkpt lat="44.58048" lon="5.85496">
        <ele>944.7</ele>
        <time>2023-09-28T09:23:13Z</time>
      </trkpt>
      <trkpt lat="44.58052" lon="5.85497">
        <ele>944.9</ele>
        <time>2023-09-28T09:23:14Z</time>
      </trkpt>
      <trkpt lat="44.58056" lon="5.85498">
        <ele>945</ele>
        <time>2023-09-28T09:23:16Z</time>
      </trkpt>
      <trkpt lat="44.5806" lon="5.85499">
        <ele>945.1</ele>
        <time>2023-09-28T09:23:17Z</time>
      </trkpt>
      <trkpt lat="44.58066" lon="5.855">
        <ele>945.3</ele>
        <time>2023-09-28T09:23:18Z</time>
      </trkpt>
      <trkpt lat="44.58069" lon="5.855">
        <ele>945.4</ele>
        <time>2023-09-28T09:23:19Z</time>
      </trkpt>
      <trkpt lat="44.58073" lon="5.85501">
        <ele>945.6</ele>
        <time>2023-09-28T09:23:20Z</time>
      </trkpt>
      <trkpt lat="44.58078" lon="5.85502">
        <ele>945.7</ele>
        <time>2023-09-28T09:23:21Z</time>
      </trkpt>
      <trkpt lat="44.58081" lon="5.85503">
        <ele>945.8</ele>
        <time>2023-09-28T09:23:22Z</time>
      </trkpt>
      <trkpt lat="44.58086" lon="5.85503">
        <ele>946</ele>
        <time>2023-09-28T09:23:23Z</time>
      </trkpt>
      <trkpt lat="44.58091" lon="5.85504">
        <ele>946.1</ele>
        <time>2023-09-28T09:23:25Z</time>
      </trkpt>
      <trkpt lat="44.58095" lon="5.85505">
        <ele>946.3</ele>
        <time>2023-09-28T09:23:26Z</time>
      </trkpt>
      <trkpt lat="44.58101" lon="5.85506">
        <ele>946.4</ele>
        <time>2023-09-28T09:23:27Z</time>
      </trkpt>
      <trkpt lat="44.58105" lon="5.85507">
        <ele>946.5</ele>
        <time>2023-09-28T09:23:28Z</time>
      </trkpt>
      <trkpt lat="44.58109" lon="5.85507">
        <ele>946.7</ele>
        <time>2023-09-28T09:23:29Z</time>
      </trkpt>
      <trkpt lat="44.58113" lon="5.85508">
        <ele>946.8</ele>
        <time>2023-09-28T09:23:30Z</time>
      </trkpt>
      <trkpt lat="44.58117" lon="5.85509">
        <ele>946.9</ele>
        <time>2023-09-28T09:23:31Z</time>
      </trkpt>
      <trkpt lat="44.58123" lon="5.8551">
        <ele>947</ele>
        <time>2023-09-28T09:23:33Z</time>
      </trkpt>
      <trkpt lat="44.58127" lon="5.85511">
        <ele>947.1</ele>
        <time>2023-09-28T09:23:34Z</time>
      </trkpt>
      <trkpt lat="44.58131" lon="5.85512">
        <ele>947.2</ele>
        <time>2023-09-28T09:23:35Z</time>
      </trkpt>
      <trkpt lat="44.58135" lon="5.85513">
        <ele>947.3</ele>
        <time>2023-09-28T09:23:36Z</time>
      </trkpt>
      <trkpt lat="44.58139" lon="5.85514">
        <ele>947.4</ele>
        <time>2023-09-28T09:23:37Z</time>
      </trkpt>
      <trkpt lat="44.58143" lon="5.85514">
        <ele>947.5</ele>
        <time>2023-09-28T09:23:38Z</time>
      </trkpt>
      <trkpt lat="44.58147" lon="5.85516">
        <ele>947.6</ele>
        <time>2023-09-28T09:23:39Z</time>
      </trkpt>
      <trkpt lat="44.58154" lon="5.85517">
        <ele>947.8</ele>
        <time>2023-09-28T09:23:41Z</time>
      </trkpt>
      <trkpt lat="44.58159" lon="5.85517">
        <ele>947.9</ele>
        <time>2023-09-28T09:23:42Z</time>
      </trkpt>
      <trkpt lat="44.58164" lon="5.85518">
        <ele>948.1</ele>
        <time>2023-09-28T09:23:43Z</time>
      </trkpt>
      <trkpt lat="44.58169" lon="5.85519">
        <ele>948.2</ele>
        <time>2023-09-28T09:23:44Z</time>
      </trkpt>
      <trkpt lat="44.58173" lon="5.8552">
        <ele>948.3</ele>
        <time>2023-09-28T09:23:46Z</time>
      </trkpt>
      <trkpt lat="44.58178" lon="5.85521">
        <ele>948.5</ele>
        <time>2023-09-28T09:23:47Z</time>
      </trkpt>
      <trkpt lat="44.58183" lon="5.85521">
        <ele>948.6</ele>
        <time>2023-09-28T09:23:48Z</time>
      </trkpt>
      <trkpt lat="44.58187" lon="5.85522">
        <ele>948.7</ele>
        <time>2023-09-28T09:23:49Z</time>
      </trkpt>
      <trkpt lat="44.58191" lon="5.85523">
        <ele>948.8</ele>
        <time>2023-09-28T09:23:50Z</time>
      </trkpt>
      <trkpt lat="44.58195" lon="5.85524">
        <ele>949</ele>
        <time>2023-09-28T09:23:51Z</time>
      </trkpt>
      <trkpt lat="44.58199" lon="5.85525">
        <ele>949.1</ele>
        <time>2023-09-28T09:23:52Z</time>
      </trkpt>
      <trkpt lat="44.58204" lon="5.85526">
        <ele>949.3</ele>
        <time>2023-09-28T09:23:54Z</time>
      </trkpt>
      <trkpt lat="44.58208" lon="5.85526">
        <ele>949.4</ele>
        <time>2023-09-28T09:23:55Z</time>
      </trkpt>
      <trkpt lat="44.58213" lon="5.85527">
        <ele>949.5</ele>
        <time>2023-09-28T09:23:56Z</time>
      </trkpt>
      <trkpt lat="44.58218" lon="5.85528">
        <ele>949.7</ele>
        <time>2023-09-28T09:23:57Z</time>
      </trkpt>
      <trkpt lat="44.58222" lon="5.85529">
        <ele>949.9</ele>
        <time>2023-09-28T09:23:58Z</time>
      </trkpt>
      <trkpt lat="44.58227" lon="5.8553">
        <ele>950</ele>
        <time>2023-09-28T09:23:59Z</time>
      </trkpt>
      <trkpt lat="44.5823" lon="5.85531">
        <ele>950.1</ele>
        <time>2023-09-28T09:24:00Z</time>
      </trkpt>
      <trkpt lat="44.58237" lon="5.85532">
        <ele>950.4</ele>
        <time>2023-09-28T09:24:02Z</time>
      </trkpt>
      <trkpt lat="44.58242" lon="5.85532">
        <ele>950.6</ele>
        <time>2023-09-28T09:24:03Z</time>
      </trkpt>
      <trkpt lat="44.58246" lon="5.85533">
        <ele>950.7</ele>
        <time>2023-09-28T09:24:04Z</time>
      </trkpt>
      <trkpt lat="44.5825" lon="5.85534">
        <ele>950.8</ele>
        <time>2023-09-28T09:24:05Z</time>
      </trkpt>
      <trkpt lat="44.58257" lon="5.85535">
        <ele>951.1</ele>
        <time>2023-09-28T09:24:07Z</time>
      </trkpt>
      <trkpt lat="44.58262" lon="5.85535">
        <ele>951.2</ele>
        <time>2023-09-28T09:24:08Z</time>
      </trkpt>
      <trkpt lat="44.58266" lon="5.85535">
        <ele>951.4</ele>
        <time>2023-09-28T09:24:09Z</time>
      </trkpt>
      <trkpt lat="44.58271" lon="5.85535">
        <ele>951.5</ele>
        <time>2023-09-28T09:24:10Z</time>
      </trkpt>
      <trkpt lat="44.58275" lon="5.85537">
        <ele>951.7</ele>
        <time>2023-09-28T09:24:12Z</time>
      </trkpt>
      <trkpt lat="44.58279" lon="5.8554">
        <ele>951.8</ele>
        <time>2023-09-28T09:24:13Z</time>
      </trkpt>
      <trkpt lat="44.58284" lon="5.85541">
        <ele>951.9</ele>
        <time>2023-09-28T09:24:14Z</time>
      </trkpt>
      <trkpt lat="44.58288" lon="5.8554">
        <ele>952.1</ele>
        <time>2023-09-28T09:24:15Z</time>
      </trkpt>
      <trkpt lat="44.58293" lon="5.85541">
        <ele>952.2</ele>
        <time>2023-09-28T09:24:16Z</time>
      </trkpt>
      <trkpt lat="44.58296" lon="5.85541">
        <ele>952.3</ele>
        <time>2023-09-28T09:24:17Z</time>
      </trkpt>
      <trkpt lat="44.583" lon="5.85542">
        <ele>952.5</ele>
        <time>2023-09-28T09:24:19Z</time>
      </trkpt>
      <trkpt lat="44.58306" lon="5.85543">
        <ele>952.7</ele>
        <time>2023-09-28T09:24:20Z</time>
      </trkpt>
      <trkpt lat="44.58309" lon="5.85544">
        <ele>952.8</ele>
        <time>2023-09-28T09:24:21Z</time>
      </trkpt>
      <trkpt lat="44.58312" lon="5.85545">
        <ele>952.9</ele>
        <time>2023-09-28T09:24:22Z</time>
      </trkpt>
      <trkpt lat="44.58317" lon="5.85546">
        <ele>953.1</ele>
        <time>2023-09-28T09:24:24Z</time>
      </trkpt>
      <trkpt lat="44.58321" lon="5.85547">
        <ele>953.2</ele>
        <time>2023-09-28T09:24:25Z</time>
      </trkpt>
      <trkpt lat="44.58325" lon="5.85547">
        <ele>953.4</ele>
        <time>2023-09-28T09:24:26Z</time>
      </trkpt>
      <trkpt lat="44.58329" lon="5.85548">
        <ele>953.5</ele>
        <time>2023-09-28T09:24:27Z</time>
      </trkpt>
      <trkpt lat="44.58331" lon="5.85548">
        <ele>953.6</ele>
        <time>2023-09-28T09:24:28Z</time>
      </trkpt>
      <trkpt lat="44.58334" lon="5.85549">
        <ele>953.7</ele>
        <time>2023-09-28T09:24:29Z</time>
      </trkpt>
      <trkpt lat="44.58338" lon="5.8555">
        <ele>953.8</ele>
        <time>2023-09-28T09:24:30Z</time>
      </trkpt>
      <trkpt lat="44.58342" lon="5.85551">
        <ele>953.9</ele>
        <time>2023-09-28T09:24:31Z</time>
      </trkpt>
      <trkpt lat="44.58347" lon="5.85551">
        <ele>954</ele>
        <time>2023-09-28T09:24:33Z</time>
      </trkpt>
      <trkpt lat="44.58353" lon="5.85553">
        <ele>954.2</ele>
        <time>2023-09-28T09:24:34Z</time>
      </trkpt>
      <trkpt lat="44.58361" lon="5.85553">
        <ele>954.4</ele>
        <time>2023-09-28T09:24:36Z</time>
      </trkpt>
      <trkpt lat="44.58366" lon="5.85554">
        <ele>954.5</ele>
        <time>2023-09-28T09:24:38Z</time>
      </trkpt>
      <trkpt lat="44.58371" lon="5.85555">
        <ele>954.7</ele>
        <time>2023-09-28T09:24:39Z</time>
      </trkpt>
      <trkpt lat="44.58375" lon="5.85557">
        <ele>954.8</ele>
        <time>2023-09-28T09:24:40Z</time>
      </trkpt>
      <trkpt lat="44.58379" lon="5.85558">
        <ele>955</ele>
        <time>2023-09-28T09:24:41Z</time>
      </trkpt>
      <trkpt lat="44.58383" lon="5.85558">
        <ele>955.1</ele>
        <time>2023-09-28T09:24:42Z</time>
      </trkpt>
      <trkpt lat="44.58387" lon="5.85559">
        <ele>955.3</ele>
        <time>2023-09-28T09:24:44Z</time>
      </trkpt>
      <trkpt lat="44.58395" lon="5.8556">
        <ele>955.5</ele>
        <time>2023-09-28T09:24:45Z</time>
      </trkpt>
      <trkpt lat="44.58401" lon="5.85562">
        <ele>955.7</ele>
        <time>2023-09-28T09:24:47Z</time>
      </trkpt>
      <trkpt lat="44.58405" lon="5.85563">
        <ele>955.8</ele>
        <time>2023-09-28T09:24:48Z</time>
      </trkpt>
      <trkpt lat="44.58408" lon="5.85563">
        <ele>955.9</ele>
        <time>2023-09-28T09:24:49Z</time>
      </trkpt>
      <trkpt lat="44.58412" lon="5.85564">
        <ele>956</ele>
        <time>2023-09-28T09:24:50Z</time>
      </trkpt>
      <trkpt lat="44.58416" lon="5.85565">
        <ele>956.2</ele>
        <time>2023-09-28T09:24:51Z</time>
      </trkpt>
      <trkpt lat="44.5842" lon="5.85566">
        <ele>956.3</ele>
        <time>2023-09-28T09:24:52Z</time>
      </trkpt>
      <trkpt lat="44.58424" lon="5.85566">
        <ele>956.4</ele>
        <time>2023-09-28T09:24:53Z</time>
      </trkpt>
      <trkpt lat="44.58428" lon="5.85567">
        <ele>956.6</ele>
        <time>2023-09-28T09:24:55Z</time>
      </trkpt>
      <trkpt lat="44.58434" lon="5.85568">
        <ele>956.8</ele>
        <time>2023-09-28T09:24:56Z</time>
      </trkpt>
      <trkpt lat="44.58438" lon="5.85568">
        <ele>956.9</ele>
        <time>2023-09-28T09:24:57Z</time>
      </trkpt>
      <trkpt lat="44.58442" lon="5.85568">
        <ele>957</ele>
        <time>2023-09-28T09:24:58Z</time>
      </trkpt>
      <trkpt lat="44.58447" lon="5.85569">
        <ele>957.2</ele>
        <time>2023-09-28T09:24:59Z</time>
      </trkpt>
      <trkpt lat="44.58451" lon="5.85571">
        <ele>957.3</ele>
        <time>2023-09-28T09:25:01Z</time>
      </trkpt>
      <trkpt lat="44.58456" lon="5.85573">
        <ele>957.5</ele>
        <time>2023-09-28T09:25:02Z</time>
      </trkpt>
      <trkpt lat="44.5846" lon="5.85574">
        <ele>957.7</ele>
        <time>2023-09-28T09:25:03Z</time>
      </trkpt>
      <trkpt lat="44.58467" lon="5.85575">
        <ele>957.9</ele>
        <time>2023-09-28T09:25:05Z</time>
      </trkpt>
      <trkpt lat="44.58471" lon="5.85575">
        <ele>958.1</ele>
        <time>2023-09-28T09:25:06Z</time>
      </trkpt>
      <trkpt lat="44.58475" lon="5.85576">
        <ele>958.2</ele>
        <time>2023-09-28T09:25:07Z</time>
      </trkpt>
      <trkpt lat="44.58479" lon="5.85576">
        <ele>958.3</ele>
        <time>2023-09-28T09:25:08Z</time>
      </trkpt>
      <trkpt lat="44.58483" lon="5.85577">
        <ele>958.5</ele>
        <time>2023-09-28T09:25:10Z</time>
      </trkpt>
      <trkpt lat="44.58489" lon="5.85578">
        <ele>958.7</ele>
        <time>2023-09-28T09:25:11Z</time>
      </trkpt>
      <trkpt lat="44.58493" lon="5.85579">
        <ele>958.8</ele>
        <time>2023-09-28T09:25:12Z</time>
      </trkpt>
      <trkpt lat="44.585" lon="5.8558">
        <ele>959.1</ele>
        <time>2023-09-28T09:25:14Z</time>
      </trkpt>
      <trkpt lat="44.58504" lon="5.85582">
        <ele>959.2</ele>
        <time>2023-09-28T09:25:15Z</time>
      </trkpt>
      <trkpt lat="44.58508" lon="5.85582">
        <ele>959.4</ele>
        <time>2023-09-28T09:25:16Z</time>
      </trkpt>
      <trkpt lat="44.58512" lon="5.85583">
        <ele>959.6</ele>
        <time>2023-09-28T09:25:17Z</time>
      </trkpt>
      <trkpt lat="44.58518" lon="5.85584">
        <ele>959.8</ele>
        <time>2023-09-28T09:25:19Z</time>
      </trkpt>
      <trkpt lat="44.58522" lon="5.85584">
        <ele>960</ele>
        <time>2023-09-28T09:25:20Z</time>
      </trkpt>
      <trkpt lat="44.58525" lon="5.85585">
        <ele>960.1</ele>
        <time>2023-09-28T09:25:21Z</time>
      </trkpt>
      <trkpt lat="44.58529" lon="5.85586">
        <ele>960.3</ele>
        <time>2023-09-28T09:25:22Z</time>
      </trkpt>
      <trkpt lat="44.58533" lon="5.85586">
        <ele>960.4</ele>
        <time>2023-09-28T09:25:23Z</time>
      </trkpt>
      <trkpt lat="44.58537" lon="5.85587">
        <ele>960.6</ele>
        <time>2023-09-28T09:25:25Z</time>
      </trkpt>
      <trkpt lat="44.58541" lon="5.85588">
        <ele>960.8</ele>
        <time>2023-09-28T09:25:26Z</time>
      </trkpt>
      <trkpt lat="44.58545" lon="5.85589">
        <ele>961</ele>
        <time>2023-09-28T09:25:27Z</time>
      </trkpt>
      <trkpt lat="44.58549" lon="5.85589">
        <ele>961.2</ele>
        <time>2023-09-28T09:25:28Z</time>
      </trkpt>
      <trkpt lat="44.58552" lon="5.8559">
        <ele>961.3</ele>
        <time>2023-09-28T09:25:29Z</time>
      </trkpt>
      <trkpt lat="44.58558" lon="5.85591">
        <ele>961.6</ele>
        <time>2023-09-28T09:25:31Z</time>
      </trkpt>
      <trkpt lat="44.58562" lon="5.85591">
        <ele>961.8</ele>
        <time>2023-09-28T09:25:32Z</time>
      </trkpt>
      <trkpt lat="44.58565" lon="5.85592">
        <ele>962</ele>
        <time>2023-09-28T09:25:33Z</time>
      </trkpt>
      <trkpt lat="44.58569" lon="5.85593">
        <ele>962.2</ele>
        <time>2023-09-28T09:25:34Z</time>
      </trkpt>
      <trkpt lat="44.58576" lon="5.85594">
        <ele>962.6</ele>
        <time>2023-09-28T09:25:36Z</time>
      </trkpt>
      <trkpt lat="44.58579" lon="5.85595">
        <ele>962.8</ele>
        <time>2023-09-28T09:25:37Z</time>
      </trkpt>
      <trkpt lat="44.58583" lon="5.85596">
        <ele>963.1</ele>
        <time>2023-09-28T09:25:39Z</time>
      </trkpt>
      <trkpt lat="44.58587" lon="5.85596">
        <ele>963.3</ele>
        <time>2023-09-28T09:25:40Z</time>
      </trkpt>
      <trkpt lat="44.58591" lon="5.85597">
        <ele>963.5</ele>
        <time>2023-09-28T09:25:41Z</time>
      </trkpt>
      <trkpt lat="44.58595" lon="5.85597">
        <ele>963.7</ele>
        <time>2023-09-28T09:25:42Z</time>
      </trkpt>
      <trkpt lat="44.58598" lon="5.85597">
        <ele>963.9</ele>
        <time>2023-09-28T09:25:43Z</time>
      </trkpt>
      <trkpt lat="44.58601" lon="5.85599">
        <ele>964.1</ele>
        <time>2023-09-28T09:25:44Z</time>
      </trkpt>
      <trkpt lat="44.58605" lon="5.856">
        <ele>964.3</ele>
        <time>2023-09-28T09:25:45Z</time>
      </trkpt>
      <trkpt lat="44.58609" lon="5.85601">
        <ele>964.4</ele>
        <time>2023-09-28T09:25:46Z</time>
      </trkpt>
      <trkpt lat="44.58612" lon="5.85601">
        <ele>964.6</ele>
        <time>2023-09-28T09:25:47Z</time>
      </trkpt>
      <trkpt lat="44.58616" lon="5.85602">
        <ele>964.8</ele>
        <time>2023-09-28T09:25:48Z</time>
      </trkpt>
      <trkpt lat="44.58622" lon="5.85603">
        <ele>965.1</ele>
        <time>2023-09-28T09:25:50Z</time>
      </trkpt>
      <trkpt lat="44.58625" lon="5.85604">
        <ele>965.3</ele>
        <time>2023-09-28T09:25:51Z</time>
      </trkpt>
      <trkpt lat="44.58629" lon="5.85605">
        <ele>965.6</ele>
        <time>2023-09-28T09:25:52Z</time>
      </trkpt>
      <trkpt lat="44.58633" lon="5.85606">
        <ele>965.8</ele>
        <time>2023-09-28T09:25:53Z</time>
      </trkpt>
      <trkpt lat="44.58637" lon="5.85606">
        <ele>966</ele>
        <time>2023-09-28T09:25:54Z</time>
      </trkpt>
      <trkpt lat="44.58643" lon="5.85607">
        <ele>966.3</ele>
        <time>2023-09-28T09:25:56Z</time>
      </trkpt>
      <trkpt lat="44.58647" lon="5.85608">
        <ele>966.5</ele>
        <time>2023-09-28T09:25:57Z</time>
      </trkpt>
      <trkpt lat="44.58651" lon="5.85609">
        <ele>966.7</ele>
        <time>2023-09-28T09:25:59Z</time>
      </trkpt>
      <trkpt lat="44.58654" lon="5.8561">
        <ele>966.9</ele>
        <time>2023-09-28T09:26:00Z</time>
      </trkpt>
      <trkpt lat="44.58658" lon="5.8561">
        <ele>967</ele>
        <time>2023-09-28T09:26:01Z</time>
      </trkpt>
      <trkpt lat="44.58662" lon="5.85611">
        <ele>967.2</ele>
        <time>2023-09-28T09:26:02Z</time>
      </trkpt>
      <trkpt lat="44.58667" lon="5.85611">
        <ele>967.4</ele>
        <time>2023-09-28T09:26:03Z</time>
      </trkpt>
      <trkpt lat="44.5867" lon="5.85611">
        <ele>967.5</ele>
        <time>2023-09-28T09:26:04Z</time>
      </trkpt>
      <trkpt lat="44.58673" lon="5.85612">
        <ele>967.7</ele>
        <time>2023-09-28T09:26:05Z</time>
      </trkpt>
      <trkpt lat="44.58676" lon="5.85612">
        <ele>967.8</ele>
        <time>2023-09-28T09:26:06Z</time>
      </trkpt>
      <trkpt lat="44.58681" lon="5.85613">
        <ele>967.9</ele>
        <time>2023-09-28T09:26:07Z</time>
      </trkpt>
      <trkpt lat="44.58685" lon="5.85613">
        <ele>968.1</ele>
        <time>2023-09-28T09:26:09Z</time>
      </trkpt>
      <trkpt lat="44.58689" lon="5.85613">
        <ele>968.2</ele>
        <time>2023-09-28T09:26:10Z</time>
      </trkpt>
      <trkpt lat="44.58693" lon="5.85614">
        <ele>968.3</ele>
        <time>2023-09-28T09:26:11Z</time>
      </trkpt>
      <trkpt lat="44.58697" lon="5.85614">
        <ele>968.4</ele>
        <time>2023-09-28T09:26:12Z</time>
      </trkpt>
      <trkpt lat="44.58701" lon="5.85614">
        <ele>968.5</ele>
        <time>2023-09-28T09:26:13Z</time>
      </trkpt>
      <trkpt lat="44.58704" lon="5.85614">
        <ele>968.6</ele>
        <time>2023-09-28T09:26:14Z</time>
      </trkpt>
      <trkpt lat="44.58708" lon="5.85615">
        <ele>968.7</ele>
        <time>2023-09-28T09:26:15Z</time>
      </trkpt>
      <trkpt lat="44.58712" lon="5.85615">
        <ele>968.8</ele>
        <time>2023-09-28T09:26:16Z</time>
      </trkpt>
      <trkpt lat="44.58717" lon="5.85614">
        <ele>968.9</ele>
        <time>2023-09-28T09:26:17Z</time>
      </trkpt>
      <trkpt lat="44.58721" lon="5.85614">
        <ele>969</ele>
        <time>2023-09-28T09:26:19Z</time>
      </trkpt>
      <trkpt lat="44.58725" lon="5.85614">
        <ele>969.1</ele>
        <time>2023-09-28T09:26:20Z</time>
      </trkpt>
      <trkpt lat="44.58729" lon="5.85615">
        <ele>969.1</ele>
        <time>2023-09-28T09:26:21Z</time>
      </trkpt>
      <trkpt lat="44.58733" lon="5.85614">
        <ele>969.2</ele>
        <time>2023-09-28T09:26:22Z</time>
      </trkpt>
      <trkpt lat="44.58737" lon="5.85614">
        <ele>969.3</ele>
        <time>2023-09-28T09:26:23Z</time>
      </trkpt>
      <trkpt lat="44.58742" lon="5.85614">
        <ele>969.4</ele>
        <time>2023-09-28T09:26:24Z</time>
      </trkpt>
      <trkpt lat="44.58746" lon="5.85614">
        <ele>969.4</ele>
        <time>2023-09-28T09:26:25Z</time>
      </trkpt>
      <trkpt lat="44.58752" lon="5.85613">
        <ele>969.6</ele>
        <time>2023-09-28T09:26:27Z</time>
      </trkpt>
      <trkpt lat="44.58757" lon="5.85612">
        <ele>969.7</ele>
        <time>2023-09-28T09:26:28Z</time>
      </trkpt>
      <trkpt lat="44.58761" lon="5.85612">
        <ele>969.7</ele>
        <time>2023-09-28T09:26:29Z</time>
      </trkpt>
      <trkpt lat="44.58766" lon="5.85611">
        <ele>969.8</ele>
        <time>2023-09-28T09:26:30Z</time>
      </trkpt>
      <trkpt lat="44.5877" lon="5.8561">
        <ele>969.9</ele>
        <time>2023-09-28T09:26:32Z</time>
      </trkpt>
      <trkpt lat="44.58776" lon="5.85609">
        <ele>970</ele>
        <time>2023-09-28T09:26:33Z</time>
      </trkpt>
      <trkpt lat="44.58782" lon="5.85608">
        <ele>970.1</ele>
        <time>2023-09-28T09:26:34Z</time>
      </trkpt>
      <trkpt lat="44.58788" lon="5.85607">
        <ele>970.1</ele>
        <time>2023-09-28T09:26:36Z</time>
      </trkpt>
      <trkpt lat="44.58793" lon="5.85606">
        <ele>970.2</ele>
        <time>2023-09-28T09:26:37Z</time>
      </trkpt>
      <trkpt lat="44.58798" lon="5.85604">
        <ele>970.3</ele>
        <time>2023-09-28T09:26:38Z</time>
      </trkpt>
      <trkpt lat="44.58802" lon="5.85604">
        <ele>970.3</ele>
        <time>2023-09-28T09:26:39Z</time>
      </trkpt>
      <trkpt lat="44.58806" lon="5.85603">
        <ele>970.4</ele>
        <time>2023-09-28T09:26:40Z</time>
      </trkpt>
      <trkpt lat="44.58811" lon="5.85602">
        <ele>970.4</ele>
        <time>2023-09-28T09:26:42Z</time>
      </trkpt>
      <trkpt lat="44.58816" lon="5.85601">
        <ele>970.5</ele>
        <time>2023-09-28T09:26:43Z</time>
      </trkpt>
      <trkpt lat="44.5882" lon="5.856">
        <ele>970.6</ele>
        <time>2023-09-28T09:26:44Z</time>
      </trkpt>
      <trkpt lat="44.58825" lon="5.85599">
        <ele>970.6</ele>
        <time>2023-09-28T09:26:45Z</time>
      </trkpt>
      <trkpt lat="44.58828" lon="5.85598">
        <ele>970.7</ele>
        <time>2023-09-28T09:26:46Z</time>
      </trkpt>
      <trkpt lat="44.58832" lon="5.85597">
        <ele>970.8</ele>
        <time>2023-09-28T09:26:47Z</time>
      </trkpt>
      <trkpt lat="44.58836" lon="5.85597">
        <ele>970.9</ele>
        <time>2023-09-28T09:26:48Z</time>
      </trkpt>
      <trkpt lat="44.58839" lon="5.85595">
        <ele>971</ele>
        <time>2023-09-28T09:26:50Z</time>
      </trkpt>
      <trkpt lat="44.58843" lon="5.85595">
        <ele>971</ele>
        <time>2023-09-28T09:26:51Z</time>
      </trkpt>
      <trkpt lat="44.58848" lon="5.85594">
        <ele>971.2</ele>
        <time>2023-09-28T09:26:52Z</time>
      </trkpt>
      <trkpt lat="44.5885" lon="5.85594">
        <ele>971.3</ele>
        <time>2023-09-28T09:26:53Z</time>
      </trkpt>
      <trkpt lat="44.58853" lon="5.85593">
        <ele>971.4</ele>
        <time>2023-09-28T09:26:55Z</time>
      </trkpt>
      <trkpt lat="44.58857" lon="5.85593">
        <ele>971.5</ele>
        <time>2023-09-28T09:26:56Z</time>
      </trkpt>
      <trkpt lat="44.58858" lon="5.85593">
        <ele>971.5</ele>
        <time>2023-09-28T09:26:57Z</time>
      </trkpt>
      <trkpt lat="44.58862" lon="5.85592">
        <ele>971.6</ele>
        <time>2023-09-28T09:26:58Z</time>
      </trkpt>
      <trkpt lat="44.58864" lon="5.8559">
        <ele>971.7</ele>
        <time>2023-09-28T09:26:59Z</time>
      </trkpt>
      <trkpt lat="44.58867" lon="5.8559">
        <ele>971.8</ele>
        <time>2023-09-28T09:27:01Z</time>
      </trkpt>
      <trkpt lat="44.5887" lon="5.85589">
        <ele>971.9</ele>
        <time>2023-09-28T09:27:02Z</time>
      </trkpt>
      <trkpt lat="44.58871" lon="5.85589">
        <ele>971.9</ele>
        <time>2023-09-28T09:27:03Z</time>
      </trkpt>
      <trkpt lat="44.58873" lon="5.85588">
        <ele>972</ele>
        <time>2023-09-28T09:27:04Z</time>
      </trkpt>
      <trkpt lat="44.58876" lon="5.85587">
        <ele>972.1</ele>
        <time>2023-09-28T09:27:06Z</time>
      </trkpt>
      <trkpt lat="44.5888" lon="5.85585">
        <ele>972.3</ele>
        <time>2023-09-28T09:27:07Z</time>
      </trkpt>
      <trkpt lat="44.58884" lon="5.85584">
        <ele>972.4</ele>
        <time>2023-09-28T09:27:08Z</time>
      </trkpt>
      <trkpt lat="44.58887" lon="5.85583">
        <ele>972.5</ele>
        <time>2023-09-28T09:27:10Z</time>
      </trkpt>
      <trkpt lat="44.58891" lon="5.85582">
        <ele>972.6</ele>
        <time>2023-09-28T09:27:11Z</time>
      </trkpt>
      <trkpt lat="44.58895" lon="5.85581">
        <ele>972.8</ele>
        <time>2023-09-28T09:27:12Z</time>
      </trkpt>
      <trkpt lat="44.58899" lon="5.85581">
        <ele>972.9</ele>
        <time>2023-09-28T09:27:13Z</time>
      </trkpt>
      <trkpt lat="44.58902" lon="5.85581">
        <ele>973</ele>
        <time>2023-09-28T09:27:14Z</time>
      </trkpt>
      <trkpt lat="44.58906" lon="5.85581">
        <ele>973.1</ele>
        <time>2023-09-28T09:27:15Z</time>
      </trkpt>
      <trkpt lat="44.58909" lon="5.8558">
        <ele>973.2</ele>
        <time>2023-09-28T09:27:16Z</time>
      </trkpt>
      <trkpt lat="44.58914" lon="5.85579">
        <ele>973.3</ele>
        <time>2023-09-28T09:27:18Z</time>
      </trkpt>
      <trkpt lat="44.58917" lon="5.85578">
        <ele>973.4</ele>
        <time>2023-09-28T09:27:19Z</time>
      </trkpt>
      <trkpt lat="44.58921" lon="5.85577">
        <ele>973.5</ele>
        <time>2023-09-28T09:27:20Z</time>
      </trkpt>
      <trkpt lat="44.58926" lon="5.85576">
        <ele>973.7</ele>
        <time>2023-09-28T09:27:21Z</time>
      </trkpt>
      <trkpt lat="44.58929" lon="5.85575">
        <ele>973.8</ele>
        <time>2023-09-28T09:27:22Z</time>
      </trkpt>
      <trkpt lat="44.58933" lon="5.85575">
        <ele>973.9</ele>
        <time>2023-09-28T09:27:23Z</time>
      </trkpt>
      <trkpt lat="44.58937" lon="5.85574">
        <ele>974</ele>
        <time>2023-09-28T09:27:24Z</time>
      </trkpt>
      <trkpt lat="44.58941" lon="5.85573">
        <ele>974.1</ele>
        <time>2023-09-28T09:27:25Z</time>
      </trkpt>
      <trkpt lat="44.58945" lon="5.85572">
        <ele>974.2</ele>
        <time>2023-09-28T09:27:27Z</time>
      </trkpt>
      <trkpt lat="44.58952" lon="5.85571">
        <ele>974.4</ele>
        <time>2023-09-28T09:27:28Z</time>
      </trkpt>
      <trkpt lat="44.58957" lon="5.8557">
        <ele>974.5</ele>
        <time>2023-09-28T09:27:30Z</time>
      </trkpt>
      <trkpt lat="44.58961" lon="5.8557">
        <ele>974.6</ele>
        <time>2023-09-28T09:27:31Z</time>
      </trkpt>
      <trkpt lat="44.58965" lon="5.85569">
        <ele>974.7</ele>
        <time>2023-09-28T09:27:32Z</time>
      </trkpt>
      <trkpt lat="44.58968" lon="5.85568">
        <ele>974.8</ele>
        <time>2023-09-28T09:27:33Z</time>
      </trkpt>
      <trkpt lat="44.58972" lon="5.85567">
        <ele>974.9</ele>
        <time>2023-09-28T09:27:34Z</time>
      </trkpt>
      <trkpt lat="44.58976" lon="5.85567">
        <ele>975</ele>
        <time>2023-09-28T09:27:35Z</time>
      </trkpt>
      <trkpt lat="44.5898" lon="5.85566">
        <ele>975.1</ele>
        <time>2023-09-28T09:27:36Z</time>
      </trkpt>
      <trkpt lat="44.58984" lon="5.85565">
        <ele>975.2</ele>
        <time>2023-09-28T09:27:37Z</time>
      </trkpt>
      <trkpt lat="44.58988" lon="5.85564">
        <ele>975.4</ele>
        <time>2023-09-28T09:27:39Z</time>
      </trkpt>
      <trkpt lat="44.58993" lon="5.85563">
        <ele>975.5</ele>
        <time>2023-09-28T09:27:40Z</time>
      </trkpt>
      <trkpt lat="44.58997" lon="5.85561">
        <ele>975.6</ele>
        <time>2023-09-28T09:27:41Z</time>
      </trkpt>
      <trkpt lat="44.59001" lon="5.8556">
        <ele>975.7</ele>
        <time>2023-09-28T09:27:42Z</time>
      </trkpt>
      <trkpt lat="44.59004" lon="5.85559">
        <ele>975.8</ele>
        <time>2023-09-28T09:27:43Z</time>
      </trkpt>
      <trkpt lat="44.59008" lon="5.85559">
        <ele>975.9</ele>
        <time>2023-09-28T09:27:44Z</time>
      </trkpt>
      <trkpt lat="44.59012" lon="5.85559">
        <ele>976.1</ele>
        <time>2023-09-28T09:27:45Z</time>
      </trkpt>
      <trkpt lat="44.59016" lon="5.8556">
        <ele>976.2</ele>
        <time>2023-09-28T09:27:46Z</time>
      </trkpt>
      <trkpt lat="44.5902" lon="5.85559">
        <ele>976.3</ele>
        <time>2023-09-28T09:27:48Z</time>
      </trkpt>
      <trkpt lat="44.59024" lon="5.85559">
        <ele>976.5</ele>
        <time>2023-09-28T09:27:49Z</time>
      </trkpt>
      <trkpt lat="44.59028" lon="5.85558">
        <ele>976.6</ele>
        <time>2023-09-28T09:27:50Z</time>
      </trkpt>
      <trkpt lat="44.59031" lon="5.85557">
        <ele>976.7</ele>
        <time>2023-09-28T09:27:51Z</time>
      </trkpt>
      <trkpt lat="44.59036" lon="5.85556">
        <ele>976.8</ele>
        <time>2023-09-28T09:27:52Z</time>
      </trkpt>
      <trkpt lat="44.5904" lon="5.85555">
        <ele>977</ele>
        <time>2023-09-28T09:27:53Z</time>
      </trkpt>
      <trkpt lat="44.59044" lon="5.85555">
        <ele>977.1</ele>
        <time>2023-09-28T09:27:54Z</time>
      </trkpt>
      <trkpt lat="44.59047" lon="5.85554">
        <ele>977.2</ele>
        <time>2023-09-28T09:27:55Z</time>
      </trkpt>
      <trkpt lat="44.59051" lon="5.85553">
        <ele>977.3</ele>
        <time>2023-09-28T09:27:57Z</time>
      </trkpt>
      <trkpt lat="44.59056" lon="5.85552">
        <ele>977.5</ele>
        <time>2023-09-28T09:27:58Z</time>
      </trkpt>
      <trkpt lat="44.5906" lon="5.85551">
        <ele>977.6</ele>
        <time>2023-09-28T09:27:59Z</time>
      </trkpt>
      <trkpt lat="44.59063" lon="5.85551">
        <ele>977.7</ele>
        <time>2023-09-28T09:28:00Z</time>
      </trkpt>
      <trkpt lat="44.59068" lon="5.8555">
        <ele>977.9</ele>
        <time>2023-09-28T09:28:02Z</time>
      </trkpt>
      <trkpt lat="44.59074" lon="5.85548">
        <ele>978</ele>
        <time>2023-09-28T09:28:03Z</time>
      </trkpt>
      <trkpt lat="44.59078" lon="5.85547">
        <ele>978.2</ele>
        <time>2023-09-28T09:28:04Z</time>
      </trkpt>
      <trkpt lat="44.59082" lon="5.85547">
        <ele>978.3</ele>
        <time>2023-09-28T09:28:05Z</time>
      </trkpt>
      <trkpt lat="44.59086" lon="5.85546">
        <ele>978.4</ele>
        <time>2023-09-28T09:28:07Z</time>
      </trkpt>
      <trkpt lat="44.5909" lon="5.85545">
        <ele>978.6</ele>
        <time>2023-09-28T09:28:08Z</time>
      </trkpt>
      <trkpt lat="44.59094" lon="5.85544">
        <ele>978.7</ele>
        <time>2023-09-28T09:28:09Z</time>
      </trkpt>
      <trkpt lat="44.59098" lon="5.85543">
        <ele>978.8</ele>
        <time>2023-09-28T09:28:10Z</time>
      </trkpt>
      <trkpt lat="44.59102" lon="5.85543">
        <ele>979</ele>
        <time>2023-09-28T09:28:11Z</time>
      </trkpt>
      <trkpt lat="44.59107" lon="5.85542">
        <ele>979.1</ele>
        <time>2023-09-28T09:28:12Z</time>
      </trkpt>
      <trkpt lat="44.59111" lon="5.85541">
        <ele>979.2</ele>
        <time>2023-09-28T09:28:14Z</time>
      </trkpt>
      <trkpt lat="44.59116" lon="5.8554">
        <ele>979.4</ele>
        <time>2023-09-28T09:28:15Z</time>
      </trkpt>
      <trkpt lat="44.5912" lon="5.85539">
        <ele>979.5</ele>
        <time>2023-09-28T09:28:16Z</time>
      </trkpt>
      <trkpt lat="44.59124" lon="5.85538">
        <ele>979.6</ele>
        <time>2023-09-28T09:28:17Z</time>
      </trkpt>
      <trkpt lat="44.59128" lon="5.85538">
        <ele>979.7</ele>
        <time>2023-09-28T09:28:18Z</time>
      </trkpt>
      <trkpt lat="44.59134" lon="5.85537">
        <ele>979.9</ele>
        <time>2023-09-28T09:28:20Z</time>
      </trkpt>
      <trkpt lat="44.59138" lon="5.85536">
        <ele>980</ele>
        <time>2023-09-28T09:28:21Z</time>
      </trkpt>
      <trkpt lat="44.59141" lon="5.85535">
        <ele>980.1</ele>
        <time>2023-09-28T09:28:22Z</time>
      </trkpt>
      <trkpt lat="44.59148" lon="5.85534">
        <ele>980.3</ele>
        <time>2023-09-28T09:28:24Z</time>
      </trkpt>
      <trkpt lat="44.59152" lon="5.85534">
        <ele>980.4</ele>
        <time>2023-09-28T09:28:25Z</time>
      </trkpt>
      <trkpt lat="44.59156" lon="5.85533">
        <ele>980.6</ele>
        <time>2023-09-28T09:28:26Z</time>
      </trkpt>
      <trkpt lat="44.59159" lon="5.85532">
        <ele>980.7</ele>
        <time>2023-09-28T09:28:27Z</time>
      </trkpt>
      <trkpt lat="44.59164" lon="5.85532">
        <ele>980.8</ele>
        <time>2023-09-28T09:28:29Z</time>
      </trkpt>
      <trkpt lat="44.59168" lon="5.85531">
        <ele>980.9</ele>
        <time>2023-09-28T09:28:30Z</time>
      </trkpt>
      <trkpt lat="44.59172" lon="5.85531">
        <ele>981.1</ele>
        <time>2023-09-28T09:28:31Z</time>
      </trkpt>
      <trkpt lat="44.59177" lon="5.85531">
        <ele>981.2</ele>
        <time>2023-09-28T09:28:32Z</time>
      </trkpt>
      <trkpt lat="44.5918" lon="5.8553">
        <ele>981.3</ele>
        <time>2023-09-28T09:28:33Z</time>
      </trkpt>
      <trkpt lat="44.59184" lon="5.8553">
        <ele>981.4</ele>
        <time>2023-09-28T09:28:34Z</time>
      </trkpt>
      <trkpt lat="44.59187" lon="5.85529">
        <ele>981.5</ele>
        <time>2023-09-28T09:28:35Z</time>
      </trkpt>
      <trkpt lat="44.59191" lon="5.85529">
        <ele>981.6</ele>
        <time>2023-09-28T09:28:36Z</time>
      </trkpt>
      <trkpt lat="44.59196" lon="5.8553">
        <ele>981.7</ele>
        <time>2023-09-28T09:28:38Z</time>
      </trkpt>
      <trkpt lat="44.592" lon="5.8553">
        <ele>981.9</ele>
        <time>2023-09-28T09:28:39Z</time>
      </trkpt>
      <trkpt lat="44.59205" lon="5.8553">
        <ele>982</ele>
        <time>2023-09-28T09:28:40Z</time>
      </trkpt>
      <trkpt lat="44.59208" lon="5.85531">
        <ele>982.1</ele>
        <time>2023-09-28T09:28:41Z</time>
      </trkpt>
      <trkpt lat="44.59212" lon="5.85531">
        <ele>982.3</ele>
        <time>2023-09-28T09:28:42Z</time>
      </trkpt>
      <trkpt lat="44.59215" lon="5.85531">
        <ele>982.4</ele>
        <time>2023-09-28T09:28:43Z</time>
      </trkpt>
      <trkpt lat="44.59219" lon="5.85532">
        <ele>982.6</ele>
        <time>2023-09-28T09:28:44Z</time>
      </trkpt>
      <trkpt lat="44.59223" lon="5.85533">
        <ele>982.7</ele>
        <time>2023-09-28T09:28:45Z</time>
      </trkpt>
      <trkpt lat="44.59226" lon="5.85534">
        <ele>982.8</ele>
        <time>2023-09-28T09:28:46Z</time>
      </trkpt>
      <trkpt lat="44.59233" lon="5.85536">
        <ele>983</ele>
        <time>2023-09-28T09:28:48Z</time>
      </trkpt>
      <trkpt lat="44.59236" lon="5.85537">
        <ele>983.2</ele>
        <time>2023-09-28T09:28:49Z</time>
      </trkpt>
      <trkpt lat="44.5924" lon="5.85539">
        <ele>983.3</ele>
        <time>2023-09-28T09:28:50Z</time>
      </trkpt>
      <trkpt lat="44.59245" lon="5.8554">
        <ele>983.5</ele>
        <time>2023-09-28T09:28:52Z</time>
      </trkpt>
      <trkpt lat="44.59249" lon="5.85543">
        <ele>983.7</ele>
        <time>2023-09-28T09:28:53Z</time>
      </trkpt>
      <trkpt lat="44.59252" lon="5.85545">
        <ele>983.8</ele>
        <time>2023-09-28T09:28:54Z</time>
      </trkpt>
      <trkpt lat="44.59256" lon="5.85547">
        <ele>983.9</ele>
        <time>2023-09-28T09:28:55Z</time>
      </trkpt>
      <trkpt lat="44.59259" lon="5.85549">
        <ele>984.1</ele>
        <time>2023-09-28T09:28:56Z</time>
      </trkpt>
      <trkpt lat="44.59263" lon="5.85551">
        <ele>984.2</ele>
        <time>2023-09-28T09:28:57Z</time>
      </trkpt>
      <trkpt lat="44.59266" lon="5.85554">
        <ele>984.4</ele>
        <time>2023-09-28T09:28:58Z</time>
      </trkpt>
      <trkpt lat="44.5927" lon="5.85556">
        <ele>984.5</ele>
        <time>2023-09-28T09:28:59Z</time>
      </trkpt>
      <trkpt lat="44.59273" lon="5.85558">
        <ele>984.6</ele>
        <time>2023-09-28T09:29:01Z</time>
      </trkpt>
      <trkpt lat="44.59278" lon="5.85562">
        <ele>984.8</ele>
        <time>2023-09-28T09:29:02Z</time>
      </trkpt>
      <trkpt lat="44.59281" lon="5.85566">
        <ele>985</ele>
        <time>2023-09-28T09:29:03Z</time>
      </trkpt>
      <trkpt lat="44.59284" lon="5.85569">
        <ele>985.1</ele>
        <time>2023-09-28T09:29:04Z</time>
      </trkpt>
      <trkpt lat="44.59288" lon="5.85572">
        <ele>985.3</ele>
        <time>2023-09-28T09:29:06Z</time>
      </trkpt>
      <trkpt lat="44.59292" lon="5.85576">
        <ele>985.4</ele>
        <time>2023-09-28T09:29:07Z</time>
      </trkpt>
      <trkpt lat="44.59295" lon="5.8558">
        <ele>985.6</ele>
        <time>2023-09-28T09:29:08Z</time>
      </trkpt>
      <trkpt lat="44.59298" lon="5.85583">
        <ele>985.7</ele>
        <time>2023-09-28T09:29:09Z</time>
      </trkpt>
      <trkpt lat="44.59301" lon="5.85587">
        <ele>985.8</ele>
        <time>2023-09-28T09:29:10Z</time>
      </trkpt>
      <trkpt lat="44.59304" lon="5.8559">
        <ele>986</ele>
        <time>2023-09-28T09:29:11Z</time>
      </trkpt>
      <trkpt lat="44.59307" lon="5.85594">
        <ele>986.1</ele>
        <time>2023-09-28T09:29:12Z</time>
      </trkpt>
      <trkpt lat="44.5931" lon="5.85598">
        <ele>986.2</ele>
        <time>2023-09-28T09:29:14Z</time>
      </trkpt>
      <trkpt lat="44.59315" lon="5.85603">
        <ele>986.5</ele>
        <time>2023-09-28T09:29:15Z</time>
      </trkpt>
      <trkpt lat="44.59318" lon="5.85607">
        <ele>986.6</ele>
        <time>2023-09-28T09:29:17Z</time>
      </trkpt>
      <trkpt lat="44.5932" lon="5.8561">
        <ele>986.7</ele>
        <time>2023-09-28T09:29:18Z</time>
      </trkpt>
      <trkpt lat="44.59324" lon="5.85614">
        <ele>986.9</ele>
        <time>2023-09-28T09:29:19Z</time>
      </trkpt>
      <trkpt lat="44.59326" lon="5.85618">
        <ele>987</ele>
        <time>2023-09-28T09:29:20Z</time>
      </trkpt>
      <trkpt lat="44.59329" lon="5.85622">
        <ele>987.2</ele>
        <time>2023-09-28T09:29:21Z</time>
      </trkpt>
      <trkpt lat="44.59332" lon="5.85626">
        <ele>987.3</ele>
        <time>2023-09-28T09:29:22Z</time>
      </trkpt>
      <trkpt lat="44.59334" lon="5.85629">
        <ele>987.4</ele>
        <time>2023-09-28T09:29:23Z</time>
      </trkpt>
      <trkpt lat="44.59337" lon="5.85633">
        <ele>987.6</ele>
        <time>2023-09-28T09:29:24Z</time>
      </trkpt>
      <trkpt lat="44.5934" lon="5.85637">
        <ele>987.7</ele>
        <time>2023-09-28T09:29:25Z</time>
      </trkpt>
      <trkpt lat="44.59343" lon="5.85641">
        <ele>987.9</ele>
        <time>2023-09-28T09:29:27Z</time>
      </trkpt>
      <trkpt lat="44.59346" lon="5.85645">
        <ele>988</ele>
        <time>2023-09-28T09:29:28Z</time>
      </trkpt>
      <trkpt lat="44.59349" lon="5.85649">
        <ele>988.2</ele>
        <time>2023-09-28T09:29:29Z</time>
      </trkpt>
      <trkpt lat="44.59351" lon="5.85653">
        <ele>988.3</ele>
        <time>2023-09-28T09:29:30Z</time>
      </trkpt>
      <trkpt lat="44.59354" lon="5.85656">
        <ele>988.4</ele>
        <time>2023-09-28T09:29:31Z</time>
      </trkpt>
      <trkpt lat="44.59357" lon="5.8566">
        <ele>988.5</ele>
        <time>2023-09-28T09:29:32Z</time>
      </trkpt>
      <trkpt lat="44.59359" lon="5.85664">
        <ele>988.7</ele>
        <time>2023-09-28T09:29:33Z</time>
      </trkpt>
      <trkpt lat="44.59362" lon="5.85668">
        <ele>988.8</ele>
        <time>2023-09-28T09:29:35Z</time>
      </trkpt>
      <trkpt lat="44.59365" lon="5.85671">
        <ele>989</ele>
        <time>2023-09-28T09:29:36Z</time>
      </trkpt>
      <trkpt lat="44.59369" lon="5.85676">
        <ele>989.1</ele>
        <time>2023-09-28T09:29:37Z</time>
      </trkpt>
      <trkpt lat="44.59372" lon="5.85681">
        <ele>989.3</ele>
        <time>2023-09-28T09:29:39Z</time>
      </trkpt>
      <trkpt lat="44.59376" lon="5.85686">
        <ele>989.5</ele>
        <time>2023-09-28T09:29:40Z</time>
      </trkpt>
      <trkpt lat="44.59379" lon="5.8569">
        <ele>989.7</ele>
        <time>2023-09-28T09:29:41Z</time>
      </trkpt>
      <trkpt lat="44.59381" lon="5.85693">
        <ele>989.8</ele>
        <time>2023-09-28T09:29:42Z</time>
      </trkpt>
      <trkpt lat="44.59384" lon="5.85697">
        <ele>989.9</ele>
        <time>2023-09-28T09:29:43Z</time>
      </trkpt>
      <trkpt lat="44.59387" lon="5.85701">
        <ele>990.1</ele>
        <time>2023-09-28T09:29:44Z</time>
      </trkpt>
      <trkpt lat="44.5939" lon="5.85705">
        <ele>990.2</ele>
        <time>2023-09-28T09:29:46Z</time>
      </trkpt>
      <trkpt lat="44.59393" lon="5.85708">
        <ele>990.3</ele>
        <time>2023-09-28T09:29:47Z</time>
      </trkpt>
      <trkpt lat="44.59395" lon="5.85713">
        <ele>990.5</ele>
        <time>2023-09-28T09:29:48Z</time>
      </trkpt>
      <trkpt lat="44.59398" lon="5.85716">
        <ele>990.6</ele>
        <time>2023-09-28T09:29:49Z</time>
      </trkpt>
      <trkpt lat="44.59401" lon="5.85719">
        <ele>990.7</ele>
        <time>2023-09-28T09:29:50Z</time>
      </trkpt>
      <trkpt lat="44.59404" lon="5.85723">
        <ele>990.9</ele>
        <time>2023-09-28T09:29:51Z</time>
      </trkpt>
      <trkpt lat="44.59406" lon="5.85726">
        <ele>991</ele>
        <time>2023-09-28T09:29:52Z</time>
      </trkpt>
      <trkpt lat="44.59409" lon="5.8573">
        <ele>991.1</ele>
        <time>2023-09-28T09:29:53Z</time>
      </trkpt>
      <trkpt lat="44.59412" lon="5.85734">
        <ele>991.2</ele>
        <time>2023-09-28T09:29:55Z</time>
      </trkpt>
      <trkpt lat="44.59415" lon="5.85738">
        <ele>991.4</ele>
        <time>2023-09-28T09:29:56Z</time>
      </trkpt>
      <trkpt lat="44.59417" lon="5.85741">
        <ele>991.5</ele>
        <time>2023-09-28T09:29:57Z</time>
      </trkpt>
      <trkpt lat="44.5942" lon="5.85744">
        <ele>991.6</ele>
        <time>2023-09-28T09:29:58Z</time>
      </trkpt>
      <trkpt lat="44.59423" lon="5.85747">
        <ele>991.7</ele>
        <time>2023-09-28T09:29:59Z</time>
      </trkpt>
      <trkpt lat="44.59425" lon="5.8575">
        <ele>991.9</ele>
        <time>2023-09-28T09:30:00Z</time>
      </trkpt>
      <trkpt lat="44.59428" lon="5.85753">
        <ele>992</ele>
        <time>2023-09-28T09:30:01Z</time>
      </trkpt>
      <trkpt lat="44.59431" lon="5.85757">
        <ele>992.1</ele>
        <time>2023-09-28T09:30:02Z</time>
      </trkpt>
      <trkpt lat="44.59434" lon="5.8576">
        <ele>992.3</ele>
        <time>2023-09-28T09:30:03Z</time>
      </trkpt>
      <trkpt lat="44.59437" lon="5.85764">
        <ele>992.4</ele>
        <time>2023-09-28T09:30:05Z</time>
      </trkpt>
      <trkpt lat="44.5944" lon="5.85767">
        <ele>992.6</ele>
        <time>2023-09-28T09:30:06Z</time>
      </trkpt>
      <trkpt lat="44.59443" lon="5.8577">
        <ele>992.8</ele>
        <time>2023-09-28T09:30:07Z</time>
      </trkpt>
      <trkpt lat="44.59446" lon="5.85772">
        <ele>992.9</ele>
        <time>2023-09-28T09:30:08Z</time>
      </trkpt>
      <trkpt lat="44.5945" lon="5.85776">
        <ele>993</ele>
        <time>2023-09-28T09:30:09Z</time>
      </trkpt>
      <trkpt lat="44.59453" lon="5.85779">
        <ele>993.2</ele>
        <time>2023-09-28T09:30:10Z</time>
      </trkpt>
      <trkpt lat="44.59456" lon="5.85781">
        <ele>993.3</ele>
        <time>2023-09-28T09:30:11Z</time>
      </trkpt>
      <trkpt lat="44.59461" lon="5.85786">
        <ele>993.5</ele>
        <time>2023-09-28T09:30:13Z</time>
      </trkpt>
      <trkpt lat="44.59465" lon="5.85789">
        <ele>993.6</ele>
        <time>2023-09-28T09:30:14Z</time>
      </trkpt>
      <trkpt lat="44.59468" lon="5.85791">
        <ele>993.7</ele>
        <time>2023-09-28T09:30:15Z</time>
      </trkpt>
      <trkpt lat="44.59471" lon="5.85793">
        <ele>993.8</ele>
        <time>2023-09-28T09:30:16Z</time>
      </trkpt>
      <trkpt lat="44.59474" lon="5.85795">
        <ele>993.9</ele>
        <time>2023-09-28T09:30:17Z</time>
      </trkpt>
      <trkpt lat="44.59478" lon="5.85798">
        <ele>994.1</ele>
        <time>2023-09-28T09:30:19Z</time>
      </trkpt>
      <trkpt lat="44.59482" lon="5.858">
        <ele>994.2</ele>
        <time>2023-09-28T09:30:20Z</time>
      </trkpt>
      <trkpt lat="44.59487" lon="5.85803">
        <ele>994.4</ele>
        <time>2023-09-28T09:30:21Z</time>
      </trkpt>
      <trkpt lat="44.59491" lon="5.85805">
        <ele>994.5</ele>
        <time>2023-09-28T09:30:22Z</time>
      </trkpt>
      <trkpt lat="44.59494" lon="5.85807">
        <ele>994.6</ele>
        <time>2023-09-28T09:30:23Z</time>
      </trkpt>
      <trkpt lat="44.595" lon="5.85809">
        <ele>994.8</ele>
        <time>2023-09-28T09:30:25Z</time>
      </trkpt>
      <trkpt lat="44.59504" lon="5.8581">
        <ele>994.9</ele>
        <time>2023-09-28T09:30:26Z</time>
      </trkpt>
      <trkpt lat="44.59507" lon="5.85811">
        <ele>995</ele>
        <time>2023-09-28T09:30:27Z</time>
      </trkpt>
      <trkpt lat="44.59512" lon="5.85812">
        <ele>995.1</ele>
        <time>2023-09-28T09:30:29Z</time>
      </trkpt>
      <trkpt lat="44.59515" lon="5.85814">
        <ele>995.3</ele>
        <time>2023-09-28T09:30:30Z</time>
      </trkpt>
      <trkpt lat="44.59519" lon="5.85815">
        <ele>995.4</ele>
        <time>2023-09-28T09:30:31Z</time>
      </trkpt>
      <trkpt lat="44.59523" lon="5.85815">
        <ele>995.5</ele>
        <time>2023-09-28T09:30:32Z</time>
      </trkpt>
      <trkpt lat="44.59527" lon="5.85816">
        <ele>995.6</ele>
        <time>2023-09-28T09:30:33Z</time>
      </trkpt>
      <trkpt lat="44.59531" lon="5.85816">
        <ele>995.7</ele>
        <time>2023-09-28T09:30:34Z</time>
      </trkpt>
      <trkpt lat="44.59535" lon="5.85817">
        <ele>995.8</ele>
        <time>2023-09-28T09:30:35Z</time>
      </trkpt>
      <trkpt lat="44.59538" lon="5.85817">
        <ele>995.9</ele>
        <time>2023-09-28T09:30:36Z</time>
      </trkpt>
      <trkpt lat="44.59542" lon="5.85817">
        <ele>996</ele>
        <time>2023-09-28T09:30:37Z</time>
      </trkpt>
      <trkpt lat="44.59547" lon="5.85817">
        <ele>996.2</ele>
        <time>2023-09-28T09:30:39Z</time>
      </trkpt>
      <trkpt lat="44.59551" lon="5.85817">
        <ele>996.3</ele>
        <time>2023-09-28T09:30:40Z</time>
      </trkpt>
      <trkpt lat="44.59555" lon="5.85817">
        <ele>996.4</ele>
        <time>2023-09-28T09:30:41Z</time>
      </trkpt>
      <trkpt lat="44.59559" lon="5.85817">
        <ele>996.5</ele>
        <time>2023-09-28T09:30:42Z</time>
      </trkpt>
      <trkpt lat="44.59562" lon="5.85817">
        <ele>996.6</ele>
        <time>2023-09-28T09:30:43Z</time>
      </trkpt>
      <trkpt lat="44.59566" lon="5.85817">
        <ele>996.8</ele>
        <time>2023-09-28T09:30:44Z</time>
      </trkpt>
      <trkpt lat="44.59571" lon="5.85816">
        <ele>996.9</ele>
        <time>2023-09-28T09:30:46Z</time>
      </trkpt>
      <trkpt lat="44.59574" lon="5.85816">
        <ele>997</ele>
        <time>2023-09-28T09:30:47Z</time>
      </trkpt>
      <trkpt lat="44.5958" lon="5.85815">
        <ele>997.1</ele>
        <time>2023-09-28T09:30:48Z</time>
      </trkpt>
      <trkpt lat="44.59583" lon="5.85816">
        <ele>997.2</ele>
        <time>2023-09-28T09:30:49Z</time>
      </trkpt>
      <trkpt lat="44.59588" lon="5.85815">
        <ele>997.4</ele>
        <time>2023-09-28T09:30:51Z</time>
      </trkpt>
      <trkpt lat="44.59592" lon="5.85815">
        <ele>997.5</ele>
        <time>2023-09-28T09:30:52Z</time>
      </trkpt>
      <trkpt lat="44.59596" lon="5.85815">
        <ele>997.6</ele>
        <time>2023-09-28T09:30:53Z</time>
      </trkpt>
      <trkpt lat="44.59599" lon="5.85815">
        <ele>997.7</ele>
        <time>2023-09-28T09:30:54Z</time>
      </trkpt>
      <trkpt lat="44.59602" lon="5.85815">
        <ele>997.8</ele>
        <time>2023-09-28T09:30:55Z</time>
      </trkpt>
      <trkpt lat="44.59606" lon="5.85815">
        <ele>997.9</ele>
        <time>2023-09-28T09:30:56Z</time>
      </trkpt>
      <trkpt lat="44.5961" lon="5.85814">
        <ele>998</ele>
        <time>2023-09-28T09:30:58Z</time>
      </trkpt>
      <trkpt lat="44.59616" lon="5.85814">
        <ele>998.2</ele>
        <time>2023-09-28T09:30:59Z</time>
      </trkpt>
      <trkpt lat="44.59619" lon="5.85814">
        <ele>998.3</ele>
        <time>2023-09-28T09:31:00Z</time>
      </trkpt>
      <trkpt lat="44.59623" lon="5.85814">
        <ele>998.4</ele>
        <time>2023-09-28T09:31:01Z</time>
      </trkpt>
      <trkpt lat="44.59628" lon="5.85814">
        <ele>998.6</ele>
        <time>2023-09-28T09:31:03Z</time>
      </trkpt>
      <trkpt lat="44.59633" lon="5.85814">
        <ele>998.7</ele>
        <time>2023-09-28T09:31:04Z</time>
      </trkpt>
      <trkpt lat="44.59636" lon="5.85813">
        <ele>998.8</ele>
        <time>2023-09-28T09:31:05Z</time>
      </trkpt>
      <trkpt lat="44.59639" lon="5.85814">
        <ele>998.9</ele>
        <time>2023-09-28T09:31:06Z</time>
      </trkpt>
      <trkpt lat="44.59643" lon="5.85813">
        <ele>999.1</ele>
        <time>2023-09-28T09:31:07Z</time>
      </trkpt>
      <trkpt lat="44.59648" lon="5.85813">
        <ele>999.2</ele>
        <time>2023-09-28T09:31:09Z</time>
      </trkpt>
      <trkpt lat="44.5965" lon="5.85813">
        <ele>999.3</ele>
        <time>2023-09-28T09:31:10Z</time>
      </trkpt>
      <trkpt lat="44.59655" lon="5.85813">
        <ele>999.4</ele>
        <time>2023-09-28T09:31:11Z</time>
      </trkpt>
      <trkpt lat="44.59659" lon="5.85813">
        <ele>999.5</ele>
        <time>2023-09-28T09:31:12Z</time>
      </trkpt>
      <trkpt lat="44.59662" lon="5.85812">
        <ele>999.6</ele>
        <time>2023-09-28T09:31:13Z</time>
      </trkpt>
      <trkpt lat="44.59666" lon="5.85812">
        <ele>999.7</ele>
        <time>2023-09-28T09:31:14Z</time>
      </trkpt>
      <trkpt lat="44.59669" lon="5.85812">
        <ele>999.8</ele>
        <time>2023-09-28T09:31:15Z</time>
      </trkpt>
      <trkpt lat="44.59673" lon="5.85812">
        <ele>999.9</ele>
        <time>2023-09-28T09:31:16Z</time>
      </trkpt>
      <trkpt lat="44.59676" lon="5.85811">
        <ele>1000</ele>
        <time>2023-09-28T09:31:17Z</time>
      </trkpt>
      <trkpt lat="44.59681" lon="5.85811">
        <ele>1000.2</ele>
        <time>2023-09-28T09:31:19Z</time>
      </trkpt>
      <trkpt lat="44.59685" lon="5.85811">
        <ele>1000.3</ele>
        <time>2023-09-28T09:31:20Z</time>
      </trkpt>
      <trkpt lat="44.59688" lon="5.85811">
        <ele>1000.4</ele>
        <time>2023-09-28T09:31:21Z</time>
      </trkpt>
      <trkpt lat="44.59692" lon="5.85811">
        <ele>1000.5</ele>
        <time>2023-09-28T09:31:22Z</time>
      </trkpt>
      <trkpt lat="44.59696" lon="5.8581">
        <ele>1000.6</ele>
        <time>2023-09-28T09:31:23Z</time>
      </trkpt>
      <trkpt lat="44.597" lon="5.8581">
        <ele>1000.7</ele>
        <time>2023-09-28T09:31:24Z</time>
      </trkpt>
      <trkpt lat="44.59704" lon="5.8581">
        <ele>1000.8</ele>
        <time>2023-09-28T09:31:25Z</time>
      </trkpt>
      <trkpt lat="44.59708" lon="5.8581">
        <ele>1001</ele>
        <time>2023-09-28T09:31:26Z</time>
      </trkpt>
      <trkpt lat="44.59713" lon="5.85809">
        <ele>1001.1</ele>
        <time>2023-09-28T09:31:28Z</time>
      </trkpt>
      <trkpt lat="44.59717" lon="5.85809">
        <ele>1001.2</ele>
        <time>2023-09-28T09:31:29Z</time>
      </trkpt>
      <trkpt lat="44.5972" lon="5.85809">
        <ele>1001.4</ele>
        <time>2023-09-28T09:31:30Z</time>
      </trkpt>
      <trkpt lat="44.59724" lon="5.85809">
        <ele>1001.5</ele>
        <time>2023-09-28T09:31:31Z</time>
      </trkpt>
      <trkpt lat="44.59728" lon="5.85809">
        <ele>1001.6</ele>
        <time>2023-09-28T09:31:32Z</time>
      </trkpt>
      <trkpt lat="44.59732" lon="5.85809">
        <ele>1001.7</ele>
        <time>2023-09-28T09:31:33Z</time>
      </trkpt>
      <trkpt lat="44.59736" lon="5.85808">
        <ele>1001.9</ele>
        <time>2023-09-28T09:31:34Z</time>
      </trkpt>
      <trkpt lat="44.59742" lon="5.85808">
        <ele>1002</ele>
        <time>2023-09-28T09:31:36Z</time>
      </trkpt>
      <trkpt lat="44.59747" lon="5.85808">
        <ele>1002.2</ele>
        <time>2023-09-28T09:31:37Z</time>
      </trkpt>
      <trkpt lat="44.5975" lon="5.85807">
        <ele>1002.3</ele>
        <time>2023-09-28T09:31:38Z</time>
      </trkpt>
      <trkpt lat="44.59755" lon="5.85807">
        <ele>1002.4</ele>
        <time>2023-09-28T09:31:40Z</time>
      </trkpt>
      <trkpt lat="44.59758" lon="5.85807">
        <ele>1002.5</ele>
        <time>2023-09-28T09:31:41Z</time>
      </trkpt>
      <trkpt lat="44.59762" lon="5.85807">
        <ele>1002.6</ele>
        <time>2023-09-28T09:31:42Z</time>
      </trkpt>
      <trkpt lat="44.59766" lon="5.85807">
        <ele>1002.8</ele>
        <time>2023-09-28T09:31:43Z</time>
      </trkpt>
      <trkpt lat="44.5977" lon="5.85807">
        <ele>1002.9</ele>
        <time>2023-09-28T09:31:44Z</time>
      </trkpt>
      <trkpt lat="44.59774" lon="5.85807">
        <ele>1003</ele>
        <time>2023-09-28T09:31:45Z</time>
      </trkpt>
      <trkpt lat="44.59777" lon="5.85806">
        <ele>1003.1</ele>
        <time>2023-09-28T09:31:46Z</time>
      </trkpt>
      <trkpt lat="44.59782" lon="5.85806">
        <ele>1003.2</ele>
        <time>2023-09-28T09:31:47Z</time>
      </trkpt>
      <trkpt lat="44.59785" lon="5.85806">
        <ele>1003.3</ele>
        <time>2023-09-28T09:31:48Z</time>
      </trkpt>
      <trkpt lat="44.59789" lon="5.85806">
        <ele>1003.5</ele>
        <time>2023-09-28T09:31:50Z</time>
      </trkpt>
      <trkpt lat="44.59794" lon="5.85806">
        <ele>1003.6</ele>
        <time>2023-09-28T09:31:51Z</time>
      </trkpt>
      <trkpt lat="44.59798" lon="5.85805">
        <ele>1003.8</ele>
        <time>2023-09-28T09:31:52Z</time>
      </trkpt>
      <trkpt lat="44.59802" lon="5.85805">
        <ele>1003.9</ele>
        <time>2023-09-28T09:31:53Z</time>
      </trkpt>
      <trkpt lat="44.59807" lon="5.85805">
        <ele>1004.1</ele>
        <time>2023-09-28T09:31:55Z</time>
      </trkpt>
      <trkpt lat="44.59812" lon="5.85805">
        <ele>1004.2</ele>
        <time>2023-09-28T09:31:56Z</time>
      </trkpt>
      <trkpt lat="44.59816" lon="5.85805">
        <ele>1004.3</ele>
        <time>2023-09-28T09:31:57Z</time>
      </trkpt>
      <trkpt lat="44.59823" lon="5.85805">
        <ele>1004.6</ele>
        <time>2023-09-28T09:31:59Z</time>
      </trkpt>
      <trkpt lat="44.59828" lon="5.85805">
        <ele>1004.7</ele>
        <time>2023-09-28T09:32:01Z</time>
      </trkpt>
      <trkpt lat="44.59832" lon="5.85804">
        <ele>1004.8</ele>
        <time>2023-09-28T09:32:02Z</time>
      </trkpt>
      <trkpt lat="44.59835" lon="5.85804">
        <ele>1004.9</ele>
        <time>2023-09-28T09:32:03Z</time>
      </trkpt>
      <trkpt lat="44.59839" lon="5.85804">
        <ele>1005</ele>
        <time>2023-09-28T09:32:04Z</time>
      </trkpt>
      <trkpt lat="44.59843" lon="5.85803">
        <ele>1005.1</ele>
        <time>2023-09-28T09:32:05Z</time>
      </trkpt>
      <trkpt lat="44.59847" lon="5.85803">
        <ele>1005.2</ele>
        <time>2023-09-28T09:32:06Z</time>
      </trkpt>
      <trkpt lat="44.59851" lon="5.85804">
        <ele>1005.3</ele>
        <time>2023-09-28T09:32:08Z</time>
      </trkpt>
      <trkpt lat="44.59856" lon="5.85803">
        <ele>1005.4</ele>
        <time>2023-09-28T09:32:09Z</time>
      </trkpt>
      <trkpt lat="44.5986" lon="5.85804">
        <ele>1005.5</ele>
        <time>2023-09-28T09:32:10Z</time>
      </trkpt>
      <trkpt lat="44.59863" lon="5.85803">
        <ele>1005.6</ele>
        <time>2023-09-28T09:32:11Z</time>
      </trkpt>
      <trkpt lat="44.59867" lon="5.85803">
        <ele>1005.7</ele>
        <time>2023-09-28T09:32:12Z</time>
      </trkpt>
      <trkpt lat="44.59871" lon="5.85803">
        <ele>1005.8</ele>
        <time>2023-09-28T09:32:13Z</time>
      </trkpt>
      <trkpt lat="44.59876" lon="5.85802">
        <ele>1006</ele>
        <time>2023-09-28T09:32:15Z</time>
      </trkpt>
      <trkpt lat="44.59879" lon="5.85802">
        <ele>1006</ele>
        <time>2023-09-28T09:32:16Z</time>
      </trkpt>
      <trkpt lat="44.59884" lon="5.85802">
        <ele>1006.2</ele>
        <time>2023-09-28T09:32:17Z</time>
      </trkpt>
      <trkpt lat="44.59887" lon="5.85802">
        <ele>1006.3</ele>
        <time>2023-09-28T09:32:18Z</time>
      </trkpt>
      <trkpt lat="44.59891" lon="5.85802">
        <ele>1006.4</ele>
        <time>2023-09-28T09:32:19Z</time>
      </trkpt>
      <trkpt lat="44.59895" lon="5.85802">
        <ele>1006.5</ele>
        <time>2023-09-28T09:32:20Z</time>
      </trkpt>
      <trkpt lat="44.59899" lon="5.85802">
        <ele>1006.7</ele>
        <time>2023-09-28T09:32:21Z</time>
      </trkpt>
      <trkpt lat="44.59903" lon="5.85802">
        <ele>1006.8</ele>
        <time>2023-09-28T09:32:22Z</time>
      </trkpt>
      <trkpt lat="44.59907" lon="5.85802">
        <ele>1006.9</ele>
        <time>2023-09-28T09:32:23Z</time>
      </trkpt>
      <trkpt lat="44.59913" lon="5.85802">
        <ele>1007.1</ele>
        <time>2023-09-28T09:32:25Z</time>
      </trkpt>
      <trkpt lat="44.59917" lon="5.85801">
        <ele>1007.2</ele>
        <time>2023-09-28T09:32:26Z</time>
      </trkpt>
      <trkpt lat="44.5992" lon="5.85801">
        <ele>1007.3</ele>
        <time>2023-09-28T09:32:27Z</time>
      </trkpt>
      <trkpt lat="44.59928" lon="5.85802">
        <ele>1007.5</ele>
        <time>2023-09-28T09:32:29Z</time>
      </trkpt>
      <trkpt lat="44.59933" lon="5.85801">
        <ele>1007.6</ele>
        <time>2023-09-28T09:32:31Z</time>
      </trkpt>
      <trkpt lat="44.59937" lon="5.85801">
        <ele>1007.7</ele>
        <time>2023-09-28T09:32:32Z</time>
      </trkpt>
      <trkpt lat="44.59941" lon="5.85801">
        <ele>1007.8</ele>
        <time>2023-09-28T09:32:33Z</time>
      </trkpt>
      <trkpt lat="44.59945" lon="5.858">
        <ele>1007.9</ele>
        <time>2023-09-28T09:32:34Z</time>
      </trkpt>
      <trkpt lat="44.59949" lon="5.85801">
        <ele>1008</ele>
        <time>2023-09-28T09:32:35Z</time>
      </trkpt>
      <trkpt lat="44.59953" lon="5.85801">
        <ele>1008.1</ele>
        <time>2023-09-28T09:32:36Z</time>
      </trkpt>
      <trkpt lat="44.5996" lon="5.85801">
        <ele>1008.3</ele>
        <time>2023-09-28T09:32:38Z</time>
      </trkpt>
      <trkpt lat="44.59963" lon="5.85801">
        <ele>1008.3</ele>
        <time>2023-09-28T09:32:39Z</time>
      </trkpt>
      <trkpt lat="44.59967" lon="5.858">
        <ele>1008.4</ele>
        <time>2023-09-28T09:32:40Z</time>
      </trkpt>
      <trkpt lat="44.59971" lon="5.858">
        <ele>1008.5</ele>
        <time>2023-09-28T09:32:41Z</time>
      </trkpt>
      <trkpt lat="44.59978" lon="5.85801">
        <ele>1008.7</ele>
        <time>2023-09-28T09:32:43Z</time>
      </trkpt>
      <trkpt lat="44.59982" lon="5.85801">
        <ele>1008.8</ele>
        <time>2023-09-28T09:32:45Z</time>
      </trkpt>
      <trkpt lat="44.59986" lon="5.85801">
        <ele>1008.9</ele>
        <time>2023-09-28T09:32:46Z</time>
      </trkpt>
      <trkpt lat="44.5999" lon="5.858">
        <ele>1009</ele>
        <time>2023-09-28T09:32:47Z</time>
      </trkpt>
      <trkpt lat="44.59994" lon="5.85801">
        <ele>1009.1</ele>
        <time>2023-09-28T09:32:48Z</time>
      </trkpt>
      <trkpt lat="44.59998" lon="5.858">
        <ele>1009.2</ele>
        <time>2023-09-28T09:32:49Z</time>
      </trkpt>
      <trkpt lat="44.60002" lon="5.858">
        <ele>1009.3</ele>
        <time>2023-09-28T09:32:50Z</time>
      </trkpt>
      <trkpt lat="44.60005" lon="5.858">
        <ele>1009.4</ele>
        <time>2023-09-28T09:32:51Z</time>
      </trkpt>
      <trkpt lat="44.6001" lon="5.85801">
        <ele>1009.5</ele>
        <time>2023-09-28T09:32:52Z</time>
      </trkpt>
      <trkpt lat="44.60014" lon="5.85801">
        <ele>1009.6</ele>
        <time>2023-09-28T09:32:54Z</time>
      </trkpt>
      <trkpt lat="44.60018" lon="5.858">
        <ele>1009.7</ele>
        <time>2023-09-28T09:32:55Z</time>
      </trkpt>
      <trkpt lat="44.60022" lon="5.858">
        <ele>1009.8</ele>
        <time>2023-09-28T09:32:56Z</time>
      </trkpt>
      <trkpt lat="44.60027" lon="5.858">
        <ele>1010</ele>
        <time>2023-09-28T09:32:57Z</time>
      </trkpt>
      <trkpt lat="44.6003" lon="5.858">
        <ele>1010.1</ele>
        <time>2023-09-28T09:32:58Z</time>
      </trkpt>
      <trkpt lat="44.60034" lon="5.858">
        <ele>1010.2</ele>
        <time>2023-09-28T09:32:59Z</time>
      </trkpt>
      <trkpt lat="44.60038" lon="5.858">
        <ele>1010.4</ele>
        <time>2023-09-28T09:33:01Z</time>
      </trkpt>
      <trkpt lat="44.60044" lon="5.858">
        <ele>1010.5</ele>
        <time>2023-09-28T09:33:02Z</time>
      </trkpt>
      <trkpt lat="44.60048" lon="5.858">
        <ele>1010.7</ele>
        <time>2023-09-28T09:33:03Z</time>
      </trkpt>
      <trkpt lat="44.60052" lon="5.85799">
        <ele>1010.8</ele>
        <time>2023-09-28T09:33:04Z</time>
      </trkpt>
      <trkpt lat="44.60056" lon="5.85799">
        <ele>1010.9</ele>
        <time>2023-09-28T09:33:05Z</time>
      </trkpt>
      <trkpt lat="44.60061" lon="5.85799">
        <ele>1011.1</ele>
        <time>2023-09-28T09:33:07Z</time>
      </trkpt>
      <trkpt lat="44.60065" lon="5.85798">
        <ele>1011.2</ele>
        <time>2023-09-28T09:33:08Z</time>
      </trkpt>
      <trkpt lat="44.60069" lon="5.85797">
        <ele>1011.4</ele>
        <time>2023-09-28T09:33:09Z</time>
      </trkpt>
      <trkpt lat="44.60073" lon="5.85797">
        <ele>1011.5</ele>
        <time>2023-09-28T09:33:10Z</time>
      </trkpt>
      <trkpt lat="44.60077" lon="5.85797">
        <ele>1011.7</ele>
        <time>2023-09-28T09:33:11Z</time>
      </trkpt>
      <trkpt lat="44.6008" lon="5.85798">
        <ele>1011.8</ele>
        <time>2023-09-28T09:33:12Z</time>
      </trkpt>
      <trkpt lat="44.60084" lon="5.85799">
        <ele>1012</ele>
        <time>2023-09-28T09:33:13Z</time>
      </trkpt>
      <trkpt lat="44.60087" lon="5.858">
        <ele>1012.1</ele>
        <time>2023-09-28T09:33:14Z</time>
      </trkpt>
      <trkpt lat="44.60091" lon="5.858">
        <ele>1012.2</ele>
        <time>2023-09-28T09:33:15Z</time>
      </trkpt>
      <trkpt lat="44.60095" lon="5.85801">
        <ele>1012.4</ele>
        <time>2023-09-28T09:33:17Z</time>
      </trkpt>
      <trkpt lat="44.60099" lon="5.85801">
        <ele>1012.6</ele>
        <time>2023-09-28T09:33:18Z</time>
      </trkpt>
      <trkpt lat="44.60103" lon="5.85802">
        <ele>1012.8</ele>
        <time>2023-09-28T09:33:19Z</time>
      </trkpt>
      <trkpt lat="44.60106" lon="5.85801">
        <ele>1012.9</ele>
        <time>2023-09-28T09:33:20Z</time>
      </trkpt>
      <trkpt lat="44.6011" lon="5.85801">
        <ele>1013.1</ele>
        <time>2023-09-28T09:33:21Z</time>
      </trkpt>
      <trkpt lat="44.60113" lon="5.85801">
        <ele>1013.3</ele>
        <time>2023-09-28T09:33:22Z</time>
      </trkpt>
      <trkpt lat="44.60117" lon="5.85801">
        <ele>1013.5</ele>
        <time>2023-09-28T09:33:24Z</time>
      </trkpt>
      <trkpt lat="44.60121" lon="5.85801">
        <ele>1013.6</ele>
        <time>2023-09-28T09:33:25Z</time>
      </trkpt>
      <trkpt lat="44.60125" lon="5.85801">
        <ele>1013.8</ele>
        <time>2023-09-28T09:33:26Z</time>
      </trkpt>
      <trkpt lat="44.60129" lon="5.85801">
        <ele>1014</ele>
        <time>2023-09-28T09:33:27Z</time>
      </trkpt>
      <trkpt lat="44.60132" lon="5.85801">
        <ele>1014.1</ele>
        <time>2023-09-28T09:33:28Z</time>
      </trkpt>
      <trkpt lat="44.60135" lon="5.85801">
        <ele>1014.3</ele>
        <time>2023-09-28T09:33:29Z</time>
      </trkpt>
      <trkpt lat="44.60138" lon="5.85802">
        <ele>1014.4</ele>
        <time>2023-09-28T09:33:30Z</time>
      </trkpt>
      <trkpt lat="44.60142" lon="5.85801">
        <ele>1014.6</ele>
        <time>2023-09-28T09:33:32Z</time>
      </trkpt>
      <trkpt lat="44.60145" lon="5.85801">
        <ele>1014.8</ele>
        <time>2023-09-28T09:33:33Z</time>
      </trkpt>
      <trkpt lat="44.60148" lon="5.85801">
        <ele>1015</ele>
        <time>2023-09-28T09:33:34Z</time>
      </trkpt>
      <trkpt lat="44.60152" lon="5.85801">
        <ele>1015.2</ele>
        <time>2023-09-28T09:33:35Z</time>
      </trkpt>
      <trkpt lat="44.60155" lon="5.85801">
        <ele>1015.4</ele>
        <time>2023-09-28T09:33:36Z</time>
      </trkpt>
      <trkpt lat="44.60158" lon="5.858">
        <ele>1015.6</ele>
        <time>2023-09-28T09:33:37Z</time>
      </trkpt>
      <trkpt lat="44.60162" lon="5.85801">
        <ele>1015.9</ele>
        <time>2023-09-28T09:33:38Z</time>
      </trkpt>
      <trkpt lat="44.60165" lon="5.85801">
        <ele>1016.1</ele>
        <time>2023-09-28T09:33:39Z</time>
      </trkpt>
      <trkpt lat="44.6017" lon="5.858">
        <ele>1016.4</ele>
        <time>2023-09-28T09:33:41Z</time>
      </trkpt>
      <trkpt lat="44.60174" lon="5.85799">
        <ele>1016.6</ele>
        <time>2023-09-28T09:33:42Z</time>
      </trkpt>
      <trkpt lat="44.60178" lon="5.85799">
        <ele>1016.9</ele>
        <time>2023-09-28T09:33:43Z</time>
      </trkpt>
      <trkpt lat="44.6018" lon="5.85799">
        <ele>1017</ele>
        <time>2023-09-28T09:33:44Z</time>
      </trkpt>
      <trkpt lat="44.60186" lon="5.858">
        <ele>1017.4</ele>
        <time>2023-09-28T09:33:46Z</time>
      </trkpt>
      <trkpt lat="44.60189" lon="5.85801">
        <ele>1017.6</ele>
        <time>2023-09-28T09:33:47Z</time>
      </trkpt>
      <trkpt lat="44.60192" lon="5.85801">
        <ele>1017.8</ele>
        <time>2023-09-28T09:33:48Z</time>
      </trkpt>
      <trkpt lat="44.60196" lon="5.85799">
        <ele>1018</ele>
        <time>2023-09-28T09:33:49Z</time>
      </trkpt>
      <trkpt lat="44.60199" lon="5.85799">
        <ele>1018.2</ele>
        <time>2023-09-28T09:33:50Z</time>
      </trkpt>
      <trkpt lat="44.60202" lon="5.85799">
        <ele>1018.4</ele>
        <time>2023-09-28T09:33:52Z</time>
      </trkpt>
      <trkpt lat="44.60206" lon="5.85799">
        <ele>1018.7</ele>
        <time>2023-09-28T09:33:53Z</time>
      </trkpt>
      <trkpt lat="44.60209" lon="5.85799">
        <ele>1018.9</ele>
        <time>2023-09-28T09:33:54Z</time>
      </trkpt>
      <trkpt lat="44.60212" lon="5.85798">
        <ele>1019.2</ele>
        <time>2023-09-28T09:33:55Z</time>
      </trkpt>
      <trkpt lat="44.60215" lon="5.85797">
        <ele>1019.4</ele>
        <time>2023-09-28T09:33:56Z</time>
      </trkpt>
      <trkpt lat="44.60218" lon="5.85796">
        <ele>1019.6</ele>
        <time>2023-09-28T09:33:57Z</time>
      </trkpt>
      <trkpt lat="44.60222" lon="5.85797">
        <ele>1019.8</ele>
        <time>2023-09-28T09:33:58Z</time>
      </trkpt>
      <trkpt lat="44.60228" lon="5.85797">
        <ele>1020.2</ele>
        <time>2023-09-28T09:34:00Z</time>
      </trkpt>
      <trkpt lat="44.60232" lon="5.85797">
        <ele>1020.5</ele>
        <time>2023-09-28T09:34:02Z</time>
      </trkpt>
      <trkpt lat="44.60235" lon="5.85796">
        <ele>1020.7</ele>
        <time>2023-09-28T09:34:03Z</time>
      </trkpt>
      <trkpt lat="44.60239" lon="5.85796">
        <ele>1021</ele>
        <time>2023-09-28T09:34:04Z</time>
      </trkpt>
      <trkpt lat="44.60241" lon="5.85795">
        <ele>1021.1</ele>
        <time>2023-09-28T09:34:05Z</time>
      </trkpt>
      <trkpt lat="44.60244" lon="5.85797">
        <ele>1021.3</ele>
        <time>2023-09-28T09:34:06Z</time>
      </trkpt>
      <trkpt lat="44.60247" lon="5.85797">
        <ele>1021.6</ele>
        <time>2023-09-28T09:34:07Z</time>
      </trkpt>
      <trkpt lat="44.60251" lon="5.85798">
        <ele>1021.8</ele>
        <time>2023-09-28T09:34:09Z</time>
      </trkpt>
      <trkpt lat="44.60254" lon="5.85799">
        <ele>1022.1</ele>
        <time>2023-09-28T09:34:10Z</time>
      </trkpt>
      <trkpt lat="44.60257" lon="5.85799">
        <ele>1022.3</ele>
        <time>2023-09-28T09:34:11Z</time>
      </trkpt>
      <trkpt lat="44.60261" lon="5.85798">
        <ele>1022.6</ele>
        <time>2023-09-28T09:34:12Z</time>
      </trkpt>
      <trkpt lat="44.60264" lon="5.85798">
        <ele>1022.8</ele>
        <time>2023-09-28T09:34:13Z</time>
      </trkpt>
      <trkpt lat="44.60267" lon="5.85797">
        <ele>1023.1</ele>
        <time>2023-09-28T09:34:14Z</time>
      </trkpt>
      <trkpt lat="44.60271" lon="5.85797">
        <ele>1023.3</ele>
        <time>2023-09-28T09:34:15Z</time>
      </trkpt>
      <trkpt lat="44.60274" lon="5.85797">
        <ele>1023.6</ele>
        <time>2023-09-28T09:34:16Z</time>
      </trkpt>
      <trkpt lat="44.60276" lon="5.85798">
        <ele>1023.8</ele>
        <time>2023-09-28T09:34:17Z</time>
      </trkpt>
      <trkpt lat="44.60281" lon="5.85798">
        <ele>1024.2</ele>
        <time>2023-09-28T09:34:19Z</time>
      </trkpt>
      <trkpt lat="44.60285" lon="5.85798">
        <ele>1024.5</ele>
        <time>2023-09-28T09:34:20Z</time>
      </trkpt>
      <trkpt lat="44.60288" lon="5.85799">
        <ele>1024.7</ele>
        <time>2023-09-28T09:34:21Z</time>
      </trkpt>
      <trkpt lat="44.60292" lon="5.85799">
        <ele>1025</ele>
        <time>2023-09-28T09:34:23Z</time>
      </trkpt>
      <trkpt lat="44.60296" lon="5.858">
        <ele>1025.4</ele>
        <time>2023-09-28T09:34:24Z</time>
      </trkpt>
      <trkpt lat="44.603" lon="5.858">
        <ele>1025.7</ele>
        <time>2023-09-28T09:34:25Z</time>
      </trkpt>
      <trkpt lat="44.60305" lon="5.85801">
        <ele>1026.1</ele>
        <time>2023-09-28T09:34:27Z</time>
      </trkpt>
      <trkpt lat="44.60308" lon="5.858">
        <ele>1026.4</ele>
        <time>2023-09-28T09:34:29Z</time>
      </trkpt>
      <trkpt lat="44.60311" lon="5.858">
        <ele>1026.7</ele>
        <time>2023-09-28T09:34:30Z</time>
      </trkpt>
      <trkpt lat="44.60315" lon="5.858">
        <ele>1026.9</ele>
        <time>2023-09-28T09:34:31Z</time>
      </trkpt>
      <trkpt lat="44.60319" lon="5.858">
        <ele>1027.2</ele>
        <time>2023-09-28T09:34:32Z</time>
      </trkpt>
      <trkpt lat="44.6032" lon="5.858">
        <ele>1027.3</ele>
        <time>2023-09-28T09:34:33Z</time>
      </trkpt>
      <trkpt lat="44.60324" lon="5.858">
        <ele>1027.7</ele>
        <time>2023-09-28T09:34:34Z</time>
      </trkpt>
      <trkpt lat="44.60326" lon="5.858">
        <ele>1027.8</ele>
        <time>2023-09-28T09:34:35Z</time>
      </trkpt>
      <trkpt lat="44.6033" lon="5.858">
        <ele>1028.1</ele>
        <time>2023-09-28T09:34:36Z</time>
      </trkpt>
      <trkpt lat="44.60331" lon="5.85799">
        <ele>1028.2</ele>
        <time>2023-09-28T09:34:37Z</time>
      </trkpt>
      <trkpt lat="44.60334" lon="5.85799">
        <ele>1028.5</ele>
        <time>2023-09-28T09:34:39Z</time>
      </trkpt>
      <trkpt lat="44.60337" lon="5.858">
        <ele>1028.7</ele>
        <time>2023-09-28T09:34:40Z</time>
      </trkpt>
      <trkpt lat="44.60341" lon="5.858">
        <ele>1029</ele>
        <time>2023-09-28T09:34:41Z</time>
      </trkpt>
      <trkpt lat="44.60344" lon="5.858">
        <ele>1029.2</ele>
        <time>2023-09-28T09:34:42Z</time>
      </trkpt>
      <trkpt lat="44.60345" lon="5.858">
        <ele>1029.3</ele>
        <time>2023-09-28T09:34:43Z</time>
      </trkpt>
      <trkpt lat="44.60348" lon="5.858">
        <ele>1029.5</ele>
        <time>2023-09-28T09:34:44Z</time>
      </trkpt>
      <trkpt lat="44.60351" lon="5.858">
        <ele>1029.7</ele>
        <time>2023-09-28T09:34:45Z</time>
      </trkpt>
      <trkpt lat="44.60353" lon="5.858">
        <ele>1029.9</ele>
        <time>2023-09-28T09:34:46Z</time>
      </trkpt>
      <trkpt lat="44.60358" lon="5.858">
        <ele>1030.2</ele>
        <time>2023-09-28T09:34:48Z</time>
      </trkpt>
      <trkpt lat="44.60361" lon="5.858">
        <ele>1030.4</ele>
        <time>2023-09-28T09:34:49Z</time>
      </trkpt>
      <trkpt lat="44.60364" lon="5.85799">
        <ele>1030.6</ele>
        <time>2023-09-28T09:34:50Z</time>
      </trkpt>
      <trkpt lat="44.60366" lon="5.85799">
        <ele>1030.7</ele>
        <time>2023-09-28T09:34:51Z</time>
      </trkpt>
      <trkpt lat="44.6037" lon="5.85799">
        <ele>1031</ele>
        <time>2023-09-28T09:34:53Z</time>
      </trkpt>
      <trkpt lat="44.60373" lon="5.85799">
        <ele>1031.2</ele>
        <time>2023-09-28T09:34:54Z</time>
      </trkpt>
      <trkpt lat="44.60376" lon="5.85799">
        <ele>1031.5</ele>
        <time>2023-09-28T09:34:55Z</time>
      </trkpt>
      <trkpt lat="44.60382" lon="5.85799">
        <ele>1031.9</ele>
        <time>2023-09-28T09:34:57Z</time>
      </trkpt>
      <trkpt lat="44.60386" lon="5.85798">
        <ele>1032.2</ele>
        <time>2023-09-28T09:34:59Z</time>
      </trkpt>
      <trkpt lat="44.60389" lon="5.85797">
        <ele>1032.4</ele>
        <time>2023-09-28T09:35:00Z</time>
      </trkpt>
      <trkpt lat="44.60392" lon="5.85797">
        <ele>1032.6</ele>
        <time>2023-09-28T09:35:02Z</time>
      </trkpt>
      <trkpt lat="44.60395" lon="5.85798">
        <ele>1032.8</ele>
        <time>2023-09-28T09:35:03Z</time>
      </trkpt>
      <trkpt lat="44.60398" lon="5.85799">
        <ele>1033.1</ele>
        <time>2023-09-28T09:35:04Z</time>
      </trkpt>
      <trkpt lat="44.60401" lon="5.85799">
        <ele>1033.3</ele>
        <time>2023-09-28T09:35:05Z</time>
      </trkpt>
      <trkpt lat="44.60403" lon="5.85799">
        <ele>1033.4</ele>
        <time>2023-09-28T09:35:06Z</time>
      </trkpt>
      <trkpt lat="44.60406" lon="5.85799">
        <ele>1033.6</ele>
        <time>2023-09-28T09:35:07Z</time>
      </trkpt>
      <trkpt lat="44.60408" lon="5.85799">
        <ele>1033.8</ele>
        <time>2023-09-28T09:35:08Z</time>
      </trkpt>
      <trkpt lat="44.60412" lon="5.85799">
        <ele>1034</ele>
        <time>2023-09-28T09:35:10Z</time>
      </trkpt>
      <trkpt lat="44.60415" lon="5.85798">
        <ele>1034.2</ele>
        <time>2023-09-28T09:35:11Z</time>
      </trkpt>
      <trkpt lat="44.60418" lon="5.85798">
        <ele>1034.4</ele>
        <time>2023-09-28T09:35:12Z</time>
      </trkpt>
      <trkpt lat="44.60421" lon="5.85799">
        <ele>1034.6</ele>
        <time>2023-09-28T09:35:14Z</time>
      </trkpt>
      <trkpt lat="44.60424" lon="5.85799">
        <ele>1034.7</ele>
        <time>2023-09-28T09:35:15Z</time>
      </trkpt>
      <trkpt lat="44.60427" lon="5.85799">
        <ele>1034.9</ele>
        <time>2023-09-28T09:35:16Z</time>
      </trkpt>
      <trkpt lat="44.6043" lon="5.85798">
        <ele>1035.1</ele>
        <time>2023-09-28T09:35:17Z</time>
      </trkpt>
      <trkpt lat="44.60433" lon="5.85797">
        <ele>1035.3</ele>
        <time>2023-09-28T09:35:18Z</time>
      </trkpt>
      <trkpt lat="44.60437" lon="5.85797">
        <ele>1035.5</ele>
        <time>2023-09-28T09:35:19Z</time>
      </trkpt>
      <trkpt lat="44.60439" lon="5.85796">
        <ele>1035.5</ele>
        <time>2023-09-28T09:35:20Z</time>
      </trkpt>
      <trkpt lat="44.60443" lon="5.85796">
        <ele>1035.8</ele>
        <time>2023-09-28T09:35:22Z</time>
      </trkpt>
      <trkpt lat="44.60447" lon="5.85796">
        <ele>1035.9</ele>
        <time>2023-09-28T09:35:23Z</time>
      </trkpt>
      <trkpt lat="44.6045" lon="5.85796">
        <ele>1036.1</ele>
        <time>2023-09-28T09:35:24Z</time>
      </trkpt>
      <trkpt lat="44.60453" lon="5.85795">
        <ele>1036.2</ele>
        <time>2023-09-28T09:35:26Z</time>
      </trkpt>
      <trkpt lat="44.60457" lon="5.85795">
        <ele>1036.4</ele>
        <time>2023-09-28T09:35:27Z</time>
      </trkpt>
      <trkpt lat="44.60459" lon="5.85795">
        <ele>1036.5</ele>
        <time>2023-09-28T09:35:28Z</time>
      </trkpt>
      <trkpt lat="44.60462" lon="5.85795">
        <ele>1036.7</ele>
        <time>2023-09-28T09:35:29Z</time>
      </trkpt>
      <trkpt lat="44.60465" lon="5.85794">
        <ele>1036.8</ele>
        <time>2023-09-28T09:35:30Z</time>
      </trkpt>
      <trkpt lat="44.60469" lon="5.85794">
        <ele>1037</ele>
        <time>2023-09-28T09:35:31Z</time>
      </trkpt>
      <trkpt lat="44.60471" lon="5.85794">
        <ele>1037.1</ele>
        <time>2023-09-28T09:35:32Z</time>
      </trkpt>
      <trkpt lat="44.60474" lon="5.85794">
        <ele>1037.3</ele>
        <time>2023-09-28T09:35:33Z</time>
      </trkpt>
      <trkpt lat="44.60479" lon="5.85795">
        <ele>1037.5</ele>
        <time>2023-09-28T09:35:35Z</time>
      </trkpt>
      <trkpt lat="44.60482" lon="5.85796">
        <ele>1037.6</ele>
        <time>2023-09-28T09:35:36Z</time>
      </trkpt>
      <trkpt lat="44.60485" lon="5.85796">
        <ele>1037.8</ele>
        <time>2023-09-28T09:35:38Z</time>
      </trkpt>
      <trkpt lat="44.60489" lon="5.85795">
        <ele>1038</ele>
        <time>2023-09-28T09:35:39Z</time>
      </trkpt>
      <trkpt lat="44.60493" lon="5.85795">
        <ele>1038.2</ele>
        <time>2023-09-28T09:35:40Z</time>
      </trkpt>
      <trkpt lat="44.60497" lon="5.85796">
        <ele>1038.3</ele>
        <time>2023-09-28T09:35:41Z</time>
      </trkpt>
      <trkpt lat="44.60498" lon="5.85796">
        <ele>1038.4</ele>
        <time>2023-09-28T09:35:42Z</time>
      </trkpt>
      <trkpt lat="44.60502" lon="5.85796">
        <ele>1038.6</ele>
        <time>2023-09-28T09:35:43Z</time>
      </trkpt>
      <trkpt lat="44.60505" lon="5.85796">
        <ele>1038.8</ele>
        <time>2023-09-28T09:35:45Z</time>
      </trkpt>
      <trkpt lat="44.60508" lon="5.85796">
        <ele>1038.9</ele>
        <time>2023-09-28T09:35:46Z</time>
      </trkpt>
      <trkpt lat="44.60511" lon="5.85796">
        <ele>1039.1</ele>
        <time>2023-09-28T09:35:47Z</time>
      </trkpt>
      <trkpt lat="44.60515" lon="5.85797">
        <ele>1039.3</ele>
        <time>2023-09-28T09:35:48Z</time>
      </trkpt>
      <trkpt lat="44.60517" lon="5.85796">
        <ele>1039.4</ele>
        <time>2023-09-28T09:35:49Z</time>
      </trkpt>
      <trkpt lat="44.60522" lon="5.85797">
        <ele>1039.7</ele>
        <time>2023-09-28T09:35:51Z</time>
      </trkpt>
      <trkpt lat="44.60525" lon="5.85797">
        <ele>1039.9</ele>
        <time>2023-09-28T09:35:52Z</time>
      </trkpt>
      <trkpt lat="44.60528" lon="5.85796">
        <ele>1040</ele>
        <time>2023-09-28T09:35:53Z</time>
      </trkpt>
      <trkpt lat="44.6053" lon="5.85796">
        <ele>1040.2</ele>
        <time>2023-09-28T09:35:54Z</time>
      </trkpt>
      <trkpt lat="44.60535" lon="5.85795">
        <ele>1040.5</ele>
        <time>2023-09-28T09:35:56Z</time>
      </trkpt>
      <trkpt lat="44.60538" lon="5.85794">
        <ele>1040.7</ele>
        <time>2023-09-28T09:35:57Z</time>
      </trkpt>
      <trkpt lat="44.60541" lon="5.85794">
        <ele>1040.9</ele>
        <time>2023-09-28T09:35:58Z</time>
      </trkpt>
      <trkpt lat="44.60545" lon="5.85796">
        <ele>1041.2</ele>
        <time>2023-09-28T09:36:00Z</time>
      </trkpt>
      <trkpt lat="44.60548" lon="5.85799">
        <ele>1041.4</ele>
        <time>2023-09-28T09:36:01Z</time>
      </trkpt>
      <trkpt lat="44.60551" lon="5.858">
        <ele>1041.6</ele>
        <time>2023-09-28T09:36:02Z</time>
      </trkpt>
      <trkpt lat="44.60553" lon="5.85799">
        <ele>1041.9</ele>
        <time>2023-09-28T09:36:03Z</time>
      </trkpt>
      <trkpt lat="44.60556" lon="5.85798">
        <ele>1042.1</ele>
        <time>2023-09-28T09:36:04Z</time>
      </trkpt>
      <trkpt lat="44.6056" lon="5.85797">
        <ele>1042.4</ele>
        <time>2023-09-28T09:36:05Z</time>
      </trkpt>
      <trkpt lat="44.60562" lon="5.85796">
        <ele>1042.5</ele>
        <time>2023-09-28T09:36:06Z</time>
      </trkpt>
      <trkpt lat="44.60566" lon="5.85795">
        <ele>1042.8</ele>
        <time>2023-09-28T09:36:07Z</time>
      </trkpt>
      <trkpt lat="44.60567" lon="5.85795">
        <ele>1042.9</ele>
        <time>2023-09-28T09:36:08Z</time>
      </trkpt>
      <trkpt lat="44.6057" lon="5.85794">
        <ele>1043.1</ele>
        <time>2023-09-28T09:36:10Z</time>
      </trkpt>
      <trkpt lat="44.60573" lon="5.85793">
        <ele>1043.3</ele>
        <time>2023-09-28T09:36:11Z</time>
      </trkpt>
      <trkpt lat="44.60576" lon="5.85792">
        <ele>1043.6</ele>
        <time>2023-09-28T09:36:12Z</time>
      </trkpt>
      <trkpt lat="44.6058" lon="5.85791">
        <ele>1043.9</ele>
        <time>2023-09-28T09:36:13Z</time>
      </trkpt>
      <trkpt lat="44.60581" lon="5.8579">
        <ele>1044</ele>
        <time>2023-09-28T09:36:14Z</time>
      </trkpt>
      <trkpt lat="44.60584" lon="5.8579">
        <ele>1044.2</ele>
        <time>2023-09-28T09:36:15Z</time>
      </trkpt>
      <trkpt lat="44.60586" lon="5.85789">
        <ele>1044.3</ele>
        <time>2023-09-28T09:36:16Z</time>
      </trkpt>
      <trkpt lat="44.60589" lon="5.85788">
        <ele>1044.6</ele>
        <time>2023-09-28T09:36:18Z</time>
      </trkpt>
      <trkpt lat="44.60592" lon="5.85787">
        <ele>1044.8</ele>
        <time>2023-09-28T09:36:19Z</time>
      </trkpt>
      <trkpt lat="44.60595" lon="5.85785">
        <ele>1045.1</ele>
        <time>2023-09-28T09:36:20Z</time>
      </trkpt>
      <trkpt lat="44.60599" lon="5.85785">
        <ele>1045.4</ele>
        <time>2023-09-28T09:36:21Z</time>
      </trkpt>
      <trkpt lat="44.60601" lon="5.85785">
        <ele>1045.5</ele>
        <time>2023-09-28T09:36:22Z</time>
      </trkpt>
      <trkpt lat="44.60603" lon="5.85784">
        <ele>1045.7</ele>
        <time>2023-09-28T09:36:23Z</time>
      </trkpt>
      <trkpt lat="44.60606" lon="5.85782">
        <ele>1045.9</ele>
        <time>2023-09-28T09:36:25Z</time>
      </trkpt>
      <trkpt lat="44.6061" lon="5.8578">
        <ele>1046.2</ele>
        <time>2023-09-28T09:36:26Z</time>
      </trkpt>
      <trkpt lat="44.60614" lon="5.85778">
        <ele>1046.5</ele>
        <time>2023-09-28T09:36:27Z</time>
      </trkpt>
      <trkpt lat="44.60615" lon="5.85778">
        <ele>1046.5</ele>
        <time>2023-09-28T09:36:28Z</time>
      </trkpt>
      <trkpt lat="44.60617" lon="5.85776">
        <ele>1046.8</ele>
        <time>2023-09-28T09:36:29Z</time>
      </trkpt>
      <trkpt lat="44.6062" lon="5.85775">
        <ele>1047</ele>
        <time>2023-09-28T09:36:31Z</time>
      </trkpt>
      <trkpt lat="44.60623" lon="5.85774">
        <ele>1047.2</ele>
        <time>2023-09-28T09:36:32Z</time>
      </trkpt>
      <trkpt lat="44.60627" lon="5.85772">
        <ele>1047.5</ele>
        <time>2023-09-28T09:36:33Z</time>
      </trkpt>
      <trkpt lat="44.60628" lon="5.85772">
        <ele>1047.6</ele>
        <time>2023-09-28T09:36:34Z</time>
      </trkpt>
      <trkpt lat="44.60631" lon="5.85771">
        <ele>1047.8</ele>
        <time>2023-09-28T09:36:35Z</time>
      </trkpt>
      <trkpt lat="44.60634" lon="5.85769">
        <ele>1048</ele>
        <time>2023-09-28T09:36:36Z</time>
      </trkpt>
      <trkpt lat="44.60637" lon="5.85768">
        <ele>1048.3</ele>
        <time>2023-09-28T09:36:38Z</time>
      </trkpt>
      <trkpt lat="44.60641" lon="5.85766">
        <ele>1048.5</ele>
        <time>2023-09-28T09:36:39Z</time>
      </trkpt>
      <trkpt lat="44.60644" lon="5.85764">
        <ele>1048.9</ele>
        <time>2023-09-28T09:36:40Z</time>
      </trkpt>
      <trkpt lat="44.60646" lon="5.85763">
        <ele>1049</ele>
        <time>2023-09-28T09:36:41Z</time>
      </trkpt>
      <trkpt lat="44.60648" lon="5.85762">
        <ele>1049.2</ele>
        <time>2023-09-28T09:36:43Z</time>
      </trkpt>
      <trkpt lat="44.60651" lon="5.85761">
        <ele>1049.5</ele>
        <time>2023-09-28T09:36:44Z</time>
      </trkpt>
      <trkpt lat="44.60654" lon="5.85759">
        <ele>1049.7</ele>
        <time>2023-09-28T09:36:45Z</time>
      </trkpt>
      <trkpt lat="44.60656" lon="5.85758">
        <ele>1050</ele>
        <time>2023-09-28T09:36:46Z</time>
      </trkpt>
      <trkpt lat="44.60659" lon="5.85756">
        <ele>1050.2</ele>
        <time>2023-09-28T09:36:47Z</time>
      </trkpt>
      <trkpt lat="44.60662" lon="5.85756">
        <ele>1050.5</ele>
        <time>2023-09-28T09:36:48Z</time>
      </trkpt>
      <trkpt lat="44.60665" lon="5.85755">
        <ele>1050.7</ele>
        <time>2023-09-28T09:36:49Z</time>
      </trkpt>
      <trkpt lat="44.60669" lon="5.85753">
        <ele>1051.1</ele>
        <time>2023-09-28T09:36:51Z</time>
      </trkpt>
      <trkpt lat="44.60672" lon="5.85752">
        <ele>1051.4</ele>
        <time>2023-09-28T09:36:52Z</time>
      </trkpt>
      <trkpt lat="44.60675" lon="5.85752">
        <ele>1051.6</ele>
        <time>2023-09-28T09:36:53Z</time>
      </trkpt>
      <trkpt lat="44.60678" lon="5.85752">
        <ele>1051.8</ele>
        <time>2023-09-28T09:36:54Z</time>
      </trkpt>
      <trkpt lat="44.60682" lon="5.85752">
        <ele>1052.2</ele>
        <time>2023-09-28T09:36:56Z</time>
      </trkpt>
      <trkpt lat="44.60686" lon="5.85753">
        <ele>1052.5</ele>
        <time>2023-09-28T09:36:57Z</time>
      </trkpt>
      <trkpt lat="44.60689" lon="5.85752">
        <ele>1052.7</ele>
        <time>2023-09-28T09:36:58Z</time>
      </trkpt>
      <trkpt lat="44.60692" lon="5.85752">
        <ele>1053</ele>
        <time>2023-09-28T09:36:59Z</time>
      </trkpt>
      <trkpt lat="44.60696" lon="5.85753">
        <ele>1053.3</ele>
        <time>2023-09-28T09:37:01Z</time>
      </trkpt>
      <trkpt lat="44.60699" lon="5.85753">
        <ele>1053.6</ele>
        <time>2023-09-28T09:37:02Z</time>
      </trkpt>
      <trkpt lat="44.60703" lon="5.85754">
        <ele>1053.8</ele>
        <time>2023-09-28T09:37:03Z</time>
      </trkpt>
      <trkpt lat="44.60706" lon="5.85754">
        <ele>1054</ele>
        <time>2023-09-28T09:37:04Z</time>
      </trkpt>
      <trkpt lat="44.60709" lon="5.85755">
        <ele>1054.3</ele>
        <time>2023-09-28T09:37:05Z</time>
      </trkpt>
      <trkpt lat="44.60713" lon="5.85756">
        <ele>1054.7</ele>
        <time>2023-09-28T09:37:06Z</time>
      </trkpt>
      <trkpt lat="44.60715" lon="5.85757">
        <ele>1054.8</ele>
        <time>2023-09-28T09:37:07Z</time>
      </trkpt>
      <trkpt lat="44.6072" lon="5.85759">
        <ele>1055.2</ele>
        <time>2023-09-28T09:37:09Z</time>
      </trkpt>
      <trkpt lat="44.60724" lon="5.8576">
        <ele>1055.5</ele>
        <time>2023-09-28T09:37:11Z</time>
      </trkpt>
      <trkpt lat="44.60727" lon="5.85761">
        <ele>1055.7</ele>
        <time>2023-09-28T09:37:12Z</time>
      </trkpt>
      <trkpt lat="44.6073" lon="5.85762">
        <ele>1055.9</ele>
        <time>2023-09-28T09:37:13Z</time>
      </trkpt>
      <trkpt lat="44.60732" lon="5.85761">
        <ele>1056.1</ele>
        <time>2023-09-28T09:37:14Z</time>
      </trkpt>
      <trkpt lat="44.60735" lon="5.85761">
        <ele>1056.4</ele>
        <time>2023-09-28T09:37:15Z</time>
      </trkpt>
      <trkpt lat="44.60739" lon="5.85761">
        <ele>1056.6</ele>
        <time>2023-09-28T09:37:17Z</time>
      </trkpt>
      <trkpt lat="44.60742" lon="5.8576">
        <ele>1056.8</ele>
        <time>2023-09-28T09:37:18Z</time>
      </trkpt>
      <trkpt lat="44.60745" lon="5.8576">
        <ele>1057</ele>
        <time>2023-09-28T09:37:19Z</time>
      </trkpt>
      <trkpt lat="44.60748" lon="5.85759">
        <ele>1057.2</ele>
        <time>2023-09-28T09:37:20Z</time>
      </trkpt>
      <trkpt lat="44.60752" lon="5.85758">
        <ele>1057.5</ele>
        <time>2023-09-28T09:37:21Z</time>
      </trkpt>
      <trkpt lat="44.60755" lon="5.85758">
        <ele>1057.7</ele>
        <time>2023-09-28T09:37:22Z</time>
      </trkpt>
      <trkpt lat="44.60757" lon="5.85758">
        <ele>1057.8</ele>
        <time>2023-09-28T09:37:23Z</time>
      </trkpt>
      <trkpt lat="44.60762" lon="5.85758">
        <ele>1058.1</ele>
        <time>2023-09-28T09:37:25Z</time>
      </trkpt>
      <trkpt lat="44.60765" lon="5.85757">
        <ele>1058.3</ele>
        <time>2023-09-28T09:37:26Z</time>
      </trkpt>
      <trkpt lat="44.60768" lon="5.85755">
        <ele>1058.6</ele>
        <time>2023-09-28T09:37:27Z</time>
      </trkpt>
      <trkpt lat="44.60773" lon="5.85754">
        <ele>1058.9</ele>
        <time>2023-09-28T09:37:29Z</time>
      </trkpt>
      <trkpt lat="44.60777" lon="5.85753">
        <ele>1059.1</ele>
        <time>2023-09-28T09:37:30Z</time>
      </trkpt>
      <trkpt lat="44.60779" lon="5.85752">
        <ele>1059.3</ele>
        <time>2023-09-28T09:37:31Z</time>
      </trkpt>
      <trkpt lat="44.60782" lon="5.85751">
        <ele>1059.6</ele>
        <time>2023-09-28T09:37:32Z</time>
      </trkpt>
      <trkpt lat="44.60788" lon="5.85749">
        <ele>1059.9</ele>
        <time>2023-09-28T09:37:34Z</time>
      </trkpt>
      <trkpt lat="44.60791" lon="5.85748">
        <ele>1060.2</ele>
        <time>2023-09-28T09:37:35Z</time>
      </trkpt>
      <trkpt lat="44.60794" lon="5.85747">
        <ele>1060.4</ele>
        <time>2023-09-28T09:37:36Z</time>
      </trkpt>
      <trkpt lat="44.60797" lon="5.85745">
        <ele>1060.6</ele>
        <time>2023-09-28T09:37:38Z</time>
      </trkpt>
      <trkpt lat="44.608" lon="5.85744">
        <ele>1060.9</ele>
        <time>2023-09-28T09:37:39Z</time>
      </trkpt>
      <trkpt lat="44.60803" lon="5.85743">
        <ele>1061.1</ele>
        <time>2023-09-28T09:37:40Z</time>
      </trkpt>
      <trkpt lat="44.60806" lon="5.85742">
        <ele>1061.4</ele>
        <time>2023-09-28T09:37:41Z</time>
      </trkpt>
      <trkpt lat="44.6081" lon="5.8574">
        <ele>1061.7</ele>
        <time>2023-09-28T09:37:42Z</time>
      </trkpt>
      <trkpt lat="44.60812" lon="5.85739">
        <ele>1061.8</ele>
        <time>2023-09-28T09:37:43Z</time>
      </trkpt>
      <trkpt lat="44.60814" lon="5.85738">
        <ele>1062</ele>
        <time>2023-09-28T09:37:44Z</time>
      </trkpt>
      <trkpt lat="44.60819" lon="5.85737">
        <ele>1062.4</ele>
        <time>2023-09-28T09:37:46Z</time>
      </trkpt>
      <trkpt lat="44.60822" lon="5.85736">
        <ele>1062.6</ele>
        <time>2023-09-28T09:37:47Z</time>
      </trkpt>
      <trkpt lat="44.60826" lon="5.85734">
        <ele>1062.9</ele>
        <time>2023-09-28T09:37:48Z</time>
      </trkpt>
      <trkpt lat="44.60827" lon="5.85734">
        <ele>1063</ele>
        <time>2023-09-28T09:37:49Z</time>
      </trkpt>
      <trkpt lat="44.6083" lon="5.85732">
        <ele>1063.2</ele>
        <time>2023-09-28T09:37:51Z</time>
      </trkpt>
      <trkpt lat="44.60834" lon="5.85731">
        <ele>1063.5</ele>
        <time>2023-09-28T09:37:52Z</time>
      </trkpt>
      <trkpt lat="44.60838" lon="5.85731">
        <ele>1063.8</ele>
        <time>2023-09-28T09:37:53Z</time>
      </trkpt>
      <trkpt lat="44.60843" lon="5.85731">
        <ele>1064.1</ele>
        <time>2023-09-28T09:37:55Z</time>
      </trkpt>
      <trkpt lat="44.60844" lon="5.85731">
        <ele>1064.1</ele>
        <time>2023-09-28T09:37:56Z</time>
      </trkpt>
      <trkpt lat="44.60846" lon="5.8573">
        <ele>1064.2</ele>
        <time>2023-09-28T09:37:57Z</time>
      </trkpt>
      <trkpt lat="44.6085" lon="5.8573">
        <ele>1064.6</ele>
        <time>2023-09-28T09:37:59Z</time>
      </trkpt>
      <trkpt lat="44.60854" lon="5.8573">
        <ele>1065</ele>
        <time>2023-09-28T09:38:00Z</time>
      </trkpt>
      <trkpt lat="44.60857" lon="5.85731">
        <ele>1065.3</ele>
        <time>2023-09-28T09:38:01Z</time>
      </trkpt>
      <trkpt lat="44.6086" lon="5.85731">
        <ele>1065.7</ele>
        <time>2023-09-28T09:38:03Z</time>
      </trkpt>
      <trkpt lat="44.60862" lon="5.85731">
        <ele>1065.8</ele>
        <time>2023-09-28T09:38:04Z</time>
      </trkpt>
      <trkpt lat="44.60865" lon="5.85731">
        <ele>1066.2</ele>
        <time>2023-09-28T09:38:05Z</time>
      </trkpt>
      <trkpt lat="44.60868" lon="5.85732">
        <ele>1066.6</ele>
        <time>2023-09-28T09:38:06Z</time>
      </trkpt>
      <trkpt lat="44.6087" lon="5.85732">
        <ele>1066.8</ele>
        <time>2023-09-28T09:38:07Z</time>
      </trkpt>
      <trkpt lat="44.60873" lon="5.85733">
        <ele>1067.1</ele>
        <time>2023-09-28T09:38:09Z</time>
      </trkpt>
      <trkpt lat="44.60877" lon="5.85734">
        <ele>1067.5</ele>
        <time>2023-09-28T09:38:10Z</time>
      </trkpt>
      <trkpt lat="44.6088" lon="5.85735">
        <ele>1067.8</ele>
        <time>2023-09-28T09:38:11Z</time>
      </trkpt>
      <trkpt lat="44.60885" lon="5.85736">
        <ele>1068.2</ele>
        <time>2023-09-28T09:38:13Z</time>
      </trkpt>
      <trkpt lat="44.60888" lon="5.85737">
        <ele>1068.5</ele>
        <time>2023-09-28T09:38:14Z</time>
      </trkpt>
      <trkpt lat="44.60893" lon="5.85738">
        <ele>1068.9</ele>
        <time>2023-09-28T09:38:15Z</time>
      </trkpt>
      <trkpt lat="44.60896" lon="5.85739">
        <ele>1069.2</ele>
        <time>2023-09-28T09:38:16Z</time>
      </trkpt>
      <trkpt lat="44.61041" lon="5.85814">
        <ele>1078.7</ele>
        <time>2023-09-28T09:39:02Z</time>
      </trkpt>
      <trkpt lat="44.61037" lon="5.85809">
        <ele>1079.1</ele>
        <time>2023-09-28T09:39:03Z</time>
      </trkpt>
      <trkpt lat="44.61027" lon="5.85806">
        <ele>1079.8</ele>
        <time>2023-09-28T09:39:04Z</time>
      </trkpt>
      <trkpt lat="44.61026" lon="5.85807">
        <ele>1079.9</ele>
        <time>2023-09-28T09:39:05Z</time>
      </trkpt>
      <trkpt lat="44.61026" lon="5.85809">
        <ele>1080.1</ele>
        <time>2023-09-28T09:39:06Z</time>
      </trkpt>
      <trkpt lat="44.61028" lon="5.85812">
        <ele>1080.3</ele>
        <time>2023-09-28T09:39:07Z</time>
      </trkpt>
      <trkpt lat="44.61031" lon="5.85815">
        <ele>1080.5</ele>
        <time>2023-09-28T09:39:08Z</time>
      </trkpt>
      <trkpt lat="44.61034" lon="5.85816">
        <ele>1080.7</ele>
        <time>2023-09-28T09:39:09Z</time>
      </trkpt>
      <trkpt lat="44.61039" lon="5.85822">
        <ele>1081.1</ele>
        <time>2023-09-28T09:39:11Z</time>
      </trkpt>
      <trkpt lat="44.61043" lon="5.85825">
        <ele>1081.3</ele>
        <time>2023-09-28T09:39:12Z</time>
      </trkpt>
      <trkpt lat="44.61046" lon="5.85829">
        <ele>1081.5</ele>
        <time>2023-09-28T09:39:13Z</time>
      </trkpt>
      <trkpt lat="44.61049" lon="5.85831">
        <ele>1081.7</ele>
        <time>2023-09-28T09:39:14Z</time>
      </trkpt>
      <trkpt lat="44.61051" lon="5.85833">
        <ele>1081.8</ele>
        <time>2023-09-28T09:39:15Z</time>
      </trkpt>
      <trkpt lat="44.61054" lon="5.85836">
        <ele>1081.9</ele>
        <time>2023-09-28T09:39:16Z</time>
      </trkpt>
      <trkpt lat="44.61057" lon="5.85837">
        <ele>1082</ele>
        <time>2023-09-28T09:39:17Z</time>
      </trkpt>
      <trkpt lat="44.6106" lon="5.85839">
        <ele>1082.2</ele>
        <time>2023-09-28T09:39:18Z</time>
      </trkpt>
      <trkpt lat="44.61063" lon="5.85841">
        <ele>1082.3</ele>
        <time>2023-09-28T09:39:20Z</time>
      </trkpt>
      <trkpt lat="44.61066" lon="5.85842">
        <ele>1082.4</ele>
        <time>2023-09-28T09:39:21Z</time>
      </trkpt>
      <trkpt lat="44.61069" lon="5.85844">
        <ele>1082.5</ele>
        <time>2023-09-28T09:39:22Z</time>
      </trkpt>
      <trkpt lat="44.61072" lon="5.85846">
        <ele>1082.6</ele>
        <time>2023-09-28T09:39:23Z</time>
      </trkpt>
      <trkpt lat="44.61075" lon="5.85848">
        <ele>1082.7</ele>
        <time>2023-09-28T09:39:24Z</time>
      </trkpt>
      <trkpt lat="44.61078" lon="5.85848">
        <ele>1082.8</ele>
        <time>2023-09-28T09:39:25Z</time>
      </trkpt>
      <trkpt lat="44.61081" lon="5.85848">
        <ele>1082.9</ele>
        <time>2023-09-28T09:39:26Z</time>
      </trkpt>
      <trkpt lat="44.61085" lon="5.85849">
        <ele>1083</ele>
        <time>2023-09-28T09:39:28Z</time>
      </trkpt>
      <trkpt lat="44.61088" lon="5.85849">
        <ele>1083.1</ele>
        <time>2023-09-28T09:39:29Z</time>
      </trkpt>
      <trkpt lat="44.61092" lon="5.85847">
        <ele>1083.3</ele>
        <time>2023-09-28T09:39:30Z</time>
      </trkpt>
      <trkpt lat="44.61093" lon="5.85846">
        <ele>1083.3</ele>
        <time>2023-09-28T09:39:31Z</time>
      </trkpt>
      <trkpt lat="44.61096" lon="5.85845">
        <ele>1083.4</ele>
        <time>2023-09-28T09:39:32Z</time>
      </trkpt>
      <trkpt lat="44.611" lon="5.85846">
        <ele>1083.5</ele>
        <time>2023-09-28T09:39:33Z</time>
      </trkpt>
      <trkpt lat="44.61104" lon="5.85845">
        <ele>1083.6</ele>
        <time>2023-09-28T09:39:34Z</time>
      </trkpt>
      <trkpt lat="44.61107" lon="5.85844">
        <ele>1083.7</ele>
        <time>2023-09-28T09:39:35Z</time>
      </trkpt>
      <trkpt lat="44.61112" lon="5.85843">
        <ele>1083.8</ele>
        <time>2023-09-28T09:39:37Z</time>
      </trkpt>
      <trkpt lat="44.61116" lon="5.85842">
        <ele>1084</ele>
        <time>2023-09-28T09:39:38Z</time>
      </trkpt>
      <trkpt lat="44.6112" lon="5.85841">
        <ele>1084.1</ele>
        <time>2023-09-28T09:39:39Z</time>
      </trkpt>
      <trkpt lat="44.61124" lon="5.8584">
        <ele>1084.2</ele>
        <time>2023-09-28T09:39:40Z</time>
      </trkpt>
      <trkpt lat="44.61127" lon="5.85839">
        <ele>1084.3</ele>
        <time>2023-09-28T09:39:41Z</time>
      </trkpt>
      <trkpt lat="44.61131" lon="5.85838">
        <ele>1084.4</ele>
        <time>2023-09-28T09:39:42Z</time>
      </trkpt>
      <trkpt lat="44.61135" lon="5.85836">
        <ele>1084.5</ele>
        <time>2023-09-28T09:39:43Z</time>
      </trkpt>
      <trkpt lat="44.61139" lon="5.85834">
        <ele>1084.7</ele>
        <time>2023-09-28T09:39:45Z</time>
      </trkpt>
      <trkpt lat="44.61145" lon="5.85832">
        <ele>1084.9</ele>
        <time>2023-09-28T09:39:46Z</time>
      </trkpt>
      <trkpt lat="44.61149" lon="5.8583">
        <ele>1085</ele>
        <time>2023-09-28T09:39:47Z</time>
      </trkpt>
      <trkpt lat="44.61153" lon="5.85829">
        <ele>1085.2</ele>
        <time>2023-09-28T09:39:48Z</time>
      </trkpt>
      <trkpt lat="44.61157" lon="5.85827">
        <ele>1085.3</ele>
        <time>2023-09-28T09:39:50Z</time>
      </trkpt>
      <trkpt lat="44.61161" lon="5.85825">
        <ele>1085.5</ele>
        <time>2023-09-28T09:39:51Z</time>
      </trkpt>
      <trkpt lat="44.61163" lon="5.85824">
        <ele>1085.5</ele>
        <time>2023-09-28T09:39:52Z</time>
      </trkpt>
      <trkpt lat="44.61167" lon="5.85823">
        <ele>1085.7</ele>
        <time>2023-09-28T09:39:53Z</time>
      </trkpt>
      <trkpt lat="44.61172" lon="5.85822">
        <ele>1085.8</ele>
        <time>2023-09-28T09:39:54Z</time>
      </trkpt>
      <trkpt lat="44.61175" lon="5.8582">
        <ele>1086</ele>
        <time>2023-09-28T09:39:55Z</time>
      </trkpt>
      <trkpt lat="44.61178" lon="5.85819">
        <ele>1086.1</ele>
        <time>2023-09-28T09:39:56Z</time>
      </trkpt>
      <trkpt lat="44.61182" lon="5.85817">
        <ele>1086.2</ele>
        <time>2023-09-28T09:39:58Z</time>
      </trkpt>
      <trkpt lat="44.61185" lon="5.85816">
        <ele>1086.3</ele>
        <time>2023-09-28T09:39:59Z</time>
      </trkpt>
      <trkpt lat="44.61189" lon="5.85815">
        <ele>1086.4</ele>
        <time>2023-09-28T09:40:00Z</time>
      </trkpt>
      <trkpt lat="44.61193" lon="5.85813">
        <ele>1086.5</ele>
        <time>2023-09-28T09:40:01Z</time>
      </trkpt>
      <trkpt lat="44.61196" lon="5.85812">
        <ele>1086.6</ele>
        <time>2023-09-28T09:40:02Z</time>
      </trkpt>
      <trkpt lat="44.612" lon="5.85811">
        <ele>1086.8</ele>
        <time>2023-09-28T09:40:03Z</time>
      </trkpt>
      <trkpt lat="44.61203" lon="5.85809">
        <ele>1086.9</ele>
        <time>2023-09-28T09:40:04Z</time>
      </trkpt>
      <trkpt lat="44.61206" lon="5.85808">
        <ele>1087</ele>
        <time>2023-09-28T09:40:05Z</time>
      </trkpt>
      <trkpt lat="44.6121" lon="5.85808">
        <ele>1087.1</ele>
        <time>2023-09-28T09:40:06Z</time>
      </trkpt>
      <trkpt lat="44.61214" lon="5.85807">
        <ele>1087.2</ele>
        <time>2023-09-28T09:40:08Z</time>
      </trkpt>
      <trkpt lat="44.61217" lon="5.85805">
        <ele>1087.3</ele>
        <time>2023-09-28T09:40:09Z</time>
      </trkpt>
      <trkpt lat="44.6122" lon="5.85803">
        <ele>1087.4</ele>
        <time>2023-09-28T09:40:10Z</time>
      </trkpt>
      <trkpt lat="44.61223" lon="5.85803">
        <ele>1087.5</ele>
        <time>2023-09-28T09:40:11Z</time>
      </trkpt>
      <trkpt lat="44.61227" lon="5.85802">
        <ele>1087.6</ele>
        <time>2023-09-28T09:40:12Z</time>
      </trkpt>
      <trkpt lat="44.61231" lon="5.85801">
        <ele>1087.7</ele>
        <time>2023-09-28T09:40:14Z</time>
      </trkpt>
      <trkpt lat="44.61235" lon="5.85801">
        <ele>1087.8</ele>
        <time>2023-09-28T09:40:15Z</time>
      </trkpt>
      <trkpt lat="44.6124" lon="5.85799">
        <ele>1087.9</ele>
        <time>2023-09-28T09:40:16Z</time>
      </trkpt>
      <trkpt lat="44.61243" lon="5.85798">
        <ele>1088</ele>
        <time>2023-09-28T09:40:17Z</time>
      </trkpt>
      <trkpt lat="44.6125" lon="5.85796">
        <ele>1088.1</ele>
        <time>2023-09-28T09:40:19Z</time>
      </trkpt>
      <trkpt lat="44.61254" lon="5.85795">
        <ele>1088.2</ele>
        <time>2023-09-28T09:40:20Z</time>
      </trkpt>
      <trkpt lat="44.61258" lon="5.85794">
        <ele>1088.3</ele>
        <time>2023-09-28T09:40:21Z</time>
      </trkpt>
      <trkpt lat="44.61262" lon="5.85792">
        <ele>1088.5</ele>
        <time>2023-09-28T09:40:23Z</time>
      </trkpt>
      <trkpt lat="44.61265" lon="5.85791">
        <ele>1088.6</ele>
        <time>2023-09-28T09:40:24Z</time>
      </trkpt>
      <trkpt lat="44.61269" lon="5.8579">
        <ele>1088.7</ele>
        <time>2023-09-28T09:40:25Z</time>
      </trkpt>
      <trkpt lat="44.61272" lon="5.85788">
        <ele>1088.8</ele>
        <time>2023-09-28T09:40:26Z</time>
      </trkpt>
      <trkpt lat="44.61275" lon="5.85787">
        <ele>1088.9</ele>
        <time>2023-09-28T09:40:27Z</time>
      </trkpt>
      <trkpt lat="44.61279" lon="5.85785">
        <ele>1089.1</ele>
        <time>2023-09-28T09:40:28Z</time>
      </trkpt>
      <trkpt lat="44.61282" lon="5.85784">
        <ele>1089.2</ele>
        <time>2023-09-28T09:40:29Z</time>
      </trkpt>
      <trkpt lat="44.61285" lon="5.85782">
        <ele>1089.3</ele>
        <time>2023-09-28T09:40:30Z</time>
      </trkpt>
      <trkpt lat="44.61291" lon="5.8578">
        <ele>1089.4</ele>
        <time>2023-09-28T09:40:32Z</time>
      </trkpt>
      <trkpt lat="44.61295" lon="5.85778">
        <ele>1089.6</ele>
        <time>2023-09-28T09:40:33Z</time>
      </trkpt>
      <trkpt lat="44.61298" lon="5.85776">
        <ele>1089.7</ele>
        <time>2023-09-28T09:40:34Z</time>
      </trkpt>
      <trkpt lat="44.61301" lon="5.85776">
        <ele>1089.7</ele>
        <time>2023-09-28T09:40:35Z</time>
      </trkpt>
      <trkpt lat="44.61305" lon="5.85774">
        <ele>1089.9</ele>
        <time>2023-09-28T09:40:37Z</time>
      </trkpt>
      <trkpt lat="44.61311" lon="5.8577">
        <ele>1090</ele>
        <time>2023-09-28T09:40:38Z</time>
      </trkpt>
      <trkpt lat="44.61313" lon="5.85768">
        <ele>1090.1</ele>
        <time>2023-09-28T09:40:39Z</time>
      </trkpt>
      <trkpt lat="44.61319" lon="5.85763">
        <ele>1090.2</ele>
        <time>2023-09-28T09:40:41Z</time>
      </trkpt>
      <trkpt lat="44.61322" lon="5.8576">
        <ele>1090.3</ele>
        <time>2023-09-28T09:40:42Z</time>
      </trkpt>
      <trkpt lat="44.61324" lon="5.85758">
        <ele>1090.4</ele>
        <time>2023-09-28T09:40:43Z</time>
      </trkpt>
      <trkpt lat="44.61327" lon="5.85754">
        <ele>1090.5</ele>
        <time>2023-09-28T09:40:44Z</time>
      </trkpt>
      <trkpt lat="44.6133" lon="5.85749">
        <ele>1090.6</ele>
        <time>2023-09-28T09:40:46Z</time>
      </trkpt>
      <trkpt lat="44.61333" lon="5.85745">
        <ele>1090.7</ele>
        <time>2023-09-28T09:40:47Z</time>
      </trkpt>
      <trkpt lat="44.61336" lon="5.8574">
        <ele>1090.8</ele>
        <time>2023-09-28T09:40:48Z</time>
      </trkpt>
      <trkpt lat="44.61339" lon="5.85736">
        <ele>1090.9</ele>
        <time>2023-09-28T09:40:49Z</time>
      </trkpt>
      <trkpt lat="44.61342" lon="5.85731">
        <ele>1090.9</ele>
        <time>2023-09-28T09:40:50Z</time>
      </trkpt>
      <trkpt lat="44.61345" lon="5.85727">
        <ele>1091</ele>
        <time>2023-09-28T09:40:51Z</time>
      </trkpt>
      <trkpt lat="44.61348" lon="5.85722">
        <ele>1091.2</ele>
        <time>2023-09-28T09:40:53Z</time>
      </trkpt>
      <trkpt lat="44.61353" lon="5.85715">
        <ele>1091.3</ele>
        <time>2023-09-28T09:40:54Z</time>
      </trkpt>
      <trkpt lat="44.61356" lon="5.8571">
        <ele>1091.4</ele>
        <time>2023-09-28T09:40:55Z</time>
      </trkpt>
      <trkpt lat="44.61361" lon="5.85703">
        <ele>1091.6</ele>
        <time>2023-09-28T09:40:57Z</time>
      </trkpt>
      <trkpt lat="44.61364" lon="5.85699">
        <ele>1091.7</ele>
        <time>2023-09-28T09:40:58Z</time>
      </trkpt>
      <trkpt lat="44.61366" lon="5.85695">
        <ele>1091.8</ele>
        <time>2023-09-28T09:40:59Z</time>
      </trkpt>
      <trkpt lat="44.6137" lon="5.85691">
        <ele>1092</ele>
        <time>2023-09-28T09:41:00Z</time>
      </trkpt>
      <trkpt lat="44.61373" lon="5.85688">
        <ele>1092.1</ele>
        <time>2023-09-28T09:41:01Z</time>
      </trkpt>
      <trkpt lat="44.61377" lon="5.85685">
        <ele>1092.2</ele>
        <time>2023-09-28T09:41:03Z</time>
      </trkpt>
      <trkpt lat="44.61381" lon="5.85681">
        <ele>1092.4</ele>
        <time>2023-09-28T09:41:04Z</time>
      </trkpt>
      <trkpt lat="44.61384" lon="5.85679">
        <ele>1092.5</ele>
        <time>2023-09-28T09:41:05Z</time>
      </trkpt>
      <trkpt lat="44.61388" lon="5.85677">
        <ele>1092.6</ele>
        <time>2023-09-28T09:41:06Z</time>
      </trkpt>
      <trkpt lat="44.61392" lon="5.85674">
        <ele>1092.7</ele>
        <time>2023-09-28T09:41:07Z</time>
      </trkpt>
      <trkpt lat="44.61397" lon="5.85672">
        <ele>1092.9</ele>
        <time>2023-09-28T09:41:09Z</time>
      </trkpt>
      <trkpt lat="44.61401" lon="5.85669">
        <ele>1093</ele>
        <time>2023-09-28T09:41:10Z</time>
      </trkpt>
      <trkpt lat="44.61405" lon="5.85667">
        <ele>1093.1</ele>
        <time>2023-09-28T09:41:11Z</time>
      </trkpt>
      <trkpt lat="44.61408" lon="5.85666">
        <ele>1093.2</ele>
        <time>2023-09-28T09:41:12Z</time>
      </trkpt>
      <trkpt lat="44.61413" lon="5.85665">
        <ele>1093.3</ele>
        <time>2023-09-28T09:41:13Z</time>
      </trkpt>
      <trkpt lat="44.61418" lon="5.85663">
        <ele>1093.5</ele>
        <time>2023-09-28T09:41:15Z</time>
      </trkpt>
      <trkpt lat="44.61423" lon="5.85663">
        <ele>1093.6</ele>
        <time>2023-09-28T09:41:16Z</time>
      </trkpt>
      <trkpt lat="44.61427" lon="5.85661">
        <ele>1093.7</ele>
        <time>2023-09-28T09:41:17Z</time>
      </trkpt>
      <trkpt lat="44.61431" lon="5.85659">
        <ele>1093.7</ele>
        <time>2023-09-28T09:41:18Z</time>
      </trkpt>
      <trkpt lat="44.61438" lon="5.85659">
        <ele>1093.8</ele>
        <time>2023-09-28T09:41:20Z</time>
      </trkpt>
      <trkpt lat="44.61446" lon="5.8566">
        <ele>1093.8</ele>
        <time>2023-09-28T09:41:22Z</time>
      </trkpt>
      <trkpt lat="44.61451" lon="5.85661">
        <ele>1093.7</ele>
        <time>2023-09-28T09:41:23Z</time>
      </trkpt>
      <trkpt lat="44.61456" lon="5.85662">
        <ele>1093.7</ele>
        <time>2023-09-28T09:41:24Z</time>
      </trkpt>
      <trkpt lat="44.6146" lon="5.85664">
        <ele>1093.6</ele>
        <time>2023-09-28T09:41:25Z</time>
      </trkpt>
      <trkpt lat="44.61464" lon="5.85665">
        <ele>1093.5</ele>
        <time>2023-09-28T09:41:26Z</time>
      </trkpt>
      <trkpt lat="44.61469" lon="5.85666">
        <ele>1093.4</ele>
        <time>2023-09-28T09:41:28Z</time>
      </trkpt>
      <trkpt lat="44.61474" lon="5.85668">
        <ele>1093.3</ele>
        <time>2023-09-28T09:41:29Z</time>
      </trkpt>
      <trkpt lat="44.61479" lon="5.85669">
        <ele>1093.2</ele>
        <time>2023-09-28T09:41:30Z</time>
      </trkpt>
      <trkpt lat="44.61484" lon="5.8567">
        <ele>1093.1</ele>
        <time>2023-09-28T09:41:31Z</time>
      </trkpt>
      <trkpt lat="44.61489" lon="5.85671">
        <ele>1093</ele>
        <time>2023-09-28T09:41:32Z</time>
      </trkpt>
      <trkpt lat="44.61493" lon="5.85672">
        <ele>1093</ele>
        <time>2023-09-28T09:41:33Z</time>
      </trkpt>
      <trkpt lat="44.61498" lon="5.85673">
        <ele>1092.9</ele>
        <time>2023-09-28T09:41:34Z</time>
      </trkpt>
      <trkpt lat="44.61504" lon="5.85673">
        <ele>1092.8</ele>
        <time>2023-09-28T09:41:35Z</time>
      </trkpt>
      <trkpt lat="44.6151" lon="5.85674">
        <ele>1092.8</ele>
        <time>2023-09-28T09:41:37Z</time>
      </trkpt>
      <trkpt lat="44.61514" lon="5.85675">
        <ele>1092.7</ele>
        <time>2023-09-28T09:41:38Z</time>
      </trkpt>
      <trkpt lat="44.6152" lon="5.85675">
        <ele>1092.7</ele>
        <time>2023-09-28T09:41:39Z</time>
      </trkpt>
      <trkpt lat="44.61524" lon="5.85674">
        <ele>1092.6</ele>
        <time>2023-09-28T09:41:40Z</time>
      </trkpt>
      <trkpt lat="44.61528" lon="5.85674">
        <ele>1092.6</ele>
        <time>2023-09-28T09:41:41Z</time>
      </trkpt>
      <trkpt lat="44.61536" lon="5.85673">
        <ele>1092.5</ele>
        <time>2023-09-28T09:41:43Z</time>
      </trkpt>
      <trkpt lat="44.6154" lon="5.85672">
        <ele>1092.4</ele>
        <time>2023-09-28T09:41:44Z</time>
      </trkpt>
      <trkpt lat="44.61545" lon="5.85671">
        <ele>1092.4</ele>
        <time>2023-09-28T09:41:45Z</time>
      </trkpt>
      <trkpt lat="44.61549" lon="5.85671">
        <ele>1092.3</ele>
        <time>2023-09-28T09:41:46Z</time>
      </trkpt>
      <trkpt lat="44.61557" lon="5.85669">
        <ele>1092.2</ele>
        <time>2023-09-28T09:41:48Z</time>
      </trkpt>
      <trkpt lat="44.61562" lon="5.85669">
        <ele>1092.2</ele>
        <time>2023-09-28T09:41:49Z</time>
      </trkpt>
      <trkpt lat="44.61569" lon="5.85667">
        <ele>1092.2</ele>
        <time>2023-09-28T09:41:51Z</time>
      </trkpt>
      <trkpt lat="44.61573" lon="5.85666">
        <ele>1092.2</ele>
        <time>2023-09-28T09:41:52Z</time>
      </trkpt>
      <trkpt lat="44.61577" lon="5.85665">
        <ele>1092.2</ele>
        <time>2023-09-28T09:41:53Z</time>
      </trkpt>
      <trkpt lat="44.61581" lon="5.85664">
        <ele>1092.1</ele>
        <time>2023-09-28T09:41:54Z</time>
      </trkpt>
      <trkpt lat="44.61587" lon="5.85663">
        <ele>1092.1</ele>
        <time>2023-09-28T09:41:56Z</time>
      </trkpt>
      <trkpt lat="44.61592" lon="5.85662">
        <ele>1092.1</ele>
        <time>2023-09-28T09:41:57Z</time>
      </trkpt>
      <trkpt lat="44.61595" lon="5.85662">
        <ele>1092.2</ele>
        <time>2023-09-28T09:41:58Z</time>
      </trkpt>
      <trkpt lat="44.61599" lon="5.85662">
        <ele>1092.2</ele>
        <time>2023-09-28T09:41:59Z</time>
      </trkpt>
      <trkpt lat="44.61603" lon="5.85661">
        <ele>1092.2</ele>
        <time>2023-09-28T09:42:00Z</time>
      </trkpt>
      <trkpt lat="44.61607" lon="5.8566">
        <ele>1092.2</ele>
        <time>2023-09-28T09:42:01Z</time>
      </trkpt>
      <trkpt lat="44.61611" lon="5.85659">
        <ele>1092.2</ele>
        <time>2023-09-28T09:42:02Z</time>
      </trkpt>
      <trkpt lat="44.61616" lon="5.85658">
        <ele>1092.2</ele>
        <time>2023-09-28T09:42:04Z</time>
      </trkpt>
      <trkpt lat="44.61623" lon="5.85658">
        <ele>1092.2</ele>
        <time>2023-09-28T09:42:05Z</time>
      </trkpt>
      <trkpt lat="44.61628" lon="5.85656">
        <ele>1092.2</ele>
        <time>2023-09-28T09:42:07Z</time>
      </trkpt>
      <trkpt lat="44.61637" lon="5.85654">
        <ele>1092.2</ele>
        <time>2023-09-28T09:42:08Z</time>
      </trkpt>
      <trkpt lat="44.61642" lon="5.85652">
        <ele>1092.3</ele>
        <time>2023-09-28T09:42:09Z</time>
      </trkpt>
      <trkpt lat="44.61647" lon="5.8565">
        <ele>1092.3</ele>
        <time>2023-09-28T09:42:10Z</time>
      </trkpt>
      <trkpt lat="44.61652" lon="5.85648">
        <ele>1092.4</ele>
        <time>2023-09-28T09:42:11Z</time>
      </trkpt>
      <trkpt lat="44.61657" lon="5.85646">
        <ele>1092.5</ele>
        <time>2023-09-28T09:42:12Z</time>
      </trkpt>
      <trkpt lat="44.61662" lon="5.85644">
        <ele>1092.5</ele>
        <time>2023-09-28T09:42:13Z</time>
      </trkpt>
      <trkpt lat="44.61668" lon="5.85642">
        <ele>1092.6</ele>
        <time>2023-09-28T09:42:14Z</time>
      </trkpt>
      <trkpt lat="44.61673" lon="5.8564">
        <ele>1092.6</ele>
        <time>2023-09-28T09:42:15Z</time>
      </trkpt>
      <trkpt lat="44.61678" lon="5.85638">
        <ele>1092.7</ele>
        <time>2023-09-28T09:42:16Z</time>
      </trkpt>
      <trkpt lat="44.61683" lon="5.85636">
        <ele>1092.7</ele>
        <time>2023-09-28T09:42:17Z</time>
      </trkpt>
      <trkpt lat="44.61688" lon="5.85633">
        <ele>1092.8</ele>
        <time>2023-09-28T09:42:18Z</time>
      </trkpt>
      <trkpt lat="44.61693" lon="5.85631">
        <ele>1092.9</ele>
        <time>2023-09-28T09:42:19Z</time>
      </trkpt>
      <trkpt lat="44.61698" lon="5.85629">
        <ele>1093</ele>
        <time>2023-09-28T09:42:20Z</time>
      </trkpt>
      <trkpt lat="44.61702" lon="5.85627">
        <ele>1093.1</ele>
        <time>2023-09-28T09:42:21Z</time>
      </trkpt>
      <trkpt lat="44.61707" lon="5.85624">
        <ele>1093.2</ele>
        <time>2023-09-28T09:42:22Z</time>
      </trkpt>
      <trkpt lat="44.61711" lon="5.85622">
        <ele>1093.4</ele>
        <time>2023-09-28T09:42:23Z</time>
      </trkpt>
      <trkpt lat="44.61716" lon="5.85619">
        <ele>1093.5</ele>
        <time>2023-09-28T09:42:24Z</time>
      </trkpt>
      <trkpt lat="44.6172" lon="5.85617">
        <ele>1093.7</ele>
        <time>2023-09-28T09:42:25Z</time>
      </trkpt>
      <trkpt lat="44.61725" lon="5.85615">
        <ele>1093.8</ele>
        <time>2023-09-28T09:42:26Z</time>
      </trkpt>
      <trkpt lat="44.61729" lon="5.85613">
        <ele>1094</ele>
        <time>2023-09-28T09:42:27Z</time>
      </trkpt>
      <trkpt lat="44.61734" lon="5.8561">
        <ele>1094.1</ele>
        <time>2023-09-28T09:42:28Z</time>
      </trkpt>
      <trkpt lat="44.61738" lon="5.85608">
        <ele>1094.3</ele>
        <time>2023-09-28T09:42:29Z</time>
      </trkpt>
      <trkpt lat="44.61743" lon="5.85606">
        <ele>1094.4</ele>
        <time>2023-09-28T09:42:30Z</time>
      </trkpt>
      <trkpt lat="44.61748" lon="5.85603">
        <ele>1094.6</ele>
        <time>2023-09-28T09:42:31Z</time>
      </trkpt>
      <trkpt lat="44.61752" lon="5.856">
        <ele>1094.8</ele>
        <time>2023-09-28T09:42:32Z</time>
      </trkpt>
      <trkpt lat="44.61757" lon="5.85597">
        <ele>1094.9</ele>
        <time>2023-09-28T09:42:33Z</time>
      </trkpt>
      <trkpt lat="44.61761" lon="5.85595">
        <ele>1095.1</ele>
        <time>2023-09-28T09:42:34Z</time>
      </trkpt>
      <trkpt lat="44.61766" lon="5.85592">
        <ele>1095.3</ele>
        <time>2023-09-28T09:42:35Z</time>
      </trkpt>
      <trkpt lat="44.61771" lon="5.85589">
        <ele>1095.4</ele>
        <time>2023-09-28T09:42:36Z</time>
      </trkpt>
      <trkpt lat="44.61775" lon="5.85586">
        <ele>1095.6</ele>
        <time>2023-09-28T09:42:37Z</time>
      </trkpt>
      <trkpt lat="44.6178" lon="5.85584">
        <ele>1095.8</ele>
        <time>2023-09-28T09:42:38Z</time>
      </trkpt>
      <trkpt lat="44.61785" lon="5.85582">
        <ele>1095.9</ele>
        <time>2023-09-28T09:42:39Z</time>
      </trkpt>
      <trkpt lat="44.61789" lon="5.8558">
        <ele>1096.1</ele>
        <time>2023-09-28T09:42:40Z</time>
      </trkpt>
      <trkpt lat="44.61794" lon="5.85577">
        <ele>1096.3</ele>
        <time>2023-09-28T09:42:41Z</time>
      </trkpt>
      <trkpt lat="44.61798" lon="5.85575">
        <ele>1096.5</ele>
        <time>2023-09-28T09:42:42Z</time>
      </trkpt>
      <trkpt lat="44.61803" lon="5.85573">
        <ele>1096.7</ele>
        <time>2023-09-28T09:42:43Z</time>
      </trkpt>
      <trkpt lat="44.61808" lon="5.85571">
        <ele>1096.9</ele>
        <time>2023-09-28T09:42:44Z</time>
      </trkpt>
      <trkpt lat="44.61812" lon="5.85568">
        <ele>1097.1</ele>
        <time>2023-09-28T09:42:45Z</time>
      </trkpt>
      <trkpt lat="44.61817" lon="5.85566">
        <ele>1097.2</ele>
        <time>2023-09-28T09:42:46Z</time>
      </trkpt>
      <trkpt lat="44.61821" lon="5.85564">
        <ele>1097.4</ele>
        <time>2023-09-28T09:42:47Z</time>
      </trkpt>
      <trkpt lat="44.61826" lon="5.85563">
        <ele>1097.6</ele>
        <time>2023-09-28T09:42:48Z</time>
      </trkpt>
      <trkpt lat="44.6183" lon="5.85561">
        <ele>1097.8</ele>
        <time>2023-09-28T09:42:49Z</time>
      </trkpt>
      <trkpt lat="44.61835" lon="5.85559">
        <ele>1098</ele>
        <time>2023-09-28T09:42:50Z</time>
      </trkpt>
      <trkpt lat="44.61839" lon="5.85558">
        <ele>1098.1</ele>
        <time>2023-09-28T09:42:51Z</time>
      </trkpt>
      <trkpt lat="44.61843" lon="5.85556">
        <ele>1098.3</ele>
        <time>2023-09-28T09:42:52Z</time>
      </trkpt>
      <trkpt lat="44.61848" lon="5.85555">
        <ele>1098.5</ele>
        <time>2023-09-28T09:42:53Z</time>
      </trkpt>
      <trkpt lat="44.61852" lon="5.85553">
        <ele>1098.6</ele>
        <time>2023-09-28T09:42:54Z</time>
      </trkpt>
      <trkpt lat="44.61856" lon="5.85552">
        <ele>1098.8</ele>
        <time>2023-09-28T09:42:55Z</time>
      </trkpt>
      <trkpt lat="44.61861" lon="5.85551">
        <ele>1099</ele>
        <time>2023-09-28T09:42:56Z</time>
      </trkpt>
      <trkpt lat="44.61865" lon="5.85548">
        <ele>1099.2</ele>
        <time>2023-09-28T09:42:57Z</time>
      </trkpt>
      <trkpt lat="44.6187" lon="5.85546">
        <ele>1099.4</ele>
        <time>2023-09-28T09:42:58Z</time>
      </trkpt>
      <trkpt lat="44.61874" lon="5.85544">
        <ele>1099.6</ele>
        <time>2023-09-28T09:42:59Z</time>
      </trkpt>
      <trkpt lat="44.61879" lon="5.85542">
        <ele>1099.7</ele>
        <time>2023-09-28T09:43:00Z</time>
      </trkpt>
      <trkpt lat="44.61883" lon="5.85541">
        <ele>1099.9</ele>
        <time>2023-09-28T09:43:01Z</time>
      </trkpt>
      <trkpt lat="44.61887" lon="5.85539">
        <ele>1100.1</ele>
        <time>2023-09-28T09:43:02Z</time>
      </trkpt>
      <trkpt lat="44.61892" lon="5.85537">
        <ele>1100.3</ele>
        <time>2023-09-28T09:43:04Z</time>
      </trkpt>
      <trkpt lat="44.61897" lon="5.85535">
        <ele>1100.5</ele>
        <time>2023-09-28T09:43:05Z</time>
      </trkpt>
      <trkpt lat="44.61901" lon="5.85533">
        <ele>1100.7</ele>
        <time>2023-09-28T09:43:06Z</time>
      </trkpt>
      <trkpt lat="44.61906" lon="5.85531">
        <ele>1100.9</ele>
        <time>2023-09-28T09:43:07Z</time>
      </trkpt>
      <trkpt lat="44.61912" lon="5.85529">
        <ele>1101.1</ele>
        <time>2023-09-28T09:43:08Z</time>
      </trkpt>
      <trkpt lat="44.61916" lon="5.85527">
        <ele>1101.3</ele>
        <time>2023-09-28T09:43:09Z</time>
      </trkpt>
      <trkpt lat="44.61921" lon="5.85525">
        <ele>1101.4</ele>
        <time>2023-09-28T09:43:10Z</time>
      </trkpt>
      <trkpt lat="44.61925" lon="5.85523">
        <ele>1101.6</ele>
        <time>2023-09-28T09:43:11Z</time>
      </trkpt>
      <trkpt lat="44.6193" lon="5.85521">
        <ele>1101.8</ele>
        <time>2023-09-28T09:43:12Z</time>
      </trkpt>
      <trkpt lat="44.61935" lon="5.85519">
        <ele>1101.9</ele>
        <time>2023-09-28T09:43:13Z</time>
      </trkpt>
      <trkpt lat="44.61941" lon="5.85517">
        <ele>1102.1</ele>
        <time>2023-09-28T09:43:15Z</time>
      </trkpt>
      <trkpt lat="44.61946" lon="5.85516">
        <ele>1102.3</ele>
        <time>2023-09-28T09:43:16Z</time>
      </trkpt>
      <trkpt lat="44.6195" lon="5.85514">
        <ele>1102.4</ele>
        <time>2023-09-28T09:43:17Z</time>
      </trkpt>
      <trkpt lat="44.61954" lon="5.85512">
        <ele>1102.6</ele>
        <time>2023-09-28T09:43:18Z</time>
      </trkpt>
      <trkpt lat="44.61959" lon="5.8551">
        <ele>1102.7</ele>
        <time>2023-09-28T09:43:19Z</time>
      </trkpt>
      <trkpt lat="44.61964" lon="5.85508">
        <ele>1102.9</ele>
        <time>2023-09-28T09:43:21Z</time>
      </trkpt>
      <trkpt lat="44.61969" lon="5.85506">
        <ele>1103.1</ele>
        <time>2023-09-28T09:43:22Z</time>
      </trkpt>
      <trkpt lat="44.61974" lon="5.85504">
        <ele>1103.3</ele>
        <time>2023-09-28T09:43:23Z</time>
      </trkpt>
      <trkpt lat="44.61978" lon="5.85502">
        <ele>1103.4</ele>
        <time>2023-09-28T09:43:24Z</time>
      </trkpt>
      <trkpt lat="44.61983" lon="5.85501">
        <ele>1103.6</ele>
        <time>2023-09-28T09:43:25Z</time>
      </trkpt>
      <trkpt lat="44.61988" lon="5.85499">
        <ele>1103.8</ele>
        <time>2023-09-28T09:43:26Z</time>
      </trkpt>
      <trkpt lat="44.61992" lon="5.85498">
        <ele>1103.9</ele>
        <time>2023-09-28T09:43:27Z</time>
      </trkpt>
      <trkpt lat="44.61996" lon="5.85496">
        <ele>1104.1</ele>
        <time>2023-09-28T09:43:28Z</time>
      </trkpt>
      <trkpt lat="44.62001" lon="5.85494">
        <ele>1104.3</ele>
        <time>2023-09-28T09:43:29Z</time>
      </trkpt>
      <trkpt lat="44.62005" lon="5.85492">
        <ele>1104.4</ele>
        <time>2023-09-28T09:43:31Z</time>
      </trkpt>
      <trkpt lat="44.6201" lon="5.85491">
        <ele>1104.6</ele>
        <time>2023-09-28T09:43:32Z</time>
      </trkpt>
      <trkpt lat="44.62015" lon="5.85489">
        <ele>1104.8</ele>
        <time>2023-09-28T09:43:33Z</time>
      </trkpt>
      <trkpt lat="44.62018" lon="5.85487">
        <ele>1104.9</ele>
        <time>2023-09-28T09:43:34Z</time>
      </trkpt>
      <trkpt lat="44.62023" lon="5.85485">
        <ele>1105.1</ele>
        <time>2023-09-28T09:43:35Z</time>
      </trkpt>
      <trkpt lat="44.62027" lon="5.85483">
        <ele>1105.3</ele>
        <time>2023-09-28T09:43:36Z</time>
      </trkpt>
      <trkpt lat="44.62031" lon="5.85482">
        <ele>1105.4</ele>
        <time>2023-09-28T09:43:37Z</time>
      </trkpt>
      <trkpt lat="44.62035" lon="5.8548">
        <ele>1105.6</ele>
        <time>2023-09-28T09:43:38Z</time>
      </trkpt>
      <trkpt lat="44.6204" lon="5.85478">
        <ele>1105.7</ele>
        <time>2023-09-28T09:43:40Z</time>
      </trkpt>
      <trkpt lat="44.62044" lon="5.85476">
        <ele>1105.9</ele>
        <time>2023-09-28T09:43:41Z</time>
      </trkpt>
      <trkpt lat="44.62048" lon="5.85475">
        <ele>1106</ele>
        <time>2023-09-28T09:43:42Z</time>
      </trkpt>
      <trkpt lat="44.62053" lon="5.85472">
        <ele>1106.1</ele>
        <time>2023-09-28T09:43:43Z</time>
      </trkpt>
      <trkpt lat="44.62057" lon="5.85471">
        <ele>1106.2</ele>
        <time>2023-09-28T09:43:44Z</time>
      </trkpt>
      <trkpt lat="44.62061" lon="5.85469">
        <ele>1106.4</ele>
        <time>2023-09-28T09:43:45Z</time>
      </trkpt>
      <trkpt lat="44.62066" lon="5.85467">
        <ele>1106.5</ele>
        <time>2023-09-28T09:43:47Z</time>
      </trkpt>
      <trkpt lat="44.62071" lon="5.85466">
        <ele>1106.7</ele>
        <time>2023-09-28T09:43:48Z</time>
      </trkpt>
      <trkpt lat="44.62075" lon="5.85464">
        <ele>1106.8</ele>
        <time>2023-09-28T09:43:49Z</time>
      </trkpt>
      <trkpt lat="44.6208" lon="5.85463">
        <ele>1107</ele>
        <time>2023-09-28T09:43:50Z</time>
      </trkpt>
      <trkpt lat="44.62084" lon="5.85462">
        <ele>1107.1</ele>
        <time>2023-09-28T09:43:51Z</time>
      </trkpt>
      <trkpt lat="44.62088" lon="5.85461">
        <ele>1107.2</ele>
        <time>2023-09-28T09:43:52Z</time>
      </trkpt>
      <trkpt lat="44.62092" lon="5.8546">
        <ele>1107.4</ele>
        <time>2023-09-28T09:43:53Z</time>
      </trkpt>
      <trkpt lat="44.62097" lon="5.85458">
        <ele>1107.5</ele>
        <time>2023-09-28T09:43:54Z</time>
      </trkpt>
      <trkpt lat="44.62101" lon="5.85455">
        <ele>1107.6</ele>
        <time>2023-09-28T09:43:56Z</time>
      </trkpt>
      <trkpt lat="44.62106" lon="5.85453">
        <ele>1107.7</ele>
        <time>2023-09-28T09:43:57Z</time>
      </trkpt>
      <trkpt lat="44.62111" lon="5.85452">
        <ele>1107.9</ele>
        <time>2023-09-28T09:43:58Z</time>
      </trkpt>
      <trkpt lat="44.62115" lon="5.8545">
        <ele>1108</ele>
        <time>2023-09-28T09:43:59Z</time>
      </trkpt>
      <trkpt lat="44.62119" lon="5.85449">
        <ele>1108.1</ele>
        <time>2023-09-28T09:44:00Z</time>
      </trkpt>
      <trkpt lat="44.62124" lon="5.85446">
        <ele>1108.2</ele>
        <time>2023-09-28T09:44:01Z</time>
      </trkpt>
      <trkpt lat="44.62129" lon="5.85444">
        <ele>1108.4</ele>
        <time>2023-09-28T09:44:03Z</time>
      </trkpt>
      <trkpt lat="44.62133" lon="5.85441">
        <ele>1108.5</ele>
        <time>2023-09-28T09:44:04Z</time>
      </trkpt>
      <trkpt lat="44.62138" lon="5.85438">
        <ele>1108.7</ele>
        <time>2023-09-28T09:44:05Z</time>
      </trkpt>
      <trkpt lat="44.62143" lon="5.85436">
        <ele>1108.8</ele>
        <time>2023-09-28T09:44:06Z</time>
      </trkpt>
      <trkpt lat="44.62148" lon="5.85434">
        <ele>1108.9</ele>
        <time>2023-09-28T09:44:07Z</time>
      </trkpt>
      <trkpt lat="44.62152" lon="5.85432">
        <ele>1109.1</ele>
        <time>2023-09-28T09:44:08Z</time>
      </trkpt>
      <trkpt lat="44.62157" lon="5.8543">
        <ele>1109.2</ele>
        <time>2023-09-28T09:44:09Z</time>
      </trkpt>
      <trkpt lat="44.62162" lon="5.85428">
        <ele>1109.4</ele>
        <time>2023-09-28T09:44:10Z</time>
      </trkpt>
      <trkpt lat="44.62166" lon="5.85426">
        <ele>1109.5</ele>
        <time>2023-09-28T09:44:11Z</time>
      </trkpt>
      <trkpt lat="44.62172" lon="5.85424">
        <ele>1109.7</ele>
        <time>2023-09-28T09:44:13Z</time>
      </trkpt>
      <trkpt lat="44.62177" lon="5.85422">
        <ele>1109.9</ele>
        <time>2023-09-28T09:44:14Z</time>
      </trkpt>
      <trkpt lat="44.62182" lon="5.85421">
        <ele>1110</ele>
        <time>2023-09-28T09:44:15Z</time>
      </trkpt>
      <trkpt lat="44.62186" lon="5.85419">
        <ele>1110.2</ele>
        <time>2023-09-28T09:44:16Z</time>
      </trkpt>
      <trkpt lat="44.6219" lon="5.85417">
        <ele>1110.4</ele>
        <time>2023-09-28T09:44:17Z</time>
      </trkpt>
      <trkpt lat="44.62195" lon="5.85414">
        <ele>1110.6</ele>
        <time>2023-09-28T09:44:18Z</time>
      </trkpt>
      <trkpt lat="44.622" lon="5.85411">
        <ele>1110.8</ele>
        <time>2023-09-28T09:44:20Z</time>
      </trkpt>
      <trkpt lat="44.62204" lon="5.85409">
        <ele>1111</ele>
        <time>2023-09-28T09:44:21Z</time>
      </trkpt>
      <trkpt lat="44.62207" lon="5.85408">
        <ele>1111.1</ele>
        <time>2023-09-28T09:44:22Z</time>
      </trkpt>
      <trkpt lat="44.62212" lon="5.85405">
        <ele>1111.3</ele>
        <time>2023-09-28T09:44:23Z</time>
      </trkpt>
      <trkpt lat="44.62217" lon="5.85403">
        <ele>1111.5</ele>
        <time>2023-09-28T09:44:24Z</time>
      </trkpt>
      <trkpt lat="44.62221" lon="5.85401">
        <ele>1111.7</ele>
        <time>2023-09-28T09:44:25Z</time>
      </trkpt>
      <trkpt lat="44.62224" lon="5.85399">
        <ele>1111.9</ele>
        <time>2023-09-28T09:44:26Z</time>
      </trkpt>
      <trkpt lat="44.62228" lon="5.85397">
        <ele>1112.1</ele>
        <time>2023-09-28T09:44:27Z</time>
      </trkpt>
      <trkpt lat="44.62233" lon="5.85396">
        <ele>1112.3</ele>
        <time>2023-09-28T09:44:28Z</time>
      </trkpt>
      <trkpt lat="44.62237" lon="5.85393">
        <ele>1112.5</ele>
        <time>2023-09-28T09:44:30Z</time>
      </trkpt>
      <trkpt lat="44.6224" lon="5.85391">
        <ele>1112.6</ele>
        <time>2023-09-28T09:44:31Z</time>
      </trkpt>
      <trkpt lat="44.62244" lon="5.85388">
        <ele>1112.8</ele>
        <time>2023-09-28T09:44:32Z</time>
      </trkpt>
      <trkpt lat="44.62248" lon="5.85387">
        <ele>1113</ele>
        <time>2023-09-28T09:44:33Z</time>
      </trkpt>
      <trkpt lat="44.62252" lon="5.85386">
        <ele>1113.2</ele>
        <time>2023-09-28T09:44:34Z</time>
      </trkpt>
      <trkpt lat="44.62256" lon="5.85384">
        <ele>1113.4</ele>
        <time>2023-09-28T09:44:35Z</time>
      </trkpt>
      <trkpt lat="44.6226" lon="5.85382">
        <ele>1113.6</ele>
        <time>2023-09-28T09:44:36Z</time>
      </trkpt>
      <trkpt lat="44.62264" lon="5.85381">
        <ele>1113.8</ele>
        <time>2023-09-28T09:44:37Z</time>
      </trkpt>
      <trkpt lat="44.62268" lon="5.85379">
        <ele>1114</ele>
        <time>2023-09-28T09:44:39Z</time>
      </trkpt>
      <trkpt lat="44.62274" lon="5.85376">
        <ele>1114.3</ele>
        <time>2023-09-28T09:44:40Z</time>
      </trkpt>
      <trkpt lat="44.62278" lon="5.85374">
        <ele>1114.5</ele>
        <time>2023-09-28T09:44:41Z</time>
      </trkpt>
      <trkpt lat="44.62282" lon="5.85373">
        <ele>1114.7</ele>
        <time>2023-09-28T09:44:42Z</time>
      </trkpt>
      <trkpt lat="44.62287" lon="5.8537">
        <ele>1114.9</ele>
        <time>2023-09-28T09:44:44Z</time>
      </trkpt>
      <trkpt lat="44.62291" lon="5.85368">
        <ele>1115.2</ele>
        <time>2023-09-28T09:44:45Z</time>
      </trkpt>
      <trkpt lat="44.62297" lon="5.85367">
        <ele>1115.5</ele>
        <time>2023-09-28T09:44:46Z</time>
      </trkpt>
      <trkpt lat="44.623" lon="5.85365">
        <ele>1115.7</ele>
        <time>2023-09-28T09:44:47Z</time>
      </trkpt>
      <trkpt lat="44.62307" lon="5.85359">
        <ele>1116.1</ele>
        <time>2023-09-28T09:44:49Z</time>
      </trkpt>
      <trkpt lat="44.62326" lon="5.85347">
        <ele>1117.2</ele>
        <time>2023-09-28T09:44:56Z</time>
      </trkpt>
      <trkpt lat="44.6233" lon="5.85346">
        <ele>1117.4</ele>
        <time>2023-09-28T09:44:57Z</time>
      </trkpt>
      <trkpt lat="44.62333" lon="5.85345">
        <ele>1117.6</ele>
        <time>2023-09-28T09:44:58Z</time>
      </trkpt>
      <trkpt lat="44.62337" lon="5.85342">
        <ele>1117.8</ele>
        <time>2023-09-28T09:44:59Z</time>
      </trkpt>
      <trkpt lat="44.62341" lon="5.85338">
        <ele>1118.1</ele>
        <time>2023-09-28T09:45:01Z</time>
      </trkpt>
      <trkpt lat="44.62344" lon="5.85336">
        <ele>1118.2</ele>
        <time>2023-09-28T09:45:02Z</time>
      </trkpt>
      <trkpt lat="44.6235" lon="5.85333">
        <ele>1118.5</ele>
        <time>2023-09-28T09:45:03Z</time>
      </trkpt>
      <trkpt lat="44.62354" lon="5.8533">
        <ele>1118.7</ele>
        <time>2023-09-28T09:45:05Z</time>
      </trkpt>
      <trkpt lat="44.62359" lon="5.85328">
        <ele>1118.8</ele>
        <time>2023-09-28T09:45:06Z</time>
      </trkpt>
      <trkpt lat="44.62363" lon="5.85325">
        <ele>1119.1</ele>
        <time>2023-09-28T09:45:07Z</time>
      </trkpt>
      <trkpt lat="44.62367" lon="5.85323">
        <ele>1119.2</ele>
        <time>2023-09-28T09:45:08Z</time>
      </trkpt>
      <trkpt lat="44.62371" lon="5.8532">
        <ele>1119.4</ele>
        <time>2023-09-28T09:45:09Z</time>
      </trkpt>
      <trkpt lat="44.62374" lon="5.85318">
        <ele>1119.5</ele>
        <time>2023-09-28T09:45:10Z</time>
      </trkpt>
      <trkpt lat="44.62379" lon="5.85315">
        <ele>1119.7</ele>
        <time>2023-09-28T09:45:12Z</time>
      </trkpt>
      <trkpt lat="44.62383" lon="5.85313">
        <ele>1119.8</ele>
        <time>2023-09-28T09:45:13Z</time>
      </trkpt>
      <trkpt lat="44.62387" lon="5.85311">
        <ele>1120</ele>
        <time>2023-09-28T09:45:14Z</time>
      </trkpt>
      <trkpt lat="44.62392" lon="5.85309">
        <ele>1120.1</ele>
        <time>2023-09-28T09:45:15Z</time>
      </trkpt>
      <trkpt lat="44.62396" lon="5.85307">
        <ele>1120.3</ele>
        <time>2023-09-28T09:45:16Z</time>
      </trkpt>
      <trkpt lat="44.624" lon="5.85306">
        <ele>1120.5</ele>
        <time>2023-09-28T09:45:17Z</time>
      </trkpt>
      <trkpt lat="44.62405" lon="5.85304">
        <ele>1120.6</ele>
        <time>2023-09-28T09:45:18Z</time>
      </trkpt>
      <trkpt lat="44.62412" lon="5.85303">
        <ele>1120.9</ele>
        <time>2023-09-28T09:45:20Z</time>
      </trkpt>
      <trkpt lat="44.62416" lon="5.85301">
        <ele>1121</ele>
        <time>2023-09-28T09:45:21Z</time>
      </trkpt>
      <trkpt lat="44.62421" lon="5.85299">
        <ele>1121.2</ele>
        <time>2023-09-28T09:45:22Z</time>
      </trkpt>
      <trkpt lat="44.62426" lon="5.85298">
        <ele>1121.4</ele>
        <time>2023-09-28T09:45:24Z</time>
      </trkpt>
      <trkpt lat="44.6243" lon="5.85296">
        <ele>1121.6</ele>
        <time>2023-09-28T09:45:25Z</time>
      </trkpt>
      <trkpt lat="44.62434" lon="5.85294">
        <ele>1121.7</ele>
        <time>2023-09-28T09:45:26Z</time>
      </trkpt>
      <trkpt lat="44.62438" lon="5.85293">
        <ele>1121.9</ele>
        <time>2023-09-28T09:45:27Z</time>
      </trkpt>
      <trkpt lat="44.62442" lon="5.85293">
        <ele>1122</ele>
        <time>2023-09-28T09:45:28Z</time>
      </trkpt>
      <trkpt lat="44.62446" lon="5.85292">
        <ele>1122.2</ele>
        <time>2023-09-28T09:45:29Z</time>
      </trkpt>
      <trkpt lat="44.6245" lon="5.85291">
        <ele>1122.4</ele>
        <time>2023-09-28T09:45:30Z</time>
      </trkpt>
      <trkpt lat="44.62457" lon="5.85286">
        <ele>1122.6</ele>
        <time>2023-09-28T09:45:32Z</time>
      </trkpt>
      <trkpt lat="44.6246" lon="5.85282">
        <ele>1122.8</ele>
        <time>2023-09-28T09:45:34Z</time>
      </trkpt>
      <trkpt lat="44.62462" lon="5.85278">
        <ele>1122.9</ele>
        <time>2023-09-28T09:45:35Z</time>
      </trkpt>
      <trkpt lat="44.62466" lon="5.85276">
        <ele>1123.1</ele>
        <time>2023-09-28T09:45:36Z</time>
      </trkpt>
      <trkpt lat="44.62469" lon="5.85277">
        <ele>1123.2</ele>
        <time>2023-09-28T09:45:37Z</time>
      </trkpt>
      <trkpt lat="44.62473" lon="5.85277">
        <ele>1123.3</ele>
        <time>2023-09-28T09:45:38Z</time>
      </trkpt>
      <trkpt lat="44.62474" lon="5.85278">
        <ele>1123.4</ele>
        <time>2023-09-28T09:45:39Z</time>
      </trkpt>
      <trkpt lat="44.6248" lon="5.85279">
        <ele>1123.6</ele>
        <time>2023-09-28T09:45:41Z</time>
      </trkpt>
      <trkpt lat="44.62484" lon="5.85278">
        <ele>1123.7</ele>
        <time>2023-09-28T09:45:43Z</time>
      </trkpt>
      <trkpt lat="44.62487" lon="5.85276">
        <ele>1123.8</ele>
        <time>2023-09-28T09:45:44Z</time>
      </trkpt>
      <trkpt lat="44.62491" lon="5.85274">
        <ele>1124</ele>
        <time>2023-09-28T09:45:45Z</time>
      </trkpt>
      <trkpt lat="44.62495" lon="5.85273">
        <ele>1124.1</ele>
        <time>2023-09-28T09:45:46Z</time>
      </trkpt>
      <trkpt lat="44.62498" lon="5.85271">
        <ele>1124.2</ele>
        <time>2023-09-28T09:45:47Z</time>
      </trkpt>
      <trkpt lat="44.62501" lon="5.8527">
        <ele>1124.3</ele>
        <time>2023-09-28T09:45:48Z</time>
      </trkpt>
      <trkpt lat="44.62505" lon="5.85269">
        <ele>1124.4</ele>
        <time>2023-09-28T09:45:49Z</time>
      </trkpt>
      <trkpt lat="44.62509" lon="5.85268">
        <ele>1124.5</ele>
        <time>2023-09-28T09:45:51Z</time>
      </trkpt>
      <trkpt lat="44.62513" lon="5.85266">
        <ele>1124.6</ele>
        <time>2023-09-28T09:45:52Z</time>
      </trkpt>
      <trkpt lat="44.62516" lon="5.85265">
        <ele>1124.7</ele>
        <time>2023-09-28T09:45:53Z</time>
      </trkpt>
      <trkpt lat="44.6252" lon="5.85263">
        <ele>1124.8</ele>
        <time>2023-09-28T09:45:54Z</time>
      </trkpt>
      <trkpt lat="44.62524" lon="5.85262">
        <ele>1124.9</ele>
        <time>2023-09-28T09:45:55Z</time>
      </trkpt>
      <trkpt lat="44.62527" lon="5.85259">
        <ele>1125</ele>
        <time>2023-09-28T09:45:56Z</time>
      </trkpt>
      <trkpt lat="44.62531" lon="5.85258">
        <ele>1125.1</ele>
        <time>2023-09-28T09:45:57Z</time>
      </trkpt>
      <trkpt lat="44.62535" lon="5.85256">
        <ele>1125.3</ele>
        <time>2023-09-28T09:45:59Z</time>
      </trkpt>
      <trkpt lat="44.62539" lon="5.85254">
        <ele>1125.4</ele>
        <time>2023-09-28T09:46:00Z</time>
      </trkpt>
      <trkpt lat="44.62542" lon="5.85252">
        <ele>1125.5</ele>
        <time>2023-09-28T09:46:01Z</time>
      </trkpt>
      <trkpt lat="44.62547" lon="5.8525">
        <ele>1125.6</ele>
        <time>2023-09-28T09:46:02Z</time>
      </trkpt>
      <trkpt lat="44.6255" lon="5.85248">
        <ele>1125.7</ele>
        <time>2023-09-28T09:46:03Z</time>
      </trkpt>
      <trkpt lat="44.62554" lon="5.85245">
        <ele>1125.9</ele>
        <time>2023-09-28T09:46:04Z</time>
      </trkpt>
      <trkpt lat="44.62557" lon="5.85243">
        <ele>1126</ele>
        <time>2023-09-28T09:46:05Z</time>
      </trkpt>
      <trkpt lat="44.62561" lon="5.85242">
        <ele>1126.1</ele>
        <time>2023-09-28T09:46:06Z</time>
      </trkpt>
      <trkpt lat="44.62565" lon="5.85239">
        <ele>1126.2</ele>
        <time>2023-09-28T09:46:08Z</time>
      </trkpt>
      <trkpt lat="44.62569" lon="5.85237">
        <ele>1126.3</ele>
        <time>2023-09-28T09:46:09Z</time>
      </trkpt>
      <trkpt lat="44.62573" lon="5.85234">
        <ele>1126.5</ele>
        <time>2023-09-28T09:46:10Z</time>
      </trkpt>
      <trkpt lat="44.62577" lon="5.85233">
        <ele>1126.6</ele>
        <time>2023-09-28T09:46:11Z</time>
      </trkpt>
      <trkpt lat="44.6258" lon="5.85231">
        <ele>1126.6</ele>
        <time>2023-09-28T09:46:12Z</time>
      </trkpt>
      <trkpt lat="44.62584" lon="5.85229">
        <ele>1126.7</ele>
        <time>2023-09-28T09:46:13Z</time>
      </trkpt>
      <trkpt lat="44.62587" lon="5.85226">
        <ele>1126.8</ele>
        <time>2023-09-28T09:46:14Z</time>
      </trkpt>
      <trkpt lat="44.62592" lon="5.85224">
        <ele>1127</ele>
        <time>2023-09-28T09:46:15Z</time>
      </trkpt>
      <trkpt lat="44.62596" lon="5.85221">
        <ele>1127.1</ele>
        <time>2023-09-28T09:46:17Z</time>
      </trkpt>
      <trkpt lat="44.626" lon="5.85219">
        <ele>1127.3</ele>
        <time>2023-09-28T09:46:18Z</time>
      </trkpt>
      <trkpt lat="44.62604" lon="5.85217">
        <ele>1127.4</ele>
        <time>2023-09-28T09:46:19Z</time>
      </trkpt>
      <trkpt lat="44.62607" lon="5.85214">
        <ele>1127.5</ele>
        <time>2023-09-28T09:46:20Z</time>
      </trkpt>
      <trkpt lat="44.62611" lon="5.85212">
        <ele>1127.7</ele>
        <time>2023-09-28T09:46:21Z</time>
      </trkpt>
      <trkpt lat="44.62615" lon="5.8521">
        <ele>1127.8</ele>
        <time>2023-09-28T09:46:22Z</time>
      </trkpt>
      <trkpt lat="44.62618" lon="5.85209">
        <ele>1128</ele>
        <time>2023-09-28T09:46:23Z</time>
      </trkpt>
      <trkpt lat="44.62626" lon="5.85205">
        <ele>1128.3</ele>
        <time>2023-09-28T09:46:25Z</time>
      </trkpt>
      <trkpt lat="44.6263" lon="5.85204">
        <ele>1128.4</ele>
        <time>2023-09-28T09:46:27Z</time>
      </trkpt>
      <trkpt lat="44.62635" lon="5.85202">
        <ele>1128.6</ele>
        <time>2023-09-28T09:46:28Z</time>
      </trkpt>
      <trkpt lat="44.62639" lon="5.85201">
        <ele>1128.8</ele>
        <time>2023-09-28T09:46:29Z</time>
      </trkpt>
      <trkpt lat="44.62643" lon="5.852">
        <ele>1128.9</ele>
        <time>2023-09-28T09:46:30Z</time>
      </trkpt>
      <trkpt lat="44.62646" lon="5.852">
        <ele>1129.1</ele>
        <time>2023-09-28T09:46:31Z</time>
      </trkpt>
      <trkpt lat="44.6265" lon="5.85199">
        <ele>1129.2</ele>
        <time>2023-09-28T09:46:32Z</time>
      </trkpt>
      <trkpt lat="44.62658" lon="5.85199">
        <ele>1129.5</ele>
        <time>2023-09-28T09:46:34Z</time>
      </trkpt>
      <trkpt lat="44.62662" lon="5.85199">
        <ele>1129.7</ele>
        <time>2023-09-28T09:46:36Z</time>
      </trkpt>
      <trkpt lat="44.62667" lon="5.85199">
        <ele>1129.9</ele>
        <time>2023-09-28T09:46:37Z</time>
      </trkpt>
      <trkpt lat="44.6267" lon="5.85199">
        <ele>1130.1</ele>
        <time>2023-09-28T09:46:38Z</time>
      </trkpt>
      <trkpt lat="44.62675" lon="5.85198">
        <ele>1130.3</ele>
        <time>2023-09-28T09:46:39Z</time>
      </trkpt>
      <trkpt lat="44.62678" lon="5.85198">
        <ele>1130.5</ele>
        <time>2023-09-28T09:46:40Z</time>
      </trkpt>
      <trkpt lat="44.62682" lon="5.85198">
        <ele>1130.7</ele>
        <time>2023-09-28T09:46:41Z</time>
      </trkpt>
      <trkpt lat="44.62685" lon="5.85197">
        <ele>1130.8</ele>
        <time>2023-09-28T09:46:42Z</time>
      </trkpt>
      <trkpt lat="44.62689" lon="5.85197">
        <ele>1131</ele>
        <time>2023-09-28T09:46:44Z</time>
      </trkpt>
      <trkpt lat="44.62692" lon="5.85197">
        <ele>1131.2</ele>
        <time>2023-09-28T09:46:45Z</time>
      </trkpt>
      <trkpt lat="44.62698" lon="5.85196">
        <ele>1131.6</ele>
        <time>2023-09-28T09:46:46Z</time>
      </trkpt>
      <trkpt lat="44.62705" lon="5.85196">
        <ele>1132</ele>
        <time>2023-09-28T09:46:48Z</time>
      </trkpt>
      <trkpt lat="44.62709" lon="5.85194">
        <ele>1132.3</ele>
        <time>2023-09-28T09:46:50Z</time>
      </trkpt>
      <trkpt lat="44.62713" lon="5.85194">
        <ele>1132.5</ele>
        <time>2023-09-28T09:46:51Z</time>
      </trkpt>
      <trkpt lat="44.62717" lon="5.85193">
        <ele>1132.8</ele>
        <time>2023-09-28T09:46:52Z</time>
      </trkpt>
      <trkpt lat="44.6272" lon="5.85192">
        <ele>1133</ele>
        <time>2023-09-28T09:46:53Z</time>
      </trkpt>
      <trkpt lat="44.62724" lon="5.85191">
        <ele>1133.3</ele>
        <time>2023-09-28T09:46:54Z</time>
      </trkpt>
      <trkpt lat="44.62728" lon="5.8519">
        <ele>1133.5</ele>
        <time>2023-09-28T09:46:55Z</time>
      </trkpt>
      <trkpt lat="44.62731" lon="5.8519">
        <ele>1133.7</ele>
        <time>2023-09-28T09:46:56Z</time>
      </trkpt>
      <trkpt lat="44.62734" lon="5.85189">
        <ele>1133.9</ele>
        <time>2023-09-28T09:46:57Z</time>
      </trkpt>
      <trkpt lat="44.62741" lon="5.85189">
        <ele>1134.2</ele>
        <time>2023-09-28T09:46:59Z</time>
      </trkpt>
      <trkpt lat="44.62744" lon="5.85189">
        <ele>1134.4</ele>
        <time>2023-09-28T09:47:00Z</time>
      </trkpt>
      <trkpt lat="44.62747" lon="5.85188">
        <ele>1134.6</ele>
        <time>2023-09-28T09:47:01Z</time>
      </trkpt>
      <trkpt lat="44.6275" lon="5.85187">
        <ele>1134.8</ele>
        <time>2023-09-28T09:47:02Z</time>
      </trkpt>
      <trkpt lat="44.62754" lon="5.85185">
        <ele>1135</ele>
        <time>2023-09-28T09:47:03Z</time>
      </trkpt>
      <trkpt lat="44.62757" lon="5.85184">
        <ele>1135.2</ele>
        <time>2023-09-28T09:47:05Z</time>
      </trkpt>
      <trkpt lat="44.6276" lon="5.85183">
        <ele>1135.4</ele>
        <time>2023-09-28T09:47:06Z</time>
      </trkpt>
      <trkpt lat="44.62764" lon="5.85182">
        <ele>1135.6</ele>
        <time>2023-09-28T09:47:07Z</time>
      </trkpt>
      <trkpt lat="44.62767" lon="5.8518">
        <ele>1135.8</ele>
        <time>2023-09-28T09:47:08Z</time>
      </trkpt>
      <trkpt lat="44.62771" lon="5.85179">
        <ele>1136</ele>
        <time>2023-09-28T09:47:09Z</time>
      </trkpt>
      <trkpt lat="44.62773" lon="5.85178">
        <ele>1136.2</ele>
        <time>2023-09-28T09:47:10Z</time>
      </trkpt>
      <trkpt lat="44.62778" lon="5.85176">
        <ele>1136.4</ele>
        <time>2023-09-28T09:47:12Z</time>
      </trkpt>
      <trkpt lat="44.62782" lon="5.85173">
        <ele>1136.7</ele>
        <time>2023-09-28T09:47:13Z</time>
      </trkpt>
      <trkpt lat="44.62785" lon="5.85171">
        <ele>1136.9</ele>
        <time>2023-09-28T09:47:14Z</time>
      </trkpt>
      <trkpt lat="44.62789" lon="5.85169">
        <ele>1137.1</ele>
        <time>2023-09-28T09:47:16Z</time>
      </trkpt>
      <trkpt lat="44.62792" lon="5.85167">
        <ele>1137.3</ele>
        <time>2023-09-28T09:47:17Z</time>
      </trkpt>
      <trkpt lat="44.62796" lon="5.85165">
        <ele>1137.6</ele>
        <time>2023-09-28T09:47:18Z</time>
      </trkpt>
      <trkpt lat="44.62799" lon="5.85163">
        <ele>1137.8</ele>
        <time>2023-09-28T09:47:19Z</time>
      </trkpt>
      <trkpt lat="44.62802" lon="5.8516">
        <ele>1138</ele>
        <time>2023-09-28T09:47:20Z</time>
      </trkpt>
      <trkpt lat="44.62804" lon="5.85158">
        <ele>1138.1</ele>
        <time>2023-09-28T09:47:21Z</time>
      </trkpt>
      <trkpt lat="44.62808" lon="5.85156">
        <ele>1138.3</ele>
        <time>2023-09-28T09:47:22Z</time>
      </trkpt>
      <trkpt lat="44.62812" lon="5.85152">
        <ele>1138.6</ele>
        <time>2023-09-28T09:47:24Z</time>
      </trkpt>
      <trkpt lat="44.62815" lon="5.8515">
        <ele>1138.8</ele>
        <time>2023-09-28T09:47:25Z</time>
      </trkpt>
      <trkpt lat="44.62818" lon="5.85148">
        <ele>1139</ele>
        <time>2023-09-28T09:47:26Z</time>
      </trkpt>
      <trkpt lat="44.62822" lon="5.85145">
        <ele>1139.2</ele>
        <time>2023-09-28T09:47:27Z</time>
      </trkpt>
      <trkpt lat="44.62825" lon="5.85143">
        <ele>1139.4</ele>
        <time>2023-09-28T09:47:29Z</time>
      </trkpt>
      <trkpt lat="44.62828" lon="5.85142">
        <ele>1139.6</ele>
        <time>2023-09-28T09:47:30Z</time>
      </trkpt>
      <trkpt lat="44.62831" lon="5.8514">
        <ele>1139.8</ele>
        <time>2023-09-28T09:47:31Z</time>
      </trkpt>
      <trkpt lat="44.62834" lon="5.85137">
        <ele>1139.9</ele>
        <time>2023-09-28T09:47:32Z</time>
      </trkpt>
      <trkpt lat="44.62837" lon="5.85135">
        <ele>1140.1</ele>
        <time>2023-09-28T09:47:33Z</time>
      </trkpt>
      <trkpt lat="44.62839" lon="5.85133">
        <ele>1140.3</ele>
        <time>2023-09-28T09:47:34Z</time>
      </trkpt>
      <trkpt lat="44.62843" lon="5.85131">
        <ele>1140.5</ele>
        <time>2023-09-28T09:47:36Z</time>
      </trkpt>
      <trkpt lat="44.62846" lon="5.85129">
        <ele>1140.7</ele>
        <time>2023-09-28T09:47:37Z</time>
      </trkpt>
      <trkpt lat="44.62848" lon="5.85127">
        <ele>1140.8</ele>
        <time>2023-09-28T09:47:38Z</time>
      </trkpt>
      <trkpt lat="44.62852" lon="5.85124">
        <ele>1141</ele>
        <time>2023-09-28T09:47:39Z</time>
      </trkpt>
      <trkpt lat="44.62855" lon="5.85123">
        <ele>1141.2</ele>
        <time>2023-09-28T09:47:40Z</time>
      </trkpt>
      <trkpt lat="44.62859" lon="5.8512">
        <ele>1141.5</ele>
        <time>2023-09-28T09:47:42Z</time>
      </trkpt>
      <trkpt lat="44.62862" lon="5.85118">
        <ele>1141.6</ele>
        <time>2023-09-28T09:47:43Z</time>
      </trkpt>
      <trkpt lat="44.62865" lon="5.85116">
        <ele>1141.8</ele>
        <time>2023-09-28T09:47:45Z</time>
      </trkpt>
      <trkpt lat="44.62868" lon="5.85114">
        <ele>1142</ele>
        <time>2023-09-28T09:47:46Z</time>
      </trkpt>
      <trkpt lat="44.62871" lon="5.85111">
        <ele>1142.2</ele>
        <time>2023-09-28T09:47:47Z</time>
      </trkpt>
      <trkpt lat="44.62874" lon="5.8511">
        <ele>1142.4</ele>
        <time>2023-09-28T09:47:48Z</time>
      </trkpt>
      <trkpt lat="44.62877" lon="5.85108">
        <ele>1142.5</ele>
        <time>2023-09-28T09:47:49Z</time>
      </trkpt>
      <trkpt lat="44.6288" lon="5.85106">
        <ele>1142.7</ele>
        <time>2023-09-28T09:47:50Z</time>
      </trkpt>
      <trkpt lat="44.62883" lon="5.85105">
        <ele>1142.9</ele>
        <time>2023-09-28T09:47:51Z</time>
      </trkpt>
      <trkpt lat="44.62886" lon="5.85103">
        <ele>1143.1</ele>
        <time>2023-09-28T09:47:53Z</time>
      </trkpt>
      <trkpt lat="44.62889" lon="5.85102">
        <ele>1143.2</ele>
        <time>2023-09-28T09:47:54Z</time>
      </trkpt>
      <trkpt lat="44.62892" lon="5.851">
        <ele>1143.4</ele>
        <time>2023-09-28T09:47:55Z</time>
      </trkpt>
      <trkpt lat="44.62895" lon="5.85098">
        <ele>1143.6</ele>
        <time>2023-09-28T09:47:56Z</time>
      </trkpt>
      <trkpt lat="44.62899" lon="5.85097">
        <ele>1143.8</ele>
        <time>2023-09-28T09:47:57Z</time>
      </trkpt>
      <trkpt lat="44.62902" lon="5.85096">
        <ele>1144</ele>
        <time>2023-09-28T09:47:58Z</time>
      </trkpt>
      <trkpt lat="44.62906" lon="5.85094">
        <ele>1144.2</ele>
        <time>2023-09-28T09:47:59Z</time>
      </trkpt>
      <trkpt lat="44.62909" lon="5.85093">
        <ele>1144.4</ele>
        <time>2023-09-28T09:48:01Z</time>
      </trkpt>
      <trkpt lat="44.62913" lon="5.85091">
        <ele>1144.6</ele>
        <time>2023-09-28T09:48:02Z</time>
      </trkpt>
      <trkpt lat="44.62916" lon="5.8509">
        <ele>1144.8</ele>
        <time>2023-09-28T09:48:03Z</time>
      </trkpt>
      <trkpt lat="44.6292" lon="5.8509">
        <ele>1145</ele>
        <time>2023-09-28T09:48:04Z</time>
      </trkpt>
      <trkpt lat="44.62923" lon="5.85087">
        <ele>1145.2</ele>
        <time>2023-09-28T09:48:05Z</time>
      </trkpt>
      <trkpt lat="44.62926" lon="5.85086">
        <ele>1145.4</ele>
        <time>2023-09-28T09:48:06Z</time>
      </trkpt>
      <trkpt lat="44.62929" lon="5.85084">
        <ele>1145.6</ele>
        <time>2023-09-28T09:48:07Z</time>
      </trkpt>
      <trkpt lat="44.62934" lon="5.85082">
        <ele>1145.9</ele>
        <time>2023-09-28T09:48:09Z</time>
      </trkpt>
      <trkpt lat="44.62937" lon="5.85081">
        <ele>1146.1</ele>
        <time>2023-09-28T09:48:10Z</time>
      </trkpt>
      <trkpt lat="44.6294" lon="5.8508">
        <ele>1146.2</ele>
        <time>2023-09-28T09:48:11Z</time>
      </trkpt>
      <trkpt lat="44.62944" lon="5.85079">
        <ele>1146.4</ele>
        <time>2023-09-28T09:48:12Z</time>
      </trkpt>
      <trkpt lat="44.62947" lon="5.85077">
        <ele>1146.6</ele>
        <time>2023-09-28T09:48:14Z</time>
      </trkpt>
      <trkpt lat="44.62953" lon="5.85076">
        <ele>1146.9</ele>
        <time>2023-09-28T09:48:15Z</time>
      </trkpt>
      <trkpt lat="44.62958" lon="5.85074">
        <ele>1147.2</ele>
        <time>2023-09-28T09:48:17Z</time>
      </trkpt>
      <trkpt lat="44.62961" lon="5.85073">
        <ele>1147.3</ele>
        <time>2023-09-28T09:48:18Z</time>
      </trkpt>
      <trkpt lat="44.62964" lon="5.85073">
        <ele>1147.5</ele>
        <time>2023-09-28T09:48:19Z</time>
      </trkpt>
      <trkpt lat="44.6297" lon="5.85071">
        <ele>1147.8</ele>
        <time>2023-09-28T09:48:21Z</time>
      </trkpt>
      <trkpt lat="44.62973" lon="5.85071">
        <ele>1147.9</ele>
        <time>2023-09-28T09:48:22Z</time>
      </trkpt>
      <trkpt lat="44.62976" lon="5.8507">
        <ele>1148.1</ele>
        <time>2023-09-28T09:48:23Z</time>
      </trkpt>
      <trkpt lat="44.62982" lon="5.85069">
        <ele>1148.3</ele>
        <time>2023-09-28T09:48:25Z</time>
      </trkpt>
      <trkpt lat="44.62985" lon="5.85068">
        <ele>1148.5</ele>
        <time>2023-09-28T09:48:26Z</time>
      </trkpt>
      <trkpt lat="44.62988" lon="5.85066">
        <ele>1148.6</ele>
        <time>2023-09-28T09:48:27Z</time>
      </trkpt>
      <trkpt lat="44.62992" lon="5.85066">
        <ele>1148.8</ele>
        <time>2023-09-28T09:48:29Z</time>
      </trkpt>
      <trkpt lat="44.62995" lon="5.85066">
        <ele>1148.9</ele>
        <time>2023-09-28T09:48:30Z</time>
      </trkpt>
      <trkpt lat="44.62998" lon="5.85065">
        <ele>1149</ele>
        <time>2023-09-28T09:48:31Z</time>
      </trkpt>
      <trkpt lat="44.63002" lon="5.85065">
        <ele>1149.2</ele>
        <time>2023-09-28T09:48:32Z</time>
      </trkpt>
      <trkpt lat="44.63005" lon="5.85064">
        <ele>1149.3</ele>
        <time>2023-09-28T09:48:33Z</time>
      </trkpt>
      <trkpt lat="44.63008" lon="5.85063">
        <ele>1149.4</ele>
        <time>2023-09-28T09:48:34Z</time>
      </trkpt>
      <trkpt lat="44.63011" lon="5.85063">
        <ele>1149.5</ele>
        <time>2023-09-28T09:48:35Z</time>
      </trkpt>
      <trkpt lat="44.63015" lon="5.85063">
        <ele>1149.7</ele>
        <time>2023-09-28T09:48:37Z</time>
      </trkpt>
      <trkpt lat="44.63018" lon="5.85063">
        <ele>1149.8</ele>
        <time>2023-09-28T09:48:38Z</time>
      </trkpt>
      <trkpt lat="44.63022" lon="5.85063">
        <ele>1150</ele>
        <time>2023-09-28T09:48:39Z</time>
      </trkpt>
      <trkpt lat="44.63028" lon="5.85063">
        <ele>1150.2</ele>
        <time>2023-09-28T09:48:41Z</time>
      </trkpt>
      <trkpt lat="44.6303" lon="5.85063">
        <ele>1150.3</ele>
        <time>2023-09-28T09:48:42Z</time>
      </trkpt>
      <trkpt lat="44.63034" lon="5.85063">
        <ele>1150.4</ele>
        <time>2023-09-28T09:48:43Z</time>
      </trkpt>
      <trkpt lat="44.63038" lon="5.85063">
        <ele>1150.6</ele>
        <time>2023-09-28T09:48:45Z</time>
      </trkpt>
      <trkpt lat="44.63041" lon="5.85064">
        <ele>1150.7</ele>
        <time>2023-09-28T09:48:46Z</time>
      </trkpt>
      <trkpt lat="44.63047" lon="5.85065">
        <ele>1151</ele>
        <time>2023-09-28T09:48:47Z</time>
      </trkpt>
      <trkpt lat="44.63051" lon="5.85064">
        <ele>1151.2</ele>
        <time>2023-09-28T09:48:49Z</time>
      </trkpt>
      <trkpt lat="44.63054" lon="5.85065">
        <ele>1151.3</ele>
        <time>2023-09-28T09:48:50Z</time>
      </trkpt>
      <trkpt lat="44.63058" lon="5.85065">
        <ele>1151.5</ele>
        <time>2023-09-28T09:48:51Z</time>
      </trkpt>
      <trkpt lat="44.63061" lon="5.85065">
        <ele>1151.6</ele>
        <time>2023-09-28T09:48:52Z</time>
      </trkpt>
      <trkpt lat="44.63065" lon="5.85065">
        <ele>1151.8</ele>
        <time>2023-09-28T09:48:53Z</time>
      </trkpt>
      <trkpt lat="44.63068" lon="5.85065">
        <ele>1151.9</ele>
        <time>2023-09-28T09:48:54Z</time>
      </trkpt>
      <trkpt lat="44.63071" lon="5.85065">
        <ele>1152</ele>
        <time>2023-09-28T09:48:55Z</time>
      </trkpt>
      <trkpt lat="44.63074" lon="5.85065">
        <ele>1152.2</ele>
        <time>2023-09-28T09:48:56Z</time>
      </trkpt>
      <trkpt lat="44.6308" lon="5.85065">
        <ele>1152.4</ele>
        <time>2023-09-28T09:48:58Z</time>
      </trkpt>
      <trkpt lat="44.63084" lon="5.85064">
        <ele>1152.6</ele>
        <time>2023-09-28T09:49:00Z</time>
      </trkpt>
      <trkpt lat="44.63088" lon="5.85064">
        <ele>1152.7</ele>
        <time>2023-09-28T09:49:01Z</time>
      </trkpt>
      <trkpt lat="44.63092" lon="5.85063">
        <ele>1152.9</ele>
        <time>2023-09-28T09:49:02Z</time>
      </trkpt>
      <trkpt lat="44.63094" lon="5.85063">
        <ele>1153</ele>
        <time>2023-09-28T09:49:03Z</time>
      </trkpt>
      <trkpt lat="44.63097" lon="5.85063">
        <ele>1153.1</ele>
        <time>2023-09-28T09:49:04Z</time>
      </trkpt>
      <trkpt lat="44.631" lon="5.85063">
        <ele>1153.3</ele>
        <time>2023-09-28T09:49:06Z</time>
      </trkpt>
      <trkpt lat="44.63103" lon="5.85062">
        <ele>1153.4</ele>
        <time>2023-09-28T09:49:07Z</time>
      </trkpt>
      <trkpt lat="44.63108" lon="5.85061">
        <ele>1153.6</ele>
        <time>2023-09-28T09:49:08Z</time>
      </trkpt>
      <trkpt lat="44.63112" lon="5.85061">
        <ele>1153.8</ele>
        <time>2023-09-28T09:49:10Z</time>
      </trkpt>
      <trkpt lat="44.63115" lon="5.85061">
        <ele>1153.9</ele>
        <time>2023-09-28T09:49:11Z</time>
      </trkpt>
      <trkpt lat="44.6312" lon="5.85061">
        <ele>1154.2</ele>
        <time>2023-09-28T09:49:12Z</time>
      </trkpt>
      <trkpt lat="44.63125" lon="5.85059">
        <ele>1154.4</ele>
        <time>2023-09-28T09:49:14Z</time>
      </trkpt>
      <trkpt lat="44.63129" lon="5.85059">
        <ele>1154.6</ele>
        <time>2023-09-28T09:49:15Z</time>
      </trkpt>
      <trkpt lat="44.63132" lon="5.85059">
        <ele>1154.7</ele>
        <time>2023-09-28T09:49:16Z</time>
      </trkpt>
      <trkpt lat="44.63135" lon="5.85058">
        <ele>1154.9</ele>
        <time>2023-09-28T09:49:17Z</time>
      </trkpt>
      <trkpt lat="44.63138" lon="5.85058">
        <ele>1155</ele>
        <time>2023-09-28T09:49:18Z</time>
      </trkpt>
      <trkpt lat="44.63142" lon="5.85058">
        <ele>1155.2</ele>
        <time>2023-09-28T09:49:20Z</time>
      </trkpt>
      <trkpt lat="44.63146" lon="5.85058">
        <ele>1155.4</ele>
        <time>2023-09-28T09:49:21Z</time>
      </trkpt>
      <trkpt lat="44.6315" lon="5.85058">
        <ele>1155.5</ele>
        <time>2023-09-28T09:49:22Z</time>
      </trkpt>
      <trkpt lat="44.63153" lon="5.85058">
        <ele>1155.7</ele>
        <time>2023-09-28T09:49:23Z</time>
      </trkpt>
      <trkpt lat="44.63156" lon="5.85058">
        <ele>1155.9</ele>
        <time>2023-09-28T09:49:24Z</time>
      </trkpt>
      <trkpt lat="44.6316" lon="5.85058">
        <ele>1156</ele>
        <time>2023-09-28T09:49:25Z</time>
      </trkpt>
      <trkpt lat="44.63164" lon="5.85057">
        <ele>1156.2</ele>
        <time>2023-09-28T09:49:27Z</time>
      </trkpt>
      <trkpt lat="44.63168" lon="5.85057">
        <ele>1156.5</ele>
        <time>2023-09-28T09:49:28Z</time>
      </trkpt>
      <trkpt lat="44.63171" lon="5.85057">
        <ele>1156.7</ele>
        <time>2023-09-28T09:49:29Z</time>
      </trkpt>
      <trkpt lat="44.63177" lon="5.85056">
        <ele>1156.9</ele>
        <time>2023-09-28T09:49:31Z</time>
      </trkpt>
      <trkpt lat="44.6318" lon="5.85056">
        <ele>1157.1</ele>
        <time>2023-09-28T09:49:32Z</time>
      </trkpt>
      <trkpt lat="44.63183" lon="5.85055">
        <ele>1157.3</ele>
        <time>2023-09-28T09:49:34Z</time>
      </trkpt>
      <trkpt lat="44.63186" lon="5.85055">
        <ele>1157.5</ele>
        <time>2023-09-28T09:49:35Z</time>
      </trkpt>
      <trkpt lat="44.6319" lon="5.85053">
        <ele>1157.8</ele>
        <time>2023-09-28T09:49:36Z</time>
      </trkpt>
      <trkpt lat="44.63193" lon="5.85052">
        <ele>1158</ele>
        <time>2023-09-28T09:49:37Z</time>
      </trkpt>
      <trkpt lat="44.63197" lon="5.85051">
        <ele>1158.3</ele>
        <time>2023-09-28T09:49:38Z</time>
      </trkpt>
      <trkpt lat="44.632" lon="5.85051">
        <ele>1158.5</ele>
        <time>2023-09-28T09:49:39Z</time>
      </trkpt>
      <trkpt lat="44.63203" lon="5.8505">
        <ele>1158.8</ele>
        <time>2023-09-28T09:49:40Z</time>
      </trkpt>
      <trkpt lat="44.63205" lon="5.85049">
        <ele>1158.9</ele>
        <time>2023-09-28T09:49:41Z</time>
      </trkpt>
      <trkpt lat="44.63209" lon="5.85048">
        <ele>1159.2</ele>
        <time>2023-09-28T09:49:43Z</time>
      </trkpt>
      <trkpt lat="44.63212" lon="5.85047">
        <ele>1159.5</ele>
        <time>2023-09-28T09:49:44Z</time>
      </trkpt>
      <trkpt lat="44.63215" lon="5.85047">
        <ele>1159.8</ele>
        <time>2023-09-28T09:49:45Z</time>
      </trkpt>
      <trkpt lat="44.63218" lon="5.85045">
        <ele>1160</ele>
        <time>2023-09-28T09:49:46Z</time>
      </trkpt>
      <trkpt lat="44.63221" lon="5.85044">
        <ele>1160.2</ele>
        <time>2023-09-28T09:49:47Z</time>
      </trkpt>
      <trkpt lat="44.63224" lon="5.85044">
        <ele>1160.5</ele>
        <time>2023-09-28T09:49:48Z</time>
      </trkpt>
      <trkpt lat="44.63227" lon="5.85043">
        <ele>1160.6</ele>
        <time>2023-09-28T09:49:49Z</time>
      </trkpt>
      <trkpt lat="44.63231" lon="5.85042">
        <ele>1160.9</ele>
        <time>2023-09-28T09:49:51Z</time>
      </trkpt>
      <trkpt lat="44.63236" lon="5.8504">
        <ele>1161.2</ele>
        <time>2023-09-28T09:49:52Z</time>
      </trkpt>
      <trkpt lat="44.6324" lon="5.85038">
        <ele>1161.6</ele>
        <time>2023-09-28T09:49:54Z</time>
      </trkpt>
      <trkpt lat="44.63244" lon="5.85036">
        <ele>1161.8</ele>
        <time>2023-09-28T09:49:55Z</time>
      </trkpt>
      <trkpt lat="44.63245" lon="5.85036">
        <ele>1162</ele>
        <time>2023-09-28T09:49:56Z</time>
      </trkpt>
      <trkpt lat="44.63248" lon="5.85035">
        <ele>1162.1</ele>
        <time>2023-09-28T09:49:57Z</time>
      </trkpt>
      <trkpt lat="44.63251" lon="5.85034">
        <ele>1162.3</ele>
        <time>2023-09-28T09:49:59Z</time>
      </trkpt>
      <trkpt lat="44.63255" lon="5.85033">
        <ele>1162.7</ele>
        <time>2023-09-28T09:50:00Z</time>
      </trkpt>
      <trkpt lat="44.6326" lon="5.85028">
        <ele>1163.1</ele>
        <time>2023-09-28T09:50:02Z</time>
      </trkpt>
      <trkpt lat="44.63264" lon="5.85024">
        <ele>1163.4</ele>
        <time>2023-09-28T09:50:04Z</time>
      </trkpt>
      <trkpt lat="44.63265" lon="5.85023">
        <ele>1163.6</ele>
        <time>2023-09-28T09:50:05Z</time>
      </trkpt>
      <trkpt lat="44.63267" lon="5.85022">
        <ele>1163.7</ele>
        <time>2023-09-28T09:50:06Z</time>
      </trkpt>
      <trkpt lat="44.63271" lon="5.85022">
        <ele>1164</ele>
        <time>2023-09-28T09:50:07Z</time>
      </trkpt>
      <trkpt lat="44.63273" lon="5.85022">
        <ele>1164.1</ele>
        <time>2023-09-28T09:50:08Z</time>
      </trkpt>
      <trkpt lat="44.63274" lon="5.85023">
        <ele>1164.2</ele>
        <time>2023-09-28T09:50:09Z</time>
      </trkpt>
      <trkpt lat="44.63274" lon="5.85024">
        <ele>1164.3</ele>
        <time>2023-09-28T09:50:11Z</time>
      </trkpt>
      <trkpt lat="44.63275" lon="5.85024">
        <ele>1164.3</ele>
        <time>2023-09-28T09:50:12Z</time>
      </trkpt>
      <trkpt lat="44.63275" lon="5.85025">
        <ele>1164.4</ele>
        <time>2023-09-28T09:50:13Z</time>
      </trkpt>
      <trkpt lat="44.63276" lon="5.85026">
        <ele>1164.4</ele>
        <time>2023-09-28T09:50:15Z</time>
      </trkpt>
      <trkpt lat="44.63276" lon="5.85027">
        <ele>1164.5</ele>
        <time>2023-09-28T09:50:16Z</time>
      </trkpt>
      <trkpt lat="44.63276" lon="5.85027">
        <ele>1164.5</ele>
        <time>2023-09-28T09:50:17Z</time>
      </trkpt>
      <trkpt lat="44.63277" lon="5.85028">
        <ele>1164.5</ele>
        <time>2023-09-28T09:50:19Z</time>
      </trkpt>
      <trkpt lat="44.63277" lon="5.85029">
        <ele>1164.6</ele>
        <time>2023-09-28T09:50:36Z</time>
      </trkpt>
      <trkpt lat="44.63277" lon="5.8503">
        <ele>1164.6</ele>
        <time>2023-09-28T09:50:37Z</time>
      </trkpt>
      <trkpt lat="44.63278" lon="5.8503">
        <ele>1164.7</ele>
        <time>2023-09-28T09:50:38Z</time>
      </trkpt>
      <trkpt lat="44.63282" lon="5.85031">
        <ele>1165</ele>
        <time>2023-09-28T09:50:39Z</time>
      </trkpt>
      <trkpt lat="44.63285" lon="5.85032">
        <ele>1165.2</ele>
        <time>2023-09-28T09:50:40Z</time>
      </trkpt>
      <trkpt lat="44.63288" lon="5.85032">
        <ele>1165.4</ele>
        <time>2023-09-28T09:50:41Z</time>
      </trkpt>
      <trkpt lat="44.63291" lon="5.85032">
        <ele>1165.7</ele>
        <time>2023-09-28T09:50:42Z</time>
      </trkpt>
      <trkpt lat="44.63294" lon="5.85033">
        <ele>1165.9</ele>
        <time>2023-09-28T09:50:43Z</time>
      </trkpt>
      <trkpt lat="44.63298" lon="5.85034">
        <ele>1166.1</ele>
        <time>2023-09-28T09:50:45Z</time>
      </trkpt>
      <trkpt lat="44.63302" lon="5.85035">
        <ele>1166.5</ele>
        <time>2023-09-28T09:50:46Z</time>
      </trkpt>
      <trkpt lat="44.63306" lon="5.85035">
        <ele>1166.7</ele>
        <time>2023-09-28T09:50:47Z</time>
      </trkpt>
      <trkpt lat="44.63308" lon="5.85035">
        <ele>1166.9</ele>
        <time>2023-09-28T09:50:49Z</time>
      </trkpt>
      <trkpt lat="44.63311" lon="5.85038">
        <ele>1167.1</ele>
        <time>2023-09-28T09:50:50Z</time>
      </trkpt>
      <trkpt lat="44.63315" lon="5.85039">
        <ele>1167.3</ele>
        <time>2023-09-28T09:50:51Z</time>
      </trkpt>
      <trkpt lat="44.63316" lon="5.8504">
        <ele>1167.4</ele>
        <time>2023-09-28T09:50:52Z</time>
      </trkpt>
      <trkpt lat="44.63319" lon="5.85041">
        <ele>1167.6</ele>
        <time>2023-09-28T09:50:53Z</time>
      </trkpt>
      <trkpt lat="44.63321" lon="5.85042">
        <ele>1167.8</ele>
        <time>2023-09-28T09:50:54Z</time>
      </trkpt>
      <trkpt lat="44.63325" lon="5.85043">
        <ele>1168.2</ele>
        <time>2023-09-28T09:50:55Z</time>
      </trkpt>
      <trkpt lat="44.63326" lon="5.85044">
        <ele>1168.3</ele>
        <time>2023-09-28T09:50:56Z</time>
      </trkpt>
      <trkpt lat="44.63329" lon="5.85045">
        <ele>1168.5</ele>
        <time>2023-09-28T09:50:57Z</time>
      </trkpt>
      <trkpt lat="44.63331" lon="5.85046">
        <ele>1168.7</ele>
        <time>2023-09-28T09:50:58Z</time>
      </trkpt>
      <trkpt lat="44.63336" lon="5.85048">
        <ele>1169.1</ele>
        <time>2023-09-28T09:51:00Z</time>
      </trkpt>
      <trkpt lat="44.6334" lon="5.85049">
        <ele>1169.4</ele>
        <time>2023-09-28T09:51:02Z</time>
      </trkpt>
      <trkpt lat="44.63342" lon="5.85051">
        <ele>1169.7</ele>
        <time>2023-09-28T09:51:03Z</time>
      </trkpt>
      <trkpt lat="44.63346" lon="5.85053">
        <ele>1170</ele>
        <time>2023-09-28T09:51:04Z</time>
      </trkpt>
      <trkpt lat="44.63347" lon="5.85054">
        <ele>1170.1</ele>
        <time>2023-09-28T09:51:05Z</time>
      </trkpt>
      <trkpt lat="44.6335" lon="5.85055">
        <ele>1170.4</ele>
        <time>2023-09-28T09:51:06Z</time>
      </trkpt>
      <trkpt lat="44.63354" lon="5.85055">
        <ele>1170.7</ele>
        <time>2023-09-28T09:51:07Z</time>
      </trkpt>
      <trkpt lat="44.63356" lon="5.85055">
        <ele>1170.8</ele>
        <time>2023-09-28T09:51:08Z</time>
      </trkpt>
      <trkpt lat="44.63359" lon="5.85056">
        <ele>1171.1</ele>
        <time>2023-09-28T09:51:10Z</time>
      </trkpt>
      <trkpt lat="44.63363" lon="5.85056">
        <ele>1171.4</ele>
        <time>2023-09-28T09:51:11Z</time>
      </trkpt>
      <trkpt lat="44.63366" lon="5.85056">
        <ele>1171.7</ele>
        <time>2023-09-28T09:51:12Z</time>
      </trkpt>
      <trkpt lat="44.6337" lon="5.85056">
        <ele>1172</ele>
        <time>2023-09-28T09:51:14Z</time>
      </trkpt>
      <trkpt lat="44.63373" lon="5.85055">
        <ele>1172.3</ele>
        <time>2023-09-28T09:51:15Z</time>
      </trkpt>
      <trkpt lat="44.63375" lon="5.85054">
        <ele>1172.5</ele>
        <time>2023-09-28T09:51:16Z</time>
      </trkpt>
      <trkpt lat="44.6338" lon="5.85054">
        <ele>1172.9</ele>
        <time>2023-09-28T09:51:18Z</time>
      </trkpt>
      <trkpt lat="44.63382" lon="5.85054">
        <ele>1173.1</ele>
        <time>2023-09-28T09:51:19Z</time>
      </trkpt>
      <trkpt lat="44.63383" lon="5.85054">
        <ele>1173.2</ele>
        <time>2023-09-28T09:51:20Z</time>
      </trkpt>
      <trkpt lat="44.63387" lon="5.85053">
        <ele>1173.5</ele>
        <time>2023-09-28T09:51:21Z</time>
      </trkpt>
      <trkpt lat="44.6339" lon="5.85052">
        <ele>1173.8</ele>
        <time>2023-09-28T09:51:22Z</time>
      </trkpt>
      <trkpt lat="44.63391" lon="5.85051">
        <ele>1173.9</ele>
        <time>2023-09-28T09:51:23Z</time>
      </trkpt>
      <trkpt lat="44.63393" lon="5.8505">
        <ele>1174.1</ele>
        <time>2023-09-28T09:51:24Z</time>
      </trkpt>
      <trkpt lat="44.63396" lon="5.85049">
        <ele>1174.3</ele>
        <time>2023-09-28T09:51:26Z</time>
      </trkpt>
      <trkpt lat="44.634" lon="5.85047">
        <ele>1174.6</ele>
        <time>2023-09-28T09:51:27Z</time>
      </trkpt>
      <trkpt lat="44.63401" lon="5.85047">
        <ele>1174.7</ele>
        <time>2023-09-28T09:51:28Z</time>
      </trkpt>
      <trkpt lat="44.63404" lon="5.85046">
        <ele>1175</ele>
        <time>2023-09-28T09:51:29Z</time>
      </trkpt>
      <trkpt lat="44.63405" lon="5.85045">
        <ele>1175.1</ele>
        <time>2023-09-28T09:51:30Z</time>
      </trkpt>
      <trkpt lat="44.63409" lon="5.85045">
        <ele>1175.4</ele>
        <time>2023-09-28T09:51:31Z</time>
      </trkpt>
      <trkpt lat="44.6341" lon="5.85045">
        <ele>1175.5</ele>
        <time>2023-09-28T09:51:32Z</time>
      </trkpt>
      <trkpt lat="44.63413" lon="5.85043">
        <ele>1175.7</ele>
        <time>2023-09-28T09:51:33Z</time>
      </trkpt>
      <trkpt lat="44.63416" lon="5.85042">
        <ele>1176</ele>
        <time>2023-09-28T09:51:34Z</time>
      </trkpt>
      <trkpt lat="44.63418" lon="5.85042">
        <ele>1176.1</ele>
        <time>2023-09-28T09:51:35Z</time>
      </trkpt>
      <trkpt lat="44.6342" lon="5.85042">
        <ele>1176.3</ele>
        <time>2023-09-28T09:51:36Z</time>
      </trkpt>
      <trkpt lat="44.63423" lon="5.85041">
        <ele>1176.5</ele>
        <time>2023-09-28T09:51:38Z</time>
      </trkpt>
      <trkpt lat="44.63427" lon="5.8504">
        <ele>1176.8</ele>
        <time>2023-09-28T09:51:39Z</time>
      </trkpt>
      <trkpt lat="44.63428" lon="5.8504">
        <ele>1176.9</ele>
        <time>2023-09-28T09:51:40Z</time>
      </trkpt>
      <trkpt lat="44.63431" lon="5.8504">
        <ele>1177.2</ele>
        <time>2023-09-28T09:51:41Z</time>
      </trkpt>
      <trkpt lat="44.63434" lon="5.8504">
        <ele>1177.4</ele>
        <time>2023-09-28T09:51:42Z</time>
      </trkpt>
      <trkpt lat="44.63436" lon="5.85039">
        <ele>1177.5</ele>
        <time>2023-09-28T09:51:43Z</time>
      </trkpt>
      <trkpt lat="44.63438" lon="5.85039">
        <ele>1177.7</ele>
        <time>2023-09-28T09:51:44Z</time>
      </trkpt>
      <trkpt lat="44.63441" lon="5.8504">
        <ele>1178</ele>
        <time>2023-09-28T09:51:46Z</time>
      </trkpt>
      <trkpt lat="44.63445" lon="5.85041">
        <ele>1178.3</ele>
        <time>2023-09-28T09:51:47Z</time>
      </trkpt>
      <trkpt lat="44.63447" lon="5.85042">
        <ele>1178.5</ele>
        <time>2023-09-28T09:51:48Z</time>
      </trkpt>
      <trkpt lat="44.63451" lon="5.85044">
        <ele>1178.8</ele>
        <time>2023-09-28T09:51:49Z</time>
      </trkpt>
      <trkpt lat="44.63453" lon="5.85044">
        <ele>1178.9</ele>
        <time>2023-09-28T09:51:50Z</time>
      </trkpt>
      <trkpt lat="44.63455" lon="5.85046">
        <ele>1179.2</ele>
        <time>2023-09-28T09:51:52Z</time>
      </trkpt>
      <trkpt lat="44.63458" lon="5.85048">
        <ele>1179.5</ele>
        <time>2023-09-28T09:51:53Z</time>
      </trkpt>
      <trkpt lat="44.63461" lon="5.8505">
        <ele>1179.7</ele>
        <time>2023-09-28T09:51:54Z</time>
      </trkpt>
      <trkpt lat="44.63466" lon="5.85054">
        <ele>1180.2</ele>
        <time>2023-09-28T09:51:56Z</time>
      </trkpt>
      <trkpt lat="44.63467" lon="5.85055">
        <ele>1180.3</ele>
        <time>2023-09-28T09:51:57Z</time>
      </trkpt>
      <trkpt lat="44.63469" lon="5.85057">
        <ele>1180.5</ele>
        <time>2023-09-28T09:51:58Z</time>
      </trkpt>
      <trkpt lat="44.63472" lon="5.85059">
        <ele>1180.8</ele>
        <time>2023-09-28T09:51:59Z</time>
      </trkpt>
      <trkpt lat="44.63473" lon="5.8506">
        <ele>1180.9</ele>
        <time>2023-09-28T09:52:00Z</time>
      </trkpt>
      <trkpt lat="44.63475" lon="5.85062">
        <ele>1181.1</ele>
        <time>2023-09-28T09:52:01Z</time>
      </trkpt>
      <trkpt lat="44.63478" lon="5.85065">
        <ele>1181.3</ele>
        <time>2023-09-28T09:52:03Z</time>
      </trkpt>
      <trkpt lat="44.63481" lon="5.85068">
        <ele>1181.6</ele>
        <time>2023-09-28T09:52:04Z</time>
      </trkpt>
      <trkpt lat="44.63482" lon="5.85069">
        <ele>1181.7</ele>
        <time>2023-09-28T09:52:05Z</time>
      </trkpt>
      <trkpt lat="44.63484" lon="5.85072">
        <ele>1182</ele>
        <time>2023-09-28T09:52:06Z</time>
      </trkpt>
      <trkpt lat="44.63484" lon="5.85073">
        <ele>1182.1</ele>
        <time>2023-09-28T09:52:07Z</time>
      </trkpt>
      <trkpt lat="44.63488" lon="5.85076">
        <ele>1182.4</ele>
        <time>2023-09-28T09:52:09Z</time>
      </trkpt>
      <trkpt lat="44.63489" lon="5.85077">
        <ele>1182.5</ele>
        <time>2023-09-28T09:52:10Z</time>
      </trkpt>
      <trkpt lat="44.6349" lon="5.85078">
        <ele>1182.6</ele>
        <time>2023-09-28T09:52:11Z</time>
      </trkpt>
      <trkpt lat="44.63493" lon="5.85081">
        <ele>1182.8</ele>
        <time>2023-09-28T09:52:12Z</time>
      </trkpt>
      <trkpt lat="44.63494" lon="5.85081">
        <ele>1182.9</ele>
        <time>2023-09-28T09:52:13Z</time>
      </trkpt>
      <trkpt lat="44.63496" lon="5.85083">
        <ele>1183.1</ele>
        <time>2023-09-28T09:52:14Z</time>
      </trkpt>
      <trkpt lat="44.63499" lon="5.85085">
        <ele>1183.4</ele>
        <time>2023-09-28T09:52:16Z</time>
      </trkpt>
      <trkpt lat="44.63501" lon="5.85087">
        <ele>1183.6</ele>
        <time>2023-09-28T09:52:18Z</time>
      </trkpt>
      <trkpt lat="44.63504" lon="5.85088">
        <ele>1183.8</ele>
        <time>2023-09-28T09:52:19Z</time>
      </trkpt>
      <trkpt lat="44.63505" lon="5.85089">
        <ele>1183.9</ele>
        <time>2023-09-28T09:52:20Z</time>
      </trkpt>
      <trkpt lat="44.63508" lon="5.8509">
        <ele>1184.2</ele>
        <time>2023-09-28T09:52:21Z</time>
      </trkpt>
      <trkpt lat="44.63509" lon="5.85091">
        <ele>1184.3</ele>
        <time>2023-09-28T09:52:22Z</time>
      </trkpt>
      <trkpt lat="44.63511" lon="5.85092">
        <ele>1184.4</ele>
        <time>2023-09-28T09:52:23Z</time>
      </trkpt>
      <trkpt lat="44.63513" lon="5.85093">
        <ele>1184.6</ele>
        <time>2023-09-28T09:52:25Z</time>
      </trkpt>
      <trkpt lat="44.63517" lon="5.85095">
        <ele>1184.9</ele>
        <time>2023-09-28T09:52:26Z</time>
      </trkpt>
      <trkpt lat="44.63517" lon="5.85095">
        <ele>1185</ele>
        <time>2023-09-28T09:52:27Z</time>
      </trkpt>
      <trkpt lat="44.6352" lon="5.85097">
        <ele>1185.3</ele>
        <time>2023-09-28T09:52:28Z</time>
      </trkpt>
      <trkpt lat="44.63522" lon="5.85097">
        <ele>1185.4</ele>
        <time>2023-09-28T09:52:29Z</time>
      </trkpt>
      <trkpt lat="44.63524" lon="5.85098">
        <ele>1185.6</ele>
        <time>2023-09-28T09:52:30Z</time>
      </trkpt>
      <trkpt lat="44.63526" lon="5.85098">
        <ele>1185.8</ele>
        <time>2023-09-28T09:52:32Z</time>
      </trkpt>
      <trkpt lat="44.6353" lon="5.85099">
        <ele>1186.1</ele>
        <time>2023-09-28T09:52:33Z</time>
      </trkpt>
      <trkpt lat="44.63531" lon="5.85099">
        <ele>1186.2</ele>
        <time>2023-09-28T09:52:34Z</time>
      </trkpt>
      <trkpt lat="44.63534" lon="5.85099">
        <ele>1186.5</ele>
        <time>2023-09-28T09:52:35Z</time>
      </trkpt>
      <trkpt lat="44.63535" lon="5.851">
        <ele>1186.6</ele>
        <time>2023-09-28T09:52:36Z</time>
      </trkpt>
      <trkpt lat="44.63538" lon="5.85101">
        <ele>1186.9</ele>
        <time>2023-09-28T09:52:37Z</time>
      </trkpt>
      <trkpt lat="44.63539" lon="5.85101">
        <ele>1187</ele>
        <time>2023-09-28T09:52:38Z</time>
      </trkpt>
      <trkpt lat="44.63542" lon="5.85102">
        <ele>1187.3</ele>
        <time>2023-09-28T09:52:39Z</time>
      </trkpt>
      <trkpt lat="44.63544" lon="5.85102">
        <ele>1187.4</ele>
        <time>2023-09-28T09:52:40Z</time>
      </trkpt>
      <trkpt lat="44.63547" lon="5.85101">
        <ele>1187.7</ele>
        <time>2023-09-28T09:52:42Z</time>
      </trkpt>
      <trkpt lat="44.63548" lon="5.85102">
        <ele>1187.8</ele>
        <time>2023-09-28T09:52:43Z</time>
      </trkpt>
      <trkpt lat="44.63551" lon="5.85103">
        <ele>1188.2</ele>
        <time>2023-09-28T09:52:44Z</time>
      </trkpt>
      <trkpt lat="44.63553" lon="5.85104">
        <ele>1188.3</ele>
        <time>2023-09-28T09:52:45Z</time>
      </trkpt>
      <trkpt lat="44.63556" lon="5.85105">
        <ele>1188.6</ele>
        <time>2023-09-28T09:52:46Z</time>
      </trkpt>
      <trkpt lat="44.63557" lon="5.85105">
        <ele>1188.7</ele>
        <time>2023-09-28T09:52:47Z</time>
      </trkpt>
      <trkpt lat="44.63558" lon="5.85106">
        <ele>1188.8</ele>
        <time>2023-09-28T09:52:48Z</time>
      </trkpt>
      <trkpt lat="44.63561" lon="5.85106">
        <ele>1189.1</ele>
        <time>2023-09-28T09:52:50Z</time>
      </trkpt>
      <trkpt lat="44.63564" lon="5.85107">
        <ele>1189.3</ele>
        <time>2023-09-28T09:52:51Z</time>
      </trkpt>
      <trkpt lat="44.63565" lon="5.85107">
        <ele>1189.4</ele>
        <time>2023-09-28T09:52:52Z</time>
      </trkpt>
      <trkpt lat="44.63568" lon="5.85108">
        <ele>1189.6</ele>
        <time>2023-09-28T09:52:53Z</time>
      </trkpt>
      <trkpt lat="44.63568" lon="5.85108">
        <ele>1189.7</ele>
        <time>2023-09-28T09:52:54Z</time>
      </trkpt>
      <trkpt lat="44.63571" lon="5.85108">
        <ele>1189.9</ele>
        <time>2023-09-28T09:52:55Z</time>
      </trkpt>
      <trkpt lat="44.63572" lon="5.85108">
        <ele>1190</ele>
        <time>2023-09-28T09:52:56Z</time>
      </trkpt>
      <trkpt lat="44.63576" lon="5.85109">
        <ele>1190.3</ele>
        <time>2023-09-28T09:52:58Z</time>
      </trkpt>
      <trkpt lat="44.63577" lon="5.85109">
        <ele>1190.4</ele>
        <time>2023-09-28T09:52:59Z</time>
      </trkpt>
      <trkpt lat="44.6358" lon="5.85109">
        <ele>1190.7</ele>
        <time>2023-09-28T09:53:00Z</time>
      </trkpt>
      <trkpt lat="44.63581" lon="5.85109">
        <ele>1190.8</ele>
        <time>2023-09-28T09:53:01Z</time>
      </trkpt>
      <trkpt lat="44.63584" lon="5.8511">
        <ele>1191</ele>
        <time>2023-09-28T09:53:02Z</time>
      </trkpt>
      <trkpt lat="44.63585" lon="5.8511">
        <ele>1191.1</ele>
        <time>2023-09-28T09:53:03Z</time>
      </trkpt>
      <trkpt lat="44.63587" lon="5.85111">
        <ele>1191.3</ele>
        <time>2023-09-28T09:53:04Z</time>
      </trkpt>
      <trkpt lat="44.63588" lon="5.85111">
        <ele>1191.4</ele>
        <time>2023-09-28T09:53:05Z</time>
      </trkpt>
      <trkpt lat="44.63589" lon="5.85111">
        <ele>1191.4</ele>
        <time>2023-09-28T09:53:07Z</time>
      </trkpt>
      <trkpt lat="44.63589" lon="5.85112">
        <ele>1191.5</ele>
        <time>2023-09-28T09:53:08Z</time>
      </trkpt>
      <trkpt lat="44.6359" lon="5.85112">
        <ele>1191.5</ele>
        <time>2023-09-28T09:53:09Z</time>
      </trkpt>
      <trkpt lat="44.63591" lon="5.85112">
        <ele>1191.6</ele>
        <time>2023-09-28T09:53:11Z</time>
      </trkpt>
      <trkpt lat="44.63591" lon="5.85112">
        <ele>1191.6</ele>
        <time>2023-09-28T09:53:12Z</time>
      </trkpt>
      <trkpt lat="44.63592" lon="5.85112">
        <ele>1191.7</ele>
        <time>2023-09-28T09:53:13Z</time>
      </trkpt>
      <trkpt lat="44.63593" lon="5.85112">
        <ele>1191.8</ele>
        <time>2023-09-28T09:53:15Z</time>
      </trkpt>
      <trkpt lat="44.63593" lon="5.85113">
        <ele>1191.8</ele>
        <time>2023-09-28T09:54:02Z</time>
      </trkpt>
      <trkpt lat="44.63594" lon="5.85113">
        <ele>1191.9</ele>
        <time>2023-09-28T09:54:03Z</time>
      </trkpt>
      <trkpt lat="44.63597" lon="5.85113">
        <ele>1192.1</ele>
        <time>2023-09-28T09:54:05Z</time>
      </trkpt>
      <trkpt lat="44.63601" lon="5.85112">
        <ele>1192.5</ele>
        <time>2023-09-28T09:54:06Z</time>
      </trkpt>
      <trkpt lat="44.63604" lon="5.85112">
        <ele>1192.7</ele>
        <time>2023-09-28T09:54:07Z</time>
      </trkpt>
      <trkpt lat="44.63608" lon="5.85112">
        <ele>1193.1</ele>
        <time>2023-09-28T09:54:09Z</time>
      </trkpt>
      <trkpt lat="44.63612" lon="5.85112">
        <ele>1193.5</ele>
        <time>2023-09-28T09:54:10Z</time>
      </trkpt>
      <trkpt lat="44.63613" lon="5.85111">
        <ele>1193.6</ele>
        <time>2023-09-28T09:54:11Z</time>
      </trkpt>
      <trkpt lat="44.63618" lon="5.85111">
        <ele>1194</ele>
        <time>2023-09-28T09:54:13Z</time>
      </trkpt>
      <trkpt lat="44.63619" lon="5.85111">
        <ele>1194.2</ele>
        <time>2023-09-28T09:54:14Z</time>
      </trkpt>
      <trkpt lat="44.63621" lon="5.85112">
        <ele>1194.3</ele>
        <time>2023-09-28T09:54:15Z</time>
      </trkpt>
      <trkpt lat="44.63624" lon="5.85112">
        <ele>1194.6</ele>
        <time>2023-09-28T09:54:16Z</time>
      </trkpt>
      <trkpt lat="44.63628" lon="5.85111">
        <ele>1195</ele>
        <time>2023-09-28T09:54:17Z</time>
      </trkpt>
      <trkpt lat="44.63629" lon="5.85111">
        <ele>1195.1</ele>
        <time>2023-09-28T09:54:18Z</time>
      </trkpt>
      <trkpt lat="44.63632" lon="5.85111">
        <ele>1195.3</ele>
        <time>2023-09-28T09:54:19Z</time>
      </trkpt>
      <trkpt lat="44.63635" lon="5.85111">
        <ele>1195.6</ele>
        <time>2023-09-28T09:54:20Z</time>
      </trkpt>
      <trkpt lat="44.63638" lon="5.85111">
        <ele>1195.9</ele>
        <time>2023-09-28T09:54:22Z</time>
      </trkpt>
      <trkpt lat="44.6364" lon="5.85111">
        <ele>1196.2</ele>
        <time>2023-09-28T09:54:23Z</time>
      </trkpt>
      <trkpt lat="44.63643" lon="5.85111">
        <ele>1196.4</ele>
        <time>2023-09-28T09:54:24Z</time>
      </trkpt>
      <trkpt lat="44.63647" lon="5.85111">
        <ele>1196.8</ele>
        <time>2023-09-28T09:54:25Z</time>
      </trkpt>
      <trkpt lat="44.63648" lon="5.85111">
        <ele>1196.9</ele>
        <time>2023-09-28T09:54:26Z</time>
      </trkpt>
      <trkpt lat="44.63651" lon="5.8511">
        <ele>1197.2</ele>
        <time>2023-09-28T09:54:27Z</time>
      </trkpt>
      <trkpt lat="44.63654" lon="5.8511">
        <ele>1197.5</ele>
        <time>2023-09-28T09:54:29Z</time>
      </trkpt>
      <trkpt lat="44.63657" lon="5.85109">
        <ele>1197.7</ele>
        <time>2023-09-28T09:54:30Z</time>
      </trkpt>
      <trkpt lat="44.6366" lon="5.85108">
        <ele>1198</ele>
        <time>2023-09-28T09:54:31Z</time>
      </trkpt>
      <trkpt lat="44.63663" lon="5.85107">
        <ele>1198.3</ele>
        <time>2023-09-28T09:54:32Z</time>
      </trkpt>
      <trkpt lat="44.63667" lon="5.85106">
        <ele>1198.6</ele>
        <time>2023-09-28T09:54:33Z</time>
      </trkpt>
      <trkpt lat="44.63668" lon="5.85106">
        <ele>1198.8</ele>
        <time>2023-09-28T09:54:34Z</time>
      </trkpt>
      <trkpt lat="44.63671" lon="5.85105">
        <ele>1199</ele>
        <time>2023-09-28T09:54:35Z</time>
      </trkpt>
      <trkpt lat="44.63674" lon="5.85103">
        <ele>1199.3</ele>
        <time>2023-09-28T09:54:36Z</time>
      </trkpt>
      <trkpt lat="44.63676" lon="5.85101">
        <ele>1199.5</ele>
        <time>2023-09-28T09:54:38Z</time>
      </trkpt>
      <trkpt lat="44.63679" lon="5.851">
        <ele>1199.7</ele>
        <time>2023-09-28T09:54:39Z</time>
      </trkpt>
      <trkpt lat="44.63682" lon="5.85098">
        <ele>1200</ele>
        <time>2023-09-28T09:54:40Z</time>
      </trkpt>
      <trkpt lat="44.63686" lon="5.85095">
        <ele>1200.4</ele>
        <time>2023-09-28T09:54:41Z</time>
      </trkpt>
      <trkpt lat="44.63687" lon="5.85095">
        <ele>1200.5</ele>
        <time>2023-09-28T09:54:42Z</time>
      </trkpt>
      <trkpt lat="44.63689" lon="5.85092">
        <ele>1200.8</ele>
        <time>2023-09-28T09:54:43Z</time>
      </trkpt>
      <trkpt lat="44.63691" lon="5.85089">
        <ele>1201</ele>
        <time>2023-09-28T09:54:44Z</time>
      </trkpt>
      <trkpt lat="44.63694" lon="5.85087">
        <ele>1201.3</ele>
        <time>2023-09-28T09:54:45Z</time>
      </trkpt>
      <trkpt lat="44.63697" lon="5.85085">
        <ele>1201.5</ele>
        <time>2023-09-28T09:54:47Z</time>
      </trkpt>
      <trkpt lat="44.63699" lon="5.85083">
        <ele>1201.8</ele>
        <time>2023-09-28T09:54:48Z</time>
      </trkpt>
      <trkpt lat="44.63702" lon="5.8508">
        <ele>1202.1</ele>
        <time>2023-09-28T09:54:49Z</time>
      </trkpt>
      <trkpt lat="44.63703" lon="5.85079">
        <ele>1202.2</ele>
        <time>2023-09-28T09:54:50Z</time>
      </trkpt>
      <trkpt lat="44.63705" lon="5.85077">
        <ele>1202.5</ele>
        <time>2023-09-28T09:54:51Z</time>
      </trkpt>
      <trkpt lat="44.63708" lon="5.85074">
        <ele>1202.7</ele>
        <time>2023-09-28T09:54:52Z</time>
      </trkpt>
      <trkpt lat="44.6371" lon="5.8507">
        <ele>1203</ele>
        <time>2023-09-28T09:54:53Z</time>
      </trkpt>
      <trkpt lat="44.63711" lon="5.85068">
        <ele>1203.2</ele>
        <time>2023-09-28T09:54:54Z</time>
      </trkpt>
      <trkpt lat="44.63715" lon="5.85065">
        <ele>1203.5</ele>
        <time>2023-09-28T09:54:56Z</time>
      </trkpt>
      <trkpt lat="44.63717" lon="5.85061">
        <ele>1203.8</ele>
        <time>2023-09-28T09:54:57Z</time>
      </trkpt>
      <trkpt lat="44.63719" lon="5.85058">
        <ele>1204.1</ele>
        <time>2023-09-28T09:54:58Z</time>
      </trkpt>
      <trkpt lat="44.6372" lon="5.85057">
        <ele>1204.2</ele>
        <time>2023-09-28T09:54:59Z</time>
      </trkpt>
      <trkpt lat="44.63723" lon="5.85053">
        <ele>1204.5</ele>
        <time>2023-09-28T09:55:01Z</time>
      </trkpt>
      <trkpt lat="44.63725" lon="5.8505">
        <ele>1204.8</ele>
        <time>2023-09-28T09:55:02Z</time>
      </trkpt>
      <trkpt lat="44.63727" lon="5.85047">
        <ele>1205</ele>
        <time>2023-09-28T09:55:03Z</time>
      </trkpt>
      <trkpt lat="44.63729" lon="5.85044">
        <ele>1205.3</ele>
        <time>2023-09-28T09:55:04Z</time>
      </trkpt>
      <trkpt lat="44.63732" lon="5.8504">
        <ele>1205.6</ele>
        <time>2023-09-28T09:55:05Z</time>
      </trkpt>
      <trkpt lat="44.63733" lon="5.85039">
        <ele>1205.8</ele>
        <time>2023-09-28T09:55:06Z</time>
      </trkpt>
      <trkpt lat="44.63736" lon="5.85033">
        <ele>1206.2</ele>
        <time>2023-09-28T09:55:08Z</time>
      </trkpt>
      <trkpt lat="44.63737" lon="5.85032">
        <ele>1206.3</ele>
        <time>2023-09-28T09:55:09Z</time>
      </trkpt>
      <trkpt lat="44.63738" lon="5.8503">
        <ele>1206.4</ele>
        <time>2023-09-28T09:55:10Z</time>
      </trkpt>
      <trkpt lat="44.6374" lon="5.85027">
        <ele>1206.7</ele>
        <time>2023-09-28T09:55:11Z</time>
      </trkpt>
      <trkpt lat="44.63742" lon="5.85025">
        <ele>1206.9</ele>
        <time>2023-09-28T09:55:12Z</time>
      </trkpt>
      <trkpt lat="44.63744" lon="5.85021">
        <ele>1207.2</ele>
        <time>2023-09-28T09:55:13Z</time>
      </trkpt>
      <trkpt lat="44.63746" lon="5.85017">
        <ele>1207.6</ele>
        <time>2023-09-28T09:55:14Z</time>
      </trkpt>
      <trkpt lat="44.63747" lon="5.85015">
        <ele>1207.7</ele>
        <time>2023-09-28T09:55:15Z</time>
      </trkpt>
      <trkpt lat="44.63748" lon="5.85013">
        <ele>1207.9</ele>
        <time>2023-09-28T09:55:16Z</time>
      </trkpt>
      <trkpt lat="44.6375" lon="5.8501">
        <ele>1208.2</ele>
        <time>2023-09-28T09:55:18Z</time>
      </trkpt>
      <trkpt lat="44.63753" lon="5.85006">
        <ele>1208.5</ele>
        <time>2023-09-28T09:55:19Z</time>
      </trkpt>
      <trkpt lat="44.63755" lon="5.85004">
        <ele>1208.8</ele>
        <time>2023-09-28T09:55:20Z</time>
      </trkpt>
      <trkpt lat="44.63757" lon="5.85">
        <ele>1209.1</ele>
        <time>2023-09-28T09:55:21Z</time>
      </trkpt>
      <trkpt lat="44.63758" lon="5.84999">
        <ele>1209.2</ele>
        <time>2023-09-28T09:55:22Z</time>
      </trkpt>
      <trkpt lat="44.63761" lon="5.84994">
        <ele>1209.7</ele>
        <time>2023-09-28T09:55:24Z</time>
      </trkpt>
      <trkpt lat="44.63762" lon="5.84993">
        <ele>1209.8</ele>
        <time>2023-09-28T09:55:25Z</time>
      </trkpt>
      <trkpt lat="44.63764" lon="5.84991">
        <ele>1210</ele>
        <time>2023-09-28T09:55:26Z</time>
      </trkpt>
      <trkpt lat="44.63765" lon="5.84988">
        <ele>1210.3</ele>
        <time>2023-09-28T09:55:27Z</time>
      </trkpt>
      <trkpt lat="44.63768" lon="5.84985">
        <ele>1210.7</ele>
        <time>2023-09-28T09:55:28Z</time>
      </trkpt>
      <trkpt lat="44.63769" lon="5.84984">
        <ele>1210.8</ele>
        <time>2023-09-28T09:55:29Z</time>
      </trkpt>
      <trkpt lat="44.63771" lon="5.84981">
        <ele>1211</ele>
        <time>2023-09-28T09:55:30Z</time>
      </trkpt>
      <trkpt lat="44.63774" lon="5.84976">
        <ele>1211.5</ele>
        <time>2023-09-28T09:55:32Z</time>
      </trkpt>
      <trkpt lat="44.63776" lon="5.84973">
        <ele>1211.8</ele>
        <time>2023-09-28T09:55:34Z</time>
      </trkpt>
      <trkpt lat="44.63779" lon="5.84971">
        <ele>1212</ele>
        <time>2023-09-28T09:55:35Z</time>
      </trkpt>
      <trkpt lat="44.63782" lon="5.84968">
        <ele>1212.4</ele>
        <time>2023-09-28T09:55:36Z</time>
      </trkpt>
      <trkpt lat="44.63783" lon="5.84967">
        <ele>1212.5</ele>
        <time>2023-09-28T09:55:37Z</time>
      </trkpt>
      <trkpt lat="44.63785" lon="5.84964">
        <ele>1212.8</ele>
        <time>2023-09-28T09:55:38Z</time>
      </trkpt>
      <trkpt lat="44.63786" lon="5.84961">
        <ele>1213</ele>
        <time>2023-09-28T09:55:40Z</time>
      </trkpt>
      <trkpt lat="44.63789" lon="5.84958">
        <ele>1213.4</ele>
        <time>2023-09-28T09:55:41Z</time>
      </trkpt>
      <trkpt lat="44.63792" lon="5.84956">
        <ele>1213.7</ele>
        <time>2023-09-28T09:55:42Z</time>
      </trkpt>
      <trkpt lat="44.63793" lon="5.84955">
        <ele>1213.8</ele>
        <time>2023-09-28T09:55:43Z</time>
      </trkpt>
      <trkpt lat="44.63795" lon="5.84952">
        <ele>1214.1</ele>
        <time>2023-09-28T09:55:45Z</time>
      </trkpt>
      <trkpt lat="44.63798" lon="5.84949">
        <ele>1214.4</ele>
        <time>2023-09-28T09:55:46Z</time>
      </trkpt>
      <trkpt lat="44.638" lon="5.84947">
        <ele>1214.7</ele>
        <time>2023-09-28T09:55:47Z</time>
      </trkpt>
      <trkpt lat="44.63803" lon="5.84944">
        <ele>1215</ele>
        <time>2023-09-28T09:55:48Z</time>
      </trkpt>
      <trkpt lat="44.63804" lon="5.84944">
        <ele>1215.1</ele>
        <time>2023-09-28T09:55:49Z</time>
      </trkpt>
      <trkpt lat="44.63806" lon="5.84942">
        <ele>1215.4</ele>
        <time>2023-09-28T09:55:50Z</time>
      </trkpt>
      <trkpt lat="44.63808" lon="5.8494">
        <ele>1215.7</ele>
        <time>2023-09-28T09:55:52Z</time>
      </trkpt>
      <trkpt lat="44.63812" lon="5.84938">
        <ele>1216.1</ele>
        <time>2023-09-28T09:55:53Z</time>
      </trkpt>
      <trkpt lat="44.63813" lon="5.84937">
        <ele>1216.3</ele>
        <time>2023-09-28T09:55:54Z</time>
      </trkpt>
      <trkpt lat="44.63817" lon="5.84935">
        <ele>1216.6</ele>
        <time>2023-09-28T09:55:55Z</time>
      </trkpt>
      <trkpt lat="44.63818" lon="5.84934">
        <ele>1216.8</ele>
        <time>2023-09-28T09:55:56Z</time>
      </trkpt>
      <trkpt lat="44.63821" lon="5.84932">
        <ele>1217.2</ele>
        <time>2023-09-28T09:55:57Z</time>
      </trkpt>
      <trkpt lat="44.63823" lon="5.84932">
        <ele>1217.3</ele>
        <time>2023-09-28T09:55:58Z</time>
      </trkpt>
      <trkpt lat="44.63827" lon="5.8493">
        <ele>1217.8</ele>
        <time>2023-09-28T09:56:00Z</time>
      </trkpt>
      <trkpt lat="44.63829" lon="5.8493">
        <ele>1218</ele>
        <time>2023-09-28T09:56:01Z</time>
      </trkpt>
      <trkpt lat="44.63831" lon="5.8493">
        <ele>1218.1</ele>
        <time>2023-09-28T09:56:02Z</time>
      </trkpt>
      <trkpt lat="44.63834" lon="5.84929">
        <ele>1218.5</ele>
        <time>2023-09-28T09:56:03Z</time>
      </trkpt>
      <trkpt lat="44.63835" lon="5.84929">
        <ele>1218.6</ele>
        <time>2023-09-28T09:56:04Z</time>
      </trkpt>
      <trkpt lat="44.63838" lon="5.8493">
        <ele>1218.9</ele>
        <time>2023-09-28T09:56:05Z</time>
      </trkpt>
      <trkpt lat="44.63841" lon="5.84929">
        <ele>1219.2</ele>
        <time>2023-09-28T09:56:06Z</time>
      </trkpt>
      <trkpt lat="44.63843" lon="5.84929">
        <ele>1219.3</ele>
        <time>2023-09-28T09:56:07Z</time>
      </trkpt>
      <trkpt lat="44.63845" lon="5.8493">
        <ele>1219.5</ele>
        <time>2023-09-28T09:56:09Z</time>
      </trkpt>
      <trkpt lat="44.63848" lon="5.8493">
        <ele>1219.7</ele>
        <time>2023-09-28T09:56:10Z</time>
      </trkpt>
      <trkpt lat="44.63852" lon="5.84931">
        <ele>1220</ele>
        <time>2023-09-28T09:56:11Z</time>
      </trkpt>
      <trkpt lat="44.63853" lon="5.84931">
        <ele>1220.1</ele>
        <time>2023-09-28T09:56:12Z</time>
      </trkpt>
      <trkpt lat="44.63856" lon="5.84932">
        <ele>1220.4</ele>
        <time>2023-09-28T09:56:13Z</time>
      </trkpt>
      <trkpt lat="44.63858" lon="5.84932">
        <ele>1220.5</ele>
        <time>2023-09-28T09:56:14Z</time>
      </trkpt>
      <trkpt lat="44.6386" lon="5.84933">
        <ele>1220.7</ele>
        <time>2023-09-28T09:56:15Z</time>
      </trkpt>
      <trkpt lat="44.63863" lon="5.84934">
        <ele>1221</ele>
        <time>2023-09-28T09:56:16Z</time>
      </trkpt>
      <trkpt lat="44.63866" lon="5.84936">
        <ele>1221.2</ele>
        <time>2023-09-28T09:56:18Z</time>
      </trkpt>
      <trkpt lat="44.6387" lon="5.84936">
        <ele>1221.5</ele>
        <time>2023-09-28T09:56:19Z</time>
      </trkpt>
      <trkpt lat="44.63873" lon="5.84937">
        <ele>1221.8</ele>
        <time>2023-09-28T09:56:20Z</time>
      </trkpt>
      <trkpt lat="44.63875" lon="5.84938">
        <ele>1221.9</ele>
        <time>2023-09-28T09:56:21Z</time>
      </trkpt>
      <trkpt lat="44.63877" lon="5.84939">
        <ele>1222.1</ele>
        <time>2023-09-28T09:56:22Z</time>
      </trkpt>
      <trkpt lat="44.6388" lon="5.8494">
        <ele>1222.4</ele>
        <time>2023-09-28T09:56:24Z</time>
      </trkpt>
      <trkpt lat="44.63883" lon="5.84941">
        <ele>1222.6</ele>
        <time>2023-09-28T09:56:25Z</time>
      </trkpt>
      <trkpt lat="44.63886" lon="5.84942">
        <ele>1222.8</ele>
        <time>2023-09-28T09:56:26Z</time>
      </trkpt>
      <trkpt lat="44.63889" lon="5.84943">
        <ele>1223</ele>
        <time>2023-09-28T09:56:28Z</time>
      </trkpt>
      <trkpt lat="44.63892" lon="5.84944">
        <ele>1223.3</ele>
        <time>2023-09-28T09:56:29Z</time>
      </trkpt>
      <trkpt lat="44.63893" lon="5.84945">
        <ele>1223.4</ele>
        <time>2023-09-28T09:56:30Z</time>
      </trkpt>
      <trkpt lat="44.63896" lon="5.84947">
        <ele>1223.6</ele>
        <time>2023-09-28T09:56:31Z</time>
      </trkpt>
      <trkpt lat="44.63899" lon="5.84948">
        <ele>1223.9</ele>
        <time>2023-09-28T09:56:32Z</time>
      </trkpt>
      <trkpt lat="44.63902" lon="5.84949">
        <ele>1224.1</ele>
        <time>2023-09-28T09:56:33Z</time>
      </trkpt>
      <trkpt lat="44.63903" lon="5.8495">
        <ele>1224.2</ele>
        <time>2023-09-28T09:56:34Z</time>
      </trkpt>
      <trkpt lat="44.63906" lon="5.84951">
        <ele>1224.4</ele>
        <time>2023-09-28T09:56:35Z</time>
      </trkpt>
      <trkpt lat="44.63909" lon="5.84953">
        <ele>1224.7</ele>
        <time>2023-09-28T09:56:37Z</time>
      </trkpt>
      <trkpt lat="44.63912" lon="5.84954">
        <ele>1224.9</ele>
        <time>2023-09-28T09:56:38Z</time>
      </trkpt>
      <trkpt lat="44.63914" lon="5.84955">
        <ele>1225.1</ele>
        <time>2023-09-28T09:56:39Z</time>
      </trkpt>
      <trkpt lat="44.63917" lon="5.84957">
        <ele>1225.3</ele>
        <time>2023-09-28T09:56:41Z</time>
      </trkpt>
      <trkpt lat="44.6392" lon="5.84959">
        <ele>1225.6</ele>
        <time>2023-09-28T09:56:42Z</time>
      </trkpt>
      <trkpt lat="44.63922" lon="5.84959">
        <ele>1225.7</ele>
        <time>2023-09-28T09:56:43Z</time>
      </trkpt>
      <trkpt lat="44.63925" lon="5.84961">
        <ele>1226</ele>
        <time>2023-09-28T09:56:44Z</time>
      </trkpt>
      <trkpt lat="44.63927" lon="5.84962">
        <ele>1226.1</ele>
        <time>2023-09-28T09:56:45Z</time>
      </trkpt>
      <trkpt lat="44.6393" lon="5.84963">
        <ele>1226.4</ele>
        <time>2023-09-28T09:56:46Z</time>
      </trkpt>
      <trkpt lat="44.63931" lon="5.84964">
        <ele>1226.5</ele>
        <time>2023-09-28T09:56:47Z</time>
      </trkpt>
      <trkpt lat="44.63935" lon="5.84966">
        <ele>1226.8</ele>
        <time>2023-09-28T09:56:49Z</time>
      </trkpt>
      <trkpt lat="44.63938" lon="5.84968">
        <ele>1227.1</ele>
        <time>2023-09-28T09:56:50Z</time>
      </trkpt>
      <trkpt lat="44.6394" lon="5.84969">
        <ele>1227.2</ele>
        <time>2023-09-28T09:56:51Z</time>
      </trkpt>
      <trkpt lat="44.63942" lon="5.8497">
        <ele>1227.4</ele>
        <time>2023-09-28T09:56:52Z</time>
      </trkpt>
      <trkpt lat="44.63945" lon="5.84971">
        <ele>1227.7</ele>
        <time>2023-09-28T09:56:54Z</time>
      </trkpt>
      <trkpt lat="44.63949" lon="5.84974">
        <ele>1228</ele>
        <time>2023-09-28T09:56:55Z</time>
      </trkpt>
      <trkpt lat="44.63951" lon="5.84974">
        <ele>1228.2</ele>
        <time>2023-09-28T09:56:56Z</time>
      </trkpt>
      <trkpt lat="44.63953" lon="5.84975">
        <ele>1228.4</ele>
        <time>2023-09-28T09:56:57Z</time>
      </trkpt>
      <trkpt lat="44.63957" lon="5.84977">
        <ele>1228.7</ele>
        <time>2023-09-28T09:56:59Z</time>
      </trkpt>
      <trkpt lat="44.63959" lon="5.84978">
        <ele>1229</ele>
        <time>2023-09-28T09:57:00Z</time>
      </trkpt>
      <trkpt lat="44.63963" lon="5.8498">
        <ele>1229.3</ele>
        <time>2023-09-28T09:57:01Z</time>
      </trkpt>
      <trkpt lat="44.63964" lon="5.8498">
        <ele>1229.4</ele>
        <time>2023-09-28T09:57:02Z</time>
      </trkpt>
      <trkpt lat="44.63968" lon="5.84982">
        <ele>1229.7</ele>
        <time>2023-09-28T09:57:04Z</time>
      </trkpt>
      <trkpt lat="44.63971" lon="5.84984">
        <ele>1230</ele>
        <time>2023-09-28T09:57:05Z</time>
      </trkpt>
      <trkpt lat="44.63973" lon="5.84984">
        <ele>1230.1</ele>
        <time>2023-09-28T09:57:06Z</time>
      </trkpt>
      <trkpt lat="44.63975" lon="5.84985">
        <ele>1230.3</ele>
        <time>2023-09-28T09:57:07Z</time>
      </trkpt>
      <trkpt lat="44.63979" lon="5.84987">
        <ele>1230.6</ele>
        <time>2023-09-28T09:57:09Z</time>
      </trkpt>
      <trkpt lat="44.63982" lon="5.84988">
        <ele>1230.9</ele>
        <time>2023-09-28T09:57:10Z</time>
      </trkpt>
      <trkpt lat="44.63985" lon="5.8499">
        <ele>1231.1</ele>
        <time>2023-09-28T09:57:11Z</time>
      </trkpt>
      <trkpt lat="44.63988" lon="5.84991">
        <ele>1231.4</ele>
        <time>2023-09-28T09:57:13Z</time>
      </trkpt>
      <trkpt lat="44.63989" lon="5.84992">
        <ele>1231.5</ele>
        <time>2023-09-28T09:57:14Z</time>
      </trkpt>
      <trkpt lat="44.63992" lon="5.84993">
        <ele>1231.8</ele>
        <time>2023-09-28T09:57:15Z</time>
      </trkpt>
      <trkpt lat="44.63995" lon="5.84994">
        <ele>1232</ele>
        <time>2023-09-28T09:57:16Z</time>
      </trkpt>
      <trkpt lat="44.63998" lon="5.84996">
        <ele>1232.3</ele>
        <time>2023-09-28T09:57:17Z</time>
      </trkpt>
      <trkpt lat="44.63999" lon="5.84996">
        <ele>1232.4</ele>
        <time>2023-09-28T09:57:18Z</time>
      </trkpt>
      <trkpt lat="44.64002" lon="5.84998">
        <ele>1232.6</ele>
        <time>2023-09-28T09:57:19Z</time>
      </trkpt>
      <trkpt lat="44.64006" lon="5.84999">
        <ele>1233</ele>
        <time>2023-09-28T09:57:21Z</time>
      </trkpt>
      <trkpt lat="44.6401" lon="5.85001">
        <ele>1233.3</ele>
        <time>2023-09-28T09:57:22Z</time>
      </trkpt>
      <trkpt lat="44.64011" lon="5.85002">
        <ele>1233.4</ele>
        <time>2023-09-28T09:57:23Z</time>
      </trkpt>
      <trkpt lat="44.64015" lon="5.85004">
        <ele>1233.8</ele>
        <time>2023-09-28T09:57:25Z</time>
      </trkpt>
      <trkpt lat="44.64017" lon="5.85005">
        <ele>1234</ele>
        <time>2023-09-28T09:57:26Z</time>
      </trkpt>
      <trkpt lat="44.64019" lon="5.85006">
        <ele>1234.1</ele>
        <time>2023-09-28T09:57:27Z</time>
      </trkpt>
      <trkpt lat="44.64022" lon="5.85007">
        <ele>1234.4</ele>
        <time>2023-09-28T09:57:28Z</time>
      </trkpt>
      <trkpt lat="44.64025" lon="5.85009">
        <ele>1234.7</ele>
        <time>2023-09-28T09:57:29Z</time>
      </trkpt>
      <trkpt lat="44.64026" lon="5.85009">
        <ele>1234.8</ele>
        <time>2023-09-28T09:57:30Z</time>
      </trkpt>
      <trkpt lat="44.64032" lon="5.85011">
        <ele>1235.3</ele>
        <time>2023-09-28T09:57:32Z</time>
      </trkpt>
      <trkpt lat="44.64036" lon="5.85013">
        <ele>1235.7</ele>
        <time>2023-09-28T09:57:34Z</time>
      </trkpt>
      <trkpt lat="44.64039" lon="5.85014">
        <ele>1236</ele>
        <time>2023-09-28T09:57:35Z</time>
      </trkpt>
      <trkpt lat="44.64042" lon="5.85015">
        <ele>1236.2</ele>
        <time>2023-09-28T09:57:37Z</time>
      </trkpt>
      <trkpt lat="44.64044" lon="5.85017">
        <ele>1236.4</ele>
        <time>2023-09-28T09:57:38Z</time>
      </trkpt>
      <trkpt lat="44.64047" lon="5.8502">
        <ele>1236.7</ele>
        <time>2023-09-28T09:57:39Z</time>
      </trkpt>
      <trkpt lat="44.6405" lon="5.85021">
        <ele>1237</ele>
        <time>2023-09-28T09:57:40Z</time>
      </trkpt>
      <trkpt lat="44.64052" lon="5.85023">
        <ele>1237.2</ele>
        <time>2023-09-28T09:57:41Z</time>
      </trkpt>
      <trkpt lat="44.64054" lon="5.85025">
        <ele>1237.4</ele>
        <time>2023-09-28T09:57:42Z</time>
      </trkpt>
      <trkpt lat="44.64059" lon="5.85028">
        <ele>1237.8</ele>
        <time>2023-09-28T09:57:44Z</time>
      </trkpt>
      <trkpt lat="44.64061" lon="5.85031">
        <ele>1238.1</ele>
        <time>2023-09-28T09:57:45Z</time>
      </trkpt>
      <trkpt lat="44.64063" lon="5.85033">
        <ele>1238.3</ele>
        <time>2023-09-28T09:57:46Z</time>
      </trkpt>
      <trkpt lat="44.64067" lon="5.85036">
        <ele>1238.7</ele>
        <time>2023-09-28T09:57:48Z</time>
      </trkpt>
      <trkpt lat="44.64069" lon="5.85039">
        <ele>1238.9</ele>
        <time>2023-09-28T09:57:49Z</time>
      </trkpt>
      <trkpt lat="44.64071" lon="5.85041">
        <ele>1239.1</ele>
        <time>2023-09-28T09:57:50Z</time>
      </trkpt>
      <trkpt lat="44.64074" lon="5.85046">
        <ele>1239.5</ele>
        <time>2023-09-28T09:57:52Z</time>
      </trkpt>
      <trkpt lat="44.64076" lon="5.85049">
        <ele>1239.8</ele>
        <time>2023-09-28T09:57:53Z</time>
      </trkpt>
      <trkpt lat="44.64078" lon="5.85053">
        <ele>1240.1</ele>
        <time>2023-09-28T09:57:54Z</time>
      </trkpt>
      <trkpt lat="44.64079" lon="5.85054">
        <ele>1240.2</ele>
        <time>2023-09-28T09:57:55Z</time>
      </trkpt>
      <trkpt lat="44.6408" lon="5.85057">
        <ele>1240.5</ele>
        <time>2023-09-28T09:57:56Z</time>
      </trkpt>
      <trkpt lat="44.64083" lon="5.85062">
        <ele>1240.8</ele>
        <time>2023-09-28T09:57:58Z</time>
      </trkpt>
      <trkpt lat="44.64084" lon="5.85065">
        <ele>1241.1</ele>
        <time>2023-09-28T09:57:59Z</time>
      </trkpt>
      <trkpt lat="44.64086" lon="5.85069">
        <ele>1241.3</ele>
        <time>2023-09-28T09:58:01Z</time>
      </trkpt>
      <trkpt lat="44.64088" lon="5.85073">
        <ele>1241.6</ele>
        <time>2023-09-28T09:58:02Z</time>
      </trkpt>
      <trkpt lat="44.64089" lon="5.85076">
        <ele>1241.9</ele>
        <time>2023-09-28T09:58:03Z</time>
      </trkpt>
      <trkpt lat="44.64091" lon="5.85079">
        <ele>1242.1</ele>
        <time>2023-09-28T09:58:05Z</time>
      </trkpt>
      <trkpt lat="44.64092" lon="5.85084">
        <ele>1242.4</ele>
        <time>2023-09-28T09:58:06Z</time>
      </trkpt>
      <trkpt lat="44.64093" lon="5.85086">
        <ele>1242.6</ele>
        <time>2023-09-28T09:58:07Z</time>
      </trkpt>
      <trkpt lat="44.64095" lon="5.85089">
        <ele>1242.8</ele>
        <time>2023-09-28T09:58:08Z</time>
      </trkpt>
      <trkpt lat="44.64097" lon="5.85094">
        <ele>1243.2</ele>
        <time>2023-09-28T09:58:09Z</time>
      </trkpt>
      <trkpt lat="44.64097" lon="5.85096">
        <ele>1243.3</ele>
        <time>2023-09-28T09:58:10Z</time>
      </trkpt>
      <trkpt lat="44.64099" lon="5.851">
        <ele>1243.6</ele>
        <time>2023-09-28T09:58:11Z</time>
      </trkpt>
      <trkpt lat="44.641" lon="5.85101">
        <ele>1243.7</ele>
        <time>2023-09-28T09:58:12Z</time>
      </trkpt>
      <trkpt lat="44.64102" lon="5.85107">
        <ele>1244.1</ele>
        <time>2023-09-28T09:58:14Z</time>
      </trkpt>
      <trkpt lat="44.64103" lon="5.85109">
        <ele>1244.2</ele>
        <time>2023-09-28T09:58:15Z</time>
      </trkpt>
      <trkpt lat="44.64103" lon="5.85111">
        <ele>1244.4</ele>
        <time>2023-09-28T09:58:16Z</time>
      </trkpt>
      <trkpt lat="44.64105" lon="5.85116">
        <ele>1244.7</ele>
        <time>2023-09-28T09:58:17Z</time>
      </trkpt>
      <trkpt lat="44.64105" lon="5.85117">
        <ele>1244.8</ele>
        <time>2023-09-28T09:58:18Z</time>
      </trkpt>
      <trkpt lat="44.64108" lon="5.85121">
        <ele>1245.2</ele>
        <time>2023-09-28T09:58:19Z</time>
      </trkpt>
      <trkpt lat="44.64108" lon="5.85123">
        <ele>1245.3</ele>
        <time>2023-09-28T09:58:20Z</time>
      </trkpt>
      <trkpt lat="44.64109" lon="5.85128">
        <ele>1245.6</ele>
        <time>2023-09-28T09:58:21Z</time>
      </trkpt>
      <trkpt lat="44.6411" lon="5.8513">
        <ele>1245.7</ele>
        <time>2023-09-28T09:58:22Z</time>
      </trkpt>
      <trkpt lat="44.64112" lon="5.85134">
        <ele>1246.1</ele>
        <time>2023-09-28T09:58:24Z</time>
      </trkpt>
      <trkpt lat="44.64113" lon="5.85136">
        <ele>1246.2</ele>
        <time>2023-09-28T09:58:25Z</time>
      </trkpt>
      <trkpt lat="44.64114" lon="5.85139">
        <ele>1246.5</ele>
        <time>2023-09-28T09:58:26Z</time>
      </trkpt>
      <trkpt lat="44.64116" lon="5.85142">
        <ele>1246.7</ele>
        <time>2023-09-28T09:58:27Z</time>
      </trkpt>
      <trkpt lat="44.64118" lon="5.85147">
        <ele>1247.1</ele>
        <time>2023-09-28T09:58:28Z</time>
      </trkpt>
      <trkpt lat="44.64119" lon="5.85148">
        <ele>1247.2</ele>
        <time>2023-09-28T09:58:29Z</time>
      </trkpt>
      <trkpt lat="44.6412" lon="5.85151">
        <ele>1247.4</ele>
        <time>2023-09-28T09:58:30Z</time>
      </trkpt>
      <trkpt lat="44.64122" lon="5.85156">
        <ele>1247.8</ele>
        <time>2023-09-28T09:58:32Z</time>
      </trkpt>
      <trkpt lat="44.64123" lon="5.85158">
        <ele>1247.9</ele>
        <time>2023-09-28T09:58:33Z</time>
      </trkpt>
      <trkpt lat="44.64125" lon="5.85161">
        <ele>1248.2</ele>
        <time>2023-09-28T09:58:34Z</time>
      </trkpt>
      <trkpt lat="44.64126" lon="5.85165">
        <ele>1248.5</ele>
        <time>2023-09-28T09:58:35Z</time>
      </trkpt>
      <trkpt lat="44.64127" lon="5.85166">
        <ele>1248.6</ele>
        <time>2023-09-28T09:58:36Z</time>
      </trkpt>
      <trkpt lat="44.64128" lon="5.85168">
        <ele>1248.7</ele>
        <time>2023-09-28T09:58:37Z</time>
      </trkpt>
      <trkpt lat="44.64129" lon="5.8517">
        <ele>1248.9</ele>
        <time>2023-09-28T09:58:38Z</time>
      </trkpt>
      <trkpt lat="44.64132" lon="5.85174">
        <ele>1249.3</ele>
        <time>2023-09-28T09:58:40Z</time>
      </trkpt>
      <trkpt lat="44.64135" lon="5.85178">
        <ele>1249.6</ele>
        <time>2023-09-28T09:58:42Z</time>
      </trkpt>
      <trkpt lat="44.64136" lon="5.85179">
        <ele>1249.7</ele>
        <time>2023-09-28T09:58:43Z</time>
      </trkpt>
      <trkpt lat="44.64138" lon="5.85181">
        <ele>1250</ele>
        <time>2023-09-28T09:58:44Z</time>
      </trkpt>
      <trkpt lat="44.64139" lon="5.85182">
        <ele>1250.1</ele>
        <time>2023-09-28T09:58:45Z</time>
      </trkpt>
      <trkpt lat="44.64142" lon="5.85185">
        <ele>1250.4</ele>
        <time>2023-09-28T09:58:46Z</time>
      </trkpt>
      <trkpt lat="44.64143" lon="5.85186">
        <ele>1250.5</ele>
        <time>2023-09-28T09:58:47Z</time>
      </trkpt>
      <trkpt lat="44.64145" lon="5.85189">
        <ele>1250.8</ele>
        <time>2023-09-28T09:58:49Z</time>
      </trkpt>
      <trkpt lat="44.64145" lon="5.8519">
        <ele>1250.9</ele>
        <time>2023-09-28T09:58:50Z</time>
      </trkpt>
      <trkpt lat="44.64148" lon="5.85193">
        <ele>1251.2</ele>
        <time>2023-09-28T09:58:51Z</time>
      </trkpt>
      <trkpt lat="44.64149" lon="5.85194">
        <ele>1251.3</ele>
        <time>2023-09-28T09:58:52Z</time>
      </trkpt>
      <trkpt lat="44.64152" lon="5.85197">
        <ele>1251.7</ele>
        <time>2023-09-28T09:58:53Z</time>
      </trkpt>
      <trkpt lat="44.64153" lon="5.85198">
        <ele>1251.8</ele>
        <time>2023-09-28T09:58:54Z</time>
      </trkpt>
      <trkpt lat="44.64157" lon="5.85201">
        <ele>1252.2</ele>
        <time>2023-09-28T09:58:56Z</time>
      </trkpt>
      <trkpt lat="44.64159" lon="5.85202">
        <ele>1252.3</ele>
        <time>2023-09-28T09:58:57Z</time>
      </trkpt>
      <trkpt lat="44.6416" lon="5.85203">
        <ele>1252.5</ele>
        <time>2023-09-28T09:58:58Z</time>
      </trkpt>
      <trkpt lat="44.64164" lon="5.85204">
        <ele>1252.8</ele>
        <time>2023-09-28T09:59:00Z</time>
      </trkpt>
      <trkpt lat="44.64168" lon="5.85206">
        <ele>1253.2</ele>
        <time>2023-09-28T09:59:02Z</time>
      </trkpt>
      <trkpt lat="44.64169" lon="5.85207">
        <ele>1253.4</ele>
        <time>2023-09-28T09:59:03Z</time>
      </trkpt>
      <trkpt lat="44.64171" lon="5.85208">
        <ele>1253.5</ele>
        <time>2023-09-28T09:59:04Z</time>
      </trkpt>
      <trkpt lat="44.64174" lon="5.85209">
        <ele>1253.8</ele>
        <time>2023-09-28T09:59:05Z</time>
      </trkpt>
      <trkpt lat="44.64175" lon="5.85209">
        <ele>1253.9</ele>
        <time>2023-09-28T09:59:06Z</time>
      </trkpt>
      <trkpt lat="44.64177" lon="5.8521">
        <ele>1254</ele>
        <time>2023-09-28T09:59:07Z</time>
      </trkpt>
      <trkpt lat="44.64179" lon="5.8521">
        <ele>1254.2</ele>
        <time>2023-09-28T09:59:09Z</time>
      </trkpt>
      <trkpt lat="44.64181" lon="5.85212">
        <ele>1254.5</ele>
        <time>2023-09-28T09:59:10Z</time>
      </trkpt>
      <trkpt lat="44.64184" lon="5.85213">
        <ele>1254.8</ele>
        <time>2023-09-28T09:59:11Z</time>
      </trkpt>
      <trkpt lat="44.64185" lon="5.85213">
        <ele>1254.8</ele>
        <time>2023-09-28T09:59:12Z</time>
      </trkpt>
      <trkpt lat="44.64188" lon="5.85214">
        <ele>1255.1</ele>
        <time>2023-09-28T09:59:13Z</time>
      </trkpt>
      <trkpt lat="44.6419" lon="5.85215">
        <ele>1255.3</ele>
        <time>2023-09-28T09:59:15Z</time>
      </trkpt>
      <trkpt lat="44.64193" lon="5.85216">
        <ele>1255.6</ele>
        <time>2023-09-28T09:59:16Z</time>
      </trkpt>
      <trkpt lat="44.64194" lon="5.85216">
        <ele>1255.7</ele>
        <time>2023-09-28T09:59:17Z</time>
      </trkpt>
      <trkpt lat="44.64197" lon="5.85217">
        <ele>1255.9</ele>
        <time>2023-09-28T09:59:18Z</time>
      </trkpt>
      <trkpt lat="44.64198" lon="5.85217">
        <ele>1256</ele>
        <time>2023-09-28T09:59:19Z</time>
      </trkpt>
      <trkpt lat="44.642" lon="5.85218">
        <ele>1256.2</ele>
        <time>2023-09-28T09:59:20Z</time>
      </trkpt>
      <trkpt lat="44.64203" lon="5.85218">
        <ele>1256.4</ele>
        <time>2023-09-28T09:59:22Z</time>
      </trkpt>
      <trkpt lat="44.64205" lon="5.85219">
        <ele>1256.7</ele>
        <time>2023-09-28T09:59:24Z</time>
      </trkpt>
      <trkpt lat="44.64208" lon="5.85221">
        <ele>1257</ele>
        <time>2023-09-28T09:59:25Z</time>
      </trkpt>
      <trkpt lat="44.64209" lon="5.85221">
        <ele>1257.1</ele>
        <time>2023-09-28T09:59:26Z</time>
      </trkpt>
      <trkpt lat="44.64213" lon="5.85221">
        <ele>1257.4</ele>
        <time>2023-09-28T09:59:27Z</time>
      </trkpt>
      <trkpt lat="44.64214" lon="5.85221">
        <ele>1257.6</ele>
        <time>2023-09-28T09:59:28Z</time>
      </trkpt>
      <trkpt lat="44.64216" lon="5.85222">
        <ele>1257.8</ele>
        <time>2023-09-28T09:59:29Z</time>
      </trkpt>
      <trkpt lat="44.6422" lon="5.85224">
        <ele>1258.2</ele>
        <time>2023-09-28T09:59:31Z</time>
      </trkpt>
      <trkpt lat="44.64222" lon="5.85225">
        <ele>1258.4</ele>
        <time>2023-09-28T09:59:33Z</time>
      </trkpt>
      <trkpt lat="44.64226" lon="5.85226">
        <ele>1258.8</ele>
        <time>2023-09-28T09:59:34Z</time>
      </trkpt>
      <trkpt lat="44.64227" lon="5.85226">
        <ele>1258.9</ele>
        <time>2023-09-28T09:59:35Z</time>
      </trkpt>
      <trkpt lat="44.6423" lon="5.85227">
        <ele>1259.2</ele>
        <time>2023-09-28T09:59:36Z</time>
      </trkpt>
      <trkpt lat="44.64231" lon="5.85228">
        <ele>1259.3</ele>
        <time>2023-09-28T09:59:37Z</time>
      </trkpt>
      <trkpt lat="44.64234" lon="5.85228">
        <ele>1259.6</ele>
        <time>2023-09-28T09:59:38Z</time>
      </trkpt>
      <trkpt lat="44.64235" lon="5.85229">
        <ele>1259.7</ele>
        <time>2023-09-28T09:59:39Z</time>
      </trkpt>
      <trkpt lat="44.64237" lon="5.85229">
        <ele>1260</ele>
        <time>2023-09-28T09:59:40Z</time>
      </trkpt>
      <trkpt lat="44.6424" lon="5.8523">
        <ele>1260.3</ele>
        <time>2023-09-28T09:59:42Z</time>
      </trkpt>
      <trkpt lat="44.64243" lon="5.85231">
        <ele>1260.7</ele>
        <time>2023-09-28T09:59:43Z</time>
      </trkpt>
      <trkpt lat="44.64245" lon="5.85231">
        <ele>1260.8</ele>
        <time>2023-09-28T09:59:44Z</time>
      </trkpt>
      <trkpt lat="44.64248" lon="5.85233">
        <ele>1261.2</ele>
        <time>2023-09-28T09:59:45Z</time>
      </trkpt>
      <trkpt lat="44.64249" lon="5.85233">
        <ele>1261.4</ele>
        <time>2023-09-28T09:59:46Z</time>
      </trkpt>
      <trkpt lat="44.64252" lon="5.85234">
        <ele>1261.7</ele>
        <time>2023-09-28T09:59:47Z</time>
      </trkpt>
      <trkpt lat="44.64253" lon="5.85234">
        <ele>1261.8</ele>
        <time>2023-09-28T09:59:48Z</time>
      </trkpt>
      <trkpt lat="44.64257" lon="5.85235">
        <ele>1262.3</ele>
        <time>2023-09-28T09:59:50Z</time>
      </trkpt>
      <trkpt lat="44.64258" lon="5.85236">
        <ele>1262.4</ele>
        <time>2023-09-28T09:59:51Z</time>
      </trkpt>
      <trkpt lat="44.6426" lon="5.85236">
        <ele>1262.6</ele>
        <time>2023-09-28T09:59:52Z</time>
      </trkpt>
      <trkpt lat="44.64263" lon="5.85237">
        <ele>1263</ele>
        <time>2023-09-28T09:59:53Z</time>
      </trkpt>
      <trkpt lat="44.64264" lon="5.85237">
        <ele>1263.1</ele>
        <time>2023-09-28T09:59:54Z</time>
      </trkpt>
      <trkpt lat="44.64267" lon="5.85238">
        <ele>1263.4</ele>
        <time>2023-09-28T09:59:55Z</time>
      </trkpt>
      <trkpt lat="44.64268" lon="5.85238">
        <ele>1263.5</ele>
        <time>2023-09-28T09:59:56Z</time>
      </trkpt>
      <trkpt lat="44.64272" lon="5.85238">
        <ele>1263.9</ele>
        <time>2023-09-28T09:59:58Z</time>
      </trkpt>
      <trkpt lat="44.64273" lon="5.85238">
        <ele>1264</ele>
        <time>2023-09-28T09:59:59Z</time>
      </trkpt>
      <trkpt lat="44.64276" lon="5.85237">
        <ele>1264.3</ele>
        <time>2023-09-28T10:00:00Z</time>
      </trkpt>
      <trkpt lat="44.64278" lon="5.85237">
        <ele>1264.6</ele>
        <time>2023-09-28T10:00:01Z</time>
      </trkpt>
      <trkpt lat="44.6428" lon="5.85236">
        <ele>1264.8</ele>
        <time>2023-09-28T10:00:03Z</time>
      </trkpt>
      <trkpt lat="44.64283" lon="5.85234">
        <ele>1265.2</ele>
        <time>2023-09-28T10:00:04Z</time>
      </trkpt>
      <trkpt lat="44.64284" lon="5.85232">
        <ele>1265.3</ele>
        <time>2023-09-28T10:00:05Z</time>
      </trkpt>
      <trkpt lat="44.64287" lon="5.8523">
        <ele>1265.6</ele>
        <time>2023-09-28T10:00:06Z</time>
      </trkpt>
      <trkpt lat="44.64288" lon="5.85229">
        <ele>1265.7</ele>
        <time>2023-09-28T10:00:07Z</time>
      </trkpt>
      <trkpt lat="44.6429" lon="5.85227">
        <ele>1266</ele>
        <time>2023-09-28T10:00:08Z</time>
      </trkpt>
      <trkpt lat="44.64292" lon="5.85223">
        <ele>1266.3</ele>
        <time>2023-09-28T10:00:10Z</time>
      </trkpt>
      <trkpt lat="44.64293" lon="5.8522">
        <ele>1266.6</ele>
        <time>2023-09-28T10:00:11Z</time>
      </trkpt>
      <trkpt lat="44.64295" lon="5.85217">
        <ele>1266.8</ele>
        <time>2023-09-28T10:00:12Z</time>
      </trkpt>
      <trkpt lat="44.64296" lon="5.85214">
        <ele>1267</ele>
        <time>2023-09-28T10:00:14Z</time>
      </trkpt>
      <trkpt lat="44.64296" lon="5.8521">
        <ele>1267.3</ele>
        <time>2023-09-28T10:00:15Z</time>
      </trkpt>
      <trkpt lat="44.64297" lon="5.85205">
        <ele>1267.6</ele>
        <time>2023-09-28T10:00:16Z</time>
      </trkpt>
      <trkpt lat="44.64297" lon="5.85204">
        <ele>1267.7</ele>
        <time>2023-09-28T10:00:17Z</time>
      </trkpt>
      <trkpt lat="44.64297" lon="5.85199">
        <ele>1267.9</ele>
        <time>2023-09-28T10:00:18Z</time>
      </trkpt>
      <trkpt lat="44.64297" lon="5.85197">
        <ele>1268</ele>
        <time>2023-09-28T10:00:19Z</time>
      </trkpt>
      <trkpt lat="44.64296" lon="5.85192">
        <ele>1268.3</ele>
        <time>2023-09-28T10:00:21Z</time>
      </trkpt>
      <trkpt lat="44.64296" lon="5.85189">
        <ele>1268.5</ele>
        <time>2023-09-28T10:00:22Z</time>
      </trkpt>
      <trkpt lat="44.64294" lon="5.85185">
        <ele>1268.7</ele>
        <time>2023-09-28T10:00:24Z</time>
      </trkpt>
      <trkpt lat="44.64292" lon="5.85181">
        <ele>1268.8</ele>
        <time>2023-09-28T10:00:25Z</time>
      </trkpt>
      <trkpt lat="44.64292" lon="5.85179">
        <ele>1268.9</ele>
        <time>2023-09-28T10:00:26Z</time>
      </trkpt>
      <trkpt lat="44.64289" lon="5.85175">
        <ele>1269.1</ele>
        <time>2023-09-28T10:00:27Z</time>
      </trkpt>
      <trkpt lat="44.64288" lon="5.85174">
        <ele>1269.1</ele>
        <time>2023-09-28T10:00:28Z</time>
      </trkpt>
      <trkpt lat="44.64286" lon="5.85169">
        <ele>1269.3</ele>
        <time>2023-09-28T10:00:29Z</time>
      </trkpt>
      <trkpt lat="44.64285" lon="5.85168">
        <ele>1269.4</ele>
        <time>2023-09-28T10:00:30Z</time>
      </trkpt>
      <trkpt lat="44.64283" lon="5.85166">
        <ele>1269.5</ele>
        <time>2023-09-28T10:00:31Z</time>
      </trkpt>
      <trkpt lat="44.64281" lon="5.85164">
        <ele>1269.7</ele>
        <time>2023-09-28T10:00:33Z</time>
      </trkpt>
      <trkpt lat="44.64278" lon="5.85162">
        <ele>1269.8</ele>
        <time>2023-09-28T10:00:34Z</time>
      </trkpt>
      <trkpt lat="44.64275" lon="5.85159">
        <ele>1270</ele>
        <time>2023-09-28T10:00:35Z</time>
      </trkpt>
      <trkpt lat="44.64273" lon="5.85158">
        <ele>1270.1</ele>
        <time>2023-09-28T10:00:36Z</time>
      </trkpt>
      <trkpt lat="44.6427" lon="5.85156">
        <ele>1270.3</ele>
        <time>2023-09-28T10:00:37Z</time>
      </trkpt>
      <trkpt lat="44.64269" lon="5.85155">
        <ele>1270.4</ele>
        <time>2023-09-28T10:00:38Z</time>
      </trkpt>
      <trkpt lat="44.64267" lon="5.85153">
        <ele>1270.5</ele>
        <time>2023-09-28T10:00:39Z</time>
      </trkpt>
      <trkpt lat="44.64264" lon="5.8515">
        <ele>1270.8</ele>
        <time>2023-09-28T10:00:41Z</time>
      </trkpt>
      <trkpt lat="44.64261" lon="5.85146">
        <ele>1271</ele>
        <time>2023-09-28T10:00:42Z</time>
      </trkpt>
      <trkpt lat="44.6426" lon="5.85145">
        <ele>1271.2</ele>
        <time>2023-09-28T10:00:43Z</time>
      </trkpt>
      <trkpt lat="44.64256" lon="5.85141">
        <ele>1271.5</ele>
        <time>2023-09-28T10:00:45Z</time>
      </trkpt>
      <trkpt lat="44.64253" lon="5.8514">
        <ele>1271.7</ele>
        <time>2023-09-28T10:00:47Z</time>
      </trkpt>
      <trkpt lat="44.64251" lon="5.85138">
        <ele>1272</ele>
        <time>2023-09-28T10:00:48Z</time>
      </trkpt>
      <trkpt lat="44.64248" lon="5.85135">
        <ele>1272.3</ele>
        <time>2023-09-28T10:00:49Z</time>
      </trkpt>
      <trkpt lat="44.64247" lon="5.85134">
        <ele>1272.4</ele>
        <time>2023-09-28T10:00:50Z</time>
      </trkpt>
      <trkpt lat="44.64245" lon="5.85133">
        <ele>1272.6</ele>
        <time>2023-09-28T10:00:51Z</time>
      </trkpt>
      <trkpt lat="44.64242" lon="5.8513">
        <ele>1272.8</ele>
        <time>2023-09-28T10:00:53Z</time>
      </trkpt>
      <trkpt lat="44.64239" lon="5.85128">
        <ele>1273.1</ele>
        <time>2023-09-28T10:00:54Z</time>
      </trkpt>
      <trkpt lat="44.64237" lon="5.85127">
        <ele>1273.2</ele>
        <time>2023-09-28T10:00:55Z</time>
      </trkpt>
      <trkpt lat="44.64234" lon="5.85124">
        <ele>1273.6</ele>
        <time>2023-09-28T10:00:56Z</time>
      </trkpt>
      <trkpt lat="44.64233" lon="5.85123">
        <ele>1273.7</ele>
        <time>2023-09-28T10:00:57Z</time>
      </trkpt>
      <trkpt lat="44.6423" lon="5.85119">
        <ele>1274</ele>
        <time>2023-09-28T10:00:58Z</time>
      </trkpt>
      <trkpt lat="44.64229" lon="5.85118">
        <ele>1274.1</ele>
        <time>2023-09-28T10:00:59Z</time>
      </trkpt>
      <trkpt lat="44.64226" lon="5.85116">
        <ele>1274.3</ele>
        <time>2023-09-28T10:01:00Z</time>
      </trkpt>
      <trkpt lat="44.64225" lon="5.85115">
        <ele>1274.4</ele>
        <time>2023-09-28T10:01:01Z</time>
      </trkpt>
      <trkpt lat="44.64223" lon="5.85113">
        <ele>1274.7</ele>
        <time>2023-09-28T10:01:03Z</time>
      </trkpt>
      <trkpt lat="44.6422" lon="5.85111">
        <ele>1274.9</ele>
        <time>2023-09-28T10:01:04Z</time>
      </trkpt>
      <trkpt lat="44.64217" lon="5.85108">
        <ele>1275.2</ele>
        <time>2023-09-28T10:01:05Z</time>
      </trkpt>
      <trkpt lat="44.64215" lon="5.85103">
        <ele>1275.5</ele>
        <time>2023-09-28T10:01:06Z</time>
      </trkpt>
      <trkpt lat="44.64214" lon="5.85102">
        <ele>1275.6</ele>
        <time>2023-09-28T10:01:07Z</time>
      </trkpt>
      <trkpt lat="44.64212" lon="5.85099">
        <ele>1275.8</ele>
        <time>2023-09-28T10:01:08Z</time>
      </trkpt>
      <trkpt lat="44.6421" lon="5.85096">
        <ele>1276</ele>
        <time>2023-09-28T10:01:10Z</time>
      </trkpt>
      <trkpt lat="44.64208" lon="5.85091">
        <ele>1276.3</ele>
        <time>2023-09-28T10:01:11Z</time>
      </trkpt>
      <trkpt lat="44.64207" lon="5.85089">
        <ele>1276.5</ele>
        <time>2023-09-28T10:01:12Z</time>
      </trkpt>
      <trkpt lat="44.64207" lon="5.85086">
        <ele>1276.7</ele>
        <time>2023-09-28T10:01:13Z</time>
      </trkpt>
      <trkpt lat="44.64206" lon="5.8508">
        <ele>1277</ele>
        <time>2023-09-28T10:01:14Z</time>
      </trkpt>
      <trkpt lat="44.64207" lon="5.85078">
        <ele>1277.2</ele>
        <time>2023-09-28T10:01:15Z</time>
      </trkpt>
      <trkpt lat="44.64208" lon="5.85073">
        <ele>1277.5</ele>
        <time>2023-09-28T10:01:16Z</time>
      </trkpt>
      <trkpt lat="44.64208" lon="5.85071">
        <ele>1277.6</ele>
        <time>2023-09-28T10:01:17Z</time>
      </trkpt>
      <trkpt lat="44.64211" lon="5.85066">
        <ele>1278</ele>
        <time>2023-09-28T10:01:19Z</time>
      </trkpt>
      <trkpt lat="44.64212" lon="5.85063">
        <ele>1278.2</ele>
        <time>2023-09-28T10:01:20Z</time>
      </trkpt>
      <trkpt lat="44.64215" lon="5.8506">
        <ele>1278.6</ele>
        <time>2023-09-28T10:01:21Z</time>
      </trkpt>
      <trkpt lat="44.64216" lon="5.85058">
        <ele>1278.7</ele>
        <time>2023-09-28T10:01:22Z</time>
      </trkpt>
      <trkpt lat="44.64218" lon="5.85057">
        <ele>1278.9</ele>
        <time>2023-09-28T10:01:23Z</time>
      </trkpt>
      <trkpt lat="44.64221" lon="5.85055">
        <ele>1279.2</ele>
        <time>2023-09-28T10:01:25Z</time>
      </trkpt>
      <trkpt lat="44.64224" lon="5.85055">
        <ele>1279.4</ele>
        <time>2023-09-28T10:01:26Z</time>
      </trkpt>
      <trkpt lat="44.64226" lon="5.85056">
        <ele>1279.6</ele>
        <time>2023-09-28T10:01:27Z</time>
      </trkpt>
      <trkpt lat="44.64229" lon="5.85058">
        <ele>1279.8</ele>
        <time>2023-09-28T10:01:28Z</time>
      </trkpt>
      <trkpt lat="44.64231" lon="5.8506">
        <ele>1280</ele>
        <time>2023-09-28T10:01:29Z</time>
      </trkpt>
      <trkpt lat="44.64236" lon="5.85064">
        <ele>1280.3</ele>
        <time>2023-09-28T10:01:31Z</time>
      </trkpt>
      <trkpt lat="44.64238" lon="5.85067">
        <ele>1280.5</ele>
        <time>2023-09-28T10:01:33Z</time>
      </trkpt>
      <trkpt lat="44.6424" lon="5.8507">
        <ele>1280.7</ele>
        <time>2023-09-28T10:01:34Z</time>
      </trkpt>
      <trkpt lat="44.64242" lon="5.85074">
        <ele>1280.8</ele>
        <time>2023-09-28T10:01:35Z</time>
      </trkpt>
      <trkpt lat="44.64243" lon="5.85075">
        <ele>1280.9</ele>
        <time>2023-09-28T10:01:36Z</time>
      </trkpt>
      <trkpt lat="44.64246" lon="5.8508">
        <ele>1281.1</ele>
        <time>2023-09-28T10:01:37Z</time>
      </trkpt>
      <trkpt lat="44.64247" lon="5.85081">
        <ele>1281.2</ele>
        <time>2023-09-28T10:01:38Z</time>
      </trkpt>
      <trkpt lat="44.64249" lon="5.85085">
        <ele>1281.4</ele>
        <time>2023-09-28T10:01:40Z</time>
      </trkpt>
      <trkpt lat="44.6425" lon="5.85087">
        <ele>1281.5</ele>
        <time>2023-09-28T10:01:41Z</time>
      </trkpt>
      <trkpt lat="44.64252" lon="5.8509">
        <ele>1281.6</ele>
        <time>2023-09-28T10:01:42Z</time>
      </trkpt>
      <trkpt lat="44.64253" lon="5.85094">
        <ele>1281.8</ele>
        <time>2023-09-28T10:01:43Z</time>
      </trkpt>
      <trkpt lat="44.64254" lon="5.85096">
        <ele>1281.9</ele>
        <time>2023-09-28T10:01:44Z</time>
      </trkpt>
      <trkpt lat="44.64257" lon="5.85102">
        <ele>1282.2</ele>
        <time>2023-09-28T10:01:46Z</time>
      </trkpt>
      <trkpt lat="44.64258" lon="5.85103">
        <ele>1282.3</ele>
        <time>2023-09-28T10:01:47Z</time>
      </trkpt>
      <trkpt lat="44.64259" lon="5.85105">
        <ele>1282.4</ele>
        <time>2023-09-28T10:01:48Z</time>
      </trkpt>
      <trkpt lat="44.64262" lon="5.85109">
        <ele>1282.7</ele>
        <time>2023-09-28T10:01:50Z</time>
      </trkpt>
      <trkpt lat="44.64263" lon="5.85111">
        <ele>1282.8</ele>
        <time>2023-09-28T10:01:51Z</time>
      </trkpt>
      <trkpt lat="44.64264" lon="5.85112">
        <ele>1282.9</ele>
        <time>2023-09-28T10:01:52Z</time>
      </trkpt>
      <trkpt lat="44.64266" lon="5.85116">
        <ele>1283.1</ele>
        <time>2023-09-28T10:01:54Z</time>
      </trkpt>
      <trkpt lat="44.64267" lon="5.85117">
        <ele>1283.2</ele>
        <time>2023-09-28T10:01:55Z</time>
      </trkpt>
      <trkpt lat="44.64269" lon="5.85119">
        <ele>1283.4</ele>
        <time>2023-09-28T10:01:56Z</time>
      </trkpt>
      <trkpt lat="44.6427" lon="5.8512">
        <ele>1283.5</ele>
        <time>2023-09-28T10:01:57Z</time>
      </trkpt>
      <trkpt lat="44.64273" lon="5.85123">
        <ele>1283.7</ele>
        <time>2023-09-28T10:01:58Z</time>
      </trkpt>
      <trkpt lat="44.64273" lon="5.85124">
        <ele>1283.8</ele>
        <time>2023-09-28T10:01:59Z</time>
      </trkpt>
      <trkpt lat="44.64275" lon="5.85126">
        <ele>1284</ele>
        <time>2023-09-28T10:02:00Z</time>
      </trkpt>
      <trkpt lat="44.64278" lon="5.85129">
        <ele>1284.2</ele>
        <time>2023-09-28T10:02:02Z</time>
      </trkpt>
      <trkpt lat="44.64281" lon="5.8513">
        <ele>1284.4</ele>
        <time>2023-09-28T10:02:03Z</time>
      </trkpt>
      <trkpt lat="44.64282" lon="5.85131">
        <ele>1284.5</ele>
        <time>2023-09-28T10:02:04Z</time>
      </trkpt>
      <trkpt lat="44.64285" lon="5.85134">
        <ele>1284.8</ele>
        <time>2023-09-28T10:02:05Z</time>
      </trkpt>
      <trkpt lat="44.64286" lon="5.85134">
        <ele>1284.8</ele>
        <time>2023-09-28T10:02:06Z</time>
      </trkpt>
      <trkpt lat="44.64289" lon="5.85136">
        <ele>1285</ele>
        <time>2023-09-28T10:02:07Z</time>
      </trkpt>
      <trkpt lat="44.6429" lon="5.85137">
        <ele>1285.1</ele>
        <time>2023-09-28T10:02:08Z</time>
      </trkpt>
      <trkpt lat="44.64294" lon="5.85139">
        <ele>1285.3</ele>
        <time>2023-09-28T10:02:10Z</time>
      </trkpt>
      <trkpt lat="44.64295" lon="5.85139">
        <ele>1285.4</ele>
        <time>2023-09-28T10:02:11Z</time>
      </trkpt>
      <trkpt lat="44.64298" lon="5.85141">
        <ele>1285.7</ele>
        <time>2023-09-28T10:02:12Z</time>
      </trkpt>
      <trkpt lat="44.64299" lon="5.85141">
        <ele>1285.7</ele>
        <time>2023-09-28T10:02:13Z</time>
      </trkpt>
      <trkpt lat="44.64303" lon="5.85144">
        <ele>1286</ele>
        <time>2023-09-28T10:02:14Z</time>
      </trkpt>
      <trkpt lat="44.64304" lon="5.85144">
        <ele>1286.1</ele>
        <time>2023-09-28T10:02:15Z</time>
      </trkpt>
      <trkpt lat="44.64307" lon="5.85146">
        <ele>1286.3</ele>
        <time>2023-09-28T10:02:16Z</time>
      </trkpt>
      <trkpt lat="44.64308" lon="5.85147">
        <ele>1286.4</ele>
        <time>2023-09-28T10:02:17Z</time>
      </trkpt>
      <trkpt lat="44.64311" lon="5.85148">
        <ele>1286.6</ele>
        <time>2023-09-28T10:02:19Z</time>
      </trkpt>
      <trkpt lat="44.64313" lon="5.85148">
        <ele>1286.8</ele>
        <time>2023-09-28T10:02:20Z</time>
      </trkpt>
      <trkpt lat="44.64315" lon="5.8515">
        <ele>1286.9</ele>
        <time>2023-09-28T10:02:21Z</time>
      </trkpt>
      <trkpt lat="44.64318" lon="5.85151">
        <ele>1287.2</ele>
        <time>2023-09-28T10:02:22Z</time>
      </trkpt>
      <trkpt lat="44.64322" lon="5.85153">
        <ele>1287.4</ele>
        <time>2023-09-28T10:02:23Z</time>
      </trkpt>
      <trkpt lat="44.64323" lon="5.85154">
        <ele>1287.5</ele>
        <time>2023-09-28T10:02:24Z</time>
      </trkpt>
      <trkpt lat="44.64326" lon="5.85156">
        <ele>1287.7</ele>
        <time>2023-09-28T10:02:26Z</time>
      </trkpt>
      <trkpt lat="44.64329" lon="5.85158">
        <ele>1288</ele>
        <time>2023-09-28T10:02:27Z</time>
      </trkpt>
      <trkpt lat="44.64333" lon="5.8516">
        <ele>1288.3</ele>
        <time>2023-09-28T10:02:28Z</time>
      </trkpt>
      <trkpt lat="44.64334" lon="5.8516">
        <ele>1288.4</ele>
        <time>2023-09-28T10:02:29Z</time>
      </trkpt>
      <trkpt lat="44.64337" lon="5.8516">
        <ele>1288.6</ele>
        <time>2023-09-28T10:02:31Z</time>
      </trkpt>
      <trkpt lat="44.6434" lon="5.85162">
        <ele>1288.8</ele>
        <time>2023-09-28T10:02:32Z</time>
      </trkpt>
      <trkpt lat="44.64344" lon="5.85164">
        <ele>1289.1</ele>
        <time>2023-09-28T10:02:34Z</time>
      </trkpt>
      <trkpt lat="44.64346" lon="5.85164">
        <ele>1289.2</ele>
        <time>2023-09-28T10:02:35Z</time>
      </trkpt>
      <trkpt lat="44.64348" lon="5.85165">
        <ele>1289.4</ele>
        <time>2023-09-28T10:02:36Z</time>
      </trkpt>
      <trkpt lat="44.64351" lon="5.85166">
        <ele>1289.7</ele>
        <time>2023-09-28T10:02:37Z</time>
      </trkpt>
      <trkpt lat="44.64355" lon="5.85167">
        <ele>1289.9</ele>
        <time>2023-09-28T10:02:38Z</time>
      </trkpt>
      <trkpt lat="44.64356" lon="5.85168">
        <ele>1290.1</ele>
        <time>2023-09-28T10:02:39Z</time>
      </trkpt>
      <trkpt lat="44.6436" lon="5.85169">
        <ele>1290.4</ele>
        <time>2023-09-28T10:02:40Z</time>
      </trkpt>
      <trkpt lat="44.64361" lon="5.85169">
        <ele>1290.5</ele>
        <time>2023-09-28T10:02:41Z</time>
      </trkpt>
      <trkpt lat="44.64364" lon="5.85171">
        <ele>1290.7</ele>
        <time>2023-09-28T10:02:43Z</time>
      </trkpt>
      <trkpt lat="44.64368" lon="5.85172">
        <ele>1291.1</ele>
        <time>2023-09-28T10:02:44Z</time>
      </trkpt>
      <trkpt lat="44.64372" lon="5.85174">
        <ele>1291.4</ele>
        <time>2023-09-28T10:02:45Z</time>
      </trkpt>
      <trkpt lat="44.64373" lon="5.85174">
        <ele>1291.5</ele>
        <time>2023-09-28T10:02:46Z</time>
      </trkpt>
      <trkpt lat="44.64377" lon="5.85176">
        <ele>1291.9</ele>
        <time>2023-09-28T10:02:48Z</time>
      </trkpt>
      <trkpt lat="44.64381" lon="5.85178">
        <ele>1292.2</ele>
        <time>2023-09-28T10:02:49Z</time>
      </trkpt>
      <trkpt lat="44.64382" lon="5.85178">
        <ele>1292.3</ele>
        <time>2023-09-28T10:02:50Z</time>
      </trkpt>
      <trkpt lat="44.64385" lon="5.8518">
        <ele>1292.5</ele>
        <time>2023-09-28T10:02:51Z</time>
      </trkpt>
      <trkpt lat="44.64388" lon="5.85181">
        <ele>1292.7</ele>
        <time>2023-09-28T10:02:53Z</time>
      </trkpt>
      <trkpt lat="44.6439" lon="5.85183">
        <ele>1292.9</ele>
        <time>2023-09-28T10:02:54Z</time>
      </trkpt>
      <trkpt lat="44.64393" lon="5.85184">
        <ele>1293.1</ele>
        <time>2023-09-28T10:02:55Z</time>
      </trkpt>
      <trkpt lat="44.64397" lon="5.85187">
        <ele>1293.4</ele>
        <time>2023-09-28T10:02:56Z</time>
      </trkpt>
      <trkpt lat="44.64398" lon="5.85187">
        <ele>1293.5</ele>
        <time>2023-09-28T10:02:57Z</time>
      </trkpt>
      <trkpt lat="44.644" lon="5.85189">
        <ele>1293.6</ele>
        <time>2023-09-28T10:02:58Z</time>
      </trkpt>
      <trkpt lat="44.64405" lon="5.85192">
        <ele>1293.9</ele>
        <time>2023-09-28T10:03:00Z</time>
      </trkpt>
      <trkpt lat="44.64407" lon="5.85195">
        <ele>1294.1</ele>
        <time>2023-09-28T10:03:01Z</time>
      </trkpt>
      <trkpt lat="44.6441" lon="5.85197">
        <ele>1294.3</ele>
        <time>2023-09-28T10:03:02Z</time>
      </trkpt>
      <trkpt lat="44.64412" lon="5.85199">
        <ele>1294.5</ele>
        <time>2023-09-28T10:03:03Z</time>
      </trkpt>
      <trkpt lat="44.64415" lon="5.85201">
        <ele>1294.7</ele>
        <time>2023-09-28T10:03:05Z</time>
      </trkpt>
      <trkpt lat="44.64417" lon="5.85203">
        <ele>1295</ele>
        <time>2023-09-28T10:03:06Z</time>
      </trkpt>
      <trkpt lat="44.6442" lon="5.85206">
        <ele>1295.2</ele>
        <time>2023-09-28T10:03:07Z</time>
      </trkpt>
      <trkpt lat="44.64422" lon="5.85209">
        <ele>1295.5</ele>
        <time>2023-09-28T10:03:08Z</time>
      </trkpt>
      <trkpt lat="44.64425" lon="5.85211">
        <ele>1295.7</ele>
        <time>2023-09-28T10:03:09Z</time>
      </trkpt>
      <trkpt lat="44.64428" lon="5.85212">
        <ele>1296</ele>
        <time>2023-09-28T10:03:10Z</time>
      </trkpt>
      <trkpt lat="44.6443" lon="5.85216">
        <ele>1296.3</ele>
        <time>2023-09-28T10:03:12Z</time>
      </trkpt>
      <trkpt lat="44.64433" lon="5.85218">
        <ele>1296.6</ele>
        <time>2023-09-28T10:03:13Z</time>
      </trkpt>
      <trkpt lat="44.64436" lon="5.85221">
        <ele>1296.9</ele>
        <time>2023-09-28T10:03:14Z</time>
      </trkpt>
      <trkpt lat="44.64438" lon="5.85222">
        <ele>1297.1</ele>
        <time>2023-09-28T10:03:15Z</time>
      </trkpt>
      <trkpt lat="44.64441" lon="5.85225">
        <ele>1297.4</ele>
        <time>2023-09-28T10:03:16Z</time>
      </trkpt>
      <trkpt lat="44.64442" lon="5.85225">
        <ele>1297.5</ele>
        <time>2023-09-28T10:03:17Z</time>
      </trkpt>
      <trkpt lat="44.64445" lon="5.85227">
        <ele>1297.7</ele>
        <time>2023-09-28T10:03:18Z</time>
      </trkpt>
      <trkpt lat="44.64449" lon="5.8523">
        <ele>1298.1</ele>
        <time>2023-09-28T10:03:20Z</time>
      </trkpt>
      <trkpt lat="44.64451" lon="5.85231">
        <ele>1298.2</ele>
        <time>2023-09-28T10:03:21Z</time>
      </trkpt>
      <trkpt lat="44.64452" lon="5.85232">
        <ele>1298.3</ele>
        <time>2023-09-28T10:03:22Z</time>
      </trkpt>
      <trkpt lat="44.64455" lon="5.85232">
        <ele>1298.5</ele>
        <time>2023-09-28T10:03:23Z</time>
      </trkpt>
      <trkpt lat="44.64457" lon="5.85234">
        <ele>1298.7</ele>
        <time>2023-09-28T10:03:24Z</time>
      </trkpt>
      <trkpt lat="44.64459" lon="5.85234">
        <ele>1298.8</ele>
        <time>2023-09-28T10:03:25Z</time>
      </trkpt>
      <trkpt lat="44.64462" lon="5.85237">
        <ele>1299</ele>
        <time>2023-09-28T10:03:26Z</time>
      </trkpt>
      <trkpt lat="44.64463" lon="5.85237">
        <ele>1299.1</ele>
        <time>2023-09-28T10:03:27Z</time>
      </trkpt>
      <trkpt lat="44.64466" lon="5.85237">
        <ele>1299.3</ele>
        <time>2023-09-28T10:03:29Z</time>
      </trkpt>
      <trkpt lat="44.64468" lon="5.85238">
        <ele>1299.5</ele>
        <time>2023-09-28T10:03:30Z</time>
      </trkpt>
      <trkpt lat="44.64472" lon="5.8524">
        <ele>1299.7</ele>
        <time>2023-09-28T10:03:31Z</time>
      </trkpt>
      <trkpt lat="44.64474" lon="5.8524">
        <ele>1299.8</ele>
        <time>2023-09-28T10:03:32Z</time>
      </trkpt>
      <trkpt lat="44.64476" lon="5.85241">
        <ele>1299.9</ele>
        <time>2023-09-28T10:03:33Z</time>
      </trkpt>
      <trkpt lat="44.6448" lon="5.85243">
        <ele>1300.1</ele>
        <time>2023-09-28T10:03:34Z</time>
      </trkpt>
      <trkpt lat="44.64481" lon="5.85243">
        <ele>1300.2</ele>
        <time>2023-09-28T10:03:35Z</time>
      </trkpt>
      <trkpt lat="44.64485" lon="5.85245">
        <ele>1300.4</ele>
        <time>2023-09-28T10:03:36Z</time>
      </trkpt>
      <trkpt lat="44.64486" lon="5.85246">
        <ele>1300.5</ele>
        <time>2023-09-28T10:03:37Z</time>
      </trkpt>
      <trkpt lat="44.64491" lon="5.85247">
        <ele>1300.7</ele>
        <time>2023-09-28T10:03:39Z</time>
      </trkpt>
      <trkpt lat="44.64493" lon="5.85248">
        <ele>1300.8</ele>
        <time>2023-09-28T10:03:40Z</time>
      </trkpt>
      <trkpt lat="44.64495" lon="5.85249">
        <ele>1300.9</ele>
        <time>2023-09-28T10:03:41Z</time>
      </trkpt>
      <trkpt lat="44.64498" lon="5.8525">
        <ele>1301.1</ele>
        <time>2023-09-28T10:03:42Z</time>
      </trkpt>
      <trkpt lat="44.64502" lon="5.85251">
        <ele>1301.3</ele>
        <time>2023-09-28T10:03:43Z</time>
      </trkpt>
      <trkpt lat="44.64503" lon="5.85252">
        <ele>1301.3</ele>
        <time>2023-09-28T10:03:44Z</time>
      </trkpt>
      <trkpt lat="44.64506" lon="5.85253">
        <ele>1301.5</ele>
        <time>2023-09-28T10:03:45Z</time>
      </trkpt>
      <trkpt lat="44.64509" lon="5.85254">
        <ele>1301.7</ele>
        <time>2023-09-28T10:03:47Z</time>
      </trkpt>
      <trkpt lat="44.64512" lon="5.85255">
        <ele>1301.8</ele>
        <time>2023-09-28T10:03:48Z</time>
      </trkpt>
      <trkpt lat="44.64516" lon="5.85256">
        <ele>1302</ele>
        <time>2023-09-28T10:03:49Z</time>
      </trkpt>
      <trkpt lat="44.64517" lon="5.85257">
        <ele>1302.1</ele>
        <time>2023-09-28T10:03:50Z</time>
      </trkpt>
      <trkpt lat="44.64523" lon="5.85259">
        <ele>1302.4</ele>
        <time>2023-09-28T10:03:52Z</time>
      </trkpt>
      <trkpt lat="44.64528" lon="5.85261">
        <ele>1302.7</ele>
        <time>2023-09-28T10:03:54Z</time>
      </trkpt>
      <trkpt lat="44.64532" lon="5.85263">
        <ele>1302.9</ele>
        <time>2023-09-28T10:03:56Z</time>
      </trkpt>
      <trkpt lat="44.64534" lon="5.85264">
        <ele>1303.1</ele>
        <time>2023-09-28T10:03:57Z</time>
      </trkpt>
      <trkpt lat="44.64537" lon="5.85266">
        <ele>1303.2</ele>
        <time>2023-09-28T10:03:58Z</time>
      </trkpt>
      <trkpt lat="44.64541" lon="5.85267">
        <ele>1303.4</ele>
        <time>2023-09-28T10:04:00Z</time>
      </trkpt>
      <trkpt lat="44.64544" lon="5.85268">
        <ele>1303.6</ele>
        <time>2023-09-28T10:04:01Z</time>
      </trkpt>
      <trkpt lat="44.64547" lon="5.85269">
        <ele>1303.8</ele>
        <time>2023-09-28T10:04:02Z</time>
      </trkpt>
      <trkpt lat="44.64549" lon="5.8527">
        <ele>1303.9</ele>
        <time>2023-09-28T10:04:03Z</time>
      </trkpt>
      <trkpt lat="44.64552" lon="5.85272">
        <ele>1304.1</ele>
        <time>2023-09-28T10:04:05Z</time>
      </trkpt>
      <trkpt lat="44.64555" lon="5.85272">
        <ele>1304.2</ele>
        <time>2023-09-28T10:04:06Z</time>
      </trkpt>
      <trkpt lat="44.64558" lon="5.85273">
        <ele>1304.4</ele>
        <time>2023-09-28T10:04:07Z</time>
      </trkpt>
      <trkpt lat="44.64561" lon="5.85275">
        <ele>1304.6</ele>
        <time>2023-09-28T10:04:08Z</time>
      </trkpt>
      <trkpt lat="44.64565" lon="5.85276">
        <ele>1304.8</ele>
        <time>2023-09-28T10:04:09Z</time>
      </trkpt>
      <trkpt lat="44.64566" lon="5.85277">
        <ele>1304.9</ele>
        <time>2023-09-28T10:04:10Z</time>
      </trkpt>
      <trkpt lat="44.6457" lon="5.85278">
        <ele>1305.2</ele>
        <time>2023-09-28T10:04:11Z</time>
      </trkpt>
      <trkpt lat="44.64572" lon="5.85279">
        <ele>1305.3</ele>
        <time>2023-09-28T10:04:12Z</time>
      </trkpt>
      <trkpt lat="44.64577" lon="5.85281">
        <ele>1305.7</ele>
        <time>2023-09-28T10:04:14Z</time>
      </trkpt>
      <trkpt lat="44.64579" lon="5.85282">
        <ele>1305.8</ele>
        <time>2023-09-28T10:04:15Z</time>
      </trkpt>
      <trkpt lat="44.64581" lon="5.85282">
        <ele>1305.9</ele>
        <time>2023-09-28T10:04:16Z</time>
      </trkpt>
      <trkpt lat="44.64585" lon="5.85284">
        <ele>1306.2</ele>
        <time>2023-09-28T10:04:17Z</time>
      </trkpt>
      <trkpt lat="44.64586" lon="5.85285">
        <ele>1306.3</ele>
        <time>2023-09-28T10:04:18Z</time>
      </trkpt>
      <trkpt lat="44.64589" lon="5.85286">
        <ele>1306.5</ele>
        <time>2023-09-28T10:04:19Z</time>
      </trkpt>
      <trkpt lat="44.64592" lon="5.85286">
        <ele>1306.7</ele>
        <time>2023-09-28T10:04:20Z</time>
      </trkpt>
      <trkpt lat="44.64595" lon="5.85287">
        <ele>1306.9</ele>
        <time>2023-09-28T10:04:21Z</time>
      </trkpt>
      <trkpt lat="44.64598" lon="5.85289">
        <ele>1307.2</ele>
        <time>2023-09-28T10:04:23Z</time>
      </trkpt>
      <trkpt lat="44.64603" lon="5.85291">
        <ele>1307.5</ele>
        <time>2023-09-28T10:04:24Z</time>
      </trkpt>
      <trkpt lat="44.64606" lon="5.85292">
        <ele>1307.8</ele>
        <time>2023-09-28T10:04:25Z</time>
      </trkpt>
      <trkpt lat="44.64609" lon="5.85292">
        <ele>1308</ele>
        <time>2023-09-28T10:04:27Z</time>
      </trkpt>
      <trkpt lat="44.64613" lon="5.85293">
        <ele>1308.3</ele>
        <time>2023-09-28T10:04:28Z</time>
      </trkpt>
      <trkpt lat="44.64616" lon="5.85294">
        <ele>1308.5</ele>
        <time>2023-09-28T10:04:29Z</time>
      </trkpt>
      <trkpt lat="44.64619" lon="5.85295">
        <ele>1308.8</ele>
        <time>2023-09-28T10:04:31Z</time>
      </trkpt>
      <trkpt lat="44.64622" lon="5.85297">
        <ele>1309</ele>
        <time>2023-09-28T10:04:32Z</time>
      </trkpt>
      <trkpt lat="44.64625" lon="5.85298">
        <ele>1309.3</ele>
        <time>2023-09-28T10:04:33Z</time>
      </trkpt>
      <trkpt lat="44.64629" lon="5.853">
        <ele>1309.6</ele>
        <time>2023-09-28T10:04:34Z</time>
      </trkpt>
      <trkpt lat="44.6463" lon="5.853">
        <ele>1309.8</ele>
        <time>2023-09-28T10:04:35Z</time>
      </trkpt>
      <trkpt lat="44.64634" lon="5.85302">
        <ele>1310.1</ele>
        <time>2023-09-28T10:04:36Z</time>
      </trkpt>
      <trkpt lat="44.64635" lon="5.85303">
        <ele>1310.3</ele>
        <time>2023-09-28T10:04:37Z</time>
      </trkpt>
      <trkpt lat="44.64638" lon="5.85303">
        <ele>1310.5</ele>
        <time>2023-09-28T10:04:38Z</time>
      </trkpt>
      <trkpt lat="44.64641" lon="5.85305">
        <ele>1310.8</ele>
        <time>2023-09-28T10:04:40Z</time>
      </trkpt>
      <trkpt lat="44.64645" lon="5.85306">
        <ele>1311.1</ele>
        <time>2023-09-28T10:04:41Z</time>
      </trkpt>
      <trkpt lat="44.64649" lon="5.85308">
        <ele>1311.4</ele>
        <time>2023-09-28T10:04:42Z</time>
      </trkpt>
      <trkpt lat="44.6465" lon="5.85308">
        <ele>1311.5</ele>
        <time>2023-09-28T10:04:43Z</time>
      </trkpt>
      <trkpt lat="44.64654" lon="5.85309">
        <ele>1311.8</ele>
        <time>2023-09-28T10:04:44Z</time>
      </trkpt>
      <trkpt lat="44.64657" lon="5.8531">
        <ele>1312.1</ele>
        <time>2023-09-28T10:04:45Z</time>
      </trkpt>
      <trkpt lat="44.6466" lon="5.8531">
        <ele>1312.3</ele>
        <time>2023-09-28T10:04:47Z</time>
      </trkpt>
      <trkpt lat="44.64662" lon="5.85312">
        <ele>1312.5</ele>
        <time>2023-09-28T10:04:48Z</time>
      </trkpt>
      <trkpt lat="44.64665" lon="5.85314">
        <ele>1312.8</ele>
        <time>2023-09-28T10:04:49Z</time>
      </trkpt>
      <trkpt lat="44.64669" lon="5.85315">
        <ele>1313.1</ele>
        <time>2023-09-28T10:04:50Z</time>
      </trkpt>
      <trkpt lat="44.6467" lon="5.85316">
        <ele>1313.2</ele>
        <time>2023-09-28T10:04:51Z</time>
      </trkpt>
      <trkpt lat="44.64675" lon="5.85317">
        <ele>1313.5</ele>
        <time>2023-09-28T10:04:53Z</time>
      </trkpt>
      <trkpt lat="44.64676" lon="5.85318">
        <ele>1313.7</ele>
        <time>2023-09-28T10:04:54Z</time>
      </trkpt>
      <trkpt lat="44.64678" lon="5.85318">
        <ele>1313.8</ele>
        <time>2023-09-28T10:04:55Z</time>
      </trkpt>
      <trkpt lat="44.64681" lon="5.8532">
        <ele>1314</ele>
        <time>2023-09-28T10:04:56Z</time>
      </trkpt>
      <trkpt lat="44.64685" lon="5.85321">
        <ele>1314.3</ele>
        <time>2023-09-28T10:04:57Z</time>
      </trkpt>
      <trkpt lat="44.64686" lon="5.85322">
        <ele>1314.5</ele>
        <time>2023-09-28T10:04:58Z</time>
      </trkpt>
      <trkpt lat="44.64689" lon="5.85322">
        <ele>1314.6</ele>
        <time>2023-09-28T10:04:59Z</time>
      </trkpt>
      <trkpt lat="44.64691" lon="5.85323">
        <ele>1314.9</ele>
        <time>2023-09-28T10:05:01Z</time>
      </trkpt>
      <trkpt lat="44.64694" lon="5.85324">
        <ele>1315.1</ele>
        <time>2023-09-28T10:05:02Z</time>
      </trkpt>
      <trkpt lat="44.64697" lon="5.85324">
        <ele>1315.4</ele>
        <time>2023-09-28T10:05:03Z</time>
      </trkpt>
      <trkpt lat="44.64701" lon="5.85326">
        <ele>1315.6</ele>
        <time>2023-09-28T10:05:04Z</time>
      </trkpt>
      <trkpt lat="44.64702" lon="5.85326">
        <ele>1315.7</ele>
        <time>2023-09-28T10:05:05Z</time>
      </trkpt>
      <trkpt lat="44.64706" lon="5.85327">
        <ele>1316.1</ele>
        <time>2023-09-28T10:05:06Z</time>
      </trkpt>
      <trkpt lat="44.64707" lon="5.85328">
        <ele>1316.2</ele>
        <time>2023-09-28T10:05:07Z</time>
      </trkpt>
      <trkpt lat="44.6471" lon="5.85329">
        <ele>1316.5</ele>
        <time>2023-09-28T10:05:09Z</time>
      </trkpt>
      <trkpt lat="44.64714" lon="5.85329">
        <ele>1316.8</ele>
        <time>2023-09-28T10:05:10Z</time>
      </trkpt>
      <trkpt lat="44.64716" lon="5.8533">
        <ele>1316.9</ele>
        <time>2023-09-28T10:05:11Z</time>
      </trkpt>
      <trkpt lat="44.64719" lon="5.8533">
        <ele>1317.1</ele>
        <time>2023-09-28T10:05:13Z</time>
      </trkpt>
      <trkpt lat="44.64723" lon="5.85331">
        <ele>1317.5</ele>
        <time>2023-09-28T10:05:14Z</time>
      </trkpt>
      <trkpt lat="44.64726" lon="5.85331">
        <ele>1317.7</ele>
        <time>2023-09-28T10:05:15Z</time>
      </trkpt>
      <trkpt lat="44.64729" lon="5.85333">
        <ele>1318</ele>
        <time>2023-09-28T10:05:17Z</time>
      </trkpt>
      <trkpt lat="44.64733" lon="5.85333">
        <ele>1318.3</ele>
        <time>2023-09-28T10:05:18Z</time>
      </trkpt>
      <trkpt lat="44.64736" lon="5.85334">
        <ele>1318.6</ele>
        <time>2023-09-28T10:05:19Z</time>
      </trkpt>
      <trkpt lat="44.6474" lon="5.85334">
        <ele>1318.9</ele>
        <time>2023-09-28T10:05:21Z</time>
      </trkpt>
      <trkpt lat="44.64742" lon="5.85335">
        <ele>1319.1</ele>
        <time>2023-09-28T10:05:22Z</time>
      </trkpt>
      <trkpt lat="44.64744" lon="5.85335">
        <ele>1319.2</ele>
        <time>2023-09-28T10:05:23Z</time>
      </trkpt>
      <trkpt lat="44.64747" lon="5.85336">
        <ele>1319.5</ele>
        <time>2023-09-28T10:05:24Z</time>
      </trkpt>
      <trkpt lat="44.6475" lon="5.85337">
        <ele>1319.8</ele>
        <time>2023-09-28T10:05:25Z</time>
      </trkpt>
      <trkpt lat="44.64752" lon="5.85337">
        <ele>1319.9</ele>
        <time>2023-09-28T10:05:26Z</time>
      </trkpt>
      <trkpt lat="44.64755" lon="5.85338">
        <ele>1320.2</ele>
        <time>2023-09-28T10:05:27Z</time>
      </trkpt>
      <trkpt lat="44.64756" lon="5.85338">
        <ele>1320.3</ele>
        <time>2023-09-28T10:05:28Z</time>
      </trkpt>
      <trkpt lat="44.6476" lon="5.85338">
        <ele>1320.6</ele>
        <time>2023-09-28T10:05:29Z</time>
      </trkpt>
      <trkpt lat="44.64762" lon="5.85339">
        <ele>1320.8</ele>
        <time>2023-09-28T10:05:31Z</time>
      </trkpt>
      <trkpt lat="44.64765" lon="5.8534">
        <ele>1321</ele>
        <time>2023-09-28T10:05:32Z</time>
      </trkpt>
      <trkpt lat="44.64769" lon="5.8534">
        <ele>1321.4</ele>
        <time>2023-09-28T10:05:33Z</time>
      </trkpt>
      <trkpt lat="44.6477" lon="5.8534">
        <ele>1321.5</ele>
        <time>2023-09-28T10:05:34Z</time>
      </trkpt>
      <trkpt lat="44.64774" lon="5.85342">
        <ele>1321.8</ele>
        <time>2023-09-28T10:05:35Z</time>
      </trkpt>
      <trkpt lat="44.64775" lon="5.85342">
        <ele>1321.9</ele>
        <time>2023-09-28T10:05:36Z</time>
      </trkpt>
      <trkpt lat="44.64777" lon="5.85343">
        <ele>1322.1</ele>
        <time>2023-09-28T10:05:37Z</time>
      </trkpt>
      <trkpt lat="44.6478" lon="5.85343">
        <ele>1322.3</ele>
        <time>2023-09-28T10:05:39Z</time>
      </trkpt>
      <trkpt lat="44.64784" lon="5.85344">
        <ele>1322.7</ele>
        <time>2023-09-28T10:05:40Z</time>
      </trkpt>
      <trkpt lat="44.64785" lon="5.85344">
        <ele>1322.8</ele>
        <time>2023-09-28T10:05:41Z</time>
      </trkpt>
      <trkpt lat="44.64789" lon="5.85345">
        <ele>1323.1</ele>
        <time>2023-09-28T10:05:42Z</time>
      </trkpt>
      <trkpt lat="44.6479" lon="5.85345">
        <ele>1323.2</ele>
        <time>2023-09-28T10:05:43Z</time>
      </trkpt>
      <trkpt lat="44.64793" lon="5.85346">
        <ele>1323.5</ele>
        <time>2023-09-28T10:05:44Z</time>
      </trkpt>
      <trkpt lat="44.64796" lon="5.85347">
        <ele>1323.8</ele>
        <time>2023-09-28T10:05:45Z</time>
      </trkpt>
      <trkpt lat="44.64798" lon="5.85347">
        <ele>1323.9</ele>
        <time>2023-09-28T10:05:46Z</time>
      </trkpt>
      <trkpt lat="44.64801" lon="5.85348">
        <ele>1324.2</ele>
        <time>2023-09-28T10:05:47Z</time>
      </trkpt>
      <trkpt lat="44.64802" lon="5.85348">
        <ele>1324.3</ele>
        <time>2023-09-28T10:05:48Z</time>
      </trkpt>
      <trkpt lat="44.64806" lon="5.85348">
        <ele>1324.6</ele>
        <time>2023-09-28T10:05:50Z</time>
      </trkpt>
      <trkpt lat="44.64807" lon="5.85349">
        <ele>1324.7</ele>
        <time>2023-09-28T10:05:51Z</time>
      </trkpt>
      <trkpt lat="44.6481" lon="5.85349">
        <ele>1325</ele>
        <time>2023-09-28T10:05:52Z</time>
      </trkpt>
      <trkpt lat="44.64814" lon="5.8535">
        <ele>1325.2</ele>
        <time>2023-09-28T10:05:53Z</time>
      </trkpt>
      <trkpt lat="44.64815" lon="5.8535">
        <ele>1325.3</ele>
        <time>2023-09-28T10:05:54Z</time>
      </trkpt>
      <trkpt lat="44.64818" lon="5.85351">
        <ele>1325.5</ele>
        <time>2023-09-28T10:05:55Z</time>
      </trkpt>
      <trkpt lat="44.64822" lon="5.85353">
        <ele>1325.8</ele>
        <time>2023-09-28T10:05:57Z</time>
      </trkpt>
      <trkpt lat="44.64826" lon="5.85354">
        <ele>1326.1</ele>
        <time>2023-09-28T10:05:58Z</time>
      </trkpt>
      <trkpt lat="44.64827" lon="5.85355">
        <ele>1326.2</ele>
        <time>2023-09-28T10:05:59Z</time>
      </trkpt>
      <trkpt lat="44.6483" lon="5.85357">
        <ele>1326.5</ele>
        <time>2023-09-28T10:06:00Z</time>
      </trkpt>
      <trkpt lat="44.64832" lon="5.85357">
        <ele>1326.6</ele>
        <time>2023-09-28T10:06:01Z</time>
      </trkpt>
      <trkpt lat="44.64836" lon="5.85357">
        <ele>1326.9</ele>
        <time>2023-09-28T10:06:03Z</time>
      </trkpt>
      <trkpt lat="44.64837" lon="5.85357">
        <ele>1327</ele>
        <time>2023-09-28T10:06:04Z</time>
      </trkpt>
      <trkpt lat="44.6484" lon="5.85357">
        <ele>1327.2</ele>
        <time>2023-09-28T10:06:05Z</time>
      </trkpt>
      <trkpt lat="44.64844" lon="5.85358">
        <ele>1327.5</ele>
        <time>2023-09-28T10:06:06Z</time>
      </trkpt>
      <trkpt lat="44.64845" lon="5.85358">
        <ele>1327.6</ele>
        <time>2023-09-28T10:06:07Z</time>
      </trkpt>
      <trkpt lat="44.64848" lon="5.85359">
        <ele>1327.7</ele>
        <time>2023-09-28T10:06:08Z</time>
      </trkpt>
      <trkpt lat="44.64852" lon="5.8536">
        <ele>1328</ele>
        <time>2023-09-28T10:06:10Z</time>
      </trkpt>
      <trkpt lat="44.64855" lon="5.8536">
        <ele>1328.3</ele>
        <time>2023-09-28T10:06:11Z</time>
      </trkpt>
      <trkpt lat="44.64857" lon="5.85361">
        <ele>1328.4</ele>
        <time>2023-09-28T10:06:12Z</time>
      </trkpt>
      <trkpt lat="44.64861" lon="5.85362">
        <ele>1328.7</ele>
        <time>2023-09-28T10:06:14Z</time>
      </trkpt>
      <trkpt lat="44.64864" lon="5.85363">
        <ele>1329</ele>
        <time>2023-09-28T10:06:15Z</time>
      </trkpt>
      <trkpt lat="44.64866" lon="5.85364">
        <ele>1329.1</ele>
        <time>2023-09-28T10:06:16Z</time>
      </trkpt>
      <trkpt lat="44.6487" lon="5.85363">
        <ele>1329.4</ele>
        <time>2023-09-28T10:06:18Z</time>
      </trkpt>
      <trkpt lat="44.64874" lon="5.85364">
        <ele>1329.6</ele>
        <time>2023-09-28T10:06:19Z</time>
      </trkpt>
      <trkpt lat="44.64875" lon="5.85364">
        <ele>1329.7</ele>
        <time>2023-09-28T10:06:20Z</time>
      </trkpt>
      <trkpt lat="44.64879" lon="5.85365">
        <ele>1330.1</ele>
        <time>2023-09-28T10:06:22Z</time>
      </trkpt>
      <trkpt lat="44.64882" lon="5.85366">
        <ele>1330.3</ele>
        <time>2023-09-28T10:06:23Z</time>
      </trkpt>
      <trkpt lat="44.64885" lon="5.85367">
        <ele>1330.6</ele>
        <time>2023-09-28T10:06:24Z</time>
      </trkpt>
      <trkpt lat="44.64887" lon="5.85367">
        <ele>1330.6</ele>
        <time>2023-09-28T10:06:25Z</time>
      </trkpt>
      <trkpt lat="44.64891" lon="5.85368">
        <ele>1330.9</ele>
        <time>2023-09-28T10:06:26Z</time>
      </trkpt>
      <trkpt lat="44.64892" lon="5.85368">
        <ele>1331.1</ele>
        <time>2023-09-28T10:06:27Z</time>
      </trkpt>
      <trkpt lat="44.64895" lon="5.85369">
        <ele>1331.3</ele>
        <time>2023-09-28T10:06:29Z</time>
      </trkpt>
      <trkpt lat="44.64898" lon="5.85369">
        <ele>1331.5</ele>
        <time>2023-09-28T10:06:30Z</time>
      </trkpt>
      <trkpt lat="44.64901" lon="5.8537">
        <ele>1331.7</ele>
        <time>2023-09-28T10:06:31Z</time>
      </trkpt>
      <trkpt lat="44.64905" lon="5.85372">
        <ele>1332</ele>
        <time>2023-09-28T10:06:32Z</time>
      </trkpt>
      <trkpt lat="44.64906" lon="5.85372">
        <ele>1332.1</ele>
        <time>2023-09-28T10:06:33Z</time>
      </trkpt>
      <trkpt lat="44.64908" lon="5.85372">
        <ele>1332.3</ele>
        <time>2023-09-28T10:06:34Z</time>
      </trkpt>
      <trkpt lat="44.64911" lon="5.85374">
        <ele>1332.5</ele>
        <time>2023-09-28T10:06:35Z</time>
      </trkpt>
      <trkpt lat="44.64915" lon="5.85375">
        <ele>1332.8</ele>
        <time>2023-09-28T10:06:37Z</time>
      </trkpt>
      <trkpt lat="44.64918" lon="5.85377">
        <ele>1333</ele>
        <time>2023-09-28T10:06:38Z</time>
      </trkpt>
      <trkpt lat="44.6492" lon="5.85379">
        <ele>1333.2</ele>
        <time>2023-09-28T10:06:39Z</time>
      </trkpt>
      <trkpt lat="44.64924" lon="5.85382">
        <ele>1333.6</ele>
        <time>2023-09-28T10:06:41Z</time>
      </trkpt>
      <trkpt lat="44.64926" lon="5.85383">
        <ele>1333.7</ele>
        <time>2023-09-28T10:06:42Z</time>
      </trkpt>
      <trkpt lat="44.64928" lon="5.85384">
        <ele>1333.9</ele>
        <time>2023-09-28T10:06:43Z</time>
      </trkpt>
      <trkpt lat="44.64932" lon="5.85386">
        <ele>1334.1</ele>
        <time>2023-09-28T10:06:44Z</time>
      </trkpt>
      <trkpt lat="44.64933" lon="5.85386">
        <ele>1334.2</ele>
        <time>2023-09-28T10:06:45Z</time>
      </trkpt>
      <trkpt lat="44.64936" lon="5.85389">
        <ele>1334.5</ele>
        <time>2023-09-28T10:06:46Z</time>
      </trkpt>
      <trkpt lat="44.64938" lon="5.85389">
        <ele>1334.6</ele>
        <time>2023-09-28T10:06:47Z</time>
      </trkpt>
      <trkpt lat="44.6494" lon="5.85391">
        <ele>1334.8</ele>
        <time>2023-09-28T10:06:48Z</time>
      </trkpt>
      <trkpt lat="44.64944" lon="5.85394">
        <ele>1335.1</ele>
        <time>2023-09-28T10:06:50Z</time>
      </trkpt>
      <trkpt lat="44.64947" lon="5.85395">
        <ele>1335.3</ele>
        <time>2023-09-28T10:06:51Z</time>
      </trkpt>
      <trkpt lat="44.6495" lon="5.85398">
        <ele>1335.6</ele>
        <time>2023-09-28T10:06:52Z</time>
      </trkpt>
      <trkpt lat="44.64952" lon="5.85398">
        <ele>1335.8</ele>
        <time>2023-09-28T10:06:53Z</time>
      </trkpt>
      <trkpt lat="44.64956" lon="5.85401">
        <ele>1336.1</ele>
        <time>2023-09-28T10:06:55Z</time>
      </trkpt>
      <trkpt lat="44.64957" lon="5.85402">
        <ele>1336.3</ele>
        <time>2023-09-28T10:06:56Z</time>
      </trkpt>
      <trkpt lat="44.64959" lon="5.85403">
        <ele>1336.4</ele>
        <time>2023-09-28T10:06:57Z</time>
      </trkpt>
      <trkpt lat="44.64962" lon="5.85405">
        <ele>1336.7</ele>
        <time>2023-09-28T10:06:58Z</time>
      </trkpt>
      <trkpt lat="44.64963" lon="5.85406">
        <ele>1336.8</ele>
        <time>2023-09-28T10:06:59Z</time>
      </trkpt>
      <trkpt lat="44.64965" lon="5.85408">
        <ele>1337.1</ele>
        <time>2023-09-28T10:07:00Z</time>
      </trkpt>
      <trkpt lat="44.64967" lon="5.8541">
        <ele>1337.3</ele>
        <time>2023-09-28T10:07:01Z</time>
      </trkpt>
      <trkpt lat="44.6497" lon="5.85412">
        <ele>1337.5</ele>
        <time>2023-09-28T10:07:03Z</time>
      </trkpt>
      <trkpt lat="44.64973" lon="5.85415">
        <ele>1337.9</ele>
        <time>2023-09-28T10:07:04Z</time>
      </trkpt>
      <trkpt lat="44.64974" lon="5.85415">
        <ele>1338</ele>
        <time>2023-09-28T10:07:05Z</time>
      </trkpt>
      <trkpt lat="44.64977" lon="5.85417">
        <ele>1338.3</ele>
        <time>2023-09-28T10:07:06Z</time>
      </trkpt>
      <trkpt lat="44.6498" lon="5.85419">
        <ele>1338.6</ele>
        <time>2023-09-28T10:07:07Z</time>
      </trkpt>
      <trkpt lat="44.64982" lon="5.85421">
        <ele>1338.8</ele>
        <time>2023-09-28T10:07:08Z</time>
      </trkpt>
      <trkpt lat="44.64985" lon="5.85423">
        <ele>1339.1</ele>
        <time>2023-09-28T10:07:09Z</time>
      </trkpt>
      <trkpt lat="44.64988" lon="5.85426">
        <ele>1339.4</ele>
        <time>2023-09-28T10:07:11Z</time>
      </trkpt>
      <trkpt lat="44.64991" lon="5.85428">
        <ele>1339.7</ele>
        <time>2023-09-28T10:07:12Z</time>
      </trkpt>
      <trkpt lat="44.64993" lon="5.85431">
        <ele>1339.9</ele>
        <time>2023-09-28T10:07:13Z</time>
      </trkpt>
      <trkpt lat="44.64995" lon="5.85431">
        <ele>1340.2</ele>
        <time>2023-09-28T10:07:14Z</time>
      </trkpt>
      <trkpt lat="44.65" lon="5.85435">
        <ele>1340.7</ele>
        <time>2023-09-28T10:07:16Z</time>
      </trkpt>
      <trkpt lat="44.65003" lon="5.85437">
        <ele>1341</ele>
        <time>2023-09-28T10:07:18Z</time>
      </trkpt>
      <trkpt lat="44.65006" lon="5.8544">
        <ele>1341.4</ele>
        <time>2023-09-28T10:07:19Z</time>
      </trkpt>
      <trkpt lat="44.65009" lon="5.85443">
        <ele>1341.7</ele>
        <time>2023-09-28T10:07:20Z</time>
      </trkpt>
      <trkpt lat="44.65012" lon="5.85445">
        <ele>1342</ele>
        <time>2023-09-28T10:07:22Z</time>
      </trkpt>
      <trkpt lat="44.65014" lon="5.85447">
        <ele>1342.2</ele>
        <time>2023-09-28T10:07:23Z</time>
      </trkpt>
      <trkpt lat="44.65018" lon="5.85449">
        <ele>1342.5</ele>
        <time>2023-09-28T10:07:24Z</time>
      </trkpt>
      <trkpt lat="44.65019" lon="5.8545">
        <ele>1342.6</ele>
        <time>2023-09-28T10:07:25Z</time>
      </trkpt>
      <trkpt lat="44.65021" lon="5.85452">
        <ele>1342.9</ele>
        <time>2023-09-28T10:07:26Z</time>
      </trkpt>
      <trkpt lat="44.65023" lon="5.85454">
        <ele>1343.1</ele>
        <time>2023-09-28T10:07:27Z</time>
      </trkpt>
      <trkpt lat="44.65027" lon="5.85457">
        <ele>1343.5</ele>
        <time>2023-09-28T10:07:29Z</time>
      </trkpt>
      <trkpt lat="44.65029" lon="5.85458">
        <ele>1343.6</ele>
        <time>2023-09-28T10:07:30Z</time>
      </trkpt>
      <trkpt lat="44.65031" lon="5.85459">
        <ele>1343.8</ele>
        <time>2023-09-28T10:07:31Z</time>
      </trkpt>
      <trkpt lat="44.65033" lon="5.85461">
        <ele>1344</ele>
        <time>2023-09-28T10:07:32Z</time>
      </trkpt>
      <trkpt lat="44.65035" lon="5.85464">
        <ele>1344.3</ele>
        <time>2023-09-28T10:07:33Z</time>
      </trkpt>
      <trkpt lat="44.65039" lon="5.85466">
        <ele>1344.6</ele>
        <time>2023-09-28T10:07:34Z</time>
      </trkpt>
      <trkpt lat="44.6504" lon="5.85467">
        <ele>1344.7</ele>
        <time>2023-09-28T10:07:35Z</time>
      </trkpt>
      <trkpt lat="44.65042" lon="5.85469">
        <ele>1344.9</ele>
        <time>2023-09-28T10:07:37Z</time>
      </trkpt>
      <trkpt lat="44.65045" lon="5.85471">
        <ele>1345.2</ele>
        <time>2023-09-28T10:07:38Z</time>
      </trkpt>
      <trkpt lat="44.65048" lon="5.85473">
        <ele>1345.5</ele>
        <time>2023-09-28T10:07:39Z</time>
      </trkpt>
      <trkpt lat="44.6505" lon="5.85475">
        <ele>1345.7</ele>
        <time>2023-09-28T10:07:40Z</time>
      </trkpt>
      <trkpt lat="44.65054" lon="5.85477">
        <ele>1346.1</ele>
        <time>2023-09-28T10:07:41Z</time>
      </trkpt>
      <trkpt lat="44.65055" lon="5.85479">
        <ele>1346.2</ele>
        <time>2023-09-28T10:07:42Z</time>
      </trkpt>
      <trkpt lat="44.65057" lon="5.85481">
        <ele>1346.4</ele>
        <time>2023-09-28T10:07:43Z</time>
      </trkpt>
      <trkpt lat="44.65059" lon="5.85482">
        <ele>1346.6</ele>
        <time>2023-09-28T10:07:44Z</time>
      </trkpt>
      <trkpt lat="44.65062" lon="5.85484">
        <ele>1346.9</ele>
        <time>2023-09-28T10:07:46Z</time>
      </trkpt>
      <trkpt lat="44.65065" lon="5.85487">
        <ele>1347.1</ele>
        <time>2023-09-28T10:07:47Z</time>
      </trkpt>
      <trkpt lat="44.65069" lon="5.85489">
        <ele>1347.4</ele>
        <time>2023-09-28T10:07:48Z</time>
      </trkpt>
      <trkpt lat="44.6507" lon="5.8549">
        <ele>1347.6</ele>
        <time>2023-09-28T10:07:49Z</time>
      </trkpt>
      <trkpt lat="44.65073" lon="5.85493">
        <ele>1347.9</ele>
        <time>2023-09-28T10:07:50Z</time>
      </trkpt>
      <trkpt lat="44.65074" lon="5.85494">
        <ele>1348</ele>
        <time>2023-09-28T10:07:51Z</time>
      </trkpt>
      <trkpt lat="44.65076" lon="5.85496">
        <ele>1348.2</ele>
        <time>2023-09-28T10:07:52Z</time>
      </trkpt>
      <trkpt lat="44.65079" lon="5.85497">
        <ele>1348.4</ele>
        <time>2023-09-28T10:07:53Z</time>
      </trkpt>
      <trkpt lat="44.65082" lon="5.855">
        <ele>1348.6</ele>
        <time>2023-09-28T10:07:54Z</time>
      </trkpt>
      <trkpt lat="44.65086" lon="5.85503">
        <ele>1349</ele>
        <time>2023-09-28T10:07:56Z</time>
      </trkpt>
      <trkpt lat="44.65088" lon="5.85505">
        <ele>1349.1</ele>
        <time>2023-09-28T10:07:57Z</time>
      </trkpt>
      <trkpt lat="44.6509" lon="5.85506">
        <ele>1349.3</ele>
        <time>2023-09-28T10:07:58Z</time>
      </trkpt>
      <trkpt lat="44.65092" lon="5.85508">
        <ele>1349.5</ele>
        <time>2023-09-28T10:07:59Z</time>
      </trkpt>
      <trkpt lat="44.65094" lon="5.8551">
        <ele>1349.6</ele>
        <time>2023-09-28T10:08:00Z</time>
      </trkpt>
      <trkpt lat="44.65097" lon="5.85512">
        <ele>1349.8</ele>
        <time>2023-09-28T10:08:02Z</time>
      </trkpt>
      <trkpt lat="44.65101" lon="5.85515">
        <ele>1350.1</ele>
        <time>2023-09-28T10:08:03Z</time>
      </trkpt>
      <trkpt lat="44.65103" lon="5.85517">
        <ele>1350.3</ele>
        <time>2023-09-28T10:08:04Z</time>
      </trkpt>
      <trkpt lat="44.65106" lon="5.85519">
        <ele>1350.5</ele>
        <time>2023-09-28T10:08:05Z</time>
      </trkpt>
      <trkpt lat="44.65108" lon="5.85521">
        <ele>1350.7</ele>
        <time>2023-09-28T10:08:07Z</time>
      </trkpt>
      <trkpt lat="44.65111" lon="5.85524">
        <ele>1350.9</ele>
        <time>2023-09-28T10:08:08Z</time>
      </trkpt>
      <trkpt lat="44.65114" lon="5.85526">
        <ele>1351</ele>
        <time>2023-09-28T10:08:09Z</time>
      </trkpt>
      <trkpt lat="44.65117" lon="5.85528">
        <ele>1351.2</ele>
        <time>2023-09-28T10:08:10Z</time>
      </trkpt>
      <trkpt lat="44.6512" lon="5.8553">
        <ele>1351.4</ele>
        <time>2023-09-28T10:08:11Z</time>
      </trkpt>
      <trkpt lat="44.65122" lon="5.85532">
        <ele>1351.6</ele>
        <time>2023-09-28T10:08:12Z</time>
      </trkpt>
      <trkpt lat="44.65125" lon="5.85534">
        <ele>1351.7</ele>
        <time>2023-09-28T10:08:13Z</time>
      </trkpt>
      <trkpt lat="44.65128" lon="5.85536">
        <ele>1351.8</ele>
        <time>2023-09-28T10:08:14Z</time>
      </trkpt>
      <trkpt lat="44.6513" lon="5.85539">
        <ele>1352</ele>
        <time>2023-09-28T10:08:16Z</time>
      </trkpt>
      <trkpt lat="44.65133" lon="5.85541">
        <ele>1352.1</ele>
        <time>2023-09-28T10:08:17Z</time>
      </trkpt>
      <trkpt lat="44.65136" lon="5.85544">
        <ele>1352.3</ele>
        <time>2023-09-28T10:08:18Z</time>
      </trkpt>
      <trkpt lat="44.65138" lon="5.85545">
        <ele>1352.4</ele>
        <time>2023-09-28T10:08:19Z</time>
      </trkpt>
      <trkpt lat="44.65141" lon="5.85546">
        <ele>1352.5</ele>
        <time>2023-09-28T10:08:20Z</time>
      </trkpt>
      <trkpt lat="44.65144" lon="5.85549">
        <ele>1352.7</ele>
        <time>2023-09-28T10:08:21Z</time>
      </trkpt>
      <trkpt lat="44.65146" lon="5.85552">
        <ele>1352.8</ele>
        <time>2023-09-28T10:08:22Z</time>
      </trkpt>
      <trkpt lat="44.65149" lon="5.85554">
        <ele>1353</ele>
        <time>2023-09-28T10:08:23Z</time>
      </trkpt>
      <trkpt lat="44.65152" lon="5.85556">
        <ele>1353.1</ele>
        <time>2023-09-28T10:08:25Z</time>
      </trkpt>
      <trkpt lat="44.65155" lon="5.85558">
        <ele>1353.2</ele>
        <time>2023-09-28T10:08:26Z</time>
      </trkpt>
      <trkpt lat="44.65158" lon="5.85561">
        <ele>1353.3</ele>
        <time>2023-09-28T10:08:27Z</time>
      </trkpt>
      <trkpt lat="44.65162" lon="5.85563">
        <ele>1353.5</ele>
        <time>2023-09-28T10:08:28Z</time>
      </trkpt>
      <trkpt lat="44.65163" lon="5.85564">
        <ele>1353.5</ele>
        <time>2023-09-28T10:08:29Z</time>
      </trkpt>
      <trkpt lat="44.65166" lon="5.85567">
        <ele>1353.7</ele>
        <time>2023-09-28T10:08:30Z</time>
      </trkpt>
      <trkpt lat="44.65169" lon="5.8557">
        <ele>1353.8</ele>
        <time>2023-09-28T10:08:32Z</time>
      </trkpt>
      <trkpt lat="44.65172" lon="5.85572">
        <ele>1353.9</ele>
        <time>2023-09-28T10:08:33Z</time>
      </trkpt>
      <trkpt lat="44.65175" lon="5.85574">
        <ele>1354</ele>
        <time>2023-09-28T10:08:34Z</time>
      </trkpt>
      <trkpt lat="44.65178" lon="5.85577">
        <ele>1354</ele>
        <time>2023-09-28T10:08:35Z</time>
      </trkpt>
      <trkpt lat="44.65181" lon="5.85579">
        <ele>1354.1</ele>
        <time>2023-09-28T10:08:36Z</time>
      </trkpt>
      <trkpt lat="44.65184" lon="5.85582">
        <ele>1354.2</ele>
        <time>2023-09-28T10:08:37Z</time>
      </trkpt>
      <trkpt lat="44.65186" lon="5.85583">
        <ele>1354.2</ele>
        <time>2023-09-28T10:08:38Z</time>
      </trkpt>
      <trkpt lat="44.65188" lon="5.85585">
        <ele>1354.3</ele>
        <time>2023-09-28T10:08:39Z</time>
      </trkpt>
      <trkpt lat="44.65189" lon="5.85586">
        <ele>1354.3</ele>
        <time>2023-09-28T10:08:40Z</time>
      </trkpt>
      <trkpt lat="44.65193" lon="5.85589">
        <ele>1354.4</ele>
        <time>2023-09-28T10:08:42Z</time>
      </trkpt>
      <trkpt lat="44.65195" lon="5.85591">
        <ele>1354.5</ele>
        <time>2023-09-28T10:08:43Z</time>
      </trkpt>
      <trkpt lat="44.65197" lon="5.85592">
        <ele>1354.5</ele>
        <time>2023-09-28T10:08:44Z</time>
      </trkpt>
      <trkpt lat="44.652" lon="5.85595">
        <ele>1354.6</ele>
        <time>2023-09-28T10:08:45Z</time>
      </trkpt>
      <trkpt lat="44.65201" lon="5.85596">
        <ele>1354.6</ele>
        <time>2023-09-28T10:08:46Z</time>
      </trkpt>
      <trkpt lat="44.65204" lon="5.85598">
        <ele>1354.6</ele>
        <time>2023-09-28T10:08:47Z</time>
      </trkpt>
      <trkpt lat="44.65205" lon="5.85599">
        <ele>1354.6</ele>
        <time>2023-09-28T10:08:48Z</time>
      </trkpt>
      <trkpt lat="44.65208" lon="5.85601">
        <ele>1354.7</ele>
        <time>2023-09-28T10:08:49Z</time>
      </trkpt>
      <trkpt lat="44.65211" lon="5.85603">
        <ele>1354.7</ele>
        <time>2023-09-28T10:08:51Z</time>
      </trkpt>
      <trkpt lat="44.65213" lon="5.85605">
        <ele>1354.7</ele>
        <time>2023-09-28T10:08:52Z</time>
      </trkpt>
      <trkpt lat="44.65216" lon="5.85608">
        <ele>1354.7</ele>
        <time>2023-09-28T10:08:53Z</time>
      </trkpt>
      <trkpt lat="44.6522" lon="5.8561">
        <ele>1354.8</ele>
        <time>2023-09-28T10:08:54Z</time>
      </trkpt>
      <trkpt lat="44.65221" lon="5.85611">
        <ele>1354.8</ele>
        <time>2023-09-28T10:08:55Z</time>
      </trkpt>
      <trkpt lat="44.65223" lon="5.85613">
        <ele>1354.8</ele>
        <time>2023-09-28T10:08:56Z</time>
      </trkpt>
      <trkpt lat="44.65226" lon="5.85615">
        <ele>1354.8</ele>
        <time>2023-09-28T10:08:58Z</time>
      </trkpt>
      <trkpt lat="44.65227" lon="5.85616">
        <ele>1354.8</ele>
        <time>2023-09-28T10:08:59Z</time>
      </trkpt>
      <trkpt lat="44.6523" lon="5.85618">
        <ele>1354.8</ele>
        <time>2023-09-28T10:09:00Z</time>
      </trkpt>
      <trkpt lat="44.65231" lon="5.85619">
        <ele>1354.8</ele>
        <time>2023-09-28T10:09:01Z</time>
      </trkpt>
      <trkpt lat="44.65234" lon="5.8562">
        <ele>1354.9</ele>
        <time>2023-09-28T10:09:02Z</time>
      </trkpt>
      <trkpt lat="44.65237" lon="5.85623">
        <ele>1354.9</ele>
        <time>2023-09-28T10:09:03Z</time>
      </trkpt>
      <trkpt lat="44.6524" lon="5.85625">
        <ele>1354.9</ele>
        <time>2023-09-28T10:09:04Z</time>
      </trkpt>
      <trkpt lat="44.65242" lon="5.85627">
        <ele>1354.9</ele>
        <time>2023-09-28T10:09:05Z</time>
      </trkpt>
      <trkpt lat="44.65247" lon="5.8563">
        <ele>1354.9</ele>
        <time>2023-09-28T10:09:07Z</time>
      </trkpt>
      <trkpt lat="44.65249" lon="5.8563">
        <ele>1354.9</ele>
        <time>2023-09-28T10:09:08Z</time>
      </trkpt>
      <trkpt lat="44.65251" lon="5.85631">
        <ele>1354.9</ele>
        <time>2023-09-28T10:09:09Z</time>
      </trkpt>
      <trkpt lat="44.65254" lon="5.85632">
        <ele>1354.9</ele>
        <time>2023-09-28T10:09:10Z</time>
      </trkpt>
      <trkpt lat="44.65257" lon="5.85633">
        <ele>1355</ele>
        <time>2023-09-28T10:09:11Z</time>
      </trkpt>
      <trkpt lat="44.65259" lon="5.85635">
        <ele>1355</ele>
        <time>2023-09-28T10:09:12Z</time>
      </trkpt>
      <trkpt lat="44.65263" lon="5.85637">
        <ele>1355</ele>
        <time>2023-09-28T10:09:14Z</time>
      </trkpt>
      <trkpt lat="44.65266" lon="5.85637">
        <ele>1355</ele>
        <time>2023-09-28T10:09:15Z</time>
      </trkpt>
      <trkpt lat="44.65269" lon="5.85638">
        <ele>1355</ele>
        <time>2023-09-28T10:09:16Z</time>
      </trkpt>
      <trkpt lat="44.65272" lon="5.85639">
        <ele>1355</ele>
        <time>2023-09-28T10:09:17Z</time>
      </trkpt>
      <trkpt lat="44.65273" lon="5.8564">
        <ele>1355</ele>
        <time>2023-09-28T10:09:18Z</time>
      </trkpt>
      <trkpt lat="44.65276" lon="5.85641">
        <ele>1355.1</ele>
        <time>2023-09-28T10:09:20Z</time>
      </trkpt>
      <trkpt lat="44.6528" lon="5.85642">
        <ele>1355.1</ele>
        <time>2023-09-28T10:09:21Z</time>
      </trkpt>
      <trkpt lat="44.65283" lon="5.85643">
        <ele>1355.1</ele>
        <time>2023-09-28T10:09:22Z</time>
      </trkpt>
      <trkpt lat="44.65288" lon="5.85644">
        <ele>1355.1</ele>
        <time>2023-09-28T10:09:24Z</time>
      </trkpt>
      <trkpt lat="44.6529" lon="5.85645">
        <ele>1355.1</ele>
        <time>2023-09-28T10:09:25Z</time>
      </trkpt>
      <trkpt lat="44.65291" lon="5.85645">
        <ele>1355.2</ele>
        <time>2023-09-28T10:09:26Z</time>
      </trkpt>
      <trkpt lat="44.65295" lon="5.85646">
        <ele>1355.2</ele>
        <time>2023-09-28T10:09:27Z</time>
      </trkpt>
      <trkpt lat="44.65295" lon="5.85647">
        <ele>1355.2</ele>
        <time>2023-09-28T10:09:28Z</time>
      </trkpt>
      <trkpt lat="44.65298" lon="5.85647">
        <ele>1355.2</ele>
        <time>2023-09-28T10:09:29Z</time>
      </trkpt>
      <trkpt lat="44.65299" lon="5.85647">
        <ele>1355.2</ele>
        <time>2023-09-28T10:09:30Z</time>
      </trkpt>
      <trkpt lat="44.65304" lon="5.85648">
        <ele>1355.3</ele>
        <time>2023-09-28T10:09:32Z</time>
      </trkpt>
      <trkpt lat="44.65306" lon="5.85648">
        <ele>1355.3</ele>
        <time>2023-09-28T10:09:33Z</time>
      </trkpt>
      <trkpt lat="44.65308" lon="5.85649">
        <ele>1355.3</ele>
        <time>2023-09-28T10:09:34Z</time>
      </trkpt>
      <trkpt lat="44.6531" lon="5.85649">
        <ele>1355.4</ele>
        <time>2023-09-28T10:09:35Z</time>
      </trkpt>
      <trkpt lat="44.65313" lon="5.8565">
        <ele>1355.4</ele>
        <time>2023-09-28T10:09:37Z</time>
      </trkpt>
      <trkpt lat="44.65317" lon="5.8565">
        <ele>1355.5</ele>
        <time>2023-09-28T10:09:38Z</time>
      </trkpt>
      <trkpt lat="44.65319" lon="5.8565">
        <ele>1355.5</ele>
        <time>2023-09-28T10:09:39Z</time>
      </trkpt>
      <trkpt lat="44.65322" lon="5.8565">
        <ele>1355.5</ele>
        <time>2023-09-28T10:09:40Z</time>
      </trkpt>
      <trkpt lat="44.65325" lon="5.85651">
        <ele>1355.6</ele>
        <time>2023-09-28T10:09:41Z</time>
      </trkpt>
      <trkpt lat="44.65327" lon="5.85651">
        <ele>1355.6</ele>
        <time>2023-09-28T10:09:42Z</time>
      </trkpt>
      <trkpt lat="44.6533" lon="5.85651">
        <ele>1355.6</ele>
        <time>2023-09-28T10:09:43Z</time>
      </trkpt>
      <trkpt lat="44.65331" lon="5.85651">
        <ele>1355.6</ele>
        <time>2023-09-28T10:09:44Z</time>
      </trkpt>
      <trkpt lat="44.65335" lon="5.85651">
        <ele>1355.7</ele>
        <time>2023-09-28T10:09:46Z</time>
      </trkpt>
      <trkpt lat="44.65336" lon="5.85651">
        <ele>1355.7</ele>
        <time>2023-09-28T10:09:47Z</time>
      </trkpt>
      <trkpt lat="44.65337" lon="5.85651">
        <ele>1355.7</ele>
        <time>2023-09-28T10:09:48Z</time>
      </trkpt>
      <trkpt lat="44.65338" lon="5.85651">
        <ele>1355.7</ele>
        <time>2023-09-28T10:09:49Z</time>
      </trkpt>
      <trkpt lat="44.65337" lon="5.85651">
        <ele>1355.7</ele>
        <time>2023-09-28T10:09:50Z</time>
      </trkpt>
      <trkpt lat="44.65337" lon="5.85651">
        <ele>1355.7</ele>
        <time>2023-09-28T10:09:51Z</time>
      </trkpt>
      <trkpt lat="44.65337" lon="5.8565">
        <ele>1355.7</ele>
        <time>2023-09-28T10:09:52Z</time>
      </trkpt>
      <trkpt lat="44.65337" lon="5.8565">
        <ele>1355.7</ele>
        <time>2023-09-28T10:09:54Z</time>
      </trkpt>
      <trkpt lat="44.65336" lon="5.8565">
        <ele>1355.7</ele>
        <time>2023-09-28T10:09:55Z</time>
      </trkpt>
      <trkpt lat="44.65336" lon="5.8565">
        <ele>1355.7</ele>
        <time>2023-09-28T10:09:56Z</time>
      </trkpt>
      <trkpt lat="44.65336" lon="5.85649">
        <ele>1355.7</ele>
        <time>2023-09-28T10:09:59Z</time>
      </trkpt>
      <trkpt lat="44.65339" lon="5.85648">
        <ele>1355.8</ele>
        <time>2023-09-28T10:10:28Z</time>
      </trkpt>
      <trkpt lat="44.65342" lon="5.85647">
        <ele>1355.8</ele>
        <time>2023-09-28T10:10:29Z</time>
      </trkpt>
      <trkpt lat="44.65346" lon="5.85645">
        <ele>1355.9</ele>
        <time>2023-09-28T10:10:30Z</time>
      </trkpt>
      <trkpt lat="44.65349" lon="5.85644">
        <ele>1355.9</ele>
        <time>2023-09-28T10:10:31Z</time>
      </trkpt>
      <trkpt lat="44.65353" lon="5.85644">
        <ele>1355.9</ele>
        <time>2023-09-28T10:10:32Z</time>
      </trkpt>
      <trkpt lat="44.65356" lon="5.85645">
        <ele>1356</ele>
        <time>2023-09-28T10:10:33Z</time>
      </trkpt>
      <trkpt lat="44.6536" lon="5.85646">
        <ele>1356</ele>
        <time>2023-09-28T10:10:35Z</time>
      </trkpt>
      <trkpt lat="44.65365" lon="5.85645">
        <ele>1356.1</ele>
        <time>2023-09-28T10:10:36Z</time>
      </trkpt>
      <trkpt lat="44.65369" lon="5.85644">
        <ele>1356.1</ele>
        <time>2023-09-28T10:10:37Z</time>
      </trkpt>
      <trkpt lat="44.65372" lon="5.85643">
        <ele>1356.1</ele>
        <time>2023-09-28T10:10:38Z</time>
      </trkpt>
      <trkpt lat="44.65377" lon="5.85641">
        <ele>1356.2</ele>
        <time>2023-09-28T10:10:39Z</time>
      </trkpt>
      <trkpt lat="44.6538" lon="5.85639">
        <ele>1356.3</ele>
        <time>2023-09-28T10:10:40Z</time>
      </trkpt>
      <trkpt lat="44.65385" lon="5.85638">
        <ele>1356.3</ele>
        <time>2023-09-28T10:10:41Z</time>
      </trkpt>
      <trkpt lat="44.65391" lon="5.85637">
        <ele>1356.4</ele>
        <time>2023-09-28T10:10:43Z</time>
      </trkpt>
      <trkpt lat="44.65395" lon="5.85636">
        <ele>1356.6</ele>
        <time>2023-09-28T10:10:44Z</time>
      </trkpt>
      <trkpt lat="44.654" lon="5.85635">
        <ele>1356.7</ele>
        <time>2023-09-28T10:10:45Z</time>
      </trkpt>
      <trkpt lat="44.65404" lon="5.85634">
        <ele>1356.8</ele>
        <time>2023-09-28T10:10:46Z</time>
      </trkpt>
      <trkpt lat="44.65408" lon="5.85633">
        <ele>1356.9</ele>
        <time>2023-09-28T10:10:47Z</time>
      </trkpt>
      <trkpt lat="44.65412" lon="5.85632">
        <ele>1357</ele>
        <time>2023-09-28T10:10:49Z</time>
      </trkpt>
      <trkpt lat="44.65417" lon="5.85631">
        <ele>1357.2</ele>
        <time>2023-09-28T10:10:50Z</time>
      </trkpt>
      <trkpt lat="44.6542" lon="5.8563">
        <ele>1357.3</ele>
        <time>2023-09-28T10:10:51Z</time>
      </trkpt>
      <trkpt lat="44.65424" lon="5.85629">
        <ele>1357.5</ele>
        <time>2023-09-28T10:10:52Z</time>
      </trkpt>
      <trkpt lat="44.65428" lon="5.85628">
        <ele>1357.7</ele>
        <time>2023-09-28T10:10:53Z</time>
      </trkpt>
      <trkpt lat="44.65432" lon="5.85628">
        <ele>1357.9</ele>
        <time>2023-09-28T10:10:54Z</time>
      </trkpt>
      <trkpt lat="44.65436" lon="5.85627">
        <ele>1358.1</ele>
        <time>2023-09-28T10:10:55Z</time>
      </trkpt>
      <trkpt lat="44.6544" lon="5.85626">
        <ele>1358.3</ele>
        <time>2023-09-28T10:10:56Z</time>
      </trkpt>
      <trkpt lat="44.65444" lon="5.85626">
        <ele>1358.5</ele>
        <time>2023-09-28T10:10:57Z</time>
      </trkpt>
      <trkpt lat="44.65448" lon="5.85626">
        <ele>1358.8</ele>
        <time>2023-09-28T10:10:59Z</time>
      </trkpt>
      <trkpt lat="44.65452" lon="5.85625">
        <ele>1359.1</ele>
        <time>2023-09-28T10:11:00Z</time>
      </trkpt>
      <trkpt lat="44.65455" lon="5.85624">
        <ele>1359.4</ele>
        <time>2023-09-28T10:11:01Z</time>
      </trkpt>
      <trkpt lat="44.6546" lon="5.85624">
        <ele>1359.8</ele>
        <time>2023-09-28T10:11:02Z</time>
      </trkpt>
      <trkpt lat="44.65465" lon="5.85623">
        <ele>1360.2</ele>
        <time>2023-09-28T10:11:03Z</time>
      </trkpt>
      <trkpt lat="44.65469" lon="5.85622">
        <ele>1360.6</ele>
        <time>2023-09-28T10:11:04Z</time>
      </trkpt>
      <trkpt lat="44.65474" lon="5.85622">
        <ele>1361</ele>
        <time>2023-09-28T10:11:05Z</time>
      </trkpt>
      <trkpt lat="44.65478" lon="5.85623">
        <ele>1361.4</ele>
        <time>2023-09-28T10:11:06Z</time>
      </trkpt>
      <trkpt lat="44.65482" lon="5.85623">
        <ele>1361.8</ele>
        <time>2023-09-28T10:11:08Z</time>
      </trkpt>
      <trkpt lat="44.65488" lon="5.85623">
        <ele>1362.3</ele>
        <time>2023-09-28T10:11:09Z</time>
      </trkpt>
      <trkpt lat="44.65491" lon="5.85622">
        <ele>1362.5</ele>
        <time>2023-09-28T10:11:10Z</time>
      </trkpt>
      <trkpt lat="44.65496" lon="5.85622">
        <ele>1363</ele>
        <time>2023-09-28T10:11:12Z</time>
      </trkpt>
      <trkpt lat="44.655" lon="5.85621">
        <ele>1363.4</ele>
        <time>2023-09-28T10:11:13Z</time>
      </trkpt>
      <trkpt lat="44.65502" lon="5.85621">
        <ele>1363.6</ele>
        <time>2023-09-28T10:11:14Z</time>
      </trkpt>
      <trkpt lat="44.65507" lon="5.85619">
        <ele>1364.1</ele>
        <time>2023-09-28T10:11:16Z</time>
      </trkpt>
      <trkpt lat="44.6551" lon="5.85619">
        <ele>1364.4</ele>
        <time>2023-09-28T10:11:17Z</time>
      </trkpt>
      <trkpt lat="44.65513" lon="5.85619">
        <ele>1364.7</ele>
        <time>2023-09-28T10:11:18Z</time>
      </trkpt>
      <trkpt lat="44.65517" lon="5.85619">
        <ele>1365</ele>
        <time>2023-09-28T10:11:20Z</time>
      </trkpt>
      <trkpt lat="44.6552" lon="5.85618">
        <ele>1365.3</ele>
        <time>2023-09-28T10:11:21Z</time>
      </trkpt>
      <trkpt lat="44.65524" lon="5.85617">
        <ele>1365.7</ele>
        <time>2023-09-28T10:11:22Z</time>
      </trkpt>
      <trkpt lat="44.65526" lon="5.85616">
        <ele>1365.9</ele>
        <time>2023-09-28T10:11:23Z</time>
      </trkpt>
      <trkpt lat="44.6553" lon="5.85615">
        <ele>1366.3</ele>
        <time>2023-09-28T10:11:24Z</time>
      </trkpt>
      <trkpt lat="44.65532" lon="5.85614">
        <ele>1366.5</ele>
        <time>2023-09-28T10:11:25Z</time>
      </trkpt>
      <trkpt lat="44.65534" lon="5.85614">
        <ele>1366.7</ele>
        <time>2023-09-28T10:11:26Z</time>
      </trkpt>
      <trkpt lat="44.65537" lon="5.85612">
        <ele>1366.9</ele>
        <time>2023-09-28T10:11:28Z</time>
      </trkpt>
      <trkpt lat="44.6554" lon="5.85611">
        <ele>1367.2</ele>
        <time>2023-09-28T10:11:29Z</time>
      </trkpt>
      <trkpt lat="44.65543" lon="5.85611">
        <ele>1367.5</ele>
        <time>2023-09-28T10:11:30Z</time>
      </trkpt>
      <trkpt lat="44.65546" lon="5.8561">
        <ele>1367.8</ele>
        <time>2023-09-28T10:11:31Z</time>
      </trkpt>
      <trkpt lat="44.65549" lon="5.85608">
        <ele>1368</ele>
        <time>2023-09-28T10:11:32Z</time>
      </trkpt>
      <trkpt lat="44.65551" lon="5.85607">
        <ele>1368.3</ele>
        <time>2023-09-28T10:11:33Z</time>
      </trkpt>
      <trkpt lat="44.65554" lon="5.85604">
        <ele>1368.6</ele>
        <time>2023-09-28T10:11:34Z</time>
      </trkpt>
      <trkpt lat="44.65555" lon="5.85603">
        <ele>1368.7</ele>
        <time>2023-09-28T10:11:35Z</time>
      </trkpt>
      <trkpt lat="44.65558" lon="5.85601">
        <ele>1368.9</ele>
        <time>2023-09-28T10:11:36Z</time>
      </trkpt>
      <trkpt lat="44.65561" lon="5.85599">
        <ele>1369.2</ele>
        <time>2023-09-28T10:11:38Z</time>
      </trkpt>
      <trkpt lat="44.65563" lon="5.85596">
        <ele>1369.4</ele>
        <time>2023-09-28T10:11:39Z</time>
      </trkpt>
      <trkpt lat="44.65566" lon="5.85594">
        <ele>1369.7</ele>
        <time>2023-09-28T10:11:40Z</time>
      </trkpt>
      <trkpt lat="44.65567" lon="5.85592">
        <ele>1369.8</ele>
        <time>2023-09-28T10:11:41Z</time>
      </trkpt>
      <trkpt lat="44.65569" lon="5.8559">
        <ele>1370</ele>
        <time>2023-09-28T10:11:42Z</time>
      </trkpt>
      <trkpt lat="44.65571" lon="5.85588">
        <ele>1370.2</ele>
        <time>2023-09-28T10:11:44Z</time>
      </trkpt>
      <trkpt lat="44.65574" lon="5.85586">
        <ele>1370.5</ele>
        <time>2023-09-28T10:11:45Z</time>
      </trkpt>
      <trkpt lat="44.65576" lon="5.85583">
        <ele>1370.8</ele>
        <time>2023-09-28T10:11:46Z</time>
      </trkpt>
      <trkpt lat="44.65578" lon="5.85581">
        <ele>1370.9</ele>
        <time>2023-09-28T10:11:47Z</time>
      </trkpt>
      <trkpt lat="44.6558" lon="5.85577">
        <ele>1371.2</ele>
        <time>2023-09-28T10:11:48Z</time>
      </trkpt>
      <trkpt lat="44.65581" lon="5.85576">
        <ele>1371.3</ele>
        <time>2023-09-28T10:11:49Z</time>
      </trkpt>
      <trkpt lat="44.65584" lon="5.85572">
        <ele>1371.6</ele>
        <time>2023-09-28T10:11:50Z</time>
      </trkpt>
      <trkpt lat="44.65585" lon="5.85571">
        <ele>1371.7</ele>
        <time>2023-09-28T10:11:51Z</time>
      </trkpt>
      <trkpt lat="44.65587" lon="5.85568">
        <ele>1371.9</ele>
        <time>2023-09-28T10:11:52Z</time>
      </trkpt>
      <trkpt lat="44.65589" lon="5.85566">
        <ele>1372.2</ele>
        <time>2023-09-28T10:11:54Z</time>
      </trkpt>
      <trkpt lat="44.65592" lon="5.85563">
        <ele>1372.5</ele>
        <time>2023-09-28T10:11:55Z</time>
      </trkpt>
      <trkpt lat="44.65593" lon="5.8556">
        <ele>1372.7</ele>
        <time>2023-09-28T10:11:56Z</time>
      </trkpt>
      <trkpt lat="44.65596" lon="5.85557">
        <ele>1373</ele>
        <time>2023-09-28T10:11:57Z</time>
      </trkpt>
      <trkpt lat="44.65597" lon="5.85555">
        <ele>1373.1</ele>
        <time>2023-09-28T10:11:58Z</time>
      </trkpt>
      <trkpt lat="44.65598" lon="5.85552">
        <ele>1373.3</ele>
        <time>2023-09-28T10:11:59Z</time>
      </trkpt>
      <trkpt lat="44.65601" lon="5.85547">
        <ele>1373.7</ele>
        <time>2023-09-28T10:12:01Z</time>
      </trkpt>
      <trkpt lat="44.65604" lon="5.85545">
        <ele>1374</ele>
        <time>2023-09-28T10:12:03Z</time>
      </trkpt>
      <trkpt lat="44.65606" lon="5.85541">
        <ele>1374.3</ele>
        <time>2023-09-28T10:12:04Z</time>
      </trkpt>
      <trkpt lat="44.65607" lon="5.8554">
        <ele>1374.4</ele>
        <time>2023-09-28T10:12:05Z</time>
      </trkpt>
      <trkpt lat="44.65609" lon="5.85536">
        <ele>1374.8</ele>
        <time>2023-09-28T10:12:06Z</time>
      </trkpt>
      <trkpt lat="44.6561" lon="5.85535">
        <ele>1374.9</ele>
        <time>2023-09-28T10:12:07Z</time>
      </trkpt>
      <trkpt lat="44.65613" lon="5.85531">
        <ele>1375.2</ele>
        <time>2023-09-28T10:12:08Z</time>
      </trkpt>
      <trkpt lat="44.65614" lon="5.8553">
        <ele>1375.4</ele>
        <time>2023-09-28T10:12:09Z</time>
      </trkpt>
      <trkpt lat="44.65616" lon="5.85528">
        <ele>1375.6</ele>
        <time>2023-09-28T10:12:11Z</time>
      </trkpt>
      <trkpt lat="44.65619" lon="5.85525">
        <ele>1375.9</ele>
        <time>2023-09-28T10:12:12Z</time>
      </trkpt>
      <trkpt lat="44.65621" lon="5.85522">
        <ele>1376.2</ele>
        <time>2023-09-28T10:12:13Z</time>
      </trkpt>
      <trkpt lat="44.65624" lon="5.85519">
        <ele>1376.5</ele>
        <time>2023-09-28T10:12:14Z</time>
      </trkpt>
      <trkpt lat="44.65624" lon="5.85517">
        <ele>1376.6</ele>
        <time>2023-09-28T10:12:15Z</time>
      </trkpt>
      <trkpt lat="44.65627" lon="5.85514">
        <ele>1377</ele>
        <time>2023-09-28T10:12:17Z</time>
      </trkpt>
      <trkpt lat="44.65628" lon="5.85513">
        <ele>1377.1</ele>
        <time>2023-09-28T10:12:18Z</time>
      </trkpt>
      <trkpt lat="44.65631" lon="5.8551">
        <ele>1377.5</ele>
        <time>2023-09-28T10:12:19Z</time>
      </trkpt>
      <trkpt lat="44.65633" lon="5.85509">
        <ele>1377.6</ele>
        <time>2023-09-28T10:12:20Z</time>
      </trkpt>
      <trkpt lat="44.65636" lon="5.85506">
        <ele>1378</ele>
        <time>2023-09-28T10:12:21Z</time>
      </trkpt>
      <trkpt lat="44.65637" lon="5.85506">
        <ele>1378.1</ele>
        <time>2023-09-28T10:12:22Z</time>
      </trkpt>
      <trkpt lat="44.65639" lon="5.85503">
        <ele>1378.3</ele>
        <time>2023-09-28T10:12:23Z</time>
      </trkpt>
      <trkpt lat="44.65641" lon="5.85501">
        <ele>1378.6</ele>
        <time>2023-09-28T10:12:25Z</time>
      </trkpt>
      <trkpt lat="44.65644" lon="5.85497">
        <ele>1379</ele>
        <time>2023-09-28T10:12:26Z</time>
      </trkpt>
      <trkpt lat="44.65645" lon="5.85496">
        <ele>1379.1</ele>
        <time>2023-09-28T10:12:27Z</time>
      </trkpt>
      <trkpt lat="44.65648" lon="5.85494">
        <ele>1379.4</ele>
        <time>2023-09-28T10:12:28Z</time>
      </trkpt>
      <trkpt lat="44.65651" lon="5.85492">
        <ele>1379.7</ele>
        <time>2023-09-28T10:12:29Z</time>
      </trkpt>
      <trkpt lat="44.65652" lon="5.85492">
        <ele>1379.8</ele>
        <time>2023-09-28T10:12:30Z</time>
      </trkpt>
      <trkpt lat="44.65655" lon="5.8549">
        <ele>1380</ele>
        <time>2023-09-28T10:12:31Z</time>
      </trkpt>
      <trkpt lat="44.65658" lon="5.85488">
        <ele>1380.3</ele>
        <time>2023-09-28T10:12:33Z</time>
      </trkpt>
      <trkpt lat="44.6566" lon="5.85486">
        <ele>1380.6</ele>
        <time>2023-09-28T10:12:34Z</time>
      </trkpt>
      <trkpt lat="44.65663" lon="5.85484">
        <ele>1380.9</ele>
        <time>2023-09-28T10:12:35Z</time>
      </trkpt>
      <trkpt lat="44.65666" lon="5.85483">
        <ele>1381.1</ele>
        <time>2023-09-28T10:12:36Z</time>
      </trkpt>
      <trkpt lat="44.65669" lon="5.85482">
        <ele>1381.3</ele>
        <time>2023-09-28T10:12:37Z</time>
      </trkpt>
      <trkpt lat="44.65671" lon="5.85481">
        <ele>1381.5</ele>
        <time>2023-09-28T10:12:38Z</time>
      </trkpt>
      <trkpt lat="44.65675" lon="5.8548">
        <ele>1381.8</ele>
        <time>2023-09-28T10:12:39Z</time>
      </trkpt>
      <trkpt lat="44.65676" lon="5.85479">
        <ele>1381.9</ele>
        <time>2023-09-28T10:12:40Z</time>
      </trkpt>
      <trkpt lat="44.65679" lon="5.85478">
        <ele>1382.1</ele>
        <time>2023-09-28T10:12:41Z</time>
      </trkpt>
      <trkpt lat="44.65682" lon="5.85477">
        <ele>1382.4</ele>
        <time>2023-09-28T10:12:43Z</time>
      </trkpt>
      <trkpt lat="44.65685" lon="5.85477">
        <ele>1382.6</ele>
        <time>2023-09-28T10:12:44Z</time>
      </trkpt>
      <trkpt lat="44.65688" lon="5.85476">
        <ele>1382.9</ele>
        <time>2023-09-28T10:12:45Z</time>
      </trkpt>
      <trkpt lat="44.65692" lon="5.85476">
        <ele>1383.2</ele>
        <time>2023-09-28T10:12:46Z</time>
      </trkpt>
      <trkpt lat="44.65693" lon="5.85476">
        <ele>1383.3</ele>
        <time>2023-09-28T10:12:47Z</time>
      </trkpt>
      <trkpt lat="44.65696" lon="5.85477">
        <ele>1383.5</ele>
        <time>2023-09-28T10:12:48Z</time>
      </trkpt>
      <trkpt lat="44.65701" lon="5.85477">
        <ele>1383.9</ele>
        <time>2023-09-28T10:12:50Z</time>
      </trkpt>
      <trkpt lat="44.65705" lon="5.85477">
        <ele>1384.2</ele>
        <time>2023-09-28T10:12:52Z</time>
      </trkpt>
      <trkpt lat="44.65708" lon="5.85476">
        <ele>1384.4</ele>
        <time>2023-09-28T10:12:53Z</time>
      </trkpt>
      <trkpt lat="44.65711" lon="5.85476">
        <ele>1384.7</ele>
        <time>2023-09-28T10:12:55Z</time>
      </trkpt>
      <trkpt lat="44.65713" lon="5.85476">
        <ele>1384.9</ele>
        <time>2023-09-28T10:12:56Z</time>
      </trkpt>
      <trkpt lat="44.65716" lon="5.85476">
        <ele>1385.1</ele>
        <time>2023-09-28T10:12:57Z</time>
      </trkpt>
      <trkpt lat="44.65719" lon="5.85475">
        <ele>1385.3</ele>
        <time>2023-09-28T10:12:58Z</time>
      </trkpt>
      <trkpt lat="44.65722" lon="5.85476">
        <ele>1385.5</ele>
        <time>2023-09-28T10:12:59Z</time>
      </trkpt>
      <trkpt lat="44.65725" lon="5.85474">
        <ele>1385.8</ele>
        <time>2023-09-28T10:13:00Z</time>
      </trkpt>
      <trkpt lat="44.65726" lon="5.85473">
        <ele>1385.8</ele>
        <time>2023-09-28T10:13:01Z</time>
      </trkpt>
      <trkpt lat="44.6573" lon="5.85478">
        <ele>1386.2</ele>
        <time>2023-09-28T10:13:03Z</time>
      </trkpt>
      <trkpt lat="44.65734" lon="5.85479">
        <ele>1386.5</ele>
        <time>2023-09-28T10:13:04Z</time>
      </trkpt>
      <trkpt lat="44.65737" lon="5.8548">
        <ele>1386.8</ele>
        <time>2023-09-28T10:13:05Z</time>
      </trkpt>
      <trkpt lat="44.65749" lon="5.85476">
        <ele>1387.6</ele>
        <time>2023-09-28T10:13:11Z</time>
      </trkpt>
      <trkpt lat="44.65752" lon="5.85475">
        <ele>1387.8</ele>
        <time>2023-09-28T10:13:12Z</time>
      </trkpt>
      <trkpt lat="44.65756" lon="5.85475">
        <ele>1388.1</ele>
        <time>2023-09-28T10:13:13Z</time>
      </trkpt>
      <trkpt lat="44.65759" lon="5.85474">
        <ele>1388.3</ele>
        <time>2023-09-28T10:13:14Z</time>
      </trkpt>
      <trkpt lat="44.65764" lon="5.85472">
        <ele>1388.7</ele>
        <time>2023-09-28T10:13:16Z</time>
      </trkpt>
      <trkpt lat="44.65768" lon="5.85472">
        <ele>1388.9</ele>
        <time>2023-09-28T10:13:17Z</time>
      </trkpt>
      <trkpt lat="44.65771" lon="5.85472">
        <ele>1389.1</ele>
        <time>2023-09-28T10:13:18Z</time>
      </trkpt>
      <trkpt lat="44.65774" lon="5.85472">
        <ele>1389.2</ele>
        <time>2023-09-28T10:13:20Z</time>
      </trkpt>
      <trkpt lat="44.65777" lon="5.85473">
        <ele>1389.3</ele>
        <time>2023-09-28T10:13:21Z</time>
      </trkpt>
      <trkpt lat="44.65777" lon="5.85473">
        <ele>1389.4</ele>
        <time>2023-09-28T10:13:22Z</time>
      </trkpt>
      <trkpt lat="44.65777" lon="5.85474">
        <ele>1389.4</ele>
        <time>2023-09-28T10:13:23Z</time>
      </trkpt>
      <trkpt lat="44.65778" lon="5.85474">
        <ele>1389.4</ele>
        <time>2023-09-28T10:13:24Z</time>
      </trkpt>
      <trkpt lat="44.65778" lon="5.85475">
        <ele>1389.4</ele>
        <time>2023-09-28T10:13:26Z</time>
      </trkpt>
      <trkpt lat="44.65778" lon="5.85476">
        <ele>1389.5</ele>
        <time>2023-09-28T10:13:27Z</time>
      </trkpt>
      <trkpt lat="44.65778" lon="5.85476">
        <ele>1389.5</ele>
        <time>2023-09-28T10:13:29Z</time>
      </trkpt>
      <trkpt lat="44.65779" lon="5.85477">
        <ele>1389.5</ele>
        <time>2023-09-28T10:13:30Z</time>
      </trkpt>
      <trkpt lat="44.65779" lon="5.85478">
        <ele>1389.5</ele>
        <time>2023-09-28T10:13:31Z</time>
      </trkpt>
      <trkpt lat="44.65779" lon="5.85478">
        <ele>1389.6</ele>
        <time>2023-09-28T10:13:32Z</time>
      </trkpt>
      <trkpt lat="44.65779" lon="5.85479">
        <ele>1389.6</ele>
        <time>2023-09-28T10:13:34Z</time>
      </trkpt>
      <trkpt lat="44.6578" lon="5.85479">
        <ele>1389.6</ele>
        <time>2023-09-28T10:13:56Z</time>
      </trkpt>
      <trkpt lat="44.6578" lon="5.8548">
        <ele>1389.6</ele>
        <time>2023-09-28T10:13:57Z</time>
      </trkpt>
      <trkpt lat="44.6578" lon="5.85481">
        <ele>1389.6</ele>
        <time>2023-09-28T10:13:58Z</time>
      </trkpt>
      <trkpt lat="44.65784" lon="5.85482">
        <ele>1389.8</ele>
        <time>2023-09-28T10:13:59Z</time>
      </trkpt>
      <trkpt lat="44.65786" lon="5.85482">
        <ele>1389.9</ele>
        <time>2023-09-28T10:14:00Z</time>
      </trkpt>
      <trkpt lat="44.65794" lon="5.85485">
        <ele>1390.3</ele>
        <time>2023-09-28T10:14:02Z</time>
      </trkpt>
      <trkpt lat="44.65798" lon="5.85484">
        <ele>1390.5</ele>
        <time>2023-09-28T10:14:04Z</time>
      </trkpt>
      <trkpt lat="44.65802" lon="5.85484">
        <ele>1390.7</ele>
        <time>2023-09-28T10:14:05Z</time>
      </trkpt>
      <trkpt lat="44.65805" lon="5.85485">
        <ele>1390.8</ele>
        <time>2023-09-28T10:14:06Z</time>
      </trkpt>
      <trkpt lat="44.65807" lon="5.85484">
        <ele>1390.9</ele>
        <time>2023-09-28T10:14:07Z</time>
      </trkpt>
      <trkpt lat="44.6581" lon="5.85484">
        <ele>1391.1</ele>
        <time>2023-09-28T10:14:08Z</time>
      </trkpt>
      <trkpt lat="44.65817" lon="5.85486">
        <ele>1391.4</ele>
        <time>2023-09-28T10:14:10Z</time>
      </trkpt>
      <trkpt lat="44.6582" lon="5.85488">
        <ele>1391.6</ele>
        <time>2023-09-28T10:14:12Z</time>
      </trkpt>
      <trkpt lat="44.65825" lon="5.85489">
        <ele>1391.9</ele>
        <time>2023-09-28T10:14:13Z</time>
      </trkpt>
      <trkpt lat="44.65829" lon="5.85491">
        <ele>1392.2</ele>
        <time>2023-09-28T10:14:15Z</time>
      </trkpt>
      <trkpt lat="44.6583" lon="5.85492">
        <ele>1392.3</ele>
        <time>2023-09-28T10:14:16Z</time>
      </trkpt>
      <trkpt lat="44.65829" lon="5.85492">
        <ele>1392.3</ele>
        <time>2023-09-28T10:14:17Z</time>
      </trkpt>
      <trkpt lat="44.65828" lon="5.85493">
        <ele>1392.4</ele>
        <time>2023-09-28T10:14:19Z</time>
      </trkpt>
      <trkpt lat="44.65828" lon="5.85493">
        <ele>1392.4</ele>
        <time>2023-09-28T10:14:20Z</time>
      </trkpt>
      <trkpt lat="44.65828" lon="5.85493">
        <ele>1392.4</ele>
        <time>2023-09-28T10:14:21Z</time>
      </trkpt>
      <trkpt lat="44.65828" lon="5.85493">
        <ele>1392.4</ele>
        <time>2023-09-28T10:14:23Z</time>
      </trkpt>
      <trkpt lat="44.65828" lon="5.85493">
        <ele>1392.4</ele>
        <time>2023-09-28T10:14:24Z</time>
      </trkpt>
      <trkpt lat="44.65828" lon="5.85493">
        <ele>1392.4</ele>
        <time>2023-09-28T10:14:25Z</time>
      </trkpt>
      <trkpt lat="44.65828" lon="5.85494">
        <ele>1392.5</ele>
        <time>2023-09-28T10:14:26Z</time>
      </trkpt>
      <trkpt lat="44.65831" lon="5.85494">
        <ele>1392.6</ele>
        <time>2023-09-28T10:14:28Z</time>
      </trkpt>
      <trkpt lat="44.65835" lon="5.85494">
        <ele>1392.9</ele>
        <time>2023-09-28T10:14:29Z</time>
      </trkpt>
      <trkpt lat="44.65838" lon="5.85495">
        <ele>1393.1</ele>
        <time>2023-09-28T10:14:30Z</time>
      </trkpt>
      <trkpt lat="44.6584" lon="5.85496">
        <ele>1393.2</ele>
        <time>2023-09-28T10:14:31Z</time>
      </trkpt>
      <trkpt lat="44.65843" lon="5.85497">
        <ele>1393.4</ele>
        <time>2023-09-28T10:14:32Z</time>
      </trkpt>
      <trkpt lat="44.65846" lon="5.85499">
        <ele>1393.7</ele>
        <time>2023-09-28T10:14:33Z</time>
      </trkpt>
      <trkpt lat="44.65848" lon="5.85499">
        <ele>1393.7</ele>
        <time>2023-09-28T10:14:34Z</time>
      </trkpt>
      <trkpt lat="44.6585" lon="5.855">
        <ele>1393.9</ele>
        <time>2023-09-28T10:14:35Z</time>
      </trkpt>
      <trkpt lat="44.65854" lon="5.855">
        <ele>1394.2</ele>
        <time>2023-09-28T10:14:36Z</time>
      </trkpt>
      <trkpt lat="44.65857" lon="5.85502">
        <ele>1394.4</ele>
        <time>2023-09-28T10:14:37Z</time>
      </trkpt>
      <trkpt lat="44.6586" lon="5.85503">
        <ele>1394.6</ele>
        <time>2023-09-28T10:14:39Z</time>
      </trkpt>
      <trkpt lat="44.65864" lon="5.85505">
        <ele>1395</ele>
        <time>2023-09-28T10:14:40Z</time>
      </trkpt>
      <trkpt lat="44.65869" lon="5.85506">
        <ele>1395.4</ele>
        <time>2023-09-28T10:14:42Z</time>
      </trkpt>
      <trkpt lat="44.65872" lon="5.85508">
        <ele>1395.6</ele>
        <time>2023-09-28T10:14:43Z</time>
      </trkpt>
      <trkpt lat="44.65875" lon="5.85508">
        <ele>1395.8</ele>
        <time>2023-09-28T10:14:44Z</time>
      </trkpt>
      <trkpt lat="44.65878" lon="5.85509">
        <ele>1396.1</ele>
        <time>2023-09-28T10:14:45Z</time>
      </trkpt>
      <trkpt lat="44.65882" lon="5.8551">
        <ele>1396.3</ele>
        <time>2023-09-28T10:14:47Z</time>
      </trkpt>
      <trkpt lat="44.65885" lon="5.8551">
        <ele>1396.5</ele>
        <time>2023-09-28T10:14:48Z</time>
      </trkpt>
      <trkpt lat="44.65889" lon="5.8551">
        <ele>1396.8</ele>
        <time>2023-09-28T10:14:49Z</time>
      </trkpt>
      <trkpt lat="44.65893" lon="5.85512">
        <ele>1397.1</ele>
        <time>2023-09-28T10:14:50Z</time>
      </trkpt>
      <trkpt lat="44.65895" lon="5.85512">
        <ele>1397.3</ele>
        <time>2023-09-28T10:14:51Z</time>
      </trkpt>
      <trkpt lat="44.65899" lon="5.85512">
        <ele>1397.5</ele>
        <time>2023-09-28T10:14:52Z</time>
      </trkpt>
      <trkpt lat="44.65903" lon="5.85512">
        <ele>1397.9</ele>
        <time>2023-09-28T10:14:54Z</time>
      </trkpt>
      <trkpt lat="44.65907" lon="5.85512">
        <ele>1398.1</ele>
        <time>2023-09-28T10:14:55Z</time>
      </trkpt>
      <trkpt lat="44.6591" lon="5.85511">
        <ele>1398.3</ele>
        <time>2023-09-28T10:14:56Z</time>
      </trkpt>
      <trkpt lat="44.65913" lon="5.85511">
        <ele>1398.5</ele>
        <time>2023-09-28T10:14:57Z</time>
      </trkpt>
      <trkpt lat="44.65918" lon="5.85511">
        <ele>1398.9</ele>
        <time>2023-09-28T10:14:59Z</time>
      </trkpt>
      <trkpt lat="44.65921" lon="5.8551">
        <ele>1399.1</ele>
        <time>2023-09-28T10:15:00Z</time>
      </trkpt>
      <trkpt lat="44.65924" lon="5.8551">
        <ele>1399.3</ele>
        <time>2023-09-28T10:15:01Z</time>
      </trkpt>
      <trkpt lat="44.65927" lon="5.85509">
        <ele>1399.6</ele>
        <time>2023-09-28T10:15:02Z</time>
      </trkpt>
      <trkpt lat="44.65931" lon="5.85508">
        <ele>1399.8</ele>
        <time>2023-09-28T10:15:04Z</time>
      </trkpt>
      <trkpt lat="44.65934" lon="5.85507">
        <ele>1400</ele>
        <time>2023-09-28T10:15:05Z</time>
      </trkpt>
      <trkpt lat="44.65937" lon="5.85507">
        <ele>1400.2</ele>
        <time>2023-09-28T10:15:06Z</time>
      </trkpt>
      <trkpt lat="44.6594" lon="5.85506">
        <ele>1400.4</ele>
        <time>2023-09-28T10:15:07Z</time>
      </trkpt>
      <trkpt lat="44.65943" lon="5.85505">
        <ele>1400.6</ele>
        <time>2023-09-28T10:15:08Z</time>
      </trkpt>
      <trkpt lat="44.65947" lon="5.85503">
        <ele>1400.8</ele>
        <time>2023-09-28T10:15:09Z</time>
      </trkpt>
      <trkpt lat="44.65951" lon="5.85501">
        <ele>1401.2</ele>
        <time>2023-09-28T10:15:11Z</time>
      </trkpt>
      <trkpt lat="44.65954" lon="5.855">
        <ele>1401.3</ele>
        <time>2023-09-28T10:15:12Z</time>
      </trkpt>
      <trkpt lat="44.65957" lon="5.855">
        <ele>1401.5</ele>
        <time>2023-09-28T10:15:13Z</time>
      </trkpt>
      <trkpt lat="44.65963" lon="5.85496">
        <ele>1401.9</ele>
        <time>2023-09-28T10:15:15Z</time>
      </trkpt>
      <trkpt lat="44.65966" lon="5.85494">
        <ele>1402.1</ele>
        <time>2023-09-28T10:15:16Z</time>
      </trkpt>
      <trkpt lat="44.65969" lon="5.85492">
        <ele>1402.3</ele>
        <time>2023-09-28T10:15:18Z</time>
      </trkpt>
      <trkpt lat="44.65972" lon="5.8549">
        <ele>1402.5</ele>
        <time>2023-09-28T10:15:19Z</time>
      </trkpt>
      <trkpt lat="44.65976" lon="5.85488">
        <ele>1402.6</ele>
        <time>2023-09-28T10:15:20Z</time>
      </trkpt>
      <trkpt lat="44.65979" lon="5.85487">
        <ele>1402.8</ele>
        <time>2023-09-28T10:15:21Z</time>
      </trkpt>
      <trkpt lat="44.65981" lon="5.85486">
        <ele>1403</ele>
        <time>2023-09-28T10:15:22Z</time>
      </trkpt>
      <trkpt lat="44.65985" lon="5.85484">
        <ele>1403.2</ele>
        <time>2023-09-28T10:15:24Z</time>
      </trkpt>
      <trkpt lat="44.65988" lon="5.85481">
        <ele>1403.4</ele>
        <time>2023-09-28T10:15:25Z</time>
      </trkpt>
      <trkpt lat="44.6599" lon="5.85481">
        <ele>1403.4</ele>
        <time>2023-09-28T10:15:26Z</time>
      </trkpt>
      <trkpt lat="44.65993" lon="5.85479">
        <ele>1403.6</ele>
        <time>2023-09-28T10:15:27Z</time>
      </trkpt>
      <trkpt lat="44.65997" lon="5.85476">
        <ele>1403.8</ele>
        <time>2023-09-28T10:15:28Z</time>
      </trkpt>
      <trkpt lat="44.65998" lon="5.85475">
        <ele>1403.9</ele>
        <time>2023-09-28T10:15:29Z</time>
      </trkpt>
      <trkpt lat="44.66001" lon="5.85474">
        <ele>1404.1</ele>
        <time>2023-09-28T10:15:30Z</time>
      </trkpt>
      <trkpt lat="44.66003" lon="5.85472">
        <ele>1404.2</ele>
        <time>2023-09-28T10:15:31Z</time>
      </trkpt>
      <trkpt lat="44.66006" lon="5.8547">
        <ele>1404.4</ele>
        <time>2023-09-28T10:15:33Z</time>
      </trkpt>
      <trkpt lat="44.6601" lon="5.85468">
        <ele>1404.7</ele>
        <time>2023-09-28T10:15:34Z</time>
      </trkpt>
      <trkpt lat="44.66012" lon="5.85467">
        <ele>1404.8</ele>
        <time>2023-09-28T10:15:35Z</time>
      </trkpt>
      <trkpt lat="44.66016" lon="5.85466">
        <ele>1405</ele>
        <time>2023-09-28T10:15:36Z</time>
      </trkpt>
      <trkpt lat="44.66018" lon="5.85464">
        <ele>1405.2</ele>
        <time>2023-09-28T10:15:37Z</time>
      </trkpt>
      <trkpt lat="44.66021" lon="5.85461">
        <ele>1405.4</ele>
        <time>2023-09-28T10:15:38Z</time>
      </trkpt>
      <trkpt lat="44.66024" lon="5.8546">
        <ele>1405.6</ele>
        <time>2023-09-28T10:15:39Z</time>
      </trkpt>
      <trkpt lat="44.66027" lon="5.85458">
        <ele>1405.8</ele>
        <time>2023-09-28T10:15:40Z</time>
      </trkpt>
      <trkpt lat="44.66032" lon="5.85455">
        <ele>1406.1</ele>
        <time>2023-09-28T10:15:42Z</time>
      </trkpt>
      <trkpt lat="44.66035" lon="5.85454">
        <ele>1406.3</ele>
        <time>2023-09-28T10:15:43Z</time>
      </trkpt>
      <trkpt lat="44.66039" lon="5.85453">
        <ele>1406.5</ele>
        <time>2023-09-28T10:15:44Z</time>
      </trkpt>
      <trkpt lat="44.6604" lon="5.85452">
        <ele>1406.6</ele>
        <time>2023-09-28T10:15:45Z</time>
      </trkpt>
      <trkpt lat="44.66044" lon="5.85451">
        <ele>1406.8</ele>
        <time>2023-09-28T10:15:47Z</time>
      </trkpt>
      <trkpt lat="44.66047" lon="5.8545">
        <ele>1407</ele>
        <time>2023-09-28T10:15:48Z</time>
      </trkpt>
      <trkpt lat="44.6605" lon="5.8545">
        <ele>1407.3</ele>
        <time>2023-09-28T10:15:49Z</time>
      </trkpt>
      <trkpt lat="44.66054" lon="5.85449">
        <ele>1407.5</ele>
        <time>2023-09-28T10:15:50Z</time>
      </trkpt>
      <trkpt lat="44.66056" lon="5.85449">
        <ele>1407.7</ele>
        <time>2023-09-28T10:15:51Z</time>
      </trkpt>
      <trkpt lat="44.6606" lon="5.85447">
        <ele>1408</ele>
        <time>2023-09-28T10:15:52Z</time>
      </trkpt>
      <trkpt lat="44.66063" lon="5.85447">
        <ele>1408.3</ele>
        <time>2023-09-28T10:15:53Z</time>
      </trkpt>
      <trkpt lat="44.66067" lon="5.85447">
        <ele>1408.5</ele>
        <time>2023-09-28T10:15:55Z</time>
      </trkpt>
      <trkpt lat="44.6607" lon="5.85447">
        <ele>1408.8</ele>
        <time>2023-09-28T10:15:56Z</time>
      </trkpt>
      <trkpt lat="44.66073" lon="5.85447">
        <ele>1409</ele>
        <time>2023-09-28T10:15:57Z</time>
      </trkpt>
      <trkpt lat="44.66076" lon="5.85447">
        <ele>1409.2</ele>
        <time>2023-09-28T10:15:58Z</time>
      </trkpt>
      <trkpt lat="44.66079" lon="5.85446">
        <ele>1409.4</ele>
        <time>2023-09-28T10:15:59Z</time>
      </trkpt>
      <trkpt lat="44.66082" lon="5.85447">
        <ele>1409.7</ele>
        <time>2023-09-28T10:16:00Z</time>
      </trkpt>
      <trkpt lat="44.66085" lon="5.85447">
        <ele>1409.9</ele>
        <time>2023-09-28T10:16:01Z</time>
      </trkpt>
      <trkpt lat="44.66088" lon="5.85447">
        <ele>1410.1</ele>
        <time>2023-09-28T10:16:02Z</time>
      </trkpt>
      <trkpt lat="44.66092" lon="5.85446">
        <ele>1410.4</ele>
        <time>2023-09-28T10:16:04Z</time>
      </trkpt>
      <trkpt lat="44.66096" lon="5.85448">
        <ele>1410.7</ele>
        <time>2023-09-28T10:16:05Z</time>
      </trkpt>
      <trkpt lat="44.66099" lon="5.85447">
        <ele>1410.9</ele>
        <time>2023-09-28T10:16:06Z</time>
      </trkpt>
      <trkpt lat="44.66105" lon="5.85447">
        <ele>1411.3</ele>
        <time>2023-09-28T10:16:08Z</time>
      </trkpt>
      <trkpt lat="44.6611" lon="5.85448">
        <ele>1411.7</ele>
        <time>2023-09-28T10:16:10Z</time>
      </trkpt>
      <trkpt lat="44.66114" lon="5.85448">
        <ele>1411.9</ele>
        <time>2023-09-28T10:16:12Z</time>
      </trkpt>
      <trkpt lat="44.66118" lon="5.85448">
        <ele>1412.3</ele>
        <time>2023-09-28T10:16:13Z</time>
      </trkpt>
      <trkpt lat="44.66121" lon="5.85448">
        <ele>1412.5</ele>
        <time>2023-09-28T10:16:14Z</time>
      </trkpt>
      <trkpt lat="44.66125" lon="5.85448">
        <ele>1412.8</ele>
        <time>2023-09-28T10:16:16Z</time>
      </trkpt>
      <trkpt lat="44.66129" lon="5.85449">
        <ele>1413.1</ele>
        <time>2023-09-28T10:16:17Z</time>
      </trkpt>
      <trkpt lat="44.66132" lon="5.85449">
        <ele>1413.3</ele>
        <time>2023-09-28T10:16:18Z</time>
      </trkpt>
      <trkpt lat="44.66135" lon="5.85448">
        <ele>1413.5</ele>
        <time>2023-09-28T10:16:19Z</time>
      </trkpt>
      <trkpt lat="44.66138" lon="5.85447">
        <ele>1413.8</ele>
        <time>2023-09-28T10:16:21Z</time>
      </trkpt>
      <trkpt lat="44.66141" lon="5.85448">
        <ele>1413.9</ele>
        <time>2023-09-28T10:16:22Z</time>
      </trkpt>
      <trkpt lat="44.66144" lon="5.85448">
        <ele>1414.1</ele>
        <time>2023-09-28T10:16:23Z</time>
      </trkpt>
      <trkpt lat="44.66148" lon="5.85448">
        <ele>1414.4</ele>
        <time>2023-09-28T10:16:24Z</time>
      </trkpt>
      <trkpt lat="44.6615" lon="5.85448">
        <ele>1414.6</ele>
        <time>2023-09-28T10:16:25Z</time>
      </trkpt>
      <trkpt lat="44.66153" lon="5.85448">
        <ele>1414.8</ele>
        <time>2023-09-28T10:16:26Z</time>
      </trkpt>
      <trkpt lat="44.66156" lon="5.85448">
        <ele>1415</ele>
        <time>2023-09-28T10:16:27Z</time>
      </trkpt>
      <trkpt lat="44.6616" lon="5.85448">
        <ele>1415.2</ele>
        <time>2023-09-28T10:16:29Z</time>
      </trkpt>
      <trkpt lat="44.66163" lon="5.85449">
        <ele>1415.5</ele>
        <time>2023-09-28T10:16:30Z</time>
      </trkpt>
      <trkpt lat="44.66167" lon="5.85449">
        <ele>1415.7</ele>
        <time>2023-09-28T10:16:31Z</time>
      </trkpt>
      <trkpt lat="44.66169" lon="5.85449">
        <ele>1415.9</ele>
        <time>2023-09-28T10:16:32Z</time>
      </trkpt>
      <trkpt lat="44.66173" lon="5.85449">
        <ele>1416.1</ele>
        <time>2023-09-28T10:16:33Z</time>
      </trkpt>
      <trkpt lat="44.66175" lon="5.85449">
        <ele>1416.3</ele>
        <time>2023-09-28T10:16:34Z</time>
      </trkpt>
      <trkpt lat="44.66179" lon="5.85449">
        <ele>1416.5</ele>
        <time>2023-09-28T10:16:35Z</time>
      </trkpt>
      <trkpt lat="44.66181" lon="5.85448">
        <ele>1416.7</ele>
        <time>2023-09-28T10:16:36Z</time>
      </trkpt>
      <trkpt lat="44.66185" lon="5.85448">
        <ele>1417</ele>
        <time>2023-09-28T10:16:37Z</time>
      </trkpt>
      <trkpt lat="44.66188" lon="5.85449">
        <ele>1417.2</ele>
        <time>2023-09-28T10:16:39Z</time>
      </trkpt>
      <trkpt lat="44.66192" lon="5.85449">
        <ele>1417.5</ele>
        <time>2023-09-28T10:16:40Z</time>
      </trkpt>
      <trkpt lat="44.66196" lon="5.85449">
        <ele>1417.8</ele>
        <time>2023-09-28T10:16:41Z</time>
      </trkpt>
      <trkpt lat="44.66198" lon="5.85449">
        <ele>1417.9</ele>
        <time>2023-09-28T10:16:42Z</time>
      </trkpt>
      <trkpt lat="44.66201" lon="5.8545">
        <ele>1418.1</ele>
        <time>2023-09-28T10:16:43Z</time>
      </trkpt>
      <trkpt lat="44.66204" lon="5.8545">
        <ele>1418.3</ele>
        <time>2023-09-28T10:16:44Z</time>
      </trkpt>
      <trkpt lat="44.66207" lon="5.85449">
        <ele>1418.5</ele>
        <time>2023-09-28T10:16:45Z</time>
      </trkpt>
      <trkpt lat="44.66211" lon="5.85449">
        <ele>1418.8</ele>
        <time>2023-09-28T10:16:47Z</time>
      </trkpt>
      <trkpt lat="44.66215" lon="5.85448">
        <ele>1419.1</ele>
        <time>2023-09-28T10:16:48Z</time>
      </trkpt>
      <trkpt lat="44.66218" lon="5.85448">
        <ele>1419.3</ele>
        <time>2023-09-28T10:16:49Z</time>
      </trkpt>
      <trkpt lat="44.66222" lon="5.85448">
        <ele>1419.5</ele>
        <time>2023-09-28T10:16:51Z</time>
      </trkpt>
      <trkpt lat="44.66225" lon="5.85447">
        <ele>1419.8</ele>
        <time>2023-09-28T10:16:52Z</time>
      </trkpt>
      <trkpt lat="44.66228" lon="5.85447">
        <ele>1420.1</ele>
        <time>2023-09-28T10:16:53Z</time>
      </trkpt>
      <trkpt lat="44.66232" lon="5.85447">
        <ele>1420.4</ele>
        <time>2023-09-28T10:16:54Z</time>
      </trkpt>
      <trkpt lat="44.66234" lon="5.85447">
        <ele>1420.6</ele>
        <time>2023-09-28T10:16:55Z</time>
      </trkpt>
      <trkpt lat="44.66237" lon="5.85446">
        <ele>1420.8</ele>
        <time>2023-09-28T10:16:56Z</time>
      </trkpt>
      <trkpt lat="44.6624" lon="5.85446">
        <ele>1421.1</ele>
        <time>2023-09-28T10:16:57Z</time>
      </trkpt>
      <trkpt lat="44.66243" lon="5.85446">
        <ele>1421.3</ele>
        <time>2023-09-28T10:16:58Z</time>
      </trkpt>
      <trkpt lat="44.66246" lon="5.85445">
        <ele>1421.6</ele>
        <time>2023-09-28T10:17:00Z</time>
      </trkpt>
      <trkpt lat="44.6625" lon="5.85445">
        <ele>1421.8</ele>
        <time>2023-09-28T10:17:01Z</time>
      </trkpt>
      <trkpt lat="44.66253" lon="5.85445">
        <ele>1422.1</ele>
        <time>2023-09-28T10:17:02Z</time>
      </trkpt>
      <trkpt lat="44.66256" lon="5.85446">
        <ele>1422.4</ele>
        <time>2023-09-28T10:17:03Z</time>
      </trkpt>
      <trkpt lat="44.66259" lon="5.85446">
        <ele>1422.6</ele>
        <time>2023-09-28T10:17:04Z</time>
      </trkpt>
      <trkpt lat="44.66262" lon="5.85446">
        <ele>1422.9</ele>
        <time>2023-09-28T10:17:06Z</time>
      </trkpt>
      <trkpt lat="44.66267" lon="5.85446">
        <ele>1423.3</ele>
        <time>2023-09-28T10:17:07Z</time>
      </trkpt>
      <trkpt lat="44.66269" lon="5.85446">
        <ele>1423.5</ele>
        <time>2023-09-28T10:17:08Z</time>
      </trkpt>
      <trkpt lat="44.66272" lon="5.85446">
        <ele>1423.7</ele>
        <time>2023-09-28T10:17:09Z</time>
      </trkpt>
      <trkpt lat="44.66277" lon="5.85445">
        <ele>1424.1</ele>
        <time>2023-09-28T10:17:11Z</time>
      </trkpt>
      <trkpt lat="44.6628" lon="5.85445">
        <ele>1424.3</ele>
        <time>2023-09-28T10:17:12Z</time>
      </trkpt>
      <trkpt lat="44.66283" lon="5.85444">
        <ele>1424.6</ele>
        <time>2023-09-28T10:17:13Z</time>
      </trkpt>
      <trkpt lat="44.66285" lon="5.85445">
        <ele>1424.8</ele>
        <time>2023-09-28T10:17:14Z</time>
      </trkpt>
      <trkpt lat="44.66289" lon="5.85445">
        <ele>1425.1</ele>
        <time>2023-09-28T10:17:16Z</time>
      </trkpt>
      <trkpt lat="44.66292" lon="5.85445">
        <ele>1425.3</ele>
        <time>2023-09-28T10:17:17Z</time>
      </trkpt>
      <trkpt lat="44.66295" lon="5.85445">
        <ele>1425.5</ele>
        <time>2023-09-28T10:17:18Z</time>
      </trkpt>
      <trkpt lat="44.66299" lon="5.85445">
        <ele>1425.9</ele>
        <time>2023-09-28T10:17:19Z</time>
      </trkpt>
      <trkpt lat="44.66301" lon="5.85445">
        <ele>1426</ele>
        <time>2023-09-28T10:17:20Z</time>
      </trkpt>
      <trkpt lat="44.66304" lon="5.85443">
        <ele>1426.2</ele>
        <time>2023-09-28T10:17:21Z</time>
      </trkpt>
      <trkpt lat="44.66307" lon="5.85443">
        <ele>1426.5</ele>
        <time>2023-09-28T10:17:23Z</time>
      </trkpt>
      <trkpt lat="44.6631" lon="5.85444">
        <ele>1426.7</ele>
        <time>2023-09-28T10:17:24Z</time>
      </trkpt>
      <trkpt lat="44.66314" lon="5.85444">
        <ele>1427.1</ele>
        <time>2023-09-28T10:17:25Z</time>
      </trkpt>
      <trkpt lat="44.66316" lon="5.85444">
        <ele>1427.2</ele>
        <time>2023-09-28T10:17:26Z</time>
      </trkpt>
      <trkpt lat="44.66319" lon="5.85443">
        <ele>1427.5</ele>
        <time>2023-09-28T10:17:27Z</time>
      </trkpt>
      <trkpt lat="44.66322" lon="5.85441">
        <ele>1427.7</ele>
        <time>2023-09-28T10:17:28Z</time>
      </trkpt>
      <trkpt lat="44.66325" lon="5.85441">
        <ele>1428</ele>
        <time>2023-09-28T10:17:29Z</time>
      </trkpt>
      <trkpt lat="44.66329" lon="5.85441">
        <ele>1428.3</ele>
        <time>2023-09-28T10:17:30Z</time>
      </trkpt>
      <trkpt lat="44.6633" lon="5.85441">
        <ele>1428.4</ele>
        <time>2023-09-28T10:17:31Z</time>
      </trkpt>
      <trkpt lat="44.66333" lon="5.85441">
        <ele>1428.7</ele>
        <time>2023-09-28T10:17:33Z</time>
      </trkpt>
      <trkpt lat="44.66336" lon="5.8544">
        <ele>1428.9</ele>
        <time>2023-09-28T10:17:34Z</time>
      </trkpt>
      <trkpt lat="44.66339" lon="5.85438">
        <ele>1429.1</ele>
        <time>2023-09-28T10:17:35Z</time>
      </trkpt>
      <trkpt lat="44.66342" lon="5.85438">
        <ele>1429.3</ele>
        <time>2023-09-28T10:17:36Z</time>
      </trkpt>
      <trkpt lat="44.66345" lon="5.85438">
        <ele>1429.5</ele>
        <time>2023-09-28T10:17:37Z</time>
      </trkpt>
      <trkpt lat="44.66347" lon="5.85438">
        <ele>1429.7</ele>
        <time>2023-09-28T10:17:38Z</time>
      </trkpt>
      <trkpt lat="44.66351" lon="5.85438">
        <ele>1430</ele>
        <time>2023-09-28T10:17:40Z</time>
      </trkpt>
      <trkpt lat="44.66354" lon="5.85438">
        <ele>1430.2</ele>
        <time>2023-09-28T10:17:41Z</time>
      </trkpt>
      <trkpt lat="44.66358" lon="5.85439">
        <ele>1430.4</ele>
        <time>2023-09-28T10:17:42Z</time>
      </trkpt>
      <trkpt lat="44.66362" lon="5.85439">
        <ele>1430.7</ele>
        <time>2023-09-28T10:17:43Z</time>
      </trkpt>
      <trkpt lat="44.66363" lon="5.85439">
        <ele>1430.7</ele>
        <time>2023-09-28T10:17:44Z</time>
      </trkpt>
      <trkpt lat="44.66367" lon="5.85439">
        <ele>1430.9</ele>
        <time>2023-09-28T10:17:46Z</time>
      </trkpt>
      <trkpt lat="44.66371" lon="5.8544">
        <ele>1431.1</ele>
        <time>2023-09-28T10:17:47Z</time>
      </trkpt>
      <trkpt lat="44.66376" lon="5.8544">
        <ele>1431.4</ele>
        <time>2023-09-28T10:17:48Z</time>
      </trkpt>
      <trkpt lat="44.66379" lon="5.85441">
        <ele>1431.5</ele>
        <time>2023-09-28T10:17:49Z</time>
      </trkpt>
      <trkpt lat="44.66382" lon="5.85442">
        <ele>1431.7</ele>
        <time>2023-09-28T10:17:51Z</time>
      </trkpt>
      <trkpt lat="44.66386" lon="5.85444">
        <ele>1431.8</ele>
        <time>2023-09-28T10:17:52Z</time>
      </trkpt>
      <trkpt lat="44.66389" lon="5.85445">
        <ele>1432</ele>
        <time>2023-09-28T10:17:53Z</time>
      </trkpt>
      <trkpt lat="44.66393" lon="5.85447">
        <ele>1432.1</ele>
        <time>2023-09-28T10:17:54Z</time>
      </trkpt>
      <trkpt lat="44.66396" lon="5.85449">
        <ele>1432.3</ele>
        <time>2023-09-28T10:17:55Z</time>
      </trkpt>
      <trkpt lat="44.66399" lon="5.85451">
        <ele>1432.4</ele>
        <time>2023-09-28T10:17:56Z</time>
      </trkpt>
      <trkpt lat="44.66402" lon="5.85453">
        <ele>1432.5</ele>
        <time>2023-09-28T10:17:57Z</time>
      </trkpt>
      <trkpt lat="44.66406" lon="5.85456">
        <ele>1432.6</ele>
        <time>2023-09-28T10:17:58Z</time>
      </trkpt>
      <trkpt lat="44.6641" lon="5.85458">
        <ele>1432.8</ele>
        <time>2023-09-28T10:18:00Z</time>
      </trkpt>
      <trkpt lat="44.66415" lon="5.85461">
        <ele>1433</ele>
        <time>2023-09-28T10:18:01Z</time>
      </trkpt>
      <trkpt lat="44.66419" lon="5.85464">
        <ele>1433.2</ele>
        <time>2023-09-28T10:18:02Z</time>
      </trkpt>
      <trkpt lat="44.66423" lon="5.85467">
        <ele>1433.4</ele>
        <time>2023-09-28T10:18:04Z</time>
      </trkpt>
      <trkpt lat="44.66427" lon="5.85469">
        <ele>1433.5</ele>
        <time>2023-09-28T10:18:05Z</time>
      </trkpt>
      <trkpt lat="44.6643" lon="5.85471">
        <ele>1433.7</ele>
        <time>2023-09-28T10:18:06Z</time>
      </trkpt>
      <trkpt lat="44.66434" lon="5.85473">
        <ele>1433.8</ele>
        <time>2023-09-28T10:18:07Z</time>
      </trkpt>
      <trkpt lat="44.66438" lon="5.85476">
        <ele>1434</ele>
        <time>2023-09-28T10:18:08Z</time>
      </trkpt>
      <trkpt lat="44.66441" lon="5.85478">
        <ele>1434.2</ele>
        <time>2023-09-28T10:18:09Z</time>
      </trkpt>
      <trkpt lat="44.66444" lon="5.85481">
        <ele>1434.3</ele>
        <time>2023-09-28T10:18:10Z</time>
      </trkpt>
      <trkpt lat="44.66448" lon="5.85483">
        <ele>1434.5</ele>
        <time>2023-09-28T10:18:11Z</time>
      </trkpt>
      <trkpt lat="44.66452" lon="5.85486">
        <ele>1434.7</ele>
        <time>2023-09-28T10:18:13Z</time>
      </trkpt>
      <trkpt lat="44.66456" lon="5.85489">
        <ele>1434.9</ele>
        <time>2023-09-28T10:18:14Z</time>
      </trkpt>
      <trkpt lat="44.66459" lon="5.85491">
        <ele>1435.1</ele>
        <time>2023-09-28T10:18:15Z</time>
      </trkpt>
      <trkpt lat="44.66463" lon="5.85494">
        <ele>1435.4</ele>
        <time>2023-09-28T10:18:16Z</time>
      </trkpt>
      <trkpt lat="44.66466" lon="5.85496">
        <ele>1435.6</ele>
        <time>2023-09-28T10:18:17Z</time>
      </trkpt>
      <trkpt lat="44.6647" lon="5.85498">
        <ele>1435.9</ele>
        <time>2023-09-28T10:18:18Z</time>
      </trkpt>
      <trkpt lat="44.66473" lon="5.855">
        <ele>1436.1</ele>
        <time>2023-09-28T10:18:19Z</time>
      </trkpt>
      <trkpt lat="44.66477" lon="5.85503">
        <ele>1436.4</ele>
        <time>2023-09-28T10:18:21Z</time>
      </trkpt>
      <trkpt lat="44.6648" lon="5.85505">
        <ele>1436.6</ele>
        <time>2023-09-28T10:18:22Z</time>
      </trkpt>
      <trkpt lat="44.66483" lon="5.85507">
        <ele>1436.9</ele>
        <time>2023-09-28T10:18:23Z</time>
      </trkpt>
      <trkpt lat="44.66487" lon="5.85509">
        <ele>1437.2</ele>
        <time>2023-09-28T10:18:24Z</time>
      </trkpt>
      <trkpt lat="44.6649" lon="5.85512">
        <ele>1437.4</ele>
        <time>2023-09-28T10:18:25Z</time>
      </trkpt>
      <trkpt lat="44.66493" lon="5.85514">
        <ele>1437.7</ele>
        <time>2023-09-28T10:18:26Z</time>
      </trkpt>
      <trkpt lat="44.66497" lon="5.85517">
        <ele>1438</ele>
        <time>2023-09-28T10:18:27Z</time>
      </trkpt>
      <trkpt lat="44.66499" lon="5.85518">
        <ele>1438.2</ele>
        <time>2023-09-28T10:18:28Z</time>
      </trkpt>
      <trkpt lat="44.66506" lon="5.8552">
        <ele>1438.7</ele>
        <time>2023-09-28T10:18:30Z</time>
      </trkpt>
      <trkpt lat="44.66508" lon="5.85524">
        <ele>1438.7</ele>
        <time>2023-09-28T10:18:31Z</time>
      </trkpt>
      <trkpt lat="44.66511" lon="5.85527">
        <ele>1438.8</ele>
        <time>2023-09-28T10:18:33Z</time>
      </trkpt>
      <trkpt lat="44.66514" lon="5.85529">
        <ele>1438.9</ele>
        <time>2023-09-28T10:18:34Z</time>
      </trkpt>
      <trkpt lat="44.66517" lon="5.85531">
        <ele>1439</ele>
        <time>2023-09-28T10:18:35Z</time>
      </trkpt>
      <trkpt lat="44.66517" lon="5.85532">
        <ele>1439</ele>
        <time>2023-09-28T10:18:36Z</time>
      </trkpt>
      <trkpt lat="44.66516" lon="5.85531">
        <ele>1439</ele>
        <time>2023-09-28T10:18:37Z</time>
      </trkpt>
      <trkpt lat="44.66516" lon="5.8553">
        <ele>1439</ele>
        <time>2023-09-28T10:18:39Z</time>
      </trkpt>
      <trkpt lat="44.66516" lon="5.85532">
        <ele>1439.1</ele>
        <time>2023-09-28T10:18:40Z</time>
      </trkpt>
      <trkpt lat="44.66516" lon="5.85533">
        <ele>1439.1</ele>
        <time>2023-09-28T10:18:41Z</time>
      </trkpt>
      <trkpt lat="44.66516" lon="5.85532">
        <ele>1439.1</ele>
        <time>2023-09-28T10:18:42Z</time>
      </trkpt>
      <trkpt lat="44.66516" lon="5.85532">
        <ele>1439.1</ele>
        <time>2023-09-28T10:18:44Z</time>
      </trkpt>
      <trkpt lat="44.66516" lon="5.85532">
        <ele>1439.1</ele>
        <time>2023-09-28T10:18:45Z</time>
      </trkpt>
      <trkpt lat="44.66516" lon="5.85532">
        <ele>1439.1</ele>
        <time>2023-09-28T10:18:46Z</time>
      </trkpt>
      <trkpt lat="44.66516" lon="5.85532">
        <ele>1439.1</ele>
        <time>2023-09-28T10:18:47Z</time>
      </trkpt>
      <trkpt lat="44.66516" lon="5.85532">
        <ele>1439.1</ele>
        <time>2023-09-28T10:18:49Z</time>
      </trkpt>
      <trkpt lat="44.66516" lon="5.85532">
        <ele>1439.1</ele>
        <time>2023-09-28T10:18:50Z</time>
      </trkpt>
      <trkpt lat="44.66515" lon="5.85532">
        <ele>1439.1</ele>
        <time>2023-09-28T10:18:51Z</time>
      </trkpt>
      <trkpt lat="44.66515" lon="5.85531">
        <ele>1439.1</ele>
        <time>2023-09-28T10:18:53Z</time>
      </trkpt>
      <trkpt lat="44.66512" lon="5.85528">
        <ele>1439.2</ele>
        <time>2023-09-28T10:18:59Z</time>
      </trkpt>
      <trkpt lat="44.66512" lon="5.85528">
        <ele>1439.2</ele>
        <time>2023-09-28T10:19:00Z</time>
      </trkpt>
      <trkpt lat="44.66511" lon="5.85528">
        <ele>1439.2</ele>
        <time>2023-09-28T10:19:02Z</time>
      </trkpt>
      <trkpt lat="44.66511" lon="5.85529">
        <ele>1439.2</ele>
        <time>2023-09-28T10:19:03Z</time>
      </trkpt>
      <trkpt lat="44.6651" lon="5.8553">
        <ele>1439.2</ele>
        <time>2023-09-28T10:19:04Z</time>
      </trkpt>
      <trkpt lat="44.6651" lon="5.8553">
        <ele>1439.3</ele>
        <time>2023-09-28T10:19:06Z</time>
      </trkpt>
      <trkpt lat="44.6651" lon="5.85531">
        <ele>1439.3</ele>
        <time>2023-09-28T10:19:07Z</time>
      </trkpt>
      <trkpt lat="44.66511" lon="5.85532">
        <ele>1439.3</ele>
        <time>2023-09-28T10:19:08Z</time>
      </trkpt>
      <trkpt lat="44.66511" lon="5.85533">
        <ele>1439.3</ele>
        <time>2023-09-28T10:19:10Z</time>
      </trkpt>
      <trkpt lat="44.66511" lon="5.85533">
        <ele>1439.3</ele>
        <time>2023-09-28T10:19:11Z</time>
      </trkpt>
      <trkpt lat="44.66511" lon="5.85533">
        <ele>1439.3</ele>
        <time>2023-09-28T10:19:12Z</time>
      </trkpt>
      <trkpt lat="44.66511" lon="5.85533">
        <ele>1439.3</ele>
        <time>2023-09-28T10:19:14Z</time>
      </trkpt>
      <trkpt lat="44.66511" lon="5.85533">
        <ele>1439.3</ele>
        <time>2023-09-28T10:19:15Z</time>
      </trkpt>
      <trkpt lat="44.66511" lon="5.85534">
        <ele>1439.3</ele>
        <time>2023-09-28T10:19:16Z</time>
      </trkpt>
      <trkpt lat="44.66512" lon="5.85534">
        <ele>1439.3</ele>
        <time>2023-09-28T10:19:18Z</time>
      </trkpt>
      <trkpt lat="44.66512" lon="5.85534">
        <ele>1439.3</ele>
        <time>2023-09-28T10:19:19Z</time>
      </trkpt>
      <trkpt lat="44.66512" lon="5.85534">
        <ele>1439.3</ele>
        <time>2023-09-28T10:19:20Z</time>
      </trkpt>
      <trkpt lat="44.66511" lon="5.85534">
        <ele>1439.3</ele>
        <time>2023-09-28T10:19:22Z</time>
      </trkpt>
      <trkpt lat="44.66511" lon="5.85535">
        <ele>1439.3</ele>
        <time>2023-09-28T10:19:23Z</time>
      </trkpt>
      <trkpt lat="44.66512" lon="5.85535">
        <ele>1439.3</ele>
        <time>2023-09-28T10:19:24Z</time>
      </trkpt>
      <trkpt lat="44.66512" lon="5.85534">
        <ele>1439.4</ele>
        <time>2023-09-28T10:19:25Z</time>
      </trkpt>
      <trkpt lat="44.66513" lon="5.85534">
        <ele>1439.4</ele>
        <time>2023-09-28T10:19:26Z</time>
      </trkpt>
      <trkpt lat="44.66514" lon="5.85533">
        <ele>1439.4</ele>
        <time>2023-09-28T10:19:28Z</time>
      </trkpt>
      <trkpt lat="44.66516" lon="5.85532">
        <ele>1439.4</ele>
        <time>2023-09-28T10:19:29Z</time>
      </trkpt>
      <trkpt lat="44.66517" lon="5.85531">
        <ele>1439.4</ele>
        <time>2023-09-28T10:19:30Z</time>
      </trkpt>
      <trkpt lat="44.66517" lon="5.8553">
        <ele>1439.4</ele>
        <time>2023-09-28T10:19:31Z</time>
      </trkpt>
      <trkpt lat="44.66518" lon="5.8553">
        <ele>1439.5</ele>
        <time>2023-09-28T10:19:32Z</time>
      </trkpt>
      <trkpt lat="44.66519" lon="5.8553">
        <ele>1439.5</ele>
        <time>2023-09-28T10:19:33Z</time>
      </trkpt>
      <trkpt lat="44.66519" lon="5.85531">
        <ele>1439.5</ele>
        <time>2023-09-28T10:19:34Z</time>
      </trkpt>
      <trkpt lat="44.66519" lon="5.85531">
        <ele>1439.5</ele>
        <time>2023-09-28T10:19:35Z</time>
      </trkpt>
      <trkpt lat="44.66519" lon="5.8553">
        <ele>1439.5</ele>
        <time>2023-09-28T10:19:37Z</time>
      </trkpt>
      <trkpt lat="44.66519" lon="5.85529">
        <ele>1439.5</ele>
        <time>2023-09-28T10:19:38Z</time>
      </trkpt>
      <trkpt lat="44.6652" lon="5.85528">
        <ele>1439.5</ele>
        <time>2023-09-28T10:19:39Z</time>
      </trkpt>
      <trkpt lat="44.66521" lon="5.85527">
        <ele>1439.6</ele>
        <time>2023-09-28T10:19:40Z</time>
      </trkpt>
      <trkpt lat="44.66522" lon="5.85526">
        <ele>1439.6</ele>
        <time>2023-09-28T10:19:41Z</time>
      </trkpt>
      <trkpt lat="44.66522" lon="5.85525">
        <ele>1439.6</ele>
        <time>2023-09-28T10:19:42Z</time>
      </trkpt>
      <trkpt lat="44.66521" lon="5.85525">
        <ele>1439.6</ele>
        <time>2023-09-28T10:19:43Z</time>
      </trkpt>
      <trkpt lat="44.66521" lon="5.85526">
        <ele>1439.6</ele>
        <time>2023-09-28T10:19:45Z</time>
      </trkpt>
      <trkpt lat="44.66521" lon="5.85526">
        <ele>1439.6</ele>
        <time>2023-09-28T10:19:46Z</time>
      </trkpt>
      <trkpt lat="44.66521" lon="5.85526">
        <ele>1439.6</ele>
        <time>2023-09-28T10:19:47Z</time>
      </trkpt>
      <trkpt lat="44.66521" lon="5.85526">
        <ele>1439.6</ele>
        <time>2023-09-28T10:19:49Z</time>
      </trkpt>
      <trkpt lat="44.66521" lon="5.85526">
        <ele>1439.6</ele>
        <time>2023-09-28T10:19:50Z</time>
      </trkpt>
      <trkpt lat="44.66521" lon="5.85526">
        <ele>1439.6</ele>
        <time>2023-09-28T10:19:51Z</time>
      </trkpt>
      <trkpt lat="44.66518" lon="5.85528">
        <ele>1439.7</ele>
        <time>2023-09-28T10:20:03Z</time>
      </trkpt>
      <trkpt lat="44.66516" lon="5.8553">
        <ele>1439.7</ele>
        <time>2023-09-28T10:20:05Z</time>
      </trkpt>
      <trkpt lat="44.66515" lon="5.85531">
        <ele>1439.7</ele>
        <time>2023-09-28T10:20:06Z</time>
      </trkpt>
      <trkpt lat="44.66514" lon="5.85533">
        <ele>1439.7</ele>
        <time>2023-09-28T10:20:07Z</time>
      </trkpt>
      <trkpt lat="44.66515" lon="5.85534">
        <ele>1439.7</ele>
        <time>2023-09-28T10:20:09Z</time>
      </trkpt>
      <trkpt lat="44.66515" lon="5.85534">
        <ele>1439.7</ele>
        <time>2023-09-28T10:20:10Z</time>
      </trkpt>
      <trkpt lat="44.66515" lon="5.85534">
        <ele>1439.7</ele>
        <time>2023-09-28T10:20:11Z</time>
      </trkpt>
      <trkpt lat="44.66516" lon="5.85534">
        <ele>1439.7</ele>
        <time>2023-09-28T10:20:12Z</time>
      </trkpt>
      <trkpt lat="44.66516" lon="5.85534">
        <ele>1439.7</ele>
        <time>2023-09-28T10:20:13Z</time>
      </trkpt>
      <trkpt lat="44.66516" lon="5.85535">
        <ele>1439.8</ele>
        <time>2023-09-28T10:20:14Z</time>
      </trkpt>
      <trkpt lat="44.66516" lon="5.85535">
        <ele>1439.8</ele>
        <time>2023-09-28T10:20:16Z</time>
      </trkpt>
      <trkpt lat="44.66516" lon="5.85534">
        <ele>1439.8</ele>
        <time>2023-09-28T10:20:17Z</time>
      </trkpt>
      <trkpt lat="44.66517" lon="5.85533">
        <ele>1439.8</ele>
        <time>2023-09-28T10:20:19Z</time>
      </trkpt>
      <trkpt lat="44.66517" lon="5.85533">
        <ele>1439.8</ele>
        <time>2023-09-28T10:20:20Z</time>
      </trkpt>
      <trkpt lat="44.66517" lon="5.85534">
        <ele>1439.8</ele>
        <time>2023-09-28T10:20:21Z</time>
      </trkpt>
      <trkpt lat="44.6652" lon="5.85535">
        <ele>1439.8</ele>
        <time>2023-09-28T10:20:22Z</time>
      </trkpt>
      <trkpt lat="44.66525" lon="5.85535">
        <ele>1439.9</ele>
        <time>2023-09-28T10:20:24Z</time>
      </trkpt>
      <trkpt lat="44.66528" lon="5.85537">
        <ele>1439.9</ele>
        <time>2023-09-28T10:20:25Z</time>
      </trkpt>
      <trkpt lat="44.66531" lon="5.85539">
        <ele>1439.9</ele>
        <time>2023-09-28T10:20:26Z</time>
      </trkpt>
      <trkpt lat="44.66534" lon="5.8554">
        <ele>1439.9</ele>
        <time>2023-09-28T10:20:27Z</time>
      </trkpt>
      <trkpt lat="44.66536" lon="5.85542">
        <ele>1439.9</ele>
        <time>2023-09-28T10:20:28Z</time>
      </trkpt>
      <trkpt lat="44.66539" lon="5.85544">
        <ele>1440</ele>
        <time>2023-09-28T10:20:29Z</time>
      </trkpt>
      <trkpt lat="44.66542" lon="5.85546">
        <ele>1440</ele>
        <time>2023-09-28T10:20:31Z</time>
      </trkpt>
      <trkpt lat="44.66545" lon="5.85548">
        <ele>1440</ele>
        <time>2023-09-28T10:20:32Z</time>
      </trkpt>
      <trkpt lat="44.66548" lon="5.8555">
        <ele>1440</ele>
        <time>2023-09-28T10:20:33Z</time>
      </trkpt>
      <trkpt lat="44.6655" lon="5.85552">
        <ele>1440</ele>
        <time>2023-09-28T10:20:34Z</time>
      </trkpt>
      <trkpt lat="44.66553" lon="5.85554">
        <ele>1440</ele>
        <time>2023-09-28T10:20:35Z</time>
      </trkpt>
      <trkpt lat="44.66556" lon="5.85557">
        <ele>1440</ele>
        <time>2023-09-28T10:20:37Z</time>
      </trkpt>
      <trkpt lat="44.66559" lon="5.85558">
        <ele>1440</ele>
        <time>2023-09-28T10:20:38Z</time>
      </trkpt>
      <trkpt lat="44.66563" lon="5.8556">
        <ele>1439.9</ele>
        <time>2023-09-28T10:20:39Z</time>
      </trkpt>
      <trkpt lat="44.66564" lon="5.85561">
        <ele>1439.9</ele>
        <time>2023-09-28T10:20:40Z</time>
      </trkpt>
      <trkpt lat="44.66567" lon="5.85562">
        <ele>1439.9</ele>
        <time>2023-09-28T10:20:41Z</time>
      </trkpt>
      <trkpt lat="44.6657" lon="5.85564">
        <ele>1439.9</ele>
        <time>2023-09-28T10:20:43Z</time>
      </trkpt>
      <trkpt lat="44.66574" lon="5.85565">
        <ele>1439.9</ele>
        <time>2023-09-28T10:20:44Z</time>
      </trkpt>
      <trkpt lat="44.66577" lon="5.85568">
        <ele>1439.8</ele>
        <time>2023-09-28T10:20:45Z</time>
      </trkpt>
      <trkpt lat="44.66579" lon="5.85569">
        <ele>1439.8</ele>
        <time>2023-09-28T10:20:46Z</time>
      </trkpt>
      <trkpt lat="44.66582" lon="5.8557">
        <ele>1439.8</ele>
        <time>2023-09-28T10:20:47Z</time>
      </trkpt>
      <trkpt lat="44.66583" lon="5.85571">
        <ele>1439.8</ele>
        <time>2023-09-28T10:20:48Z</time>
      </trkpt>
      <trkpt lat="44.66584" lon="5.8557">
        <ele>1439.8</ele>
        <time>2023-09-28T10:20:49Z</time>
      </trkpt>
      <trkpt lat="44.66586" lon="5.85569">
        <ele>1439.7</ele>
        <time>2023-09-28T10:20:50Z</time>
      </trkpt>
      <trkpt lat="44.66589" lon="5.85572">
        <ele>1439.7</ele>
        <time>2023-09-28T10:20:51Z</time>
      </trkpt>
      <trkpt lat="44.6659" lon="5.85573">
        <ele>1439.7</ele>
        <time>2023-09-28T10:20:52Z</time>
      </trkpt>
      <trkpt lat="44.66591" lon="5.85578">
        <ele>1439.7</ele>
        <time>2023-09-28T10:20:53Z</time>
      </trkpt>
      <trkpt lat="44.66592" lon="5.8558">
        <ele>1439.6</ele>
        <time>2023-09-28T10:20:54Z</time>
      </trkpt>
      <trkpt lat="44.66593" lon="5.85583">
        <ele>1439.6</ele>
        <time>2023-09-28T10:20:55Z</time>
      </trkpt>
      <trkpt lat="44.66596" lon="5.85587">
        <ele>1439.5</ele>
        <time>2023-09-28T10:20:56Z</time>
      </trkpt>
      <trkpt lat="44.66598" lon="5.85591">
        <ele>1439.5</ele>
        <time>2023-09-28T10:20:57Z</time>
      </trkpt>
      <trkpt lat="44.66601" lon="5.85595">
        <ele>1439.4</ele>
        <time>2023-09-28T10:20:58Z</time>
      </trkpt>
      <trkpt lat="44.66604" lon="5.856">
        <ele>1439.3</ele>
        <time>2023-09-28T10:20:59Z</time>
      </trkpt>
      <trkpt lat="44.66606" lon="5.85605">
        <ele>1439.3</ele>
        <time>2023-09-28T10:21:00Z</time>
      </trkpt>
      <trkpt lat="44.66607" lon="5.85611">
        <ele>1439.2</ele>
        <time>2023-09-28T10:21:01Z</time>
      </trkpt>
      <trkpt lat="44.66607" lon="5.85616">
        <ele>1439.1</ele>
        <time>2023-09-28T10:21:02Z</time>
      </trkpt>
      <trkpt lat="44.66608" lon="5.85621">
        <ele>1439.1</ele>
        <time>2023-09-28T10:21:03Z</time>
      </trkpt>
      <trkpt lat="44.66609" lon="5.85627">
        <ele>1439</ele>
        <time>2023-09-28T10:21:04Z</time>
      </trkpt>
      <trkpt lat="44.6661" lon="5.85633">
        <ele>1439</ele>
        <time>2023-09-28T10:21:05Z</time>
      </trkpt>
      <trkpt lat="44.6661" lon="5.85642">
        <ele>1438.9</ele>
        <time>2023-09-28T10:21:07Z</time>
      </trkpt>
      <trkpt lat="44.66611" lon="5.8565">
        <ele>1438.8</ele>
        <time>2023-09-28T10:21:08Z</time>
      </trkpt>
      <trkpt lat="44.66611" lon="5.85655">
        <ele>1438.8</ele>
        <time>2023-09-28T10:21:09Z</time>
      </trkpt>
      <trkpt lat="44.66612" lon="5.85664">
        <ele>1438.8</ele>
        <time>2023-09-28T10:21:10Z</time>
      </trkpt>
      <trkpt lat="44.66612" lon="5.85671">
        <ele>1438.7</ele>
        <time>2023-09-28T10:21:11Z</time>
      </trkpt>
      <trkpt lat="44.66613" lon="5.85677">
        <ele>1438.7</ele>
        <time>2023-09-28T10:21:12Z</time>
      </trkpt>
      <trkpt lat="44.66614" lon="5.85682">
        <ele>1438.6</ele>
        <time>2023-09-28T10:21:13Z</time>
      </trkpt>
      <trkpt lat="44.66614" lon="5.85687">
        <ele>1438.6</ele>
        <time>2023-09-28T10:21:14Z</time>
      </trkpt>
      <trkpt lat="44.66615" lon="5.85692">
        <ele>1438.6</ele>
        <time>2023-09-28T10:21:15Z</time>
      </trkpt>
      <trkpt lat="44.66616" lon="5.85697">
        <ele>1438.5</ele>
        <time>2023-09-28T10:21:16Z</time>
      </trkpt>
      <trkpt lat="44.66616" lon="5.85702">
        <ele>1438.5</ele>
        <time>2023-09-28T10:21:17Z</time>
      </trkpt>
      <trkpt lat="44.66617" lon="5.85707">
        <ele>1438.5</ele>
        <time>2023-09-28T10:21:18Z</time>
      </trkpt>
      <trkpt lat="44.66617" lon="5.85711">
        <ele>1438.5</ele>
        <time>2023-09-28T10:21:19Z</time>
      </trkpt>
      <trkpt lat="44.66618" lon="5.85715">
        <ele>1438.4</ele>
        <time>2023-09-28T10:21:20Z</time>
      </trkpt>
      <trkpt lat="44.66618" lon="5.85719">
        <ele>1438.4</ele>
        <time>2023-09-28T10:21:21Z</time>
      </trkpt>
      <trkpt lat="44.66619" lon="5.85724">
        <ele>1438.4</ele>
        <time>2023-09-28T10:21:22Z</time>
      </trkpt>
      <trkpt lat="44.66619" lon="5.85725">
        <ele>1438.4</ele>
        <time>2023-09-28T10:21:23Z</time>
      </trkpt>
      <trkpt lat="44.66619" lon="5.85728">
        <ele>1438.4</ele>
        <time>2023-09-28T10:21:24Z</time>
      </trkpt>
      <trkpt lat="44.66619" lon="5.8573">
        <ele>1438.4</ele>
        <time>2023-09-28T10:21:25Z</time>
      </trkpt>
      <trkpt lat="44.66618" lon="5.85733">
        <ele>1438.4</ele>
        <time>2023-09-28T10:21:26Z</time>
      </trkpt>
      <trkpt lat="44.66618" lon="5.85734">
        <ele>1438.4</ele>
        <time>2023-09-28T10:21:27Z</time>
      </trkpt>
      <trkpt lat="44.66618" lon="5.85735">
        <ele>1438.4</ele>
        <time>2023-09-28T10:21:28Z</time>
      </trkpt>
      <trkpt lat="44.66618" lon="5.85737">
        <ele>1438.4</ele>
        <time>2023-09-28T10:21:29Z</time>
      </trkpt>
      <trkpt lat="44.66619" lon="5.85739">
        <ele>1438.4</ele>
        <time>2023-09-28T10:21:30Z</time>
      </trkpt>
      <trkpt lat="44.66619" lon="5.8574">
        <ele>1438.4</ele>
        <time>2023-09-28T10:21:31Z</time>
      </trkpt>
      <trkpt lat="44.66619" lon="5.8574">
        <ele>1438.4</ele>
        <time>2023-09-28T10:21:32Z</time>
      </trkpt>
      <trkpt lat="44.66619" lon="5.8574">
        <ele>1438.4</ele>
        <time>2023-09-28T10:21:33Z</time>
      </trkpt>
      <trkpt lat="44.66619" lon="5.8574">
        <ele>1438.4</ele>
        <time>2023-09-28T10:21:34Z</time>
      </trkpt>
      <trkpt lat="44.66619" lon="5.85739">
        <ele>1438.4</ele>
        <time>2023-09-28T10:21:35Z</time>
      </trkpt>
      <trkpt lat="44.66619" lon="5.85739">
        <ele>1438.4</ele>
        <time>2023-09-28T10:21:36Z</time>
      </trkpt>
      <trkpt lat="44.66619" lon="5.85739">
        <ele>1438.4</ele>
        <time>2023-09-28T10:21:37Z</time>
      </trkpt>
      <trkpt lat="44.66619" lon="5.85739">
        <ele>1438.4</ele>
        <time>2023-09-28T10:21:38Z</time>
      </trkpt>
      <trkpt lat="44.66619" lon="5.8574">
        <ele>1438.4</ele>
        <time>2023-09-28T10:21:39Z</time>
      </trkpt>
      <trkpt lat="44.66619" lon="5.8574">
        <ele>1438.4</ele>
        <time>2023-09-28T10:21:40Z</time>
      </trkpt>
      <trkpt lat="44.66618" lon="5.8574">
        <ele>1438.4</ele>
        <time>2023-09-28T10:21:41Z</time>
      </trkpt>
      <trkpt lat="44.66617" lon="5.8574">
        <ele>1438.4</ele>
        <time>2023-09-28T10:21:43Z</time>
      </trkpt>
      <trkpt lat="44.66616" lon="5.85739">
        <ele>1438.4</ele>
        <time>2023-09-28T10:21:44Z</time>
      </trkpt>
      <trkpt lat="44.66615" lon="5.85739">
        <ele>1438.4</ele>
        <time>2023-09-28T10:21:45Z</time>
      </trkpt>
      <trkpt lat="44.66615" lon="5.85738">
        <ele>1438.4</ele>
        <time>2023-09-28T10:21:46Z</time>
      </trkpt>
      <trkpt lat="44.66615" lon="5.85738">
        <ele>1438.4</ele>
        <time>2023-09-28T10:21:47Z</time>
      </trkpt>
      <trkpt lat="44.66614" lon="5.85737">
        <ele>1438.4</ele>
        <time>2023-09-28T10:21:48Z</time>
      </trkpt>
      <trkpt lat="44.66613" lon="5.85737">
        <ele>1438.3</ele>
        <time>2023-09-28T10:21:49Z</time>
      </trkpt>
      <trkpt lat="44.66611" lon="5.85737">
        <ele>1438.3</ele>
        <time>2023-09-28T10:21:51Z</time>
      </trkpt>
      <trkpt lat="44.6661" lon="5.85738">
        <ele>1438.3</ele>
        <time>2023-09-28T10:21:52Z</time>
      </trkpt>
      <trkpt lat="44.6661" lon="5.85738">
        <ele>1438.3</ele>
        <time>2023-09-28T10:21:53Z</time>
      </trkpt>
      <trkpt lat="44.6661" lon="5.85738">
        <ele>1438.3</ele>
        <time>2023-09-28T10:21:55Z</time>
      </trkpt>
      <trkpt lat="44.66609" lon="5.85738">
        <ele>1438.3</ele>
        <time>2023-09-28T10:21:56Z</time>
      </trkpt>
      <trkpt lat="44.66609" lon="5.85738">
        <ele>1438.3</ele>
        <time>2023-09-28T10:21:57Z</time>
      </trkpt>
      <trkpt lat="44.66607" lon="5.85738">
        <ele>1438.3</ele>
        <time>2023-09-28T10:21:59Z</time>
      </trkpt>
      <trkpt lat="44.66607" lon="5.85739">
        <ele>1438.3</ele>
        <time>2023-09-28T10:22:00Z</time>
      </trkpt>
      <trkpt lat="44.66606" lon="5.85739">
        <ele>1438.3</ele>
        <time>2023-09-28T10:22:01Z</time>
      </trkpt>
      <trkpt lat="44.66606" lon="5.85739">
        <ele>1438.3</ele>
        <time>2023-09-28T10:22:03Z</time>
      </trkpt>
      <trkpt lat="44.66606" lon="5.85739">
        <ele>1438.3</ele>
        <time>2023-09-28T10:22:04Z</time>
      </trkpt>
      <trkpt lat="44.66606" lon="5.85739">
        <ele>1438.3</ele>
        <time>2023-09-28T10:22:05Z</time>
      </trkpt>
      <trkpt lat="44.66606" lon="5.85739">
        <ele>1438.3</ele>
        <time>2023-09-28T10:22:07Z</time>
      </trkpt>
      <trkpt lat="44.66606" lon="5.85739">
        <ele>1438.3</ele>
        <time>2023-09-28T10:22:08Z</time>
      </trkpt>
      <trkpt lat="44.66606" lon="5.85739">
        <ele>1438.3</ele>
        <time>2023-09-28T10:22:09Z</time>
      </trkpt>
      <trkpt lat="44.66606" lon="5.85739">
        <ele>1438.3</ele>
        <time>2023-09-28T10:22:11Z</time>
      </trkpt>
      <trkpt lat="44.6661" lon="5.85739">
        <ele>1438.3</ele>
        <time>2023-09-28T10:23:13Z</time>
      </trkpt>
      <trkpt lat="44.66611" lon="5.85739">
        <ele>1438.3</ele>
        <time>2023-09-28T10:23:14Z</time>
      </trkpt>
      <trkpt lat="44.66612" lon="5.8574">
        <ele>1438.3</ele>
        <time>2023-09-28T10:23:15Z</time>
      </trkpt>
      <trkpt lat="44.66612" lon="5.8574">
        <ele>1438.3</ele>
        <time>2023-09-28T10:23:16Z</time>
      </trkpt>
      <trkpt lat="44.66613" lon="5.8574">
        <ele>1438.3</ele>
        <time>2023-09-28T10:23:18Z</time>
      </trkpt>
      <trkpt lat="44.66614" lon="5.8574">
        <ele>1438.3</ele>
        <time>2023-09-28T10:23:19Z</time>
      </trkpt>
      <trkpt lat="44.66615" lon="5.8574">
        <ele>1438.3</ele>
        <time>2023-09-28T10:23:21Z</time>
      </trkpt>
      <trkpt lat="44.66615" lon="5.8574">
        <ele>1438.3</ele>
        <time>2023-09-28T10:23:22Z</time>
      </trkpt>
      <trkpt lat="44.66615" lon="5.8574">
        <ele>1438.3</ele>
        <time>2023-09-28T10:23:23Z</time>
      </trkpt>
      <trkpt lat="44.66616" lon="5.8574">
        <ele>1438.3</ele>
        <time>2023-09-28T10:23:25Z</time>
      </trkpt>
      <trkpt lat="44.66616" lon="5.8574">
        <ele>1438.3</ele>
        <time>2023-09-28T10:23:26Z</time>
      </trkpt>
      <trkpt lat="44.66615" lon="5.8574">
        <ele>1438.3</ele>
        <time>2023-09-28T10:23:27Z</time>
      </trkpt>
      <trkpt lat="44.66615" lon="5.8574">
        <ele>1438.3</ele>
        <time>2023-09-28T10:23:29Z</time>
      </trkpt>
      <trkpt lat="44.66615" lon="5.8574">
        <ele>1438.3</ele>
        <time>2023-09-28T10:23:30Z</time>
      </trkpt>
      <trkpt lat="44.66615" lon="5.8574">
        <ele>1438.3</ele>
        <time>2023-09-28T10:23:31Z</time>
      </trkpt>
      <trkpt lat="44.66615" lon="5.85741">
        <ele>1438.3</ele>
        <time>2023-09-28T10:23:33Z</time>
      </trkpt>
      <trkpt lat="44.66615" lon="5.85741">
        <ele>1438.3</ele>
        <time>2023-09-28T10:23:34Z</time>
      </trkpt>
      <trkpt lat="44.66615" lon="5.85741">
        <ele>1438.3</ele>
        <time>2023-09-28T10:23:35Z</time>
      </trkpt>
      <trkpt lat="44.66615" lon="5.85739">
        <ele>1438.3</ele>
        <time>2023-09-28T10:39:10Z</time>
      </trkpt>
      <trkpt lat="44.66615" lon="5.85739">
        <ele>1438.3</ele>
        <time>2023-09-28T10:39:11Z</time>
      </trkpt>
      <trkpt lat="44.66615" lon="5.85739">
        <ele>1438.3</ele>
        <time>2023-09-28T10:39:12Z</time>
      </trkpt>
      <trkpt lat="44.66615" lon="5.85739">
        <ele>1438.3</ele>
        <time>2023-09-28T10:39:13Z</time>
      </trkpt>
      <trkpt lat="44.66615" lon="5.85739">
        <ele>1438.3</ele>
        <time>2023-09-28T10:39:14Z</time>
      </trkpt>
      <trkpt lat="44.66615" lon="5.85739">
        <ele>1438.3</ele>
        <time>2023-09-28T10:39:15Z</time>
      </trkpt>
      <trkpt lat="44.66615" lon="5.85739">
        <ele>1438.3</ele>
        <time>2023-09-28T10:39:16Z</time>
      </trkpt>
      <trkpt lat="44.66615" lon="5.85739">
        <ele>1438.3</ele>
        <time>2023-09-28T10:39:17Z</time>
      </trkpt>
      <trkpt lat="44.66615" lon="5.8574">
        <ele>1438.3</ele>
        <time>2023-09-28T10:39:18Z</time>
      </trkpt>
      <trkpt lat="44.66615" lon="5.8574">
        <ele>1438.3</ele>
        <time>2023-09-28T10:39:19Z</time>
      </trkpt>
      <trkpt lat="44.66615" lon="5.8574">
        <ele>1438.3</ele>
        <time>2023-09-28T10:39:20Z</time>
      </trkpt>
      <trkpt lat="44.66615" lon="5.8574">
        <ele>1438.3</ele>
        <time>2023-09-28T10:39:21Z</time>
      </trkpt>
      <trkpt lat="44.66612" lon="5.85741">
        <ele>1438.3</ele>
        <time>2023-09-28T10:44:24Z</time>
      </trkpt>
      <trkpt lat="44.66611" lon="5.85741">
        <ele>1438.3</ele>
        <time>2023-09-28T10:44:25Z</time>
      </trkpt>
      <trkpt lat="44.66611" lon="5.85742">
        <ele>1438.3</ele>
        <time>2023-09-28T10:44:26Z</time>
      </trkpt>
      <trkpt lat="44.66611" lon="5.85743">
        <ele>1438.3</ele>
        <time>2023-09-28T10:44:27Z</time>
      </trkpt>
      <trkpt lat="44.6661" lon="5.85744">
        <ele>1438.3</ele>
        <time>2023-09-28T10:44:28Z</time>
      </trkpt>
      <trkpt lat="44.66609" lon="5.85744">
        <ele>1438.3</ele>
        <time>2023-09-28T10:44:29Z</time>
      </trkpt>
      <trkpt lat="44.66608" lon="5.85744">
        <ele>1438.3</ele>
        <time>2023-09-28T10:44:31Z</time>
      </trkpt>
      <trkpt lat="44.66608" lon="5.85743">
        <ele>1438.3</ele>
        <time>2023-09-28T10:44:32Z</time>
      </trkpt>
      <trkpt lat="44.66608" lon="5.85743">
        <ele>1438.3</ele>
        <time>2023-09-28T10:44:33Z</time>
      </trkpt>
      <trkpt lat="44.66607" lon="5.85743">
        <ele>1438.3</ele>
        <time>2023-09-28T10:44:34Z</time>
      </trkpt>
      <trkpt lat="44.66607" lon="5.85742">
        <ele>1438.3</ele>
        <time>2023-09-28T10:44:36Z</time>
      </trkpt>
      <trkpt lat="44.66607" lon="5.85742">
        <ele>1438.3</ele>
        <time>2023-09-28T10:44:37Z</time>
      </trkpt>
      <trkpt lat="44.66607" lon="5.85742">
        <ele>1438.3</ele>
        <time>2023-09-28T10:44:38Z</time>
      </trkpt>
      <trkpt lat="44.66606" lon="5.85741">
        <ele>1438.3</ele>
        <time>2023-09-28T10:44:40Z</time>
      </trkpt>
      <trkpt lat="44.66606" lon="5.85741">
        <ele>1438.3</ele>
        <time>2023-09-28T10:44:41Z</time>
      </trkpt>
      <trkpt lat="44.66606" lon="5.85741">
        <ele>1438.3</ele>
        <time>2023-09-28T10:44:42Z</time>
      </trkpt>
      <trkpt lat="44.66606" lon="5.85741">
        <ele>1438.3</ele>
        <time>2023-09-28T10:44:43Z</time>
      </trkpt>
      <trkpt lat="44.66606" lon="5.85741">
        <ele>1438.3</ele>
        <time>2023-09-28T10:44:45Z</time>
      </trkpt>
      <trkpt lat="44.66609" lon="5.8574">
        <ele>1438.3</ele>
        <time>2023-09-28T10:46:00Z</time>
      </trkpt>
      <trkpt lat="44.6661" lon="5.8574">
        <ele>1438.3</ele>
        <time>2023-09-28T10:46:01Z</time>
      </trkpt>
      <trkpt lat="44.66611" lon="5.8574">
        <ele>1438.3</ele>
        <time>2023-09-28T10:46:02Z</time>
      </trkpt>
      <trkpt lat="44.66611" lon="5.8574">
        <ele>1438.3</ele>
        <time>2023-09-28T10:46:04Z</time>
      </trkpt>
      <trkpt lat="44.66611" lon="5.8574">
        <ele>1438.3</ele>
        <time>2023-09-28T10:46:05Z</time>
      </trkpt>
      <trkpt lat="44.66612" lon="5.85739">
        <ele>1438.3</ele>
        <time>2023-09-28T10:46:07Z</time>
      </trkpt>
      <trkpt lat="44.66612" lon="5.85739">
        <ele>1438.3</ele>
        <time>2023-09-28T10:46:08Z</time>
      </trkpt>
      <trkpt lat="44.66614" lon="5.85739">
        <ele>1438.3</ele>
        <time>2023-09-28T10:46:09Z</time>
      </trkpt>
      <trkpt lat="44.66615" lon="5.85738">
        <ele>1438.3</ele>
        <time>2023-09-28T10:46:10Z</time>
      </trkpt>
      <trkpt lat="44.66617" lon="5.85738">
        <ele>1438.3</ele>
        <time>2023-09-28T10:46:11Z</time>
      </trkpt>
      <trkpt lat="44.66619" lon="5.85738">
        <ele>1438.3</ele>
        <time>2023-09-28T10:46:12Z</time>
      </trkpt>
      <trkpt lat="44.6662" lon="5.85738">
        <ele>1438.3</ele>
        <time>2023-09-28T10:46:13Z</time>
      </trkpt>
      <trkpt lat="44.66624" lon="5.85739">
        <ele>1438.3</ele>
        <time>2023-09-28T10:46:15Z</time>
      </trkpt>
      <trkpt lat="44.66626" lon="5.85743">
        <ele>1438.3</ele>
        <time>2023-09-28T10:46:17Z</time>
      </trkpt>
      <trkpt lat="44.66628" lon="5.85748">
        <ele>1438.3</ele>
        <time>2023-09-28T10:46:18Z</time>
      </trkpt>
      <trkpt lat="44.66628" lon="5.85752">
        <ele>1438.3</ele>
        <time>2023-09-28T10:46:20Z</time>
      </trkpt>
      <trkpt lat="44.6663" lon="5.85756">
        <ele>1438.4</ele>
        <time>2023-09-28T10:46:21Z</time>
      </trkpt>
      <trkpt lat="44.66632" lon="5.85759">
        <ele>1438.4</ele>
        <time>2023-09-28T10:46:22Z</time>
      </trkpt>
      <trkpt lat="44.66635" lon="5.85762">
        <ele>1438.4</ele>
        <time>2023-09-28T10:46:24Z</time>
      </trkpt>
      <trkpt lat="44.66637" lon="5.85767">
        <ele>1438.4</ele>
        <time>2023-09-28T10:46:25Z</time>
      </trkpt>
      <trkpt lat="44.66639" lon="5.85771">
        <ele>1438.5</ele>
        <time>2023-09-28T10:46:26Z</time>
      </trkpt>
      <trkpt lat="44.66642" lon="5.85774">
        <ele>1438.5</ele>
        <time>2023-09-28T10:46:27Z</time>
      </trkpt>
      <trkpt lat="44.66643" lon="5.85775">
        <ele>1438.6</ele>
        <time>2023-09-28T10:46:28Z</time>
      </trkpt>
      <trkpt lat="44.66646" lon="5.85778">
        <ele>1438.6</ele>
        <time>2023-09-28T10:46:29Z</time>
      </trkpt>
      <trkpt lat="44.66647" lon="5.85779">
        <ele>1438.6</ele>
        <time>2023-09-28T10:46:30Z</time>
      </trkpt>
      <trkpt lat="44.6665" lon="5.85782">
        <ele>1438.7</ele>
        <time>2023-09-28T10:46:32Z</time>
      </trkpt>
      <trkpt lat="44.66651" lon="5.85786">
        <ele>1438.7</ele>
        <time>2023-09-28T10:46:33Z</time>
      </trkpt>
      <trkpt lat="44.66652" lon="5.85787">
        <ele>1438.7</ele>
        <time>2023-09-28T10:46:34Z</time>
      </trkpt>
      <trkpt lat="44.66653" lon="5.85788">
        <ele>1438.7</ele>
        <time>2023-09-28T10:46:35Z</time>
      </trkpt>
      <trkpt lat="44.66653" lon="5.85789">
        <ele>1438.8</ele>
        <time>2023-09-28T10:46:37Z</time>
      </trkpt>
      <trkpt lat="44.66653" lon="5.85789">
        <ele>1438.8</ele>
        <time>2023-09-28T10:46:38Z</time>
      </trkpt>
      <trkpt lat="44.66652" lon="5.85788">
        <ele>1438.8</ele>
        <time>2023-09-28T10:46:39Z</time>
      </trkpt>
      <trkpt lat="44.66652" lon="5.85788">
        <ele>1438.8</ele>
        <time>2023-09-28T10:46:41Z</time>
      </trkpt>
      <trkpt lat="44.66652" lon="5.85789">
        <ele>1438.8</ele>
        <time>2023-09-28T10:46:42Z</time>
      </trkpt>
      <trkpt lat="44.66652" lon="5.85789">
        <ele>1438.8</ele>
        <time>2023-09-28T10:46:43Z</time>
      </trkpt>
      <trkpt lat="44.66652" lon="5.85789">
        <ele>1438.8</ele>
        <time>2023-09-28T10:46:45Z</time>
      </trkpt>
      <trkpt lat="44.66654" lon="5.8579">
        <ele>1438.8</ele>
        <time>2023-09-28T10:46:54Z</time>
      </trkpt>
      <trkpt lat="44.66655" lon="5.8579">
        <ele>1438.8</ele>
        <time>2023-09-28T10:46:56Z</time>
      </trkpt>
      <trkpt lat="44.66655" lon="5.85791">
        <ele>1438.8</ele>
        <time>2023-09-28T10:46:57Z</time>
      </trkpt>
      <trkpt lat="44.66655" lon="5.85791">
        <ele>1438.8</ele>
        <time>2023-09-28T10:46:58Z</time>
      </trkpt>
      <trkpt lat="44.66655" lon="5.85792">
        <ele>1438.8</ele>
        <time>2023-09-28T10:47:00Z</time>
      </trkpt>
      <trkpt lat="44.66655" lon="5.85792">
        <ele>1438.8</ele>
        <time>2023-09-28T10:47:01Z</time>
      </trkpt>
      <trkpt lat="44.66655" lon="5.85792">
        <ele>1438.8</ele>
        <time>2023-09-28T10:47:02Z</time>
      </trkpt>
      <trkpt lat="44.66655" lon="5.85792">
        <ele>1438.8</ele>
        <time>2023-09-28T10:47:04Z</time>
      </trkpt>
      <trkpt lat="44.66655" lon="5.85792">
        <ele>1438.8</ele>
        <time>2023-09-28T10:47:05Z</time>
      </trkpt>
      <trkpt lat="44.66655" lon="5.85792">
        <ele>1438.8</ele>
        <time>2023-09-28T10:47:06Z</time>
      </trkpt>
      <trkpt lat="44.66654" lon="5.85792">
        <ele>1438.8</ele>
        <time>2023-09-28T10:47:08Z</time>
      </trkpt>
      <trkpt lat="44.66654" lon="5.85792">
        <ele>1438.8</ele>
        <time>2023-09-28T10:47:09Z</time>
      </trkpt>
      <trkpt lat="44.66654" lon="5.85792">
        <ele>1438.8</ele>
        <time>2023-09-28T10:47:10Z</time>
      </trkpt>
      <trkpt lat="44.66654" lon="5.85792">
        <ele>1438.8</ele>
        <time>2023-09-28T10:47:12Z</time>
      </trkpt>
      <trkpt lat="44.66654" lon="5.85791">
        <ele>1438.9</ele>
        <time>2023-09-28T10:47:13Z</time>
      </trkpt>
      <trkpt lat="44.66654" lon="5.85791">
        <ele>1438.9</ele>
        <time>2023-09-28T10:47:14Z</time>
      </trkpt>
      <trkpt lat="44.66654" lon="5.85791">
        <ele>1438.9</ele>
        <time>2023-09-28T10:47:15Z</time>
      </trkpt>
      <trkpt lat="44.66654" lon="5.85791">
        <ele>1438.9</ele>
        <time>2023-09-28T10:47:16Z</time>
      </trkpt>
      <trkpt lat="44.66654" lon="5.85791">
        <ele>1438.9</ele>
        <time>2023-09-28T10:47:17Z</time>
      </trkpt>
      <trkpt lat="44.66654" lon="5.85791">
        <ele>1438.9</ele>
        <time>2023-09-28T10:47:18Z</time>
      </trkpt>
      <trkpt lat="44.66654" lon="5.85791">
        <ele>1438.9</ele>
        <time>2023-09-28T10:47:19Z</time>
      </trkpt>
      <trkpt lat="44.66654" lon="5.85791">
        <ele>1438.9</ele>
        <time>2023-09-28T10:47:20Z</time>
      </trkpt>
      <trkpt lat="44.66654" lon="5.85791">
        <ele>1438.9</ele>
        <time>2023-09-28T10:47:21Z</time>
      </trkpt>
      <trkpt lat="44.66654" lon="5.85791">
        <ele>1438.9</ele>
        <time>2023-09-28T10:47:22Z</time>
      </trkpt>
      <trkpt lat="44.66654" lon="5.85791">
        <ele>1438.9</ele>
        <time>2023-09-28T10:47:23Z</time>
      </trkpt>
      <trkpt lat="44.66654" lon="5.85791">
        <ele>1438.9</ele>
        <time>2023-09-28T10:47:24Z</time>
      </trkpt>
      <trkpt lat="44.66654" lon="5.85791">
        <ele>1438.9</ele>
        <time>2023-09-28T10:47:25Z</time>
      </trkpt>
      <trkpt lat="44.66654" lon="5.85791">
        <ele>1438.9</ele>
        <time>2023-09-28T10:47:26Z</time>
      </trkpt>
      <trkpt lat="44.66654" lon="5.85791">
        <ele>1438.9</ele>
        <time>2023-09-28T10:47:27Z</time>
      </trkpt>
      <trkpt lat="44.66654" lon="5.85791">
        <ele>1438.9</ele>
        <time>2023-09-28T10:47:28Z</time>
      </trkpt>
      <trkpt lat="44.66654" lon="5.85791">
        <ele>1438.9</ele>
        <time>2023-09-28T10:47:29Z</time>
      </trkpt>
      <trkpt lat="44.66654" lon="5.85791">
        <ele>1438.9</ele>
        <time>2023-09-28T10:47:30Z</time>
      </trkpt>
      <trkpt lat="44.66654" lon="5.85791">
        <ele>1438.9</ele>
        <time>2023-09-28T10:47:31Z</time>
      </trkpt>
      <trkpt lat="44.66654" lon="5.85791">
        <ele>1438.9</ele>
        <time>2023-09-28T10:47:32Z</time>
      </trkpt>
      <trkpt lat="44.66654" lon="5.85791">
        <ele>1438.9</ele>
        <time>2023-09-28T10:47:33Z</time>
      </trkpt>
      <trkpt lat="44.66654" lon="5.85791">
        <ele>1438.9</ele>
        <time>2023-09-28T10:47:34Z</time>
      </trkpt>
      <trkpt lat="44.66654" lon="5.85791">
        <ele>1438.9</ele>
        <time>2023-09-28T10:47:35Z</time>
      </trkpt>
      <trkpt lat="44.66654" lon="5.85791">
        <ele>1438.9</ele>
        <time>2023-09-28T10:47:36Z</time>
      </trkpt>
      <trkpt lat="44.66654" lon="5.85791">
        <ele>1438.9</ele>
        <time>2023-09-28T10:47:37Z</time>
      </trkpt>
      <trkpt lat="44.66654" lon="5.85791">
        <ele>1438.9</ele>
        <time>2023-09-28T10:47:38Z</time>
      </trkpt>
      <trkpt lat="44.66654" lon="5.85791">
        <ele>1438.9</ele>
        <time>2023-09-28T10:47:39Z</time>
      </trkpt>
      <trkpt lat="44.66654" lon="5.85791">
        <ele>1438.9</ele>
        <time>2023-09-28T10:47:40Z</time>
      </trkpt>
      <trkpt lat="44.66654" lon="5.85791">
        <ele>1438.9</ele>
        <time>2023-09-28T10:47:41Z</time>
      </trkpt>
      <trkpt lat="44.66654" lon="5.85791">
        <ele>1438.9</ele>
        <time>2023-09-28T10:47:42Z</time>
      </trkpt>
      <trkpt lat="44.66654" lon="5.85791">
        <ele>1438.9</ele>
        <time>2023-09-28T10:47:43Z</time>
      </trkpt>
      <trkpt lat="44.66654" lon="5.85791">
        <ele>1438.9</ele>
        <time>2023-09-28T10:47:44Z</time>
      </trkpt>
      <trkpt lat="44.66654" lon="5.85791">
        <ele>1438.9</ele>
        <time>2023-09-28T10:47:45Z</time>
      </trkpt>
      <trkpt lat="44.66654" lon="5.85791">
        <ele>1438.9</ele>
        <time>2023-09-28T10:47:46Z</time>
      </trkpt>
      <trkpt lat="44.66654" lon="5.85791">
        <ele>1438.9</ele>
        <time>2023-09-28T10:47:47Z</time>
      </trkpt>
      <trkpt lat="44.66654" lon="5.85791">
        <ele>1438.9</ele>
        <time>2023-09-28T10:47:48Z</time>
      </trkpt>
      <trkpt lat="44.66654" lon="5.85791">
        <ele>1438.9</ele>
        <time>2023-09-28T10:47:49Z</time>
      </trkpt>
      <trkpt lat="44.66654" lon="5.85791">
        <ele>1438.9</ele>
        <time>2023-09-28T10:47:50Z</time>
      </trkpt>
      <trkpt lat="44.66654" lon="5.85791">
        <ele>1438.9</ele>
        <time>2023-09-28T10:47:51Z</time>
      </trkpt>
      <trkpt lat="44.66654" lon="5.85791">
        <ele>1438.9</ele>
        <time>2023-09-28T10:47:52Z</time>
      </trkpt>
      <trkpt lat="44.66654" lon="5.85791">
        <ele>1438.9</ele>
        <time>2023-09-28T10:47:53Z</time>
      </trkpt>
      <trkpt lat="44.66654" lon="5.85791">
        <ele>1438.9</ele>
        <time>2023-09-28T10:47:54Z</time>
      </trkpt>
      <trkpt lat="44.66654" lon="5.85791">
        <ele>1438.9</ele>
        <time>2023-09-28T10:47:55Z</time>
      </trkpt>
      <trkpt lat="44.66654" lon="5.85791">
        <ele>1438.9</ele>
        <time>2023-09-28T10:47:56Z</time>
      </trkpt>
      <trkpt lat="44.66654" lon="5.85791">
        <ele>1438.9</ele>
        <time>2023-09-28T10:47:57Z</time>
      </trkpt>
      <trkpt lat="44.66654" lon="5.85791">
        <ele>1438.9</ele>
        <time>2023-09-28T10:47:58Z</time>
      </trkpt>
      <trkpt lat="44.66654" lon="5.85791">
        <ele>1438.9</ele>
        <time>2023-09-28T10:47:59Z</time>
      </trkpt>
      <trkpt lat="44.66654" lon="5.85791">
        <ele>1438.9</ele>
        <time>2023-09-28T10:48:00Z</time>
      </trkpt>
      <trkpt lat="44.66654" lon="5.85791">
        <ele>1438.9</ele>
        <time>2023-09-28T10:48:01Z</time>
      </trkpt>
      <trkpt lat="44.66654" lon="5.85791">
        <ele>1438.9</ele>
        <time>2023-09-28T10:48:02Z</time>
      </trkpt>
      <trkpt lat="44.66654" lon="5.85791">
        <ele>1438.9</ele>
        <time>2023-09-28T10:48:03Z</time>
      </trkpt>
      <trkpt lat="44.66654" lon="5.85791">
        <ele>1438.9</ele>
        <time>2023-09-28T10:48:04Z</time>
      </trkpt>
      <trkpt lat="44.66654" lon="5.85791">
        <ele>1438.9</ele>
        <time>2023-09-28T10:48:05Z</time>
      </trkpt>
      <trkpt lat="44.66654" lon="5.85791">
        <ele>1438.9</ele>
        <time>2023-09-28T10:48:06Z</time>
      </trkpt>
      <trkpt lat="44.66654" lon="5.85791">
        <ele>1438.9</ele>
        <time>2023-09-28T10:48:07Z</time>
      </trkpt>
      <trkpt lat="44.66654" lon="5.85791">
        <ele>1438.9</ele>
        <time>2023-09-28T10:48:08Z</time>
      </trkpt>
      <trkpt lat="44.66654" lon="5.85791">
        <ele>1438.9</ele>
        <time>2023-09-28T10:48:09Z</time>
      </trkpt>
      <trkpt lat="44.66654" lon="5.85791">
        <ele>1438.9</ele>
        <time>2023-09-28T10:48:10Z</time>
      </trkpt>
      <trkpt lat="44.66654" lon="5.85791">
        <ele>1438.9</ele>
        <time>2023-09-28T10:48:11Z</time>
      </trkpt>
      <trkpt lat="44.66654" lon="5.85791">
        <ele>1438.9</ele>
        <time>2023-09-28T10:48:12Z</time>
      </trkpt>
      <trkpt lat="44.66654" lon="5.85791">
        <ele>1438.9</ele>
        <time>2023-09-28T10:48:13Z</time>
      </trkpt>
      <trkpt lat="44.66654" lon="5.85791">
        <ele>1438.9</ele>
        <time>2023-09-28T10:48:14Z</time>
      </trkpt>
      <trkpt lat="44.66655" lon="5.85791">
        <ele>1438.9</ele>
        <time>2023-09-28T10:48:15Z</time>
      </trkpt>
      <trkpt lat="44.66655" lon="5.8579">
        <ele>1438.9</ele>
        <time>2023-09-28T10:48:16Z</time>
      </trkpt>
      <trkpt lat="44.66656" lon="5.85789">
        <ele>1438.9</ele>
        <time>2023-09-28T10:48:17Z</time>
      </trkpt>
      <trkpt lat="44.66656" lon="5.85788">
        <ele>1438.9</ele>
        <time>2023-09-28T10:48:18Z</time>
      </trkpt>
      <trkpt lat="44.66656" lon="5.85788">
        <ele>1438.9</ele>
        <time>2023-09-28T10:48:19Z</time>
      </trkpt>
      <trkpt lat="44.66656" lon="5.85787">
        <ele>1438.9</ele>
        <time>2023-09-28T10:48:20Z</time>
      </trkpt>
      <trkpt lat="44.66657" lon="5.85786">
        <ele>1438.9</ele>
        <time>2023-09-28T10:48:21Z</time>
      </trkpt>
      <trkpt lat="44.66657" lon="5.85786">
        <ele>1438.9</ele>
        <time>2023-09-28T10:48:22Z</time>
      </trkpt>
      <trkpt lat="44.66657" lon="5.85786">
        <ele>1438.9</ele>
        <time>2023-09-28T10:48:24Z</time>
      </trkpt>
      <trkpt lat="44.66657" lon="5.85786">
        <ele>1438.9</ele>
        <time>2023-09-28T10:48:25Z</time>
      </trkpt>
      <trkpt lat="44.66658" lon="5.85786">
        <ele>1439</ele>
        <time>2023-09-28T10:48:26Z</time>
      </trkpt>
      <trkpt lat="44.66659" lon="5.85787">
        <ele>1439</ele>
        <time>2023-09-28T10:48:28Z</time>
      </trkpt>
      <trkpt lat="44.66659" lon="5.85788">
        <ele>1439</ele>
        <time>2023-09-28T10:48:29Z</time>
      </trkpt>
      <trkpt lat="44.6666" lon="5.85788">
        <ele>1439</ele>
        <time>2023-09-28T10:48:30Z</time>
      </trkpt>
      <trkpt lat="44.66661" lon="5.85787">
        <ele>1439</ele>
        <time>2023-09-28T10:48:32Z</time>
      </trkpt>
      <trkpt lat="44.66661" lon="5.85787">
        <ele>1439</ele>
        <time>2023-09-28T10:48:33Z</time>
      </trkpt>
      <trkpt lat="44.66662" lon="5.85787">
        <ele>1439</ele>
        <time>2023-09-28T10:48:34Z</time>
      </trkpt>
      <trkpt lat="44.66662" lon="5.85787">
        <ele>1439</ele>
        <time>2023-09-28T10:48:36Z</time>
      </trkpt>
      <trkpt lat="44.66663" lon="5.85787">
        <ele>1439</ele>
        <time>2023-09-28T10:48:37Z</time>
      </trkpt>
      <trkpt lat="44.66664" lon="5.85786">
        <ele>1439</ele>
        <time>2023-09-28T10:48:38Z</time>
      </trkpt>
      <trkpt lat="44.66664" lon="5.85786">
        <ele>1439</ele>
        <time>2023-09-28T10:48:40Z</time>
      </trkpt>
      <trkpt lat="44.66665" lon="5.85786">
        <ele>1439</ele>
        <time>2023-09-28T10:48:42Z</time>
      </trkpt>
      <trkpt lat="44.66665" lon="5.85786">
        <ele>1439</ele>
        <time>2023-09-28T10:48:43Z</time>
      </trkpt>
      <trkpt lat="44.66666" lon="5.85786">
        <ele>1439</ele>
        <time>2023-09-28T10:48:44Z</time>
      </trkpt>
      <trkpt lat="44.66669" lon="5.85786">
        <ele>1439</ele>
        <time>2023-09-28T10:48:45Z</time>
      </trkpt>
      <trkpt lat="44.6667" lon="5.85786">
        <ele>1439</ele>
        <time>2023-09-28T10:48:46Z</time>
      </trkpt>
      <trkpt lat="44.66674" lon="5.85786">
        <ele>1439</ele>
        <time>2023-09-28T10:48:48Z</time>
      </trkpt>
      <trkpt lat="44.66676" lon="5.85786">
        <ele>1439</ele>
        <time>2023-09-28T10:48:49Z</time>
      </trkpt>
      <trkpt lat="44.66678" lon="5.85787">
        <ele>1439</ele>
        <time>2023-09-28T10:48:50Z</time>
      </trkpt>
      <trkpt lat="44.66681" lon="5.85788">
        <ele>1439</ele>
        <time>2023-09-28T10:48:52Z</time>
      </trkpt>
      <trkpt lat="44.66684" lon="5.85789">
        <ele>1439</ele>
        <time>2023-09-28T10:48:53Z</time>
      </trkpt>
      <trkpt lat="44.66685" lon="5.85789">
        <ele>1439</ele>
        <time>2023-09-28T10:48:54Z</time>
      </trkpt>
      <trkpt lat="44.66688" lon="5.8579">
        <ele>1439</ele>
        <time>2023-09-28T10:48:55Z</time>
      </trkpt>
      <trkpt lat="44.66691" lon="5.85791">
        <ele>1439</ele>
        <time>2023-09-28T10:48:56Z</time>
      </trkpt>
      <trkpt lat="44.66695" lon="5.85792">
        <ele>1439</ele>
        <time>2023-09-28T10:48:57Z</time>
      </trkpt>
      <trkpt lat="44.66698" lon="5.85792">
        <ele>1439</ele>
        <time>2023-09-28T10:48:58Z</time>
      </trkpt>
      <trkpt lat="44.66701" lon="5.85792">
        <ele>1439</ele>
        <time>2023-09-28T10:48:59Z</time>
      </trkpt>
      <trkpt lat="44.66706" lon="5.85794">
        <ele>1438.9</ele>
        <time>2023-09-28T10:49:01Z</time>
      </trkpt>
      <trkpt lat="44.66709" lon="5.85794">
        <ele>1438.9</ele>
        <time>2023-09-28T10:49:03Z</time>
      </trkpt>
      <trkpt lat="44.66713" lon="5.85791">
        <ele>1438.9</ele>
        <time>2023-09-28T10:49:04Z</time>
      </trkpt>
      <trkpt lat="44.66717" lon="5.8579">
        <ele>1438.9</ele>
        <time>2023-09-28T10:49:06Z</time>
      </trkpt>
      <trkpt lat="44.66719" lon="5.85791">
        <ele>1438.9</ele>
        <time>2023-09-28T10:49:07Z</time>
      </trkpt>
      <trkpt lat="44.6672" lon="5.85792">
        <ele>1438.8</ele>
        <time>2023-09-28T10:49:08Z</time>
      </trkpt>
      <trkpt lat="44.66721" lon="5.85792">
        <ele>1438.8</ele>
        <time>2023-09-28T10:49:10Z</time>
      </trkpt>
      <trkpt lat="44.66722" lon="5.85793">
        <ele>1438.8</ele>
        <time>2023-09-28T10:49:11Z</time>
      </trkpt>
      <trkpt lat="44.66722" lon="5.85793">
        <ele>1438.8</ele>
        <time>2023-09-28T10:49:13Z</time>
      </trkpt>
      <trkpt lat="44.66723" lon="5.85794">
        <ele>1438.8</ele>
        <time>2023-09-28T10:49:14Z</time>
      </trkpt>
      <trkpt lat="44.66724" lon="5.85794">
        <ele>1438.8</ele>
        <time>2023-09-28T10:49:15Z</time>
      </trkpt>
      <trkpt lat="44.66725" lon="5.85794">
        <ele>1438.8</ele>
        <time>2023-09-28T10:49:17Z</time>
      </trkpt>
      <trkpt lat="44.66725" lon="5.85795">
        <ele>1438.8</ele>
        <time>2023-09-28T10:49:18Z</time>
      </trkpt>
      <trkpt lat="44.66726" lon="5.85795">
        <ele>1438.7</ele>
        <time>2023-09-28T10:50:31Z</time>
      </trkpt>
      <trkpt lat="44.66727" lon="5.85796">
        <ele>1438.7</ele>
        <time>2023-09-28T10:50:32Z</time>
      </trkpt>
      <trkpt lat="44.66727" lon="5.85796">
        <ele>1438.7</ele>
        <time>2023-09-28T10:50:33Z</time>
      </trkpt>
      <trkpt lat="44.66729" lon="5.85799">
        <ele>1438.6</ele>
        <time>2023-09-28T10:50:34Z</time>
      </trkpt>
      <trkpt lat="44.66736" lon="5.85803">
        <ele>1438.4</ele>
        <time>2023-09-28T10:50:36Z</time>
      </trkpt>
      <trkpt lat="44.6674" lon="5.85805">
        <ele>1438.2</ele>
        <time>2023-09-28T10:50:38Z</time>
      </trkpt>
      <trkpt lat="44.66743" lon="5.85809">
        <ele>1438</ele>
        <time>2023-09-28T10:50:39Z</time>
      </trkpt>
      <trkpt lat="44.66747" lon="5.85813">
        <ele>1437.8</ele>
        <time>2023-09-28T10:50:40Z</time>
      </trkpt>
      <trkpt lat="44.66751" lon="5.85817">
        <ele>1437.6</ele>
        <time>2023-09-28T10:50:41Z</time>
      </trkpt>
      <trkpt lat="44.66754" lon="5.85822">
        <ele>1437.3</ele>
        <time>2023-09-28T10:50:42Z</time>
      </trkpt>
      <trkpt lat="44.66758" lon="5.85828">
        <ele>1437.1</ele>
        <time>2023-09-28T10:50:43Z</time>
      </trkpt>
      <trkpt lat="44.6676" lon="5.85834">
        <ele>1436.8</ele>
        <time>2023-09-28T10:50:44Z</time>
      </trkpt>
      <trkpt lat="44.66764" lon="5.8584">
        <ele>1436.5</ele>
        <time>2023-09-28T10:50:45Z</time>
      </trkpt>
      <trkpt lat="44.66767" lon="5.85847">
        <ele>1436.3</ele>
        <time>2023-09-28T10:50:46Z</time>
      </trkpt>
      <trkpt lat="44.6677" lon="5.85854">
        <ele>1436</ele>
        <time>2023-09-28T10:50:47Z</time>
      </trkpt>
      <trkpt lat="44.66774" lon="5.85861">
        <ele>1435.7</ele>
        <time>2023-09-28T10:50:48Z</time>
      </trkpt>
      <trkpt lat="44.66777" lon="5.85869">
        <ele>1435.4</ele>
        <time>2023-09-28T10:50:49Z</time>
      </trkpt>
      <trkpt lat="44.66781" lon="5.85876">
        <ele>1435.2</ele>
        <time>2023-09-28T10:50:50Z</time>
      </trkpt>
      <trkpt lat="44.66784" lon="5.85884">
        <ele>1434.9</ele>
        <time>2023-09-28T10:50:51Z</time>
      </trkpt>
      <trkpt lat="44.66788" lon="5.85891">
        <ele>1434.6</ele>
        <time>2023-09-28T10:50:52Z</time>
      </trkpt>
      <trkpt lat="44.66791" lon="5.85899">
        <ele>1434.3</ele>
        <time>2023-09-28T10:50:53Z</time>
      </trkpt>
      <trkpt lat="44.66794" lon="5.85906">
        <ele>1434.1</ele>
        <time>2023-09-28T10:50:54Z</time>
      </trkpt>
      <trkpt lat="44.66798" lon="5.85913">
        <ele>1433.8</ele>
        <time>2023-09-28T10:50:55Z</time>
      </trkpt>
      <trkpt lat="44.66801" lon="5.8592">
        <ele>1433.5</ele>
        <time>2023-09-28T10:50:56Z</time>
      </trkpt>
      <trkpt lat="44.66804" lon="5.85927">
        <ele>1433.2</ele>
        <time>2023-09-28T10:50:57Z</time>
      </trkpt>
      <trkpt lat="44.66808" lon="5.85934">
        <ele>1432.9</ele>
        <time>2023-09-28T10:50:58Z</time>
      </trkpt>
      <trkpt lat="44.66811" lon="5.85941">
        <ele>1432.6</ele>
        <time>2023-09-28T10:50:59Z</time>
      </trkpt>
      <trkpt lat="44.66815" lon="5.85949">
        <ele>1432.3</ele>
        <time>2023-09-28T10:51:00Z</time>
      </trkpt>
      <trkpt lat="44.66819" lon="5.85956">
        <ele>1432.1</ele>
        <time>2023-09-28T10:51:01Z</time>
      </trkpt>
      <trkpt lat="44.66823" lon="5.85963">
        <ele>1431.8</ele>
        <time>2023-09-28T10:51:02Z</time>
      </trkpt>
      <trkpt lat="44.66827" lon="5.85971">
        <ele>1431.6</ele>
        <time>2023-09-28T10:51:03Z</time>
      </trkpt>
      <trkpt lat="44.66831" lon="5.85978">
        <ele>1431.3</ele>
        <time>2023-09-28T10:51:04Z</time>
      </trkpt>
      <trkpt lat="44.66835" lon="5.85987">
        <ele>1431</ele>
        <time>2023-09-28T10:51:05Z</time>
      </trkpt>
      <trkpt lat="44.66838" lon="5.85995">
        <ele>1430.7</ele>
        <time>2023-09-28T10:51:06Z</time>
      </trkpt>
      <trkpt lat="44.66841" lon="5.86004">
        <ele>1430.4</ele>
        <time>2023-09-28T10:51:07Z</time>
      </trkpt>
      <trkpt lat="44.66842" lon="5.86014">
        <ele>1430.1</ele>
        <time>2023-09-28T10:51:08Z</time>
      </trkpt>
      <trkpt lat="44.66841" lon="5.86024">
        <ele>1429.3</ele>
        <time>2023-09-28T10:51:09Z</time>
      </trkpt>
      <trkpt lat="44.66838" lon="5.86035">
        <ele>1428.4</ele>
        <time>2023-09-28T10:51:10Z</time>
      </trkpt>
      <trkpt lat="44.66834" lon="5.86045">
        <ele>1427.5</ele>
        <time>2023-09-28T10:51:11Z</time>
      </trkpt>
      <trkpt lat="44.66829" lon="5.86054">
        <ele>1426.5</ele>
        <time>2023-09-28T10:51:12Z</time>
      </trkpt>
      <trkpt lat="44.66824" lon="5.86065">
        <ele>1425.7</ele>
        <time>2023-09-28T10:51:13Z</time>
      </trkpt>
      <trkpt lat="44.6682" lon="5.86075">
        <ele>1425.1</ele>
        <time>2023-09-28T10:51:14Z</time>
      </trkpt>
      <trkpt lat="44.66818" lon="5.86087">
        <ele>1424.4</ele>
        <time>2023-09-28T10:51:15Z</time>
      </trkpt>
      <trkpt lat="44.66818" lon="5.86099">
        <ele>1423.8</ele>
        <time>2023-09-28T10:51:16Z</time>
      </trkpt>
      <trkpt lat="44.66819" lon="5.86111">
        <ele>1423.3</ele>
        <time>2023-09-28T10:51:17Z</time>
      </trkpt>
      <trkpt lat="44.66818" lon="5.86123">
        <ele>1422.7</ele>
        <time>2023-09-28T10:51:18Z</time>
      </trkpt>
      <trkpt lat="44.66815" lon="5.86135">
        <ele>1422</ele>
        <time>2023-09-28T10:51:19Z</time>
      </trkpt>
      <trkpt lat="44.6681" lon="5.86146">
        <ele>1421.4</ele>
        <time>2023-09-28T10:51:20Z</time>
      </trkpt>
      <trkpt lat="44.66802" lon="5.86155">
        <ele>1420.6</ele>
        <time>2023-09-28T10:51:21Z</time>
      </trkpt>
      <trkpt lat="44.66794" lon="5.86163">
        <ele>1419.9</ele>
        <time>2023-09-28T10:51:22Z</time>
      </trkpt>
      <trkpt lat="44.66787" lon="5.86173">
        <ele>1419.1</ele>
        <time>2023-09-28T10:51:23Z</time>
      </trkpt>
      <trkpt lat="44.66781" lon="5.86184">
        <ele>1418.4</ele>
        <time>2023-09-28T10:51:24Z</time>
      </trkpt>
      <trkpt lat="44.66777" lon="5.86197">
        <ele>1417.7</ele>
        <time>2023-09-28T10:51:25Z</time>
      </trkpt>
      <trkpt lat="44.66776" lon="5.86212">
        <ele>1416.9</ele>
        <time>2023-09-28T10:51:26Z</time>
      </trkpt>
      <trkpt lat="44.66778" lon="5.86227">
        <ele>1416</ele>
        <time>2023-09-28T10:51:27Z</time>
      </trkpt>
      <trkpt lat="44.66782" lon="5.86241">
        <ele>1415.1</ele>
        <time>2023-09-28T10:51:28Z</time>
      </trkpt>
      <trkpt lat="44.66788" lon="5.86254">
        <ele>1414.2</ele>
        <time>2023-09-28T10:51:29Z</time>
      </trkpt>
      <trkpt lat="44.66793" lon="5.86267">
        <ele>1413.3</ele>
        <time>2023-09-28T10:51:30Z</time>
      </trkpt>
      <trkpt lat="44.66798" lon="5.86281">
        <ele>1412.4</ele>
        <time>2023-09-28T10:51:31Z</time>
      </trkpt>
      <trkpt lat="44.66803" lon="5.86295">
        <ele>1411.5</ele>
        <time>2023-09-28T10:51:32Z</time>
      </trkpt>
      <trkpt lat="44.66809" lon="5.86309">
        <ele>1410.5</ele>
        <time>2023-09-28T10:51:33Z</time>
      </trkpt>
      <trkpt lat="44.66814" lon="5.86324">
        <ele>1409.6</ele>
        <time>2023-09-28T10:51:34Z</time>
      </trkpt>
      <trkpt lat="44.6682" lon="5.86338">
        <ele>1408.5</ele>
        <time>2023-09-28T10:51:35Z</time>
      </trkpt>
      <trkpt lat="44.66826" lon="5.86352">
        <ele>1407.4</ele>
        <time>2023-09-28T10:51:36Z</time>
      </trkpt>
      <trkpt lat="44.66833" lon="5.86364">
        <ele>1406.4</ele>
        <time>2023-09-28T10:51:37Z</time>
      </trkpt>
      <trkpt lat="44.66842" lon="5.86376">
        <ele>1405.3</ele>
        <time>2023-09-28T10:51:38Z</time>
      </trkpt>
      <trkpt lat="44.66851" lon="5.86387">
        <ele>1404.2</ele>
        <time>2023-09-28T10:51:39Z</time>
      </trkpt>
      <trkpt lat="44.66862" lon="5.86396">
        <ele>1403.1</ele>
        <time>2023-09-28T10:51:40Z</time>
      </trkpt>
      <trkpt lat="44.66874" lon="5.86404">
        <ele>1402</ele>
        <time>2023-09-28T10:51:41Z</time>
      </trkpt>
      <trkpt lat="44.66885" lon="5.86411">
        <ele>1401</ele>
        <time>2023-09-28T10:51:42Z</time>
      </trkpt>
      <trkpt lat="44.66898" lon="5.86416">
        <ele>1400</ele>
        <time>2023-09-28T10:51:43Z</time>
      </trkpt>
      <trkpt lat="44.66911" lon="5.86419">
        <ele>1399.1</ele>
        <time>2023-09-28T10:51:44Z</time>
      </trkpt>
      <trkpt lat="44.66924" lon="5.86421">
        <ele>1398.3</ele>
        <time>2023-09-28T10:51:45Z</time>
      </trkpt>
      <trkpt lat="44.66936" lon="5.86422">
        <ele>1397.4</ele>
        <time>2023-09-28T10:51:46Z</time>
      </trkpt>
      <trkpt lat="44.66949" lon="5.86423">
        <ele>1396.7</ele>
        <time>2023-09-28T10:51:47Z</time>
      </trkpt>
      <trkpt lat="44.66961" lon="5.86427">
        <ele>1395.9</ele>
        <time>2023-09-28T10:51:48Z</time>
      </trkpt>
      <trkpt lat="44.66973" lon="5.86434">
        <ele>1395.1</ele>
        <time>2023-09-28T10:51:49Z</time>
      </trkpt>
      <trkpt lat="44.66985" lon="5.86442">
        <ele>1394.3</ele>
        <time>2023-09-28T10:51:50Z</time>
      </trkpt>
      <trkpt lat="44.66995" lon="5.86453">
        <ele>1393.4</ele>
        <time>2023-09-28T10:51:51Z</time>
      </trkpt>
      <trkpt lat="44.67005" lon="5.86465">
        <ele>1392.5</ele>
        <time>2023-09-28T10:51:52Z</time>
      </trkpt>
      <trkpt lat="44.67014" lon="5.86479">
        <ele>1391.5</ele>
        <time>2023-09-28T10:51:53Z</time>
      </trkpt>
      <trkpt lat="44.67022" lon="5.86494">
        <ele>1390.6</ele>
        <time>2023-09-28T10:51:54Z</time>
      </trkpt>
      <trkpt lat="44.67031" lon="5.86507">
        <ele>1389.7</ele>
        <time>2023-09-28T10:51:55Z</time>
      </trkpt>
      <trkpt lat="44.67042" lon="5.86517">
        <ele>1388.7</ele>
        <time>2023-09-28T10:51:56Z</time>
      </trkpt>
      <trkpt lat="44.67054" lon="5.86524">
        <ele>1387.8</ele>
        <time>2023-09-28T10:51:57Z</time>
      </trkpt>
      <trkpt lat="44.67065" lon="5.8653">
        <ele>1386.8</ele>
        <time>2023-09-28T10:51:58Z</time>
      </trkpt>
      <trkpt lat="44.67077" lon="5.86533">
        <ele>1385.8</ele>
        <time>2023-09-28T10:51:59Z</time>
      </trkpt>
      <trkpt lat="44.67088" lon="5.86538">
        <ele>1384.8</ele>
        <time>2023-09-28T10:52:00Z</time>
      </trkpt>
      <trkpt lat="44.67098" lon="5.86545">
        <ele>1383.8</ele>
        <time>2023-09-28T10:52:01Z</time>
      </trkpt>
      <trkpt lat="44.67107" lon="5.86555">
        <ele>1382.8</ele>
        <time>2023-09-28T10:52:02Z</time>
      </trkpt>
      <trkpt lat="44.67116" lon="5.86566">
        <ele>1381.9</ele>
        <time>2023-09-28T10:52:03Z</time>
      </trkpt>
      <trkpt lat="44.67123" lon="5.86579">
        <ele>1381</ele>
        <time>2023-09-28T10:52:04Z</time>
      </trkpt>
      <trkpt lat="44.67128" lon="5.86595">
        <ele>1380</ele>
        <time>2023-09-28T10:52:05Z</time>
      </trkpt>
      <trkpt lat="44.67132" lon="5.86611">
        <ele>1379.1</ele>
        <time>2023-09-28T10:52:06Z</time>
      </trkpt>
      <trkpt lat="44.67138" lon="5.86625">
        <ele>1378.1</ele>
        <time>2023-09-28T10:52:07Z</time>
      </trkpt>
      <trkpt lat="44.67146" lon="5.86638">
        <ele>1377.2</ele>
        <time>2023-09-28T10:52:08Z</time>
      </trkpt>
      <trkpt lat="44.67156" lon="5.86648">
        <ele>1376.2</ele>
        <time>2023-09-28T10:52:09Z</time>
      </trkpt>
      <trkpt lat="44.67167" lon="5.86656">
        <ele>1375.3</ele>
        <time>2023-09-28T10:52:10Z</time>
      </trkpt>
      <trkpt lat="44.67178" lon="5.86663">
        <ele>1374.4</ele>
        <time>2023-09-28T10:52:11Z</time>
      </trkpt>
      <trkpt lat="44.6719" lon="5.8667">
        <ele>1373.5</ele>
        <time>2023-09-28T10:52:12Z</time>
      </trkpt>
      <trkpt lat="44.67202" lon="5.86676">
        <ele>1372.7</ele>
        <time>2023-09-28T10:52:13Z</time>
      </trkpt>
      <trkpt lat="44.67213" lon="5.86682">
        <ele>1371.9</ele>
        <time>2023-09-28T10:52:14Z</time>
      </trkpt>
      <trkpt lat="44.67225" lon="5.86688">
        <ele>1371</ele>
        <time>2023-09-28T10:52:15Z</time>
      </trkpt>
      <trkpt lat="44.67237" lon="5.86694">
        <ele>1370.2</ele>
        <time>2023-09-28T10:52:16Z</time>
      </trkpt>
      <trkpt lat="44.67249" lon="5.86699">
        <ele>1369.3</ele>
        <time>2023-09-28T10:52:17Z</time>
      </trkpt>
      <trkpt lat="44.67261" lon="5.86702">
        <ele>1368.6</ele>
        <time>2023-09-28T10:52:18Z</time>
      </trkpt>
      <trkpt lat="44.67273" lon="5.86704">
        <ele>1367.8</ele>
        <time>2023-09-28T10:52:19Z</time>
      </trkpt>
      <trkpt lat="44.67286" lon="5.86706">
        <ele>1367</ele>
        <time>2023-09-28T10:52:20Z</time>
      </trkpt>
      <trkpt lat="44.67298" lon="5.86707">
        <ele>1366.2</ele>
        <time>2023-09-28T10:52:21Z</time>
      </trkpt>
      <trkpt lat="44.67311" lon="5.86709">
        <ele>1365.3</ele>
        <time>2023-09-28T10:52:22Z</time>
      </trkpt>
      <trkpt lat="44.67323" lon="5.86712">
        <ele>1364.4</ele>
        <time>2023-09-28T10:52:23Z</time>
      </trkpt>
      <trkpt lat="44.67335" lon="5.86716">
        <ele>1363.6</ele>
        <time>2023-09-28T10:52:24Z</time>
      </trkpt>
      <trkpt lat="44.67348" lon="5.86721">
        <ele>1362.8</ele>
        <time>2023-09-28T10:52:25Z</time>
      </trkpt>
      <trkpt lat="44.6736" lon="5.86727">
        <ele>1362</ele>
        <time>2023-09-28T10:52:26Z</time>
      </trkpt>
      <trkpt lat="44.67371" lon="5.86733">
        <ele>1361.2</ele>
        <time>2023-09-28T10:52:27Z</time>
      </trkpt>
      <trkpt lat="44.67383" lon="5.86739">
        <ele>1360.4</ele>
        <time>2023-09-28T10:52:28Z</time>
      </trkpt>
      <trkpt lat="44.67395" lon="5.86745">
        <ele>1359.6</ele>
        <time>2023-09-28T10:52:29Z</time>
      </trkpt>
      <trkpt lat="44.67407" lon="5.8675">
        <ele>1358.9</ele>
        <time>2023-09-28T10:52:30Z</time>
      </trkpt>
      <trkpt lat="44.67419" lon="5.86754">
        <ele>1358.2</ele>
        <time>2023-09-28T10:52:31Z</time>
      </trkpt>
      <trkpt lat="44.67431" lon="5.86757">
        <ele>1357.5</ele>
        <time>2023-09-28T10:52:32Z</time>
      </trkpt>
      <trkpt lat="44.67444" lon="5.8676">
        <ele>1356.7</ele>
        <time>2023-09-28T10:52:33Z</time>
      </trkpt>
      <trkpt lat="44.67456" lon="5.86762">
        <ele>1355.9</ele>
        <time>2023-09-28T10:52:34Z</time>
      </trkpt>
      <trkpt lat="44.67468" lon="5.86762">
        <ele>1355.2</ele>
        <time>2023-09-28T10:52:35Z</time>
      </trkpt>
      <trkpt lat="44.6748" lon="5.86762">
        <ele>1354.4</ele>
        <time>2023-09-28T10:52:36Z</time>
      </trkpt>
      <trkpt lat="44.67492" lon="5.86762">
        <ele>1353.8</ele>
        <time>2023-09-28T10:52:37Z</time>
      </trkpt>
      <trkpt lat="44.67504" lon="5.86761">
        <ele>1353.1</ele>
        <time>2023-09-28T10:52:38Z</time>
      </trkpt>
      <trkpt lat="44.67516" lon="5.8676">
        <ele>1352.4</ele>
        <time>2023-09-28T10:52:39Z</time>
      </trkpt>
      <trkpt lat="44.67528" lon="5.86757">
        <ele>1351.7</ele>
        <time>2023-09-28T10:52:40Z</time>
      </trkpt>
      <trkpt lat="44.6754" lon="5.86754">
        <ele>1351</ele>
        <time>2023-09-28T10:52:41Z</time>
      </trkpt>
      <trkpt lat="44.67552" lon="5.86749">
        <ele>1350.3</ele>
        <time>2023-09-28T10:52:42Z</time>
      </trkpt>
      <trkpt lat="44.67564" lon="5.86744">
        <ele>1349.7</ele>
        <time>2023-09-28T10:52:43Z</time>
      </trkpt>
      <trkpt lat="44.67575" lon="5.86738">
        <ele>1349</ele>
        <time>2023-09-28T10:52:44Z</time>
      </trkpt>
      <trkpt lat="44.67586" lon="5.86733">
        <ele>1348.3</ele>
        <time>2023-09-28T10:52:45Z</time>
      </trkpt>
      <trkpt lat="44.67597" lon="5.86728">
        <ele>1347.6</ele>
        <time>2023-09-28T10:52:46Z</time>
      </trkpt>
      <trkpt lat="44.67608" lon="5.86724">
        <ele>1346.9</ele>
        <time>2023-09-28T10:52:47Z</time>
      </trkpt>
      <trkpt lat="44.67618" lon="5.86722">
        <ele>1346.2</ele>
        <time>2023-09-28T10:52:48Z</time>
      </trkpt>
      <trkpt lat="44.67629" lon="5.86725">
        <ele>1345.4</ele>
        <time>2023-09-28T10:52:49Z</time>
      </trkpt>
      <trkpt lat="44.67639" lon="5.86733">
        <ele>1344.6</ele>
        <time>2023-09-28T10:52:50Z</time>
      </trkpt>
      <trkpt lat="44.67648" lon="5.86744">
        <ele>1343.7</ele>
        <time>2023-09-28T10:52:51Z</time>
      </trkpt>
      <trkpt lat="44.67655" lon="5.86757">
        <ele>1342.8</ele>
        <time>2023-09-28T10:52:52Z</time>
      </trkpt>
      <trkpt lat="44.67661" lon="5.8677">
        <ele>1342</ele>
        <time>2023-09-28T10:52:53Z</time>
      </trkpt>
      <trkpt lat="44.67667" lon="5.86784">
        <ele>1341.2</ele>
        <time>2023-09-28T10:52:54Z</time>
      </trkpt>
      <trkpt lat="44.67672" lon="5.86798">
        <ele>1340.4</ele>
        <time>2023-09-28T10:52:55Z</time>
      </trkpt>
      <trkpt lat="44.67678" lon="5.86811">
        <ele>1339.6</ele>
        <time>2023-09-28T10:52:56Z</time>
      </trkpt>
      <trkpt lat="44.67684" lon="5.86825">
        <ele>1338.7</ele>
        <time>2023-09-28T10:52:57Z</time>
      </trkpt>
      <trkpt lat="44.6769" lon="5.86839">
        <ele>1337.8</ele>
        <time>2023-09-28T10:52:58Z</time>
      </trkpt>
      <trkpt lat="44.67696" lon="5.86852">
        <ele>1336.9</ele>
        <time>2023-09-28T10:52:59Z</time>
      </trkpt>
      <trkpt lat="44.67702" lon="5.86867">
        <ele>1336.1</ele>
        <time>2023-09-28T10:53:00Z</time>
      </trkpt>
      <trkpt lat="44.67708" lon="5.8688">
        <ele>1335.3</ele>
        <time>2023-09-28T10:53:01Z</time>
      </trkpt>
      <trkpt lat="44.67715" lon="5.86894">
        <ele>1334.5</ele>
        <time>2023-09-28T10:53:02Z</time>
      </trkpt>
      <trkpt lat="44.67721" lon="5.86908">
        <ele>1333.7</ele>
        <time>2023-09-28T10:53:03Z</time>
      </trkpt>
      <trkpt lat="44.67729" lon="5.86921">
        <ele>1332.9</ele>
        <time>2023-09-28T10:53:04Z</time>
      </trkpt>
      <trkpt lat="44.67737" lon="5.86933">
        <ele>1332.1</ele>
        <time>2023-09-28T10:53:05Z</time>
      </trkpt>
      <trkpt lat="44.67745" lon="5.86944">
        <ele>1331.3</ele>
        <time>2023-09-28T10:53:06Z</time>
      </trkpt>
      <trkpt lat="44.67754" lon="5.86955">
        <ele>1330.5</ele>
        <time>2023-09-28T10:53:07Z</time>
      </trkpt>
      <trkpt lat="44.67764" lon="5.86965">
        <ele>1329.6</ele>
        <time>2023-09-28T10:53:08Z</time>
      </trkpt>
      <trkpt lat="44.67773" lon="5.86975">
        <ele>1328.7</ele>
        <time>2023-09-28T10:53:09Z</time>
      </trkpt>
      <trkpt lat="44.67783" lon="5.86984">
        <ele>1327.9</ele>
        <time>2023-09-28T10:53:10Z</time>
      </trkpt>
      <trkpt lat="44.67793" lon="5.86993">
        <ele>1327.2</ele>
        <time>2023-09-28T10:53:11Z</time>
      </trkpt>
      <trkpt lat="44.67803" lon="5.87002">
        <ele>1326.5</ele>
        <time>2023-09-28T10:53:12Z</time>
      </trkpt>
      <trkpt lat="44.67814" lon="5.8701">
        <ele>1325.8</ele>
        <time>2023-09-28T10:53:13Z</time>
      </trkpt>
      <trkpt lat="44.67824" lon="5.87018">
        <ele>1325.5</ele>
        <time>2023-09-28T10:53:14Z</time>
      </trkpt>
      <trkpt lat="44.67834" lon="5.87026">
        <ele>1325.4</ele>
        <time>2023-09-28T10:53:15Z</time>
      </trkpt>
      <trkpt lat="44.67842" lon="5.87033">
        <ele>1325.3</ele>
        <time>2023-09-28T10:53:16Z</time>
      </trkpt>
      <trkpt lat="44.67851" lon="5.8704">
        <ele>1325.2</ele>
        <time>2023-09-28T10:53:17Z</time>
      </trkpt>
      <trkpt lat="44.67859" lon="5.87048">
        <ele>1325.2</ele>
        <time>2023-09-28T10:53:18Z</time>
      </trkpt>
      <trkpt lat="44.67865" lon="5.87056">
        <ele>1325.3</ele>
        <time>2023-09-28T10:53:19Z</time>
      </trkpt>
      <trkpt lat="44.67871" lon="5.87064">
        <ele>1325.3</ele>
        <time>2023-09-28T10:53:20Z</time>
      </trkpt>
      <trkpt lat="44.67876" lon="5.87069">
        <ele>1325.4</ele>
        <time>2023-09-28T10:53:21Z</time>
      </trkpt>
      <trkpt lat="44.67881" lon="5.87073">
        <ele>1325.5</ele>
        <time>2023-09-28T10:53:22Z</time>
      </trkpt>
      <trkpt lat="44.67885" lon="5.87073">
        <ele>1325.4</ele>
        <time>2023-09-28T10:53:23Z</time>
      </trkpt>
      <trkpt lat="44.67889" lon="5.8707">
        <ele>1325.2</ele>
        <time>2023-09-28T10:53:24Z</time>
      </trkpt>
      <trkpt lat="44.67889" lon="5.87066">
        <ele>1325.1</ele>
        <time>2023-09-28T10:53:25Z</time>
      </trkpt>
      <trkpt lat="44.6789" lon="5.87064">
        <ele>1325.1</ele>
        <time>2023-09-28T10:53:26Z</time>
      </trkpt>
      <trkpt lat="44.6789" lon="5.87063">
        <ele>1325</ele>
        <time>2023-09-28T10:53:27Z</time>
      </trkpt>
      <trkpt lat="44.6789" lon="5.87063">
        <ele>1325</ele>
        <time>2023-09-28T10:53:28Z</time>
      </trkpt>
      <trkpt lat="44.6789" lon="5.87063">
        <ele>1325</ele>
        <time>2023-09-28T10:53:29Z</time>
      </trkpt>
      <trkpt lat="44.6789" lon="5.87063">
        <ele>1325</ele>
        <time>2023-09-28T10:53:30Z</time>
      </trkpt>
      <trkpt lat="44.67891" lon="5.87063">
        <ele>1325</ele>
        <time>2023-09-28T10:53:31Z</time>
      </trkpt>
      <trkpt lat="44.67891" lon="5.87063">
        <ele>1325</ele>
        <time>2023-09-28T10:53:33Z</time>
      </trkpt>
      <trkpt lat="44.67891" lon="5.87063">
        <ele>1325</ele>
        <time>2023-09-28T10:53:34Z</time>
      </trkpt>
      <trkpt lat="44.67891" lon="5.87063">
        <ele>1325</ele>
        <time>2023-09-28T10:53:36Z</time>
      </trkpt>
      <trkpt lat="44.67891" lon="5.87063">
        <ele>1325</ele>
        <time>2023-09-28T10:53:37Z</time>
      </trkpt>
      <trkpt lat="44.67891" lon="5.87063">
        <ele>1325</ele>
        <time>2023-09-28T10:53:38Z</time>
      </trkpt>
      <trkpt lat="44.67891" lon="5.87063">
        <ele>1325</ele>
        <time>2023-09-28T10:53:39Z</time>
      </trkpt>
      <trkpt lat="44.67891" lon="5.87063">
        <ele>1325</ele>
        <time>2023-09-28T10:53:41Z</time>
      </trkpt>
      <trkpt lat="44.67891" lon="5.87059">
        <ele>1324.9</ele>
        <time>2023-09-28T10:54:08Z</time>
      </trkpt>
      <trkpt lat="44.67891" lon="5.87057">
        <ele>1324.8</ele>
        <time>2023-09-28T10:54:09Z</time>
      </trkpt>
      <trkpt lat="44.67892" lon="5.87055">
        <ele>1324.7</ele>
        <time>2023-09-28T10:54:10Z</time>
      </trkpt>
      <trkpt lat="44.67893" lon="5.87051">
        <ele>1324.6</ele>
        <time>2023-09-28T10:54:11Z</time>
      </trkpt>
      <trkpt lat="44.67894" lon="5.87049">
        <ele>1324.6</ele>
        <time>2023-09-28T10:54:12Z</time>
      </trkpt>
      <trkpt lat="44.67895" lon="5.87045">
        <ele>1324.4</ele>
        <time>2023-09-28T10:54:13Z</time>
      </trkpt>
      <trkpt lat="44.67895" lon="5.87044">
        <ele>1324.4</ele>
        <time>2023-09-28T10:54:14Z</time>
      </trkpt>
      <trkpt lat="44.67899" lon="5.87039">
        <ele>1324.1</ele>
        <time>2023-09-28T10:54:16Z</time>
      </trkpt>
      <trkpt lat="44.67903" lon="5.87035">
        <ele>1324</ele>
        <time>2023-09-28T10:54:17Z</time>
      </trkpt>
      <trkpt lat="44.67909" lon="5.87034">
        <ele>1323.6</ele>
        <time>2023-09-28T10:54:18Z</time>
      </trkpt>
      <trkpt lat="44.67916" lon="5.87036">
        <ele>1323</ele>
        <time>2023-09-28T10:54:19Z</time>
      </trkpt>
      <trkpt lat="44.67921" lon="5.87041">
        <ele>1322.5</ele>
        <time>2023-09-28T10:54:20Z</time>
      </trkpt>
      <trkpt lat="44.67925" lon="5.87047">
        <ele>1322</ele>
        <time>2023-09-28T10:54:21Z</time>
      </trkpt>
      <trkpt lat="44.67929" lon="5.87053">
        <ele>1321.5</ele>
        <time>2023-09-28T10:54:22Z</time>
      </trkpt>
      <trkpt lat="44.67933" lon="5.8706">
        <ele>1321</ele>
        <time>2023-09-28T10:54:23Z</time>
      </trkpt>
      <trkpt lat="44.67938" lon="5.87068">
        <ele>1320.4</ele>
        <time>2023-09-28T10:54:24Z</time>
      </trkpt>
      <trkpt lat="44.67942" lon="5.87075">
        <ele>1319.9</ele>
        <time>2023-09-28T10:54:25Z</time>
      </trkpt>
      <trkpt lat="44.67947" lon="5.87083">
        <ele>1319.3</ele>
        <time>2023-09-28T10:54:26Z</time>
      </trkpt>
      <trkpt lat="44.67953" lon="5.87091">
        <ele>1318.6</ele>
        <time>2023-09-28T10:54:27Z</time>
      </trkpt>
      <trkpt lat="44.67959" lon="5.87099">
        <ele>1318</ele>
        <time>2023-09-28T10:54:28Z</time>
      </trkpt>
      <trkpt lat="44.67966" lon="5.87106">
        <ele>1317.3</ele>
        <time>2023-09-28T10:54:29Z</time>
      </trkpt>
      <trkpt lat="44.67973" lon="5.87113">
        <ele>1316.6</ele>
        <time>2023-09-28T10:54:30Z</time>
      </trkpt>
      <trkpt lat="44.67981" lon="5.8712">
        <ele>1315.9</ele>
        <time>2023-09-28T10:54:31Z</time>
      </trkpt>
      <trkpt lat="44.67989" lon="5.87126">
        <ele>1315.3</ele>
        <time>2023-09-28T10:54:32Z</time>
      </trkpt>
      <trkpt lat="44.67997" lon="5.87132">
        <ele>1314.7</ele>
        <time>2023-09-28T10:54:33Z</time>
      </trkpt>
      <trkpt lat="44.68005" lon="5.87138">
        <ele>1314.1</ele>
        <time>2023-09-28T10:54:34Z</time>
      </trkpt>
      <trkpt lat="44.68013" lon="5.87145">
        <ele>1313.4</ele>
        <time>2023-09-28T10:54:35Z</time>
      </trkpt>
      <trkpt lat="44.68021" lon="5.87152">
        <ele>1312.8</ele>
        <time>2023-09-28T10:54:36Z</time>
      </trkpt>
      <trkpt lat="44.6803" lon="5.87158">
        <ele>1312.1</ele>
        <time>2023-09-28T10:54:37Z</time>
      </trkpt>
      <trkpt lat="44.68038" lon="5.87166">
        <ele>1311.4</ele>
        <time>2023-09-28T10:54:38Z</time>
      </trkpt>
      <trkpt lat="44.68047" lon="5.87173">
        <ele>1310.6</ele>
        <time>2023-09-28T10:54:39Z</time>
      </trkpt>
      <trkpt lat="44.68055" lon="5.87179">
        <ele>1309.9</ele>
        <time>2023-09-28T10:54:40Z</time>
      </trkpt>
      <trkpt lat="44.68064" lon="5.87187">
        <ele>1309.1</ele>
        <time>2023-09-28T10:54:41Z</time>
      </trkpt>
      <trkpt lat="44.68073" lon="5.87194">
        <ele>1308.3</ele>
        <time>2023-09-28T10:54:42Z</time>
      </trkpt>
      <trkpt lat="44.68082" lon="5.87201">
        <ele>1307.5</ele>
        <time>2023-09-28T10:54:43Z</time>
      </trkpt>
      <trkpt lat="44.68091" lon="5.87208">
        <ele>1306.8</ele>
        <time>2023-09-28T10:54:44Z</time>
      </trkpt>
      <trkpt lat="44.681" lon="5.87216">
        <ele>1306.1</ele>
        <time>2023-09-28T10:54:45Z</time>
      </trkpt>
      <trkpt lat="44.6811" lon="5.87223">
        <ele>1305.4</ele>
        <time>2023-09-28T10:54:46Z</time>
      </trkpt>
      <trkpt lat="44.68119" lon="5.8723">
        <ele>1304.7</ele>
        <time>2023-09-28T10:54:47Z</time>
      </trkpt>
      <trkpt lat="44.68128" lon="5.87237">
        <ele>1304.1</ele>
        <time>2023-09-28T10:54:48Z</time>
      </trkpt>
      <trkpt lat="44.68138" lon="5.87245">
        <ele>1303.5</ele>
        <time>2023-09-28T10:54:49Z</time>
      </trkpt>
      <trkpt lat="44.68147" lon="5.87251">
        <ele>1302.9</ele>
        <time>2023-09-28T10:54:50Z</time>
      </trkpt>
      <trkpt lat="44.68157" lon="5.87257">
        <ele>1302.3</ele>
        <time>2023-09-28T10:54:51Z</time>
      </trkpt>
      <trkpt lat="44.68167" lon="5.87263">
        <ele>1301.8</ele>
        <time>2023-09-28T10:54:52Z</time>
      </trkpt>
      <trkpt lat="44.68176" lon="5.87269">
        <ele>1301.2</ele>
        <time>2023-09-28T10:54:53Z</time>
      </trkpt>
      <trkpt lat="44.68185" lon="5.87275">
        <ele>1300.7</ele>
        <time>2023-09-28T10:54:54Z</time>
      </trkpt>
      <trkpt lat="44.68193" lon="5.8728">
        <ele>1300.3</ele>
        <time>2023-09-28T10:54:55Z</time>
      </trkpt>
      <trkpt lat="44.68201" lon="5.87285">
        <ele>1300</ele>
        <time>2023-09-28T10:54:56Z</time>
      </trkpt>
      <trkpt lat="44.68209" lon="5.8729">
        <ele>1299.7</ele>
        <time>2023-09-28T10:54:57Z</time>
      </trkpt>
      <trkpt lat="44.68216" lon="5.87296">
        <ele>1299.4</ele>
        <time>2023-09-28T10:54:58Z</time>
      </trkpt>
      <trkpt lat="44.68223" lon="5.87303">
        <ele>1299.2</ele>
        <time>2023-09-28T10:54:59Z</time>
      </trkpt>
      <trkpt lat="44.6823" lon="5.8731">
        <ele>1299</ele>
        <time>2023-09-28T10:55:00Z</time>
      </trkpt>
      <trkpt lat="44.68236" lon="5.87318">
        <ele>1298.8</ele>
        <time>2023-09-28T10:55:01Z</time>
      </trkpt>
      <trkpt lat="44.68242" lon="5.87326">
        <ele>1298.7</ele>
        <time>2023-09-28T10:55:02Z</time>
      </trkpt>
      <trkpt lat="44.68247" lon="5.87335">
        <ele>1298.5</ele>
        <time>2023-09-28T10:55:03Z</time>
      </trkpt>
      <trkpt lat="44.68252" lon="5.87343">
        <ele>1298.4</ele>
        <time>2023-09-28T10:55:04Z</time>
      </trkpt>
      <trkpt lat="44.68256" lon="5.87351">
        <ele>1298.2</ele>
        <time>2023-09-28T10:55:05Z</time>
      </trkpt>
      <trkpt lat="44.68261" lon="5.87359">
        <ele>1298.1</ele>
        <time>2023-09-28T10:55:06Z</time>
      </trkpt>
      <trkpt lat="44.68265" lon="5.87367">
        <ele>1297.8</ele>
        <time>2023-09-28T10:55:07Z</time>
      </trkpt>
      <trkpt lat="44.6827" lon="5.87374">
        <ele>1297.6</ele>
        <time>2023-09-28T10:55:08Z</time>
      </trkpt>
      <trkpt lat="44.68276" lon="5.87379">
        <ele>1297.4</ele>
        <time>2023-09-28T10:55:09Z</time>
      </trkpt>
      <trkpt lat="44.68283" lon="5.87383">
        <ele>1297.2</ele>
        <time>2023-09-28T10:55:10Z</time>
      </trkpt>
      <trkpt lat="44.68289" lon="5.87385">
        <ele>1297</ele>
        <time>2023-09-28T10:55:11Z</time>
      </trkpt>
      <trkpt lat="44.68294" lon="5.87387">
        <ele>1296.8</ele>
        <time>2023-09-28T10:55:12Z</time>
      </trkpt>
      <trkpt lat="44.68298" lon="5.87388">
        <ele>1296.6</ele>
        <time>2023-09-28T10:55:13Z</time>
      </trkpt>
      <trkpt lat="44.68301" lon="5.87389">
        <ele>1296.5</ele>
        <time>2023-09-28T10:55:14Z</time>
      </trkpt>
      <trkpt lat="44.68304" lon="5.87389">
        <ele>1296.4</ele>
        <time>2023-09-28T10:55:15Z</time>
      </trkpt>
      <trkpt lat="44.68307" lon="5.8739">
        <ele>1296.2</ele>
        <time>2023-09-28T10:55:16Z</time>
      </trkpt>
      <trkpt lat="44.6831" lon="5.87391">
        <ele>1296.1</ele>
        <time>2023-09-28T10:55:17Z</time>
      </trkpt>
      <trkpt lat="44.68313" lon="5.87392">
        <ele>1295.9</ele>
        <time>2023-09-28T10:55:18Z</time>
      </trkpt>
      <trkpt lat="44.68317" lon="5.87393">
        <ele>1295.7</ele>
        <time>2023-09-28T10:55:19Z</time>
      </trkpt>
      <trkpt lat="44.6832" lon="5.87393">
        <ele>1295.5</ele>
        <time>2023-09-28T10:55:20Z</time>
      </trkpt>
      <trkpt lat="44.68327" lon="5.87396">
        <ele>1295.1</ele>
        <time>2023-09-28T10:55:22Z</time>
      </trkpt>
      <trkpt lat="44.68332" lon="5.87398">
        <ele>1294.8</ele>
        <time>2023-09-28T10:55:23Z</time>
      </trkpt>
      <trkpt lat="44.68337" lon="5.87401">
        <ele>1294.4</ele>
        <time>2023-09-28T10:55:24Z</time>
      </trkpt>
      <trkpt lat="44.68343" lon="5.87406">
        <ele>1294</ele>
        <time>2023-09-28T10:55:26Z</time>
      </trkpt>
      <trkpt lat="44.68346" lon="5.87407">
        <ele>1293.8</ele>
        <time>2023-09-28T10:55:28Z</time>
      </trkpt>
      <trkpt lat="44.68349" lon="5.87409">
        <ele>1293.6</ele>
        <time>2023-09-28T10:55:29Z</time>
      </trkpt>
      <trkpt lat="44.6835" lon="5.8741">
        <ele>1293.5</ele>
        <time>2023-09-28T10:55:30Z</time>
      </trkpt>
      <trkpt lat="44.68354" lon="5.87413">
        <ele>1293.3</ele>
        <time>2023-09-28T10:55:31Z</time>
      </trkpt>
      <trkpt lat="44.68356" lon="5.87414">
        <ele>1293.2</ele>
        <time>2023-09-28T10:55:32Z</time>
      </trkpt>
      <trkpt lat="44.68359" lon="5.87418">
        <ele>1293</ele>
        <time>2023-09-28T10:55:33Z</time>
      </trkpt>
      <trkpt lat="44.68362" lon="5.87422">
        <ele>1292.8</ele>
        <time>2023-09-28T10:55:34Z</time>
      </trkpt>
      <trkpt lat="44.68367" lon="5.87426">
        <ele>1292.5</ele>
        <time>2023-09-28T10:55:35Z</time>
      </trkpt>
      <trkpt lat="44.68375" lon="5.87431">
        <ele>1292.2</ele>
        <time>2023-09-28T10:55:37Z</time>
      </trkpt>
      <trkpt lat="44.68379" lon="5.87434">
        <ele>1292</ele>
        <time>2023-09-28T10:55:38Z</time>
      </trkpt>
      <trkpt lat="44.68383" lon="5.87438">
        <ele>1291.8</ele>
        <time>2023-09-28T10:55:39Z</time>
      </trkpt>
      <trkpt lat="44.68388" lon="5.87441">
        <ele>1291.6</ele>
        <time>2023-09-28T10:55:40Z</time>
      </trkpt>
      <trkpt lat="44.68393" lon="5.87443">
        <ele>1291.3</ele>
        <time>2023-09-28T10:55:41Z</time>
      </trkpt>
      <trkpt lat="44.68398" lon="5.87445">
        <ele>1291.1</ele>
        <time>2023-09-28T10:55:42Z</time>
      </trkpt>
      <trkpt lat="44.68403" lon="5.87447">
        <ele>1290.8</ele>
        <time>2023-09-28T10:55:43Z</time>
      </trkpt>
      <trkpt lat="44.68408" lon="5.87449">
        <ele>1290.6</ele>
        <time>2023-09-28T10:55:44Z</time>
      </trkpt>
      <trkpt lat="44.68413" lon="5.87451">
        <ele>1290.4</ele>
        <time>2023-09-28T10:55:45Z</time>
      </trkpt>
      <trkpt lat="44.68418" lon="5.87453">
        <ele>1290.1</ele>
        <time>2023-09-28T10:55:46Z</time>
      </trkpt>
      <trkpt lat="44.68423" lon="5.87456">
        <ele>1289.9</ele>
        <time>2023-09-28T10:55:47Z</time>
      </trkpt>
      <trkpt lat="44.68429" lon="5.87458">
        <ele>1289.6</ele>
        <time>2023-09-28T10:55:48Z</time>
      </trkpt>
      <trkpt lat="44.68435" lon="5.87461">
        <ele>1289.3</ele>
        <time>2023-09-28T10:55:49Z</time>
      </trkpt>
      <trkpt lat="44.68441" lon="5.87464">
        <ele>1289.1</ele>
        <time>2023-09-28T10:55:50Z</time>
      </trkpt>
      <trkpt lat="44.68447" lon="5.87468">
        <ele>1288.8</ele>
        <time>2023-09-28T10:55:51Z</time>
      </trkpt>
      <trkpt lat="44.68453" lon="5.87471">
        <ele>1288.6</ele>
        <time>2023-09-28T10:55:52Z</time>
      </trkpt>
      <trkpt lat="44.68459" lon="5.87473">
        <ele>1288.4</ele>
        <time>2023-09-28T10:55:53Z</time>
      </trkpt>
      <trkpt lat="44.68463" lon="5.87476">
        <ele>1288.2</ele>
        <time>2023-09-28T10:55:54Z</time>
      </trkpt>
      <trkpt lat="44.68467" lon="5.87478">
        <ele>1288</ele>
        <time>2023-09-28T10:55:55Z</time>
      </trkpt>
      <trkpt lat="44.6847" lon="5.87479">
        <ele>1287.9</ele>
        <time>2023-09-28T10:55:56Z</time>
      </trkpt>
      <trkpt lat="44.68473" lon="5.87481">
        <ele>1287.8</ele>
        <time>2023-09-28T10:55:57Z</time>
      </trkpt>
      <trkpt lat="44.68474" lon="5.87482">
        <ele>1287.8</ele>
        <time>2023-09-28T10:55:58Z</time>
      </trkpt>
      <trkpt lat="44.68474" lon="5.87481">
        <ele>1287.8</ele>
        <time>2023-09-28T10:55:59Z</time>
      </trkpt>
      <trkpt lat="44.68474" lon="5.87481">
        <ele>1287.8</ele>
        <time>2023-09-28T10:56:00Z</time>
      </trkpt>
      <trkpt lat="44.68474" lon="5.87482">
        <ele>1287.8</ele>
        <time>2023-09-28T10:56:01Z</time>
      </trkpt>
      <trkpt lat="44.68474" lon="5.87482">
        <ele>1287.8</ele>
        <time>2023-09-28T10:56:03Z</time>
      </trkpt>
      <trkpt lat="44.68474" lon="5.87481">
        <ele>1287.8</ele>
        <time>2023-09-28T10:56:04Z</time>
      </trkpt>
      <trkpt lat="44.68474" lon="5.87481">
        <ele>1287.8</ele>
        <time>2023-09-28T10:56:05Z</time>
      </trkpt>
      <trkpt lat="44.68474" lon="5.87481">
        <ele>1287.7</ele>
        <time>2023-09-28T10:56:06Z</time>
      </trkpt>
      <trkpt lat="44.68474" lon="5.87481">
        <ele>1287.7</ele>
        <time>2023-09-28T10:56:08Z</time>
      </trkpt>
      <trkpt lat="44.68474" lon="5.87481">
        <ele>1287.7</ele>
        <time>2023-09-28T10:56:09Z</time>
      </trkpt>
      <trkpt lat="44.68474" lon="5.87481">
        <ele>1287.7</ele>
        <time>2023-09-28T10:56:12Z</time>
      </trkpt>
      <trkpt lat="44.68477" lon="5.8748">
        <ele>1287.6</ele>
        <time>2023-09-28T10:56:46Z</time>
      </trkpt>
      <trkpt lat="44.68478" lon="5.8748">
        <ele>1287.6</ele>
        <time>2023-09-28T10:56:47Z</time>
      </trkpt>
      <trkpt lat="44.6848" lon="5.87481">
        <ele>1287.5</ele>
        <time>2023-09-28T10:56:48Z</time>
      </trkpt>
      <trkpt lat="44.68484" lon="5.87482">
        <ele>1287.4</ele>
        <time>2023-09-28T10:56:49Z</time>
      </trkpt>
      <trkpt lat="44.68485" lon="5.87482">
        <ele>1287.4</ele>
        <time>2023-09-28T10:56:50Z</time>
      </trkpt>
      <trkpt lat="44.68488" lon="5.87485">
        <ele>1287.3</ele>
        <time>2023-09-28T10:56:51Z</time>
      </trkpt>
      <trkpt lat="44.68492" lon="5.87487">
        <ele>1287.2</ele>
        <time>2023-09-28T10:56:52Z</time>
      </trkpt>
      <trkpt lat="44.68495" lon="5.87489">
        <ele>1287.1</ele>
        <time>2023-09-28T10:56:53Z</time>
      </trkpt>
      <trkpt lat="44.68502" lon="5.87491">
        <ele>1286.8</ele>
        <time>2023-09-28T10:56:55Z</time>
      </trkpt>
      <trkpt lat="44.68508" lon="5.87496">
        <ele>1286.6</ele>
        <time>2023-09-28T10:56:56Z</time>
      </trkpt>
      <trkpt lat="44.68513" lon="5.87498">
        <ele>1286.4</ele>
        <time>2023-09-28T10:56:57Z</time>
      </trkpt>
      <trkpt lat="44.68518" lon="5.87501">
        <ele>1286.3</ele>
        <time>2023-09-28T10:56:58Z</time>
      </trkpt>
      <trkpt lat="44.68523" lon="5.87504">
        <ele>1286.1</ele>
        <time>2023-09-28T10:56:59Z</time>
      </trkpt>
      <trkpt lat="44.68528" lon="5.87506">
        <ele>1285.9</ele>
        <time>2023-09-28T10:57:00Z</time>
      </trkpt>
      <trkpt lat="44.68533" lon="5.87509">
        <ele>1285.8</ele>
        <time>2023-09-28T10:57:01Z</time>
      </trkpt>
      <trkpt lat="44.68538" lon="5.87512">
        <ele>1285.6</ele>
        <time>2023-09-28T10:57:02Z</time>
      </trkpt>
      <trkpt lat="44.68544" lon="5.87515">
        <ele>1285.4</ele>
        <time>2023-09-28T10:57:03Z</time>
      </trkpt>
      <trkpt lat="44.6855" lon="5.87518">
        <ele>1285.2</ele>
        <time>2023-09-28T10:57:04Z</time>
      </trkpt>
      <trkpt lat="44.68556" lon="5.87522">
        <ele>1284.9</ele>
        <time>2023-09-28T10:57:05Z</time>
      </trkpt>
      <trkpt lat="44.68563" lon="5.87525">
        <ele>1284.7</ele>
        <time>2023-09-28T10:57:06Z</time>
      </trkpt>
      <trkpt lat="44.68569" lon="5.87529">
        <ele>1284.4</ele>
        <time>2023-09-28T10:57:07Z</time>
      </trkpt>
      <trkpt lat="44.68575" lon="5.87534">
        <ele>1284.2</ele>
        <time>2023-09-28T10:57:08Z</time>
      </trkpt>
      <trkpt lat="44.68581" lon="5.8754">
        <ele>1284</ele>
        <time>2023-09-28T10:57:09Z</time>
      </trkpt>
      <trkpt lat="44.68587" lon="5.87547">
        <ele>1283.7</ele>
        <time>2023-09-28T10:57:10Z</time>
      </trkpt>
      <trkpt lat="44.68592" lon="5.87554">
        <ele>1283.5</ele>
        <time>2023-09-28T10:57:11Z</time>
      </trkpt>
      <trkpt lat="44.68598" lon="5.87561">
        <ele>1283.3</ele>
        <time>2023-09-28T10:57:12Z</time>
      </trkpt>
      <trkpt lat="44.68604" lon="5.87568">
        <ele>1283.1</ele>
        <time>2023-09-28T10:57:13Z</time>
      </trkpt>
      <trkpt lat="44.6861" lon="5.87574">
        <ele>1282.9</ele>
        <time>2023-09-28T10:57:14Z</time>
      </trkpt>
      <trkpt lat="44.68616" lon="5.8758">
        <ele>1282.8</ele>
        <time>2023-09-28T10:57:15Z</time>
      </trkpt>
      <trkpt lat="44.68623" lon="5.87586">
        <ele>1282.7</ele>
        <time>2023-09-28T10:57:16Z</time>
      </trkpt>
      <trkpt lat="44.68629" lon="5.87591">
        <ele>1282.6</ele>
        <time>2023-09-28T10:57:17Z</time>
      </trkpt>
      <trkpt lat="44.68636" lon="5.87595">
        <ele>1282.5</ele>
        <time>2023-09-28T10:57:18Z</time>
      </trkpt>
      <trkpt lat="44.68643" lon="5.87599">
        <ele>1282.4</ele>
        <time>2023-09-28T10:57:19Z</time>
      </trkpt>
      <trkpt lat="44.6865" lon="5.87603">
        <ele>1282.4</ele>
        <time>2023-09-28T10:57:20Z</time>
      </trkpt>
      <trkpt lat="44.68656" lon="5.87608">
        <ele>1282.3</ele>
        <time>2023-09-28T10:57:21Z</time>
      </trkpt>
      <trkpt lat="44.68663" lon="5.87612">
        <ele>1282.2</ele>
        <time>2023-09-28T10:57:22Z</time>
      </trkpt>
      <trkpt lat="44.6867" lon="5.87615">
        <ele>1282.1</ele>
        <time>2023-09-28T10:57:23Z</time>
      </trkpt>
      <trkpt lat="44.68677" lon="5.87619">
        <ele>1282</ele>
        <time>2023-09-28T10:57:24Z</time>
      </trkpt>
      <trkpt lat="44.68683" lon="5.87622">
        <ele>1281.9</ele>
        <time>2023-09-28T10:57:25Z</time>
      </trkpt>
      <trkpt lat="44.6869" lon="5.87626">
        <ele>1281.8</ele>
        <time>2023-09-28T10:57:26Z</time>
      </trkpt>
      <trkpt lat="44.68698" lon="5.8763">
        <ele>1281.7</ele>
        <time>2023-09-28T10:57:27Z</time>
      </trkpt>
      <trkpt lat="44.68705" lon="5.87635">
        <ele>1281.7</ele>
        <time>2023-09-28T10:57:28Z</time>
      </trkpt>
      <trkpt lat="44.68712" lon="5.87639">
        <ele>1281.7</ele>
        <time>2023-09-28T10:57:29Z</time>
      </trkpt>
      <trkpt lat="44.68719" lon="5.87644">
        <ele>1281.7</ele>
        <time>2023-09-28T10:57:30Z</time>
      </trkpt>
      <trkpt lat="44.68725" lon="5.87649">
        <ele>1281.8</ele>
        <time>2023-09-28T10:57:31Z</time>
      </trkpt>
      <trkpt lat="44.68732" lon="5.87655">
        <ele>1281.8</ele>
        <time>2023-09-28T10:57:32Z</time>
      </trkpt>
      <trkpt lat="44.68738" lon="5.8766">
        <ele>1281.8</ele>
        <time>2023-09-28T10:57:33Z</time>
      </trkpt>
      <trkpt lat="44.68744" lon="5.87666">
        <ele>1281.9</ele>
        <time>2023-09-28T10:57:34Z</time>
      </trkpt>
      <trkpt lat="44.6875" lon="5.87671">
        <ele>1281.9</ele>
        <time>2023-09-28T10:57:35Z</time>
      </trkpt>
      <trkpt lat="44.68756" lon="5.87677">
        <ele>1281.9</ele>
        <time>2023-09-28T10:57:36Z</time>
      </trkpt>
      <trkpt lat="44.68762" lon="5.87683">
        <ele>1281.9</ele>
        <time>2023-09-28T10:57:37Z</time>
      </trkpt>
      <trkpt lat="44.68767" lon="5.87688">
        <ele>1281.9</ele>
        <time>2023-09-28T10:57:38Z</time>
      </trkpt>
      <trkpt lat="44.68773" lon="5.87693">
        <ele>1281.8</ele>
        <time>2023-09-28T10:57:39Z</time>
      </trkpt>
      <trkpt lat="44.68779" lon="5.87698">
        <ele>1281.6</ele>
        <time>2023-09-28T10:57:40Z</time>
      </trkpt>
      <trkpt lat="44.68784" lon="5.87703">
        <ele>1281.4</ele>
        <time>2023-09-28T10:57:41Z</time>
      </trkpt>
      <trkpt lat="44.6879" lon="5.87709">
        <ele>1281.1</ele>
        <time>2023-09-28T10:57:42Z</time>
      </trkpt>
      <trkpt lat="44.68796" lon="5.87715">
        <ele>1280.7</ele>
        <time>2023-09-28T10:57:43Z</time>
      </trkpt>
      <trkpt lat="44.68802" lon="5.8772">
        <ele>1280.2</ele>
        <time>2023-09-28T10:57:44Z</time>
      </trkpt>
      <trkpt lat="44.68808" lon="5.87725">
        <ele>1279.7</ele>
        <time>2023-09-28T10:57:45Z</time>
      </trkpt>
      <trkpt lat="44.68815" lon="5.8773">
        <ele>1279.2</ele>
        <time>2023-09-28T10:57:46Z</time>
      </trkpt>
      <trkpt lat="44.68823" lon="5.87734">
        <ele>1278.6</ele>
        <time>2023-09-28T10:57:47Z</time>
      </trkpt>
      <trkpt lat="44.68831" lon="5.87737">
        <ele>1278</ele>
        <time>2023-09-28T10:57:48Z</time>
      </trkpt>
      <trkpt lat="44.68839" lon="5.8774">
        <ele>1277.4</ele>
        <time>2023-09-28T10:57:49Z</time>
      </trkpt>
      <trkpt lat="44.68848" lon="5.87743">
        <ele>1276.9</ele>
        <time>2023-09-28T10:57:50Z</time>
      </trkpt>
      <trkpt lat="44.68857" lon="5.87745">
        <ele>1276.3</ele>
        <time>2023-09-28T10:57:51Z</time>
      </trkpt>
      <trkpt lat="44.68867" lon="5.87747">
        <ele>1275.8</ele>
        <time>2023-09-28T10:57:52Z</time>
      </trkpt>
      <trkpt lat="44.68877" lon="5.87749">
        <ele>1275.3</ele>
        <time>2023-09-28T10:57:53Z</time>
      </trkpt>
      <trkpt lat="44.68886" lon="5.87752">
        <ele>1274.9</ele>
        <time>2023-09-28T10:57:54Z</time>
      </trkpt>
      <trkpt lat="44.68896" lon="5.87755">
        <ele>1274.4</ele>
        <time>2023-09-28T10:57:55Z</time>
      </trkpt>
      <trkpt lat="44.68905" lon="5.87759">
        <ele>1273.9</ele>
        <time>2023-09-28T10:57:56Z</time>
      </trkpt>
      <trkpt lat="44.68914" lon="5.87764">
        <ele>1273.4</ele>
        <time>2023-09-28T10:57:57Z</time>
      </trkpt>
      <trkpt lat="44.68922" lon="5.8777">
        <ele>1272.9</ele>
        <time>2023-09-28T10:57:58Z</time>
      </trkpt>
      <trkpt lat="44.68931" lon="5.87775">
        <ele>1272.5</ele>
        <time>2023-09-28T10:57:59Z</time>
      </trkpt>
      <trkpt lat="44.68939" lon="5.87781">
        <ele>1271.9</ele>
        <time>2023-09-28T10:58:00Z</time>
      </trkpt>
      <trkpt lat="44.68948" lon="5.87788">
        <ele>1271.4</ele>
        <time>2023-09-28T10:58:01Z</time>
      </trkpt>
      <trkpt lat="44.68956" lon="5.87794">
        <ele>1270.9</ele>
        <time>2023-09-28T10:58:02Z</time>
      </trkpt>
      <trkpt lat="44.68965" lon="5.87801">
        <ele>1270.5</ele>
        <time>2023-09-28T10:58:03Z</time>
      </trkpt>
      <trkpt lat="44.68973" lon="5.87807">
        <ele>1270.1</ele>
        <time>2023-09-28T10:58:04Z</time>
      </trkpt>
      <trkpt lat="44.6898" lon="5.87814">
        <ele>1269.7</ele>
        <time>2023-09-28T10:58:05Z</time>
      </trkpt>
      <trkpt lat="44.68988" lon="5.87821">
        <ele>1269.2</ele>
        <time>2023-09-28T10:58:06Z</time>
      </trkpt>
      <trkpt lat="44.68997" lon="5.87828">
        <ele>1268.7</ele>
        <time>2023-09-28T10:58:07Z</time>
      </trkpt>
      <trkpt lat="44.69005" lon="5.87835">
        <ele>1268.3</ele>
        <time>2023-09-28T10:58:08Z</time>
      </trkpt>
      <trkpt lat="44.69013" lon="5.87842">
        <ele>1267.8</ele>
        <time>2023-09-28T10:58:09Z</time>
      </trkpt>
      <trkpt lat="44.69021" lon="5.87848">
        <ele>1267.3</ele>
        <time>2023-09-28T10:58:10Z</time>
      </trkpt>
      <trkpt lat="44.69029" lon="5.87855">
        <ele>1266.8</ele>
        <time>2023-09-28T10:58:11Z</time>
      </trkpt>
      <trkpt lat="44.69037" lon="5.87862">
        <ele>1266.3</ele>
        <time>2023-09-28T10:58:12Z</time>
      </trkpt>
      <trkpt lat="44.69046" lon="5.87869">
        <ele>1265.7</ele>
        <time>2023-09-28T10:58:13Z</time>
      </trkpt>
      <trkpt lat="44.69054" lon="5.87877">
        <ele>1265.2</ele>
        <time>2023-09-28T10:58:14Z</time>
      </trkpt>
      <trkpt lat="44.69063" lon="5.87884">
        <ele>1264.7</ele>
        <time>2023-09-28T10:58:15Z</time>
      </trkpt>
      <trkpt lat="44.69072" lon="5.8789">
        <ele>1264.2</ele>
        <time>2023-09-28T10:58:16Z</time>
      </trkpt>
      <trkpt lat="44.69081" lon="5.87897">
        <ele>1263.7</ele>
        <time>2023-09-28T10:58:17Z</time>
      </trkpt>
      <trkpt lat="44.69091" lon="5.87903">
        <ele>1263.3</ele>
        <time>2023-09-28T10:58:18Z</time>
      </trkpt>
      <trkpt lat="44.691" lon="5.8791">
        <ele>1262.8</ele>
        <time>2023-09-28T10:58:19Z</time>
      </trkpt>
      <trkpt lat="44.69109" lon="5.87916">
        <ele>1262.5</ele>
        <time>2023-09-28T10:58:20Z</time>
      </trkpt>
      <trkpt lat="44.69119" lon="5.87923">
        <ele>1262.2</ele>
        <time>2023-09-28T10:58:21Z</time>
      </trkpt>
      <trkpt lat="44.69128" lon="5.87931">
        <ele>1262</ele>
        <time>2023-09-28T10:58:22Z</time>
      </trkpt>
      <trkpt lat="44.69136" lon="5.87939">
        <ele>1261.8</ele>
        <time>2023-09-28T10:58:23Z</time>
      </trkpt>
      <trkpt lat="44.69144" lon="5.87948">
        <ele>1261.7</ele>
        <time>2023-09-28T10:58:24Z</time>
      </trkpt>
      <trkpt lat="44.69152" lon="5.87956">
        <ele>1261.6</ele>
        <time>2023-09-28T10:58:25Z</time>
      </trkpt>
      <trkpt lat="44.6916" lon="5.87964">
        <ele>1261.6</ele>
        <time>2023-09-28T10:58:26Z</time>
      </trkpt>
      <trkpt lat="44.69168" lon="5.87972">
        <ele>1261.6</ele>
        <time>2023-09-28T10:58:27Z</time>
      </trkpt>
      <trkpt lat="44.69175" lon="5.87979">
        <ele>1261.7</ele>
        <time>2023-09-28T10:58:28Z</time>
      </trkpt>
      <trkpt lat="44.69183" lon="5.87987">
        <ele>1261.8</ele>
        <time>2023-09-28T10:58:29Z</time>
      </trkpt>
      <trkpt lat="44.6919" lon="5.87995">
        <ele>1261.9</ele>
        <time>2023-09-28T10:58:30Z</time>
      </trkpt>
      <trkpt lat="44.69196" lon="5.88002">
        <ele>1262</ele>
        <time>2023-09-28T10:58:31Z</time>
      </trkpt>
      <trkpt lat="44.69203" lon="5.88009">
        <ele>1262.1</ele>
        <time>2023-09-28T10:58:32Z</time>
      </trkpt>
      <trkpt lat="44.6921" lon="5.88016">
        <ele>1262.2</ele>
        <time>2023-09-28T10:58:33Z</time>
      </trkpt>
      <trkpt lat="44.69216" lon="5.88023">
        <ele>1262.3</ele>
        <time>2023-09-28T10:58:34Z</time>
      </trkpt>
      <trkpt lat="44.69222" lon="5.8803">
        <ele>1262.4</ele>
        <time>2023-09-28T10:58:35Z</time>
      </trkpt>
      <trkpt lat="44.69228" lon="5.88037">
        <ele>1262.5</ele>
        <time>2023-09-28T10:58:36Z</time>
      </trkpt>
      <trkpt lat="44.69233" lon="5.88044">
        <ele>1262.6</ele>
        <time>2023-09-28T10:58:37Z</time>
      </trkpt>
      <trkpt lat="44.69238" lon="5.88051">
        <ele>1262.7</ele>
        <time>2023-09-28T10:58:38Z</time>
      </trkpt>
      <trkpt lat="44.69243" lon="5.88057">
        <ele>1262.8</ele>
        <time>2023-09-28T10:58:39Z</time>
      </trkpt>
      <trkpt lat="44.69248" lon="5.88064">
        <ele>1262.8</ele>
        <time>2023-09-28T10:58:40Z</time>
      </trkpt>
      <trkpt lat="44.69253" lon="5.88069">
        <ele>1262.9</ele>
        <time>2023-09-28T10:58:41Z</time>
      </trkpt>
      <trkpt lat="44.69258" lon="5.88075">
        <ele>1262.9</ele>
        <time>2023-09-28T10:58:42Z</time>
      </trkpt>
      <trkpt lat="44.69264" lon="5.88081">
        <ele>1262.9</ele>
        <time>2023-09-28T10:58:43Z</time>
      </trkpt>
      <trkpt lat="44.69269" lon="5.88086">
        <ele>1263</ele>
        <time>2023-09-28T10:58:44Z</time>
      </trkpt>
      <trkpt lat="44.69275" lon="5.88091">
        <ele>1263</ele>
        <time>2023-09-28T10:58:45Z</time>
      </trkpt>
      <trkpt lat="44.6928" lon="5.88095">
        <ele>1263.1</ele>
        <time>2023-09-28T10:58:46Z</time>
      </trkpt>
      <trkpt lat="44.69286" lon="5.88099">
        <ele>1263.1</ele>
        <time>2023-09-28T10:58:47Z</time>
      </trkpt>
      <trkpt lat="44.69291" lon="5.88103">
        <ele>1263.2</ele>
        <time>2023-09-28T10:58:48Z</time>
      </trkpt>
      <trkpt lat="44.69296" lon="5.88106">
        <ele>1263.2</ele>
        <time>2023-09-28T10:58:49Z</time>
      </trkpt>
      <trkpt lat="44.69301" lon="5.8811">
        <ele>1263.2</ele>
        <time>2023-09-28T10:58:50Z</time>
      </trkpt>
      <trkpt lat="44.69305" lon="5.88113">
        <ele>1263.2</ele>
        <time>2023-09-28T10:58:51Z</time>
      </trkpt>
      <trkpt lat="44.69309" lon="5.88117">
        <ele>1263.2</ele>
        <time>2023-09-28T10:58:52Z</time>
      </trkpt>
      <trkpt lat="44.69314" lon="5.8812">
        <ele>1263.2</ele>
        <time>2023-09-28T10:58:53Z</time>
      </trkpt>
      <trkpt lat="44.69318" lon="5.88123">
        <ele>1263.2</ele>
        <time>2023-09-28T10:58:54Z</time>
      </trkpt>
      <trkpt lat="44.69321" lon="5.88126">
        <ele>1263.2</ele>
        <time>2023-09-28T10:58:55Z</time>
      </trkpt>
      <trkpt lat="44.69325" lon="5.88129">
        <ele>1263.2</ele>
        <time>2023-09-28T10:58:56Z</time>
      </trkpt>
      <trkpt lat="44.69328" lon="5.88132">
        <ele>1263.2</ele>
        <time>2023-09-28T10:58:57Z</time>
      </trkpt>
      <trkpt lat="44.69331" lon="5.88134">
        <ele>1263.2</ele>
        <time>2023-09-28T10:58:58Z</time>
      </trkpt>
      <trkpt lat="44.69334" lon="5.88136">
        <ele>1263.2</ele>
        <time>2023-09-28T10:58:59Z</time>
      </trkpt>
      <trkpt lat="44.69337" lon="5.88138">
        <ele>1263.1</ele>
        <time>2023-09-28T10:59:00Z</time>
      </trkpt>
      <trkpt lat="44.69338" lon="5.8814">
        <ele>1263.1</ele>
        <time>2023-09-28T10:59:01Z</time>
      </trkpt>
      <trkpt lat="44.69339" lon="5.88142">
        <ele>1263.1</ele>
        <time>2023-09-28T10:59:02Z</time>
      </trkpt>
      <trkpt lat="44.69341" lon="5.88144">
        <ele>1263.1</ele>
        <time>2023-09-28T10:59:04Z</time>
      </trkpt>
      <trkpt lat="44.69344" lon="5.88146">
        <ele>1263.1</ele>
        <time>2023-09-28T10:59:05Z</time>
      </trkpt>
      <trkpt lat="44.69347" lon="5.88144">
        <ele>1263.1</ele>
        <time>2023-09-28T10:59:06Z</time>
      </trkpt>
      <trkpt lat="44.69348" lon="5.88139">
        <ele>1263.1</ele>
        <time>2023-09-28T10:59:07Z</time>
      </trkpt>
      <trkpt lat="44.69348" lon="5.88137">
        <ele>1263.1</ele>
        <time>2023-09-28T10:59:09Z</time>
      </trkpt>
      <trkpt lat="44.69349" lon="5.88136">
        <ele>1263.1</ele>
        <time>2023-09-28T10:59:10Z</time>
      </trkpt>
      <trkpt lat="44.6935" lon="5.88137">
        <ele>1263</ele>
        <time>2023-09-28T10:59:11Z</time>
      </trkpt>
      <trkpt lat="44.69351" lon="5.88137">
        <ele>1263</ele>
        <time>2023-09-28T10:59:12Z</time>
      </trkpt>
      <trkpt lat="44.69351" lon="5.88137">
        <ele>1263</ele>
        <time>2023-09-28T10:59:14Z</time>
      </trkpt>
      <trkpt lat="44.69351" lon="5.88136">
        <ele>1263</ele>
        <time>2023-09-28T10:59:15Z</time>
      </trkpt>
      <trkpt lat="44.69351" lon="5.88136">
        <ele>1263</ele>
        <time>2023-09-28T10:59:17Z</time>
      </trkpt>
      <trkpt lat="44.69351" lon="5.88136">
        <ele>1263</ele>
        <time>2023-09-28T10:59:18Z</time>
      </trkpt>
      <trkpt lat="44.69351" lon="5.88136">
        <ele>1263</ele>
        <time>2023-09-28T10:59:19Z</time>
      </trkpt>
      <trkpt lat="44.69351" lon="5.88136">
        <ele>1263</ele>
        <time>2023-09-28T10:59:20Z</time>
      </trkpt>
      <trkpt lat="44.69352" lon="5.88136">
        <ele>1263</ele>
        <time>2023-09-28T10:59:22Z</time>
      </trkpt>
      <trkpt lat="44.69348" lon="5.88137">
        <ele>1263</ele>
        <time>2023-09-28T11:00:08Z</time>
      </trkpt>
      <trkpt lat="44.69348" lon="5.88136">
        <ele>1263</ele>
        <time>2023-09-28T11:00:09Z</time>
      </trkpt>
      <trkpt lat="44.6935" lon="5.88138">
        <ele>1263</ele>
        <time>2023-09-28T11:00:11Z</time>
      </trkpt>
      <trkpt lat="44.69349" lon="5.88138">
        <ele>1263</ele>
        <time>2023-09-28T11:00:12Z</time>
      </trkpt>
      <trkpt lat="44.69349" lon="5.88138">
        <ele>1263</ele>
        <time>2023-09-28T11:00:13Z</time>
      </trkpt>
      <trkpt lat="44.69349" lon="5.88137">
        <ele>1263</ele>
        <time>2023-09-28T11:00:15Z</time>
      </trkpt>
      <trkpt lat="44.6935" lon="5.88137">
        <ele>1263</ele>
        <time>2023-09-28T11:00:16Z</time>
      </trkpt>
      <trkpt lat="44.6935" lon="5.88137">
        <ele>1263</ele>
        <time>2023-09-28T11:00:17Z</time>
      </trkpt>
      <trkpt lat="44.6935" lon="5.88137">
        <ele>1263</ele>
        <time>2023-09-28T11:00:19Z</time>
      </trkpt>
      <trkpt lat="44.6935" lon="5.88137">
        <ele>1263</ele>
        <time>2023-09-28T11:00:20Z</time>
      </trkpt>
      <trkpt lat="44.6935" lon="5.88137">
        <ele>1263</ele>
        <time>2023-09-28T11:00:21Z</time>
      </trkpt>
      <trkpt lat="44.6935" lon="5.88137">
        <ele>1263</ele>
        <time>2023-09-28T11:00:22Z</time>
      </trkpt>
      <trkpt lat="44.69352" lon="5.88149">
        <ele>1263</ele>
        <time>2023-09-28T11:15:53Z</time>
      </trkpt>
      <trkpt lat="44.69354" lon="5.88152">
        <ele>1263</ele>
        <time>2023-09-28T11:15:54Z</time>
      </trkpt>
      <trkpt lat="44.69357" lon="5.88154">
        <ele>1263</ele>
        <time>2023-09-28T11:15:55Z</time>
      </trkpt>
      <trkpt lat="44.69361" lon="5.88157">
        <ele>1262.9</ele>
        <time>2023-09-28T11:15:56Z</time>
      </trkpt>
      <trkpt lat="44.69362" lon="5.88157">
        <ele>1262.8</ele>
        <time>2023-09-28T11:15:57Z</time>
      </trkpt>
      <trkpt lat="44.69366" lon="5.8816">
        <ele>1262.8</ele>
        <time>2023-09-28T11:15:58Z</time>
      </trkpt>
      <trkpt lat="44.69367" lon="5.88161">
        <ele>1262.7</ele>
        <time>2023-09-28T11:15:59Z</time>
      </trkpt>
      <trkpt lat="44.6937" lon="5.88164">
        <ele>1262.7</ele>
        <time>2023-09-28T11:16:00Z</time>
      </trkpt>
      <trkpt lat="44.69373" lon="5.88165">
        <ele>1262.7</ele>
        <time>2023-09-28T11:16:01Z</time>
      </trkpt>
      <trkpt lat="44.69376" lon="5.88166">
        <ele>1262.6</ele>
        <time>2023-09-28T11:16:02Z</time>
      </trkpt>
      <trkpt lat="44.6938" lon="5.88169">
        <ele>1262.6</ele>
        <time>2023-09-28T11:16:03Z</time>
      </trkpt>
      <trkpt lat="44.69385" lon="5.88171">
        <ele>1262.5</ele>
        <time>2023-09-28T11:16:05Z</time>
      </trkpt>
      <trkpt lat="44.69389" lon="5.88172">
        <ele>1262.4</ele>
        <time>2023-09-28T11:16:06Z</time>
      </trkpt>
      <trkpt lat="44.69393" lon="5.88174">
        <ele>1262.4</ele>
        <time>2023-09-28T11:16:07Z</time>
      </trkpt>
      <trkpt lat="44.69396" lon="5.88176">
        <ele>1262.3</ele>
        <time>2023-09-28T11:16:08Z</time>
      </trkpt>
      <trkpt lat="44.69401" lon="5.88177">
        <ele>1262.3</ele>
        <time>2023-09-28T11:16:09Z</time>
      </trkpt>
      <trkpt lat="44.69406" lon="5.88178">
        <ele>1262.2</ele>
        <time>2023-09-28T11:16:11Z</time>
      </trkpt>
      <trkpt lat="44.6941" lon="5.88181">
        <ele>1262.2</ele>
        <time>2023-09-28T11:16:12Z</time>
      </trkpt>
      <trkpt lat="44.69413" lon="5.88185">
        <ele>1262.1</ele>
        <time>2023-09-28T11:16:13Z</time>
      </trkpt>
      <trkpt lat="44.69416" lon="5.8819">
        <ele>1262</ele>
        <time>2023-09-28T11:16:14Z</time>
      </trkpt>
      <trkpt lat="44.69419" lon="5.88194">
        <ele>1261.9</ele>
        <time>2023-09-28T11:16:15Z</time>
      </trkpt>
      <trkpt lat="44.69422" lon="5.88197">
        <ele>1261.8</ele>
        <time>2023-09-28T11:16:16Z</time>
      </trkpt>
      <trkpt lat="44.69424" lon="5.88199">
        <ele>1261.7</ele>
        <time>2023-09-28T11:16:17Z</time>
      </trkpt>
      <trkpt lat="44.69426" lon="5.88202">
        <ele>1261.6</ele>
        <time>2023-09-28T11:16:18Z</time>
      </trkpt>
      <trkpt lat="44.69429" lon="5.88205">
        <ele>1261.5</ele>
        <time>2023-09-28T11:16:19Z</time>
      </trkpt>
      <trkpt lat="44.69433" lon="5.88208">
        <ele>1261.2</ele>
        <time>2023-09-28T11:16:20Z</time>
      </trkpt>
      <trkpt lat="44.69437" lon="5.88212">
        <ele>1260.9</ele>
        <time>2023-09-28T11:16:22Z</time>
      </trkpt>
      <trkpt lat="44.69443" lon="5.88215">
        <ele>1260.4</ele>
        <time>2023-09-28T11:16:23Z</time>
      </trkpt>
      <trkpt lat="44.69448" lon="5.88217">
        <ele>1260.1</ele>
        <time>2023-09-28T11:16:24Z</time>
      </trkpt>
      <trkpt lat="44.69453" lon="5.88219">
        <ele>1259.7</ele>
        <time>2023-09-28T11:16:25Z</time>
      </trkpt>
      <trkpt lat="44.69459" lon="5.88221">
        <ele>1259.3</ele>
        <time>2023-09-28T11:16:26Z</time>
      </trkpt>
      <trkpt lat="44.69465" lon="5.88223">
        <ele>1258.8</ele>
        <time>2023-09-28T11:16:27Z</time>
      </trkpt>
      <trkpt lat="44.69471" lon="5.88225">
        <ele>1258.3</ele>
        <time>2023-09-28T11:16:28Z</time>
      </trkpt>
      <trkpt lat="44.69477" lon="5.88228">
        <ele>1257.9</ele>
        <time>2023-09-28T11:16:29Z</time>
      </trkpt>
      <trkpt lat="44.69484" lon="5.88229">
        <ele>1257.4</ele>
        <time>2023-09-28T11:16:30Z</time>
      </trkpt>
      <trkpt lat="44.69491" lon="5.8823">
        <ele>1256.8</ele>
        <time>2023-09-28T11:16:31Z</time>
      </trkpt>
      <trkpt lat="44.69499" lon="5.88231">
        <ele>1256.3</ele>
        <time>2023-09-28T11:16:32Z</time>
      </trkpt>
      <trkpt lat="44.69507" lon="5.8823">
        <ele>1255.7</ele>
        <time>2023-09-28T11:16:33Z</time>
      </trkpt>
      <trkpt lat="44.69515" lon="5.88229">
        <ele>1255.1</ele>
        <time>2023-09-28T11:16:34Z</time>
      </trkpt>
      <trkpt lat="44.69523" lon="5.88228">
        <ele>1254.6</ele>
        <time>2023-09-28T11:16:35Z</time>
      </trkpt>
      <trkpt lat="44.69531" lon="5.8823">
        <ele>1254.1</ele>
        <time>2023-09-28T11:16:36Z</time>
      </trkpt>
      <trkpt lat="44.69539" lon="5.88233">
        <ele>1253.7</ele>
        <time>2023-09-28T11:16:37Z</time>
      </trkpt>
      <trkpt lat="44.69545" lon="5.88236">
        <ele>1253.4</ele>
        <time>2023-09-28T11:16:38Z</time>
      </trkpt>
      <trkpt lat="44.69551" lon="5.88238">
        <ele>1253</ele>
        <time>2023-09-28T11:16:39Z</time>
      </trkpt>
      <trkpt lat="44.69556" lon="5.88239">
        <ele>1252.7</ele>
        <time>2023-09-28T11:16:40Z</time>
      </trkpt>
      <trkpt lat="44.69561" lon="5.88236">
        <ele>1252.4</ele>
        <time>2023-09-28T11:16:41Z</time>
      </trkpt>
      <trkpt lat="44.69563" lon="5.88228">
        <ele>1252.1</ele>
        <time>2023-09-28T11:16:42Z</time>
      </trkpt>
      <trkpt lat="44.69562" lon="5.8822">
        <ele>1251.6</ele>
        <time>2023-09-28T11:16:43Z</time>
      </trkpt>
      <trkpt lat="44.69557" lon="5.88212">
        <ele>1251.1</ele>
        <time>2023-09-28T11:16:44Z</time>
      </trkpt>
      <trkpt lat="44.6955" lon="5.88209">
        <ele>1250.6</ele>
        <time>2023-09-28T11:16:45Z</time>
      </trkpt>
      <trkpt lat="44.69543" lon="5.88208">
        <ele>1250.3</ele>
        <time>2023-09-28T11:16:46Z</time>
      </trkpt>
      <trkpt lat="44.69536" lon="5.88207">
        <ele>1250</ele>
        <time>2023-09-28T11:16:47Z</time>
      </trkpt>
      <trkpt lat="44.6953" lon="5.88203">
        <ele>1249.7</ele>
        <time>2023-09-28T11:16:48Z</time>
      </trkpt>
      <trkpt lat="44.69527" lon="5.88198">
        <ele>1249.5</ele>
        <time>2023-09-28T11:16:49Z</time>
      </trkpt>
      <trkpt lat="44.69524" lon="5.88194">
        <ele>1249.3</ele>
        <time>2023-09-28T11:16:50Z</time>
      </trkpt>
      <trkpt lat="44.69522" lon="5.88191">
        <ele>1249.2</ele>
        <time>2023-09-28T11:16:51Z</time>
      </trkpt>
      <trkpt lat="44.69519" lon="5.88186">
        <ele>1249.1</ele>
        <time>2023-09-28T11:16:52Z</time>
      </trkpt>
      <trkpt lat="44.69519" lon="5.88185">
        <ele>1249</ele>
        <time>2023-09-28T11:16:53Z</time>
      </trkpt>
      <trkpt lat="44.69517" lon="5.8818">
        <ele>1248.9</ele>
        <time>2023-09-28T11:16:54Z</time>
      </trkpt>
      <trkpt lat="44.69516" lon="5.88176">
        <ele>1248.8</ele>
        <time>2023-09-28T11:16:55Z</time>
      </trkpt>
      <trkpt lat="44.69514" lon="5.88172">
        <ele>1248.7</ele>
        <time>2023-09-28T11:16:56Z</time>
      </trkpt>
      <trkpt lat="44.69512" lon="5.88167">
        <ele>1248.6</ele>
        <time>2023-09-28T11:16:57Z</time>
      </trkpt>
      <trkpt lat="44.69511" lon="5.88162">
        <ele>1248.5</ele>
        <time>2023-09-28T11:16:59Z</time>
      </trkpt>
      <trkpt lat="44.69508" lon="5.88155">
        <ele>1248.4</ele>
        <time>2023-09-28T11:17:00Z</time>
      </trkpt>
      <trkpt lat="44.69503" lon="5.88147">
        <ele>1248.3</ele>
        <time>2023-09-28T11:17:01Z</time>
      </trkpt>
      <trkpt lat="44.695" lon="5.88141">
        <ele>1248.2</ele>
        <time>2023-09-28T11:17:02Z</time>
      </trkpt>
      <trkpt lat="44.69496" lon="5.88136">
        <ele>1248.2</ele>
        <time>2023-09-28T11:17:03Z</time>
      </trkpt>
      <trkpt lat="44.69494" lon="5.8813">
        <ele>1248.2</ele>
        <time>2023-09-28T11:17:04Z</time>
      </trkpt>
      <trkpt lat="44.69491" lon="5.88124">
        <ele>1248.3</ele>
        <time>2023-09-28T11:17:05Z</time>
      </trkpt>
      <trkpt lat="44.69489" lon="5.88117">
        <ele>1248.3</ele>
        <time>2023-09-28T11:17:06Z</time>
      </trkpt>
      <trkpt lat="44.69488" lon="5.8811">
        <ele>1248.4</ele>
        <time>2023-09-28T11:17:07Z</time>
      </trkpt>
      <trkpt lat="44.69488" lon="5.88104">
        <ele>1248.4</ele>
        <time>2023-09-28T11:17:08Z</time>
      </trkpt>
      <trkpt lat="44.6949" lon="5.88099">
        <ele>1248.4</ele>
        <time>2023-09-28T11:17:09Z</time>
      </trkpt>
      <trkpt lat="44.69495" lon="5.88092">
        <ele>1248.4</ele>
        <time>2023-09-28T11:17:11Z</time>
      </trkpt>
      <trkpt lat="44.695" lon="5.8809">
        <ele>1248.2</ele>
        <time>2023-09-28T11:17:12Z</time>
      </trkpt>
      <trkpt lat="44.69505" lon="5.8809">
        <ele>1248.1</ele>
        <time>2023-09-28T11:17:13Z</time>
      </trkpt>
      <trkpt lat="44.69511" lon="5.88091">
        <ele>1247.9</ele>
        <time>2023-09-28T11:17:14Z</time>
      </trkpt>
      <trkpt lat="44.69515" lon="5.88092">
        <ele>1247.9</ele>
        <time>2023-09-28T11:17:15Z</time>
      </trkpt>
      <trkpt lat="44.6952" lon="5.88092">
        <ele>1247.8</ele>
        <time>2023-09-28T11:17:16Z</time>
      </trkpt>
      <trkpt lat="44.69525" lon="5.88093">
        <ele>1247.8</ele>
        <time>2023-09-28T11:17:17Z</time>
      </trkpt>
      <trkpt lat="44.69531" lon="5.88093">
        <ele>1247.7</ele>
        <time>2023-09-28T11:17:18Z</time>
      </trkpt>
      <trkpt lat="44.69535" lon="5.88093">
        <ele>1247.7</ele>
        <time>2023-09-28T11:17:19Z</time>
      </trkpt>
      <trkpt lat="44.6954" lon="5.88094">
        <ele>1247.6</ele>
        <time>2023-09-28T11:17:20Z</time>
      </trkpt>
      <trkpt lat="44.69545" lon="5.88094">
        <ele>1247.6</ele>
        <time>2023-09-28T11:17:21Z</time>
      </trkpt>
      <trkpt lat="44.6955" lon="5.88094">
        <ele>1247.5</ele>
        <time>2023-09-28T11:17:22Z</time>
      </trkpt>
      <trkpt lat="44.69555" lon="5.88095">
        <ele>1247.3</ele>
        <time>2023-09-28T11:17:23Z</time>
      </trkpt>
      <trkpt lat="44.6956" lon="5.88095">
        <ele>1246.9</ele>
        <time>2023-09-28T11:17:24Z</time>
      </trkpt>
      <trkpt lat="44.69566" lon="5.88096">
        <ele>1246.5</ele>
        <time>2023-09-28T11:17:25Z</time>
      </trkpt>
      <trkpt lat="44.69572" lon="5.88096">
        <ele>1246.1</ele>
        <time>2023-09-28T11:17:26Z</time>
      </trkpt>
      <trkpt lat="44.69579" lon="5.88096">
        <ele>1245.7</ele>
        <time>2023-09-28T11:17:27Z</time>
      </trkpt>
      <trkpt lat="44.69585" lon="5.88096">
        <ele>1245.3</ele>
        <time>2023-09-28T11:17:28Z</time>
      </trkpt>
      <trkpt lat="44.69592" lon="5.88096">
        <ele>1244.9</ele>
        <time>2023-09-28T11:17:29Z</time>
      </trkpt>
      <trkpt lat="44.69598" lon="5.88096">
        <ele>1244.9</ele>
        <time>2023-09-28T11:17:30Z</time>
      </trkpt>
      <trkpt lat="44.69605" lon="5.88095">
        <ele>1244.8</ele>
        <time>2023-09-28T11:17:31Z</time>
      </trkpt>
      <trkpt lat="44.69612" lon="5.88094">
        <ele>1244.7</ele>
        <time>2023-09-28T11:17:32Z</time>
      </trkpt>
      <trkpt lat="44.69619" lon="5.88095">
        <ele>1244.6</ele>
        <time>2023-09-28T11:17:33Z</time>
      </trkpt>
      <trkpt lat="44.69626" lon="5.88094">
        <ele>1244.4</ele>
        <time>2023-09-28T11:17:34Z</time>
      </trkpt>
      <trkpt lat="44.69633" lon="5.88094">
        <ele>1244.4</ele>
        <time>2023-09-28T11:17:35Z</time>
      </trkpt>
      <trkpt lat="44.69639" lon="5.88094">
        <ele>1244.3</ele>
        <time>2023-09-28T11:17:36Z</time>
      </trkpt>
      <trkpt lat="44.69646" lon="5.88095">
        <ele>1244.2</ele>
        <time>2023-09-28T11:17:37Z</time>
      </trkpt>
      <trkpt lat="44.69652" lon="5.88095">
        <ele>1244.1</ele>
        <time>2023-09-28T11:17:38Z</time>
      </trkpt>
      <trkpt lat="44.69658" lon="5.88096">
        <ele>1244</ele>
        <time>2023-09-28T11:17:39Z</time>
      </trkpt>
      <trkpt lat="44.69664" lon="5.88096">
        <ele>1243.9</ele>
        <time>2023-09-28T11:17:40Z</time>
      </trkpt>
      <trkpt lat="44.6967" lon="5.88097">
        <ele>1243.7</ele>
        <time>2023-09-28T11:17:41Z</time>
      </trkpt>
      <trkpt lat="44.69675" lon="5.88098">
        <ele>1243.6</ele>
        <time>2023-09-28T11:17:42Z</time>
      </trkpt>
      <trkpt lat="44.69681" lon="5.88099">
        <ele>1243.4</ele>
        <time>2023-09-28T11:17:43Z</time>
      </trkpt>
      <trkpt lat="44.69687" lon="5.88101">
        <ele>1243.3</ele>
        <time>2023-09-28T11:17:44Z</time>
      </trkpt>
      <trkpt lat="44.69693" lon="5.88102">
        <ele>1243.1</ele>
        <time>2023-09-28T11:17:45Z</time>
      </trkpt>
      <trkpt lat="44.69699" lon="5.88103">
        <ele>1243</ele>
        <time>2023-09-28T11:17:46Z</time>
      </trkpt>
      <trkpt lat="44.69705" lon="5.88105">
        <ele>1242.9</ele>
        <time>2023-09-28T11:17:47Z</time>
      </trkpt>
      <trkpt lat="44.69711" lon="5.88106">
        <ele>1242.8</ele>
        <time>2023-09-28T11:17:48Z</time>
      </trkpt>
      <trkpt lat="44.69717" lon="5.88108">
        <ele>1242.7</ele>
        <time>2023-09-28T11:17:49Z</time>
      </trkpt>
      <trkpt lat="44.69723" lon="5.88109">
        <ele>1242.6</ele>
        <time>2023-09-28T11:17:50Z</time>
      </trkpt>
      <trkpt lat="44.69729" lon="5.88111">
        <ele>1242.5</ele>
        <time>2023-09-28T11:17:51Z</time>
      </trkpt>
      <trkpt lat="44.69735" lon="5.88112">
        <ele>1242.4</ele>
        <time>2023-09-28T11:17:52Z</time>
      </trkpt>
      <trkpt lat="44.69741" lon="5.88114">
        <ele>1242.3</ele>
        <time>2023-09-28T11:17:53Z</time>
      </trkpt>
      <trkpt lat="44.69747" lon="5.88116">
        <ele>1242.3</ele>
        <time>2023-09-28T11:17:54Z</time>
      </trkpt>
      <trkpt lat="44.69754" lon="5.88117">
        <ele>1242.2</ele>
        <time>2023-09-28T11:17:55Z</time>
      </trkpt>
      <trkpt lat="44.6976" lon="5.8812">
        <ele>1242.1</ele>
        <time>2023-09-28T11:17:56Z</time>
      </trkpt>
      <trkpt lat="44.69766" lon="5.88122">
        <ele>1242</ele>
        <time>2023-09-28T11:17:57Z</time>
      </trkpt>
      <trkpt lat="44.69772" lon="5.88124">
        <ele>1241.9</ele>
        <time>2023-09-28T11:17:58Z</time>
      </trkpt>
      <trkpt lat="44.69778" lon="5.88128">
        <ele>1241.8</ele>
        <time>2023-09-28T11:17:59Z</time>
      </trkpt>
      <trkpt lat="44.69785" lon="5.88131">
        <ele>1241.7</ele>
        <time>2023-09-28T11:18:00Z</time>
      </trkpt>
      <trkpt lat="44.69791" lon="5.88134">
        <ele>1241.6</ele>
        <time>2023-09-28T11:18:01Z</time>
      </trkpt>
      <trkpt lat="44.69797" lon="5.88137">
        <ele>1241.5</ele>
        <time>2023-09-28T11:18:02Z</time>
      </trkpt>
      <trkpt lat="44.69803" lon="5.88141">
        <ele>1241.4</ele>
        <time>2023-09-28T11:18:03Z</time>
      </trkpt>
      <trkpt lat="44.69809" lon="5.88145">
        <ele>1241.4</ele>
        <time>2023-09-28T11:18:04Z</time>
      </trkpt>
      <trkpt lat="44.69814" lon="5.8815">
        <ele>1241.3</ele>
        <time>2023-09-28T11:18:05Z</time>
      </trkpt>
      <trkpt lat="44.6982" lon="5.88155">
        <ele>1241.2</ele>
        <time>2023-09-28T11:18:06Z</time>
      </trkpt>
      <trkpt lat="44.69826" lon="5.88159">
        <ele>1241.1</ele>
        <time>2023-09-28T11:18:07Z</time>
      </trkpt>
      <trkpt lat="44.69831" lon="5.88163">
        <ele>1241.1</ele>
        <time>2023-09-28T11:18:08Z</time>
      </trkpt>
      <trkpt lat="44.69837" lon="5.88168">
        <ele>1241</ele>
        <time>2023-09-28T11:18:09Z</time>
      </trkpt>
      <trkpt lat="44.69842" lon="5.88173">
        <ele>1241</ele>
        <time>2023-09-28T11:18:10Z</time>
      </trkpt>
      <trkpt lat="44.69848" lon="5.88177">
        <ele>1240.9</ele>
        <time>2023-09-28T11:18:11Z</time>
      </trkpt>
      <trkpt lat="44.69853" lon="5.88181">
        <ele>1240.8</ele>
        <time>2023-09-28T11:18:12Z</time>
      </trkpt>
      <trkpt lat="44.69859" lon="5.88185">
        <ele>1240.7</ele>
        <time>2023-09-28T11:18:13Z</time>
      </trkpt>
      <trkpt lat="44.69864" lon="5.8819">
        <ele>1240.6</ele>
        <time>2023-09-28T11:18:14Z</time>
      </trkpt>
      <trkpt lat="44.6987" lon="5.88194">
        <ele>1240.5</ele>
        <time>2023-09-28T11:18:15Z</time>
      </trkpt>
      <trkpt lat="44.69876" lon="5.88198">
        <ele>1240.4</ele>
        <time>2023-09-28T11:18:16Z</time>
      </trkpt>
      <trkpt lat="44.69882" lon="5.88202">
        <ele>1240.3</ele>
        <time>2023-09-28T11:18:17Z</time>
      </trkpt>
      <trkpt lat="44.69887" lon="5.88206">
        <ele>1240.2</ele>
        <time>2023-09-28T11:18:18Z</time>
      </trkpt>
      <trkpt lat="44.69893" lon="5.8821">
        <ele>1240.1</ele>
        <time>2023-09-28T11:18:19Z</time>
      </trkpt>
      <trkpt lat="44.69899" lon="5.88214">
        <ele>1240</ele>
        <time>2023-09-28T11:18:20Z</time>
      </trkpt>
      <trkpt lat="44.69905" lon="5.88218">
        <ele>1240</ele>
        <time>2023-09-28T11:18:21Z</time>
      </trkpt>
      <trkpt lat="44.69911" lon="5.88221">
        <ele>1239.9</ele>
        <time>2023-09-28T11:18:22Z</time>
      </trkpt>
      <trkpt lat="44.69917" lon="5.88225">
        <ele>1239.8</ele>
        <time>2023-09-28T11:18:23Z</time>
      </trkpt>
      <trkpt lat="44.69922" lon="5.88228">
        <ele>1239.8</ele>
        <time>2023-09-28T11:18:24Z</time>
      </trkpt>
      <trkpt lat="44.69928" lon="5.88231">
        <ele>1239.7</ele>
        <time>2023-09-28T11:18:25Z</time>
      </trkpt>
      <trkpt lat="44.69934" lon="5.88235">
        <ele>1239.7</ele>
        <time>2023-09-28T11:18:26Z</time>
      </trkpt>
      <trkpt lat="44.69939" lon="5.88239">
        <ele>1239.6</ele>
        <time>2023-09-28T11:18:27Z</time>
      </trkpt>
      <trkpt lat="44.69945" lon="5.88242">
        <ele>1239.6</ele>
        <time>2023-09-28T11:18:28Z</time>
      </trkpt>
      <trkpt lat="44.69951" lon="5.88246">
        <ele>1239.5</ele>
        <time>2023-09-28T11:18:29Z</time>
      </trkpt>
      <trkpt lat="44.69956" lon="5.88249">
        <ele>1239.5</ele>
        <time>2023-09-28T11:18:30Z</time>
      </trkpt>
      <trkpt lat="44.69962" lon="5.88252">
        <ele>1239.4</ele>
        <time>2023-09-28T11:18:31Z</time>
      </trkpt>
      <trkpt lat="44.69967" lon="5.88256">
        <ele>1239.4</ele>
        <time>2023-09-28T11:18:32Z</time>
      </trkpt>
      <trkpt lat="44.69973" lon="5.88259">
        <ele>1239.3</ele>
        <time>2023-09-28T11:18:33Z</time>
      </trkpt>
      <trkpt lat="44.69979" lon="5.88263">
        <ele>1239.2</ele>
        <time>2023-09-28T11:18:34Z</time>
      </trkpt>
      <trkpt lat="44.69985" lon="5.88266">
        <ele>1239.2</ele>
        <time>2023-09-28T11:18:35Z</time>
      </trkpt>
      <trkpt lat="44.6999" lon="5.8827">
        <ele>1239.1</ele>
        <time>2023-09-28T11:18:36Z</time>
      </trkpt>
      <trkpt lat="44.69996" lon="5.88274">
        <ele>1239</ele>
        <time>2023-09-28T11:18:37Z</time>
      </trkpt>
      <trkpt lat="44.70002" lon="5.88278">
        <ele>1239</ele>
        <time>2023-09-28T11:18:38Z</time>
      </trkpt>
      <trkpt lat="44.70007" lon="5.88282">
        <ele>1239</ele>
        <time>2023-09-28T11:18:39Z</time>
      </trkpt>
      <trkpt lat="44.70013" lon="5.88286">
        <ele>1238.9</ele>
        <time>2023-09-28T11:18:40Z</time>
      </trkpt>
      <trkpt lat="44.70018" lon="5.88291">
        <ele>1238.9</ele>
        <time>2023-09-28T11:18:41Z</time>
      </trkpt>
      <trkpt lat="44.70023" lon="5.88295">
        <ele>1238.9</ele>
        <time>2023-09-28T11:18:42Z</time>
      </trkpt>
      <trkpt lat="44.70029" lon="5.883">
        <ele>1238.8</ele>
        <time>2023-09-28T11:18:43Z</time>
      </trkpt>
      <trkpt lat="44.70034" lon="5.88304">
        <ele>1238.8</ele>
        <time>2023-09-28T11:18:44Z</time>
      </trkpt>
      <trkpt lat="44.70039" lon="5.88308">
        <ele>1238.8</ele>
        <time>2023-09-28T11:18:45Z</time>
      </trkpt>
      <trkpt lat="44.70045" lon="5.88311">
        <ele>1238.7</ele>
        <time>2023-09-28T11:18:46Z</time>
      </trkpt>
      <trkpt lat="44.7005" lon="5.88313">
        <ele>1238.7</ele>
        <time>2023-09-28T11:18:47Z</time>
      </trkpt>
      <trkpt lat="44.70056" lon="5.88315">
        <ele>1238.7</ele>
        <time>2023-09-28T11:18:48Z</time>
      </trkpt>
      <trkpt lat="44.70062" lon="5.88318">
        <ele>1238.7</ele>
        <time>2023-09-28T11:18:49Z</time>
      </trkpt>
      <trkpt lat="44.70067" lon="5.88321">
        <ele>1238.6</ele>
        <time>2023-09-28T11:18:50Z</time>
      </trkpt>
      <trkpt lat="44.70073" lon="5.88323">
        <ele>1238.5</ele>
        <time>2023-09-28T11:18:51Z</time>
      </trkpt>
      <trkpt lat="44.70079" lon="5.88325">
        <ele>1238.5</ele>
        <time>2023-09-28T11:18:52Z</time>
      </trkpt>
      <trkpt lat="44.70085" lon="5.88327">
        <ele>1238.4</ele>
        <time>2023-09-28T11:18:53Z</time>
      </trkpt>
      <trkpt lat="44.70091" lon="5.8833">
        <ele>1238.3</ele>
        <time>2023-09-28T11:18:54Z</time>
      </trkpt>
      <trkpt lat="44.70097" lon="5.88332">
        <ele>1238.2</ele>
        <time>2023-09-28T11:18:55Z</time>
      </trkpt>
      <trkpt lat="44.70103" lon="5.88335">
        <ele>1238.1</ele>
        <time>2023-09-28T11:18:56Z</time>
      </trkpt>
      <trkpt lat="44.70109" lon="5.88338">
        <ele>1238</ele>
        <time>2023-09-28T11:18:57Z</time>
      </trkpt>
      <trkpt lat="44.70115" lon="5.88339">
        <ele>1237.9</ele>
        <time>2023-09-28T11:18:58Z</time>
      </trkpt>
      <trkpt lat="44.70121" lon="5.88342">
        <ele>1237.8</ele>
        <time>2023-09-28T11:18:59Z</time>
      </trkpt>
      <trkpt lat="44.70127" lon="5.88344">
        <ele>1237.7</ele>
        <time>2023-09-28T11:19:00Z</time>
      </trkpt>
      <trkpt lat="44.70133" lon="5.88345">
        <ele>1237.6</ele>
        <time>2023-09-28T11:19:01Z</time>
      </trkpt>
      <trkpt lat="44.7014" lon="5.88346">
        <ele>1237.4</ele>
        <time>2023-09-28T11:19:02Z</time>
      </trkpt>
      <trkpt lat="44.70146" lon="5.88347">
        <ele>1237.2</ele>
        <time>2023-09-28T11:19:03Z</time>
      </trkpt>
      <trkpt lat="44.70153" lon="5.88349">
        <ele>1237.1</ele>
        <time>2023-09-28T11:19:04Z</time>
      </trkpt>
      <trkpt lat="44.70159" lon="5.8835">
        <ele>1236.9</ele>
        <time>2023-09-28T11:19:05Z</time>
      </trkpt>
      <trkpt lat="44.70166" lon="5.88352">
        <ele>1236.7</ele>
        <time>2023-09-28T11:19:06Z</time>
      </trkpt>
      <trkpt lat="44.70173" lon="5.88353">
        <ele>1236.5</ele>
        <time>2023-09-28T11:19:07Z</time>
      </trkpt>
      <trkpt lat="44.7018" lon="5.88354">
        <ele>1236.3</ele>
        <time>2023-09-28T11:19:08Z</time>
      </trkpt>
      <trkpt lat="44.70187" lon="5.88356">
        <ele>1236.2</ele>
        <time>2023-09-28T11:19:09Z</time>
      </trkpt>
      <trkpt lat="44.70194" lon="5.88357">
        <ele>1236</ele>
        <time>2023-09-28T11:19:10Z</time>
      </trkpt>
      <trkpt lat="44.70201" lon="5.88359">
        <ele>1235.8</ele>
        <time>2023-09-28T11:19:11Z</time>
      </trkpt>
      <trkpt lat="44.70208" lon="5.88361">
        <ele>1235.7</ele>
        <time>2023-09-28T11:19:12Z</time>
      </trkpt>
      <trkpt lat="44.70214" lon="5.88363">
        <ele>1235.5</ele>
        <time>2023-09-28T11:19:13Z</time>
      </trkpt>
      <trkpt lat="44.70221" lon="5.88365">
        <ele>1235.3</ele>
        <time>2023-09-28T11:19:14Z</time>
      </trkpt>
      <trkpt lat="44.70228" lon="5.88368">
        <ele>1235.1</ele>
        <time>2023-09-28T11:19:15Z</time>
      </trkpt>
      <trkpt lat="44.70235" lon="5.88371">
        <ele>1234.9</ele>
        <time>2023-09-28T11:19:16Z</time>
      </trkpt>
      <trkpt lat="44.70242" lon="5.88374">
        <ele>1234.7</ele>
        <time>2023-09-28T11:19:17Z</time>
      </trkpt>
      <trkpt lat="44.70249" lon="5.88378">
        <ele>1234.5</ele>
        <time>2023-09-28T11:19:18Z</time>
      </trkpt>
      <trkpt lat="44.70256" lon="5.88382">
        <ele>1234.3</ele>
        <time>2023-09-28T11:19:19Z</time>
      </trkpt>
      <trkpt lat="44.70262" lon="5.88385">
        <ele>1234.2</ele>
        <time>2023-09-28T11:19:20Z</time>
      </trkpt>
      <trkpt lat="44.70269" lon="5.88389">
        <ele>1234</ele>
        <time>2023-09-28T11:19:21Z</time>
      </trkpt>
      <trkpt lat="44.70276" lon="5.88392">
        <ele>1233.9</ele>
        <time>2023-09-28T11:19:22Z</time>
      </trkpt>
      <trkpt lat="44.70283" lon="5.88396">
        <ele>1233.8</ele>
        <time>2023-09-28T11:19:23Z</time>
      </trkpt>
      <trkpt lat="44.70289" lon="5.88399">
        <ele>1233.7</ele>
        <time>2023-09-28T11:19:24Z</time>
      </trkpt>
      <trkpt lat="44.70296" lon="5.88402">
        <ele>1233.5</ele>
        <time>2023-09-28T11:19:25Z</time>
      </trkpt>
      <trkpt lat="44.70302" lon="5.88405">
        <ele>1233.4</ele>
        <time>2023-09-28T11:19:26Z</time>
      </trkpt>
      <trkpt lat="44.70309" lon="5.88408">
        <ele>1233.3</ele>
        <time>2023-09-28T11:19:27Z</time>
      </trkpt>
      <trkpt lat="44.70315" lon="5.88411">
        <ele>1233.2</ele>
        <time>2023-09-28T11:19:28Z</time>
      </trkpt>
      <trkpt lat="44.70322" lon="5.88415">
        <ele>1233.1</ele>
        <time>2023-09-28T11:19:29Z</time>
      </trkpt>
      <trkpt lat="44.70328" lon="5.88418">
        <ele>1233</ele>
        <time>2023-09-28T11:19:30Z</time>
      </trkpt>
      <trkpt lat="44.70334" lon="5.88421">
        <ele>1232.9</ele>
        <time>2023-09-28T11:19:31Z</time>
      </trkpt>
      <trkpt lat="44.70341" lon="5.88424">
        <ele>1232.8</ele>
        <time>2023-09-28T11:19:32Z</time>
      </trkpt>
      <trkpt lat="44.70347" lon="5.88427">
        <ele>1232.7</ele>
        <time>2023-09-28T11:19:33Z</time>
      </trkpt>
      <trkpt lat="44.70354" lon="5.8843">
        <ele>1232.6</ele>
        <time>2023-09-28T11:19:34Z</time>
      </trkpt>
      <trkpt lat="44.7036" lon="5.88433">
        <ele>1232.5</ele>
        <time>2023-09-28T11:19:35Z</time>
      </trkpt>
      <trkpt lat="44.70366" lon="5.88436">
        <ele>1232.4</ele>
        <time>2023-09-28T11:19:36Z</time>
      </trkpt>
      <trkpt lat="44.70373" lon="5.88439">
        <ele>1232.3</ele>
        <time>2023-09-28T11:19:37Z</time>
      </trkpt>
      <trkpt lat="44.7038" lon="5.88443">
        <ele>1232.2</ele>
        <time>2023-09-28T11:19:38Z</time>
      </trkpt>
      <trkpt lat="44.70386" lon="5.88448">
        <ele>1232.1</ele>
        <time>2023-09-28T11:19:39Z</time>
      </trkpt>
      <trkpt lat="44.70392" lon="5.88453">
        <ele>1232</ele>
        <time>2023-09-28T11:19:40Z</time>
      </trkpt>
      <trkpt lat="44.70398" lon="5.88458">
        <ele>1231.9</ele>
        <time>2023-09-28T11:19:41Z</time>
      </trkpt>
      <trkpt lat="44.70404" lon="5.88463">
        <ele>1231.9</ele>
        <time>2023-09-28T11:19:42Z</time>
      </trkpt>
      <trkpt lat="44.70409" lon="5.88468">
        <ele>1231.8</ele>
        <time>2023-09-28T11:19:43Z</time>
      </trkpt>
      <trkpt lat="44.70415" lon="5.88474">
        <ele>1231.8</ele>
        <time>2023-09-28T11:19:44Z</time>
      </trkpt>
      <trkpt lat="44.7042" lon="5.8848">
        <ele>1231.7</ele>
        <time>2023-09-28T11:19:45Z</time>
      </trkpt>
      <trkpt lat="44.70425" lon="5.88485">
        <ele>1231.7</ele>
        <time>2023-09-28T11:19:46Z</time>
      </trkpt>
      <trkpt lat="44.7043" lon="5.88491">
        <ele>1231.7</ele>
        <time>2023-09-28T11:19:47Z</time>
      </trkpt>
      <trkpt lat="44.70434" lon="5.88496">
        <ele>1231.6</ele>
        <time>2023-09-28T11:19:48Z</time>
      </trkpt>
      <trkpt lat="44.70439" lon="5.88503">
        <ele>1231.6</ele>
        <time>2023-09-28T11:19:49Z</time>
      </trkpt>
      <trkpt lat="44.70443" lon="5.88509">
        <ele>1231.6</ele>
        <time>2023-09-28T11:19:50Z</time>
      </trkpt>
      <trkpt lat="44.70447" lon="5.88515">
        <ele>1231.6</ele>
        <time>2023-09-28T11:19:51Z</time>
      </trkpt>
      <trkpt lat="44.7045" lon="5.88522">
        <ele>1231.6</ele>
        <time>2023-09-28T11:19:52Z</time>
      </trkpt>
      <trkpt lat="44.70453" lon="5.8853">
        <ele>1231.6</ele>
        <time>2023-09-28T11:19:53Z</time>
      </trkpt>
      <trkpt lat="44.70456" lon="5.88537">
        <ele>1231.6</ele>
        <time>2023-09-28T11:19:54Z</time>
      </trkpt>
      <trkpt lat="44.70458" lon="5.88545">
        <ele>1231.6</ele>
        <time>2023-09-28T11:19:55Z</time>
      </trkpt>
      <trkpt lat="44.70461" lon="5.88552">
        <ele>1231.6</ele>
        <time>2023-09-28T11:19:56Z</time>
      </trkpt>
      <trkpt lat="44.70462" lon="5.8856">
        <ele>1231.6</ele>
        <time>2023-09-28T11:19:57Z</time>
      </trkpt>
      <trkpt lat="44.70464" lon="5.88568">
        <ele>1231.6</ele>
        <time>2023-09-28T11:19:58Z</time>
      </trkpt>
      <trkpt lat="44.70466" lon="5.88576">
        <ele>1231.5</ele>
        <time>2023-09-28T11:19:59Z</time>
      </trkpt>
      <trkpt lat="44.70469" lon="5.88583">
        <ele>1231.5</ele>
        <time>2023-09-28T11:20:00Z</time>
      </trkpt>
      <trkpt lat="44.70473" lon="5.8859">
        <ele>1231.5</ele>
        <time>2023-09-28T11:20:01Z</time>
      </trkpt>
      <trkpt lat="44.70477" lon="5.88596">
        <ele>1231.5</ele>
        <time>2023-09-28T11:20:02Z</time>
      </trkpt>
      <trkpt lat="44.70481" lon="5.88602">
        <ele>1231.5</ele>
        <time>2023-09-28T11:20:03Z</time>
      </trkpt>
      <trkpt lat="44.70485" lon="5.88607">
        <ele>1231.5</ele>
        <time>2023-09-28T11:20:04Z</time>
      </trkpt>
      <trkpt lat="44.70489" lon="5.88613">
        <ele>1231.4</ele>
        <time>2023-09-28T11:20:05Z</time>
      </trkpt>
      <trkpt lat="44.70493" lon="5.88618">
        <ele>1231.4</ele>
        <time>2023-09-28T11:20:06Z</time>
      </trkpt>
      <trkpt lat="44.70497" lon="5.88625">
        <ele>1231.4</ele>
        <time>2023-09-28T11:20:07Z</time>
      </trkpt>
      <trkpt lat="44.705" lon="5.88631">
        <ele>1231.4</ele>
        <time>2023-09-28T11:20:08Z</time>
      </trkpt>
      <trkpt lat="44.70503" lon="5.88638">
        <ele>1231.4</ele>
        <time>2023-09-28T11:20:09Z</time>
      </trkpt>
      <trkpt lat="44.70506" lon="5.88645">
        <ele>1231.3</ele>
        <time>2023-09-28T11:20:10Z</time>
      </trkpt>
      <trkpt lat="44.70507" lon="5.88652">
        <ele>1231.3</ele>
        <time>2023-09-28T11:20:11Z</time>
      </trkpt>
      <trkpt lat="44.70509" lon="5.88659">
        <ele>1231.3</ele>
        <time>2023-09-28T11:20:12Z</time>
      </trkpt>
      <trkpt lat="44.70511" lon="5.88665">
        <ele>1231.3</ele>
        <time>2023-09-28T11:20:13Z</time>
      </trkpt>
      <trkpt lat="44.70514" lon="5.88671">
        <ele>1231.2</ele>
        <time>2023-09-28T11:20:14Z</time>
      </trkpt>
      <trkpt lat="44.70518" lon="5.88676">
        <ele>1231.2</ele>
        <time>2023-09-28T11:20:15Z</time>
      </trkpt>
      <trkpt lat="44.70522" lon="5.8868">
        <ele>1231.2</ele>
        <time>2023-09-28T11:20:16Z</time>
      </trkpt>
      <trkpt lat="44.70525" lon="5.88684">
        <ele>1231.2</ele>
        <time>2023-09-28T11:20:17Z</time>
      </trkpt>
      <trkpt lat="44.70529" lon="5.88689">
        <ele>1231.1</ele>
        <time>2023-09-28T11:20:18Z</time>
      </trkpt>
      <trkpt lat="44.70534" lon="5.88693">
        <ele>1231.1</ele>
        <time>2023-09-28T11:20:19Z</time>
      </trkpt>
      <trkpt lat="44.70538" lon="5.88697">
        <ele>1231.1</ele>
        <time>2023-09-28T11:20:20Z</time>
      </trkpt>
      <trkpt lat="44.70542" lon="5.88701">
        <ele>1231.1</ele>
        <time>2023-09-28T11:20:21Z</time>
      </trkpt>
      <trkpt lat="44.70546" lon="5.88706">
        <ele>1231</ele>
        <time>2023-09-28T11:20:22Z</time>
      </trkpt>
      <trkpt lat="44.70549" lon="5.88711">
        <ele>1231</ele>
        <time>2023-09-28T11:20:23Z</time>
      </trkpt>
      <trkpt lat="44.70552" lon="5.88716">
        <ele>1231</ele>
        <time>2023-09-28T11:20:24Z</time>
      </trkpt>
      <trkpt lat="44.70555" lon="5.88722">
        <ele>1231</ele>
        <time>2023-09-28T11:20:25Z</time>
      </trkpt>
      <trkpt lat="44.70558" lon="5.88729">
        <ele>1230.9</ele>
        <time>2023-09-28T11:20:26Z</time>
      </trkpt>
      <trkpt lat="44.70559" lon="5.88736">
        <ele>1230.9</ele>
        <time>2023-09-28T11:20:27Z</time>
      </trkpt>
      <trkpt lat="44.70561" lon="5.88743">
        <ele>1230.8</ele>
        <time>2023-09-28T11:20:28Z</time>
      </trkpt>
      <trkpt lat="44.70563" lon="5.8875">
        <ele>1230.8</ele>
        <time>2023-09-28T11:20:29Z</time>
      </trkpt>
      <trkpt lat="44.70566" lon="5.88757">
        <ele>1230.7</ele>
        <time>2023-09-28T11:20:30Z</time>
      </trkpt>
      <trkpt lat="44.70568" lon="5.88763">
        <ele>1230.6</ele>
        <time>2023-09-28T11:20:31Z</time>
      </trkpt>
      <trkpt lat="44.70572" lon="5.88769">
        <ele>1230.6</ele>
        <time>2023-09-28T11:20:32Z</time>
      </trkpt>
      <trkpt lat="44.70576" lon="5.88773">
        <ele>1230.5</ele>
        <time>2023-09-28T11:20:33Z</time>
      </trkpt>
      <trkpt lat="44.70581" lon="5.88777">
        <ele>1230.5</ele>
        <time>2023-09-28T11:20:34Z</time>
      </trkpt>
      <trkpt lat="44.70587" lon="5.88779">
        <ele>1230.4</ele>
        <time>2023-09-28T11:20:35Z</time>
      </trkpt>
      <trkpt lat="44.70592" lon="5.88782">
        <ele>1230.4</ele>
        <time>2023-09-28T11:20:36Z</time>
      </trkpt>
      <trkpt lat="44.70597" lon="5.88785">
        <ele>1230.4</ele>
        <time>2023-09-28T11:20:37Z</time>
      </trkpt>
      <trkpt lat="44.70603" lon="5.88787">
        <ele>1230.3</ele>
        <time>2023-09-28T11:20:38Z</time>
      </trkpt>
      <trkpt lat="44.70608" lon="5.88791">
        <ele>1230.3</ele>
        <time>2023-09-28T11:20:39Z</time>
      </trkpt>
      <trkpt lat="44.70612" lon="5.88795">
        <ele>1230.3</ele>
        <time>2023-09-28T11:20:40Z</time>
      </trkpt>
      <trkpt lat="44.70617" lon="5.88799">
        <ele>1230.3</ele>
        <time>2023-09-28T11:20:41Z</time>
      </trkpt>
      <trkpt lat="44.70621" lon="5.88804">
        <ele>1230.3</ele>
        <time>2023-09-28T11:20:42Z</time>
      </trkpt>
      <trkpt lat="44.70625" lon="5.88809">
        <ele>1230.3</ele>
        <time>2023-09-28T11:20:43Z</time>
      </trkpt>
      <trkpt lat="44.70628" lon="5.88815">
        <ele>1230.3</ele>
        <time>2023-09-28T11:20:44Z</time>
      </trkpt>
      <trkpt lat="44.70631" lon="5.88822">
        <ele>1230.2</ele>
        <time>2023-09-28T11:20:45Z</time>
      </trkpt>
      <trkpt lat="44.70633" lon="5.88829">
        <ele>1230.2</ele>
        <time>2023-09-28T11:20:46Z</time>
      </trkpt>
      <trkpt lat="44.70634" lon="5.88837">
        <ele>1230.1</ele>
        <time>2023-09-28T11:20:47Z</time>
      </trkpt>
      <trkpt lat="44.70636" lon="5.88844">
        <ele>1230</ele>
        <time>2023-09-28T11:20:48Z</time>
      </trkpt>
      <trkpt lat="44.70637" lon="5.88852">
        <ele>1229.9</ele>
        <time>2023-09-28T11:20:49Z</time>
      </trkpt>
      <trkpt lat="44.70638" lon="5.8886">
        <ele>1229.8</ele>
        <time>2023-09-28T11:20:50Z</time>
      </trkpt>
      <trkpt lat="44.70639" lon="5.88868">
        <ele>1229.7</ele>
        <time>2023-09-28T11:20:51Z</time>
      </trkpt>
      <trkpt lat="44.70641" lon="5.88875">
        <ele>1229.6</ele>
        <time>2023-09-28T11:20:52Z</time>
      </trkpt>
      <trkpt lat="44.70643" lon="5.88883">
        <ele>1229.4</ele>
        <time>2023-09-28T11:20:53Z</time>
      </trkpt>
      <trkpt lat="44.70645" lon="5.8889">
        <ele>1229.3</ele>
        <time>2023-09-28T11:20:54Z</time>
      </trkpt>
      <trkpt lat="44.70648" lon="5.88897">
        <ele>1229.1</ele>
        <time>2023-09-28T11:20:55Z</time>
      </trkpt>
      <trkpt lat="44.70651" lon="5.88903">
        <ele>1228.9</ele>
        <time>2023-09-28T11:20:56Z</time>
      </trkpt>
      <trkpt lat="44.70655" lon="5.88909">
        <ele>1228.7</ele>
        <time>2023-09-28T11:20:57Z</time>
      </trkpt>
      <trkpt lat="44.7066" lon="5.88914">
        <ele>1228.4</ele>
        <time>2023-09-28T11:20:58Z</time>
      </trkpt>
      <trkpt lat="44.70665" lon="5.88919">
        <ele>1228.2</ele>
        <time>2023-09-28T11:20:59Z</time>
      </trkpt>
      <trkpt lat="44.7067" lon="5.88924">
        <ele>1227.8</ele>
        <time>2023-09-28T11:21:00Z</time>
      </trkpt>
      <trkpt lat="44.70675" lon="5.8893">
        <ele>1227.5</ele>
        <time>2023-09-28T11:21:01Z</time>
      </trkpt>
      <trkpt lat="44.7068" lon="5.88936">
        <ele>1227.1</ele>
        <time>2023-09-28T11:21:02Z</time>
      </trkpt>
      <trkpt lat="44.70685" lon="5.88943">
        <ele>1226.8</ele>
        <time>2023-09-28T11:21:03Z</time>
      </trkpt>
      <trkpt lat="44.7069" lon="5.8895">
        <ele>1226.3</ele>
        <time>2023-09-28T11:21:04Z</time>
      </trkpt>
      <trkpt lat="44.70696" lon="5.88957">
        <ele>1225.9</ele>
        <time>2023-09-28T11:21:05Z</time>
      </trkpt>
      <trkpt lat="44.70702" lon="5.88962">
        <ele>1225.3</ele>
        <time>2023-09-28T11:21:06Z</time>
      </trkpt>
      <trkpt lat="44.70709" lon="5.88967">
        <ele>1224.8</ele>
        <time>2023-09-28T11:21:07Z</time>
      </trkpt>
      <trkpt lat="44.70717" lon="5.88969">
        <ele>1224.2</ele>
        <time>2023-09-28T11:21:08Z</time>
      </trkpt>
      <trkpt lat="44.70726" lon="5.8897">
        <ele>1223.6</ele>
        <time>2023-09-28T11:21:09Z</time>
      </trkpt>
      <trkpt lat="44.70735" lon="5.88972">
        <ele>1222.9</ele>
        <time>2023-09-28T11:21:10Z</time>
      </trkpt>
      <trkpt lat="44.70743" lon="5.88974">
        <ele>1222.2</ele>
        <time>2023-09-28T11:21:11Z</time>
      </trkpt>
      <trkpt lat="44.70752" lon="5.88978">
        <ele>1221.5</ele>
        <time>2023-09-28T11:21:12Z</time>
      </trkpt>
      <trkpt lat="44.70761" lon="5.88982">
        <ele>1220.8</ele>
        <time>2023-09-28T11:21:13Z</time>
      </trkpt>
      <trkpt lat="44.7077" lon="5.88988">
        <ele>1220.1</ele>
        <time>2023-09-28T11:21:14Z</time>
      </trkpt>
      <trkpt lat="44.70778" lon="5.88995">
        <ele>1219.3</ele>
        <time>2023-09-28T11:21:15Z</time>
      </trkpt>
      <trkpt lat="44.70787" lon="5.89003">
        <ele>1218.6</ele>
        <time>2023-09-28T11:21:16Z</time>
      </trkpt>
      <trkpt lat="44.70796" lon="5.89012">
        <ele>1217.9</ele>
        <time>2023-09-28T11:21:17Z</time>
      </trkpt>
      <trkpt lat="44.70804" lon="5.89021">
        <ele>1217.2</ele>
        <time>2023-09-28T11:21:18Z</time>
      </trkpt>
      <trkpt lat="44.70812" lon="5.89031">
        <ele>1216.4</ele>
        <time>2023-09-28T11:21:19Z</time>
      </trkpt>
      <trkpt lat="44.7082" lon="5.89042">
        <ele>1215.7</ele>
        <time>2023-09-28T11:21:20Z</time>
      </trkpt>
      <trkpt lat="44.70827" lon="5.89054">
        <ele>1214.9</ele>
        <time>2023-09-28T11:21:21Z</time>
      </trkpt>
      <trkpt lat="44.70834" lon="5.89067">
        <ele>1214.1</ele>
        <time>2023-09-28T11:21:22Z</time>
      </trkpt>
      <trkpt lat="44.70841" lon="5.89078">
        <ele>1213.3</ele>
        <time>2023-09-28T11:21:23Z</time>
      </trkpt>
      <trkpt lat="44.7085" lon="5.89088">
        <ele>1212.4</ele>
        <time>2023-09-28T11:21:24Z</time>
      </trkpt>
      <trkpt lat="44.70859" lon="5.89097">
        <ele>1211.5</ele>
        <time>2023-09-28T11:21:25Z</time>
      </trkpt>
      <trkpt lat="44.7087" lon="5.89103">
        <ele>1210.6</ele>
        <time>2023-09-28T11:21:26Z</time>
      </trkpt>
      <trkpt lat="44.70881" lon="5.89106">
        <ele>1209.6</ele>
        <time>2023-09-28T11:21:27Z</time>
      </trkpt>
      <trkpt lat="44.70893" lon="5.89108">
        <ele>1208.6</ele>
        <time>2023-09-28T11:21:28Z</time>
      </trkpt>
      <trkpt lat="44.70904" lon="5.8911">
        <ele>1207.5</ele>
        <time>2023-09-28T11:21:29Z</time>
      </trkpt>
      <trkpt lat="44.70916" lon="5.89113">
        <ele>1206.5</ele>
        <time>2023-09-28T11:21:30Z</time>
      </trkpt>
      <trkpt lat="44.70928" lon="5.89117">
        <ele>1205.5</ele>
        <time>2023-09-28T11:21:31Z</time>
      </trkpt>
      <trkpt lat="44.7094" lon="5.8912">
        <ele>1204.6</ele>
        <time>2023-09-28T11:21:32Z</time>
      </trkpt>
      <trkpt lat="44.70953" lon="5.89124">
        <ele>1203.8</ele>
        <time>2023-09-28T11:21:33Z</time>
      </trkpt>
      <trkpt lat="44.70965" lon="5.89127">
        <ele>1203</ele>
        <time>2023-09-28T11:21:34Z</time>
      </trkpt>
      <trkpt lat="44.70977" lon="5.8913">
        <ele>1202.2</ele>
        <time>2023-09-28T11:21:35Z</time>
      </trkpt>
      <trkpt lat="44.70989" lon="5.89133">
        <ele>1201.3</ele>
        <time>2023-09-28T11:21:36Z</time>
      </trkpt>
      <trkpt lat="44.71001" lon="5.89133">
        <ele>1200.3</ele>
        <time>2023-09-28T11:21:37Z</time>
      </trkpt>
      <trkpt lat="44.71013" lon="5.89132">
        <ele>1199.3</ele>
        <time>2023-09-28T11:21:38Z</time>
      </trkpt>
      <trkpt lat="44.71026" lon="5.89133">
        <ele>1198.2</ele>
        <time>2023-09-28T11:21:39Z</time>
      </trkpt>
      <trkpt lat="44.71038" lon="5.89136">
        <ele>1197</ele>
        <time>2023-09-28T11:21:40Z</time>
      </trkpt>
      <trkpt lat="44.71051" lon="5.89142">
        <ele>1195.9</ele>
        <time>2023-09-28T11:21:41Z</time>
      </trkpt>
      <trkpt lat="44.71064" lon="5.89147">
        <ele>1194.7</ele>
        <time>2023-09-28T11:21:42Z</time>
      </trkpt>
      <trkpt lat="44.71077" lon="5.8915">
        <ele>1193.6</ele>
        <time>2023-09-28T11:21:43Z</time>
      </trkpt>
      <trkpt lat="44.71091" lon="5.89151">
        <ele>1192.4</ele>
        <time>2023-09-28T11:21:44Z</time>
      </trkpt>
      <trkpt lat="44.71104" lon="5.89147">
        <ele>1191.2</ele>
        <time>2023-09-28T11:21:45Z</time>
      </trkpt>
      <trkpt lat="44.71118" lon="5.89142">
        <ele>1190.2</ele>
        <time>2023-09-28T11:21:46Z</time>
      </trkpt>
      <trkpt lat="44.7113" lon="5.89134">
        <ele>1189.2</ele>
        <time>2023-09-28T11:21:47Z</time>
      </trkpt>
      <trkpt lat="44.71143" lon="5.89126">
        <ele>1188.3</ele>
        <time>2023-09-28T11:21:48Z</time>
      </trkpt>
      <trkpt lat="44.71155" lon="5.8912">
        <ele>1187.3</ele>
        <time>2023-09-28T11:21:49Z</time>
      </trkpt>
      <trkpt lat="44.71169" lon="5.89117">
        <ele>1186.2</ele>
        <time>2023-09-28T11:21:50Z</time>
      </trkpt>
      <trkpt lat="44.71182" lon="5.89116">
        <ele>1185.1</ele>
        <time>2023-09-28T11:21:51Z</time>
      </trkpt>
      <trkpt lat="44.71196" lon="5.89113">
        <ele>1184.1</ele>
        <time>2023-09-28T11:21:52Z</time>
      </trkpt>
      <trkpt lat="44.71209" lon="5.8911">
        <ele>1183.2</ele>
        <time>2023-09-28T11:21:53Z</time>
      </trkpt>
      <trkpt lat="44.71222" lon="5.89109">
        <ele>1182.3</ele>
        <time>2023-09-28T11:21:54Z</time>
      </trkpt>
      <trkpt lat="44.71233" lon="5.8911">
        <ele>1181.4</ele>
        <time>2023-09-28T11:21:55Z</time>
      </trkpt>
      <trkpt lat="44.71244" lon="5.89109">
        <ele>1180.5</ele>
        <time>2023-09-28T11:21:56Z</time>
      </trkpt>
      <trkpt lat="44.71254" lon="5.89101">
        <ele>1179.4</ele>
        <time>2023-09-28T11:21:57Z</time>
      </trkpt>
      <trkpt lat="44.71263" lon="5.89089">
        <ele>1178.2</ele>
        <time>2023-09-28T11:21:58Z</time>
      </trkpt>
      <trkpt lat="44.71272" lon="5.89078">
        <ele>1177.1</ele>
        <time>2023-09-28T11:21:59Z</time>
      </trkpt>
      <trkpt lat="44.71283" lon="5.8907">
        <ele>1176</ele>
        <time>2023-09-28T11:22:00Z</time>
      </trkpt>
      <trkpt lat="44.71295" lon="5.89065">
        <ele>1174.9</ele>
        <time>2023-09-28T11:22:01Z</time>
      </trkpt>
      <trkpt lat="44.71308" lon="5.89061">
        <ele>1174</ele>
        <time>2023-09-28T11:22:02Z</time>
      </trkpt>
      <trkpt lat="44.7132" lon="5.89058">
        <ele>1173.3</ele>
        <time>2023-09-28T11:22:03Z</time>
      </trkpt>
      <trkpt lat="44.71333" lon="5.89056">
        <ele>1172.7</ele>
        <time>2023-09-28T11:22:04Z</time>
      </trkpt>
      <trkpt lat="44.71345" lon="5.89057">
        <ele>1172.1</ele>
        <time>2023-09-28T11:22:05Z</time>
      </trkpt>
      <trkpt lat="44.71356" lon="5.8906">
        <ele>1171.5</ele>
        <time>2023-09-28T11:22:06Z</time>
      </trkpt>
      <trkpt lat="44.71365" lon="5.89061">
        <ele>1171</ele>
        <time>2023-09-28T11:22:07Z</time>
      </trkpt>
      <trkpt lat="44.71374" lon="5.89058">
        <ele>1170.2</ele>
        <time>2023-09-28T11:22:08Z</time>
      </trkpt>
      <trkpt lat="44.71383" lon="5.89052">
        <ele>1169.2</ele>
        <time>2023-09-28T11:22:09Z</time>
      </trkpt>
      <trkpt lat="44.7139" lon="5.89041">
        <ele>1168.1</ele>
        <time>2023-09-28T11:22:10Z</time>
      </trkpt>
      <trkpt lat="44.71397" lon="5.89029">
        <ele>1166.9</ele>
        <time>2023-09-28T11:22:11Z</time>
      </trkpt>
      <trkpt lat="44.71402" lon="5.89015">
        <ele>1165.9</ele>
        <time>2023-09-28T11:22:12Z</time>
      </trkpt>
      <trkpt lat="44.71408" lon="5.89">
        <ele>1165</ele>
        <time>2023-09-28T11:22:13Z</time>
      </trkpt>
      <trkpt lat="44.71415" lon="5.88986">
        <ele>1164.3</ele>
        <time>2023-09-28T11:22:14Z</time>
      </trkpt>
      <trkpt lat="44.71422" lon="5.88973">
        <ele>1163.7</ele>
        <time>2023-09-28T11:22:15Z</time>
      </trkpt>
      <trkpt lat="44.71429" lon="5.8896">
        <ele>1163.2</ele>
        <time>2023-09-28T11:22:16Z</time>
      </trkpt>
      <trkpt lat="44.71437" lon="5.88948">
        <ele>1162.6</ele>
        <time>2023-09-28T11:22:17Z</time>
      </trkpt>
      <trkpt lat="44.71444" lon="5.88936">
        <ele>1162.1</ele>
        <time>2023-09-28T11:22:18Z</time>
      </trkpt>
      <trkpt lat="44.71449" lon="5.88924">
        <ele>1161.5</ele>
        <time>2023-09-28T11:22:19Z</time>
      </trkpt>
      <trkpt lat="44.71451" lon="5.88911">
        <ele>1160.8</ele>
        <time>2023-09-28T11:22:20Z</time>
      </trkpt>
      <trkpt lat="44.71452" lon="5.88897">
        <ele>1159.9</ele>
        <time>2023-09-28T11:22:21Z</time>
      </trkpt>
      <trkpt lat="44.71453" lon="5.88882">
        <ele>1158.9</ele>
        <time>2023-09-28T11:22:22Z</time>
      </trkpt>
      <trkpt lat="44.71452" lon="5.88867">
        <ele>1157.8</ele>
        <time>2023-09-28T11:22:23Z</time>
      </trkpt>
      <trkpt lat="44.71451" lon="5.88852">
        <ele>1156.9</ele>
        <time>2023-09-28T11:22:24Z</time>
      </trkpt>
      <trkpt lat="44.7145" lon="5.88836">
        <ele>1156</ele>
        <time>2023-09-28T11:22:25Z</time>
      </trkpt>
      <trkpt lat="44.71448" lon="5.88821">
        <ele>1155.1</ele>
        <time>2023-09-28T11:22:26Z</time>
      </trkpt>
      <trkpt lat="44.71444" lon="5.88806">
        <ele>1154.3</ele>
        <time>2023-09-28T11:22:27Z</time>
      </trkpt>
      <trkpt lat="44.71437" lon="5.88793">
        <ele>1153.4</ele>
        <time>2023-09-28T11:22:28Z</time>
      </trkpt>
      <trkpt lat="44.71431" lon="5.88779">
        <ele>1152.4</ele>
        <time>2023-09-28T11:22:29Z</time>
      </trkpt>
      <trkpt lat="44.71424" lon="5.88764">
        <ele>1151.5</ele>
        <time>2023-09-28T11:22:30Z</time>
      </trkpt>
      <trkpt lat="44.71418" lon="5.88749">
        <ele>1150.5</ele>
        <time>2023-09-28T11:22:31Z</time>
      </trkpt>
      <trkpt lat="44.71413" lon="5.88734">
        <ele>1149.5</ele>
        <time>2023-09-28T11:22:32Z</time>
      </trkpt>
      <trkpt lat="44.71409" lon="5.88718">
        <ele>1148.4</ele>
        <time>2023-09-28T11:22:33Z</time>
      </trkpt>
      <trkpt lat="44.71404" lon="5.88701">
        <ele>1147.5</ele>
        <time>2023-09-28T11:22:34Z</time>
      </trkpt>
      <trkpt lat="44.714" lon="5.88684">
        <ele>1146.7</ele>
        <time>2023-09-28T11:22:35Z</time>
      </trkpt>
      <trkpt lat="44.71393" lon="5.88668">
        <ele>1145.9</ele>
        <time>2023-09-28T11:22:36Z</time>
      </trkpt>
      <trkpt lat="44.71386" lon="5.88654">
        <ele>1145.1</ele>
        <time>2023-09-28T11:22:37Z</time>
      </trkpt>
      <trkpt lat="44.7138" lon="5.88642">
        <ele>1144.5</ele>
        <time>2023-09-28T11:22:38Z</time>
      </trkpt>
      <trkpt lat="44.71374" lon="5.88632">
        <ele>1144.2</ele>
        <time>2023-09-28T11:22:39Z</time>
      </trkpt>
      <trkpt lat="44.71369" lon="5.88622">
        <ele>1143.9</ele>
        <time>2023-09-28T11:22:40Z</time>
      </trkpt>
      <trkpt lat="44.71365" lon="5.88613">
        <ele>1143.8</ele>
        <time>2023-09-28T11:22:41Z</time>
      </trkpt>
      <trkpt lat="44.71362" lon="5.88606">
        <ele>1143.6</ele>
        <time>2023-09-28T11:22:42Z</time>
      </trkpt>
      <trkpt lat="44.7136" lon="5.88599">
        <ele>1143.5</ele>
        <time>2023-09-28T11:22:43Z</time>
      </trkpt>
      <trkpt lat="44.7136" lon="5.88593">
        <ele>1143.3</ele>
        <time>2023-09-28T11:22:44Z</time>
      </trkpt>
      <trkpt lat="44.71362" lon="5.88588">
        <ele>1143</ele>
        <time>2023-09-28T11:22:45Z</time>
      </trkpt>
      <trkpt lat="44.71364" lon="5.88585">
        <ele>1142.9</ele>
        <time>2023-09-28T11:22:46Z</time>
      </trkpt>
      <trkpt lat="44.71366" lon="5.88581">
        <ele>1142.7</ele>
        <time>2023-09-28T11:22:47Z</time>
      </trkpt>
      <trkpt lat="44.71366" lon="5.8858">
        <ele>1142.6</ele>
        <time>2023-09-28T11:22:48Z</time>
      </trkpt>
      <trkpt lat="44.71369" lon="5.8858">
        <ele>1142.3</ele>
        <time>2023-09-28T11:22:49Z</time>
      </trkpt>
      <trkpt lat="44.7137" lon="5.8858">
        <ele>1142.2</ele>
        <time>2023-09-28T11:22:50Z</time>
      </trkpt>
      <trkpt lat="44.71371" lon="5.88582">
        <ele>1142</ele>
        <time>2023-09-28T11:22:51Z</time>
      </trkpt>
      <trkpt lat="44.71371" lon="5.88582">
        <ele>1142</ele>
        <time>2023-09-28T11:22:52Z</time>
      </trkpt>
      <trkpt lat="44.71371" lon="5.88582">
        <ele>1142</ele>
        <time>2023-09-28T11:22:53Z</time>
      </trkpt>
      <trkpt lat="44.71371" lon="5.88582">
        <ele>1142</ele>
        <time>2023-09-28T11:22:54Z</time>
      </trkpt>
      <trkpt lat="44.71371" lon="5.88581">
        <ele>1142</ele>
        <time>2023-09-28T11:22:55Z</time>
      </trkpt>
      <trkpt lat="44.71372" lon="5.88581">
        <ele>1142</ele>
        <time>2023-09-28T11:22:56Z</time>
      </trkpt>
      <trkpt lat="44.71372" lon="5.88581">
        <ele>1141.9</ele>
        <time>2023-09-28T11:22:57Z</time>
      </trkpt>
      <trkpt lat="44.71372" lon="5.88582">
        <ele>1141.9</ele>
        <time>2023-09-28T11:22:58Z</time>
      </trkpt>
      <trkpt lat="44.71372" lon="5.88582">
        <ele>1141.9</ele>
        <time>2023-09-28T11:22:59Z</time>
      </trkpt>
      <trkpt lat="44.71373" lon="5.88583">
        <ele>1141.8</ele>
        <time>2023-09-28T11:23:00Z</time>
      </trkpt>
      <trkpt lat="44.71373" lon="5.88584">
        <ele>1141.8</ele>
        <time>2023-09-28T11:23:01Z</time>
      </trkpt>
      <trkpt lat="44.71373" lon="5.88584">
        <ele>1141.7</ele>
        <time>2023-09-28T11:23:02Z</time>
      </trkpt>
      <trkpt lat="44.71373" lon="5.88585">
        <ele>1141.7</ele>
        <time>2023-09-28T11:23:03Z</time>
      </trkpt>
      <trkpt lat="44.71373" lon="5.88586">
        <ele>1141.6</ele>
        <time>2023-09-28T11:23:04Z</time>
      </trkpt>
      <trkpt lat="44.71373" lon="5.88586">
        <ele>1141.6</ele>
        <time>2023-09-28T11:23:05Z</time>
      </trkpt>
      <trkpt lat="44.71373" lon="5.88587">
        <ele>1141.6</ele>
        <time>2023-09-28T11:23:06Z</time>
      </trkpt>
      <trkpt lat="44.71374" lon="5.88588">
        <ele>1141.5</ele>
        <time>2023-09-28T11:23:07Z</time>
      </trkpt>
      <trkpt lat="44.71374" lon="5.88588">
        <ele>1141.5</ele>
        <time>2023-09-28T11:23:08Z</time>
      </trkpt>
      <trkpt lat="44.71374" lon="5.88589">
        <ele>1141.4</ele>
        <time>2023-09-28T11:23:09Z</time>
      </trkpt>
      <trkpt lat="44.71374" lon="5.8859">
        <ele>1141.4</ele>
        <time>2023-09-28T11:23:10Z</time>
      </trkpt>
      <trkpt lat="44.71374" lon="5.8859">
        <ele>1141.4</ele>
        <time>2023-09-28T11:23:11Z</time>
      </trkpt>
      <trkpt lat="44.71374" lon="5.88591">
        <ele>1141.3</ele>
        <time>2023-09-28T11:23:12Z</time>
      </trkpt>
      <trkpt lat="44.71374" lon="5.88592">
        <ele>1141.3</ele>
        <time>2023-09-28T11:23:16Z</time>
      </trkpt>
      <trkpt lat="44.71374" lon="5.88592">
        <ele>1141.2</ele>
        <time>2023-09-28T11:23:17Z</time>
      </trkpt>
      <trkpt lat="44.71375" lon="5.88593">
        <ele>1141.2</ele>
        <time>2023-09-28T11:23:18Z</time>
      </trkpt>
      <trkpt lat="44.71376" lon="5.88597">
        <ele>1141</ele>
        <time>2023-09-28T11:23:19Z</time>
      </trkpt>
      <trkpt lat="44.71378" lon="5.88601">
        <ele>1140.7</ele>
        <time>2023-09-28T11:23:20Z</time>
      </trkpt>
      <trkpt lat="44.71381" lon="5.88605">
        <ele>1140.4</ele>
        <time>2023-09-28T11:23:21Z</time>
      </trkpt>
      <trkpt lat="44.71385" lon="5.88608">
        <ele>1140.1</ele>
        <time>2023-09-28T11:23:22Z</time>
      </trkpt>
      <trkpt lat="44.71389" lon="5.88612">
        <ele>1139.8</ele>
        <time>2023-09-28T11:23:23Z</time>
      </trkpt>
      <trkpt lat="44.71393" lon="5.88616">
        <ele>1139.4</ele>
        <time>2023-09-28T11:23:24Z</time>
      </trkpt>
      <trkpt lat="44.71398" lon="5.88621">
        <ele>1139</ele>
        <time>2023-09-28T11:23:25Z</time>
      </trkpt>
      <trkpt lat="44.71403" lon="5.88626">
        <ele>1138.6</ele>
        <time>2023-09-28T11:23:26Z</time>
      </trkpt>
      <trkpt lat="44.71408" lon="5.88632">
        <ele>1138.2</ele>
        <time>2023-09-28T11:23:27Z</time>
      </trkpt>
      <trkpt lat="44.71414" lon="5.88638">
        <ele>1137.8</ele>
        <time>2023-09-28T11:23:28Z</time>
      </trkpt>
      <trkpt lat="44.71419" lon="5.88644">
        <ele>1137.3</ele>
        <time>2023-09-28T11:23:29Z</time>
      </trkpt>
      <trkpt lat="44.71425" lon="5.8865">
        <ele>1136.9</ele>
        <time>2023-09-28T11:23:30Z</time>
      </trkpt>
      <trkpt lat="44.71431" lon="5.88656">
        <ele>1136.4</ele>
        <time>2023-09-28T11:23:31Z</time>
      </trkpt>
      <trkpt lat="44.71438" lon="5.8866">
        <ele>1135.9</ele>
        <time>2023-09-28T11:23:32Z</time>
      </trkpt>
      <trkpt lat="44.71446" lon="5.88662">
        <ele>1135.3</ele>
        <time>2023-09-28T11:23:33Z</time>
      </trkpt>
      <trkpt lat="44.71454" lon="5.88664">
        <ele>1134.7</ele>
        <time>2023-09-28T11:23:34Z</time>
      </trkpt>
      <trkpt lat="44.71463" lon="5.88665">
        <ele>1134.2</ele>
        <time>2023-09-28T11:23:35Z</time>
      </trkpt>
      <trkpt lat="44.71471" lon="5.88666">
        <ele>1133.6</ele>
        <time>2023-09-28T11:23:36Z</time>
      </trkpt>
      <trkpt lat="44.7148" lon="5.88667">
        <ele>1133.1</ele>
        <time>2023-09-28T11:23:37Z</time>
      </trkpt>
      <trkpt lat="44.71489" lon="5.8867">
        <ele>1132.6</ele>
        <time>2023-09-28T11:23:38Z</time>
      </trkpt>
      <trkpt lat="44.71498" lon="5.88675">
        <ele>1132.1</ele>
        <time>2023-09-28T11:23:39Z</time>
      </trkpt>
      <trkpt lat="44.71505" lon="5.88682">
        <ele>1131.6</ele>
        <time>2023-09-28T11:23:40Z</time>
      </trkpt>
      <trkpt lat="44.71513" lon="5.8869">
        <ele>1131.1</ele>
        <time>2023-09-28T11:23:41Z</time>
      </trkpt>
      <trkpt lat="44.7152" lon="5.887">
        <ele>1130.5</ele>
        <time>2023-09-28T11:23:42Z</time>
      </trkpt>
      <trkpt lat="44.71527" lon="5.88708">
        <ele>1130</ele>
        <time>2023-09-28T11:23:43Z</time>
      </trkpt>
      <trkpt lat="44.71535" lon="5.88716">
        <ele>1129.5</ele>
        <time>2023-09-28T11:23:44Z</time>
      </trkpt>
      <trkpt lat="44.71544" lon="5.88723">
        <ele>1129</ele>
        <time>2023-09-28T11:23:45Z</time>
      </trkpt>
      <trkpt lat="44.71553" lon="5.88729">
        <ele>1128.4</ele>
        <time>2023-09-28T11:23:46Z</time>
      </trkpt>
      <trkpt lat="44.71563" lon="5.88733">
        <ele>1127.8</ele>
        <time>2023-09-28T11:23:47Z</time>
      </trkpt>
      <trkpt lat="44.71573" lon="5.88735">
        <ele>1127.2</ele>
        <time>2023-09-28T11:23:48Z</time>
      </trkpt>
      <trkpt lat="44.71583" lon="5.88735">
        <ele>1126.7</ele>
        <time>2023-09-28T11:23:49Z</time>
      </trkpt>
      <trkpt lat="44.71594" lon="5.88734">
        <ele>1126.1</ele>
        <time>2023-09-28T11:23:50Z</time>
      </trkpt>
      <trkpt lat="44.71604" lon="5.88733">
        <ele>1125.5</ele>
        <time>2023-09-28T11:23:51Z</time>
      </trkpt>
      <trkpt lat="44.71614" lon="5.88731">
        <ele>1124.9</ele>
        <time>2023-09-28T11:23:52Z</time>
      </trkpt>
      <trkpt lat="44.71625" lon="5.88728">
        <ele>1124.3</ele>
        <time>2023-09-28T11:23:53Z</time>
      </trkpt>
      <trkpt lat="44.71635" lon="5.88726">
        <ele>1123.8</ele>
        <time>2023-09-28T11:23:54Z</time>
      </trkpt>
      <trkpt lat="44.71646" lon="5.88725">
        <ele>1123.2</ele>
        <time>2023-09-28T11:23:55Z</time>
      </trkpt>
      <trkpt lat="44.71657" lon="5.88726">
        <ele>1122.8</ele>
        <time>2023-09-28T11:23:56Z</time>
      </trkpt>
      <trkpt lat="44.71668" lon="5.88728">
        <ele>1122.3</ele>
        <time>2023-09-28T11:23:57Z</time>
      </trkpt>
      <trkpt lat="44.71678" lon="5.88731">
        <ele>1122</ele>
        <time>2023-09-28T11:23:58Z</time>
      </trkpt>
      <trkpt lat="44.71688" lon="5.88735">
        <ele>1121.5</ele>
        <time>2023-09-28T11:23:59Z</time>
      </trkpt>
      <trkpt lat="44.71697" lon="5.88742">
        <ele>1121</ele>
        <time>2023-09-28T11:24:00Z</time>
      </trkpt>
      <trkpt lat="44.71706" lon="5.88751">
        <ele>1120.5</ele>
        <time>2023-09-28T11:24:01Z</time>
      </trkpt>
      <trkpt lat="44.71715" lon="5.88759">
        <ele>1120</ele>
        <time>2023-09-28T11:24:02Z</time>
      </trkpt>
      <trkpt lat="44.71724" lon="5.88765">
        <ele>1119.4</ele>
        <time>2023-09-28T11:24:03Z</time>
      </trkpt>
      <trkpt lat="44.71734" lon="5.88771">
        <ele>1118.9</ele>
        <time>2023-09-28T11:24:04Z</time>
      </trkpt>
      <trkpt lat="44.71744" lon="5.88776">
        <ele>1118.3</ele>
        <time>2023-09-28T11:24:05Z</time>
      </trkpt>
      <trkpt lat="44.71753" lon="5.88784">
        <ele>1117.7</ele>
        <time>2023-09-28T11:24:06Z</time>
      </trkpt>
      <trkpt lat="44.71762" lon="5.88794">
        <ele>1117.1</ele>
        <time>2023-09-28T11:24:07Z</time>
      </trkpt>
      <trkpt lat="44.71769" lon="5.88806">
        <ele>1116.5</ele>
        <time>2023-09-28T11:24:08Z</time>
      </trkpt>
      <trkpt lat="44.71776" lon="5.88818">
        <ele>1116</ele>
        <time>2023-09-28T11:24:09Z</time>
      </trkpt>
      <trkpt lat="44.71784" lon="5.88826">
        <ele>1115.6</ele>
        <time>2023-09-28T11:24:10Z</time>
      </trkpt>
      <trkpt lat="44.71792" lon="5.88832">
        <ele>1115.1</ele>
        <time>2023-09-28T11:24:11Z</time>
      </trkpt>
      <trkpt lat="44.71801" lon="5.88834">
        <ele>1114.5</ele>
        <time>2023-09-28T11:24:12Z</time>
      </trkpt>
      <trkpt lat="44.7181" lon="5.88833">
        <ele>1113.9</ele>
        <time>2023-09-28T11:24:13Z</time>
      </trkpt>
      <trkpt lat="44.7182" lon="5.88829">
        <ele>1113.1</ele>
        <time>2023-09-28T11:24:14Z</time>
      </trkpt>
      <trkpt lat="44.71828" lon="5.88824">
        <ele>1112.9</ele>
        <time>2023-09-28T11:24:15Z</time>
      </trkpt>
      <trkpt lat="44.71836" lon="5.88821">
        <ele>1112.8</ele>
        <time>2023-09-28T11:24:16Z</time>
      </trkpt>
      <trkpt lat="44.71843" lon="5.88822">
        <ele>1112.7</ele>
        <time>2023-09-28T11:24:17Z</time>
      </trkpt>
      <trkpt lat="44.71848" lon="5.88825">
        <ele>1112.6</ele>
        <time>2023-09-28T11:24:18Z</time>
      </trkpt>
      <trkpt lat="44.71852" lon="5.8883">
        <ele>1112.3</ele>
        <time>2023-09-28T11:24:19Z</time>
      </trkpt>
      <trkpt lat="44.71856" lon="5.88835">
        <ele>1112</ele>
        <time>2023-09-28T11:24:20Z</time>
      </trkpt>
      <trkpt lat="44.71858" lon="5.8884">
        <ele>1111.8</ele>
        <time>2023-09-28T11:24:21Z</time>
      </trkpt>
      <trkpt lat="44.71858" lon="5.88844">
        <ele>1111.6</ele>
        <time>2023-09-28T11:24:22Z</time>
      </trkpt>
      <trkpt lat="44.71858" lon="5.88845">
        <ele>1111.6</ele>
        <time>2023-09-28T11:24:23Z</time>
      </trkpt>
      <trkpt lat="44.71859" lon="5.88849">
        <ele>1111.4</ele>
        <time>2023-09-28T11:24:24Z</time>
      </trkpt>
      <trkpt lat="44.7186" lon="5.88851">
        <ele>1111.3</ele>
        <time>2023-09-28T11:24:25Z</time>
      </trkpt>
      <trkpt lat="44.71862" lon="5.88856">
        <ele>1111.1</ele>
        <time>2023-09-28T11:24:26Z</time>
      </trkpt>
      <trkpt lat="44.71864" lon="5.8886">
        <ele>1110.8</ele>
        <time>2023-09-28T11:24:27Z</time>
      </trkpt>
      <trkpt lat="44.71866" lon="5.88866">
        <ele>1110.6</ele>
        <time>2023-09-28T11:24:28Z</time>
      </trkpt>
      <trkpt lat="44.71869" lon="5.88873">
        <ele>1110.3</ele>
        <time>2023-09-28T11:24:29Z</time>
      </trkpt>
      <trkpt lat="44.71871" lon="5.8888">
        <ele>1109.9</ele>
        <time>2023-09-28T11:24:30Z</time>
      </trkpt>
      <trkpt lat="44.71875" lon="5.88887">
        <ele>1109.6</ele>
        <time>2023-09-28T11:24:31Z</time>
      </trkpt>
      <trkpt lat="44.71878" lon="5.88895">
        <ele>1109.3</ele>
        <time>2023-09-28T11:24:32Z</time>
      </trkpt>
      <trkpt lat="44.71881" lon="5.88904">
        <ele>1109</ele>
        <time>2023-09-28T11:24:33Z</time>
      </trkpt>
      <trkpt lat="44.71885" lon="5.88913">
        <ele>1108.7</ele>
        <time>2023-09-28T11:24:34Z</time>
      </trkpt>
      <trkpt lat="44.71888" lon="5.88922">
        <ele>1108.5</ele>
        <time>2023-09-28T11:24:35Z</time>
      </trkpt>
      <trkpt lat="44.71892" lon="5.88931">
        <ele>1108.2</ele>
        <time>2023-09-28T11:24:36Z</time>
      </trkpt>
      <trkpt lat="44.71896" lon="5.8894">
        <ele>1107.9</ele>
        <time>2023-09-28T11:24:37Z</time>
      </trkpt>
      <trkpt lat="44.71901" lon="5.8895">
        <ele>1107.7</ele>
        <time>2023-09-28T11:24:38Z</time>
      </trkpt>
      <trkpt lat="44.71905" lon="5.88959">
        <ele>1107.4</ele>
        <time>2023-09-28T11:24:39Z</time>
      </trkpt>
      <trkpt lat="44.71909" lon="5.88967">
        <ele>1107.1</ele>
        <time>2023-09-28T11:24:40Z</time>
      </trkpt>
      <trkpt lat="44.71914" lon="5.88976">
        <ele>1106.9</ele>
        <time>2023-09-28T11:24:41Z</time>
      </trkpt>
      <trkpt lat="44.7192" lon="5.88983">
        <ele>1106.7</ele>
        <time>2023-09-28T11:24:42Z</time>
      </trkpt>
      <trkpt lat="44.71925" lon="5.88992">
        <ele>1106.4</ele>
        <time>2023-09-28T11:24:43Z</time>
      </trkpt>
      <trkpt lat="44.7193" lon="5.88999">
        <ele>1106.2</ele>
        <time>2023-09-28T11:24:44Z</time>
      </trkpt>
      <trkpt lat="44.71935" lon="5.89008">
        <ele>1105.9</ele>
        <time>2023-09-28T11:24:45Z</time>
      </trkpt>
      <trkpt lat="44.7194" lon="5.89017">
        <ele>1105.7</ele>
        <time>2023-09-28T11:24:46Z</time>
      </trkpt>
      <trkpt lat="44.71944" lon="5.89026">
        <ele>1105.4</ele>
        <time>2023-09-28T11:24:47Z</time>
      </trkpt>
      <trkpt lat="44.71949" lon="5.89034">
        <ele>1105.2</ele>
        <time>2023-09-28T11:24:48Z</time>
      </trkpt>
      <trkpt lat="44.71954" lon="5.89042">
        <ele>1104.9</ele>
        <time>2023-09-28T11:24:49Z</time>
      </trkpt>
      <trkpt lat="44.71959" lon="5.8905">
        <ele>1104.6</ele>
        <time>2023-09-28T11:24:50Z</time>
      </trkpt>
      <trkpt lat="44.71964" lon="5.89059">
        <ele>1104.3</ele>
        <time>2023-09-28T11:24:51Z</time>
      </trkpt>
      <trkpt lat="44.71969" lon="5.89067">
        <ele>1104</ele>
        <time>2023-09-28T11:24:52Z</time>
      </trkpt>
      <trkpt lat="44.71974" lon="5.89076">
        <ele>1103.7</ele>
        <time>2023-09-28T11:24:53Z</time>
      </trkpt>
      <trkpt lat="44.71979" lon="5.89084">
        <ele>1103.3</ele>
        <time>2023-09-28T11:24:54Z</time>
      </trkpt>
      <trkpt lat="44.71984" lon="5.89094">
        <ele>1103</ele>
        <time>2023-09-28T11:24:55Z</time>
      </trkpt>
      <trkpt lat="44.71989" lon="5.89103">
        <ele>1102.6</ele>
        <time>2023-09-28T11:24:56Z</time>
      </trkpt>
      <trkpt lat="44.71994" lon="5.89113">
        <ele>1102.3</ele>
        <time>2023-09-28T11:24:57Z</time>
      </trkpt>
      <trkpt lat="44.71998" lon="5.89123">
        <ele>1101.9</ele>
        <time>2023-09-28T11:24:58Z</time>
      </trkpt>
      <trkpt lat="44.72004" lon="5.89132">
        <ele>1101.6</ele>
        <time>2023-09-28T11:24:59Z</time>
      </trkpt>
      <trkpt lat="44.7201" lon="5.89141">
        <ele>1101.3</ele>
        <time>2023-09-28T11:25:00Z</time>
      </trkpt>
      <trkpt lat="44.72016" lon="5.8915">
        <ele>1101</ele>
        <time>2023-09-28T11:25:01Z</time>
      </trkpt>
      <trkpt lat="44.72023" lon="5.89159">
        <ele>1100.7</ele>
        <time>2023-09-28T11:25:02Z</time>
      </trkpt>
      <trkpt lat="44.7203" lon="5.89167">
        <ele>1100.4</ele>
        <time>2023-09-28T11:25:03Z</time>
      </trkpt>
      <trkpt lat="44.72036" lon="5.89176">
        <ele>1100.1</ele>
        <time>2023-09-28T11:25:04Z</time>
      </trkpt>
      <trkpt lat="44.72043" lon="5.89184">
        <ele>1099.8</ele>
        <time>2023-09-28T11:25:05Z</time>
      </trkpt>
      <trkpt lat="44.7205" lon="5.89193">
        <ele>1099.5</ele>
        <time>2023-09-28T11:25:06Z</time>
      </trkpt>
      <trkpt lat="44.72056" lon="5.89201">
        <ele>1099.3</ele>
        <time>2023-09-28T11:25:07Z</time>
      </trkpt>
      <trkpt lat="44.72063" lon="5.89209">
        <ele>1099.1</ele>
        <time>2023-09-28T11:25:08Z</time>
      </trkpt>
      <trkpt lat="44.7207" lon="5.89217">
        <ele>1099</ele>
        <time>2023-09-28T11:25:09Z</time>
      </trkpt>
      <trkpt lat="44.72077" lon="5.89224">
        <ele>1098.8</ele>
        <time>2023-09-28T11:25:10Z</time>
      </trkpt>
      <trkpt lat="44.72084" lon="5.89232">
        <ele>1098.7</ele>
        <time>2023-09-28T11:25:11Z</time>
      </trkpt>
      <trkpt lat="44.7209" lon="5.8924">
        <ele>1098.6</ele>
        <time>2023-09-28T11:25:12Z</time>
      </trkpt>
      <trkpt lat="44.72097" lon="5.89247">
        <ele>1098.6</ele>
        <time>2023-09-28T11:25:13Z</time>
      </trkpt>
      <trkpt lat="44.72103" lon="5.89254">
        <ele>1098.5</ele>
        <time>2023-09-28T11:25:14Z</time>
      </trkpt>
      <trkpt lat="44.7211" lon="5.89261">
        <ele>1098.4</ele>
        <time>2023-09-28T11:25:15Z</time>
      </trkpt>
      <trkpt lat="44.72116" lon="5.89267">
        <ele>1098.4</ele>
        <time>2023-09-28T11:25:16Z</time>
      </trkpt>
      <trkpt lat="44.72122" lon="5.89274">
        <ele>1098.3</ele>
        <time>2023-09-28T11:25:17Z</time>
      </trkpt>
      <trkpt lat="44.72129" lon="5.89281">
        <ele>1098.2</ele>
        <time>2023-09-28T11:25:18Z</time>
      </trkpt>
      <trkpt lat="44.72135" lon="5.89287">
        <ele>1098.1</ele>
        <time>2023-09-28T11:25:19Z</time>
      </trkpt>
      <trkpt lat="44.72141" lon="5.89293">
        <ele>1097.9</ele>
        <time>2023-09-28T11:25:20Z</time>
      </trkpt>
      <trkpt lat="44.72148" lon="5.89299">
        <ele>1097.7</ele>
        <time>2023-09-28T11:25:21Z</time>
      </trkpt>
      <trkpt lat="44.72154" lon="5.89305">
        <ele>1097.5</ele>
        <time>2023-09-28T11:25:22Z</time>
      </trkpt>
      <trkpt lat="44.72161" lon="5.8931">
        <ele>1097.4</ele>
        <time>2023-09-28T11:25:23Z</time>
      </trkpt>
      <trkpt lat="44.72168" lon="5.89316">
        <ele>1097.2</ele>
        <time>2023-09-28T11:25:24Z</time>
      </trkpt>
      <trkpt lat="44.72174" lon="5.89322">
        <ele>1097</ele>
        <time>2023-09-28T11:25:25Z</time>
      </trkpt>
      <trkpt lat="44.72181" lon="5.89328">
        <ele>1096.9</ele>
        <time>2023-09-28T11:25:26Z</time>
      </trkpt>
      <trkpt lat="44.72187" lon="5.89334">
        <ele>1096.7</ele>
        <time>2023-09-28T11:25:27Z</time>
      </trkpt>
      <trkpt lat="44.72193" lon="5.89342">
        <ele>1096.6</ele>
        <time>2023-09-28T11:25:28Z</time>
      </trkpt>
      <trkpt lat="44.72198" lon="5.8935">
        <ele>1096.5</ele>
        <time>2023-09-28T11:25:29Z</time>
      </trkpt>
      <trkpt lat="44.72203" lon="5.89359">
        <ele>1096.3</ele>
        <time>2023-09-28T11:25:30Z</time>
      </trkpt>
      <trkpt lat="44.72208" lon="5.89367">
        <ele>1096.2</ele>
        <time>2023-09-28T11:25:31Z</time>
      </trkpt>
      <trkpt lat="44.72213" lon="5.89376">
        <ele>1096.1</ele>
        <time>2023-09-28T11:25:32Z</time>
      </trkpt>
      <trkpt lat="44.72218" lon="5.89384">
        <ele>1096</ele>
        <time>2023-09-28T11:25:33Z</time>
      </trkpt>
      <trkpt lat="44.72224" lon="5.89392">
        <ele>1095.8</ele>
        <time>2023-09-28T11:25:34Z</time>
      </trkpt>
      <trkpt lat="44.72229" lon="5.89401">
        <ele>1095.7</ele>
        <time>2023-09-28T11:25:35Z</time>
      </trkpt>
      <trkpt lat="44.72233" lon="5.8941">
        <ele>1095.6</ele>
        <time>2023-09-28T11:25:36Z</time>
      </trkpt>
      <trkpt lat="44.72236" lon="5.8942">
        <ele>1095.4</ele>
        <time>2023-09-28T11:25:37Z</time>
      </trkpt>
      <trkpt lat="44.72243" lon="5.8944">
        <ele>1095.1</ele>
        <time>2023-09-28T11:25:39Z</time>
      </trkpt>
      <trkpt lat="44.72247" lon="5.89449">
        <ele>1095</ele>
        <time>2023-09-28T11:25:40Z</time>
      </trkpt>
      <trkpt lat="44.72252" lon="5.89457">
        <ele>1094.8</ele>
        <time>2023-09-28T11:25:41Z</time>
      </trkpt>
      <trkpt lat="44.72257" lon="5.89465">
        <ele>1094.6</ele>
        <time>2023-09-28T11:25:42Z</time>
      </trkpt>
      <trkpt lat="44.72262" lon="5.89473">
        <ele>1094.5</ele>
        <time>2023-09-28T11:25:43Z</time>
      </trkpt>
      <trkpt lat="44.72267" lon="5.89481">
        <ele>1094.3</ele>
        <time>2023-09-28T11:25:44Z</time>
      </trkpt>
      <trkpt lat="44.72272" lon="5.8949">
        <ele>1094.1</ele>
        <time>2023-09-28T11:25:45Z</time>
      </trkpt>
      <trkpt lat="44.72276" lon="5.89498">
        <ele>1093.9</ele>
        <time>2023-09-28T11:25:46Z</time>
      </trkpt>
      <trkpt lat="44.72281" lon="5.89507">
        <ele>1093.6</ele>
        <time>2023-09-28T11:25:47Z</time>
      </trkpt>
      <trkpt lat="44.72285" lon="5.89517">
        <ele>1093.3</ele>
        <time>2023-09-28T11:25:48Z</time>
      </trkpt>
      <trkpt lat="44.7229" lon="5.89526">
        <ele>1093.1</ele>
        <time>2023-09-28T11:25:49Z</time>
      </trkpt>
      <trkpt lat="44.72295" lon="5.89535">
        <ele>1092.8</ele>
        <time>2023-09-28T11:25:50Z</time>
      </trkpt>
      <trkpt lat="44.72301" lon="5.89543">
        <ele>1092.5</ele>
        <time>2023-09-28T11:25:51Z</time>
      </trkpt>
      <trkpt lat="44.72307" lon="5.8955">
        <ele>1092.2</ele>
        <time>2023-09-28T11:25:52Z</time>
      </trkpt>
      <trkpt lat="44.72314" lon="5.89556">
        <ele>1092</ele>
        <time>2023-09-28T11:25:53Z</time>
      </trkpt>
      <trkpt lat="44.72321" lon="5.89562">
        <ele>1091.7</ele>
        <time>2023-09-28T11:25:54Z</time>
      </trkpt>
      <trkpt lat="44.72328" lon="5.89567">
        <ele>1091.5</ele>
        <time>2023-09-28T11:25:55Z</time>
      </trkpt>
      <trkpt lat="44.72335" lon="5.89572">
        <ele>1091.2</ele>
        <time>2023-09-28T11:25:56Z</time>
      </trkpt>
      <trkpt lat="44.72343" lon="5.89575">
        <ele>1091</ele>
        <time>2023-09-28T11:25:57Z</time>
      </trkpt>
      <trkpt lat="44.7235" lon="5.89579">
        <ele>1090.7</ele>
        <time>2023-09-28T11:25:58Z</time>
      </trkpt>
      <trkpt lat="44.72358" lon="5.89583">
        <ele>1090.4</ele>
        <time>2023-09-28T11:25:59Z</time>
      </trkpt>
      <trkpt lat="44.72366" lon="5.89588">
        <ele>1090.1</ele>
        <time>2023-09-28T11:26:00Z</time>
      </trkpt>
      <trkpt lat="44.72373" lon="5.89592">
        <ele>1089.8</ele>
        <time>2023-09-28T11:26:01Z</time>
      </trkpt>
      <trkpt lat="44.72381" lon="5.89597">
        <ele>1089.4</ele>
        <time>2023-09-28T11:26:02Z</time>
      </trkpt>
      <trkpt lat="44.72388" lon="5.89602">
        <ele>1089.2</ele>
        <time>2023-09-28T11:26:03Z</time>
      </trkpt>
      <trkpt lat="44.72396" lon="5.89606">
        <ele>1088.9</ele>
        <time>2023-09-28T11:26:04Z</time>
      </trkpt>
      <trkpt lat="44.72403" lon="5.89611">
        <ele>1088.6</ele>
        <time>2023-09-28T11:26:05Z</time>
      </trkpt>
      <trkpt lat="44.72411" lon="5.89616">
        <ele>1088.3</ele>
        <time>2023-09-28T11:26:06Z</time>
      </trkpt>
      <trkpt lat="44.72418" lon="5.89621">
        <ele>1088.1</ele>
        <time>2023-09-28T11:26:07Z</time>
      </trkpt>
      <trkpt lat="44.72426" lon="5.89626">
        <ele>1087.8</ele>
        <time>2023-09-28T11:26:08Z</time>
      </trkpt>
      <trkpt lat="44.72433" lon="5.8963">
        <ele>1087.6</ele>
        <time>2023-09-28T11:26:09Z</time>
      </trkpt>
      <trkpt lat="44.72441" lon="5.89634">
        <ele>1087.3</ele>
        <time>2023-09-28T11:26:10Z</time>
      </trkpt>
      <trkpt lat="44.72449" lon="5.89639">
        <ele>1087.1</ele>
        <time>2023-09-28T11:26:11Z</time>
      </trkpt>
      <trkpt lat="44.72456" lon="5.89643">
        <ele>1086.8</ele>
        <time>2023-09-28T11:26:12Z</time>
      </trkpt>
      <trkpt lat="44.72465" lon="5.89646">
        <ele>1086.5</ele>
        <time>2023-09-28T11:26:13Z</time>
      </trkpt>
      <trkpt lat="44.72473" lon="5.8965">
        <ele>1086.3</ele>
        <time>2023-09-28T11:26:14Z</time>
      </trkpt>
      <trkpt lat="44.72481" lon="5.89653">
        <ele>1086</ele>
        <time>2023-09-28T11:26:15Z</time>
      </trkpt>
      <trkpt lat="44.72489" lon="5.89656">
        <ele>1085.8</ele>
        <time>2023-09-28T11:26:16Z</time>
      </trkpt>
      <trkpt lat="44.72497" lon="5.89658">
        <ele>1085.5</ele>
        <time>2023-09-28T11:26:17Z</time>
      </trkpt>
      <trkpt lat="44.72506" lon="5.8966">
        <ele>1085.2</ele>
        <time>2023-09-28T11:26:18Z</time>
      </trkpt>
      <trkpt lat="44.72514" lon="5.89662">
        <ele>1084.8</ele>
        <time>2023-09-28T11:26:19Z</time>
      </trkpt>
      <trkpt lat="44.72522" lon="5.89663">
        <ele>1084.4</ele>
        <time>2023-09-28T11:26:20Z</time>
      </trkpt>
      <trkpt lat="44.72531" lon="5.89663">
        <ele>1084.1</ele>
        <time>2023-09-28T11:26:21Z</time>
      </trkpt>
      <trkpt lat="44.7254" lon="5.89667">
        <ele>1083.7</ele>
        <time>2023-09-28T11:26:22Z</time>
      </trkpt>
      <trkpt lat="44.72549" lon="5.8967">
        <ele>1083.2</ele>
        <time>2023-09-28T11:26:23Z</time>
      </trkpt>
      <trkpt lat="44.72557" lon="5.89674">
        <ele>1082.8</ele>
        <time>2023-09-28T11:26:24Z</time>
      </trkpt>
      <trkpt lat="44.72566" lon="5.8968">
        <ele>1082.3</ele>
        <time>2023-09-28T11:26:25Z</time>
      </trkpt>
      <trkpt lat="44.72574" lon="5.89686">
        <ele>1081.8</ele>
        <time>2023-09-28T11:26:26Z</time>
      </trkpt>
      <trkpt lat="44.72583" lon="5.89691">
        <ele>1081.3</ele>
        <time>2023-09-28T11:26:27Z</time>
      </trkpt>
      <trkpt lat="44.72591" lon="5.89696">
        <ele>1080.8</ele>
        <time>2023-09-28T11:26:28Z</time>
      </trkpt>
      <trkpt lat="44.72601" lon="5.89702">
        <ele>1080.3</ele>
        <time>2023-09-28T11:26:29Z</time>
      </trkpt>
      <trkpt lat="44.72609" lon="5.89708">
        <ele>1079.9</ele>
        <time>2023-09-28T11:26:30Z</time>
      </trkpt>
      <trkpt lat="44.72617" lon="5.89715">
        <ele>1079.5</ele>
        <time>2023-09-28T11:26:31Z</time>
      </trkpt>
      <trkpt lat="44.72626" lon="5.89719">
        <ele>1079</ele>
        <time>2023-09-28T11:26:32Z</time>
      </trkpt>
      <trkpt lat="44.72636" lon="5.89722">
        <ele>1078.4</ele>
        <time>2023-09-28T11:26:33Z</time>
      </trkpt>
      <trkpt lat="44.72647" lon="5.89724">
        <ele>1077.9</ele>
        <time>2023-09-28T11:26:34Z</time>
      </trkpt>
      <trkpt lat="44.72657" lon="5.89726">
        <ele>1077.4</ele>
        <time>2023-09-28T11:26:35Z</time>
      </trkpt>
      <trkpt lat="44.72666" lon="5.89726">
        <ele>1076.9</ele>
        <time>2023-09-28T11:26:36Z</time>
      </trkpt>
      <trkpt lat="44.72676" lon="5.89728">
        <ele>1076.4</ele>
        <time>2023-09-28T11:26:37Z</time>
      </trkpt>
      <trkpt lat="44.72687" lon="5.89731">
        <ele>1075.8</ele>
        <time>2023-09-28T11:26:38Z</time>
      </trkpt>
      <trkpt lat="44.72696" lon="5.89732">
        <ele>1075.4</ele>
        <time>2023-09-28T11:26:39Z</time>
      </trkpt>
      <trkpt lat="44.72707" lon="5.89732">
        <ele>1074.9</ele>
        <time>2023-09-28T11:26:40Z</time>
      </trkpt>
      <trkpt lat="44.72717" lon="5.89732">
        <ele>1074.4</ele>
        <time>2023-09-28T11:26:41Z</time>
      </trkpt>
      <trkpt lat="44.72727" lon="5.89732">
        <ele>1074</ele>
        <time>2023-09-28T11:26:42Z</time>
      </trkpt>
      <trkpt lat="44.72737" lon="5.89732">
        <ele>1073.5</ele>
        <time>2023-09-28T11:26:43Z</time>
      </trkpt>
      <trkpt lat="44.72747" lon="5.89732">
        <ele>1073.1</ele>
        <time>2023-09-28T11:26:44Z</time>
      </trkpt>
      <trkpt lat="44.72756" lon="5.89732">
        <ele>1072.6</ele>
        <time>2023-09-28T11:26:45Z</time>
      </trkpt>
      <trkpt lat="44.72766" lon="5.89734">
        <ele>1072.1</ele>
        <time>2023-09-28T11:26:46Z</time>
      </trkpt>
      <trkpt lat="44.72776" lon="5.89735">
        <ele>1071.6</ele>
        <time>2023-09-28T11:26:47Z</time>
      </trkpt>
      <trkpt lat="44.72787" lon="5.89735">
        <ele>1071</ele>
        <time>2023-09-28T11:26:48Z</time>
      </trkpt>
      <trkpt lat="44.72797" lon="5.89735">
        <ele>1070.5</ele>
        <time>2023-09-28T11:26:49Z</time>
      </trkpt>
      <trkpt lat="44.72806" lon="5.89734">
        <ele>1069.9</ele>
        <time>2023-09-28T11:26:50Z</time>
      </trkpt>
      <trkpt lat="44.72815" lon="5.89731">
        <ele>1069.4</ele>
        <time>2023-09-28T11:26:51Z</time>
      </trkpt>
      <trkpt lat="44.72826" lon="5.89727">
        <ele>1068.7</ele>
        <time>2023-09-28T11:26:52Z</time>
      </trkpt>
      <trkpt lat="44.72836" lon="5.89724">
        <ele>1068.1</ele>
        <time>2023-09-28T11:26:53Z</time>
      </trkpt>
      <trkpt lat="44.72847" lon="5.89723">
        <ele>1067.5</ele>
        <time>2023-09-28T11:26:54Z</time>
      </trkpt>
      <trkpt lat="44.72858" lon="5.89724">
        <ele>1067</ele>
        <time>2023-09-28T11:26:55Z</time>
      </trkpt>
      <trkpt lat="44.72869" lon="5.89728">
        <ele>1066.5</ele>
        <time>2023-09-28T11:26:56Z</time>
      </trkpt>
      <trkpt lat="44.72881" lon="5.89732">
        <ele>1066</ele>
        <time>2023-09-28T11:26:57Z</time>
      </trkpt>
      <trkpt lat="44.72892" lon="5.89735">
        <ele>1065.7</ele>
        <time>2023-09-28T11:26:58Z</time>
      </trkpt>
      <trkpt lat="44.72903" lon="5.89735">
        <ele>1065.3</ele>
        <time>2023-09-28T11:26:59Z</time>
      </trkpt>
      <trkpt lat="44.72913" lon="5.89732">
        <ele>1064.8</ele>
        <time>2023-09-28T11:27:00Z</time>
      </trkpt>
      <trkpt lat="44.72923" lon="5.89727">
        <ele>1064.3</ele>
        <time>2023-09-28T11:27:01Z</time>
      </trkpt>
      <trkpt lat="44.72932" lon="5.8972">
        <ele>1063.8</ele>
        <time>2023-09-28T11:27:02Z</time>
      </trkpt>
      <trkpt lat="44.7294" lon="5.89714">
        <ele>1063.2</ele>
        <time>2023-09-28T11:27:03Z</time>
      </trkpt>
      <trkpt lat="44.72949" lon="5.89707">
        <ele>1062.7</ele>
        <time>2023-09-28T11:27:04Z</time>
      </trkpt>
      <trkpt lat="44.72957" lon="5.897">
        <ele>1062.2</ele>
        <time>2023-09-28T11:27:05Z</time>
      </trkpt>
      <trkpt lat="44.72965" lon="5.89693">
        <ele>1061.9</ele>
        <time>2023-09-28T11:27:06Z</time>
      </trkpt>
      <trkpt lat="44.72973" lon="5.89686">
        <ele>1061.5</ele>
        <time>2023-09-28T11:27:07Z</time>
      </trkpt>
      <trkpt lat="44.72983" lon="5.89682">
        <ele>1061.1</ele>
        <time>2023-09-28T11:27:08Z</time>
      </trkpt>
      <trkpt lat="44.72994" lon="5.89678">
        <ele>1060.8</ele>
        <time>2023-09-28T11:27:09Z</time>
      </trkpt>
      <trkpt lat="44.73004" lon="5.89674">
        <ele>1060.4</ele>
        <time>2023-09-28T11:27:10Z</time>
      </trkpt>
      <trkpt lat="44.73011" lon="5.89669">
        <ele>1060.2</ele>
        <time>2023-09-28T11:27:11Z</time>
      </trkpt>
      <trkpt lat="44.73019" lon="5.89664">
        <ele>1059.8</ele>
        <time>2023-09-28T11:27:12Z</time>
      </trkpt>
      <trkpt lat="44.73027" lon="5.8966">
        <ele>1059.4</ele>
        <time>2023-09-28T11:27:13Z</time>
      </trkpt>
      <trkpt lat="44.73036" lon="5.89655">
        <ele>1058.9</ele>
        <time>2023-09-28T11:27:14Z</time>
      </trkpt>
      <trkpt lat="44.73048" lon="5.89651">
        <ele>1058.2</ele>
        <time>2023-09-28T11:27:15Z</time>
      </trkpt>
      <trkpt lat="44.73059" lon="5.89648">
        <ele>1057.5</ele>
        <time>2023-09-28T11:27:16Z</time>
      </trkpt>
      <trkpt lat="44.7307" lon="5.89645">
        <ele>1057.1</ele>
        <time>2023-09-28T11:27:17Z</time>
      </trkpt>
      <trkpt lat="44.7308" lon="5.89643">
        <ele>1056.7</ele>
        <time>2023-09-28T11:27:18Z</time>
      </trkpt>
      <trkpt lat="44.73091" lon="5.89641">
        <ele>1056.4</ele>
        <time>2023-09-28T11:27:19Z</time>
      </trkpt>
      <trkpt lat="44.73102" lon="5.89639">
        <ele>1056.1</ele>
        <time>2023-09-28T11:27:20Z</time>
      </trkpt>
      <trkpt lat="44.73112" lon="5.89638">
        <ele>1055.9</ele>
        <time>2023-09-28T11:27:21Z</time>
      </trkpt>
      <trkpt lat="44.73121" lon="5.89637">
        <ele>1055.7</ele>
        <time>2023-09-28T11:27:22Z</time>
      </trkpt>
      <trkpt lat="44.7313" lon="5.89635">
        <ele>1055.5</ele>
        <time>2023-09-28T11:27:23Z</time>
      </trkpt>
      <trkpt lat="44.73139" lon="5.89634">
        <ele>1055.3</ele>
        <time>2023-09-28T11:27:24Z</time>
      </trkpt>
      <trkpt lat="44.73147" lon="5.89632">
        <ele>1055.1</ele>
        <time>2023-09-28T11:27:25Z</time>
      </trkpt>
      <trkpt lat="44.73154" lon="5.89631">
        <ele>1054.9</ele>
        <time>2023-09-28T11:27:26Z</time>
      </trkpt>
      <trkpt lat="44.73161" lon="5.89629">
        <ele>1054.7</ele>
        <time>2023-09-28T11:27:27Z</time>
      </trkpt>
      <trkpt lat="44.73167" lon="5.89629">
        <ele>1054.5</ele>
        <time>2023-09-28T11:27:28Z</time>
      </trkpt>
      <trkpt lat="44.73172" lon="5.89628">
        <ele>1054.3</ele>
        <time>2023-09-28T11:27:29Z</time>
      </trkpt>
      <trkpt lat="44.73178" lon="5.89627">
        <ele>1054.2</ele>
        <time>2023-09-28T11:27:30Z</time>
      </trkpt>
      <trkpt lat="44.73183" lon="5.89626">
        <ele>1054</ele>
        <time>2023-09-28T11:27:31Z</time>
      </trkpt>
      <trkpt lat="44.73187" lon="5.89626">
        <ele>1053.9</ele>
        <time>2023-09-28T11:27:32Z</time>
      </trkpt>
      <trkpt lat="44.73189" lon="5.89629">
        <ele>1053.8</ele>
        <time>2023-09-28T11:27:33Z</time>
      </trkpt>
      <trkpt lat="44.7319" lon="5.89629">
        <ele>1053.8</ele>
        <time>2023-09-28T11:27:34Z</time>
      </trkpt>
      <trkpt lat="44.73191" lon="5.89633">
        <ele>1053.6</ele>
        <time>2023-09-28T11:27:35Z</time>
      </trkpt>
      <trkpt lat="44.73191" lon="5.89635">
        <ele>1053.6</ele>
        <time>2023-09-28T11:27:36Z</time>
      </trkpt>
      <trkpt lat="44.73195" lon="5.89636">
        <ele>1053.4</ele>
        <time>2023-09-28T11:27:37Z</time>
      </trkpt>
      <trkpt lat="44.73196" lon="5.89636">
        <ele>1053.4</ele>
        <time>2023-09-28T11:27:38Z</time>
      </trkpt>
      <trkpt lat="44.73198" lon="5.89635">
        <ele>1053.3</ele>
        <time>2023-09-28T11:27:39Z</time>
      </trkpt>
      <trkpt lat="44.73199" lon="5.89633">
        <ele>1053.3</ele>
        <time>2023-09-28T11:27:41Z</time>
      </trkpt>
      <trkpt lat="44.73202" lon="5.89633">
        <ele>1053.2</ele>
        <time>2023-09-28T11:27:42Z</time>
      </trkpt>
      <trkpt lat="44.73204" lon="5.89632">
        <ele>1053.1</ele>
        <time>2023-09-28T11:27:43Z</time>
      </trkpt>
      <trkpt lat="44.73205" lon="5.89631">
        <ele>1053</ele>
        <time>2023-09-28T11:27:44Z</time>
      </trkpt>
      <trkpt lat="44.73207" lon="5.89629">
        <ele>1053</ele>
        <time>2023-09-28T11:27:45Z</time>
      </trkpt>
      <trkpt lat="44.73207" lon="5.89629">
        <ele>1053</ele>
        <time>2023-09-28T11:27:46Z</time>
      </trkpt>
      <trkpt lat="44.73208" lon="5.89629">
        <ele>1053</ele>
        <time>2023-09-28T11:27:48Z</time>
      </trkpt>
      <trkpt lat="44.73208" lon="5.89629">
        <ele>1052.9</ele>
        <time>2023-09-28T11:27:49Z</time>
      </trkpt>
      <trkpt lat="44.73209" lon="5.89629">
        <ele>1052.9</ele>
        <time>2023-09-28T11:27:50Z</time>
      </trkpt>
      <trkpt lat="44.73209" lon="5.89628">
        <ele>1052.9</ele>
        <time>2023-09-28T11:27:52Z</time>
      </trkpt>
      <trkpt lat="44.7321" lon="5.89628">
        <ele>1052.9</ele>
        <time>2023-09-28T11:27:53Z</time>
      </trkpt>
      <trkpt lat="44.7321" lon="5.89628">
        <ele>1052.9</ele>
        <time>2023-09-28T11:27:54Z</time>
      </trkpt>
      <trkpt lat="44.73211" lon="5.89628">
        <ele>1052.8</ele>
        <time>2023-09-28T11:28:11Z</time>
      </trkpt>
      <trkpt lat="44.73211" lon="5.89627">
        <ele>1052.8</ele>
        <time>2023-09-28T11:28:12Z</time>
      </trkpt>
      <trkpt lat="44.73212" lon="5.89627">
        <ele>1052.8</ele>
        <time>2023-09-28T11:28:14Z</time>
      </trkpt>
      <trkpt lat="44.73212" lon="5.89627">
        <ele>1052.8</ele>
        <time>2023-09-28T11:28:15Z</time>
      </trkpt>
      <trkpt lat="44.73213" lon="5.89627">
        <ele>1052.8</ele>
        <time>2023-09-28T11:28:16Z</time>
      </trkpt>
      <trkpt lat="44.73213" lon="5.89627">
        <ele>1052.7</ele>
        <time>2023-09-28T11:28:18Z</time>
      </trkpt>
      <trkpt lat="44.73214" lon="5.89626">
        <ele>1052.7</ele>
        <time>2023-09-28T11:28:19Z</time>
      </trkpt>
      <trkpt lat="44.73214" lon="5.89626">
        <ele>1052.7</ele>
        <time>2023-09-28T11:28:20Z</time>
      </trkpt>
      <trkpt lat="44.73215" lon="5.89626">
        <ele>1052.7</ele>
        <time>2023-09-28T11:28:21Z</time>
      </trkpt>
      <trkpt lat="44.73215" lon="5.89626">
        <ele>1052.6</ele>
        <time>2023-09-28T11:28:23Z</time>
      </trkpt>
      <trkpt lat="44.73216" lon="5.89625">
        <ele>1052.6</ele>
        <time>2023-09-28T11:28:24Z</time>
      </trkpt>
      <trkpt lat="44.73216" lon="5.89625">
        <ele>1052.6</ele>
        <time>2023-09-28T11:28:25Z</time>
      </trkpt>
      <trkpt lat="44.73217" lon="5.89625">
        <ele>1052.6</ele>
        <time>2023-09-28T11:29:07Z</time>
      </trkpt>
      <trkpt lat="44.73217" lon="5.89625">
        <ele>1052.6</ele>
        <time>2023-09-28T11:29:08Z</time>
      </trkpt>
      <trkpt lat="44.73217" lon="5.89624">
        <ele>1052.5</ele>
        <time>2023-09-28T11:29:09Z</time>
      </trkpt>
      <trkpt lat="44.7322" lon="5.89622">
        <ele>1052.4</ele>
        <time>2023-09-28T11:29:10Z</time>
      </trkpt>
      <trkpt lat="44.73222" lon="5.8962">
        <ele>1052.3</ele>
        <time>2023-09-28T11:29:11Z</time>
      </trkpt>
      <trkpt lat="44.73222" lon="5.8962">
        <ele>1052.3</ele>
        <time>2023-09-28T11:29:12Z</time>
      </trkpt>
      <trkpt lat="44.73228" lon="5.89615">
        <ele>1052</ele>
        <time>2023-09-28T11:29:14Z</time>
      </trkpt>
      <trkpt lat="44.73233" lon="5.89611">
        <ele>1051.8</ele>
        <time>2023-09-28T11:29:15Z</time>
      </trkpt>
      <trkpt lat="44.73238" lon="5.89606">
        <ele>1051.6</ele>
        <time>2023-09-28T11:29:16Z</time>
      </trkpt>
      <trkpt lat="44.73242" lon="5.89602">
        <ele>1051.4</ele>
        <time>2023-09-28T11:29:18Z</time>
      </trkpt>
      <trkpt lat="44.73246" lon="5.89598">
        <ele>1051.2</ele>
        <time>2023-09-28T11:29:19Z</time>
      </trkpt>
      <trkpt lat="44.73252" lon="5.89593">
        <ele>1050.9</ele>
        <time>2023-09-28T11:29:20Z</time>
      </trkpt>
      <trkpt lat="44.73256" lon="5.8959">
        <ele>1050.7</ele>
        <time>2023-09-28T11:29:21Z</time>
      </trkpt>
      <trkpt lat="44.73259" lon="5.89585">
        <ele>1050.5</ele>
        <time>2023-09-28T11:29:22Z</time>
      </trkpt>
      <trkpt lat="44.73262" lon="5.8958">
        <ele>1050.2</ele>
        <time>2023-09-28T11:29:23Z</time>
      </trkpt>
      <trkpt lat="44.73266" lon="5.89575">
        <ele>1050</ele>
        <time>2023-09-28T11:29:24Z</time>
      </trkpt>
      <trkpt lat="44.7327" lon="5.8957">
        <ele>1049.8</ele>
        <time>2023-09-28T11:29:25Z</time>
      </trkpt>
      <trkpt lat="44.73274" lon="5.89565">
        <ele>1049.5</ele>
        <time>2023-09-28T11:29:26Z</time>
      </trkpt>
      <trkpt lat="44.73278" lon="5.89559">
        <ele>1049.3</ele>
        <time>2023-09-28T11:29:27Z</time>
      </trkpt>
      <trkpt lat="44.73283" lon="5.89554">
        <ele>1049.1</ele>
        <time>2023-09-28T11:29:28Z</time>
      </trkpt>
      <trkpt lat="44.73287" lon="5.89549">
        <ele>1048.8</ele>
        <time>2023-09-28T11:29:29Z</time>
      </trkpt>
      <trkpt lat="44.73292" lon="5.89544">
        <ele>1048.6</ele>
        <time>2023-09-28T11:29:30Z</time>
      </trkpt>
      <trkpt lat="44.73296" lon="5.89541">
        <ele>1048.4</ele>
        <time>2023-09-28T11:29:31Z</time>
      </trkpt>
      <trkpt lat="44.73302" lon="5.89538">
        <ele>1048.1</ele>
        <time>2023-09-28T11:29:32Z</time>
      </trkpt>
      <trkpt lat="44.73309" lon="5.89537">
        <ele>1047.7</ele>
        <time>2023-09-28T11:29:33Z</time>
      </trkpt>
      <trkpt lat="44.73315" lon="5.89539">
        <ele>1047.3</ele>
        <time>2023-09-28T11:29:34Z</time>
      </trkpt>
      <trkpt lat="44.73322" lon="5.8954">
        <ele>1046.9</ele>
        <time>2023-09-28T11:29:35Z</time>
      </trkpt>
      <trkpt lat="44.73329" lon="5.89541">
        <ele>1046.6</ele>
        <time>2023-09-28T11:29:36Z</time>
      </trkpt>
      <trkpt lat="44.73336" lon="5.89544">
        <ele>1046.2</ele>
        <time>2023-09-28T11:29:37Z</time>
      </trkpt>
      <trkpt lat="44.73343" lon="5.89548">
        <ele>1045.9</ele>
        <time>2023-09-28T11:29:38Z</time>
      </trkpt>
      <trkpt lat="44.73349" lon="5.89553">
        <ele>1045.5</ele>
        <time>2023-09-28T11:29:39Z</time>
      </trkpt>
      <trkpt lat="44.73355" lon="5.89559">
        <ele>1045.2</ele>
        <time>2023-09-28T11:29:40Z</time>
      </trkpt>
      <trkpt lat="44.73361" lon="5.89564">
        <ele>1044.9</ele>
        <time>2023-09-28T11:29:41Z</time>
      </trkpt>
      <trkpt lat="44.73368" lon="5.89568">
        <ele>1044.6</ele>
        <time>2023-09-28T11:29:42Z</time>
      </trkpt>
      <trkpt lat="44.73375" lon="5.89571">
        <ele>1044.2</ele>
        <time>2023-09-28T11:29:43Z</time>
      </trkpt>
      <trkpt lat="44.73382" lon="5.89572">
        <ele>1043.9</ele>
        <time>2023-09-28T11:29:44Z</time>
      </trkpt>
      <trkpt lat="44.7339" lon="5.89573">
        <ele>1043.6</ele>
        <time>2023-09-28T11:29:45Z</time>
      </trkpt>
      <trkpt lat="44.73397" lon="5.89573">
        <ele>1043.3</ele>
        <time>2023-09-28T11:29:46Z</time>
      </trkpt>
      <trkpt lat="44.73402" lon="5.89573">
        <ele>1043</ele>
        <time>2023-09-28T11:29:47Z</time>
      </trkpt>
      <trkpt lat="44.73405" lon="5.89572">
        <ele>1042.9</ele>
        <time>2023-09-28T11:29:48Z</time>
      </trkpt>
      <trkpt lat="44.73408" lon="5.89572">
        <ele>1042.7</ele>
        <time>2023-09-28T11:29:49Z</time>
      </trkpt>
      <trkpt lat="44.73409" lon="5.89571">
        <ele>1042.7</ele>
        <time>2023-09-28T11:29:50Z</time>
      </trkpt>
      <trkpt lat="44.73409" lon="5.89571">
        <ele>1042.7</ele>
        <time>2023-09-28T11:29:51Z</time>
      </trkpt>
      <trkpt lat="44.73409" lon="5.8957">
        <ele>1042.6</ele>
        <time>2023-09-28T11:29:52Z</time>
      </trkpt>
      <trkpt lat="44.7341" lon="5.89569">
        <ele>1042.6</ele>
        <time>2023-09-28T11:29:53Z</time>
      </trkpt>
      <trkpt lat="44.7341" lon="5.89569">
        <ele>1042.6</ele>
        <time>2023-09-28T11:29:54Z</time>
      </trkpt>
      <trkpt lat="44.7341" lon="5.89568">
        <ele>1042.6</ele>
        <time>2023-09-28T11:29:55Z</time>
      </trkpt>
      <trkpt lat="44.73411" lon="5.89568">
        <ele>1042.5</ele>
        <time>2023-09-28T11:29:57Z</time>
      </trkpt>
      <trkpt lat="44.73411" lon="5.89567">
        <ele>1042.5</ele>
        <time>2023-09-28T11:29:58Z</time>
      </trkpt>
      <trkpt lat="44.73412" lon="5.89567">
        <ele>1042.5</ele>
        <time>2023-09-28T11:30:00Z</time>
      </trkpt>
      <trkpt lat="44.73412" lon="5.89566">
        <ele>1042.5</ele>
        <time>2023-09-28T11:30:01Z</time>
      </trkpt>
      <trkpt lat="44.73412" lon="5.89565">
        <ele>1042.4</ele>
        <time>2023-09-28T11:30:02Z</time>
      </trkpt>
      <trkpt lat="44.73413" lon="5.89565">
        <ele>1042.4</ele>
        <time>2023-09-28T11:30:03Z</time>
      </trkpt>
      <trkpt lat="44.73413" lon="5.89564">
        <ele>1042.4</ele>
        <time>2023-09-28T11:30:05Z</time>
      </trkpt>
      <trkpt lat="44.73413" lon="5.89564">
        <ele>1042.4</ele>
        <time>2023-09-28T11:31:02Z</time>
      </trkpt>
      <trkpt lat="44.73414" lon="5.89563">
        <ele>1042.3</ele>
        <time>2023-09-28T11:31:03Z</time>
      </trkpt>
      <trkpt lat="44.73414" lon="5.89563">
        <ele>1042.3</ele>
        <time>2023-09-28T11:31:04Z</time>
      </trkpt>
      <trkpt lat="44.73417" lon="5.89559">
        <ele>1042.1</ele>
        <time>2023-09-28T11:31:05Z</time>
      </trkpt>
      <trkpt lat="44.73421" lon="5.89556">
        <ele>1041.9</ele>
        <time>2023-09-28T11:31:06Z</time>
      </trkpt>
      <trkpt lat="44.73423" lon="5.89551">
        <ele>1041.7</ele>
        <time>2023-09-28T11:31:07Z</time>
      </trkpt>
      <trkpt lat="44.73426" lon="5.89544">
        <ele>1041.5</ele>
        <time>2023-09-28T11:31:08Z</time>
      </trkpt>
      <trkpt lat="44.73428" lon="5.89537">
        <ele>1041.2</ele>
        <time>2023-09-28T11:31:09Z</time>
      </trkpt>
      <trkpt lat="44.7343" lon="5.89529">
        <ele>1040.9</ele>
        <time>2023-09-28T11:31:10Z</time>
      </trkpt>
      <trkpt lat="44.73432" lon="5.89522">
        <ele>1040.7</ele>
        <time>2023-09-28T11:31:11Z</time>
      </trkpt>
      <trkpt lat="44.73434" lon="5.89514">
        <ele>1040.4</ele>
        <time>2023-09-28T11:31:12Z</time>
      </trkpt>
      <trkpt lat="44.73437" lon="5.89506">
        <ele>1040.2</ele>
        <time>2023-09-28T11:31:13Z</time>
      </trkpt>
      <trkpt lat="44.7344" lon="5.89498">
        <ele>1039.9</ele>
        <time>2023-09-28T11:31:14Z</time>
      </trkpt>
      <trkpt lat="44.73445" lon="5.89491">
        <ele>1039.9</ele>
        <time>2023-09-28T11:31:15Z</time>
      </trkpt>
      <trkpt lat="44.7345" lon="5.89485">
        <ele>1039.5</ele>
        <time>2023-09-28T11:31:16Z</time>
      </trkpt>
      <trkpt lat="44.73456" lon="5.89479">
        <ele>1039.1</ele>
        <time>2023-09-28T11:31:17Z</time>
      </trkpt>
      <trkpt lat="44.73462" lon="5.89475">
        <ele>1038.7</ele>
        <time>2023-09-28T11:31:18Z</time>
      </trkpt>
      <trkpt lat="44.73468" lon="5.89471">
        <ele>1038.3</ele>
        <time>2023-09-28T11:31:19Z</time>
      </trkpt>
      <trkpt lat="44.73474" lon="5.89467">
        <ele>1037.9</ele>
        <time>2023-09-28T11:31:20Z</time>
      </trkpt>
      <trkpt lat="44.73481" lon="5.89463">
        <ele>1037.5</ele>
        <time>2023-09-28T11:31:21Z</time>
      </trkpt>
      <trkpt lat="44.73488" lon="5.89459">
        <ele>1037.1</ele>
        <time>2023-09-28T11:31:22Z</time>
      </trkpt>
      <trkpt lat="44.73494" lon="5.89455">
        <ele>1036.7</ele>
        <time>2023-09-28T11:31:23Z</time>
      </trkpt>
      <trkpt lat="44.73501" lon="5.89451">
        <ele>1036.3</ele>
        <time>2023-09-28T11:31:24Z</time>
      </trkpt>
      <trkpt lat="44.73508" lon="5.89446">
        <ele>1035.9</ele>
        <time>2023-09-28T11:31:25Z</time>
      </trkpt>
      <trkpt lat="44.73516" lon="5.89443">
        <ele>1035.5</ele>
        <time>2023-09-28T11:31:26Z</time>
      </trkpt>
      <trkpt lat="44.73523" lon="5.8944">
        <ele>1035.1</ele>
        <time>2023-09-28T11:31:27Z</time>
      </trkpt>
      <trkpt lat="44.7353" lon="5.89439">
        <ele>1034.6</ele>
        <time>2023-09-28T11:31:28Z</time>
      </trkpt>
      <trkpt lat="44.73538" lon="5.89438">
        <ele>1034.1</ele>
        <time>2023-09-28T11:31:29Z</time>
      </trkpt>
      <trkpt lat="44.73546" lon="5.89438">
        <ele>1033.7</ele>
        <time>2023-09-28T11:31:30Z</time>
      </trkpt>
      <trkpt lat="44.73553" lon="5.89439">
        <ele>1033.2</ele>
        <time>2023-09-28T11:31:31Z</time>
      </trkpt>
      <trkpt lat="44.73561" lon="5.89443">
        <ele>1032.7</ele>
        <time>2023-09-28T11:31:32Z</time>
      </trkpt>
      <trkpt lat="44.73568" lon="5.89449">
        <ele>1032.2</ele>
        <time>2023-09-28T11:31:33Z</time>
      </trkpt>
      <trkpt lat="44.73576" lon="5.89456">
        <ele>1031.7</ele>
        <time>2023-09-28T11:31:34Z</time>
      </trkpt>
      <trkpt lat="44.73583" lon="5.89463">
        <ele>1031.3</ele>
        <time>2023-09-28T11:31:35Z</time>
      </trkpt>
      <trkpt lat="44.7359" lon="5.8947">
        <ele>1030.8</ele>
        <time>2023-09-28T11:31:36Z</time>
      </trkpt>
      <trkpt lat="44.73598" lon="5.89475">
        <ele>1030.4</ele>
        <time>2023-09-28T11:31:37Z</time>
      </trkpt>
      <trkpt lat="44.73606" lon="5.89479">
        <ele>1030</ele>
        <time>2023-09-28T11:31:38Z</time>
      </trkpt>
      <trkpt lat="44.73615" lon="5.8948">
        <ele>1029.6</ele>
        <time>2023-09-28T11:31:39Z</time>
      </trkpt>
      <trkpt lat="44.73622" lon="5.89479">
        <ele>1029.1</ele>
        <time>2023-09-28T11:31:40Z</time>
      </trkpt>
      <trkpt lat="44.7363" lon="5.89476">
        <ele>1028.6</ele>
        <time>2023-09-28T11:31:41Z</time>
      </trkpt>
      <trkpt lat="44.73636" lon="5.89469">
        <ele>1028.1</ele>
        <time>2023-09-28T11:31:42Z</time>
      </trkpt>
      <trkpt lat="44.7364" lon="5.89459">
        <ele>1027.6</ele>
        <time>2023-09-28T11:31:43Z</time>
      </trkpt>
      <trkpt lat="44.73642" lon="5.89448">
        <ele>1027</ele>
        <time>2023-09-28T11:31:44Z</time>
      </trkpt>
      <trkpt lat="44.73642" lon="5.89437">
        <ele>1026.5</ele>
        <time>2023-09-28T11:31:45Z</time>
      </trkpt>
      <trkpt lat="44.73641" lon="5.89426">
        <ele>1026</ele>
        <time>2023-09-28T11:31:46Z</time>
      </trkpt>
      <trkpt lat="44.7364" lon="5.89415">
        <ele>1025.5</ele>
        <time>2023-09-28T11:31:47Z</time>
      </trkpt>
      <trkpt lat="44.7364" lon="5.89403">
        <ele>1025</ele>
        <time>2023-09-28T11:31:48Z</time>
      </trkpt>
      <trkpt lat="44.73641" lon="5.89392">
        <ele>1024.5</ele>
        <time>2023-09-28T11:31:49Z</time>
      </trkpt>
      <trkpt lat="44.73642" lon="5.89381">
        <ele>1024.1</ele>
        <time>2023-09-28T11:31:50Z</time>
      </trkpt>
      <trkpt lat="44.73645" lon="5.89371">
        <ele>1023.7</ele>
        <time>2023-09-28T11:31:51Z</time>
      </trkpt>
      <trkpt lat="44.73649" lon="5.89361">
        <ele>1023.3</ele>
        <time>2023-09-28T11:31:52Z</time>
      </trkpt>
      <trkpt lat="44.73653" lon="5.89352">
        <ele>1023.2</ele>
        <time>2023-09-28T11:31:53Z</time>
      </trkpt>
      <trkpt lat="44.73657" lon="5.89343">
        <ele>1023.1</ele>
        <time>2023-09-28T11:31:54Z</time>
      </trkpt>
      <trkpt lat="44.73661" lon="5.89335">
        <ele>1023</ele>
        <time>2023-09-28T11:31:55Z</time>
      </trkpt>
      <trkpt lat="44.73665" lon="5.89326">
        <ele>1022.9</ele>
        <time>2023-09-28T11:31:56Z</time>
      </trkpt>
      <trkpt lat="44.73668" lon="5.89317">
        <ele>1022.7</ele>
        <time>2023-09-28T11:31:57Z</time>
      </trkpt>
      <trkpt lat="44.73672" lon="5.89308">
        <ele>1022.4</ele>
        <time>2023-09-28T11:31:58Z</time>
      </trkpt>
      <trkpt lat="44.73676" lon="5.893">
        <ele>1022</ele>
        <time>2023-09-28T11:31:59Z</time>
      </trkpt>
      <trkpt lat="44.73681" lon="5.89291">
        <ele>1021.7</ele>
        <time>2023-09-28T11:32:00Z</time>
      </trkpt>
      <trkpt lat="44.73686" lon="5.89283">
        <ele>1021.4</ele>
        <time>2023-09-28T11:32:01Z</time>
      </trkpt>
      <trkpt lat="44.7369" lon="5.89274">
        <ele>1021.1</ele>
        <time>2023-09-28T11:32:02Z</time>
      </trkpt>
      <trkpt lat="44.73694" lon="5.89265">
        <ele>1020.8</ele>
        <time>2023-09-28T11:32:03Z</time>
      </trkpt>
      <trkpt lat="44.73699" lon="5.89256">
        <ele>1020.5</ele>
        <time>2023-09-28T11:32:04Z</time>
      </trkpt>
      <trkpt lat="44.73703" lon="5.89247">
        <ele>1020.1</ele>
        <time>2023-09-28T11:32:05Z</time>
      </trkpt>
      <trkpt lat="44.73707" lon="5.89237">
        <ele>1019.8</ele>
        <time>2023-09-28T11:32:06Z</time>
      </trkpt>
      <trkpt lat="44.73711" lon="5.89228">
        <ele>1019.5</ele>
        <time>2023-09-28T11:32:07Z</time>
      </trkpt>
      <trkpt lat="44.73716" lon="5.89219">
        <ele>1019.1</ele>
        <time>2023-09-28T11:32:08Z</time>
      </trkpt>
      <trkpt lat="44.7372" lon="5.89209">
        <ele>1018.8</ele>
        <time>2023-09-28T11:32:09Z</time>
      </trkpt>
      <trkpt lat="44.73725" lon="5.892">
        <ele>1018.5</ele>
        <time>2023-09-28T11:32:10Z</time>
      </trkpt>
      <trkpt lat="44.7373" lon="5.89191">
        <ele>1018.1</ele>
        <time>2023-09-28T11:32:11Z</time>
      </trkpt>
      <trkpt lat="44.73735" lon="5.89182">
        <ele>1017.8</ele>
        <time>2023-09-28T11:32:12Z</time>
      </trkpt>
      <trkpt lat="44.73739" lon="5.89173">
        <ele>1017.4</ele>
        <time>2023-09-28T11:32:13Z</time>
      </trkpt>
      <trkpt lat="44.73744" lon="5.89163">
        <ele>1017.1</ele>
        <time>2023-09-28T11:32:14Z</time>
      </trkpt>
      <trkpt lat="44.7375" lon="5.89155">
        <ele>1016.8</ele>
        <time>2023-09-28T11:32:15Z</time>
      </trkpt>
      <trkpt lat="44.73756" lon="5.89148">
        <ele>1016.5</ele>
        <time>2023-09-28T11:32:16Z</time>
      </trkpt>
      <trkpt lat="44.73763" lon="5.89141">
        <ele>1016.3</ele>
        <time>2023-09-28T11:32:17Z</time>
      </trkpt>
      <trkpt lat="44.7377" lon="5.89136">
        <ele>1016</ele>
        <time>2023-09-28T11:32:18Z</time>
      </trkpt>
      <trkpt lat="44.73777" lon="5.89132">
        <ele>1015.7</ele>
        <time>2023-09-28T11:32:19Z</time>
      </trkpt>
      <trkpt lat="44.73785" lon="5.89128">
        <ele>1015.3</ele>
        <time>2023-09-28T11:32:20Z</time>
      </trkpt>
      <trkpt lat="44.73793" lon="5.89127">
        <ele>1015</ele>
        <time>2023-09-28T11:32:21Z</time>
      </trkpt>
      <trkpt lat="44.73802" lon="5.89129">
        <ele>1014.6</ele>
        <time>2023-09-28T11:32:22Z</time>
      </trkpt>
      <trkpt lat="44.7381" lon="5.89131">
        <ele>1014.3</ele>
        <time>2023-09-28T11:32:23Z</time>
      </trkpt>
      <trkpt lat="44.73818" lon="5.89135">
        <ele>1013.9</ele>
        <time>2023-09-28T11:32:24Z</time>
      </trkpt>
      <trkpt lat="44.73826" lon="5.8914">
        <ele>1013.5</ele>
        <time>2023-09-28T11:32:25Z</time>
      </trkpt>
      <trkpt lat="44.73833" lon="5.89147">
        <ele>1013.2</ele>
        <time>2023-09-28T11:32:26Z</time>
      </trkpt>
      <trkpt lat="44.73839" lon="5.89154">
        <ele>1012.8</ele>
        <time>2023-09-28T11:32:27Z</time>
      </trkpt>
      <trkpt lat="44.73845" lon="5.89161">
        <ele>1012.5</ele>
        <time>2023-09-28T11:32:28Z</time>
      </trkpt>
      <trkpt lat="44.73851" lon="5.89169">
        <ele>1012.1</ele>
        <time>2023-09-28T11:32:29Z</time>
      </trkpt>
      <trkpt lat="44.73857" lon="5.89177">
        <ele>1011.8</ele>
        <time>2023-09-28T11:32:30Z</time>
      </trkpt>
      <trkpt lat="44.73863" lon="5.89185">
        <ele>1011.4</ele>
        <time>2023-09-28T11:32:31Z</time>
      </trkpt>
      <trkpt lat="44.73869" lon="5.89191">
        <ele>1011</ele>
        <time>2023-09-28T11:32:32Z</time>
      </trkpt>
      <trkpt lat="44.73876" lon="5.89197">
        <ele>1010.5</ele>
        <time>2023-09-28T11:32:33Z</time>
      </trkpt>
      <trkpt lat="44.73884" lon="5.892">
        <ele>1010.1</ele>
        <time>2023-09-28T11:32:34Z</time>
      </trkpt>
      <trkpt lat="44.73892" lon="5.89202">
        <ele>1009.6</ele>
        <time>2023-09-28T11:32:35Z</time>
      </trkpt>
      <trkpt lat="44.73901" lon="5.89203">
        <ele>1009</ele>
        <time>2023-09-28T11:32:36Z</time>
      </trkpt>
      <trkpt lat="44.73911" lon="5.89203">
        <ele>1008.4</ele>
        <time>2023-09-28T11:32:37Z</time>
      </trkpt>
      <trkpt lat="44.7392" lon="5.89203">
        <ele>1007.8</ele>
        <time>2023-09-28T11:32:38Z</time>
      </trkpt>
      <trkpt lat="44.7393" lon="5.89203">
        <ele>1007.2</ele>
        <time>2023-09-28T11:32:39Z</time>
      </trkpt>
      <trkpt lat="44.7394" lon="5.89203">
        <ele>1006.6</ele>
        <time>2023-09-28T11:32:40Z</time>
      </trkpt>
      <trkpt lat="44.7395" lon="5.89201">
        <ele>1006</ele>
        <time>2023-09-28T11:32:41Z</time>
      </trkpt>
      <trkpt lat="44.7396" lon="5.89198">
        <ele>1005.5</ele>
        <time>2023-09-28T11:32:42Z</time>
      </trkpt>
      <trkpt lat="44.7397" lon="5.89193">
        <ele>1005.1</ele>
        <time>2023-09-28T11:32:43Z</time>
      </trkpt>
      <trkpt lat="44.73979" lon="5.89188">
        <ele>1004.6</ele>
        <time>2023-09-28T11:32:44Z</time>
      </trkpt>
      <trkpt lat="44.73989" lon="5.89183">
        <ele>1004.2</ele>
        <time>2023-09-28T11:32:45Z</time>
      </trkpt>
      <trkpt lat="44.73999" lon="5.8918">
        <ele>1003.9</ele>
        <time>2023-09-28T11:32:46Z</time>
      </trkpt>
      <trkpt lat="44.74009" lon="5.89178">
        <ele>1003.4</ele>
        <time>2023-09-28T11:32:47Z</time>
      </trkpt>
      <trkpt lat="44.74019" lon="5.89177">
        <ele>1003</ele>
        <time>2023-09-28T11:32:48Z</time>
      </trkpt>
      <trkpt lat="44.74029" lon="5.89175">
        <ele>1002.6</ele>
        <time>2023-09-28T11:32:49Z</time>
      </trkpt>
      <trkpt lat="44.74038" lon="5.89173">
        <ele>1002.3</ele>
        <time>2023-09-28T11:32:50Z</time>
      </trkpt>
      <trkpt lat="44.74047" lon="5.89172">
        <ele>1001.8</ele>
        <time>2023-09-28T11:32:51Z</time>
      </trkpt>
      <trkpt lat="44.74056" lon="5.8917">
        <ele>1001.4</ele>
        <time>2023-09-28T11:32:52Z</time>
      </trkpt>
      <trkpt lat="44.74065" lon="5.89168">
        <ele>1001</ele>
        <time>2023-09-28T11:32:53Z</time>
      </trkpt>
      <trkpt lat="44.74074" lon="5.89166">
        <ele>1000.5</ele>
        <time>2023-09-28T11:32:54Z</time>
      </trkpt>
      <trkpt lat="44.74082" lon="5.89164">
        <ele>1000</ele>
        <time>2023-09-28T11:32:55Z</time>
      </trkpt>
      <trkpt lat="44.7409" lon="5.89159">
        <ele>999.5</ele>
        <time>2023-09-28T11:32:56Z</time>
      </trkpt>
      <trkpt lat="44.74098" lon="5.89154">
        <ele>998.9</ele>
        <time>2023-09-28T11:32:57Z</time>
      </trkpt>
      <trkpt lat="44.74107" lon="5.89152">
        <ele>998.4</ele>
        <time>2023-09-28T11:32:58Z</time>
      </trkpt>
      <trkpt lat="44.74116" lon="5.8915">
        <ele>997.8</ele>
        <time>2023-09-28T11:32:59Z</time>
      </trkpt>
      <trkpt lat="44.74126" lon="5.89148">
        <ele>997.2</ele>
        <time>2023-09-28T11:33:00Z</time>
      </trkpt>
      <trkpt lat="44.74136" lon="5.89146">
        <ele>996.6</ele>
        <time>2023-09-28T11:33:01Z</time>
      </trkpt>
      <trkpt lat="44.74145" lon="5.89143">
        <ele>996</ele>
        <time>2023-09-28T11:33:02Z</time>
      </trkpt>
      <trkpt lat="44.74155" lon="5.89139">
        <ele>995.4</ele>
        <time>2023-09-28T11:33:03Z</time>
      </trkpt>
      <trkpt lat="44.74164" lon="5.89135">
        <ele>994.8</ele>
        <time>2023-09-28T11:33:04Z</time>
      </trkpt>
      <trkpt lat="44.74173" lon="5.8913">
        <ele>994.2</ele>
        <time>2023-09-28T11:33:05Z</time>
      </trkpt>
      <trkpt lat="44.74181" lon="5.89124">
        <ele>993.6</ele>
        <time>2023-09-28T11:33:06Z</time>
      </trkpt>
      <trkpt lat="44.74189" lon="5.89117">
        <ele>993</ele>
        <time>2023-09-28T11:33:07Z</time>
      </trkpt>
      <trkpt lat="44.74197" lon="5.8911">
        <ele>992.5</ele>
        <time>2023-09-28T11:33:08Z</time>
      </trkpt>
      <trkpt lat="44.74206" lon="5.89102">
        <ele>991.9</ele>
        <time>2023-09-28T11:33:09Z</time>
      </trkpt>
      <trkpt lat="44.74215" lon="5.89094">
        <ele>991.4</ele>
        <time>2023-09-28T11:33:10Z</time>
      </trkpt>
      <trkpt lat="44.74223" lon="5.89087">
        <ele>990.9</ele>
        <time>2023-09-28T11:33:11Z</time>
      </trkpt>
      <trkpt lat="44.74232" lon="5.89079">
        <ele>990.5</ele>
        <time>2023-09-28T11:33:12Z</time>
      </trkpt>
      <trkpt lat="44.7424" lon="5.89071">
        <ele>990.2</ele>
        <time>2023-09-28T11:33:13Z</time>
      </trkpt>
      <trkpt lat="44.74247" lon="5.89064">
        <ele>989.9</ele>
        <time>2023-09-28T11:33:14Z</time>
      </trkpt>
      <trkpt lat="44.74253" lon="5.89057">
        <ele>989.6</ele>
        <time>2023-09-28T11:33:15Z</time>
      </trkpt>
      <trkpt lat="44.74259" lon="5.89053">
        <ele>989.4</ele>
        <time>2023-09-28T11:33:16Z</time>
      </trkpt>
      <trkpt lat="44.74267" lon="5.89054">
        <ele>989</ele>
        <time>2023-09-28T11:33:17Z</time>
      </trkpt>
      <trkpt lat="44.74274" lon="5.8906">
        <ele>988.7</ele>
        <time>2023-09-28T11:33:18Z</time>
      </trkpt>
      <trkpt lat="44.7428" lon="5.89069">
        <ele>988.7</ele>
        <time>2023-09-28T11:33:19Z</time>
      </trkpt>
      <trkpt lat="44.74285" lon="5.89077">
        <ele>988.8</ele>
        <time>2023-09-28T11:33:20Z</time>
      </trkpt>
      <trkpt lat="44.74292" lon="5.89081">
        <ele>988.4</ele>
        <time>2023-09-28T11:33:21Z</time>
      </trkpt>
      <trkpt lat="44.743" lon="5.89081">
        <ele>987.7</ele>
        <time>2023-09-28T11:33:22Z</time>
      </trkpt>
      <trkpt lat="44.74308" lon="5.89078">
        <ele>986.9</ele>
        <time>2023-09-28T11:33:23Z</time>
      </trkpt>
      <trkpt lat="44.74315" lon="5.89074">
        <ele>986.2</ele>
        <time>2023-09-28T11:33:24Z</time>
      </trkpt>
      <trkpt lat="44.74323" lon="5.89068">
        <ele>985.5</ele>
        <time>2023-09-28T11:33:25Z</time>
      </trkpt>
      <trkpt lat="44.7433" lon="5.89063">
        <ele>984.8</ele>
        <time>2023-09-28T11:33:26Z</time>
      </trkpt>
      <trkpt lat="44.74338" lon="5.89058">
        <ele>984.2</ele>
        <time>2023-09-28T11:33:27Z</time>
      </trkpt>
      <trkpt lat="44.74346" lon="5.89054">
        <ele>983.5</ele>
        <time>2023-09-28T11:33:28Z</time>
      </trkpt>
      <trkpt lat="44.74354" lon="5.89051">
        <ele>982.8</ele>
        <time>2023-09-28T11:33:29Z</time>
      </trkpt>
      <trkpt lat="44.74362" lon="5.89046">
        <ele>982.1</ele>
        <time>2023-09-28T11:33:30Z</time>
      </trkpt>
      <trkpt lat="44.7437" lon="5.8904">
        <ele>981.3</ele>
        <time>2023-09-28T11:33:31Z</time>
      </trkpt>
      <trkpt lat="44.74378" lon="5.89034">
        <ele>980.5</ele>
        <time>2023-09-28T11:33:32Z</time>
      </trkpt>
      <trkpt lat="44.74386" lon="5.89026">
        <ele>979.8</ele>
        <time>2023-09-28T11:33:33Z</time>
      </trkpt>
      <trkpt lat="44.74393" lon="5.89016">
        <ele>979.1</ele>
        <time>2023-09-28T11:33:34Z</time>
      </trkpt>
      <trkpt lat="44.74399" lon="5.89004">
        <ele>978.4</ele>
        <time>2023-09-28T11:33:35Z</time>
      </trkpt>
      <trkpt lat="44.74404" lon="5.88992">
        <ele>977.7</ele>
        <time>2023-09-28T11:33:36Z</time>
      </trkpt>
      <trkpt lat="44.7441" lon="5.8898">
        <ele>977</ele>
        <time>2023-09-28T11:33:37Z</time>
      </trkpt>
      <trkpt lat="44.74415" lon="5.88968">
        <ele>976.3</ele>
        <time>2023-09-28T11:33:38Z</time>
      </trkpt>
      <trkpt lat="44.7442" lon="5.88954">
        <ele>975.6</ele>
        <time>2023-09-28T11:33:39Z</time>
      </trkpt>
      <trkpt lat="44.74424" lon="5.88941">
        <ele>974.9</ele>
        <time>2023-09-28T11:33:40Z</time>
      </trkpt>
      <trkpt lat="44.74428" lon="5.88926">
        <ele>974.2</ele>
        <time>2023-09-28T11:33:41Z</time>
      </trkpt>
      <trkpt lat="44.7443" lon="5.88912">
        <ele>973.6</ele>
        <time>2023-09-28T11:33:42Z</time>
      </trkpt>
      <trkpt lat="44.74433" lon="5.88898">
        <ele>972.9</ele>
        <time>2023-09-28T11:33:43Z</time>
      </trkpt>
      <trkpt lat="44.74435" lon="5.88883">
        <ele>972.3</ele>
        <time>2023-09-28T11:33:44Z</time>
      </trkpt>
      <trkpt lat="44.74438" lon="5.88869">
        <ele>971.7</ele>
        <time>2023-09-28T11:33:45Z</time>
      </trkpt>
      <trkpt lat="44.74441" lon="5.88856">
        <ele>971.1</ele>
        <time>2023-09-28T11:33:46Z</time>
      </trkpt>
      <trkpt lat="44.74444" lon="5.88843">
        <ele>970.6</ele>
        <time>2023-09-28T11:33:47Z</time>
      </trkpt>
      <trkpt lat="44.74449" lon="5.88831">
        <ele>970.1</ele>
        <time>2023-09-28T11:33:48Z</time>
      </trkpt>
      <trkpt lat="44.74456" lon="5.88821">
        <ele>969.5</ele>
        <time>2023-09-28T11:33:49Z</time>
      </trkpt>
      <trkpt lat="44.74465" lon="5.88813">
        <ele>968.8</ele>
        <time>2023-09-28T11:33:50Z</time>
      </trkpt>
      <trkpt lat="44.74474" lon="5.88806">
        <ele>968.1</ele>
        <time>2023-09-28T11:33:51Z</time>
      </trkpt>
      <trkpt lat="44.74483" lon="5.888">
        <ele>967.4</ele>
        <time>2023-09-28T11:33:52Z</time>
      </trkpt>
      <trkpt lat="44.74493" lon="5.88796">
        <ele>966.7</ele>
        <time>2023-09-28T11:33:53Z</time>
      </trkpt>
      <trkpt lat="44.74503" lon="5.88792">
        <ele>965.9</ele>
        <time>2023-09-28T11:33:54Z</time>
      </trkpt>
      <trkpt lat="44.74513" lon="5.88793">
        <ele>965.1</ele>
        <time>2023-09-28T11:33:55Z</time>
      </trkpt>
      <trkpt lat="44.74524" lon="5.88796">
        <ele>964.3</ele>
        <time>2023-09-28T11:33:56Z</time>
      </trkpt>
      <trkpt lat="44.74535" lon="5.88798">
        <ele>963.5</ele>
        <time>2023-09-28T11:33:57Z</time>
      </trkpt>
      <trkpt lat="44.74544" lon="5.888">
        <ele>962.8</ele>
        <time>2023-09-28T11:33:58Z</time>
      </trkpt>
      <trkpt lat="44.74552" lon="5.88801">
        <ele>962.1</ele>
        <time>2023-09-28T11:33:59Z</time>
      </trkpt>
      <trkpt lat="44.74561" lon="5.88799">
        <ele>961.5</ele>
        <time>2023-09-28T11:34:00Z</time>
      </trkpt>
      <trkpt lat="44.74568" lon="5.88795">
        <ele>960.8</ele>
        <time>2023-09-28T11:34:01Z</time>
      </trkpt>
      <trkpt lat="44.74575" lon="5.88791">
        <ele>960.2</ele>
        <time>2023-09-28T11:34:02Z</time>
      </trkpt>
      <trkpt lat="44.74582" lon="5.88785">
        <ele>959.6</ele>
        <time>2023-09-28T11:34:03Z</time>
      </trkpt>
      <trkpt lat="44.74588" lon="5.88778">
        <ele>959</ele>
        <time>2023-09-28T11:34:04Z</time>
      </trkpt>
      <trkpt lat="44.74595" lon="5.8877">
        <ele>958.4</ele>
        <time>2023-09-28T11:34:05Z</time>
      </trkpt>
      <trkpt lat="44.74602" lon="5.88762">
        <ele>957.8</ele>
        <time>2023-09-28T11:34:06Z</time>
      </trkpt>
      <trkpt lat="44.74608" lon="5.88753">
        <ele>957.2</ele>
        <time>2023-09-28T11:34:07Z</time>
      </trkpt>
      <trkpt lat="44.74614" lon="5.88744">
        <ele>956.8</ele>
        <time>2023-09-28T11:34:08Z</time>
      </trkpt>
      <trkpt lat="44.74618" lon="5.88734">
        <ele>956.3</ele>
        <time>2023-09-28T11:34:09Z</time>
      </trkpt>
      <trkpt lat="44.74623" lon="5.88726">
        <ele>955.9</ele>
        <time>2023-09-28T11:34:10Z</time>
      </trkpt>
      <trkpt lat="44.74626" lon="5.88718">
        <ele>955.6</ele>
        <time>2023-09-28T11:34:11Z</time>
      </trkpt>
      <trkpt lat="44.74628" lon="5.88713">
        <ele>955.4</ele>
        <time>2023-09-28T11:34:12Z</time>
      </trkpt>
      <trkpt lat="44.74631" lon="5.88709">
        <ele>955.2</ele>
        <time>2023-09-28T11:34:13Z</time>
      </trkpt>
      <trkpt lat="44.74632" lon="5.88706">
        <ele>955</ele>
        <time>2023-09-28T11:34:14Z</time>
      </trkpt>
      <trkpt lat="44.74632" lon="5.88704">
        <ele>955</ele>
        <time>2023-09-28T11:34:15Z</time>
      </trkpt>
      <trkpt lat="44.74632" lon="5.887">
        <ele>954.8</ele>
        <time>2023-09-28T11:34:16Z</time>
      </trkpt>
      <trkpt lat="44.74632" lon="5.88699">
        <ele>954.7</ele>
        <time>2023-09-28T11:34:17Z</time>
      </trkpt>
      <trkpt lat="44.74633" lon="5.88697">
        <ele>954.6</ele>
        <time>2023-09-28T11:34:18Z</time>
      </trkpt>
      <trkpt lat="44.74634" lon="5.88696">
        <ele>954.6</ele>
        <time>2023-09-28T11:34:19Z</time>
      </trkpt>
      <trkpt lat="44.74634" lon="5.88696">
        <ele>954.5</ele>
        <time>2023-09-28T11:34:20Z</time>
      </trkpt>
      <trkpt lat="44.74633" lon="5.88697">
        <ele>954.5</ele>
        <time>2023-09-28T11:34:22Z</time>
      </trkpt>
      <trkpt lat="44.74633" lon="5.88698">
        <ele>954.4</ele>
        <time>2023-09-28T11:34:23Z</time>
      </trkpt>
      <trkpt lat="44.74633" lon="5.88698">
        <ele>954.4</ele>
        <time>2023-09-28T11:34:24Z</time>
      </trkpt>
      <trkpt lat="44.74633" lon="5.88698">
        <ele>954.4</ele>
        <time>2023-09-28T11:34:25Z</time>
      </trkpt>
      <trkpt lat="44.74633" lon="5.88699">
        <ele>954.4</ele>
        <time>2023-09-28T11:34:27Z</time>
      </trkpt>
      <trkpt lat="44.74632" lon="5.88699">
        <ele>954.3</ele>
        <time>2023-09-28T11:34:28Z</time>
      </trkpt>
      <trkpt lat="44.74632" lon="5.88699">
        <ele>954.3</ele>
        <time>2023-09-28T11:34:29Z</time>
      </trkpt>
      <trkpt lat="44.74632" lon="5.88699">
        <ele>954.3</ele>
        <time>2023-09-28T11:34:30Z</time>
      </trkpt>
      <trkpt lat="44.74635" lon="5.887">
        <ele>954.1</ele>
        <time>2023-09-28T11:35:08Z</time>
      </trkpt>
      <trkpt lat="44.7464" lon="5.88699">
        <ele>953.7</ele>
        <time>2023-09-28T11:35:10Z</time>
      </trkpt>
      <trkpt lat="44.74649" lon="5.88693">
        <ele>953</ele>
        <time>2023-09-28T11:35:11Z</time>
      </trkpt>
      <trkpt lat="44.74655" lon="5.88689">
        <ele>952.5</ele>
        <time>2023-09-28T11:35:12Z</time>
      </trkpt>
      <trkpt lat="44.74661" lon="5.88685">
        <ele>952</ele>
        <time>2023-09-28T11:35:13Z</time>
      </trkpt>
      <trkpt lat="44.74668" lon="5.8868">
        <ele>951.4</ele>
        <time>2023-09-28T11:35:14Z</time>
      </trkpt>
      <trkpt lat="44.74675" lon="5.88674">
        <ele>950.8</ele>
        <time>2023-09-28T11:35:15Z</time>
      </trkpt>
      <trkpt lat="44.74682" lon="5.88666">
        <ele>950.6</ele>
        <time>2023-09-28T11:35:16Z</time>
      </trkpt>
      <trkpt lat="44.74687" lon="5.88659">
        <ele>951.1</ele>
        <time>2023-09-28T11:35:17Z</time>
      </trkpt>
      <trkpt lat="44.74692" lon="5.88652">
        <ele>951.5</ele>
        <time>2023-09-28T11:35:18Z</time>
      </trkpt>
      <trkpt lat="44.74697" lon="5.88646">
        <ele>951.5</ele>
        <time>2023-09-28T11:35:19Z</time>
      </trkpt>
      <trkpt lat="44.74702" lon="5.88641">
        <ele>951.1</ele>
        <time>2023-09-28T11:35:20Z</time>
      </trkpt>
      <trkpt lat="44.74738" lon="5.88579">
        <ele>945.4</ele>
        <time>2023-09-28T11:35:30Z</time>
      </trkpt>
      <trkpt lat="44.74738" lon="5.88579">
        <ele>945.4</ele>
        <time>2023-09-28T11:35:30Z</time>
      </trkpt>
      <trkpt lat="44.74739" lon="5.88566">
        <ele>944.5</ele>
        <time>2023-09-28T11:35:31Z</time>
      </trkpt>
      <trkpt lat="44.74743" lon="5.88556">
        <ele>943.4</ele>
        <time>2023-09-28T11:35:32Z</time>
      </trkpt>
      <trkpt lat="44.74748" lon="5.88547">
        <ele>942.4</ele>
        <time>2023-09-28T11:35:33Z</time>
      </trkpt>
      <trkpt lat="44.74753" lon="5.88538">
        <ele>941.5</ele>
        <time>2023-09-28T11:35:34Z</time>
      </trkpt>
      <trkpt lat="44.74761" lon="5.88532">
        <ele>940.4</ele>
        <time>2023-09-28T11:35:35Z</time>
      </trkpt>
      <trkpt lat="44.74769" lon="5.88529">
        <ele>939.4</ele>
        <time>2023-09-28T11:35:36Z</time>
      </trkpt>
      <trkpt lat="44.74778" lon="5.88529">
        <ele>938.7</ele>
        <time>2023-09-28T11:35:37Z</time>
      </trkpt>
      <trkpt lat="44.74789" lon="5.88529">
        <ele>937.9</ele>
        <time>2023-09-28T11:35:38Z</time>
      </trkpt>
      <trkpt lat="44.74799" lon="5.88526">
        <ele>937.2</ele>
        <time>2023-09-28T11:35:39Z</time>
      </trkpt>
      <trkpt lat="44.74808" lon="5.88521">
        <ele>936.5</ele>
        <time>2023-09-28T11:35:40Z</time>
      </trkpt>
      <trkpt lat="44.74818" lon="5.88521">
        <ele>935.7</ele>
        <time>2023-09-28T11:35:41Z</time>
      </trkpt>
      <trkpt lat="44.74829" lon="5.88524">
        <ele>934.8</ele>
        <time>2023-09-28T11:35:42Z</time>
      </trkpt>
      <trkpt lat="44.7484" lon="5.88528">
        <ele>933.8</ele>
        <time>2023-09-28T11:35:43Z</time>
      </trkpt>
      <trkpt lat="44.74852" lon="5.8853">
        <ele>932.9</ele>
        <time>2023-09-28T11:35:44Z</time>
      </trkpt>
      <trkpt lat="44.74863" lon="5.8853">
        <ele>931.9</ele>
        <time>2023-09-28T11:35:45Z</time>
      </trkpt>
      <trkpt lat="44.74874" lon="5.88528">
        <ele>931</ele>
        <time>2023-09-28T11:35:46Z</time>
      </trkpt>
      <trkpt lat="44.74885" lon="5.88525">
        <ele>930.1</ele>
        <time>2023-09-28T11:35:47Z</time>
      </trkpt>
      <trkpt lat="44.74896" lon="5.8852">
        <ele>929.2</ele>
        <time>2023-09-28T11:35:48Z</time>
      </trkpt>
      <trkpt lat="44.74907" lon="5.88516">
        <ele>928.4</ele>
        <time>2023-09-28T11:35:49Z</time>
      </trkpt>
      <trkpt lat="44.74918" lon="5.88512">
        <ele>927.6</ele>
        <time>2023-09-28T11:35:50Z</time>
      </trkpt>
      <trkpt lat="44.74929" lon="5.88507">
        <ele>927</ele>
        <time>2023-09-28T11:35:51Z</time>
      </trkpt>
      <trkpt lat="44.74941" lon="5.88501">
        <ele>926.3</ele>
        <time>2023-09-28T11:35:52Z</time>
      </trkpt>
      <trkpt lat="44.74951" lon="5.88495">
        <ele>925.6</ele>
        <time>2023-09-28T11:35:53Z</time>
      </trkpt>
      <trkpt lat="44.74962" lon="5.8849">
        <ele>924.7</ele>
        <time>2023-09-28T11:35:54Z</time>
      </trkpt>
      <trkpt lat="44.74973" lon="5.88492">
        <ele>923.8</ele>
        <time>2023-09-28T11:35:55Z</time>
      </trkpt>
      <trkpt lat="44.74984" lon="5.88499">
        <ele>922.8</ele>
        <time>2023-09-28T11:35:56Z</time>
      </trkpt>
      <trkpt lat="44.74995" lon="5.88506">
        <ele>921.9</ele>
        <time>2023-09-28T11:35:57Z</time>
      </trkpt>
      <trkpt lat="44.75007" lon="5.88511">
        <ele>921</ele>
        <time>2023-09-28T11:35:58Z</time>
      </trkpt>
      <trkpt lat="44.75019" lon="5.88511">
        <ele>920.4</ele>
        <time>2023-09-28T11:35:59Z</time>
      </trkpt>
      <trkpt lat="44.75031" lon="5.88508">
        <ele>920</ele>
        <time>2023-09-28T11:36:00Z</time>
      </trkpt>
      <trkpt lat="44.75043" lon="5.88504">
        <ele>919.9</ele>
        <time>2023-09-28T11:36:01Z</time>
      </trkpt>
      <trkpt lat="44.75054" lon="5.88502">
        <ele>919.8</ele>
        <time>2023-09-28T11:36:02Z</time>
      </trkpt>
      <trkpt lat="44.75064" lon="5.885">
        <ele>919.8</ele>
        <time>2023-09-28T11:36:03Z</time>
      </trkpt>
      <trkpt lat="44.75075" lon="5.88499">
        <ele>919.9</ele>
        <time>2023-09-28T11:36:04Z</time>
      </trkpt>
      <trkpt lat="44.75083" lon="5.88498">
        <ele>920</ele>
        <time>2023-09-28T11:36:05Z</time>
      </trkpt>
      <trkpt lat="44.75091" lon="5.88495">
        <ele>920</ele>
        <time>2023-09-28T11:36:06Z</time>
      </trkpt>
      <trkpt lat="44.75095" lon="5.88487">
        <ele>920</ele>
        <time>2023-09-28T11:36:07Z</time>
      </trkpt>
      <trkpt lat="44.75097" lon="5.88476">
        <ele>920</ele>
        <time>2023-09-28T11:36:08Z</time>
      </trkpt>
      <trkpt lat="44.75097" lon="5.88466">
        <ele>919.9</ele>
        <time>2023-09-28T11:36:09Z</time>
      </trkpt>
      <trkpt lat="44.75098" lon="5.88456">
        <ele>919.9</ele>
        <time>2023-09-28T11:36:10Z</time>
      </trkpt>
      <trkpt lat="44.75099" lon="5.88446">
        <ele>919.9</ele>
        <time>2023-09-28T11:36:11Z</time>
      </trkpt>
      <trkpt lat="44.751" lon="5.88437">
        <ele>919.9</ele>
        <time>2023-09-28T11:36:12Z</time>
      </trkpt>
      <trkpt lat="44.75101" lon="5.88428">
        <ele>919.9</ele>
        <time>2023-09-28T11:36:13Z</time>
      </trkpt>
      <trkpt lat="44.75101" lon="5.88418">
        <ele>919.9</ele>
        <time>2023-09-28T11:36:14Z</time>
      </trkpt>
      <trkpt lat="44.75102" lon="5.88409">
        <ele>919.9</ele>
        <time>2023-09-28T11:36:15Z</time>
      </trkpt>
      <trkpt lat="44.75103" lon="5.884">
        <ele>919.9</ele>
        <time>2023-09-28T11:36:16Z</time>
      </trkpt>
      <trkpt lat="44.75105" lon="5.88393">
        <ele>919.9</ele>
        <time>2023-09-28T11:36:17Z</time>
      </trkpt>
      <trkpt lat="44.75107" lon="5.88387">
        <ele>919.9</ele>
        <time>2023-09-28T11:36:18Z</time>
      </trkpt>
      <trkpt lat="44.75108" lon="5.8838">
        <ele>920</ele>
        <time>2023-09-28T11:36:19Z</time>
      </trkpt>
      <trkpt lat="44.75109" lon="5.88375">
        <ele>920.1</ele>
        <time>2023-09-28T11:36:20Z</time>
      </trkpt>
      <trkpt lat="44.75111" lon="5.8837">
        <ele>920.2</ele>
        <time>2023-09-28T11:36:21Z</time>
      </trkpt>
      <trkpt lat="44.75113" lon="5.88365">
        <ele>920.3</ele>
        <time>2023-09-28T11:36:22Z</time>
      </trkpt>
      <trkpt lat="44.75115" lon="5.88361">
        <ele>920.4</ele>
        <time>2023-09-28T11:36:23Z</time>
      </trkpt>
      <trkpt lat="44.75117" lon="5.88358">
        <ele>920.5</ele>
        <time>2023-09-28T11:36:24Z</time>
      </trkpt>
      <trkpt lat="44.7512" lon="5.88355">
        <ele>920.6</ele>
        <time>2023-09-28T11:36:25Z</time>
      </trkpt>
      <trkpt lat="44.75123" lon="5.88353">
        <ele>920.7</ele>
        <time>2023-09-28T11:36:26Z</time>
      </trkpt>
      <trkpt lat="44.75125" lon="5.88352">
        <ele>920.7</ele>
        <time>2023-09-28T11:36:27Z</time>
      </trkpt>
      <trkpt lat="44.75128" lon="5.88349">
        <ele>920.9</ele>
        <time>2023-09-28T11:36:29Z</time>
      </trkpt>
      <trkpt lat="44.75131" lon="5.88348">
        <ele>921</ele>
        <time>2023-09-28T11:36:30Z</time>
      </trkpt>
      <trkpt lat="44.75134" lon="5.88347">
        <ele>921.1</ele>
        <time>2023-09-28T11:36:31Z</time>
      </trkpt>
      <trkpt lat="44.75136" lon="5.88346">
        <ele>921.2</ele>
        <time>2023-09-28T11:36:32Z</time>
      </trkpt>
      <trkpt lat="44.75139" lon="5.88348">
        <ele>921.2</ele>
        <time>2023-09-28T11:36:33Z</time>
      </trkpt>
      <trkpt lat="44.7514" lon="5.88348">
        <ele>921.3</ele>
        <time>2023-09-28T11:36:34Z</time>
      </trkpt>
      <trkpt lat="44.75143" lon="5.88347">
        <ele>921.4</ele>
        <time>2023-09-28T11:36:35Z</time>
      </trkpt>
      <trkpt lat="44.75148" lon="5.88345">
        <ele>921.5</ele>
        <time>2023-09-28T11:36:37Z</time>
      </trkpt>
      <trkpt lat="44.75151" lon="5.88345">
        <ele>921.6</ele>
        <time>2023-09-28T11:36:38Z</time>
      </trkpt>
      <trkpt lat="44.75155" lon="5.88345">
        <ele>921.7</ele>
        <time>2023-09-28T11:36:39Z</time>
      </trkpt>
      <trkpt lat="44.75158" lon="5.88345">
        <ele>921.8</ele>
        <time>2023-09-28T11:36:40Z</time>
      </trkpt>
      <trkpt lat="44.75161" lon="5.88346">
        <ele>921.9</ele>
        <time>2023-09-28T11:36:41Z</time>
      </trkpt>
      <trkpt lat="44.75164" lon="5.88347">
        <ele>922</ele>
        <time>2023-09-28T11:36:43Z</time>
      </trkpt>
      <trkpt lat="44.75169" lon="5.88348">
        <ele>922.1</ele>
        <time>2023-09-28T11:36:44Z</time>
      </trkpt>
      <trkpt lat="44.75173" lon="5.88349">
        <ele>922.2</ele>
        <time>2023-09-28T11:36:45Z</time>
      </trkpt>
      <trkpt lat="44.75174" lon="5.88349">
        <ele>922.2</ele>
        <time>2023-09-28T11:36:46Z</time>
      </trkpt>
      <trkpt lat="44.75178" lon="5.8835">
        <ele>922.3</ele>
        <time>2023-09-28T11:36:47Z</time>
      </trkpt>
      <trkpt lat="44.75181" lon="5.88352">
        <ele>922.4</ele>
        <time>2023-09-28T11:36:48Z</time>
      </trkpt>
      <trkpt lat="44.75184" lon="5.88353">
        <ele>922.4</ele>
        <time>2023-09-28T11:36:49Z</time>
      </trkpt>
      <trkpt lat="44.75187" lon="5.88354">
        <ele>922.5</ele>
        <time>2023-09-28T11:36:50Z</time>
      </trkpt>
      <trkpt lat="44.75191" lon="5.88355">
        <ele>922.6</ele>
        <time>2023-09-28T11:36:52Z</time>
      </trkpt>
      <trkpt lat="44.75193" lon="5.88355">
        <ele>922.6</ele>
        <time>2023-09-28T11:36:53Z</time>
      </trkpt>
      <trkpt lat="44.75196" lon="5.88355">
        <ele>922.7</ele>
        <time>2023-09-28T11:36:54Z</time>
      </trkpt>
      <trkpt lat="44.75199" lon="5.88356">
        <ele>922.8</ele>
        <time>2023-09-28T11:36:55Z</time>
      </trkpt>
      <trkpt lat="44.75202" lon="5.88357">
        <ele>922.8</ele>
        <time>2023-09-28T11:36:56Z</time>
      </trkpt>
      <trkpt lat="44.75206" lon="5.88359">
        <ele>922.9</ele>
        <time>2023-09-28T11:36:57Z</time>
      </trkpt>
      <trkpt lat="44.7521" lon="5.88359">
        <ele>923</ele>
        <time>2023-09-28T11:36:59Z</time>
      </trkpt>
      <trkpt lat="44.75214" lon="5.8836">
        <ele>923.1</ele>
        <time>2023-09-28T11:37:00Z</time>
      </trkpt>
      <trkpt lat="44.75218" lon="5.8836">
        <ele>923.3</ele>
        <time>2023-09-28T11:37:01Z</time>
      </trkpt>
      <trkpt lat="44.75222" lon="5.88361">
        <ele>923.4</ele>
        <time>2023-09-28T11:37:03Z</time>
      </trkpt>
      <trkpt lat="44.75225" lon="5.88361">
        <ele>923.5</ele>
        <time>2023-09-28T11:37:04Z</time>
      </trkpt>
      <trkpt lat="44.75229" lon="5.88362">
        <ele>923.6</ele>
        <time>2023-09-28T11:37:05Z</time>
      </trkpt>
      <trkpt lat="44.75233" lon="5.88364">
        <ele>923.7</ele>
        <time>2023-09-28T11:37:06Z</time>
      </trkpt>
      <trkpt lat="44.75236" lon="5.88365">
        <ele>923.8</ele>
        <time>2023-09-28T11:37:07Z</time>
      </trkpt>
      <trkpt lat="44.75239" lon="5.88366">
        <ele>923.9</ele>
        <time>2023-09-28T11:37:08Z</time>
      </trkpt>
      <trkpt lat="44.75243" lon="5.88367">
        <ele>924.1</ele>
        <time>2023-09-28T11:37:09Z</time>
      </trkpt>
      <trkpt lat="44.75247" lon="5.88368">
        <ele>924.2</ele>
        <time>2023-09-28T11:37:11Z</time>
      </trkpt>
      <trkpt lat="44.75251" lon="5.88369">
        <ele>924.3</ele>
        <time>2023-09-28T11:37:12Z</time>
      </trkpt>
      <trkpt lat="44.75254" lon="5.88371">
        <ele>924.4</ele>
        <time>2023-09-28T11:37:13Z</time>
      </trkpt>
      <trkpt lat="44.75258" lon="5.88373">
        <ele>924.5</ele>
        <time>2023-09-28T11:37:14Z</time>
      </trkpt>
      <trkpt lat="44.75261" lon="5.88374">
        <ele>924.6</ele>
        <time>2023-09-28T11:37:15Z</time>
      </trkpt>
      <trkpt lat="44.75264" lon="5.88374">
        <ele>924.7</ele>
        <time>2023-09-28T11:37:16Z</time>
      </trkpt>
      <trkpt lat="44.75272" lon="5.88376">
        <ele>924.9</ele>
        <time>2023-09-28T11:37:18Z</time>
      </trkpt>
      <trkpt lat="44.75276" lon="5.88376">
        <ele>925</ele>
        <time>2023-09-28T11:37:20Z</time>
      </trkpt>
      <trkpt lat="44.7528" lon="5.88376">
        <ele>925.1</ele>
        <time>2023-09-28T11:37:21Z</time>
      </trkpt>
      <trkpt lat="44.75284" lon="5.88377">
        <ele>925.2</ele>
        <time>2023-09-28T11:37:22Z</time>
      </trkpt>
      <trkpt lat="44.75287" lon="5.88378">
        <ele>925.3</ele>
        <time>2023-09-28T11:37:23Z</time>
      </trkpt>
      <trkpt lat="44.75291" lon="5.88378">
        <ele>925.5</ele>
        <time>2023-09-28T11:37:24Z</time>
      </trkpt>
      <trkpt lat="44.75295" lon="5.8838">
        <ele>925.6</ele>
        <time>2023-09-28T11:37:26Z</time>
      </trkpt>
      <trkpt lat="44.75297" lon="5.8838">
        <ele>925.7</ele>
        <time>2023-09-28T11:37:27Z</time>
      </trkpt>
      <trkpt lat="44.75298" lon="5.8838">
        <ele>925.8</ele>
        <time>2023-09-28T11:37:28Z</time>
      </trkpt>
      <trkpt lat="44.75301" lon="5.88379">
        <ele>925.9</ele>
        <time>2023-09-28T11:37:29Z</time>
      </trkpt>
      <trkpt lat="44.75305" lon="5.88378">
        <ele>926</ele>
        <time>2023-09-28T11:37:30Z</time>
      </trkpt>
      <trkpt lat="44.75306" lon="5.88377">
        <ele>926</ele>
        <time>2023-09-28T11:37:31Z</time>
      </trkpt>
      <trkpt lat="44.75308" lon="5.88377">
        <ele>926.1</ele>
        <time>2023-09-28T11:37:33Z</time>
      </trkpt>
      <trkpt lat="44.75309" lon="5.88377">
        <ele>926.2</ele>
        <time>2023-09-28T11:37:35Z</time>
      </trkpt>
      <trkpt lat="44.75308" lon="5.88377">
        <ele>926.2</ele>
        <time>2023-09-28T11:37:37Z</time>
      </trkpt>
      <trkpt lat="44.75308" lon="5.88376">
        <ele>926.2</ele>
        <time>2023-09-28T11:37:38Z</time>
      </trkpt>
      <trkpt lat="44.75309" lon="5.88376">
        <ele>926.2</ele>
        <time>2023-09-28T11:37:39Z</time>
      </trkpt>
      <trkpt lat="44.75309" lon="5.88376">
        <ele>926.2</ele>
        <time>2023-09-28T11:37:41Z</time>
      </trkpt>
      <trkpt lat="44.75309" lon="5.88376">
        <ele>926.2</ele>
        <time>2023-09-28T11:37:42Z</time>
      </trkpt>
      <trkpt lat="44.75309" lon="5.88376">
        <ele>926.2</ele>
        <time>2023-09-28T11:37:43Z</time>
      </trkpt>
      <trkpt lat="44.75314" lon="5.88374">
        <ele>926.4</ele>
        <time>2023-09-28T11:38:34Z</time>
      </trkpt>
      <trkpt lat="44.75316" lon="5.88373">
        <ele>926.5</ele>
        <time>2023-09-28T11:38:35Z</time>
      </trkpt>
      <trkpt lat="44.75317" lon="5.88372">
        <ele>926.5</ele>
        <time>2023-09-28T11:38:36Z</time>
      </trkpt>
      <trkpt lat="44.7532" lon="5.88372">
        <ele>926.6</ele>
        <time>2023-09-28T11:38:37Z</time>
      </trkpt>
      <trkpt lat="44.75321" lon="5.88372">
        <ele>926.6</ele>
        <time>2023-09-28T11:38:38Z</time>
      </trkpt>
      <trkpt lat="44.75325" lon="5.88372">
        <ele>926.7</ele>
        <time>2023-09-28T11:38:40Z</time>
      </trkpt>
      <trkpt lat="44.75327" lon="5.88372">
        <ele>926.8</ele>
        <time>2023-09-28T11:38:41Z</time>
      </trkpt>
      <trkpt lat="44.7533" lon="5.88372">
        <ele>926.9</ele>
        <time>2023-09-28T11:38:42Z</time>
      </trkpt>
      <trkpt lat="44.75336" lon="5.88373">
        <ele>927</ele>
        <time>2023-09-28T11:38:44Z</time>
      </trkpt>
      <trkpt lat="44.75339" lon="5.88372">
        <ele>927.1</ele>
        <time>2023-09-28T11:38:45Z</time>
      </trkpt>
      <trkpt lat="44.75343" lon="5.88372">
        <ele>927.2</ele>
        <time>2023-09-28T11:38:46Z</time>
      </trkpt>
      <trkpt lat="44.75346" lon="5.88373">
        <ele>927.3</ele>
        <time>2023-09-28T11:38:47Z</time>
      </trkpt>
      <trkpt lat="44.75349" lon="5.88374">
        <ele>927.4</ele>
        <time>2023-09-28T11:38:48Z</time>
      </trkpt>
      <trkpt lat="44.75353" lon="5.88374">
        <ele>927.4</ele>
        <time>2023-09-28T11:38:50Z</time>
      </trkpt>
      <trkpt lat="44.75356" lon="5.88374">
        <ele>927.5</ele>
        <time>2023-09-28T11:38:51Z</time>
      </trkpt>
      <trkpt lat="44.75359" lon="5.88375">
        <ele>927.6</ele>
        <time>2023-09-28T11:38:52Z</time>
      </trkpt>
      <trkpt lat="44.75363" lon="5.88375">
        <ele>927.7</ele>
        <time>2023-09-28T11:38:53Z</time>
      </trkpt>
      <trkpt lat="44.75366" lon="5.88376">
        <ele>927.7</ele>
        <time>2023-09-28T11:38:54Z</time>
      </trkpt>
      <trkpt lat="44.7537" lon="5.88376">
        <ele>927.8</ele>
        <time>2023-09-28T11:38:55Z</time>
      </trkpt>
      <trkpt lat="44.75374" lon="5.88377">
        <ele>927.9</ele>
        <time>2023-09-28T11:38:56Z</time>
      </trkpt>
      <trkpt lat="44.75376" lon="5.88377">
        <ele>928</ele>
        <time>2023-09-28T11:38:57Z</time>
      </trkpt>
      <trkpt lat="44.75379" lon="5.88377">
        <ele>928.1</ele>
        <time>2023-09-28T11:38:58Z</time>
      </trkpt>
      <trkpt lat="44.75383" lon="5.88377">
        <ele>928.2</ele>
        <time>2023-09-28T11:39:00Z</time>
      </trkpt>
      <trkpt lat="44.75387" lon="5.88378">
        <ele>928.4</ele>
        <time>2023-09-28T11:39:01Z</time>
      </trkpt>
      <trkpt lat="44.7539" lon="5.88378">
        <ele>928.5</ele>
        <time>2023-09-28T11:39:02Z</time>
      </trkpt>
      <trkpt lat="44.75394" lon="5.88377">
        <ele>928.6</ele>
        <time>2023-09-28T11:39:03Z</time>
      </trkpt>
      <trkpt lat="44.75397" lon="5.88377">
        <ele>928.8</ele>
        <time>2023-09-28T11:39:04Z</time>
      </trkpt>
      <trkpt lat="44.75403" lon="5.88377">
        <ele>929</ele>
        <time>2023-09-28T11:39:06Z</time>
      </trkpt>
      <trkpt lat="44.75407" lon="5.88378">
        <ele>929.1</ele>
        <time>2023-09-28T11:39:08Z</time>
      </trkpt>
      <trkpt lat="44.75411" lon="5.88378">
        <ele>929.3</ele>
        <time>2023-09-28T11:39:09Z</time>
      </trkpt>
      <trkpt lat="44.75414" lon="5.88377">
        <ele>929.4</ele>
        <time>2023-09-28T11:39:10Z</time>
      </trkpt>
      <trkpt lat="44.75418" lon="5.88376">
        <ele>929.5</ele>
        <time>2023-09-28T11:39:11Z</time>
      </trkpt>
      <trkpt lat="44.7542" lon="5.88376">
        <ele>929.6</ele>
        <time>2023-09-28T11:39:12Z</time>
      </trkpt>
      <trkpt lat="44.75424" lon="5.88375">
        <ele>929.7</ele>
        <time>2023-09-28T11:39:13Z</time>
      </trkpt>
      <trkpt lat="44.75428" lon="5.88376">
        <ele>929.9</ele>
        <time>2023-09-28T11:39:14Z</time>
      </trkpt>
      <trkpt lat="44.75434" lon="5.88377">
        <ele>930.1</ele>
        <time>2023-09-28T11:39:16Z</time>
      </trkpt>
      <trkpt lat="44.75438" lon="5.88377">
        <ele>930.3</ele>
        <time>2023-09-28T11:39:17Z</time>
      </trkpt>
      <trkpt lat="44.75442" lon="5.88377">
        <ele>930.4</ele>
        <time>2023-09-28T11:39:18Z</time>
      </trkpt>
      <trkpt lat="44.75446" lon="5.88377">
        <ele>930.5</ele>
        <time>2023-09-28T11:39:19Z</time>
      </trkpt>
      <trkpt lat="44.75451" lon="5.88377">
        <ele>930.7</ele>
        <time>2023-09-28T11:39:20Z</time>
      </trkpt>
      <trkpt lat="44.75456" lon="5.88378">
        <ele>930.9</ele>
        <time>2023-09-28T11:39:21Z</time>
      </trkpt>
      <trkpt lat="44.75461" lon="5.88377">
        <ele>931</ele>
        <time>2023-09-28T11:39:23Z</time>
      </trkpt>
      <trkpt lat="44.75466" lon="5.88378">
        <ele>931.2</ele>
        <time>2023-09-28T11:39:24Z</time>
      </trkpt>
      <trkpt lat="44.75469" lon="5.88376">
        <ele>931.2</ele>
        <time>2023-09-28T11:39:25Z</time>
      </trkpt>
      <trkpt lat="44.75472" lon="5.88375">
        <ele>931.3</ele>
        <time>2023-09-28T11:39:26Z</time>
      </trkpt>
      <trkpt lat="44.75473" lon="5.88375">
        <ele>931.3</ele>
        <time>2023-09-28T11:39:27Z</time>
      </trkpt>
      <trkpt lat="44.75477" lon="5.88375">
        <ele>931.4</ele>
        <time>2023-09-28T11:39:28Z</time>
      </trkpt>
      <trkpt lat="44.75482" lon="5.88377">
        <ele>931.5</ele>
        <time>2023-09-28T11:39:29Z</time>
      </trkpt>
      <trkpt lat="44.75486" lon="5.88379">
        <ele>931.6</ele>
        <time>2023-09-28T11:39:31Z</time>
      </trkpt>
      <trkpt lat="44.75489" lon="5.8838">
        <ele>931.6</ele>
        <time>2023-09-28T11:39:32Z</time>
      </trkpt>
      <trkpt lat="44.75493" lon="5.88381">
        <ele>931.7</ele>
        <time>2023-09-28T11:39:33Z</time>
      </trkpt>
      <trkpt lat="44.75498" lon="5.88382">
        <ele>931.8</ele>
        <time>2023-09-28T11:39:34Z</time>
      </trkpt>
      <trkpt lat="44.755" lon="5.88383">
        <ele>931.9</ele>
        <time>2023-09-28T11:39:35Z</time>
      </trkpt>
      <trkpt lat="44.75505" lon="5.88388">
        <ele>932.1</ele>
        <time>2023-09-28T11:39:36Z</time>
      </trkpt>
      <trkpt lat="44.75511" lon="5.88394">
        <ele>932.4</ele>
        <time>2023-09-28T11:39:38Z</time>
      </trkpt>
      <trkpt lat="44.75515" lon="5.88399">
        <ele>932.6</ele>
        <time>2023-09-28T11:39:39Z</time>
      </trkpt>
      <trkpt lat="44.75519" lon="5.88405">
        <ele>932.9</ele>
        <time>2023-09-28T11:39:40Z</time>
      </trkpt>
      <trkpt lat="44.75521" lon="5.88411">
        <ele>933.1</ele>
        <time>2023-09-28T11:39:42Z</time>
      </trkpt>
      <trkpt lat="44.75523" lon="5.88416">
        <ele>933.2</ele>
        <time>2023-09-28T11:39:43Z</time>
      </trkpt>
      <trkpt lat="44.75525" lon="5.88422">
        <ele>933.4</ele>
        <time>2023-09-28T11:39:44Z</time>
      </trkpt>
      <trkpt lat="44.75527" lon="5.88427">
        <ele>933.5</ele>
        <time>2023-09-28T11:39:45Z</time>
      </trkpt>
      <trkpt lat="44.75528" lon="5.88432">
        <ele>933.6</ele>
        <time>2023-09-28T11:39:46Z</time>
      </trkpt>
      <trkpt lat="44.7553" lon="5.88438">
        <ele>933.8</ele>
        <time>2023-09-28T11:39:47Z</time>
      </trkpt>
      <trkpt lat="44.75531" lon="5.88443">
        <ele>933.9</ele>
        <time>2023-09-28T11:39:48Z</time>
      </trkpt>
      <trkpt lat="44.75533" lon="5.8845">
        <ele>934</ele>
        <time>2023-09-28T11:39:49Z</time>
      </trkpt>
      <trkpt lat="44.75534" lon="5.88454">
        <ele>934.1</ele>
        <time>2023-09-28T11:39:51Z</time>
      </trkpt>
      <trkpt lat="44.75537" lon="5.88456">
        <ele>934.2</ele>
        <time>2023-09-28T11:39:52Z</time>
      </trkpt>
      <trkpt lat="44.7554" lon="5.88461">
        <ele>934.3</ele>
        <time>2023-09-28T11:39:53Z</time>
      </trkpt>
      <trkpt lat="44.75541" lon="5.88466">
        <ele>934.4</ele>
        <time>2023-09-28T11:39:54Z</time>
      </trkpt>
      <trkpt lat="44.75543" lon="5.88473">
        <ele>934.6</ele>
        <time>2023-09-28T11:39:55Z</time>
      </trkpt>
      <trkpt lat="44.75544" lon="5.88478">
        <ele>934.7</ele>
        <time>2023-09-28T11:39:56Z</time>
      </trkpt>
      <trkpt lat="44.75546" lon="5.88485">
        <ele>934.9</ele>
        <time>2023-09-28T11:39:58Z</time>
      </trkpt>
      <trkpt lat="44.75548" lon="5.88493">
        <ele>935</ele>
        <time>2023-09-28T11:39:59Z</time>
      </trkpt>
      <trkpt lat="44.7555" lon="5.88496">
        <ele>935.1</ele>
        <time>2023-09-28T11:40:00Z</time>
      </trkpt>
      <trkpt lat="44.75553" lon="5.88503">
        <ele>935.3</ele>
        <time>2023-09-28T11:40:02Z</time>
      </trkpt>
      <trkpt lat="44.75556" lon="5.88507">
        <ele>935.4</ele>
        <time>2023-09-28T11:40:03Z</time>
      </trkpt>
      <trkpt lat="44.75559" lon="5.88511">
        <ele>935.5</ele>
        <time>2023-09-28T11:40:04Z</time>
      </trkpt>
      <trkpt lat="44.75564" lon="5.88514">
        <ele>935.6</ele>
        <time>2023-09-28T11:40:05Z</time>
      </trkpt>
      <trkpt lat="44.75568" lon="5.88516">
        <ele>935.7</ele>
        <time>2023-09-28T11:40:07Z</time>
      </trkpt>
      <trkpt lat="44.75571" lon="5.88518">
        <ele>935.8</ele>
        <time>2023-09-28T11:40:08Z</time>
      </trkpt>
      <trkpt lat="44.75576" lon="5.8852">
        <ele>935.8</ele>
        <time>2023-09-28T11:40:09Z</time>
      </trkpt>
      <trkpt lat="44.7558" lon="5.88522">
        <ele>935.9</ele>
        <time>2023-09-28T11:40:10Z</time>
      </trkpt>
      <trkpt lat="44.75583" lon="5.88524">
        <ele>936</ele>
        <time>2023-09-28T11:40:11Z</time>
      </trkpt>
      <trkpt lat="44.75587" lon="5.88525">
        <ele>936</ele>
        <time>2023-09-28T11:40:12Z</time>
      </trkpt>
      <trkpt lat="44.75591" lon="5.88527">
        <ele>936.1</ele>
        <time>2023-09-28T11:40:13Z</time>
      </trkpt>
      <trkpt lat="44.75596" lon="5.88529">
        <ele>936.2</ele>
        <time>2023-09-28T11:40:14Z</time>
      </trkpt>
      <trkpt lat="44.75603" lon="5.88533">
        <ele>936.5</ele>
        <time>2023-09-28T11:40:16Z</time>
      </trkpt>
      <trkpt lat="44.75608" lon="5.88534">
        <ele>936.6</ele>
        <time>2023-09-28T11:40:18Z</time>
      </trkpt>
      <trkpt lat="44.75612" lon="5.88537">
        <ele>936.8</ele>
        <time>2023-09-28T11:40:19Z</time>
      </trkpt>
      <trkpt lat="44.75615" lon="5.88538">
        <ele>936.9</ele>
        <time>2023-09-28T11:40:20Z</time>
      </trkpt>
      <trkpt lat="44.75619" lon="5.88539">
        <ele>937</ele>
        <time>2023-09-28T11:40:21Z</time>
      </trkpt>
      <trkpt lat="44.75622" lon="5.88541">
        <ele>937.2</ele>
        <time>2023-09-28T11:40:22Z</time>
      </trkpt>
      <trkpt lat="44.75626" lon="5.88543">
        <ele>937.3</ele>
        <time>2023-09-28T11:40:23Z</time>
      </trkpt>
      <trkpt lat="44.75631" lon="5.88545">
        <ele>937.5</ele>
        <time>2023-09-28T11:40:25Z</time>
      </trkpt>
      <trkpt lat="44.75637" lon="5.88548">
        <ele>937.7</ele>
        <time>2023-09-28T11:40:26Z</time>
      </trkpt>
      <trkpt lat="44.75641" lon="5.8855">
        <ele>937.9</ele>
        <time>2023-09-28T11:40:28Z</time>
      </trkpt>
      <trkpt lat="44.75646" lon="5.8855">
        <ele>938</ele>
        <time>2023-09-28T11:40:29Z</time>
      </trkpt>
      <trkpt lat="44.75649" lon="5.8855">
        <ele>938.1</ele>
        <time>2023-09-28T11:40:30Z</time>
      </trkpt>
      <trkpt lat="44.75654" lon="5.88551">
        <ele>938.2</ele>
        <time>2023-09-28T11:40:31Z</time>
      </trkpt>
      <trkpt lat="44.75657" lon="5.8855">
        <ele>938.3</ele>
        <time>2023-09-28T11:40:32Z</time>
      </trkpt>
      <trkpt lat="44.75661" lon="5.8855">
        <ele>938.5</ele>
        <time>2023-09-28T11:40:33Z</time>
      </trkpt>
      <trkpt lat="44.75666" lon="5.88549">
        <ele>938.6</ele>
        <time>2023-09-28T11:40:35Z</time>
      </trkpt>
      <trkpt lat="44.7567" lon="5.88547">
        <ele>938.7</ele>
        <time>2023-09-28T11:40:36Z</time>
      </trkpt>
      <trkpt lat="44.75674" lon="5.88547">
        <ele>938.9</ele>
        <time>2023-09-28T11:40:37Z</time>
      </trkpt>
      <trkpt lat="44.75678" lon="5.88545">
        <ele>939</ele>
        <time>2023-09-28T11:40:38Z</time>
      </trkpt>
      <trkpt lat="44.75682" lon="5.88544">
        <ele>939.2</ele>
        <time>2023-09-28T11:40:39Z</time>
      </trkpt>
      <trkpt lat="44.75686" lon="5.88544">
        <ele>939.3</ele>
        <time>2023-09-28T11:40:40Z</time>
      </trkpt>
      <trkpt lat="44.7569" lon="5.88542">
        <ele>939.5</ele>
        <time>2023-09-28T11:40:41Z</time>
      </trkpt>
      <trkpt lat="44.75694" lon="5.88541">
        <ele>939.6</ele>
        <time>2023-09-28T11:40:43Z</time>
      </trkpt>
      <trkpt lat="44.75698" lon="5.8854">
        <ele>939.8</ele>
        <time>2023-09-28T11:40:44Z</time>
      </trkpt>
      <trkpt lat="44.757" lon="5.88538">
        <ele>939.9</ele>
        <time>2023-09-28T11:40:45Z</time>
      </trkpt>
      <trkpt lat="44.75702" lon="5.88537">
        <ele>940</ele>
        <time>2023-09-28T11:40:46Z</time>
      </trkpt>
      <trkpt lat="44.75706" lon="5.88535">
        <ele>940.1</ele>
        <time>2023-09-28T11:40:47Z</time>
      </trkpt>
      <trkpt lat="44.75709" lon="5.88532">
        <ele>940.3</ele>
        <time>2023-09-28T11:40:48Z</time>
      </trkpt>
      <trkpt lat="44.75712" lon="5.88528">
        <ele>940.5</ele>
        <time>2023-09-28T11:40:49Z</time>
      </trkpt>
      <trkpt lat="44.75716" lon="5.88525">
        <ele>940.7</ele>
        <time>2023-09-28T11:40:51Z</time>
      </trkpt>
      <trkpt lat="44.75719" lon="5.8852">
        <ele>940.8</ele>
        <time>2023-09-28T11:40:52Z</time>
      </trkpt>
      <trkpt lat="44.75722" lon="5.88516">
        <ele>941</ele>
        <time>2023-09-28T11:40:53Z</time>
      </trkpt>
      <trkpt lat="44.75724" lon="5.88511">
        <ele>941.2</ele>
        <time>2023-09-28T11:40:54Z</time>
      </trkpt>
      <trkpt lat="44.75727" lon="5.88506">
        <ele>941.3</ele>
        <time>2023-09-28T11:40:55Z</time>
      </trkpt>
      <trkpt lat="44.75729" lon="5.88502">
        <ele>941.5</ele>
        <time>2023-09-28T11:40:56Z</time>
      </trkpt>
      <trkpt lat="44.75732" lon="5.88497">
        <ele>941.6</ele>
        <time>2023-09-28T11:40:58Z</time>
      </trkpt>
      <trkpt lat="44.75735" lon="5.88494">
        <ele>941.8</ele>
        <time>2023-09-28T11:40:59Z</time>
      </trkpt>
      <trkpt lat="44.75738" lon="5.8849">
        <ele>941.9</ele>
        <time>2023-09-28T11:41:00Z</time>
      </trkpt>
      <trkpt lat="44.75741" lon="5.88486">
        <ele>942</ele>
        <time>2023-09-28T11:41:01Z</time>
      </trkpt>
      <trkpt lat="44.75745" lon="5.88482">
        <ele>942.2</ele>
        <time>2023-09-28T11:41:02Z</time>
      </trkpt>
      <trkpt lat="44.75749" lon="5.88479">
        <ele>942.3</ele>
        <time>2023-09-28T11:41:03Z</time>
      </trkpt>
      <trkpt lat="44.75753" lon="5.88476">
        <ele>942.5</ele>
        <time>2023-09-28T11:41:05Z</time>
      </trkpt>
      <trkpt lat="44.75756" lon="5.88474">
        <ele>942.6</ele>
        <time>2023-09-28T11:41:06Z</time>
      </trkpt>
      <trkpt lat="44.7576" lon="5.88471">
        <ele>942.7</ele>
        <time>2023-09-28T11:41:07Z</time>
      </trkpt>
      <trkpt lat="44.75763" lon="5.8847">
        <ele>942.8</ele>
        <time>2023-09-28T11:41:08Z</time>
      </trkpt>
      <trkpt lat="44.75767" lon="5.88467">
        <ele>942.9</ele>
        <time>2023-09-28T11:41:09Z</time>
      </trkpt>
      <trkpt lat="44.75771" lon="5.88465">
        <ele>943</ele>
        <time>2023-09-28T11:41:10Z</time>
      </trkpt>
      <trkpt lat="44.75775" lon="5.88463">
        <ele>943.1</ele>
        <time>2023-09-28T11:41:12Z</time>
      </trkpt>
      <trkpt lat="44.75778" lon="5.88461">
        <ele>943.1</ele>
        <time>2023-09-28T11:41:13Z</time>
      </trkpt>
      <trkpt lat="44.75782" lon="5.88459">
        <ele>943.2</ele>
        <time>2023-09-28T11:41:14Z</time>
      </trkpt>
      <trkpt lat="44.75785" lon="5.88457">
        <ele>943.3</ele>
        <time>2023-09-28T11:41:15Z</time>
      </trkpt>
      <trkpt lat="44.75789" lon="5.88456">
        <ele>943.4</ele>
        <time>2023-09-28T11:41:16Z</time>
      </trkpt>
      <trkpt lat="44.75794" lon="5.88455">
        <ele>943.5</ele>
        <time>2023-09-28T11:41:17Z</time>
      </trkpt>
      <trkpt lat="44.75801" lon="5.88451">
        <ele>943.7</ele>
        <time>2023-09-28T11:41:19Z</time>
      </trkpt>
      <trkpt lat="44.75805" lon="5.8845">
        <ele>943.8</ele>
        <time>2023-09-28T11:41:20Z</time>
      </trkpt>
      <trkpt lat="44.75807" lon="5.8845">
        <ele>943.8</ele>
        <time>2023-09-28T11:41:21Z</time>
      </trkpt>
      <trkpt lat="44.75811" lon="5.8845">
        <ele>943.9</ele>
        <time>2023-09-28T11:41:23Z</time>
      </trkpt>
      <trkpt lat="44.75816" lon="5.88449">
        <ele>944.1</ele>
        <time>2023-09-28T11:41:24Z</time>
      </trkpt>
      <trkpt lat="44.75822" lon="5.88448">
        <ele>944.2</ele>
        <time>2023-09-28T11:41:25Z</time>
      </trkpt>
      <trkpt lat="44.75828" lon="5.88446">
        <ele>944.4</ele>
        <time>2023-09-28T11:41:27Z</time>
      </trkpt>
      <trkpt lat="44.75832" lon="5.88446">
        <ele>944.6</ele>
        <time>2023-09-28T11:41:28Z</time>
      </trkpt>
      <trkpt lat="44.75837" lon="5.88444">
        <ele>944.7</ele>
        <time>2023-09-28T11:41:29Z</time>
      </trkpt>
      <trkpt lat="44.75842" lon="5.88442">
        <ele>944.9</ele>
        <time>2023-09-28T11:41:30Z</time>
      </trkpt>
      <trkpt lat="44.75846" lon="5.88441">
        <ele>945</ele>
        <time>2023-09-28T11:41:31Z</time>
      </trkpt>
      <trkpt lat="44.75848" lon="5.88441">
        <ele>945.1</ele>
        <time>2023-09-28T11:41:32Z</time>
      </trkpt>
      <trkpt lat="44.75853" lon="5.88441">
        <ele>945.2</ele>
        <time>2023-09-28T11:41:33Z</time>
      </trkpt>
      <trkpt lat="44.75858" lon="5.88443">
        <ele>945.3</ele>
        <time>2023-09-28T11:41:34Z</time>
      </trkpt>
      <trkpt lat="44.75863" lon="5.88444">
        <ele>945.5</ele>
        <time>2023-09-28T11:41:35Z</time>
      </trkpt>
      <trkpt lat="44.7587" lon="5.88447">
        <ele>945.7</ele>
        <time>2023-09-28T11:41:37Z</time>
      </trkpt>
      <trkpt lat="44.75875" lon="5.88449">
        <ele>945.8</ele>
        <time>2023-09-28T11:41:38Z</time>
      </trkpt>
      <trkpt lat="44.7588" lon="5.88451">
        <ele>946</ele>
        <time>2023-09-28T11:41:39Z</time>
      </trkpt>
      <trkpt lat="44.75883" lon="5.88453">
        <ele>946.1</ele>
        <time>2023-09-28T11:41:40Z</time>
      </trkpt>
      <trkpt lat="44.75886" lon="5.88456">
        <ele>946.2</ele>
        <time>2023-09-28T11:41:41Z</time>
      </trkpt>
      <trkpt lat="44.7589" lon="5.88458">
        <ele>946.3</ele>
        <time>2023-09-28T11:41:43Z</time>
      </trkpt>
      <trkpt lat="44.75894" lon="5.88462">
        <ele>946.5</ele>
        <time>2023-09-28T11:41:44Z</time>
      </trkpt>
      <trkpt lat="44.75897" lon="5.88463">
        <ele>946.6</ele>
        <time>2023-09-28T11:41:45Z</time>
      </trkpt>
      <trkpt lat="44.759" lon="5.88467">
        <ele>946.7</ele>
        <time>2023-09-28T11:41:47Z</time>
      </trkpt>
      <trkpt lat="44.75905" lon="5.8847">
        <ele>946.9</ele>
        <time>2023-09-28T11:41:48Z</time>
      </trkpt>
      <trkpt lat="44.75909" lon="5.88472">
        <ele>947</ele>
        <time>2023-09-28T11:41:49Z</time>
      </trkpt>
      <trkpt lat="44.75914" lon="5.88475">
        <ele>947.2</ele>
        <time>2023-09-28T11:41:51Z</time>
      </trkpt>
      <trkpt lat="44.75918" lon="5.88478">
        <ele>947.3</ele>
        <time>2023-09-28T11:41:52Z</time>
      </trkpt>
      <trkpt lat="44.7592" lon="5.88481">
        <ele>947.3</ele>
        <time>2023-09-28T11:41:53Z</time>
      </trkpt>
      <trkpt lat="44.75923" lon="5.88483">
        <ele>947.4</ele>
        <time>2023-09-28T11:41:54Z</time>
      </trkpt>
      <trkpt lat="44.75928" lon="5.88484">
        <ele>947.6</ele>
        <time>2023-09-28T11:41:55Z</time>
      </trkpt>
      <trkpt lat="44.75932" lon="5.88484">
        <ele>947.7</ele>
        <time>2023-09-28T11:41:56Z</time>
      </trkpt>
      <trkpt lat="44.75938" lon="5.88486">
        <ele>947.9</ele>
        <time>2023-09-28T11:41:57Z</time>
      </trkpt>
      <trkpt lat="44.75943" lon="5.88488">
        <ele>948.1</ele>
        <time>2023-09-28T11:41:58Z</time>
      </trkpt>
      <trkpt lat="44.75946" lon="5.8849">
        <ele>948.2</ele>
        <time>2023-09-28T11:42:00Z</time>
      </trkpt>
      <trkpt lat="44.7595" lon="5.88492">
        <ele>948.3</ele>
        <time>2023-09-28T11:42:01Z</time>
      </trkpt>
      <trkpt lat="44.75955" lon="5.88493">
        <ele>948.5</ele>
        <time>2023-09-28T11:42:02Z</time>
      </trkpt>
      <trkpt lat="44.75959" lon="5.88495">
        <ele>948.7</ele>
        <time>2023-09-28T11:42:03Z</time>
      </trkpt>
      <trkpt lat="44.75964" lon="5.88496">
        <ele>948.8</ele>
        <time>2023-09-28T11:42:04Z</time>
      </trkpt>
      <trkpt lat="44.75968" lon="5.88499">
        <ele>948.9</ele>
        <time>2023-09-28T11:42:05Z</time>
      </trkpt>
      <trkpt lat="44.75976" lon="5.88503">
        <ele>949.2</ele>
        <time>2023-09-28T11:42:07Z</time>
      </trkpt>
      <trkpt lat="44.7598" lon="5.88505">
        <ele>949.4</ele>
        <time>2023-09-28T11:42:09Z</time>
      </trkpt>
      <trkpt lat="44.75985" lon="5.88506">
        <ele>949.5</ele>
        <time>2023-09-28T11:42:10Z</time>
      </trkpt>
      <trkpt lat="44.75989" lon="5.88506">
        <ele>949.7</ele>
        <time>2023-09-28T11:42:11Z</time>
      </trkpt>
      <trkpt lat="44.75993" lon="5.88506">
        <ele>949.8</ele>
        <time>2023-09-28T11:42:12Z</time>
      </trkpt>
      <trkpt lat="44.75997" lon="5.88506">
        <ele>950</ele>
        <time>2023-09-28T11:42:13Z</time>
      </trkpt>
      <trkpt lat="44.76001" lon="5.88505">
        <ele>950.1</ele>
        <time>2023-09-28T11:42:14Z</time>
      </trkpt>
      <trkpt lat="44.76006" lon="5.88505">
        <ele>950.3</ele>
        <time>2023-09-28T11:42:15Z</time>
      </trkpt>
      <trkpt lat="44.76011" lon="5.88505">
        <ele>950.5</ele>
        <time>2023-09-28T11:42:17Z</time>
      </trkpt>
      <trkpt lat="44.76017" lon="5.88506">
        <ele>950.7</ele>
        <time>2023-09-28T11:42:18Z</time>
      </trkpt>
      <trkpt lat="44.76021" lon="5.88508">
        <ele>950.8</ele>
        <time>2023-09-28T11:42:19Z</time>
      </trkpt>
      <trkpt lat="44.76027" lon="5.88513">
        <ele>951.1</ele>
        <time>2023-09-28T11:42:21Z</time>
      </trkpt>
      <trkpt lat="44.76031" lon="5.88516">
        <ele>951.2</ele>
        <time>2023-09-28T11:42:22Z</time>
      </trkpt>
      <trkpt lat="44.76036" lon="5.88519">
        <ele>951.4</ele>
        <time>2023-09-28T11:42:24Z</time>
      </trkpt>
      <trkpt lat="44.7604" lon="5.88521">
        <ele>951.6</ele>
        <time>2023-09-28T11:42:25Z</time>
      </trkpt>
      <trkpt lat="44.76047" lon="5.88523">
        <ele>951.8</ele>
        <time>2023-09-28T11:42:26Z</time>
      </trkpt>
      <trkpt lat="44.76052" lon="5.88524">
        <ele>952</ele>
        <time>2023-09-28T11:42:27Z</time>
      </trkpt>
      <trkpt lat="44.76056" lon="5.88525">
        <ele>952.2</ele>
        <time>2023-09-28T11:42:29Z</time>
      </trkpt>
      <trkpt lat="44.76061" lon="5.88524">
        <ele>952.4</ele>
        <time>2023-09-28T11:42:30Z</time>
      </trkpt>
      <trkpt lat="44.76065" lon="5.88523">
        <ele>952.5</ele>
        <time>2023-09-28T11:42:31Z</time>
      </trkpt>
      <trkpt lat="44.7607" lon="5.88523">
        <ele>952.7</ele>
        <time>2023-09-28T11:42:32Z</time>
      </trkpt>
      <trkpt lat="44.76073" lon="5.88523">
        <ele>952.9</ele>
        <time>2023-09-28T11:42:33Z</time>
      </trkpt>
      <trkpt lat="44.76078" lon="5.88525">
        <ele>953.1</ele>
        <time>2023-09-28T11:42:34Z</time>
      </trkpt>
      <trkpt lat="44.76083" lon="5.88529">
        <ele>953.3</ele>
        <time>2023-09-28T11:42:36Z</time>
      </trkpt>
      <trkpt lat="44.76086" lon="5.88534">
        <ele>953.4</ele>
        <time>2023-09-28T11:42:37Z</time>
      </trkpt>
      <trkpt lat="44.76089" lon="5.88538">
        <ele>953.6</ele>
        <time>2023-09-28T11:42:38Z</time>
      </trkpt>
      <trkpt lat="44.76092" lon="5.88543">
        <ele>953.7</ele>
        <time>2023-09-28T11:42:39Z</time>
      </trkpt>
      <trkpt lat="44.76094" lon="5.88548">
        <ele>953.9</ele>
        <time>2023-09-28T11:42:40Z</time>
      </trkpt>
      <trkpt lat="44.76096" lon="5.88553">
        <ele>954</ele>
        <time>2023-09-28T11:42:41Z</time>
      </trkpt>
      <trkpt lat="44.76098" lon="5.88559">
        <ele>954.1</ele>
        <time>2023-09-28T11:42:42Z</time>
      </trkpt>
      <trkpt lat="44.76099" lon="5.88566">
        <ele>954.2</ele>
        <time>2023-09-28T11:42:44Z</time>
      </trkpt>
      <trkpt lat="44.761" lon="5.8857">
        <ele>954.3</ele>
        <time>2023-09-28T11:42:45Z</time>
      </trkpt>
      <trkpt lat="44.76102" lon="5.88576">
        <ele>954.5</ele>
        <time>2023-09-28T11:42:46Z</time>
      </trkpt>
      <trkpt lat="44.76102" lon="5.88581">
        <ele>954.6</ele>
        <time>2023-09-28T11:42:47Z</time>
      </trkpt>
      <trkpt lat="44.76104" lon="5.88588">
        <ele>954.8</ele>
        <time>2023-09-28T11:42:48Z</time>
      </trkpt>
      <trkpt lat="44.76105" lon="5.88593">
        <ele>954.9</ele>
        <time>2023-09-28T11:42:49Z</time>
      </trkpt>
      <trkpt lat="44.76107" lon="5.88599">
        <ele>955</ele>
        <time>2023-09-28T11:42:50Z</time>
      </trkpt>
      <trkpt lat="44.76109" lon="5.88608">
        <ele>955.2</ele>
        <time>2023-09-28T11:42:52Z</time>
      </trkpt>
      <trkpt lat="44.76111" lon="5.88614">
        <ele>955.4</ele>
        <time>2023-09-28T11:42:53Z</time>
      </trkpt>
      <trkpt lat="44.76114" lon="5.88618">
        <ele>955.5</ele>
        <time>2023-09-28T11:42:54Z</time>
      </trkpt>
      <trkpt lat="44.76117" lon="5.88623">
        <ele>955.6</ele>
        <time>2023-09-28T11:42:55Z</time>
      </trkpt>
      <trkpt lat="44.76121" lon="5.88629">
        <ele>955.8</ele>
        <time>2023-09-28T11:42:57Z</time>
      </trkpt>
      <trkpt lat="44.76123" lon="5.88633">
        <ele>955.9</ele>
        <time>2023-09-28T11:42:58Z</time>
      </trkpt>
      <trkpt lat="44.76127" lon="5.88639">
        <ele>956.1</ele>
        <time>2023-09-28T11:42:59Z</time>
      </trkpt>
      <trkpt lat="44.7613" lon="5.88642">
        <ele>956.2</ele>
        <time>2023-09-28T11:43:00Z</time>
      </trkpt>
      <trkpt lat="44.76133" lon="5.88645">
        <ele>956.4</ele>
        <time>2023-09-28T11:43:01Z</time>
      </trkpt>
      <trkpt lat="44.76136" lon="5.88648">
        <ele>956.5</ele>
        <time>2023-09-28T11:43:02Z</time>
      </trkpt>
      <trkpt lat="44.7614" lon="5.88652">
        <ele>956.7</ele>
        <time>2023-09-28T11:43:03Z</time>
      </trkpt>
      <trkpt lat="44.76144" lon="5.88657">
        <ele>956.8</ele>
        <time>2023-09-28T11:43:05Z</time>
      </trkpt>
      <trkpt lat="44.76148" lon="5.88661">
        <ele>957</ele>
        <time>2023-09-28T11:43:06Z</time>
      </trkpt>
      <trkpt lat="44.76151" lon="5.88666">
        <ele>957.1</ele>
        <time>2023-09-28T11:43:07Z</time>
      </trkpt>
      <trkpt lat="44.76154" lon="5.88671">
        <ele>957.3</ele>
        <time>2023-09-28T11:43:08Z</time>
      </trkpt>
      <trkpt lat="44.76156" lon="5.88675">
        <ele>957.4</ele>
        <time>2023-09-28T11:43:09Z</time>
      </trkpt>
      <trkpt lat="44.76159" lon="5.88679">
        <ele>957.6</ele>
        <time>2023-09-28T11:43:10Z</time>
      </trkpt>
      <trkpt lat="44.76162" lon="5.88682">
        <ele>957.7</ele>
        <time>2023-09-28T11:43:11Z</time>
      </trkpt>
      <trkpt lat="44.76169" lon="5.8869">
        <ele>958.1</ele>
        <time>2023-09-28T11:43:13Z</time>
      </trkpt>
      <trkpt lat="44.76175" lon="5.88695">
        <ele>958.4</ele>
        <time>2023-09-28T11:43:15Z</time>
      </trkpt>
      <trkpt lat="44.76179" lon="5.88697">
        <ele>958.6</ele>
        <time>2023-09-28T11:43:16Z</time>
      </trkpt>
      <trkpt lat="44.76183" lon="5.88699">
        <ele>958.8</ele>
        <time>2023-09-28T11:43:18Z</time>
      </trkpt>
      <trkpt lat="44.76187" lon="5.88702">
        <ele>958.9</ele>
        <time>2023-09-28T11:43:19Z</time>
      </trkpt>
      <trkpt lat="44.76191" lon="5.88704">
        <ele>959.1</ele>
        <time>2023-09-28T11:43:20Z</time>
      </trkpt>
      <trkpt lat="44.76196" lon="5.88707">
        <ele>959.3</ele>
        <time>2023-09-28T11:43:21Z</time>
      </trkpt>
      <trkpt lat="44.76199" lon="5.8871">
        <ele>959.5</ele>
        <time>2023-09-28T11:43:22Z</time>
      </trkpt>
      <trkpt lat="44.76203" lon="5.88715">
        <ele>959.6</ele>
        <time>2023-09-28T11:43:23Z</time>
      </trkpt>
      <trkpt lat="44.76205" lon="5.88722">
        <ele>959.8</ele>
        <time>2023-09-28T11:43:25Z</time>
      </trkpt>
      <trkpt lat="44.76206" lon="5.88728">
        <ele>959.9</ele>
        <time>2023-09-28T11:43:26Z</time>
      </trkpt>
      <trkpt lat="44.76207" lon="5.88738">
        <ele>960.1</ele>
        <time>2023-09-28T11:43:27Z</time>
      </trkpt>
      <trkpt lat="44.76208" lon="5.88744">
        <ele>960.2</ele>
        <time>2023-09-28T11:43:28Z</time>
      </trkpt>
      <trkpt lat="44.7621" lon="5.8875">
        <ele>960.4</ele>
        <time>2023-09-28T11:43:30Z</time>
      </trkpt>
      <trkpt lat="44.76214" lon="5.88761">
        <ele>960.7</ele>
        <time>2023-09-28T11:43:31Z</time>
      </trkpt>
      <trkpt lat="44.76216" lon="5.88767">
        <ele>960.9</ele>
        <time>2023-09-28T11:43:33Z</time>
      </trkpt>
      <trkpt lat="44.76219" lon="5.88773">
        <ele>961.1</ele>
        <time>2023-09-28T11:43:34Z</time>
      </trkpt>
      <trkpt lat="44.76221" lon="5.88778">
        <ele>961.3</ele>
        <time>2023-09-28T11:43:35Z</time>
      </trkpt>
      <trkpt lat="44.76223" lon="5.88783">
        <ele>961.4</ele>
        <time>2023-09-28T11:43:36Z</time>
      </trkpt>
      <trkpt lat="44.76224" lon="5.88789">
        <ele>961.6</ele>
        <time>2023-09-28T11:43:37Z</time>
      </trkpt>
      <trkpt lat="44.76226" lon="5.88794">
        <ele>961.7</ele>
        <time>2023-09-28T11:43:38Z</time>
      </trkpt>
      <trkpt lat="44.76227" lon="5.888">
        <ele>961.9</ele>
        <time>2023-09-28T11:43:39Z</time>
      </trkpt>
      <trkpt lat="44.76229" lon="5.88807">
        <ele>962</ele>
        <time>2023-09-28T11:43:40Z</time>
      </trkpt>
      <trkpt lat="44.76233" lon="5.88814">
        <ele>962.2</ele>
        <time>2023-09-28T11:43:41Z</time>
      </trkpt>
      <trkpt lat="44.76236" lon="5.8882">
        <ele>962.4</ele>
        <time>2023-09-28T11:43:43Z</time>
      </trkpt>
      <trkpt lat="44.76236" lon="5.88827">
        <ele>962.5</ele>
        <time>2023-09-28T11:43:44Z</time>
      </trkpt>
      <trkpt lat="44.76234" lon="5.88835">
        <ele>962.7</ele>
        <time>2023-09-28T11:43:45Z</time>
      </trkpt>
      <trkpt lat="44.76235" lon="5.88841">
        <ele>962.9</ele>
        <time>2023-09-28T11:43:46Z</time>
      </trkpt>
      <trkpt lat="44.76236" lon="5.88846">
        <ele>963</ele>
        <time>2023-09-28T11:43:47Z</time>
      </trkpt>
      <trkpt lat="44.76237" lon="5.88851">
        <ele>963.1</ele>
        <time>2023-09-28T11:43:48Z</time>
      </trkpt>
      <trkpt lat="44.76238" lon="5.88856">
        <ele>963.3</ele>
        <time>2023-09-28T11:43:50Z</time>
      </trkpt>
      <trkpt lat="44.7624" lon="5.88862">
        <ele>963.5</ele>
        <time>2023-09-28T11:43:51Z</time>
      </trkpt>
      <trkpt lat="44.76241" lon="5.88866">
        <ele>963.6</ele>
        <time>2023-09-28T11:43:52Z</time>
      </trkpt>
      <trkpt lat="44.76242" lon="5.88871">
        <ele>963.8</ele>
        <time>2023-09-28T11:43:53Z</time>
      </trkpt>
      <trkpt lat="44.76244" lon="5.88875">
        <ele>963.9</ele>
        <time>2023-09-28T11:43:54Z</time>
      </trkpt>
      <trkpt lat="44.76246" lon="5.8888">
        <ele>964.1</ele>
        <time>2023-09-28T11:43:55Z</time>
      </trkpt>
      <trkpt lat="44.76249" lon="5.88885">
        <ele>964.2</ele>
        <time>2023-09-28T11:43:56Z</time>
      </trkpt>
      <trkpt lat="44.76252" lon="5.88889">
        <ele>964.4</ele>
        <time>2023-09-28T11:43:58Z</time>
      </trkpt>
      <trkpt lat="44.76256" lon="5.88892">
        <ele>964.5</ele>
        <time>2023-09-28T11:43:59Z</time>
      </trkpt>
      <trkpt lat="44.7626" lon="5.88893">
        <ele>964.7</ele>
        <time>2023-09-28T11:44:00Z</time>
      </trkpt>
      <trkpt lat="44.76263" lon="5.88895">
        <ele>964.8</ele>
        <time>2023-09-28T11:44:01Z</time>
      </trkpt>
      <trkpt lat="44.76266" lon="5.88896">
        <ele>964.9</ele>
        <time>2023-09-28T11:44:02Z</time>
      </trkpt>
      <trkpt lat="44.7627" lon="5.88897">
        <ele>965.1</ele>
        <time>2023-09-28T11:44:03Z</time>
      </trkpt>
      <trkpt lat="44.76274" lon="5.88899">
        <ele>965.2</ele>
        <time>2023-09-28T11:44:04Z</time>
      </trkpt>
      <trkpt lat="44.76278" lon="5.88901">
        <ele>965.3</ele>
        <time>2023-09-28T11:44:06Z</time>
      </trkpt>
      <trkpt lat="44.76281" lon="5.88903">
        <ele>965.4</ele>
        <time>2023-09-28T11:44:07Z</time>
      </trkpt>
      <trkpt lat="44.76285" lon="5.88905">
        <ele>965.6</ele>
        <time>2023-09-28T11:44:08Z</time>
      </trkpt>
      <trkpt lat="44.76289" lon="5.88908">
        <ele>965.7</ele>
        <time>2023-09-28T11:44:10Z</time>
      </trkpt>
      <trkpt lat="44.76293" lon="5.88911">
        <ele>965.9</ele>
        <time>2023-09-28T11:44:11Z</time>
      </trkpt>
      <trkpt lat="44.76298" lon="5.88916">
        <ele>966.1</ele>
        <time>2023-09-28T11:44:12Z</time>
      </trkpt>
      <trkpt lat="44.76303" lon="5.88919">
        <ele>966.2</ele>
        <time>2023-09-28T11:44:13Z</time>
      </trkpt>
      <trkpt lat="44.76305" lon="5.88922">
        <ele>966.3</ele>
        <time>2023-09-28T11:44:14Z</time>
      </trkpt>
      <trkpt lat="44.76309" lon="5.88925">
        <ele>966.5</ele>
        <time>2023-09-28T11:44:15Z</time>
      </trkpt>
      <trkpt lat="44.76314" lon="5.88929">
        <ele>966.7</ele>
        <time>2023-09-28T11:44:17Z</time>
      </trkpt>
      <trkpt lat="44.76319" lon="5.88931">
        <ele>966.8</ele>
        <time>2023-09-28T11:44:18Z</time>
      </trkpt>
      <trkpt lat="44.76323" lon="5.88934">
        <ele>967</ele>
        <time>2023-09-28T11:44:19Z</time>
      </trkpt>
      <trkpt lat="44.76327" lon="5.88936">
        <ele>967.1</ele>
        <time>2023-09-28T11:44:20Z</time>
      </trkpt>
      <trkpt lat="44.76331" lon="5.88939">
        <ele>967.2</ele>
        <time>2023-09-28T11:44:21Z</time>
      </trkpt>
      <trkpt lat="44.76336" lon="5.88942">
        <ele>967.3</ele>
        <time>2023-09-28T11:44:23Z</time>
      </trkpt>
      <trkpt lat="44.76339" lon="5.88944">
        <ele>967.4</ele>
        <time>2023-09-28T11:44:24Z</time>
      </trkpt>
      <trkpt lat="44.76343" lon="5.88946">
        <ele>967.5</ele>
        <time>2023-09-28T11:44:25Z</time>
      </trkpt>
      <trkpt lat="44.76346" lon="5.88949">
        <ele>967.6</ele>
        <time>2023-09-28T11:44:26Z</time>
      </trkpt>
      <trkpt lat="44.7635" lon="5.88953">
        <ele>967.7</ele>
        <time>2023-09-28T11:44:27Z</time>
      </trkpt>
      <trkpt lat="44.76355" lon="5.88955">
        <ele>967.9</ele>
        <time>2023-09-28T11:44:28Z</time>
      </trkpt>
      <trkpt lat="44.76361" lon="5.88961">
        <ele>968.1</ele>
        <time>2023-09-28T11:44:30Z</time>
      </trkpt>
      <trkpt lat="44.76363" lon="5.88963">
        <ele>968.2</ele>
        <time>2023-09-28T11:44:31Z</time>
      </trkpt>
      <trkpt lat="44.76365" lon="5.88967">
        <ele>968.3</ele>
        <time>2023-09-28T11:44:32Z</time>
      </trkpt>
      <trkpt lat="44.76367" lon="5.88971">
        <ele>968.4</ele>
        <time>2023-09-28T11:44:33Z</time>
      </trkpt>
      <trkpt lat="44.7637" lon="5.88975">
        <ele>968.5</ele>
        <time>2023-09-28T11:44:35Z</time>
      </trkpt>
      <trkpt lat="44.76372" lon="5.88979">
        <ele>968.6</ele>
        <time>2023-09-28T11:44:36Z</time>
      </trkpt>
      <trkpt lat="44.76374" lon="5.88983">
        <ele>968.7</ele>
        <time>2023-09-28T11:44:37Z</time>
      </trkpt>
      <trkpt lat="44.76376" lon="5.88988">
        <ele>968.8</ele>
        <time>2023-09-28T11:44:38Z</time>
      </trkpt>
      <trkpt lat="44.76379" lon="5.88994">
        <ele>969</ele>
        <time>2023-09-28T11:44:39Z</time>
      </trkpt>
      <trkpt lat="44.76382" lon="5.88998">
        <ele>969.1</ele>
        <time>2023-09-28T11:44:40Z</time>
      </trkpt>
      <trkpt lat="44.76387" lon="5.8901">
        <ele>969.4</ele>
        <time>2023-09-28T11:44:42Z</time>
      </trkpt>
      <trkpt lat="44.76388" lon="5.89016">
        <ele>969.6</ele>
        <time>2023-09-28T11:44:44Z</time>
      </trkpt>
      <trkpt lat="44.7639" lon="5.89023">
        <ele>969.8</ele>
        <time>2023-09-28T11:44:45Z</time>
      </trkpt>
      <trkpt lat="44.76392" lon="5.89028">
        <ele>969.9</ele>
        <time>2023-09-28T11:44:46Z</time>
      </trkpt>
      <trkpt lat="44.76393" lon="5.89033">
        <ele>970.1</ele>
        <time>2023-09-28T11:44:47Z</time>
      </trkpt>
      <trkpt lat="44.76395" lon="5.89037">
        <ele>970.2</ele>
        <time>2023-09-28T11:44:48Z</time>
      </trkpt>
      <trkpt lat="44.76399" lon="5.89048">
        <ele>970.5</ele>
        <time>2023-09-28T11:44:50Z</time>
      </trkpt>
      <trkpt lat="44.76402" lon="5.89053">
        <ele>970.6</ele>
        <time>2023-09-28T11:44:52Z</time>
      </trkpt>
      <trkpt lat="44.76404" lon="5.89057">
        <ele>970.8</ele>
        <time>2023-09-28T11:44:53Z</time>
      </trkpt>
      <trkpt lat="44.76407" lon="5.89062">
        <ele>970.9</ele>
        <time>2023-09-28T11:44:54Z</time>
      </trkpt>
      <trkpt lat="44.7641" lon="5.89064">
        <ele>971</ele>
        <time>2023-09-28T11:44:55Z</time>
      </trkpt>
      <trkpt lat="44.76413" lon="5.89069">
        <ele>971.2</ele>
        <time>2023-09-28T11:44:56Z</time>
      </trkpt>
      <trkpt lat="44.76414" lon="5.89072">
        <ele>971.2</ele>
        <time>2023-09-28T11:44:57Z</time>
      </trkpt>
      <trkpt lat="44.76418" lon="5.89076">
        <ele>971.4</ele>
        <time>2023-09-28T11:44:59Z</time>
      </trkpt>
      <trkpt lat="44.76422" lon="5.89081">
        <ele>971.6</ele>
        <time>2023-09-28T11:45:00Z</time>
      </trkpt>
      <trkpt lat="44.76425" lon="5.89085">
        <ele>971.7</ele>
        <time>2023-09-28T11:45:01Z</time>
      </trkpt>
      <trkpt lat="44.76428" lon="5.89087">
        <ele>971.9</ele>
        <time>2023-09-28T11:45:02Z</time>
      </trkpt>
      <trkpt lat="44.76431" lon="5.89091">
        <ele>972</ele>
        <time>2023-09-28T11:45:03Z</time>
      </trkpt>
      <trkpt lat="44.76434" lon="5.89094">
        <ele>972.2</ele>
        <time>2023-09-28T11:45:04Z</time>
      </trkpt>
      <trkpt lat="44.76438" lon="5.89098">
        <ele>972.3</ele>
        <time>2023-09-28T11:45:05Z</time>
      </trkpt>
      <trkpt lat="44.76441" lon="5.89101">
        <ele>972.4</ele>
        <time>2023-09-28T11:45:07Z</time>
      </trkpt>
      <trkpt lat="44.76444" lon="5.89103">
        <ele>972.5</ele>
        <time>2023-09-28T11:45:08Z</time>
      </trkpt>
      <trkpt lat="44.76446" lon="5.89106">
        <ele>972.6</ele>
        <time>2023-09-28T11:45:09Z</time>
      </trkpt>
      <trkpt lat="44.76449" lon="5.89108">
        <ele>972.7</ele>
        <time>2023-09-28T11:45:10Z</time>
      </trkpt>
      <trkpt lat="44.76451" lon="5.8911">
        <ele>972.7</ele>
        <time>2023-09-28T11:45:11Z</time>
      </trkpt>
      <trkpt lat="44.76454" lon="5.89113">
        <ele>972.8</ele>
        <time>2023-09-28T11:45:12Z</time>
      </trkpt>
      <trkpt lat="44.76457" lon="5.89116">
        <ele>972.9</ele>
        <time>2023-09-28T11:45:13Z</time>
      </trkpt>
      <trkpt lat="44.76462" lon="5.89119">
        <ele>973</ele>
        <time>2023-09-28T11:45:15Z</time>
      </trkpt>
      <trkpt lat="44.76465" lon="5.89122">
        <ele>973.1</ele>
        <time>2023-09-28T11:45:16Z</time>
      </trkpt>
      <trkpt lat="44.7647" lon="5.89126">
        <ele>973.2</ele>
        <time>2023-09-28T11:45:18Z</time>
      </trkpt>
      <trkpt lat="44.76474" lon="5.89128">
        <ele>973.4</ele>
        <time>2023-09-28T11:45:19Z</time>
      </trkpt>
      <trkpt lat="44.76477" lon="5.8913">
        <ele>973.5</ele>
        <time>2023-09-28T11:45:20Z</time>
      </trkpt>
      <trkpt lat="44.76481" lon="5.89133">
        <ele>973.6</ele>
        <time>2023-09-28T11:45:21Z</time>
      </trkpt>
      <trkpt lat="44.76484" lon="5.89136">
        <ele>973.7</ele>
        <time>2023-09-28T11:45:22Z</time>
      </trkpt>
      <trkpt lat="44.76488" lon="5.89139">
        <ele>973.9</ele>
        <time>2023-09-28T11:45:24Z</time>
      </trkpt>
      <trkpt lat="44.76491" lon="5.89142">
        <ele>974</ele>
        <time>2023-09-28T11:45:25Z</time>
      </trkpt>
      <trkpt lat="44.76495" lon="5.89144">
        <ele>974.1</ele>
        <time>2023-09-28T11:45:26Z</time>
      </trkpt>
      <trkpt lat="44.76498" lon="5.89146">
        <ele>974.3</ele>
        <time>2023-09-28T11:45:27Z</time>
      </trkpt>
      <trkpt lat="44.76501" lon="5.8915">
        <ele>974.4</ele>
        <time>2023-09-28T11:45:28Z</time>
      </trkpt>
      <trkpt lat="44.76505" lon="5.89153">
        <ele>974.6</ele>
        <time>2023-09-28T11:45:29Z</time>
      </trkpt>
      <trkpt lat="44.76508" lon="5.89158">
        <ele>974.8</ele>
        <time>2023-09-28T11:45:31Z</time>
      </trkpt>
      <trkpt lat="44.7651" lon="5.89162">
        <ele>974.9</ele>
        <time>2023-09-28T11:45:32Z</time>
      </trkpt>
      <trkpt lat="44.76514" lon="5.89166">
        <ele>975.1</ele>
        <time>2023-09-28T11:45:33Z</time>
      </trkpt>
      <trkpt lat="44.76517" lon="5.89169">
        <ele>975.3</ele>
        <time>2023-09-28T11:45:34Z</time>
      </trkpt>
      <trkpt lat="44.7652" lon="5.89172">
        <ele>975.4</ele>
        <time>2023-09-28T11:45:35Z</time>
      </trkpt>
      <trkpt lat="44.76523" lon="5.89176">
        <ele>975.6</ele>
        <time>2023-09-28T11:45:36Z</time>
      </trkpt>
      <trkpt lat="44.76528" lon="5.89182">
        <ele>975.8</ele>
        <time>2023-09-28T11:45:38Z</time>
      </trkpt>
      <trkpt lat="44.7653" lon="5.89186">
        <ele>975.9</ele>
        <time>2023-09-28T11:45:39Z</time>
      </trkpt>
      <trkpt lat="44.76533" lon="5.89189">
        <ele>976</ele>
        <time>2023-09-28T11:45:40Z</time>
      </trkpt>
      <trkpt lat="44.76536" lon="5.89194">
        <ele>976.2</ele>
        <time>2023-09-28T11:45:42Z</time>
      </trkpt>
      <trkpt lat="44.76539" lon="5.89198">
        <ele>976.3</ele>
        <time>2023-09-28T11:45:43Z</time>
      </trkpt>
      <trkpt lat="44.76542" lon="5.89202">
        <ele>976.5</ele>
        <time>2023-09-28T11:45:44Z</time>
      </trkpt>
      <trkpt lat="44.76545" lon="5.89206">
        <ele>976.6</ele>
        <time>2023-09-28T11:45:45Z</time>
      </trkpt>
      <trkpt lat="44.76547" lon="5.8921">
        <ele>976.7</ele>
        <time>2023-09-28T11:45:46Z</time>
      </trkpt>
      <trkpt lat="44.7655" lon="5.89213">
        <ele>976.9</ele>
        <time>2023-09-28T11:45:47Z</time>
      </trkpt>
      <trkpt lat="44.76553" lon="5.89218">
        <ele>977</ele>
        <time>2023-09-28T11:45:48Z</time>
      </trkpt>
      <trkpt lat="44.76556" lon="5.89222">
        <ele>977.2</ele>
        <time>2023-09-28T11:45:50Z</time>
      </trkpt>
      <trkpt lat="44.76559" lon="5.89226">
        <ele>977.3</ele>
        <time>2023-09-28T11:45:51Z</time>
      </trkpt>
      <trkpt lat="44.76561" lon="5.89229">
        <ele>977.5</ele>
        <time>2023-09-28T11:45:52Z</time>
      </trkpt>
      <trkpt lat="44.76565" lon="5.89236">
        <ele>977.7</ele>
        <time>2023-09-28T11:45:53Z</time>
      </trkpt>
      <trkpt lat="44.76567" lon="5.89241">
        <ele>977.8</ele>
        <time>2023-09-28T11:45:54Z</time>
      </trkpt>
      <trkpt lat="44.7657" lon="5.89248">
        <ele>978.1</ele>
        <time>2023-09-28T11:45:56Z</time>
      </trkpt>
      <trkpt lat="44.76573" lon="5.89252">
        <ele>978.2</ele>
        <time>2023-09-28T11:45:57Z</time>
      </trkpt>
      <trkpt lat="44.76577" lon="5.89257">
        <ele>978.4</ele>
        <time>2023-09-28T11:45:58Z</time>
      </trkpt>
      <trkpt lat="44.76579" lon="5.89261">
        <ele>978.5</ele>
        <time>2023-09-28T11:45:59Z</time>
      </trkpt>
      <trkpt lat="44.76582" lon="5.89265">
        <ele>978.7</ele>
        <time>2023-09-28T11:46:01Z</time>
      </trkpt>
      <trkpt lat="44.76585" lon="5.8927">
        <ele>978.9</ele>
        <time>2023-09-28T11:46:02Z</time>
      </trkpt>
      <trkpt lat="44.76588" lon="5.89274">
        <ele>979</ele>
        <time>2023-09-28T11:46:03Z</time>
      </trkpt>
      <trkpt lat="44.76592" lon="5.89276">
        <ele>979.2</ele>
        <time>2023-09-28T11:46:04Z</time>
      </trkpt>
      <trkpt lat="44.76596" lon="5.89278">
        <ele>979.4</ele>
        <time>2023-09-28T11:46:05Z</time>
      </trkpt>
      <trkpt lat="44.76599" lon="5.89281">
        <ele>979.5</ele>
        <time>2023-09-28T11:46:06Z</time>
      </trkpt>
      <trkpt lat="44.76605" lon="5.89283">
        <ele>979.7</ele>
        <time>2023-09-28T11:46:08Z</time>
      </trkpt>
      <trkpt lat="44.76609" lon="5.89285">
        <ele>979.9</ele>
        <time>2023-09-28T11:46:10Z</time>
      </trkpt>
      <trkpt lat="44.76614" lon="5.89288">
        <ele>980.1</ele>
        <time>2023-09-28T11:46:11Z</time>
      </trkpt>
      <trkpt lat="44.76618" lon="5.89291">
        <ele>980.2</ele>
        <time>2023-09-28T11:46:12Z</time>
      </trkpt>
      <trkpt lat="44.76622" lon="5.89293">
        <ele>980.3</ele>
        <time>2023-09-28T11:46:13Z</time>
      </trkpt>
      <trkpt lat="44.76626" lon="5.89294">
        <ele>980.5</ele>
        <time>2023-09-28T11:46:15Z</time>
      </trkpt>
      <trkpt lat="44.76631" lon="5.89297">
        <ele>980.7</ele>
        <time>2023-09-28T11:46:16Z</time>
      </trkpt>
      <trkpt lat="44.76635" lon="5.89299">
        <ele>980.9</ele>
        <time>2023-09-28T11:46:17Z</time>
      </trkpt>
      <trkpt lat="44.76638" lon="5.89302">
        <ele>981</ele>
        <time>2023-09-28T11:46:18Z</time>
      </trkpt>
      <trkpt lat="44.76642" lon="5.89304">
        <ele>981.2</ele>
        <time>2023-09-28T11:46:19Z</time>
      </trkpt>
      <trkpt lat="44.76645" lon="5.89307">
        <ele>981.3</ele>
        <time>2023-09-28T11:46:20Z</time>
      </trkpt>
      <trkpt lat="44.76651" lon="5.89312">
        <ele>981.6</ele>
        <time>2023-09-28T11:46:22Z</time>
      </trkpt>
      <trkpt lat="44.76654" lon="5.89314">
        <ele>981.7</ele>
        <time>2023-09-28T11:46:23Z</time>
      </trkpt>
      <trkpt lat="44.76658" lon="5.89317">
        <ele>981.8</ele>
        <time>2023-09-28T11:46:24Z</time>
      </trkpt>
      <trkpt lat="44.76659" lon="5.89318">
        <ele>981.9</ele>
        <time>2023-09-28T11:46:25Z</time>
      </trkpt>
      <trkpt lat="44.76662" lon="5.89321">
        <ele>982</ele>
        <time>2023-09-28T11:46:27Z</time>
      </trkpt>
      <trkpt lat="44.76666" lon="5.89324">
        <ele>982.1</ele>
        <time>2023-09-28T11:46:28Z</time>
      </trkpt>
      <trkpt lat="44.76669" lon="5.89327">
        <ele>982.3</ele>
        <time>2023-09-28T11:46:29Z</time>
      </trkpt>
      <trkpt lat="44.76672" lon="5.8933">
        <ele>982.4</ele>
        <time>2023-09-28T11:46:30Z</time>
      </trkpt>
      <trkpt lat="44.76675" lon="5.89334">
        <ele>982.5</ele>
        <time>2023-09-28T11:46:31Z</time>
      </trkpt>
      <trkpt lat="44.76678" lon="5.89338">
        <ele>982.6</ele>
        <time>2023-09-28T11:46:32Z</time>
      </trkpt>
      <trkpt lat="44.76682" lon="5.89343">
        <ele>982.8</ele>
        <time>2023-09-28T11:46:34Z</time>
      </trkpt>
      <trkpt lat="44.76684" lon="5.89344">
        <ele>982.8</ele>
        <time>2023-09-28T11:46:35Z</time>
      </trkpt>
      <trkpt lat="44.76685" lon="5.89346">
        <ele>982.8</ele>
        <time>2023-09-28T11:46:36Z</time>
      </trkpt>
      <trkpt lat="44.76688" lon="5.89349">
        <ele>982.9</ele>
        <time>2023-09-28T11:46:37Z</time>
      </trkpt>
      <trkpt lat="44.7669" lon="5.89352">
        <ele>982.9</ele>
        <time>2023-09-28T11:46:38Z</time>
      </trkpt>
      <trkpt lat="44.76694" lon="5.89356">
        <ele>982.9</ele>
        <time>2023-09-28T11:46:39Z</time>
      </trkpt>
      <trkpt lat="44.76697" lon="5.8936">
        <ele>982.9</ele>
        <time>2023-09-28T11:46:40Z</time>
      </trkpt>
      <trkpt lat="44.767" lon="5.89363">
        <ele>982.9</ele>
        <time>2023-09-28T11:46:41Z</time>
      </trkpt>
      <trkpt lat="44.76703" lon="5.89367">
        <ele>982.9</ele>
        <time>2023-09-28T11:46:43Z</time>
      </trkpt>
      <trkpt lat="44.76707" lon="5.89372">
        <ele>983</ele>
        <time>2023-09-28T11:46:44Z</time>
      </trkpt>
      <trkpt lat="44.76711" lon="5.89376">
        <ele>983</ele>
        <time>2023-09-28T11:46:45Z</time>
      </trkpt>
      <trkpt lat="44.76716" lon="5.8938">
        <ele>983</ele>
        <time>2023-09-28T11:46:46Z</time>
      </trkpt>
      <trkpt lat="44.76719" lon="5.89383">
        <ele>983</ele>
        <time>2023-09-28T11:46:47Z</time>
      </trkpt>
      <trkpt lat="44.76722" lon="5.89386">
        <ele>983.1</ele>
        <time>2023-09-28T11:46:48Z</time>
      </trkpt>
      <trkpt lat="44.76726" lon="5.89391">
        <ele>983.1</ele>
        <time>2023-09-28T11:46:50Z</time>
      </trkpt>
      <trkpt lat="44.76731" lon="5.89395">
        <ele>983.2</ele>
        <time>2023-09-28T11:46:51Z</time>
      </trkpt>
      <trkpt lat="44.76736" lon="5.89397">
        <ele>983.2</ele>
        <time>2023-09-28T11:46:52Z</time>
      </trkpt>
      <trkpt lat="44.7674" lon="5.89398">
        <ele>983.3</ele>
        <time>2023-09-28T11:46:53Z</time>
      </trkpt>
      <trkpt lat="44.76744" lon="5.89399">
        <ele>983.3</ele>
        <time>2023-09-28T11:46:54Z</time>
      </trkpt>
      <trkpt lat="44.76749" lon="5.894">
        <ele>983.4</ele>
        <time>2023-09-28T11:46:56Z</time>
      </trkpt>
      <trkpt lat="44.76753" lon="5.89399">
        <ele>983.4</ele>
        <time>2023-09-28T11:46:57Z</time>
      </trkpt>
      <trkpt lat="44.76757" lon="5.89398">
        <ele>983.4</ele>
        <time>2023-09-28T11:46:58Z</time>
      </trkpt>
      <trkpt lat="44.76761" lon="5.89398">
        <ele>983.5</ele>
        <time>2023-09-28T11:46:59Z</time>
      </trkpt>
      <trkpt lat="44.76766" lon="5.89399">
        <ele>983.5</ele>
        <time>2023-09-28T11:47:00Z</time>
      </trkpt>
      <trkpt lat="44.7677" lon="5.89399">
        <ele>983.6</ele>
        <time>2023-09-28T11:47:01Z</time>
      </trkpt>
      <trkpt lat="44.76774" lon="5.89399">
        <ele>983.6</ele>
        <time>2023-09-28T11:47:02Z</time>
      </trkpt>
      <trkpt lat="44.76779" lon="5.89399">
        <ele>983.7</ele>
        <time>2023-09-28T11:47:03Z</time>
      </trkpt>
      <trkpt lat="44.76785" lon="5.894">
        <ele>983.7</ele>
        <time>2023-09-28T11:47:05Z</time>
      </trkpt>
      <trkpt lat="44.76795" lon="5.894">
        <ele>983.7</ele>
        <time>2023-09-28T11:47:06Z</time>
      </trkpt>
      <trkpt lat="44.768" lon="5.89399">
        <ele>983.8</ele>
        <time>2023-09-28T11:47:07Z</time>
      </trkpt>
      <trkpt lat="44.76804" lon="5.894">
        <ele>983.8</ele>
        <time>2023-09-28T11:47:09Z</time>
      </trkpt>
      <trkpt lat="44.7681" lon="5.89402">
        <ele>983.8</ele>
        <time>2023-09-28T11:47:10Z</time>
      </trkpt>
      <trkpt lat="44.76816" lon="5.89405">
        <ele>983.9</ele>
        <time>2023-09-28T11:47:11Z</time>
      </trkpt>
      <trkpt lat="44.76821" lon="5.89409">
        <ele>983.9</ele>
        <time>2023-09-28T11:47:13Z</time>
      </trkpt>
      <trkpt lat="44.76826" lon="5.89411">
        <ele>984</ele>
        <time>2023-09-28T11:47:14Z</time>
      </trkpt>
      <trkpt lat="44.76829" lon="5.89412">
        <ele>984</ele>
        <time>2023-09-28T11:47:15Z</time>
      </trkpt>
      <trkpt lat="44.76834" lon="5.89414">
        <ele>984.2</ele>
        <time>2023-09-28T11:47:16Z</time>
      </trkpt>
      <trkpt lat="44.76837" lon="5.89415">
        <ele>984.2</ele>
        <time>2023-09-28T11:47:17Z</time>
      </trkpt>
      <trkpt lat="44.76845" lon="5.89417">
        <ele>984.4</ele>
        <time>2023-09-28T11:47:19Z</time>
      </trkpt>
      <trkpt lat="44.76851" lon="5.89419">
        <ele>984.5</ele>
        <time>2023-09-28T11:47:20Z</time>
      </trkpt>
      <trkpt lat="44.76856" lon="5.89419">
        <ele>984.6</ele>
        <time>2023-09-28T11:47:21Z</time>
      </trkpt>
      <trkpt lat="44.76862" lon="5.8942">
        <ele>984.7</ele>
        <time>2023-09-28T11:47:22Z</time>
      </trkpt>
      <trkpt lat="44.76868" lon="5.89422">
        <ele>984.7</ele>
        <time>2023-09-28T11:47:24Z</time>
      </trkpt>
      <trkpt lat="44.76872" lon="5.89421">
        <ele>984.8</ele>
        <time>2023-09-28T11:47:25Z</time>
      </trkpt>
      <trkpt lat="44.76881" lon="5.89415">
        <ele>984.9</ele>
        <time>2023-09-28T11:47:26Z</time>
      </trkpt>
      <trkpt lat="44.76886" lon="5.8941">
        <ele>985</ele>
        <time>2023-09-28T11:47:27Z</time>
      </trkpt>
      <trkpt lat="44.7689" lon="5.89406">
        <ele>985</ele>
        <time>2023-09-28T11:47:28Z</time>
      </trkpt>
      <trkpt lat="44.76895" lon="5.89403">
        <ele>985.1</ele>
        <time>2023-09-28T11:47:29Z</time>
      </trkpt>
      <trkpt lat="44.769" lon="5.89402">
        <ele>985.2</ele>
        <time>2023-09-28T11:47:30Z</time>
      </trkpt>
      <trkpt lat="44.76906" lon="5.89402">
        <ele>985.2</ele>
        <time>2023-09-28T11:47:31Z</time>
      </trkpt>
      <trkpt lat="44.7691" lon="5.89405">
        <ele>985.3</ele>
        <time>2023-09-28T11:47:32Z</time>
      </trkpt>
      <trkpt lat="44.76914" lon="5.8941">
        <ele>985.3</ele>
        <time>2023-09-28T11:47:33Z</time>
      </trkpt>
      <trkpt lat="44.76918" lon="5.89416">
        <ele>985.4</ele>
        <time>2023-09-28T11:47:34Z</time>
      </trkpt>
      <trkpt lat="44.76922" lon="5.89421">
        <ele>985.4</ele>
        <time>2023-09-28T11:47:35Z</time>
      </trkpt>
      <trkpt lat="44.76925" lon="5.89427">
        <ele>985.5</ele>
        <time>2023-09-28T11:47:36Z</time>
      </trkpt>
      <trkpt lat="44.76926" lon="5.89434">
        <ele>985.5</ele>
        <time>2023-09-28T11:47:37Z</time>
      </trkpt>
      <trkpt lat="44.76927" lon="5.8944">
        <ele>985.5</ele>
        <time>2023-09-28T11:47:38Z</time>
      </trkpt>
      <trkpt lat="44.76927" lon="5.89447">
        <ele>985.5</ele>
        <time>2023-09-28T11:47:39Z</time>
      </trkpt>
      <trkpt lat="44.76929" lon="5.89453">
        <ele>985.4</ele>
        <time>2023-09-28T11:47:40Z</time>
      </trkpt>
      <trkpt lat="44.7693" lon="5.89459">
        <ele>985.4</ele>
        <time>2023-09-28T11:47:41Z</time>
      </trkpt>
      <trkpt lat="44.76931" lon="5.89464">
        <ele>985.4</ele>
        <time>2023-09-28T11:47:42Z</time>
      </trkpt>
      <trkpt lat="44.76931" lon="5.89472">
        <ele>985.4</ele>
        <time>2023-09-28T11:47:43Z</time>
      </trkpt>
      <trkpt lat="44.7693" lon="5.8948">
        <ele>985.4</ele>
        <time>2023-09-28T11:47:44Z</time>
      </trkpt>
      <trkpt lat="44.76931" lon="5.89488">
        <ele>985.4</ele>
        <time>2023-09-28T11:47:45Z</time>
      </trkpt>
      <trkpt lat="44.76931" lon="5.89495">
        <ele>985.3</ele>
        <time>2023-09-28T11:47:46Z</time>
      </trkpt>
      <trkpt lat="44.76931" lon="5.89502">
        <ele>985.3</ele>
        <time>2023-09-28T11:47:47Z</time>
      </trkpt>
      <trkpt lat="44.76931" lon="5.89509">
        <ele>985.2</ele>
        <time>2023-09-28T11:47:48Z</time>
      </trkpt>
      <trkpt lat="44.76931" lon="5.89516">
        <ele>985.2</ele>
        <time>2023-09-28T11:47:49Z</time>
      </trkpt>
      <trkpt lat="44.76931" lon="5.89523">
        <ele>985.2</ele>
        <time>2023-09-28T11:47:50Z</time>
      </trkpt>
      <trkpt lat="44.76931" lon="5.89529">
        <ele>985.1</ele>
        <time>2023-09-28T11:47:51Z</time>
      </trkpt>
      <trkpt lat="44.76932" lon="5.89535">
        <ele>985.1</ele>
        <time>2023-09-28T11:47:52Z</time>
      </trkpt>
      <trkpt lat="44.76933" lon="5.89541">
        <ele>985</ele>
        <time>2023-09-28T11:47:53Z</time>
      </trkpt>
      <trkpt lat="44.76935" lon="5.89548">
        <ele>985</ele>
        <time>2023-09-28T11:47:54Z</time>
      </trkpt>
      <trkpt lat="44.76937" lon="5.89554">
        <ele>984.9</ele>
        <time>2023-09-28T11:47:55Z</time>
      </trkpt>
      <trkpt lat="44.7694" lon="5.8956">
        <ele>984.8</ele>
        <time>2023-09-28T11:47:56Z</time>
      </trkpt>
      <trkpt lat="44.76943" lon="5.89566">
        <ele>984.7</ele>
        <time>2023-09-28T11:47:57Z</time>
      </trkpt>
      <trkpt lat="44.76947" lon="5.89571">
        <ele>984.6</ele>
        <time>2023-09-28T11:47:58Z</time>
      </trkpt>
      <trkpt lat="44.76952" lon="5.89575">
        <ele>984.4</ele>
        <time>2023-09-28T11:47:59Z</time>
      </trkpt>
      <trkpt lat="44.76957" lon="5.89579">
        <ele>984.3</ele>
        <time>2023-09-28T11:48:00Z</time>
      </trkpt>
      <trkpt lat="44.76962" lon="5.89583">
        <ele>984.2</ele>
        <time>2023-09-28T11:48:01Z</time>
      </trkpt>
      <trkpt lat="44.76968" lon="5.89585">
        <ele>984</ele>
        <time>2023-09-28T11:48:02Z</time>
      </trkpt>
      <trkpt lat="44.76973" lon="5.89588">
        <ele>983.9</ele>
        <time>2023-09-28T11:48:03Z</time>
      </trkpt>
      <trkpt lat="44.76979" lon="5.89591">
        <ele>983.7</ele>
        <time>2023-09-28T11:48:04Z</time>
      </trkpt>
      <trkpt lat="44.76984" lon="5.89595">
        <ele>983.6</ele>
        <time>2023-09-28T11:48:05Z</time>
      </trkpt>
      <trkpt lat="44.76989" lon="5.896">
        <ele>983.4</ele>
        <time>2023-09-28T11:48:06Z</time>
      </trkpt>
      <trkpt lat="44.76995" lon="5.89605">
        <ele>983.2</ele>
        <time>2023-09-28T11:48:07Z</time>
      </trkpt>
      <trkpt lat="44.77" lon="5.89611">
        <ele>983.1</ele>
        <time>2023-09-28T11:48:08Z</time>
      </trkpt>
      <trkpt lat="44.77005" lon="5.89616">
        <ele>982.9</ele>
        <time>2023-09-28T11:48:09Z</time>
      </trkpt>
      <trkpt lat="44.77009" lon="5.89623">
        <ele>982.8</ele>
        <time>2023-09-28T11:48:10Z</time>
      </trkpt>
      <trkpt lat="44.77013" lon="5.8963">
        <ele>982.6</ele>
        <time>2023-09-28T11:48:11Z</time>
      </trkpt>
      <trkpt lat="44.77016" lon="5.89638">
        <ele>982.5</ele>
        <time>2023-09-28T11:48:12Z</time>
      </trkpt>
      <trkpt lat="44.77019" lon="5.89646">
        <ele>982.4</ele>
        <time>2023-09-28T11:48:13Z</time>
      </trkpt>
      <trkpt lat="44.77023" lon="5.89654">
        <ele>982.2</ele>
        <time>2023-09-28T11:48:14Z</time>
      </trkpt>
      <trkpt lat="44.77026" lon="5.89662">
        <ele>982.1</ele>
        <time>2023-09-28T11:48:15Z</time>
      </trkpt>
      <trkpt lat="44.77029" lon="5.89669">
        <ele>982</ele>
        <time>2023-09-28T11:48:16Z</time>
      </trkpt>
      <trkpt lat="44.77031" lon="5.89677">
        <ele>981.9</ele>
        <time>2023-09-28T11:48:17Z</time>
      </trkpt>
      <trkpt lat="44.77033" lon="5.89687">
        <ele>981.7</ele>
        <time>2023-09-28T11:48:18Z</time>
      </trkpt>
      <trkpt lat="44.77036" lon="5.89696">
        <ele>981.6</ele>
        <time>2023-09-28T11:48:19Z</time>
      </trkpt>
      <trkpt lat="44.77038" lon="5.89704">
        <ele>981.5</ele>
        <time>2023-09-28T11:48:20Z</time>
      </trkpt>
      <trkpt lat="44.77041" lon="5.89712">
        <ele>981.4</ele>
        <time>2023-09-28T11:48:21Z</time>
      </trkpt>
      <trkpt lat="44.77043" lon="5.8972">
        <ele>981.2</ele>
        <time>2023-09-28T11:48:22Z</time>
      </trkpt>
      <trkpt lat="44.77045" lon="5.89728">
        <ele>981.1</ele>
        <time>2023-09-28T11:48:23Z</time>
      </trkpt>
      <trkpt lat="44.77047" lon="5.89737">
        <ele>981</ele>
        <time>2023-09-28T11:48:24Z</time>
      </trkpt>
      <trkpt lat="44.77048" lon="5.89746">
        <ele>980.9</ele>
        <time>2023-09-28T11:48:25Z</time>
      </trkpt>
      <trkpt lat="44.77047" lon="5.89754">
        <ele>980.7</ele>
        <time>2023-09-28T11:48:26Z</time>
      </trkpt>
      <trkpt lat="44.77046" lon="5.89763">
        <ele>980.6</ele>
        <time>2023-09-28T11:48:27Z</time>
      </trkpt>
      <trkpt lat="44.77044" lon="5.89772">
        <ele>980.5</ele>
        <time>2023-09-28T11:48:28Z</time>
      </trkpt>
      <trkpt lat="44.77042" lon="5.8978">
        <ele>980.3</ele>
        <time>2023-09-28T11:48:29Z</time>
      </trkpt>
      <trkpt lat="44.77039" lon="5.89787">
        <ele>980.1</ele>
        <time>2023-09-28T11:48:30Z</time>
      </trkpt>
      <trkpt lat="44.77035" lon="5.89795">
        <ele>979.9</ele>
        <time>2023-09-28T11:48:31Z</time>
      </trkpt>
      <trkpt lat="44.77032" lon="5.89803">
        <ele>979.7</ele>
        <time>2023-09-28T11:48:32Z</time>
      </trkpt>
      <trkpt lat="44.77028" lon="5.89811">
        <ele>979.5</ele>
        <time>2023-09-28T11:48:33Z</time>
      </trkpt>
      <trkpt lat="44.77025" lon="5.8982">
        <ele>979.3</ele>
        <time>2023-09-28T11:48:34Z</time>
      </trkpt>
      <trkpt lat="44.77024" lon="5.89829">
        <ele>979.1</ele>
        <time>2023-09-28T11:48:35Z</time>
      </trkpt>
      <trkpt lat="44.77023" lon="5.89838">
        <ele>978.9</ele>
        <time>2023-09-28T11:48:36Z</time>
      </trkpt>
      <trkpt lat="44.77023" lon="5.89847">
        <ele>978.8</ele>
        <time>2023-09-28T11:48:37Z</time>
      </trkpt>
      <trkpt lat="44.77025" lon="5.89856">
        <ele>978.6</ele>
        <time>2023-09-28T11:48:38Z</time>
      </trkpt>
      <trkpt lat="44.77028" lon="5.89864">
        <ele>978.5</ele>
        <time>2023-09-28T11:48:39Z</time>
      </trkpt>
      <trkpt lat="44.77032" lon="5.8987">
        <ele>978.3</ele>
        <time>2023-09-28T11:48:40Z</time>
      </trkpt>
      <trkpt lat="44.77037" lon="5.89877">
        <ele>978.1</ele>
        <time>2023-09-28T11:48:41Z</time>
      </trkpt>
      <trkpt lat="44.77042" lon="5.89882">
        <ele>977.9</ele>
        <time>2023-09-28T11:48:42Z</time>
      </trkpt>
      <trkpt lat="44.77047" lon="5.89886">
        <ele>977.7</ele>
        <time>2023-09-28T11:48:43Z</time>
      </trkpt>
      <trkpt lat="44.77052" lon="5.89891">
        <ele>977.6</ele>
        <time>2023-09-28T11:48:44Z</time>
      </trkpt>
      <trkpt lat="44.77057" lon="5.89896">
        <ele>977.4</ele>
        <time>2023-09-28T11:48:45Z</time>
      </trkpt>
      <trkpt lat="44.77063" lon="5.89901">
        <ele>977.2</ele>
        <time>2023-09-28T11:48:46Z</time>
      </trkpt>
      <trkpt lat="44.77068" lon="5.89905">
        <ele>977.1</ele>
        <time>2023-09-28T11:48:47Z</time>
      </trkpt>
      <trkpt lat="44.77073" lon="5.89909">
        <ele>977</ele>
        <time>2023-09-28T11:48:48Z</time>
      </trkpt>
      <trkpt lat="44.77079" lon="5.89913">
        <ele>976.8</ele>
        <time>2023-09-28T11:48:49Z</time>
      </trkpt>
      <trkpt lat="44.77084" lon="5.89917">
        <ele>976.7</ele>
        <time>2023-09-28T11:48:50Z</time>
      </trkpt>
      <trkpt lat="44.7709" lon="5.8992">
        <ele>976.5</ele>
        <time>2023-09-28T11:48:51Z</time>
      </trkpt>
      <trkpt lat="44.77096" lon="5.89923">
        <ele>976.4</ele>
        <time>2023-09-28T11:48:52Z</time>
      </trkpt>
      <trkpt lat="44.77101" lon="5.89927">
        <ele>976.2</ele>
        <time>2023-09-28T11:48:53Z</time>
      </trkpt>
      <trkpt lat="44.77106" lon="5.89931">
        <ele>976.1</ele>
        <time>2023-09-28T11:48:54Z</time>
      </trkpt>
      <trkpt lat="44.77111" lon="5.89936">
        <ele>975.9</ele>
        <time>2023-09-28T11:48:55Z</time>
      </trkpt>
      <trkpt lat="44.77116" lon="5.89941">
        <ele>975.7</ele>
        <time>2023-09-28T11:48:56Z</time>
      </trkpt>
      <trkpt lat="44.77121" lon="5.89945">
        <ele>975.6</ele>
        <time>2023-09-28T11:48:57Z</time>
      </trkpt>
      <trkpt lat="44.77126" lon="5.8995">
        <ele>975.4</ele>
        <time>2023-09-28T11:48:58Z</time>
      </trkpt>
      <trkpt lat="44.77131" lon="5.89955">
        <ele>975.2</ele>
        <time>2023-09-28T11:48:59Z</time>
      </trkpt>
      <trkpt lat="44.77137" lon="5.89958">
        <ele>975</ele>
        <time>2023-09-28T11:49:00Z</time>
      </trkpt>
      <trkpt lat="44.77143" lon="5.8996">
        <ele>974.9</ele>
        <time>2023-09-28T11:49:01Z</time>
      </trkpt>
      <trkpt lat="44.77149" lon="5.89962">
        <ele>974.7</ele>
        <time>2023-09-28T11:49:02Z</time>
      </trkpt>
      <trkpt lat="44.77155" lon="5.89963">
        <ele>974.6</ele>
        <time>2023-09-28T11:49:03Z</time>
      </trkpt>
      <trkpt lat="44.77162" lon="5.89963">
        <ele>974.4</ele>
        <time>2023-09-28T11:49:04Z</time>
      </trkpt>
      <trkpt lat="44.77168" lon="5.89963">
        <ele>974.3</ele>
        <time>2023-09-28T11:49:05Z</time>
      </trkpt>
      <trkpt lat="44.77174" lon="5.89961">
        <ele>974.1</ele>
        <time>2023-09-28T11:49:06Z</time>
      </trkpt>
      <trkpt lat="44.7718" lon="5.89958">
        <ele>973.9</ele>
        <time>2023-09-28T11:49:07Z</time>
      </trkpt>
      <trkpt lat="44.77186" lon="5.89954">
        <ele>973.8</ele>
        <time>2023-09-28T11:49:08Z</time>
      </trkpt>
      <trkpt lat="44.77191" lon="5.8995">
        <ele>973.6</ele>
        <time>2023-09-28T11:49:09Z</time>
      </trkpt>
      <trkpt lat="44.77196" lon="5.89944">
        <ele>973.5</ele>
        <time>2023-09-28T11:49:10Z</time>
      </trkpt>
      <trkpt lat="44.77201" lon="5.89938">
        <ele>973.3</ele>
        <time>2023-09-28T11:49:11Z</time>
      </trkpt>
      <trkpt lat="44.77207" lon="5.89932">
        <ele>973.1</ele>
        <time>2023-09-28T11:49:12Z</time>
      </trkpt>
      <trkpt lat="44.77212" lon="5.89926">
        <ele>973</ele>
        <time>2023-09-28T11:49:13Z</time>
      </trkpt>
      <trkpt lat="44.77218" lon="5.89919">
        <ele>972.8</ele>
        <time>2023-09-28T11:49:14Z</time>
      </trkpt>
      <trkpt lat="44.77223" lon="5.89913">
        <ele>972.6</ele>
        <time>2023-09-28T11:49:15Z</time>
      </trkpt>
      <trkpt lat="44.77229" lon="5.89907">
        <ele>972.4</ele>
        <time>2023-09-28T11:49:16Z</time>
      </trkpt>
      <trkpt lat="44.77234" lon="5.899">
        <ele>972.3</ele>
        <time>2023-09-28T11:49:17Z</time>
      </trkpt>
      <trkpt lat="44.7724" lon="5.89894">
        <ele>972.1</ele>
        <time>2023-09-28T11:49:18Z</time>
      </trkpt>
      <trkpt lat="44.77246" lon="5.89888">
        <ele>971.9</ele>
        <time>2023-09-28T11:49:19Z</time>
      </trkpt>
      <trkpt lat="44.77253" lon="5.89883">
        <ele>971.8</ele>
        <time>2023-09-28T11:49:20Z</time>
      </trkpt>
      <trkpt lat="44.7726" lon="5.89879">
        <ele>971.6</ele>
        <time>2023-09-28T11:49:21Z</time>
      </trkpt>
      <trkpt lat="44.77267" lon="5.89875">
        <ele>971.4</ele>
        <time>2023-09-28T11:49:22Z</time>
      </trkpt>
      <trkpt lat="44.77274" lon="5.89872">
        <ele>971.2</ele>
        <time>2023-09-28T11:49:23Z</time>
      </trkpt>
      <trkpt lat="44.77282" lon="5.89869">
        <ele>971.1</ele>
        <time>2023-09-28T11:49:24Z</time>
      </trkpt>
      <trkpt lat="44.7729" lon="5.89867">
        <ele>970.9</ele>
        <time>2023-09-28T11:49:25Z</time>
      </trkpt>
      <trkpt lat="44.77298" lon="5.89865">
        <ele>970.7</ele>
        <time>2023-09-28T11:49:26Z</time>
      </trkpt>
      <trkpt lat="44.77306" lon="5.89863">
        <ele>970.5</ele>
        <time>2023-09-28T11:49:27Z</time>
      </trkpt>
      <trkpt lat="44.77314" lon="5.89861">
        <ele>970.3</ele>
        <time>2023-09-28T11:49:28Z</time>
      </trkpt>
      <trkpt lat="44.77322" lon="5.8986">
        <ele>970.1</ele>
        <time>2023-09-28T11:49:29Z</time>
      </trkpt>
      <trkpt lat="44.7733" lon="5.8986">
        <ele>969.8</ele>
        <time>2023-09-28T11:49:30Z</time>
      </trkpt>
      <trkpt lat="44.77339" lon="5.89861">
        <ele>969.6</ele>
        <time>2023-09-28T11:49:31Z</time>
      </trkpt>
      <trkpt lat="44.77348" lon="5.89863">
        <ele>969.4</ele>
        <time>2023-09-28T11:49:32Z</time>
      </trkpt>
      <trkpt lat="44.77356" lon="5.89866">
        <ele>969.2</ele>
        <time>2023-09-28T11:49:33Z</time>
      </trkpt>
      <trkpt lat="44.77364" lon="5.89869">
        <ele>969</ele>
        <time>2023-09-28T11:49:34Z</time>
      </trkpt>
      <trkpt lat="44.77372" lon="5.89873">
        <ele>968.9</ele>
        <time>2023-09-28T11:49:35Z</time>
      </trkpt>
      <trkpt lat="44.77381" lon="5.89876">
        <ele>968.7</ele>
        <time>2023-09-28T11:49:36Z</time>
      </trkpt>
      <trkpt lat="44.77389" lon="5.89878">
        <ele>968.6</ele>
        <time>2023-09-28T11:49:37Z</time>
      </trkpt>
      <trkpt lat="44.77398" lon="5.89878">
        <ele>968.4</ele>
        <time>2023-09-28T11:49:38Z</time>
      </trkpt>
      <trkpt lat="44.77406" lon="5.89878">
        <ele>968.3</ele>
        <time>2023-09-28T11:49:39Z</time>
      </trkpt>
      <trkpt lat="44.77414" lon="5.89876">
        <ele>968.2</ele>
        <time>2023-09-28T11:49:40Z</time>
      </trkpt>
      <trkpt lat="44.77422" lon="5.89872">
        <ele>968.1</ele>
        <time>2023-09-28T11:49:41Z</time>
      </trkpt>
      <trkpt lat="44.7743" lon="5.89866">
        <ele>968</ele>
        <time>2023-09-28T11:49:42Z</time>
      </trkpt>
      <trkpt lat="44.77435" lon="5.89858">
        <ele>968</ele>
        <time>2023-09-28T11:49:43Z</time>
      </trkpt>
      <trkpt lat="44.77441" lon="5.8985">
        <ele>967.9</ele>
        <time>2023-09-28T11:49:44Z</time>
      </trkpt>
      <trkpt lat="44.77446" lon="5.89841">
        <ele>967.8</ele>
        <time>2023-09-28T11:49:45Z</time>
      </trkpt>
      <trkpt lat="44.7745" lon="5.89831">
        <ele>967.7</ele>
        <time>2023-09-28T11:49:46Z</time>
      </trkpt>
      <trkpt lat="44.77453" lon="5.89821">
        <ele>967.6</ele>
        <time>2023-09-28T11:49:47Z</time>
      </trkpt>
      <trkpt lat="44.77456" lon="5.89811">
        <ele>967.5</ele>
        <time>2023-09-28T11:49:48Z</time>
      </trkpt>
      <trkpt lat="44.77459" lon="5.89801">
        <ele>967.5</ele>
        <time>2023-09-28T11:49:49Z</time>
      </trkpt>
      <trkpt lat="44.77463" lon="5.89791">
        <ele>967.4</ele>
        <time>2023-09-28T11:49:50Z</time>
      </trkpt>
      <trkpt lat="44.77469" lon="5.89786">
        <ele>967.2</ele>
        <time>2023-09-28T11:49:51Z</time>
      </trkpt>
      <trkpt lat="44.77477" lon="5.89786">
        <ele>967</ele>
        <time>2023-09-28T11:49:52Z</time>
      </trkpt>
      <trkpt lat="44.77485" lon="5.89789">
        <ele>966.7</ele>
        <time>2023-09-28T11:49:53Z</time>
      </trkpt>
      <trkpt lat="44.77492" lon="5.89794">
        <ele>966.4</ele>
        <time>2023-09-28T11:49:54Z</time>
      </trkpt>
      <trkpt lat="44.775" lon="5.89797">
        <ele>966.2</ele>
        <time>2023-09-28T11:49:55Z</time>
      </trkpt>
      <trkpt lat="44.77507" lon="5.89798">
        <ele>966</ele>
        <time>2023-09-28T11:49:56Z</time>
      </trkpt>
      <trkpt lat="44.77514" lon="5.89797">
        <ele>965.8</ele>
        <time>2023-09-28T11:49:57Z</time>
      </trkpt>
      <trkpt lat="44.77522" lon="5.89796">
        <ele>965.6</ele>
        <time>2023-09-28T11:49:58Z</time>
      </trkpt>
      <trkpt lat="44.77528" lon="5.89795">
        <ele>965.4</ele>
        <time>2023-09-28T11:49:59Z</time>
      </trkpt>
      <trkpt lat="44.77536" lon="5.89794">
        <ele>965.2</ele>
        <time>2023-09-28T11:50:00Z</time>
      </trkpt>
      <trkpt lat="44.77544" lon="5.89792">
        <ele>964.9</ele>
        <time>2023-09-28T11:50:01Z</time>
      </trkpt>
      <trkpt lat="44.77552" lon="5.89791">
        <ele>964.7</ele>
        <time>2023-09-28T11:50:02Z</time>
      </trkpt>
      <trkpt lat="44.7756" lon="5.89791">
        <ele>964.5</ele>
        <time>2023-09-28T11:50:03Z</time>
      </trkpt>
      <trkpt lat="44.77568" lon="5.89794">
        <ele>964.3</ele>
        <time>2023-09-28T11:50:04Z</time>
      </trkpt>
      <trkpt lat="44.77575" lon="5.89798">
        <ele>964.1</ele>
        <time>2023-09-28T11:50:05Z</time>
      </trkpt>
      <trkpt lat="44.77582" lon="5.89804">
        <ele>964</ele>
        <time>2023-09-28T11:50:06Z</time>
      </trkpt>
      <trkpt lat="44.77588" lon="5.8981">
        <ele>963.8</ele>
        <time>2023-09-28T11:50:07Z</time>
      </trkpt>
      <trkpt lat="44.77594" lon="5.89816">
        <ele>963.7</ele>
        <time>2023-09-28T11:50:08Z</time>
      </trkpt>
      <trkpt lat="44.776" lon="5.89822">
        <ele>963.5</ele>
        <time>2023-09-28T11:50:09Z</time>
      </trkpt>
      <trkpt lat="44.77606" lon="5.89829">
        <ele>963.4</ele>
        <time>2023-09-28T11:50:10Z</time>
      </trkpt>
      <trkpt lat="44.77611" lon="5.89837">
        <ele>963.3</ele>
        <time>2023-09-28T11:50:11Z</time>
      </trkpt>
      <trkpt lat="44.77616" lon="5.89846">
        <ele>963.2</ele>
        <time>2023-09-28T11:50:12Z</time>
      </trkpt>
      <trkpt lat="44.77619" lon="5.89856">
        <ele>963.1</ele>
        <time>2023-09-28T11:50:13Z</time>
      </trkpt>
      <trkpt lat="44.7762" lon="5.89866">
        <ele>962.9</ele>
        <time>2023-09-28T11:50:14Z</time>
      </trkpt>
      <trkpt lat="44.77617" lon="5.89876">
        <ele>962.7</ele>
        <time>2023-09-28T11:50:15Z</time>
      </trkpt>
      <trkpt lat="44.77614" lon="5.89886">
        <ele>962.4</ele>
        <time>2023-09-28T11:50:16Z</time>
      </trkpt>
      <trkpt lat="44.7761" lon="5.89895">
        <ele>962.1</ele>
        <time>2023-09-28T11:50:17Z</time>
      </trkpt>
      <trkpt lat="44.77604" lon="5.89903">
        <ele>961.8</ele>
        <time>2023-09-28T11:50:18Z</time>
      </trkpt>
      <trkpt lat="44.77595" lon="5.89904">
        <ele>961.5</ele>
        <time>2023-09-28T11:50:19Z</time>
      </trkpt>
      <trkpt lat="44.77586" lon="5.89904">
        <ele>961.4</ele>
        <time>2023-09-28T11:50:20Z</time>
      </trkpt>
      <trkpt lat="44.77578" lon="5.89903">
        <ele>961.2</ele>
        <time>2023-09-28T11:50:21Z</time>
      </trkpt>
      <trkpt lat="44.7757" lon="5.89902">
        <ele>961.1</ele>
        <time>2023-09-28T11:50:22Z</time>
      </trkpt>
      <trkpt lat="44.77563" lon="5.89902">
        <ele>961</ele>
        <time>2023-09-28T11:50:23Z</time>
      </trkpt>
      <trkpt lat="44.77556" lon="5.89902">
        <ele>960.9</ele>
        <time>2023-09-28T11:50:24Z</time>
      </trkpt>
      <trkpt lat="44.77549" lon="5.89905">
        <ele>960.8</ele>
        <time>2023-09-28T11:50:25Z</time>
      </trkpt>
      <trkpt lat="44.77543" lon="5.8991">
        <ele>960.6</ele>
        <time>2023-09-28T11:50:26Z</time>
      </trkpt>
      <trkpt lat="44.77539" lon="5.89918">
        <ele>960.5</ele>
        <time>2023-09-28T11:50:27Z</time>
      </trkpt>
      <trkpt lat="44.77536" lon="5.89927">
        <ele>960.3</ele>
        <time>2023-09-28T11:50:28Z</time>
      </trkpt>
      <trkpt lat="44.77534" lon="5.89936">
        <ele>960.1</ele>
        <time>2023-09-28T11:50:29Z</time>
      </trkpt>
      <trkpt lat="44.77531" lon="5.89944">
        <ele>959.9</ele>
        <time>2023-09-28T11:50:30Z</time>
      </trkpt>
      <trkpt lat="44.77529" lon="5.89954">
        <ele>959.8</ele>
        <time>2023-09-28T11:50:31Z</time>
      </trkpt>
      <trkpt lat="44.77525" lon="5.89962">
        <ele>959.7</ele>
        <time>2023-09-28T11:50:32Z</time>
      </trkpt>
      <trkpt lat="44.77521" lon="5.8997">
        <ele>959.6</ele>
        <time>2023-09-28T11:50:33Z</time>
      </trkpt>
      <trkpt lat="44.77517" lon="5.89978">
        <ele>959.5</ele>
        <time>2023-09-28T11:50:34Z</time>
      </trkpt>
      <trkpt lat="44.77513" lon="5.89986">
        <ele>959.4</ele>
        <time>2023-09-28T11:50:35Z</time>
      </trkpt>
      <trkpt lat="44.77508" lon="5.89993">
        <ele>959.3</ele>
        <time>2023-09-28T11:50:36Z</time>
      </trkpt>
      <trkpt lat="44.77502" lon="5.9">
        <ele>959.3</ele>
        <time>2023-09-28T11:50:37Z</time>
      </trkpt>
      <trkpt lat="44.77497" lon="5.90007">
        <ele>959.2</ele>
        <time>2023-09-28T11:50:38Z</time>
      </trkpt>
      <trkpt lat="44.77493" lon="5.90014">
        <ele>959.2</ele>
        <time>2023-09-28T11:50:39Z</time>
      </trkpt>
      <trkpt lat="44.77491" lon="5.90023">
        <ele>959.2</ele>
        <time>2023-09-28T11:50:40Z</time>
      </trkpt>
      <trkpt lat="44.77489" lon="5.90031">
        <ele>959.2</ele>
        <time>2023-09-28T11:50:41Z</time>
      </trkpt>
      <trkpt lat="44.77487" lon="5.90039">
        <ele>959.3</ele>
        <time>2023-09-28T11:50:42Z</time>
      </trkpt>
      <trkpt lat="44.77485" lon="5.90046">
        <ele>959.3</ele>
        <time>2023-09-28T11:50:43Z</time>
      </trkpt>
      <trkpt lat="44.77483" lon="5.90054">
        <ele>959.4</ele>
        <time>2023-09-28T11:50:44Z</time>
      </trkpt>
      <trkpt lat="44.77481" lon="5.90061">
        <ele>959.4</ele>
        <time>2023-09-28T11:50:45Z</time>
      </trkpt>
      <trkpt lat="44.77479" lon="5.90068">
        <ele>959.5</ele>
        <time>2023-09-28T11:50:46Z</time>
      </trkpt>
      <trkpt lat="44.77477" lon="5.90074">
        <ele>959.5</ele>
        <time>2023-09-28T11:50:47Z</time>
      </trkpt>
      <trkpt lat="44.77475" lon="5.9008">
        <ele>959.6</ele>
        <time>2023-09-28T11:50:48Z</time>
      </trkpt>
      <trkpt lat="44.77474" lon="5.90086">
        <ele>959.6</ele>
        <time>2023-09-28T11:50:49Z</time>
      </trkpt>
      <trkpt lat="44.77472" lon="5.90092">
        <ele>959.6</ele>
        <time>2023-09-28T11:50:50Z</time>
      </trkpt>
      <trkpt lat="44.7747" lon="5.90098">
        <ele>959.7</ele>
        <time>2023-09-28T11:50:51Z</time>
      </trkpt>
      <trkpt lat="44.77469" lon="5.90105">
        <ele>959.7</ele>
        <time>2023-09-28T11:50:52Z</time>
      </trkpt>
      <trkpt lat="44.77468" lon="5.90111">
        <ele>959.7</ele>
        <time>2023-09-28T11:50:53Z</time>
      </trkpt>
      <trkpt lat="44.77467" lon="5.90117">
        <ele>959.7</ele>
        <time>2023-09-28T11:50:54Z</time>
      </trkpt>
      <trkpt lat="44.77466" lon="5.90124">
        <ele>959.8</ele>
        <time>2023-09-28T11:50:55Z</time>
      </trkpt>
      <trkpt lat="44.77465" lon="5.9013">
        <ele>959.8</ele>
        <time>2023-09-28T11:50:56Z</time>
      </trkpt>
      <trkpt lat="44.77464" lon="5.90136">
        <ele>959.8</ele>
        <time>2023-09-28T11:50:57Z</time>
      </trkpt>
      <trkpt lat="44.77463" lon="5.90142">
        <ele>959.8</ele>
        <time>2023-09-28T11:50:58Z</time>
      </trkpt>
      <trkpt lat="44.77462" lon="5.90147">
        <ele>959.8</ele>
        <time>2023-09-28T11:50:59Z</time>
      </trkpt>
      <trkpt lat="44.7746" lon="5.90153">
        <ele>959.8</ele>
        <time>2023-09-28T11:51:00Z</time>
      </trkpt>
      <trkpt lat="44.77459" lon="5.90157">
        <ele>959.8</ele>
        <time>2023-09-28T11:51:01Z</time>
      </trkpt>
      <trkpt lat="44.77458" lon="5.90165">
        <ele>959.9</ele>
        <time>2023-09-28T11:51:02Z</time>
      </trkpt>
      <trkpt lat="44.77457" lon="5.90172">
        <ele>959.9</ele>
        <time>2023-09-28T11:51:04Z</time>
      </trkpt>
      <trkpt lat="44.77456" lon="5.90181">
        <ele>959.9</ele>
        <time>2023-09-28T11:51:05Z</time>
      </trkpt>
      <trkpt lat="44.77455" lon="5.90186">
        <ele>959.9</ele>
        <time>2023-09-28T11:51:06Z</time>
      </trkpt>
      <trkpt lat="44.77454" lon="5.9019">
        <ele>959.9</ele>
        <time>2023-09-28T11:51:07Z</time>
      </trkpt>
      <trkpt lat="44.77453" lon="5.90195">
        <ele>959.9</ele>
        <time>2023-09-28T11:51:08Z</time>
      </trkpt>
      <trkpt lat="44.77452" lon="5.90201">
        <ele>959.9</ele>
        <time>2023-09-28T11:51:09Z</time>
      </trkpt>
      <trkpt lat="44.77451" lon="5.90205">
        <ele>959.9</ele>
        <time>2023-09-28T11:51:10Z</time>
      </trkpt>
      <trkpt lat="44.77451" lon="5.90209">
        <ele>960</ele>
        <time>2023-09-28T11:51:11Z</time>
      </trkpt>
      <trkpt lat="44.77449" lon="5.90214">
        <ele>960</ele>
        <time>2023-09-28T11:51:13Z</time>
      </trkpt>
      <trkpt lat="44.77447" lon="5.90218">
        <ele>960</ele>
        <time>2023-09-28T11:51:14Z</time>
      </trkpt>
      <trkpt lat="44.77446" lon="5.90223">
        <ele>960</ele>
        <time>2023-09-28T11:51:15Z</time>
      </trkpt>
      <trkpt lat="44.77444" lon="5.90227">
        <ele>960</ele>
        <time>2023-09-28T11:51:16Z</time>
      </trkpt>
      <trkpt lat="44.77442" lon="5.90232">
        <ele>960</ele>
        <time>2023-09-28T11:51:17Z</time>
      </trkpt>
      <trkpt lat="44.7744" lon="5.90237">
        <ele>960.1</ele>
        <time>2023-09-28T11:51:18Z</time>
      </trkpt>
      <trkpt lat="44.77437" lon="5.90246">
        <ele>960.1</ele>
        <time>2023-09-28T11:51:20Z</time>
      </trkpt>
      <trkpt lat="44.77434" lon="5.90252">
        <ele>960.1</ele>
        <time>2023-09-28T11:51:22Z</time>
      </trkpt>
      <trkpt lat="44.77432" lon="5.90257">
        <ele>960.2</ele>
        <time>2023-09-28T11:51:23Z</time>
      </trkpt>
      <trkpt lat="44.77431" lon="5.90261">
        <ele>960.2</ele>
        <time>2023-09-28T11:51:24Z</time>
      </trkpt>
      <trkpt lat="44.7743" lon="5.90268">
        <ele>960.2</ele>
        <time>2023-09-28T11:51:25Z</time>
      </trkpt>
      <trkpt lat="44.77428" lon="5.90273">
        <ele>960.2</ele>
        <time>2023-09-28T11:51:26Z</time>
      </trkpt>
      <trkpt lat="44.77427" lon="5.90278">
        <ele>960.2</ele>
        <time>2023-09-28T11:51:27Z</time>
      </trkpt>
      <trkpt lat="44.77426" lon="5.90284">
        <ele>960.2</ele>
        <time>2023-09-28T11:51:28Z</time>
      </trkpt>
      <trkpt lat="44.77425" lon="5.90294">
        <ele>960.2</ele>
        <time>2023-09-28T11:51:30Z</time>
      </trkpt>
      <trkpt lat="44.77424" lon="5.903">
        <ele>960.2</ele>
        <time>2023-09-28T11:51:31Z</time>
      </trkpt>
      <trkpt lat="44.77422" lon="5.90306">
        <ele>960.2</ele>
        <time>2023-09-28T11:51:32Z</time>
      </trkpt>
      <trkpt lat="44.7742" lon="5.90316">
        <ele>960.2</ele>
        <time>2023-09-28T11:51:34Z</time>
      </trkpt>
      <trkpt lat="44.77418" lon="5.90322">
        <ele>960.2</ele>
        <time>2023-09-28T11:51:35Z</time>
      </trkpt>
      <trkpt lat="44.77416" lon="5.90328">
        <ele>960.2</ele>
        <time>2023-09-28T11:51:36Z</time>
      </trkpt>
      <trkpt lat="44.77412" lon="5.90338">
        <ele>960.2</ele>
        <time>2023-09-28T11:51:38Z</time>
      </trkpt>
      <trkpt lat="44.77409" lon="5.90344">
        <ele>960.2</ele>
        <time>2023-09-28T11:51:39Z</time>
      </trkpt>
      <trkpt lat="44.77407" lon="5.90351">
        <ele>960.2</ele>
        <time>2023-09-28T11:51:40Z</time>
      </trkpt>
      <trkpt lat="44.77404" lon="5.90356">
        <ele>960.2</ele>
        <time>2023-09-28T11:51:41Z</time>
      </trkpt>
      <trkpt lat="44.77402" lon="5.90362">
        <ele>960.1</ele>
        <time>2023-09-28T11:51:42Z</time>
      </trkpt>
      <trkpt lat="44.774" lon="5.90367">
        <ele>960.1</ele>
        <time>2023-09-28T11:51:43Z</time>
      </trkpt>
      <trkpt lat="44.77397" lon="5.90373">
        <ele>960.1</ele>
        <time>2023-09-28T11:51:44Z</time>
      </trkpt>
      <trkpt lat="44.77395" lon="5.90379">
        <ele>960.1</ele>
        <time>2023-09-28T11:51:45Z</time>
      </trkpt>
      <trkpt lat="44.77393" lon="5.90385">
        <ele>960.1</ele>
        <time>2023-09-28T11:51:46Z</time>
      </trkpt>
      <trkpt lat="44.77392" lon="5.90391">
        <ele>960.1</ele>
        <time>2023-09-28T11:51:47Z</time>
      </trkpt>
      <trkpt lat="44.77391" lon="5.90398">
        <ele>960.1</ele>
        <time>2023-09-28T11:51:48Z</time>
      </trkpt>
      <trkpt lat="44.77391" lon="5.90405">
        <ele>960.1</ele>
        <time>2023-09-28T11:51:49Z</time>
      </trkpt>
      <trkpt lat="44.77391" lon="5.90412">
        <ele>960</ele>
        <time>2023-09-28T11:51:50Z</time>
      </trkpt>
      <trkpt lat="44.77392" lon="5.90419">
        <ele>960</ele>
        <time>2023-09-28T11:51:51Z</time>
      </trkpt>
      <trkpt lat="44.77394" lon="5.90425">
        <ele>959.9</ele>
        <time>2023-09-28T11:51:52Z</time>
      </trkpt>
      <trkpt lat="44.77395" lon="5.90432">
        <ele>959.9</ele>
        <time>2023-09-28T11:51:53Z</time>
      </trkpt>
      <trkpt lat="44.77397" lon="5.90438">
        <ele>959.8</ele>
        <time>2023-09-28T11:51:54Z</time>
      </trkpt>
      <trkpt lat="44.77399" lon="5.90445">
        <ele>959.8</ele>
        <time>2023-09-28T11:51:55Z</time>
      </trkpt>
      <trkpt lat="44.77401" lon="5.90451">
        <ele>959.7</ele>
        <time>2023-09-28T11:51:56Z</time>
      </trkpt>
      <trkpt lat="44.77402" lon="5.90457">
        <ele>959.7</ele>
        <time>2023-09-28T11:51:57Z</time>
      </trkpt>
      <trkpt lat="44.77404" lon="5.90464">
        <ele>959.6</ele>
        <time>2023-09-28T11:51:58Z</time>
      </trkpt>
      <trkpt lat="44.77406" lon="5.90471">
        <ele>959.6</ele>
        <time>2023-09-28T11:51:59Z</time>
      </trkpt>
      <trkpt lat="44.77408" lon="5.90477">
        <ele>959.5</ele>
        <time>2023-09-28T11:52:00Z</time>
      </trkpt>
      <trkpt lat="44.77409" lon="5.90484">
        <ele>959.4</ele>
        <time>2023-09-28T11:52:01Z</time>
      </trkpt>
      <trkpt lat="44.77411" lon="5.90491">
        <ele>959.4</ele>
        <time>2023-09-28T11:52:02Z</time>
      </trkpt>
      <trkpt lat="44.77412" lon="5.90498">
        <ele>959.3</ele>
        <time>2023-09-28T11:52:03Z</time>
      </trkpt>
      <trkpt lat="44.77414" lon="5.90505">
        <ele>959.2</ele>
        <time>2023-09-28T11:52:04Z</time>
      </trkpt>
      <trkpt lat="44.77415" lon="5.90513">
        <ele>959.2</ele>
        <time>2023-09-28T11:52:05Z</time>
      </trkpt>
      <trkpt lat="44.77416" lon="5.9052">
        <ele>959.1</ele>
        <time>2023-09-28T11:52:06Z</time>
      </trkpt>
      <trkpt lat="44.77418" lon="5.90528">
        <ele>959.1</ele>
        <time>2023-09-28T11:52:07Z</time>
      </trkpt>
      <trkpt lat="44.77419" lon="5.90536">
        <ele>959</ele>
        <time>2023-09-28T11:52:08Z</time>
      </trkpt>
      <trkpt lat="44.7742" lon="5.90543">
        <ele>958.9</ele>
        <time>2023-09-28T11:52:09Z</time>
      </trkpt>
      <trkpt lat="44.77422" lon="5.9055">
        <ele>958.9</ele>
        <time>2023-09-28T11:52:10Z</time>
      </trkpt>
      <trkpt lat="44.77423" lon="5.90557">
        <ele>958.8</ele>
        <time>2023-09-28T11:52:11Z</time>
      </trkpt>
      <trkpt lat="44.77425" lon="5.90564">
        <ele>958.8</ele>
        <time>2023-09-28T11:52:12Z</time>
      </trkpt>
      <trkpt lat="44.77426" lon="5.90572">
        <ele>958.7</ele>
        <time>2023-09-28T11:52:13Z</time>
      </trkpt>
      <trkpt lat="44.77427" lon="5.90579">
        <ele>958.6</ele>
        <time>2023-09-28T11:52:14Z</time>
      </trkpt>
      <trkpt lat="44.77428" lon="5.90587">
        <ele>958.6</ele>
        <time>2023-09-28T11:52:15Z</time>
      </trkpt>
      <trkpt lat="44.7743" lon="5.90595">
        <ele>958.5</ele>
        <time>2023-09-28T11:52:16Z</time>
      </trkpt>
      <trkpt lat="44.77431" lon="5.90603">
        <ele>958.4</ele>
        <time>2023-09-28T11:52:17Z</time>
      </trkpt>
      <trkpt lat="44.77432" lon="5.90611">
        <ele>958.4</ele>
        <time>2023-09-28T11:52:18Z</time>
      </trkpt>
      <trkpt lat="44.77432" lon="5.90618">
        <ele>958.3</ele>
        <time>2023-09-28T11:52:19Z</time>
      </trkpt>
      <trkpt lat="44.77432" lon="5.90626">
        <ele>958.3</ele>
        <time>2023-09-28T11:52:20Z</time>
      </trkpt>
      <trkpt lat="44.77432" lon="5.90634">
        <ele>958.2</ele>
        <time>2023-09-28T11:52:21Z</time>
      </trkpt>
      <trkpt lat="44.77431" lon="5.90641">
        <ele>958.2</ele>
        <time>2023-09-28T11:52:22Z</time>
      </trkpt>
      <trkpt lat="44.77431" lon="5.90648">
        <ele>958.1</ele>
        <time>2023-09-28T11:52:23Z</time>
      </trkpt>
      <trkpt lat="44.77432" lon="5.90656">
        <ele>958.1</ele>
        <time>2023-09-28T11:52:24Z</time>
      </trkpt>
      <trkpt lat="44.77433" lon="5.90664">
        <ele>958</ele>
        <time>2023-09-28T11:52:25Z</time>
      </trkpt>
      <trkpt lat="44.77434" lon="5.90672">
        <ele>958</ele>
        <time>2023-09-28T11:52:26Z</time>
      </trkpt>
      <trkpt lat="44.77437" lon="5.9068">
        <ele>957.9</ele>
        <time>2023-09-28T11:52:27Z</time>
      </trkpt>
      <trkpt lat="44.77441" lon="5.90686">
        <ele>957.9</ele>
        <time>2023-09-28T11:52:28Z</time>
      </trkpt>
      <trkpt lat="44.77445" lon="5.90692">
        <ele>957.8</ele>
        <time>2023-09-28T11:52:29Z</time>
      </trkpt>
      <trkpt lat="44.7745" lon="5.90695">
        <ele>957.7</ele>
        <time>2023-09-28T11:52:30Z</time>
      </trkpt>
      <trkpt lat="44.77456" lon="5.90697">
        <ele>957.7</ele>
        <time>2023-09-28T11:52:31Z</time>
      </trkpt>
      <trkpt lat="44.77462" lon="5.90698">
        <ele>957.6</ele>
        <time>2023-09-28T11:52:32Z</time>
      </trkpt>
      <trkpt lat="44.77468" lon="5.90697">
        <ele>957.5</ele>
        <time>2023-09-28T11:52:33Z</time>
      </trkpt>
      <trkpt lat="44.77474" lon="5.90694">
        <ele>957.4</ele>
        <time>2023-09-28T11:52:34Z</time>
      </trkpt>
      <trkpt lat="44.77479" lon="5.9069">
        <ele>957.4</ele>
        <time>2023-09-28T11:52:35Z</time>
      </trkpt>
      <trkpt lat="44.77484" lon="5.90685">
        <ele>957.3</ele>
        <time>2023-09-28T11:52:36Z</time>
      </trkpt>
      <trkpt lat="44.77489" lon="5.90681">
        <ele>957.2</ele>
        <time>2023-09-28T11:52:37Z</time>
      </trkpt>
      <trkpt lat="44.77495" lon="5.90678">
        <ele>957.2</ele>
        <time>2023-09-28T11:52:38Z</time>
      </trkpt>
      <trkpt lat="44.77501" lon="5.90679">
        <ele>957.1</ele>
        <time>2023-09-28T11:52:39Z</time>
      </trkpt>
      <trkpt lat="44.77508" lon="5.90681">
        <ele>957</ele>
        <time>2023-09-28T11:52:40Z</time>
      </trkpt>
      <trkpt lat="44.77514" lon="5.90684">
        <ele>956.9</ele>
        <time>2023-09-28T11:52:41Z</time>
      </trkpt>
      <trkpt lat="44.7752" lon="5.90688">
        <ele>956.8</ele>
        <time>2023-09-28T11:52:42Z</time>
      </trkpt>
      <trkpt lat="44.77525" lon="5.90692">
        <ele>956.7</ele>
        <time>2023-09-28T11:52:43Z</time>
      </trkpt>
      <trkpt lat="44.77532" lon="5.90695">
        <ele>956.6</ele>
        <time>2023-09-28T11:52:44Z</time>
      </trkpt>
      <trkpt lat="44.77538" lon="5.90697">
        <ele>956.5</ele>
        <time>2023-09-28T11:52:45Z</time>
      </trkpt>
      <trkpt lat="44.77544" lon="5.90699">
        <ele>956.4</ele>
        <time>2023-09-28T11:52:46Z</time>
      </trkpt>
      <trkpt lat="44.7755" lon="5.90701">
        <ele>956.3</ele>
        <time>2023-09-28T11:52:47Z</time>
      </trkpt>
      <trkpt lat="44.77556" lon="5.90702">
        <ele>956.2</ele>
        <time>2023-09-28T11:52:48Z</time>
      </trkpt>
      <trkpt lat="44.77563" lon="5.90703">
        <ele>956.1</ele>
        <time>2023-09-28T11:52:49Z</time>
      </trkpt>
      <trkpt lat="44.77569" lon="5.90705">
        <ele>956</ele>
        <time>2023-09-28T11:52:50Z</time>
      </trkpt>
      <trkpt lat="44.77576" lon="5.90706">
        <ele>955.8</ele>
        <time>2023-09-28T11:52:51Z</time>
      </trkpt>
      <trkpt lat="44.77583" lon="5.90707">
        <ele>955.7</ele>
        <time>2023-09-28T11:52:52Z</time>
      </trkpt>
      <trkpt lat="44.7759" lon="5.90708">
        <ele>955.6</ele>
        <time>2023-09-28T11:52:53Z</time>
      </trkpt>
      <trkpt lat="44.77597" lon="5.90709">
        <ele>955.5</ele>
        <time>2023-09-28T11:52:54Z</time>
      </trkpt>
      <trkpt lat="44.77604" lon="5.90711">
        <ele>955.4</ele>
        <time>2023-09-28T11:52:55Z</time>
      </trkpt>
      <trkpt lat="44.77611" lon="5.90712">
        <ele>955.3</ele>
        <time>2023-09-28T11:52:56Z</time>
      </trkpt>
      <trkpt lat="44.77618" lon="5.90713">
        <ele>955.2</ele>
        <time>2023-09-28T11:52:57Z</time>
      </trkpt>
      <trkpt lat="44.77625" lon="5.90714">
        <ele>955</ele>
        <time>2023-09-28T11:52:58Z</time>
      </trkpt>
      <trkpt lat="44.77632" lon="5.90715">
        <ele>954.9</ele>
        <time>2023-09-28T11:52:59Z</time>
      </trkpt>
      <trkpt lat="44.77639" lon="5.90717">
        <ele>954.8</ele>
        <time>2023-09-28T11:53:00Z</time>
      </trkpt>
      <trkpt lat="44.77647" lon="5.90717">
        <ele>954.7</ele>
        <time>2023-09-28T11:53:01Z</time>
      </trkpt>
      <trkpt lat="44.77654" lon="5.90718">
        <ele>954.6</ele>
        <time>2023-09-28T11:53:02Z</time>
      </trkpt>
      <trkpt lat="44.77661" lon="5.9072">
        <ele>954.5</ele>
        <time>2023-09-28T11:53:03Z</time>
      </trkpt>
      <trkpt lat="44.77668" lon="5.90721">
        <ele>954.4</ele>
        <time>2023-09-28T11:53:04Z</time>
      </trkpt>
      <trkpt lat="44.77675" lon="5.90723">
        <ele>954.3</ele>
        <time>2023-09-28T11:53:05Z</time>
      </trkpt>
      <trkpt lat="44.77682" lon="5.90724">
        <ele>954.2</ele>
        <time>2023-09-28T11:53:06Z</time>
      </trkpt>
      <trkpt lat="44.77689" lon="5.90725">
        <ele>954.1</ele>
        <time>2023-09-28T11:53:07Z</time>
      </trkpt>
      <trkpt lat="44.77696" lon="5.90727">
        <ele>954</ele>
        <time>2023-09-28T11:53:08Z</time>
      </trkpt>
      <trkpt lat="44.77703" lon="5.90728">
        <ele>953.9</ele>
        <time>2023-09-28T11:53:09Z</time>
      </trkpt>
      <trkpt lat="44.7771" lon="5.90729">
        <ele>953.8</ele>
        <time>2023-09-28T11:53:10Z</time>
      </trkpt>
      <trkpt lat="44.77717" lon="5.9073">
        <ele>953.6</ele>
        <time>2023-09-28T11:53:11Z</time>
      </trkpt>
      <trkpt lat="44.77724" lon="5.90732">
        <ele>953.5</ele>
        <time>2023-09-28T11:53:12Z</time>
      </trkpt>
      <trkpt lat="44.77731" lon="5.90733">
        <ele>953.4</ele>
        <time>2023-09-28T11:53:13Z</time>
      </trkpt>
      <trkpt lat="44.77738" lon="5.90734">
        <ele>953.3</ele>
        <time>2023-09-28T11:53:14Z</time>
      </trkpt>
      <trkpt lat="44.77745" lon="5.90735">
        <ele>953.2</ele>
        <time>2023-09-28T11:53:15Z</time>
      </trkpt>
      <trkpt lat="44.77752" lon="5.90737">
        <ele>953.1</ele>
        <time>2023-09-28T11:53:16Z</time>
      </trkpt>
      <trkpt lat="44.77759" lon="5.90739">
        <ele>953</ele>
        <time>2023-09-28T11:53:17Z</time>
      </trkpt>
      <trkpt lat="44.77766" lon="5.9074">
        <ele>952.9</ele>
        <time>2023-09-28T11:53:18Z</time>
      </trkpt>
      <trkpt lat="44.77773" lon="5.90741">
        <ele>952.8</ele>
        <time>2023-09-28T11:53:19Z</time>
      </trkpt>
      <trkpt lat="44.7778" lon="5.90742">
        <ele>952.7</ele>
        <time>2023-09-28T11:53:20Z</time>
      </trkpt>
      <trkpt lat="44.77787" lon="5.90744">
        <ele>952.5</ele>
        <time>2023-09-28T11:53:21Z</time>
      </trkpt>
      <trkpt lat="44.77794" lon="5.90745">
        <ele>952.4</ele>
        <time>2023-09-28T11:53:22Z</time>
      </trkpt>
      <trkpt lat="44.77801" lon="5.90747">
        <ele>952.3</ele>
        <time>2023-09-28T11:53:23Z</time>
      </trkpt>
      <trkpt lat="44.77808" lon="5.90748">
        <ele>952.2</ele>
        <time>2023-09-28T11:53:24Z</time>
      </trkpt>
      <trkpt lat="44.77815" lon="5.90749">
        <ele>952</ele>
        <time>2023-09-28T11:53:25Z</time>
      </trkpt>
      <trkpt lat="44.77822" lon="5.9075">
        <ele>951.9</ele>
        <time>2023-09-28T11:53:26Z</time>
      </trkpt>
      <trkpt lat="44.77829" lon="5.90752">
        <ele>951.8</ele>
        <time>2023-09-28T11:53:27Z</time>
      </trkpt>
      <trkpt lat="44.77837" lon="5.90753">
        <ele>951.7</ele>
        <time>2023-09-28T11:53:28Z</time>
      </trkpt>
      <trkpt lat="44.77844" lon="5.90755">
        <ele>951.5</ele>
        <time>2023-09-28T11:53:29Z</time>
      </trkpt>
      <trkpt lat="44.77851" lon="5.90756">
        <ele>951.4</ele>
        <time>2023-09-28T11:53:30Z</time>
      </trkpt>
      <trkpt lat="44.77858" lon="5.90758">
        <ele>951.2</ele>
        <time>2023-09-28T11:53:31Z</time>
      </trkpt>
      <trkpt lat="44.77865" lon="5.90759">
        <ele>951.1</ele>
        <time>2023-09-28T11:53:32Z</time>
      </trkpt>
      <trkpt lat="44.77873" lon="5.9076">
        <ele>950.9</ele>
        <time>2023-09-28T11:53:33Z</time>
      </trkpt>
      <trkpt lat="44.7788" lon="5.90761">
        <ele>950.8</ele>
        <time>2023-09-28T11:53:34Z</time>
      </trkpt>
      <trkpt lat="44.77887" lon="5.90763">
        <ele>950.8</ele>
        <time>2023-09-28T11:53:35Z</time>
      </trkpt>
      <trkpt lat="44.77894" lon="5.90764">
        <ele>950.7</ele>
        <time>2023-09-28T11:53:36Z</time>
      </trkpt>
      <trkpt lat="44.77901" lon="5.90766">
        <ele>950.6</ele>
        <time>2023-09-28T11:53:37Z</time>
      </trkpt>
      <trkpt lat="44.77909" lon="5.90767">
        <ele>950.5</ele>
        <time>2023-09-28T11:53:38Z</time>
      </trkpt>
      <trkpt lat="44.77916" lon="5.90768">
        <ele>950.4</ele>
        <time>2023-09-28T11:53:39Z</time>
      </trkpt>
      <trkpt lat="44.77923" lon="5.90769">
        <ele>950.2</ele>
        <time>2023-09-28T11:53:40Z</time>
      </trkpt>
      <trkpt lat="44.77931" lon="5.90771">
        <ele>950.1</ele>
        <time>2023-09-28T11:53:41Z</time>
      </trkpt>
      <trkpt lat="44.77938" lon="5.90772">
        <ele>950</ele>
        <time>2023-09-28T11:53:42Z</time>
      </trkpt>
      <trkpt lat="44.77945" lon="5.90774">
        <ele>949.9</ele>
        <time>2023-09-28T11:53:43Z</time>
      </trkpt>
      <trkpt lat="44.77952" lon="5.90775">
        <ele>949.8</ele>
        <time>2023-09-28T11:53:44Z</time>
      </trkpt>
      <trkpt lat="44.77959" lon="5.90777">
        <ele>949.6</ele>
        <time>2023-09-28T11:53:45Z</time>
      </trkpt>
      <trkpt lat="44.77966" lon="5.90778">
        <ele>949.5</ele>
        <time>2023-09-28T11:53:46Z</time>
      </trkpt>
      <trkpt lat="44.77973" lon="5.90779">
        <ele>949.4</ele>
        <time>2023-09-28T11:53:47Z</time>
      </trkpt>
      <trkpt lat="44.77981" lon="5.9078">
        <ele>949.3</ele>
        <time>2023-09-28T11:53:48Z</time>
      </trkpt>
      <trkpt lat="44.77988" lon="5.90782">
        <ele>949.2</ele>
        <time>2023-09-28T11:53:49Z</time>
      </trkpt>
      <trkpt lat="44.77995" lon="5.90783">
        <ele>949.1</ele>
        <time>2023-09-28T11:53:50Z</time>
      </trkpt>
      <trkpt lat="44.78002" lon="5.90785">
        <ele>949</ele>
        <time>2023-09-28T11:53:51Z</time>
      </trkpt>
      <trkpt lat="44.78009" lon="5.90786">
        <ele>948.9</ele>
        <time>2023-09-28T11:53:52Z</time>
      </trkpt>
      <trkpt lat="44.78016" lon="5.90788">
        <ele>948.8</ele>
        <time>2023-09-28T11:53:53Z</time>
      </trkpt>
      <trkpt lat="44.78023" lon="5.90789">
        <ele>948.7</ele>
        <time>2023-09-28T11:53:54Z</time>
      </trkpt>
      <trkpt lat="44.7803" lon="5.90791">
        <ele>948.6</ele>
        <time>2023-09-28T11:53:55Z</time>
      </trkpt>
      <trkpt lat="44.78038" lon="5.90792">
        <ele>948.5</ele>
        <time>2023-09-28T11:53:56Z</time>
      </trkpt>
      <trkpt lat="44.78045" lon="5.90793">
        <ele>948.4</ele>
        <time>2023-09-28T11:53:57Z</time>
      </trkpt>
      <trkpt lat="44.78052" lon="5.90795">
        <ele>948.3</ele>
        <time>2023-09-28T11:53:58Z</time>
      </trkpt>
      <trkpt lat="44.78059" lon="5.90796">
        <ele>948.2</ele>
        <time>2023-09-28T11:53:59Z</time>
      </trkpt>
      <trkpt lat="44.78066" lon="5.90798">
        <ele>948.1</ele>
        <time>2023-09-28T11:54:00Z</time>
      </trkpt>
      <trkpt lat="44.78074" lon="5.90799">
        <ele>948</ele>
        <time>2023-09-28T11:54:01Z</time>
      </trkpt>
      <trkpt lat="44.78081" lon="5.90801">
        <ele>947.8</ele>
        <time>2023-09-28T11:54:02Z</time>
      </trkpt>
      <trkpt lat="44.78088" lon="5.90802">
        <ele>947.7</ele>
        <time>2023-09-28T11:54:03Z</time>
      </trkpt>
      <trkpt lat="44.78096" lon="5.90803">
        <ele>947.6</ele>
        <time>2023-09-28T11:54:04Z</time>
      </trkpt>
      <trkpt lat="44.78103" lon="5.90804">
        <ele>947.5</ele>
        <time>2023-09-28T11:54:05Z</time>
      </trkpt>
      <trkpt lat="44.7811" lon="5.90806">
        <ele>947.4</ele>
        <time>2023-09-28T11:54:06Z</time>
      </trkpt>
      <trkpt lat="44.78118" lon="5.90807">
        <ele>947.3</ele>
        <time>2023-09-28T11:54:07Z</time>
      </trkpt>
      <trkpt lat="44.78125" lon="5.90808">
        <ele>947.2</ele>
        <time>2023-09-28T11:54:08Z</time>
      </trkpt>
      <trkpt lat="44.78132" lon="5.9081">
        <ele>947.1</ele>
        <time>2023-09-28T11:54:09Z</time>
      </trkpt>
      <trkpt lat="44.78139" lon="5.90811">
        <ele>947</ele>
        <time>2023-09-28T11:54:10Z</time>
      </trkpt>
      <trkpt lat="44.78147" lon="5.90812">
        <ele>946.8</ele>
        <time>2023-09-28T11:54:11Z</time>
      </trkpt>
      <trkpt lat="44.78154" lon="5.90814">
        <ele>946.7</ele>
        <time>2023-09-28T11:54:12Z</time>
      </trkpt>
      <trkpt lat="44.78161" lon="5.90815">
        <ele>946.5</ele>
        <time>2023-09-28T11:54:13Z</time>
      </trkpt>
      <trkpt lat="44.78169" lon="5.90817">
        <ele>946.4</ele>
        <time>2023-09-28T11:54:14Z</time>
      </trkpt>
      <trkpt lat="44.78176" lon="5.90818">
        <ele>946.3</ele>
        <time>2023-09-28T11:54:15Z</time>
      </trkpt>
      <trkpt lat="44.78183" lon="5.9082">
        <ele>946.2</ele>
        <time>2023-09-28T11:54:16Z</time>
      </trkpt>
      <trkpt lat="44.78191" lon="5.90821">
        <ele>946.1</ele>
        <time>2023-09-28T11:54:17Z</time>
      </trkpt>
      <trkpt lat="44.78198" lon="5.90823">
        <ele>945.9</ele>
        <time>2023-09-28T11:54:18Z</time>
      </trkpt>
      <trkpt lat="44.78206" lon="5.90824">
        <ele>945.8</ele>
        <time>2023-09-28T11:54:19Z</time>
      </trkpt>
      <trkpt lat="44.78213" lon="5.90826">
        <ele>945.7</ele>
        <time>2023-09-28T11:54:20Z</time>
      </trkpt>
      <trkpt lat="44.78221" lon="5.90827">
        <ele>945.6</ele>
        <time>2023-09-28T11:54:21Z</time>
      </trkpt>
      <trkpt lat="44.78228" lon="5.90828">
        <ele>945.5</ele>
        <time>2023-09-28T11:54:22Z</time>
      </trkpt>
      <trkpt lat="44.78236" lon="5.9083">
        <ele>945.4</ele>
        <time>2023-09-28T11:54:23Z</time>
      </trkpt>
      <trkpt lat="44.78243" lon="5.90831">
        <ele>945.3</ele>
        <time>2023-09-28T11:54:24Z</time>
      </trkpt>
      <trkpt lat="44.78251" lon="5.90832">
        <ele>945.3</ele>
        <time>2023-09-28T11:54:25Z</time>
      </trkpt>
      <trkpt lat="44.78258" lon="5.90834">
        <ele>945.1</ele>
        <time>2023-09-28T11:54:26Z</time>
      </trkpt>
      <trkpt lat="44.78265" lon="5.90835">
        <ele>945</ele>
        <time>2023-09-28T11:54:27Z</time>
      </trkpt>
      <trkpt lat="44.78272" lon="5.90836">
        <ele>944.9</ele>
        <time>2023-09-28T11:54:28Z</time>
      </trkpt>
      <trkpt lat="44.7828" lon="5.90838">
        <ele>944.8</ele>
        <time>2023-09-28T11:54:29Z</time>
      </trkpt>
      <trkpt lat="44.78287" lon="5.90839">
        <ele>944.7</ele>
        <time>2023-09-28T11:54:30Z</time>
      </trkpt>
      <trkpt lat="44.78294" lon="5.9084">
        <ele>944.6</ele>
        <time>2023-09-28T11:54:31Z</time>
      </trkpt>
      <trkpt lat="44.78301" lon="5.90842">
        <ele>944.5</ele>
        <time>2023-09-28T11:54:32Z</time>
      </trkpt>
      <trkpt lat="44.78307" lon="5.90843">
        <ele>944.4</ele>
        <time>2023-09-28T11:54:33Z</time>
      </trkpt>
      <trkpt lat="44.78314" lon="5.90844">
        <ele>944.3</ele>
        <time>2023-09-28T11:54:34Z</time>
      </trkpt>
      <trkpt lat="44.78321" lon="5.90845">
        <ele>944.2</ele>
        <time>2023-09-28T11:54:35Z</time>
      </trkpt>
      <trkpt lat="44.78327" lon="5.90846">
        <ele>944.1</ele>
        <time>2023-09-28T11:54:36Z</time>
      </trkpt>
      <trkpt lat="44.78334" lon="5.90847">
        <ele>944</ele>
        <time>2023-09-28T11:54:37Z</time>
      </trkpt>
      <trkpt lat="44.7834" lon="5.90849">
        <ele>943.9</ele>
        <time>2023-09-28T11:54:38Z</time>
      </trkpt>
      <trkpt lat="44.78346" lon="5.9085">
        <ele>943.8</ele>
        <time>2023-09-28T11:54:39Z</time>
      </trkpt>
      <trkpt lat="44.78352" lon="5.90851">
        <ele>943.7</ele>
        <time>2023-09-28T11:54:40Z</time>
      </trkpt>
      <trkpt lat="44.78359" lon="5.90853">
        <ele>943.6</ele>
        <time>2023-09-28T11:54:41Z</time>
      </trkpt>
      <trkpt lat="44.78365" lon="5.90854">
        <ele>943.6</ele>
        <time>2023-09-28T11:54:42Z</time>
      </trkpt>
      <trkpt lat="44.78372" lon="5.90855">
        <ele>943.5</ele>
        <time>2023-09-28T11:54:43Z</time>
      </trkpt>
      <trkpt lat="44.78378" lon="5.90856">
        <ele>943.4</ele>
        <time>2023-09-28T11:54:44Z</time>
      </trkpt>
      <trkpt lat="44.78385" lon="5.90858">
        <ele>943.3</ele>
        <time>2023-09-28T11:54:45Z</time>
      </trkpt>
      <trkpt lat="44.78391" lon="5.90859">
        <ele>943.2</ele>
        <time>2023-09-28T11:54:46Z</time>
      </trkpt>
      <trkpt lat="44.78398" lon="5.9086">
        <ele>943.1</ele>
        <time>2023-09-28T11:54:47Z</time>
      </trkpt>
      <trkpt lat="44.78405" lon="5.90861">
        <ele>942.9</ele>
        <time>2023-09-28T11:54:48Z</time>
      </trkpt>
      <trkpt lat="44.78412" lon="5.90862">
        <ele>942.8</ele>
        <time>2023-09-28T11:54:49Z</time>
      </trkpt>
      <trkpt lat="44.78419" lon="5.90864">
        <ele>942.7</ele>
        <time>2023-09-28T11:54:50Z</time>
      </trkpt>
      <trkpt lat="44.78425" lon="5.90865">
        <ele>942.7</ele>
        <time>2023-09-28T11:54:51Z</time>
      </trkpt>
      <trkpt lat="44.78432" lon="5.90866">
        <ele>942.6</ele>
        <time>2023-09-28T11:54:52Z</time>
      </trkpt>
      <trkpt lat="44.78439" lon="5.90867">
        <ele>942.6</ele>
        <time>2023-09-28T11:54:53Z</time>
      </trkpt>
      <trkpt lat="44.78446" lon="5.90869">
        <ele>942.6</ele>
        <time>2023-09-28T11:54:54Z</time>
      </trkpt>
      <trkpt lat="44.78452" lon="5.9087">
        <ele>942.4</ele>
        <time>2023-09-28T11:54:55Z</time>
      </trkpt>
      <trkpt lat="44.78459" lon="5.90872">
        <ele>942.3</ele>
        <time>2023-09-28T11:54:56Z</time>
      </trkpt>
      <trkpt lat="44.78466" lon="5.90873">
        <ele>942.2</ele>
        <time>2023-09-28T11:54:57Z</time>
      </trkpt>
      <trkpt lat="44.78473" lon="5.90875">
        <ele>942</ele>
        <time>2023-09-28T11:54:58Z</time>
      </trkpt>
      <trkpt lat="44.7848" lon="5.90876">
        <ele>941.9</ele>
        <time>2023-09-28T11:54:59Z</time>
      </trkpt>
      <trkpt lat="44.78486" lon="5.90877">
        <ele>941.8</ele>
        <time>2023-09-28T11:55:00Z</time>
      </trkpt>
      <trkpt lat="44.78493" lon="5.90879">
        <ele>941.7</ele>
        <time>2023-09-28T11:55:01Z</time>
      </trkpt>
      <trkpt lat="44.785" lon="5.9088">
        <ele>941.6</ele>
        <time>2023-09-28T11:55:02Z</time>
      </trkpt>
      <trkpt lat="44.78507" lon="5.90881">
        <ele>941.4</ele>
        <time>2023-09-28T11:55:03Z</time>
      </trkpt>
      <trkpt lat="44.78514" lon="5.90882">
        <ele>941.3</ele>
        <time>2023-09-28T11:55:04Z</time>
      </trkpt>
      <trkpt lat="44.78521" lon="5.90884">
        <ele>941.2</ele>
        <time>2023-09-28T11:55:05Z</time>
      </trkpt>
      <trkpt lat="44.78528" lon="5.90885">
        <ele>941</ele>
        <time>2023-09-28T11:55:06Z</time>
      </trkpt>
      <trkpt lat="44.78535" lon="5.90887">
        <ele>940.9</ele>
        <time>2023-09-28T11:55:07Z</time>
      </trkpt>
      <trkpt lat="44.78542" lon="5.90888">
        <ele>940.8</ele>
        <time>2023-09-28T11:55:08Z</time>
      </trkpt>
      <trkpt lat="44.78549" lon="5.90889">
        <ele>940.6</ele>
        <time>2023-09-28T11:55:09Z</time>
      </trkpt>
      <trkpt lat="44.78556" lon="5.9089">
        <ele>940.5</ele>
        <time>2023-09-28T11:55:10Z</time>
      </trkpt>
      <trkpt lat="44.78564" lon="5.90892">
        <ele>940.4</ele>
        <time>2023-09-28T11:55:11Z</time>
      </trkpt>
      <trkpt lat="44.78571" lon="5.90893">
        <ele>940.2</ele>
        <time>2023-09-28T11:55:12Z</time>
      </trkpt>
      <trkpt lat="44.78578" lon="5.90895">
        <ele>940.1</ele>
        <time>2023-09-28T11:55:13Z</time>
      </trkpt>
      <trkpt lat="44.78586" lon="5.90896">
        <ele>940</ele>
        <time>2023-09-28T11:55:14Z</time>
      </trkpt>
      <trkpt lat="44.78593" lon="5.90897">
        <ele>939.9</ele>
        <time>2023-09-28T11:55:15Z</time>
      </trkpt>
      <trkpt lat="44.786" lon="5.90898">
        <ele>939.8</ele>
        <time>2023-09-28T11:55:16Z</time>
      </trkpt>
      <trkpt lat="44.78607" lon="5.909">
        <ele>939.7</ele>
        <time>2023-09-28T11:55:17Z</time>
      </trkpt>
      <trkpt lat="44.78615" lon="5.90901">
        <ele>939.6</ele>
        <time>2023-09-28T11:55:18Z</time>
      </trkpt>
      <trkpt lat="44.78622" lon="5.90902">
        <ele>939.4</ele>
        <time>2023-09-28T11:55:19Z</time>
      </trkpt>
      <trkpt lat="44.78629" lon="5.90903">
        <ele>939.3</ele>
        <time>2023-09-28T11:55:20Z</time>
      </trkpt>
      <trkpt lat="44.78636" lon="5.90905">
        <ele>939.2</ele>
        <time>2023-09-28T11:55:21Z</time>
      </trkpt>
      <trkpt lat="44.78643" lon="5.90906">
        <ele>939.1</ele>
        <time>2023-09-28T11:55:22Z</time>
      </trkpt>
      <trkpt lat="44.7865" lon="5.90908">
        <ele>938.9</ele>
        <time>2023-09-28T11:55:23Z</time>
      </trkpt>
      <trkpt lat="44.78657" lon="5.90909">
        <ele>938.8</ele>
        <time>2023-09-28T11:55:24Z</time>
      </trkpt>
      <trkpt lat="44.78664" lon="5.9091">
        <ele>938.7</ele>
        <time>2023-09-28T11:55:25Z</time>
      </trkpt>
      <trkpt lat="44.78672" lon="5.90912">
        <ele>938.5</ele>
        <time>2023-09-28T11:55:26Z</time>
      </trkpt>
      <trkpt lat="44.78679" lon="5.90913">
        <ele>938.4</ele>
        <time>2023-09-28T11:55:27Z</time>
      </trkpt>
      <trkpt lat="44.78686" lon="5.90915">
        <ele>938.3</ele>
        <time>2023-09-28T11:55:28Z</time>
      </trkpt>
      <trkpt lat="44.78693" lon="5.90916">
        <ele>938.1</ele>
        <time>2023-09-28T11:55:29Z</time>
      </trkpt>
      <trkpt lat="44.78701" lon="5.90917">
        <ele>938</ele>
        <time>2023-09-28T11:55:30Z</time>
      </trkpt>
      <trkpt lat="44.78708" lon="5.90918">
        <ele>937.9</ele>
        <time>2023-09-28T11:55:31Z</time>
      </trkpt>
      <trkpt lat="44.78715" lon="5.9092">
        <ele>937.8</ele>
        <time>2023-09-28T11:55:32Z</time>
      </trkpt>
      <trkpt lat="44.78722" lon="5.90921">
        <ele>937.6</ele>
        <time>2023-09-28T11:55:33Z</time>
      </trkpt>
      <trkpt lat="44.78729" lon="5.90922">
        <ele>937.5</ele>
        <time>2023-09-28T11:55:34Z</time>
      </trkpt>
      <trkpt lat="44.78737" lon="5.90924">
        <ele>937.4</ele>
        <time>2023-09-28T11:55:35Z</time>
      </trkpt>
      <trkpt lat="44.78744" lon="5.90925">
        <ele>937.2</ele>
        <time>2023-09-28T11:55:36Z</time>
      </trkpt>
      <trkpt lat="44.78751" lon="5.90926">
        <ele>937.1</ele>
        <time>2023-09-28T11:55:37Z</time>
      </trkpt>
      <trkpt lat="44.78759" lon="5.90928">
        <ele>937</ele>
        <time>2023-09-28T11:55:38Z</time>
      </trkpt>
      <trkpt lat="44.78766" lon="5.90929">
        <ele>936.9</ele>
        <time>2023-09-28T11:55:39Z</time>
      </trkpt>
      <trkpt lat="44.78773" lon="5.9093">
        <ele>936.7</ele>
        <time>2023-09-28T11:55:40Z</time>
      </trkpt>
      <trkpt lat="44.7878" lon="5.90932">
        <ele>936.6</ele>
        <time>2023-09-28T11:55:41Z</time>
      </trkpt>
      <trkpt lat="44.78787" lon="5.90933">
        <ele>936.5</ele>
        <time>2023-09-28T11:55:42Z</time>
      </trkpt>
      <trkpt lat="44.78794" lon="5.90935">
        <ele>936.4</ele>
        <time>2023-09-28T11:55:43Z</time>
      </trkpt>
      <trkpt lat="44.78801" lon="5.90936">
        <ele>936.3</ele>
        <time>2023-09-28T11:55:44Z</time>
      </trkpt>
      <trkpt lat="44.78808" lon="5.90937">
        <ele>936.3</ele>
        <time>2023-09-28T11:55:45Z</time>
      </trkpt>
      <trkpt lat="44.78815" lon="5.90939">
        <ele>936.2</ele>
        <time>2023-09-28T11:55:46Z</time>
      </trkpt>
      <trkpt lat="44.78822" lon="5.9094">
        <ele>936.1</ele>
        <time>2023-09-28T11:55:47Z</time>
      </trkpt>
      <trkpt lat="44.78828" lon="5.90941">
        <ele>936.1</ele>
        <time>2023-09-28T11:55:48Z</time>
      </trkpt>
      <trkpt lat="44.78835" lon="5.90942">
        <ele>936</ele>
        <time>2023-09-28T11:55:49Z</time>
      </trkpt>
      <trkpt lat="44.78841" lon="5.90944">
        <ele>936</ele>
        <time>2023-09-28T11:55:50Z</time>
      </trkpt>
      <trkpt lat="44.78848" lon="5.90945">
        <ele>935.9</ele>
        <time>2023-09-28T11:55:51Z</time>
      </trkpt>
      <trkpt lat="44.78855" lon="5.90946">
        <ele>935.8</ele>
        <time>2023-09-28T11:55:52Z</time>
      </trkpt>
      <trkpt lat="44.78862" lon="5.90947">
        <ele>935.7</ele>
        <time>2023-09-28T11:55:53Z</time>
      </trkpt>
      <trkpt lat="44.78868" lon="5.90948">
        <ele>935.6</ele>
        <time>2023-09-28T11:55:54Z</time>
      </trkpt>
      <trkpt lat="44.78875" lon="5.90949">
        <ele>935.5</ele>
        <time>2023-09-28T11:55:55Z</time>
      </trkpt>
      <trkpt lat="44.78882" lon="5.90951">
        <ele>935.3</ele>
        <time>2023-09-28T11:55:56Z</time>
      </trkpt>
      <trkpt lat="44.78889" lon="5.90952">
        <ele>935.2</ele>
        <time>2023-09-28T11:55:57Z</time>
      </trkpt>
      <trkpt lat="44.78896" lon="5.90953">
        <ele>935.1</ele>
        <time>2023-09-28T11:55:58Z</time>
      </trkpt>
      <trkpt lat="44.78903" lon="5.90955">
        <ele>935</ele>
        <time>2023-09-28T11:55:59Z</time>
      </trkpt>
      <trkpt lat="44.7891" lon="5.90956">
        <ele>934.9</ele>
        <time>2023-09-28T11:56:00Z</time>
      </trkpt>
      <trkpt lat="44.78917" lon="5.90957">
        <ele>934.8</ele>
        <time>2023-09-28T11:56:01Z</time>
      </trkpt>
      <trkpt lat="44.78924" lon="5.90959">
        <ele>934.7</ele>
        <time>2023-09-28T11:56:02Z</time>
      </trkpt>
      <trkpt lat="44.78931" lon="5.9096">
        <ele>934.6</ele>
        <time>2023-09-28T11:56:03Z</time>
      </trkpt>
      <trkpt lat="44.78938" lon="5.90962">
        <ele>934.5</ele>
        <time>2023-09-28T11:56:04Z</time>
      </trkpt>
      <trkpt lat="44.78945" lon="5.90963">
        <ele>934.4</ele>
        <time>2023-09-28T11:56:05Z</time>
      </trkpt>
      <trkpt lat="44.78952" lon="5.90964">
        <ele>934.4</ele>
        <time>2023-09-28T11:56:06Z</time>
      </trkpt>
      <trkpt lat="44.7896" lon="5.90966">
        <ele>934.3</ele>
        <time>2023-09-28T11:56:07Z</time>
      </trkpt>
      <trkpt lat="44.78967" lon="5.90967">
        <ele>934.3</ele>
        <time>2023-09-28T11:56:08Z</time>
      </trkpt>
      <trkpt lat="44.78974" lon="5.90968">
        <ele>934.2</ele>
        <time>2023-09-28T11:56:09Z</time>
      </trkpt>
      <trkpt lat="44.78982" lon="5.90969">
        <ele>934.2</ele>
        <time>2023-09-28T11:56:10Z</time>
      </trkpt>
      <trkpt lat="44.78989" lon="5.90971">
        <ele>934.1</ele>
        <time>2023-09-28T11:56:11Z</time>
      </trkpt>
      <trkpt lat="44.78996" lon="5.90972">
        <ele>934.1</ele>
        <time>2023-09-28T11:56:12Z</time>
      </trkpt>
      <trkpt lat="44.79003" lon="5.90973">
        <ele>934.1</ele>
        <time>2023-09-28T11:56:13Z</time>
      </trkpt>
      <trkpt lat="44.7901" lon="5.90975">
        <ele>934.1</ele>
        <time>2023-09-28T11:56:14Z</time>
      </trkpt>
      <trkpt lat="44.79017" lon="5.90976">
        <ele>934.1</ele>
        <time>2023-09-28T11:56:15Z</time>
      </trkpt>
      <trkpt lat="44.79024" lon="5.90978">
        <ele>934.1</ele>
        <time>2023-09-28T11:56:16Z</time>
      </trkpt>
      <trkpt lat="44.79031" lon="5.90979">
        <ele>934.1</ele>
        <time>2023-09-28T11:56:17Z</time>
      </trkpt>
      <trkpt lat="44.79038" lon="5.9098">
        <ele>934.1</ele>
        <time>2023-09-28T11:56:18Z</time>
      </trkpt>
      <trkpt lat="44.79045" lon="5.90981">
        <ele>934.1</ele>
        <time>2023-09-28T11:56:19Z</time>
      </trkpt>
      <trkpt lat="44.79052" lon="5.90983">
        <ele>934.1</ele>
        <time>2023-09-28T11:56:20Z</time>
      </trkpt>
      <trkpt lat="44.79059" lon="5.90984">
        <ele>934.1</ele>
        <time>2023-09-28T11:56:21Z</time>
      </trkpt>
      <trkpt lat="44.79065" lon="5.90985">
        <ele>934.1</ele>
        <time>2023-09-28T11:56:22Z</time>
      </trkpt>
      <trkpt lat="44.79072" lon="5.90986">
        <ele>934.2</ele>
        <time>2023-09-28T11:56:23Z</time>
      </trkpt>
      <trkpt lat="44.79079" lon="5.90987">
        <ele>934.2</ele>
        <time>2023-09-28T11:56:24Z</time>
      </trkpt>
      <trkpt lat="44.79086" lon="5.90989">
        <ele>934.1</ele>
        <time>2023-09-28T11:56:25Z</time>
      </trkpt>
      <trkpt lat="44.79092" lon="5.9099">
        <ele>934.1</ele>
        <time>2023-09-28T11:56:26Z</time>
      </trkpt>
      <trkpt lat="44.79099" lon="5.90991">
        <ele>934.1</ele>
        <time>2023-09-28T11:56:27Z</time>
      </trkpt>
      <trkpt lat="44.79106" lon="5.90991">
        <ele>934</ele>
        <time>2023-09-28T11:56:28Z</time>
      </trkpt>
      <trkpt lat="44.79113" lon="5.90992">
        <ele>933.9</ele>
        <time>2023-09-28T11:56:29Z</time>
      </trkpt>
      <trkpt lat="44.79119" lon="5.90993">
        <ele>933.9</ele>
        <time>2023-09-28T11:56:30Z</time>
      </trkpt>
      <trkpt lat="44.79126" lon="5.90994">
        <ele>933.8</ele>
        <time>2023-09-28T11:56:31Z</time>
      </trkpt>
      <trkpt lat="44.79133" lon="5.90995">
        <ele>933.7</ele>
        <time>2023-09-28T11:56:32Z</time>
      </trkpt>
      <trkpt lat="44.79139" lon="5.90996">
        <ele>933.7</ele>
        <time>2023-09-28T11:56:33Z</time>
      </trkpt>
      <trkpt lat="44.79146" lon="5.90996">
        <ele>933.6</ele>
        <time>2023-09-28T11:56:34Z</time>
      </trkpt>
      <trkpt lat="44.79153" lon="5.90997">
        <ele>933.6</ele>
        <time>2023-09-28T11:56:35Z</time>
      </trkpt>
      <trkpt lat="44.7916" lon="5.90998">
        <ele>933.5</ele>
        <time>2023-09-28T11:56:36Z</time>
      </trkpt>
      <trkpt lat="44.79166" lon="5.90999">
        <ele>933.4</ele>
        <time>2023-09-28T11:56:37Z</time>
      </trkpt>
      <trkpt lat="44.79173" lon="5.91">
        <ele>933.3</ele>
        <time>2023-09-28T11:56:38Z</time>
      </trkpt>
      <trkpt lat="44.7918" lon="5.91">
        <ele>933.2</ele>
        <time>2023-09-28T11:56:39Z</time>
      </trkpt>
      <trkpt lat="44.79187" lon="5.91001">
        <ele>933.1</ele>
        <time>2023-09-28T11:56:40Z</time>
      </trkpt>
      <trkpt lat="44.79193" lon="5.91002">
        <ele>932.9</ele>
        <time>2023-09-28T11:56:41Z</time>
      </trkpt>
      <trkpt lat="44.792" lon="5.91003">
        <ele>932.8</ele>
        <time>2023-09-28T11:56:42Z</time>
      </trkpt>
      <trkpt lat="44.79207" lon="5.91004">
        <ele>932.7</ele>
        <time>2023-09-28T11:56:43Z</time>
      </trkpt>
      <trkpt lat="44.79214" lon="5.91005">
        <ele>932.6</ele>
        <time>2023-09-28T11:56:44Z</time>
      </trkpt>
      <trkpt lat="44.79221" lon="5.91006">
        <ele>932.4</ele>
        <time>2023-09-28T11:56:45Z</time>
      </trkpt>
      <trkpt lat="44.79228" lon="5.91006">
        <ele>932.3</ele>
        <time>2023-09-28T11:56:46Z</time>
      </trkpt>
      <trkpt lat="44.79235" lon="5.91007">
        <ele>932.2</ele>
        <time>2023-09-28T11:56:47Z</time>
      </trkpt>
      <trkpt lat="44.79242" lon="5.91008">
        <ele>932.1</ele>
        <time>2023-09-28T11:56:48Z</time>
      </trkpt>
      <trkpt lat="44.79249" lon="5.91009">
        <ele>932</ele>
        <time>2023-09-28T11:56:49Z</time>
      </trkpt>
      <trkpt lat="44.79256" lon="5.9101">
        <ele>931.9</ele>
        <time>2023-09-28T11:56:50Z</time>
      </trkpt>
      <trkpt lat="44.79263" lon="5.9101">
        <ele>931.8</ele>
        <time>2023-09-28T11:56:51Z</time>
      </trkpt>
      <trkpt lat="44.79269" lon="5.91011">
        <ele>931.6</ele>
        <time>2023-09-28T11:56:52Z</time>
      </trkpt>
      <trkpt lat="44.79276" lon="5.91012">
        <ele>931.5</ele>
        <time>2023-09-28T11:56:53Z</time>
      </trkpt>
      <trkpt lat="44.79284" lon="5.91013">
        <ele>931.4</ele>
        <time>2023-09-28T11:56:54Z</time>
      </trkpt>
      <trkpt lat="44.79291" lon="5.91014">
        <ele>931.3</ele>
        <time>2023-09-28T11:56:55Z</time>
      </trkpt>
      <trkpt lat="44.79298" lon="5.91015">
        <ele>931.2</ele>
        <time>2023-09-28T11:56:56Z</time>
      </trkpt>
      <trkpt lat="44.79305" lon="5.91016">
        <ele>931</ele>
        <time>2023-09-28T11:56:57Z</time>
      </trkpt>
      <trkpt lat="44.79312" lon="5.91016">
        <ele>930.9</ele>
        <time>2023-09-28T11:56:58Z</time>
      </trkpt>
      <trkpt lat="44.79319" lon="5.91017">
        <ele>930.8</ele>
        <time>2023-09-28T11:56:59Z</time>
      </trkpt>
      <trkpt lat="44.79326" lon="5.91018">
        <ele>930.7</ele>
        <time>2023-09-28T11:57:00Z</time>
      </trkpt>
      <trkpt lat="44.79333" lon="5.91019">
        <ele>930.6</ele>
        <time>2023-09-28T11:57:01Z</time>
      </trkpt>
      <trkpt lat="44.7934" lon="5.9102">
        <ele>930.5</ele>
        <time>2023-09-28T11:57:02Z</time>
      </trkpt>
      <trkpt lat="44.79347" lon="5.91021">
        <ele>930.4</ele>
        <time>2023-09-28T11:57:03Z</time>
      </trkpt>
      <trkpt lat="44.79354" lon="5.91022">
        <ele>930.4</ele>
        <time>2023-09-28T11:57:04Z</time>
      </trkpt>
      <trkpt lat="44.79361" lon="5.91023">
        <ele>930.3</ele>
        <time>2023-09-28T11:57:05Z</time>
      </trkpt>
      <trkpt lat="44.79367" lon="5.91023">
        <ele>930.2</ele>
        <time>2023-09-28T11:57:06Z</time>
      </trkpt>
      <trkpt lat="44.79374" lon="5.91024">
        <ele>930.1</ele>
        <time>2023-09-28T11:57:07Z</time>
      </trkpt>
      <trkpt lat="44.79381" lon="5.91025">
        <ele>929.9</ele>
        <time>2023-09-28T11:57:08Z</time>
      </trkpt>
      <trkpt lat="44.79388" lon="5.91025">
        <ele>929.8</ele>
        <time>2023-09-28T11:57:09Z</time>
      </trkpt>
      <trkpt lat="44.79394" lon="5.91026">
        <ele>929.7</ele>
        <time>2023-09-28T11:57:10Z</time>
      </trkpt>
      <trkpt lat="44.79401" lon="5.91026">
        <ele>929.6</ele>
        <time>2023-09-28T11:57:11Z</time>
      </trkpt>
      <trkpt lat="44.79407" lon="5.91027">
        <ele>929.5</ele>
        <time>2023-09-28T11:57:12Z</time>
      </trkpt>
      <trkpt lat="44.79413" lon="5.91029">
        <ele>929.4</ele>
        <time>2023-09-28T11:57:13Z</time>
      </trkpt>
      <trkpt lat="44.79419" lon="5.9103">
        <ele>929.3</ele>
        <time>2023-09-28T11:57:14Z</time>
      </trkpt>
      <trkpt lat="44.79425" lon="5.91031">
        <ele>929.2</ele>
        <time>2023-09-28T11:57:15Z</time>
      </trkpt>
      <trkpt lat="44.79432" lon="5.91032">
        <ele>929.1</ele>
        <time>2023-09-28T11:57:16Z</time>
      </trkpt>
      <trkpt lat="44.79438" lon="5.91032">
        <ele>929</ele>
        <time>2023-09-28T11:57:17Z</time>
      </trkpt>
      <trkpt lat="44.79445" lon="5.91033">
        <ele>928.9</ele>
        <time>2023-09-28T11:57:18Z</time>
      </trkpt>
      <trkpt lat="44.79451" lon="5.91034">
        <ele>928.8</ele>
        <time>2023-09-28T11:57:19Z</time>
      </trkpt>
      <trkpt lat="44.79458" lon="5.91035">
        <ele>928.6</ele>
        <time>2023-09-28T11:57:20Z</time>
      </trkpt>
      <trkpt lat="44.79464" lon="5.91036">
        <ele>928.5</ele>
        <time>2023-09-28T11:57:21Z</time>
      </trkpt>
      <trkpt lat="44.79471" lon="5.91037">
        <ele>928.4</ele>
        <time>2023-09-28T11:57:22Z</time>
      </trkpt>
      <trkpt lat="44.79478" lon="5.91037">
        <ele>928.3</ele>
        <time>2023-09-28T11:57:23Z</time>
      </trkpt>
      <trkpt lat="44.79485" lon="5.91038">
        <ele>928.1</ele>
        <time>2023-09-28T11:57:24Z</time>
      </trkpt>
      <trkpt lat="44.79492" lon="5.91039">
        <ele>928</ele>
        <time>2023-09-28T11:57:25Z</time>
      </trkpt>
      <trkpt lat="44.79499" lon="5.9104">
        <ele>927.9</ele>
        <time>2023-09-28T11:57:26Z</time>
      </trkpt>
      <trkpt lat="44.79506" lon="5.91041">
        <ele>927.7</ele>
        <time>2023-09-28T11:57:27Z</time>
      </trkpt>
      <trkpt lat="44.79512" lon="5.91042">
        <ele>927.6</ele>
        <time>2023-09-28T11:57:28Z</time>
      </trkpt>
      <trkpt lat="44.79519" lon="5.91042">
        <ele>927.5</ele>
        <time>2023-09-28T11:57:29Z</time>
      </trkpt>
      <trkpt lat="44.79526" lon="5.91043">
        <ele>927.3</ele>
        <time>2023-09-28T11:57:30Z</time>
      </trkpt>
      <trkpt lat="44.79533" lon="5.91043">
        <ele>927.2</ele>
        <time>2023-09-28T11:57:31Z</time>
      </trkpt>
      <trkpt lat="44.7954" lon="5.91044">
        <ele>927</ele>
        <time>2023-09-28T11:57:32Z</time>
      </trkpt>
      <trkpt lat="44.79547" lon="5.91045">
        <ele>926.9</ele>
        <time>2023-09-28T11:57:33Z</time>
      </trkpt>
      <trkpt lat="44.79554" lon="5.91046">
        <ele>926.7</ele>
        <time>2023-09-28T11:57:34Z</time>
      </trkpt>
      <trkpt lat="44.7956" lon="5.91047">
        <ele>926.6</ele>
        <time>2023-09-28T11:57:35Z</time>
      </trkpt>
      <trkpt lat="44.79567" lon="5.91047">
        <ele>926.5</ele>
        <time>2023-09-28T11:57:36Z</time>
      </trkpt>
      <trkpt lat="44.79573" lon="5.91048">
        <ele>926.3</ele>
        <time>2023-09-28T11:57:37Z</time>
      </trkpt>
      <trkpt lat="44.79579" lon="5.91049">
        <ele>926.2</ele>
        <time>2023-09-28T11:57:38Z</time>
      </trkpt>
      <trkpt lat="44.79585" lon="5.91049">
        <ele>926.1</ele>
        <time>2023-09-28T11:57:39Z</time>
      </trkpt>
      <trkpt lat="44.79592" lon="5.9105">
        <ele>926</ele>
        <time>2023-09-28T11:57:40Z</time>
      </trkpt>
      <trkpt lat="44.79598" lon="5.9105">
        <ele>925.9</ele>
        <time>2023-09-28T11:57:41Z</time>
      </trkpt>
      <trkpt lat="44.79604" lon="5.91051">
        <ele>925.8</ele>
        <time>2023-09-28T11:57:42Z</time>
      </trkpt>
      <trkpt lat="44.7961" lon="5.91052">
        <ele>925.7</ele>
        <time>2023-09-28T11:57:43Z</time>
      </trkpt>
      <trkpt lat="44.79617" lon="5.91053">
        <ele>925.6</ele>
        <time>2023-09-28T11:57:44Z</time>
      </trkpt>
      <trkpt lat="44.79623" lon="5.91054">
        <ele>925.5</ele>
        <time>2023-09-28T11:57:45Z</time>
      </trkpt>
      <trkpt lat="44.79629" lon="5.91054">
        <ele>925.5</ele>
        <time>2023-09-28T11:57:46Z</time>
      </trkpt>
      <trkpt lat="44.79635" lon="5.91055">
        <ele>925.4</ele>
        <time>2023-09-28T11:57:47Z</time>
      </trkpt>
      <trkpt lat="44.79641" lon="5.91055">
        <ele>925.4</ele>
        <time>2023-09-28T11:57:48Z</time>
      </trkpt>
      <trkpt lat="44.79646" lon="5.91054">
        <ele>925.4</ele>
        <time>2023-09-28T11:57:49Z</time>
      </trkpt>
      <trkpt lat="44.79651" lon="5.91048">
        <ele>925.2</ele>
        <time>2023-09-28T11:57:50Z</time>
      </trkpt>
      <trkpt lat="44.79654" lon="5.91041">
        <ele>925.1</ele>
        <time>2023-09-28T11:57:51Z</time>
      </trkpt>
      <trkpt lat="44.79656" lon="5.91033">
        <ele>924.9</ele>
        <time>2023-09-28T11:57:52Z</time>
      </trkpt>
      <trkpt lat="44.79657" lon="5.91026">
        <ele>924.8</ele>
        <time>2023-09-28T11:57:53Z</time>
      </trkpt>
      <trkpt lat="44.79659" lon="5.91019">
        <ele>924.7</ele>
        <time>2023-09-28T11:57:54Z</time>
      </trkpt>
      <trkpt lat="44.79661" lon="5.91012">
        <ele>924.6</ele>
        <time>2023-09-28T11:57:55Z</time>
      </trkpt>
      <trkpt lat="44.79663" lon="5.91006">
        <ele>924.6</ele>
        <time>2023-09-28T11:57:56Z</time>
      </trkpt>
      <trkpt lat="44.79665" lon="5.91">
        <ele>924.5</ele>
        <time>2023-09-28T11:57:57Z</time>
      </trkpt>
      <trkpt lat="44.79667" lon="5.90994">
        <ele>924.5</ele>
        <time>2023-09-28T11:57:58Z</time>
      </trkpt>
      <trkpt lat="44.79669" lon="5.90988">
        <ele>924.4</ele>
        <time>2023-09-28T11:57:59Z</time>
      </trkpt>
      <trkpt lat="44.7967" lon="5.90983">
        <ele>924.4</ele>
        <time>2023-09-28T11:58:00Z</time>
      </trkpt>
      <trkpt lat="44.79672" lon="5.90977">
        <ele>924.3</ele>
        <time>2023-09-28T11:58:01Z</time>
      </trkpt>
      <trkpt lat="44.79674" lon="5.90971">
        <ele>924.3</ele>
        <time>2023-09-28T11:58:02Z</time>
      </trkpt>
      <trkpt lat="44.79676" lon="5.90966">
        <ele>924.3</ele>
        <time>2023-09-28T11:58:03Z</time>
      </trkpt>
      <trkpt lat="44.79678" lon="5.90961">
        <ele>924.3</ele>
        <time>2023-09-28T11:58:04Z</time>
      </trkpt>
      <trkpt lat="44.7968" lon="5.90956">
        <ele>924.2</ele>
        <time>2023-09-28T11:58:05Z</time>
      </trkpt>
      <trkpt lat="44.79682" lon="5.90951">
        <ele>924.2</ele>
        <time>2023-09-28T11:58:06Z</time>
      </trkpt>
      <trkpt lat="44.79683" lon="5.90946">
        <ele>924.2</ele>
        <time>2023-09-28T11:58:07Z</time>
      </trkpt>
      <trkpt lat="44.79684" lon="5.90942">
        <ele>924.2</ele>
        <time>2023-09-28T11:58:08Z</time>
      </trkpt>
      <trkpt lat="44.79685" lon="5.90935">
        <ele>924.2</ele>
        <time>2023-09-28T11:58:10Z</time>
      </trkpt>
      <trkpt lat="44.79688" lon="5.90928">
        <ele>924.2</ele>
        <time>2023-09-28T11:58:11Z</time>
      </trkpt>
      <trkpt lat="44.7969" lon="5.90922">
        <ele>924.3</ele>
        <time>2023-09-28T11:58:12Z</time>
      </trkpt>
      <trkpt lat="44.79692" lon="5.90914">
        <ele>924.3</ele>
        <time>2023-09-28T11:58:13Z</time>
      </trkpt>
      <trkpt lat="44.79694" lon="5.90909">
        <ele>924.3</ele>
        <time>2023-09-28T11:58:14Z</time>
      </trkpt>
      <trkpt lat="44.79696" lon="5.90903">
        <ele>924.2</ele>
        <time>2023-09-28T11:58:15Z</time>
      </trkpt>
      <trkpt lat="44.79698" lon="5.90897">
        <ele>924.2</ele>
        <time>2023-09-28T11:58:16Z</time>
      </trkpt>
      <trkpt lat="44.797" lon="5.9089">
        <ele>924.2</ele>
        <time>2023-09-28T11:58:17Z</time>
      </trkpt>
      <trkpt lat="44.79702" lon="5.90884">
        <ele>924.3</ele>
        <time>2023-09-28T11:58:18Z</time>
      </trkpt>
      <trkpt lat="44.79704" lon="5.90877">
        <ele>924.3</ele>
        <time>2023-09-28T11:58:19Z</time>
      </trkpt>
      <trkpt lat="44.79706" lon="5.90871">
        <ele>924.3</ele>
        <time>2023-09-28T11:58:20Z</time>
      </trkpt>
      <trkpt lat="44.79708" lon="5.90865">
        <ele>924.3</ele>
        <time>2023-09-28T11:58:21Z</time>
      </trkpt>
      <trkpt lat="44.79711" lon="5.90858">
        <ele>924.4</ele>
        <time>2023-09-28T11:58:22Z</time>
      </trkpt>
      <trkpt lat="44.79713" lon="5.90852">
        <ele>924.4</ele>
        <time>2023-09-28T11:58:23Z</time>
      </trkpt>
      <trkpt lat="44.79714" lon="5.90846">
        <ele>924.4</ele>
        <time>2023-09-28T11:58:24Z</time>
      </trkpt>
      <trkpt lat="44.79717" lon="5.9084">
        <ele>924.4</ele>
        <time>2023-09-28T11:58:25Z</time>
      </trkpt>
      <trkpt lat="44.79719" lon="5.90834">
        <ele>924.4</ele>
        <time>2023-09-28T11:58:26Z</time>
      </trkpt>
      <trkpt lat="44.79721" lon="5.90827">
        <ele>924.4</ele>
        <time>2023-09-28T11:58:27Z</time>
      </trkpt>
      <trkpt lat="44.79723" lon="5.90821">
        <ele>924.5</ele>
        <time>2023-09-28T11:58:28Z</time>
      </trkpt>
      <trkpt lat="44.79725" lon="5.90815">
        <ele>924.5</ele>
        <time>2023-09-28T11:58:29Z</time>
      </trkpt>
      <trkpt lat="44.79727" lon="5.90808">
        <ele>924.5</ele>
        <time>2023-09-28T11:58:30Z</time>
      </trkpt>
      <trkpt lat="44.79729" lon="5.90801">
        <ele>924.6</ele>
        <time>2023-09-28T11:58:31Z</time>
      </trkpt>
      <trkpt lat="44.79731" lon="5.90794">
        <ele>924.7</ele>
        <time>2023-09-28T11:58:32Z</time>
      </trkpt>
      <trkpt lat="44.79733" lon="5.90788">
        <ele>924.8</ele>
        <time>2023-09-28T11:58:33Z</time>
      </trkpt>
      <trkpt lat="44.79736" lon="5.90781">
        <ele>924.9</ele>
        <time>2023-09-28T11:58:34Z</time>
      </trkpt>
      <trkpt lat="44.79738" lon="5.90774">
        <ele>925</ele>
        <time>2023-09-28T11:58:35Z</time>
      </trkpt>
      <trkpt lat="44.7974" lon="5.90768">
        <ele>925.1</ele>
        <time>2023-09-28T11:58:36Z</time>
      </trkpt>
      <trkpt lat="44.79742" lon="5.90761">
        <ele>925.3</ele>
        <time>2023-09-28T11:58:37Z</time>
      </trkpt>
      <trkpt lat="44.79744" lon="5.90754">
        <ele>925.4</ele>
        <time>2023-09-28T11:58:38Z</time>
      </trkpt>
      <trkpt lat="44.79746" lon="5.90748">
        <ele>925.5</ele>
        <time>2023-09-28T11:58:39Z</time>
      </trkpt>
      <trkpt lat="44.79749" lon="5.90741">
        <ele>925.6</ele>
        <time>2023-09-28T11:58:40Z</time>
      </trkpt>
      <trkpt lat="44.79751" lon="5.90734">
        <ele>925.7</ele>
        <time>2023-09-28T11:58:41Z</time>
      </trkpt>
      <trkpt lat="44.79752" lon="5.90727">
        <ele>925.8</ele>
        <time>2023-09-28T11:58:42Z</time>
      </trkpt>
      <trkpt lat="44.79755" lon="5.90721">
        <ele>926</ele>
        <time>2023-09-28T11:58:43Z</time>
      </trkpt>
      <trkpt lat="44.79757" lon="5.90715">
        <ele>926.1</ele>
        <time>2023-09-28T11:58:44Z</time>
      </trkpt>
      <trkpt lat="44.79759" lon="5.90709">
        <ele>926.3</ele>
        <time>2023-09-28T11:58:45Z</time>
      </trkpt>
      <trkpt lat="44.79762" lon="5.90703">
        <ele>926.5</ele>
        <time>2023-09-28T11:58:46Z</time>
      </trkpt>
      <trkpt lat="44.79764" lon="5.90698">
        <ele>926.7</ele>
        <time>2023-09-28T11:58:47Z</time>
      </trkpt>
      <trkpt lat="44.79766" lon="5.90693">
        <ele>926.9</ele>
        <time>2023-09-28T11:58:48Z</time>
      </trkpt>
      <trkpt lat="44.79768" lon="5.90689">
        <ele>927.1</ele>
        <time>2023-09-28T11:58:49Z</time>
      </trkpt>
      <trkpt lat="44.79771" lon="5.90685">
        <ele>927.3</ele>
        <time>2023-09-28T11:58:50Z</time>
      </trkpt>
      <trkpt lat="44.79773" lon="5.90681">
        <ele>927.5</ele>
        <time>2023-09-28T11:58:51Z</time>
      </trkpt>
      <trkpt lat="44.79775" lon="5.90678">
        <ele>927.6</ele>
        <time>2023-09-28T11:58:52Z</time>
      </trkpt>
      <trkpt lat="44.79778" lon="5.90675">
        <ele>927.8</ele>
        <time>2023-09-28T11:58:53Z</time>
      </trkpt>
      <trkpt lat="44.7978" lon="5.90672">
        <ele>928.1</ele>
        <time>2023-09-28T11:58:54Z</time>
      </trkpt>
      <trkpt lat="44.79782" lon="5.9067">
        <ele>928.3</ele>
        <time>2023-09-28T11:58:55Z</time>
      </trkpt>
      <trkpt lat="44.79786" lon="5.90667">
        <ele>928.6</ele>
        <time>2023-09-28T11:58:57Z</time>
      </trkpt>
      <trkpt lat="44.79791" lon="5.90664">
        <ele>928.9</ele>
        <time>2023-09-28T11:58:58Z</time>
      </trkpt>
      <trkpt lat="44.79794" lon="5.90664">
        <ele>929.2</ele>
        <time>2023-09-28T11:58:59Z</time>
      </trkpt>
      <trkpt lat="44.79798" lon="5.90664">
        <ele>929.4</ele>
        <time>2023-09-28T11:59:00Z</time>
      </trkpt>
      <trkpt lat="44.798" lon="5.90664">
        <ele>929.6</ele>
        <time>2023-09-28T11:59:01Z</time>
      </trkpt>
      <trkpt lat="44.79804" lon="5.90664">
        <ele>929.9</ele>
        <time>2023-09-28T11:59:03Z</time>
      </trkpt>
      <trkpt lat="44.79806" lon="5.90664">
        <ele>930</ele>
        <time>2023-09-28T11:59:04Z</time>
      </trkpt>
      <trkpt lat="44.79809" lon="5.90664">
        <ele>930.2</ele>
        <time>2023-09-28T11:59:05Z</time>
      </trkpt>
      <trkpt lat="44.79813" lon="5.90664">
        <ele>930.5</ele>
        <time>2023-09-28T11:59:06Z</time>
      </trkpt>
      <trkpt lat="44.79814" lon="5.90665">
        <ele>930.6</ele>
        <time>2023-09-28T11:59:07Z</time>
      </trkpt>
      <trkpt lat="44.7982" lon="5.90666">
        <ele>930.9</ele>
        <time>2023-09-28T11:59:09Z</time>
      </trkpt>
      <trkpt lat="44.79822" lon="5.90665">
        <ele>931.1</ele>
        <time>2023-09-28T11:59:10Z</time>
      </trkpt>
      <trkpt lat="44.79824" lon="5.90665">
        <ele>931.2</ele>
        <time>2023-09-28T11:59:11Z</time>
      </trkpt>
      <trkpt lat="44.79827" lon="5.90666">
        <ele>931.4</ele>
        <time>2023-09-28T11:59:12Z</time>
      </trkpt>
      <trkpt lat="44.79832" lon="5.90667">
        <ele>931.7</ele>
        <time>2023-09-28T11:59:14Z</time>
      </trkpt>
      <trkpt lat="44.79835" lon="5.90668">
        <ele>931.9</ele>
        <time>2023-09-28T11:59:15Z</time>
      </trkpt>
      <trkpt lat="44.79838" lon="5.90667">
        <ele>932.1</ele>
        <time>2023-09-28T11:59:16Z</time>
      </trkpt>
      <trkpt lat="44.79842" lon="5.90667">
        <ele>932.3</ele>
        <time>2023-09-28T11:59:18Z</time>
      </trkpt>
      <trkpt lat="44.79844" lon="5.90667">
        <ele>932.4</ele>
        <time>2023-09-28T11:59:19Z</time>
      </trkpt>
      <trkpt lat="44.79847" lon="5.90666">
        <ele>932.7</ele>
        <time>2023-09-28T11:59:20Z</time>
      </trkpt>
      <trkpt lat="44.79851" lon="5.90666">
        <ele>932.9</ele>
        <time>2023-09-28T11:59:21Z</time>
      </trkpt>
      <trkpt lat="44.79854" lon="5.90667">
        <ele>933.1</ele>
        <time>2023-09-28T11:59:22Z</time>
      </trkpt>
      <trkpt lat="44.79856" lon="5.90667">
        <ele>933.2</ele>
        <time>2023-09-28T11:59:23Z</time>
      </trkpt>
      <trkpt lat="44.7986" lon="5.90668">
        <ele>933.5</ele>
        <time>2023-09-28T11:59:25Z</time>
      </trkpt>
      <trkpt lat="44.79863" lon="5.90668">
        <ele>933.7</ele>
        <time>2023-09-28T11:59:26Z</time>
      </trkpt>
      <trkpt lat="44.79868" lon="5.90669">
        <ele>934</ele>
        <time>2023-09-28T11:59:28Z</time>
      </trkpt>
      <trkpt lat="44.79871" lon="5.90671">
        <ele>934.1</ele>
        <time>2023-09-28T11:59:29Z</time>
      </trkpt>
      <trkpt lat="44.79874" lon="5.90672">
        <ele>934.3</ele>
        <time>2023-09-28T11:59:31Z</time>
      </trkpt>
      <trkpt lat="44.79877" lon="5.90673">
        <ele>934.4</ele>
        <time>2023-09-28T11:59:32Z</time>
      </trkpt>
      <trkpt lat="44.7988" lon="5.90675">
        <ele>934.6</ele>
        <time>2023-09-28T11:59:33Z</time>
      </trkpt>
      <trkpt lat="44.79882" lon="5.90678">
        <ele>934.7</ele>
        <time>2023-09-28T11:59:34Z</time>
      </trkpt>
      <trkpt lat="44.79885" lon="5.90681">
        <ele>934.9</ele>
        <time>2023-09-28T11:59:35Z</time>
      </trkpt>
      <trkpt lat="44.79888" lon="5.90684">
        <ele>935</ele>
        <time>2023-09-28T11:59:36Z</time>
      </trkpt>
      <trkpt lat="44.79893" lon="5.90688">
        <ele>935.2</ele>
        <time>2023-09-28T11:59:38Z</time>
      </trkpt>
      <trkpt lat="44.79895" lon="5.90691">
        <ele>935.4</ele>
        <time>2023-09-28T11:59:39Z</time>
      </trkpt>
      <trkpt lat="44.79898" lon="5.90694">
        <ele>935.5</ele>
        <time>2023-09-28T11:59:40Z</time>
      </trkpt>
      <trkpt lat="44.79901" lon="5.90696">
        <ele>935.7</ele>
        <time>2023-09-28T11:59:41Z</time>
      </trkpt>
      <trkpt lat="44.79903" lon="5.90698">
        <ele>935.8</ele>
        <time>2023-09-28T11:59:42Z</time>
      </trkpt>
      <trkpt lat="44.79906" lon="5.90701">
        <ele>936</ele>
        <time>2023-09-28T11:59:44Z</time>
      </trkpt>
      <trkpt lat="44.79909" lon="5.90704">
        <ele>936.2</ele>
        <time>2023-09-28T11:59:45Z</time>
      </trkpt>
      <trkpt lat="44.79911" lon="5.90707">
        <ele>936.4</ele>
        <time>2023-09-28T11:59:46Z</time>
      </trkpt>
      <trkpt lat="44.79914" lon="5.90711">
        <ele>936.4</ele>
        <time>2023-09-28T11:59:47Z</time>
      </trkpt>
      <trkpt lat="44.79917" lon="5.90713">
        <ele>936.3</ele>
        <time>2023-09-28T11:59:48Z</time>
      </trkpt>
      <trkpt lat="44.7992" lon="5.90717">
        <ele>936.4</ele>
        <time>2023-09-28T11:59:49Z</time>
      </trkpt>
      <trkpt lat="44.79921" lon="5.90718">
        <ele>936.4</ele>
        <time>2023-09-28T11:59:50Z</time>
      </trkpt>
      <trkpt lat="44.79924" lon="5.90722">
        <ele>936.6</ele>
        <time>2023-09-28T11:59:52Z</time>
      </trkpt>
      <trkpt lat="44.79926" lon="5.90724">
        <ele>936.8</ele>
        <time>2023-09-28T11:59:53Z</time>
      </trkpt>
      <trkpt lat="44.79928" lon="5.90727">
        <ele>937</ele>
        <time>2023-09-28T11:59:54Z</time>
      </trkpt>
      <trkpt lat="44.79931" lon="5.90731">
        <ele>937.2</ele>
        <time>2023-09-28T11:59:55Z</time>
      </trkpt>
      <trkpt lat="44.79932" lon="5.90732">
        <ele>937.3</ele>
        <time>2023-09-28T11:59:56Z</time>
      </trkpt>
      <trkpt lat="44.79934" lon="5.90736">
        <ele>937.5</ele>
        <time>2023-09-28T11:59:57Z</time>
      </trkpt>
      <trkpt lat="44.79935" lon="5.90739">
        <ele>937.7</ele>
        <time>2023-09-28T11:59:58Z</time>
      </trkpt>
      <trkpt lat="44.79936" lon="5.90741">
        <ele>937.8</ele>
        <time>2023-09-28T12:00:00Z</time>
      </trkpt>
      <trkpt lat="44.79938" lon="5.90747">
        <ele>938.1</ele>
        <time>2023-09-28T12:00:01Z</time>
      </trkpt>
      <trkpt lat="44.79939" lon="5.90749">
        <ele>938.3</ele>
        <time>2023-09-28T12:00:02Z</time>
      </trkpt>
      <trkpt lat="44.79941" lon="5.90753">
        <ele>938.6</ele>
        <time>2023-09-28T12:00:03Z</time>
      </trkpt>
      <trkpt lat="44.79942" lon="5.90755">
        <ele>938.7</ele>
        <time>2023-09-28T12:00:04Z</time>
      </trkpt>
      <trkpt lat="44.79945" lon="5.90759">
        <ele>939</ele>
        <time>2023-09-28T12:00:05Z</time>
      </trkpt>
      <trkpt lat="44.79946" lon="5.90761">
        <ele>939.2</ele>
        <time>2023-09-28T12:00:06Z</time>
      </trkpt>
      <trkpt lat="44.79948" lon="5.90766">
        <ele>939.5</ele>
        <time>2023-09-28T12:00:07Z</time>
      </trkpt>
      <trkpt lat="44.79949" lon="5.90767">
        <ele>939.6</ele>
        <time>2023-09-28T12:00:08Z</time>
      </trkpt>
      <trkpt lat="44.7995" lon="5.9077">
        <ele>939.9</ele>
        <time>2023-09-28T12:00:09Z</time>
      </trkpt>
      <trkpt lat="44.79952" lon="5.90774">
        <ele>940.1</ele>
        <time>2023-09-28T12:00:11Z</time>
      </trkpt>
      <trkpt lat="44.79953" lon="5.90777">
        <ele>940.4</ele>
        <time>2023-09-28T12:00:12Z</time>
      </trkpt>
      <trkpt lat="44.79955" lon="5.90781">
        <ele>940.6</ele>
        <time>2023-09-28T12:00:13Z</time>
      </trkpt>
      <trkpt lat="44.79957" lon="5.90783">
        <ele>940.8</ele>
        <time>2023-09-28T12:00:14Z</time>
      </trkpt>
      <trkpt lat="44.79959" lon="5.90785">
        <ele>941</ele>
        <time>2023-09-28T12:00:15Z</time>
      </trkpt>
      <trkpt lat="44.79961" lon="5.90787">
        <ele>941.2</ele>
        <time>2023-09-28T12:00:17Z</time>
      </trkpt>
      <trkpt lat="44.79964" lon="5.9079">
        <ele>941.3</ele>
        <time>2023-09-28T12:00:18Z</time>
      </trkpt>
      <trkpt lat="44.79967" lon="5.90792">
        <ele>941.3</ele>
        <time>2023-09-28T12:00:19Z</time>
      </trkpt>
      <trkpt lat="44.79969" lon="5.90793">
        <ele>941.3</ele>
        <time>2023-09-28T12:00:20Z</time>
      </trkpt>
      <trkpt lat="44.79974" lon="5.90796">
        <ele>941.5</ele>
        <time>2023-09-28T12:00:22Z</time>
      </trkpt>
      <trkpt lat="44.79977" lon="5.90798">
        <ele>941.8</ele>
        <time>2023-09-28T12:00:23Z</time>
      </trkpt>
      <trkpt lat="44.79979" lon="5.90798">
        <ele>941.9</ele>
        <time>2023-09-28T12:00:24Z</time>
      </trkpt>
      <trkpt lat="44.79981" lon="5.90798">
        <ele>942.1</ele>
        <time>2023-09-28T12:00:26Z</time>
      </trkpt>
      <trkpt lat="44.79986" lon="5.90799">
        <ele>942.4</ele>
        <time>2023-09-28T12:00:27Z</time>
      </trkpt>
      <trkpt lat="44.79988" lon="5.90799">
        <ele>942.6</ele>
        <time>2023-09-28T12:00:28Z</time>
      </trkpt>
      <trkpt lat="44.79992" lon="5.90799">
        <ele>942.9</ele>
        <time>2023-09-28T12:00:29Z</time>
      </trkpt>
      <trkpt lat="44.79996" lon="5.90799">
        <ele>943.1</ele>
        <time>2023-09-28T12:00:30Z</time>
      </trkpt>
      <trkpt lat="44.79999" lon="5.90798">
        <ele>943.3</ele>
        <time>2023-09-28T12:00:32Z</time>
      </trkpt>
      <trkpt lat="44.80002" lon="5.90796">
        <ele>943.5</ele>
        <time>2023-09-28T12:00:33Z</time>
      </trkpt>
      <trkpt lat="44.80004" lon="5.90794">
        <ele>943.7</ele>
        <time>2023-09-28T12:00:34Z</time>
      </trkpt>
      <trkpt lat="44.80007" lon="5.90792">
        <ele>943.9</ele>
        <time>2023-09-28T12:00:35Z</time>
      </trkpt>
      <trkpt lat="44.8001" lon="5.9079">
        <ele>944.1</ele>
        <time>2023-09-28T12:00:36Z</time>
      </trkpt>
      <trkpt lat="44.80013" lon="5.90787">
        <ele>944.3</ele>
        <time>2023-09-28T12:00:37Z</time>
      </trkpt>
      <trkpt lat="44.80016" lon="5.90783">
        <ele>944.5</ele>
        <time>2023-09-28T12:00:38Z</time>
      </trkpt>
      <trkpt lat="44.80017" lon="5.90782">
        <ele>944.5</ele>
        <time>2023-09-28T12:00:39Z</time>
      </trkpt>
      <trkpt lat="44.8002" lon="5.90779">
        <ele>944.7</ele>
        <time>2023-09-28T12:00:41Z</time>
      </trkpt>
      <trkpt lat="44.80022" lon="5.90776">
        <ele>944.8</ele>
        <time>2023-09-28T12:00:42Z</time>
      </trkpt>
      <trkpt lat="44.80024" lon="5.90774">
        <ele>944.9</ele>
        <time>2023-09-28T12:00:43Z</time>
      </trkpt>
      <trkpt lat="44.80028" lon="5.90771">
        <ele>945.1</ele>
        <time>2023-09-28T12:00:44Z</time>
      </trkpt>
      <trkpt lat="44.80029" lon="5.9077">
        <ele>945.1</ele>
        <time>2023-09-28T12:00:45Z</time>
      </trkpt>
      <trkpt lat="44.80032" lon="5.90767">
        <ele>945.3</ele>
        <time>2023-09-28T12:00:46Z</time>
      </trkpt>
      <trkpt lat="44.80036" lon="5.90763">
        <ele>945.5</ele>
        <time>2023-09-28T12:00:48Z</time>
      </trkpt>
      <trkpt lat="44.80039" lon="5.9076">
        <ele>945.6</ele>
        <time>2023-09-28T12:00:49Z</time>
      </trkpt>
      <trkpt lat="44.8004" lon="5.90759">
        <ele>945.7</ele>
        <time>2023-09-28T12:00:50Z</time>
      </trkpt>
      <trkpt lat="44.80045" lon="5.90755">
        <ele>945.9</ele>
        <time>2023-09-28T12:00:52Z</time>
      </trkpt>
      <trkpt lat="44.80047" lon="5.90753">
        <ele>946</ele>
        <time>2023-09-28T12:00:53Z</time>
      </trkpt>
      <trkpt lat="44.8005" lon="5.90751">
        <ele>946.1</ele>
        <time>2023-09-28T12:00:54Z</time>
      </trkpt>
      <trkpt lat="44.80053" lon="5.90747">
        <ele>946.3</ele>
        <time>2023-09-28T12:00:56Z</time>
      </trkpt>
      <trkpt lat="44.80056" lon="5.90744">
        <ele>946.4</ele>
        <time>2023-09-28T12:00:57Z</time>
      </trkpt>
      <trkpt lat="44.80058" lon="5.90742">
        <ele>946.5</ele>
        <time>2023-09-28T12:00:58Z</time>
      </trkpt>
      <trkpt lat="44.80061" lon="5.9074">
        <ele>946.6</ele>
        <time>2023-09-28T12:00:59Z</time>
      </trkpt>
      <trkpt lat="44.80064" lon="5.90738">
        <ele>946.7</ele>
        <time>2023-09-28T12:01:00Z</time>
      </trkpt>
      <trkpt lat="44.80066" lon="5.90735">
        <ele>946.8</ele>
        <time>2023-09-28T12:01:01Z</time>
      </trkpt>
      <trkpt lat="44.80069" lon="5.90733">
        <ele>946.9</ele>
        <time>2023-09-28T12:01:02Z</time>
      </trkpt>
      <trkpt lat="44.80073" lon="5.90728">
        <ele>947</ele>
        <time>2023-09-28T12:01:04Z</time>
      </trkpt>
      <trkpt lat="44.80075" lon="5.90727">
        <ele>947</ele>
        <time>2023-09-28T12:01:05Z</time>
      </trkpt>
      <trkpt lat="44.80078" lon="5.90724">
        <ele>947.1</ele>
        <time>2023-09-28T12:01:07Z</time>
      </trkpt>
      <trkpt lat="44.80082" lon="5.9072">
        <ele>947.1</ele>
        <time>2023-09-28T12:01:08Z</time>
      </trkpt>
      <trkpt lat="44.80085" lon="5.90717">
        <ele>947.2</ele>
        <time>2023-09-28T12:01:09Z</time>
      </trkpt>
      <trkpt lat="44.80088" lon="5.90715">
        <ele>947.2</ele>
        <time>2023-09-28T12:01:10Z</time>
      </trkpt>
      <trkpt lat="44.80091" lon="5.90712">
        <ele>947.2</ele>
        <time>2023-09-28T12:01:12Z</time>
      </trkpt>
      <trkpt lat="44.80095" lon="5.90708">
        <ele>947.2</ele>
        <time>2023-09-28T12:01:13Z</time>
      </trkpt>
      <trkpt lat="44.80099" lon="5.90705">
        <ele>947.2</ele>
        <time>2023-09-28T12:01:14Z</time>
      </trkpt>
      <trkpt lat="44.80102" lon="5.90702">
        <ele>947.2</ele>
        <time>2023-09-28T12:01:15Z</time>
      </trkpt>
      <trkpt lat="44.80106" lon="5.90699">
        <ele>947.2</ele>
        <time>2023-09-28T12:01:17Z</time>
      </trkpt>
      <trkpt lat="44.8011" lon="5.90694">
        <ele>947.2</ele>
        <time>2023-09-28T12:01:18Z</time>
      </trkpt>
      <trkpt lat="44.80114" lon="5.9069">
        <ele>947.1</ele>
        <time>2023-09-28T12:01:19Z</time>
      </trkpt>
      <trkpt lat="44.80117" lon="5.90687">
        <ele>947.1</ele>
        <time>2023-09-28T12:01:20Z</time>
      </trkpt>
      <trkpt lat="44.80123" lon="5.90682">
        <ele>947</ele>
        <time>2023-09-28T12:01:22Z</time>
      </trkpt>
      <trkpt lat="44.80127" lon="5.90678">
        <ele>947</ele>
        <time>2023-09-28T12:01:23Z</time>
      </trkpt>
      <trkpt lat="44.80131" lon="5.90675">
        <ele>947</ele>
        <time>2023-09-28T12:01:24Z</time>
      </trkpt>
      <trkpt lat="44.80135" lon="5.9067">
        <ele>947</ele>
        <time>2023-09-28T12:01:26Z</time>
      </trkpt>
      <trkpt lat="44.80141" lon="5.90665">
        <ele>947</ele>
        <time>2023-09-28T12:01:27Z</time>
      </trkpt>
      <trkpt lat="44.80145" lon="5.90661">
        <ele>946.9</ele>
        <time>2023-09-28T12:01:28Z</time>
      </trkpt>
      <trkpt lat="44.80149" lon="5.90656">
        <ele>946.9</ele>
        <time>2023-09-28T12:01:29Z</time>
      </trkpt>
      <trkpt lat="44.80153" lon="5.90652">
        <ele>946.8</ele>
        <time>2023-09-28T12:01:31Z</time>
      </trkpt>
      <trkpt lat="44.80158" lon="5.90648">
        <ele>946.8</ele>
        <time>2023-09-28T12:01:32Z</time>
      </trkpt>
      <trkpt lat="44.80162" lon="5.90644">
        <ele>946.7</ele>
        <time>2023-09-28T12:01:33Z</time>
      </trkpt>
      <trkpt lat="44.80165" lon="5.9064">
        <ele>946.6</ele>
        <time>2023-09-28T12:01:34Z</time>
      </trkpt>
      <trkpt lat="44.80169" lon="5.90635">
        <ele>946.5</ele>
        <time>2023-09-28T12:01:35Z</time>
      </trkpt>
      <trkpt lat="44.80173" lon="5.90632">
        <ele>946.4</ele>
        <time>2023-09-28T12:01:36Z</time>
      </trkpt>
      <trkpt lat="44.80176" lon="5.90629">
        <ele>946.4</ele>
        <time>2023-09-28T12:01:37Z</time>
      </trkpt>
      <trkpt lat="44.80181" lon="5.90625">
        <ele>946.3</ele>
        <time>2023-09-28T12:01:38Z</time>
      </trkpt>
      <trkpt lat="44.80185" lon="5.90622">
        <ele>946.2</ele>
        <time>2023-09-28T12:01:39Z</time>
      </trkpt>
      <trkpt lat="44.80188" lon="5.90618">
        <ele>946.1</ele>
        <time>2023-09-28T12:01:40Z</time>
      </trkpt>
      <trkpt lat="44.80192" lon="5.90614">
        <ele>945.9</ele>
        <time>2023-09-28T12:01:41Z</time>
      </trkpt>
      <trkpt lat="44.80197" lon="5.9061">
        <ele>945.8</ele>
        <time>2023-09-28T12:01:42Z</time>
      </trkpt>
      <trkpt lat="44.80201" lon="5.90606">
        <ele>945.7</ele>
        <time>2023-09-28T12:01:43Z</time>
      </trkpt>
      <trkpt lat="44.80205" lon="5.90602">
        <ele>945.6</ele>
        <time>2023-09-28T12:01:44Z</time>
      </trkpt>
      <trkpt lat="44.80209" lon="5.90598">
        <ele>945.5</ele>
        <time>2023-09-28T12:01:45Z</time>
      </trkpt>
      <trkpt lat="44.80213" lon="5.90594">
        <ele>945.4</ele>
        <time>2023-09-28T12:01:46Z</time>
      </trkpt>
      <trkpt lat="44.80217" lon="5.9059">
        <ele>945.2</ele>
        <time>2023-09-28T12:01:47Z</time>
      </trkpt>
      <trkpt lat="44.8022" lon="5.90586">
        <ele>945.1</ele>
        <time>2023-09-28T12:01:48Z</time>
      </trkpt>
      <trkpt lat="44.80224" lon="5.90582">
        <ele>944.9</ele>
        <time>2023-09-28T12:01:49Z</time>
      </trkpt>
      <trkpt lat="44.80229" lon="5.90578">
        <ele>944.8</ele>
        <time>2023-09-28T12:01:50Z</time>
      </trkpt>
      <trkpt lat="44.80233" lon="5.90575">
        <ele>944.6</ele>
        <time>2023-09-28T12:01:51Z</time>
      </trkpt>
      <trkpt lat="44.80237" lon="5.90571">
        <ele>944.5</ele>
        <time>2023-09-28T12:01:52Z</time>
      </trkpt>
      <trkpt lat="44.80241" lon="5.90567">
        <ele>944.3</ele>
        <time>2023-09-28T12:01:53Z</time>
      </trkpt>
      <trkpt lat="44.80246" lon="5.90563">
        <ele>944.1</ele>
        <time>2023-09-28T12:01:54Z</time>
      </trkpt>
      <trkpt lat="44.8025" lon="5.90559">
        <ele>943.9</ele>
        <time>2023-09-28T12:01:55Z</time>
      </trkpt>
      <trkpt lat="44.80254" lon="5.90555">
        <ele>943.7</ele>
        <time>2023-09-28T12:01:56Z</time>
      </trkpt>
      <trkpt lat="44.80258" lon="5.90551">
        <ele>943.6</ele>
        <time>2023-09-28T12:01:57Z</time>
      </trkpt>
      <trkpt lat="44.80263" lon="5.90547">
        <ele>943.4</ele>
        <time>2023-09-28T12:01:58Z</time>
      </trkpt>
      <trkpt lat="44.80267" lon="5.90543">
        <ele>943.1</ele>
        <time>2023-09-28T12:01:59Z</time>
      </trkpt>
      <trkpt lat="44.80271" lon="5.90539">
        <ele>942.9</ele>
        <time>2023-09-28T12:02:00Z</time>
      </trkpt>
      <trkpt lat="44.80275" lon="5.90534">
        <ele>942.7</ele>
        <time>2023-09-28T12:02:01Z</time>
      </trkpt>
      <trkpt lat="44.8028" lon="5.90529">
        <ele>942.5</ele>
        <time>2023-09-28T12:02:02Z</time>
      </trkpt>
      <trkpt lat="44.80284" lon="5.90525">
        <ele>942.3</ele>
        <time>2023-09-28T12:02:03Z</time>
      </trkpt>
      <trkpt lat="44.80289" lon="5.90521">
        <ele>942.1</ele>
        <time>2023-09-28T12:02:04Z</time>
      </trkpt>
      <trkpt lat="44.80294" lon="5.90516">
        <ele>941.9</ele>
        <time>2023-09-28T12:02:05Z</time>
      </trkpt>
      <trkpt lat="44.80299" lon="5.90511">
        <ele>941.6</ele>
        <time>2023-09-28T12:02:06Z</time>
      </trkpt>
      <trkpt lat="44.80304" lon="5.90506">
        <ele>941.3</ele>
        <time>2023-09-28T12:02:07Z</time>
      </trkpt>
      <trkpt lat="44.8031" lon="5.90501">
        <ele>941.1</ele>
        <time>2023-09-28T12:02:08Z</time>
      </trkpt>
      <trkpt lat="44.80315" lon="5.90496">
        <ele>940.8</ele>
        <time>2023-09-28T12:02:09Z</time>
      </trkpt>
      <trkpt lat="44.80321" lon="5.90491">
        <ele>940.5</ele>
        <time>2023-09-28T12:02:10Z</time>
      </trkpt>
      <trkpt lat="44.80326" lon="5.90486">
        <ele>940.3</ele>
        <time>2023-09-28T12:02:11Z</time>
      </trkpt>
      <trkpt lat="44.80332" lon="5.90481">
        <ele>940</ele>
        <time>2023-09-28T12:02:12Z</time>
      </trkpt>
      <trkpt lat="44.80338" lon="5.90475">
        <ele>939.7</ele>
        <time>2023-09-28T12:02:13Z</time>
      </trkpt>
      <trkpt lat="44.80343" lon="5.90469">
        <ele>939.5</ele>
        <time>2023-09-28T12:02:14Z</time>
      </trkpt>
      <trkpt lat="44.80349" lon="5.90464">
        <ele>939.2</ele>
        <time>2023-09-28T12:02:15Z</time>
      </trkpt>
      <trkpt lat="44.80355" lon="5.90458">
        <ele>938.9</ele>
        <time>2023-09-28T12:02:16Z</time>
      </trkpt>
      <trkpt lat="44.80361" lon="5.90452">
        <ele>938.6</ele>
        <time>2023-09-28T12:02:17Z</time>
      </trkpt>
      <trkpt lat="44.80367" lon="5.90446">
        <ele>938.3</ele>
        <time>2023-09-28T12:02:18Z</time>
      </trkpt>
      <trkpt lat="44.80373" lon="5.9044">
        <ele>938</ele>
        <time>2023-09-28T12:02:19Z</time>
      </trkpt>
      <trkpt lat="44.80379" lon="5.90435">
        <ele>937.8</ele>
        <time>2023-09-28T12:02:20Z</time>
      </trkpt>
      <trkpt lat="44.80385" lon="5.90429">
        <ele>937.7</ele>
        <time>2023-09-28T12:02:21Z</time>
      </trkpt>
      <trkpt lat="44.80391" lon="5.90423">
        <ele>937.5</ele>
        <time>2023-09-28T12:02:22Z</time>
      </trkpt>
      <trkpt lat="44.80397" lon="5.90417">
        <ele>937.3</ele>
        <time>2023-09-28T12:02:23Z</time>
      </trkpt>
      <trkpt lat="44.80403" lon="5.90411">
        <ele>937.1</ele>
        <time>2023-09-28T12:02:24Z</time>
      </trkpt>
      <trkpt lat="44.80409" lon="5.90405">
        <ele>936.8</ele>
        <time>2023-09-28T12:02:25Z</time>
      </trkpt>
      <trkpt lat="44.80415" lon="5.90399">
        <ele>936.5</ele>
        <time>2023-09-28T12:02:26Z</time>
      </trkpt>
      <trkpt lat="44.80422" lon="5.90393">
        <ele>936.2</ele>
        <time>2023-09-28T12:02:27Z</time>
      </trkpt>
      <trkpt lat="44.80428" lon="5.90387">
        <ele>935.9</ele>
        <time>2023-09-28T12:02:28Z</time>
      </trkpt>
      <trkpt lat="44.80435" lon="5.90381">
        <ele>935.6</ele>
        <time>2023-09-28T12:02:29Z</time>
      </trkpt>
      <trkpt lat="44.80442" lon="5.90375">
        <ele>935.1</ele>
        <time>2023-09-28T12:02:30Z</time>
      </trkpt>
      <trkpt lat="44.80448" lon="5.90369">
        <ele>934.7</ele>
        <time>2023-09-28T12:02:31Z</time>
      </trkpt>
      <trkpt lat="44.80455" lon="5.90362">
        <ele>934.3</ele>
        <time>2023-09-28T12:02:32Z</time>
      </trkpt>
      <trkpt lat="44.80462" lon="5.90356">
        <ele>933.8</ele>
        <time>2023-09-28T12:02:33Z</time>
      </trkpt>
      <trkpt lat="44.80469" lon="5.90349">
        <ele>933.2</ele>
        <time>2023-09-28T12:02:34Z</time>
      </trkpt>
      <trkpt lat="44.80477" lon="5.90342">
        <ele>932.6</ele>
        <time>2023-09-28T12:02:35Z</time>
      </trkpt>
      <trkpt lat="44.80484" lon="5.90335">
        <ele>932.1</ele>
        <time>2023-09-28T12:02:36Z</time>
      </trkpt>
      <trkpt lat="44.80492" lon="5.90328">
        <ele>931.5</ele>
        <time>2023-09-28T12:02:37Z</time>
      </trkpt>
      <trkpt lat="44.80499" lon="5.9032">
        <ele>930.9</ele>
        <time>2023-09-28T12:02:38Z</time>
      </trkpt>
      <trkpt lat="44.80507" lon="5.90312">
        <ele>930.3</ele>
        <time>2023-09-28T12:02:39Z</time>
      </trkpt>
      <trkpt lat="44.80515" lon="5.90305">
        <ele>929.8</ele>
        <time>2023-09-28T12:02:40Z</time>
      </trkpt>
      <trkpt lat="44.80522" lon="5.90297">
        <ele>929.2</ele>
        <time>2023-09-28T12:02:41Z</time>
      </trkpt>
      <trkpt lat="44.8053" lon="5.90288">
        <ele>928.7</ele>
        <time>2023-09-28T12:02:42Z</time>
      </trkpt>
      <trkpt lat="44.80537" lon="5.90279">
        <ele>928</ele>
        <time>2023-09-28T12:02:43Z</time>
      </trkpt>
      <trkpt lat="44.80545" lon="5.9027">
        <ele>927.3</ele>
        <time>2023-09-28T12:02:44Z</time>
      </trkpt>
      <trkpt lat="44.80552" lon="5.9026">
        <ele>926.7</ele>
        <time>2023-09-28T12:02:45Z</time>
      </trkpt>
      <trkpt lat="44.80559" lon="5.9025">
        <ele>926.1</ele>
        <time>2023-09-28T12:02:46Z</time>
      </trkpt>
      <trkpt lat="44.80565" lon="5.90239">
        <ele>925.4</ele>
        <time>2023-09-28T12:02:47Z</time>
      </trkpt>
      <trkpt lat="44.80572" lon="5.90228">
        <ele>924.7</ele>
        <time>2023-09-28T12:02:48Z</time>
      </trkpt>
      <trkpt lat="44.80578" lon="5.90216">
        <ele>924.1</ele>
        <time>2023-09-28T12:02:49Z</time>
      </trkpt>
      <trkpt lat="44.80584" lon="5.90205">
        <ele>923.5</ele>
        <time>2023-09-28T12:02:50Z</time>
      </trkpt>
      <trkpt lat="44.8059" lon="5.90192">
        <ele>922.7</ele>
        <time>2023-09-28T12:02:51Z</time>
      </trkpt>
      <trkpt lat="44.80595" lon="5.9018">
        <ele>922</ele>
        <time>2023-09-28T12:02:52Z</time>
      </trkpt>
      <trkpt lat="44.806" lon="5.90167">
        <ele>921.4</ele>
        <time>2023-09-28T12:02:53Z</time>
      </trkpt>
      <trkpt lat="44.80604" lon="5.90153">
        <ele>920.7</ele>
        <time>2023-09-28T12:02:54Z</time>
      </trkpt>
      <trkpt lat="44.80607" lon="5.90139">
        <ele>920</ele>
        <time>2023-09-28T12:02:55Z</time>
      </trkpt>
      <trkpt lat="44.80611" lon="5.90126">
        <ele>919.4</ele>
        <time>2023-09-28T12:02:56Z</time>
      </trkpt>
      <trkpt lat="44.80615" lon="5.90112">
        <ele>918.7</ele>
        <time>2023-09-28T12:02:57Z</time>
      </trkpt>
      <trkpt lat="44.80618" lon="5.90098">
        <ele>918.1</ele>
        <time>2023-09-28T12:02:58Z</time>
      </trkpt>
      <trkpt lat="44.80622" lon="5.90084">
        <ele>917.5</ele>
        <time>2023-09-28T12:02:59Z</time>
      </trkpt>
      <trkpt lat="44.80625" lon="5.9007">
        <ele>917</ele>
        <time>2023-09-28T12:03:00Z</time>
      </trkpt>
      <trkpt lat="44.80629" lon="5.90056">
        <ele>916.6</ele>
        <time>2023-09-28T12:03:01Z</time>
      </trkpt>
      <trkpt lat="44.80631" lon="5.90043">
        <ele>916.3</ele>
        <time>2023-09-28T12:03:02Z</time>
      </trkpt>
      <trkpt lat="44.80634" lon="5.9003">
        <ele>916.1</ele>
        <time>2023-09-28T12:03:03Z</time>
      </trkpt>
      <trkpt lat="44.80636" lon="5.90016">
        <ele>915.9</ele>
        <time>2023-09-28T12:03:04Z</time>
      </trkpt>
      <trkpt lat="44.80638" lon="5.90004">
        <ele>915.8</ele>
        <time>2023-09-28T12:03:05Z</time>
      </trkpt>
      <trkpt lat="44.8064" lon="5.89992">
        <ele>915.7</ele>
        <time>2023-09-28T12:03:06Z</time>
      </trkpt>
      <trkpt lat="44.80642" lon="5.8998">
        <ele>915.6</ele>
        <time>2023-09-28T12:03:07Z</time>
      </trkpt>
      <trkpt lat="44.80644" lon="5.89968">
        <ele>915.5</ele>
        <time>2023-09-28T12:03:08Z</time>
      </trkpt>
      <trkpt lat="44.80647" lon="5.89957">
        <ele>915.5</ele>
        <time>2023-09-28T12:03:09Z</time>
      </trkpt>
      <trkpt lat="44.80649" lon="5.89947">
        <ele>915.4</ele>
        <time>2023-09-28T12:03:10Z</time>
      </trkpt>
      <trkpt lat="44.80651" lon="5.89936">
        <ele>915.3</ele>
        <time>2023-09-28T12:03:11Z</time>
      </trkpt>
      <trkpt lat="44.80653" lon="5.89926">
        <ele>915.3</ele>
        <time>2023-09-28T12:03:12Z</time>
      </trkpt>
      <trkpt lat="44.80655" lon="5.89916">
        <ele>915.2</ele>
        <time>2023-09-28T12:03:13Z</time>
      </trkpt>
      <trkpt lat="44.80657" lon="5.89906">
        <ele>915.2</ele>
        <time>2023-09-28T12:03:14Z</time>
      </trkpt>
      <trkpt lat="44.80659" lon="5.89897">
        <ele>915.1</ele>
        <time>2023-09-28T12:03:15Z</time>
      </trkpt>
      <trkpt lat="44.80661" lon="5.89887">
        <ele>915.1</ele>
        <time>2023-09-28T12:03:16Z</time>
      </trkpt>
      <trkpt lat="44.80663" lon="5.89878">
        <ele>915</ele>
        <time>2023-09-28T12:03:17Z</time>
      </trkpt>
      <trkpt lat="44.80664" lon="5.8987">
        <ele>915</ele>
        <time>2023-09-28T12:03:18Z</time>
      </trkpt>
      <trkpt lat="44.80666" lon="5.89861">
        <ele>914.9</ele>
        <time>2023-09-28T12:03:19Z</time>
      </trkpt>
      <trkpt lat="44.80667" lon="5.89852">
        <ele>914.9</ele>
        <time>2023-09-28T12:03:20Z</time>
      </trkpt>
      <trkpt lat="44.80668" lon="5.89844">
        <ele>914.9</ele>
        <time>2023-09-28T12:03:21Z</time>
      </trkpt>
      <trkpt lat="44.8067" lon="5.89835">
        <ele>914.9</ele>
        <time>2023-09-28T12:03:22Z</time>
      </trkpt>
      <trkpt lat="44.80672" lon="5.89827">
        <ele>914.9</ele>
        <time>2023-09-28T12:03:23Z</time>
      </trkpt>
      <trkpt lat="44.80674" lon="5.8982">
        <ele>914.9</ele>
        <time>2023-09-28T12:03:24Z</time>
      </trkpt>
      <trkpt lat="44.80675" lon="5.89812">
        <ele>914.8</ele>
        <time>2023-09-28T12:03:25Z</time>
      </trkpt>
      <trkpt lat="44.80676" lon="5.89803">
        <ele>914.8</ele>
        <time>2023-09-28T12:03:26Z</time>
      </trkpt>
      <trkpt lat="44.80678" lon="5.89795">
        <ele>914.8</ele>
        <time>2023-09-28T12:03:27Z</time>
      </trkpt>
      <trkpt lat="44.80679" lon="5.89787">
        <ele>914.7</ele>
        <time>2023-09-28T12:03:28Z</time>
      </trkpt>
      <trkpt lat="44.80681" lon="5.89779">
        <ele>914.7</ele>
        <time>2023-09-28T12:03:29Z</time>
      </trkpt>
      <trkpt lat="44.80682" lon="5.89771">
        <ele>914.6</ele>
        <time>2023-09-28T12:03:30Z</time>
      </trkpt>
      <trkpt lat="44.80684" lon="5.89763">
        <ele>914.5</ele>
        <time>2023-09-28T12:03:31Z</time>
      </trkpt>
      <trkpt lat="44.80685" lon="5.89756">
        <ele>914.4</ele>
        <time>2023-09-28T12:03:32Z</time>
      </trkpt>
      <trkpt lat="44.80687" lon="5.89748">
        <ele>914.3</ele>
        <time>2023-09-28T12:03:33Z</time>
      </trkpt>
      <trkpt lat="44.80689" lon="5.89741">
        <ele>914.2</ele>
        <time>2023-09-28T12:03:34Z</time>
      </trkpt>
      <trkpt lat="44.80691" lon="5.89734">
        <ele>914.2</ele>
        <time>2023-09-28T12:03:35Z</time>
      </trkpt>
      <trkpt lat="44.80693" lon="5.89726">
        <ele>914.1</ele>
        <time>2023-09-28T12:03:36Z</time>
      </trkpt>
      <trkpt lat="44.80694" lon="5.89719">
        <ele>914.1</ele>
        <time>2023-09-28T12:03:37Z</time>
      </trkpt>
      <trkpt lat="44.80695" lon="5.89711">
        <ele>914</ele>
        <time>2023-09-28T12:03:38Z</time>
      </trkpt>
      <trkpt lat="44.80696" lon="5.89703">
        <ele>914</ele>
        <time>2023-09-28T12:03:39Z</time>
      </trkpt>
      <trkpt lat="44.80698" lon="5.89695">
        <ele>913.9</ele>
        <time>2023-09-28T12:03:40Z</time>
      </trkpt>
      <trkpt lat="44.80699" lon="5.89687">
        <ele>913.8</ele>
        <time>2023-09-28T12:03:41Z</time>
      </trkpt>
      <trkpt lat="44.807" lon="5.89679">
        <ele>913.7</ele>
        <time>2023-09-28T12:03:42Z</time>
      </trkpt>
      <trkpt lat="44.80702" lon="5.89672">
        <ele>913.6</ele>
        <time>2023-09-28T12:03:43Z</time>
      </trkpt>
      <trkpt lat="44.80703" lon="5.89665">
        <ele>913.5</ele>
        <time>2023-09-28T12:03:44Z</time>
      </trkpt>
      <trkpt lat="44.80705" lon="5.89658">
        <ele>913.4</ele>
        <time>2023-09-28T12:03:45Z</time>
      </trkpt>
      <trkpt lat="44.80706" lon="5.89651">
        <ele>913.3</ele>
        <time>2023-09-28T12:03:46Z</time>
      </trkpt>
      <trkpt lat="44.80708" lon="5.89644">
        <ele>913.3</ele>
        <time>2023-09-28T12:03:47Z</time>
      </trkpt>
      <trkpt lat="44.80709" lon="5.89637">
        <ele>913.2</ele>
        <time>2023-09-28T12:03:48Z</time>
      </trkpt>
      <trkpt lat="44.8071" lon="5.8963">
        <ele>913.1</ele>
        <time>2023-09-28T12:03:49Z</time>
      </trkpt>
      <trkpt lat="44.80712" lon="5.89623">
        <ele>913</ele>
        <time>2023-09-28T12:03:50Z</time>
      </trkpt>
      <trkpt lat="44.80713" lon="5.89616">
        <ele>913</ele>
        <time>2023-09-28T12:03:51Z</time>
      </trkpt>
      <trkpt lat="44.80714" lon="5.89609">
        <ele>912.9</ele>
        <time>2023-09-28T12:03:52Z</time>
      </trkpt>
      <trkpt lat="44.80716" lon="5.89601">
        <ele>912.8</ele>
        <time>2023-09-28T12:03:53Z</time>
      </trkpt>
      <trkpt lat="44.80717" lon="5.89593">
        <ele>912.7</ele>
        <time>2023-09-28T12:03:54Z</time>
      </trkpt>
      <trkpt lat="44.80719" lon="5.89585">
        <ele>912.6</ele>
        <time>2023-09-28T12:03:55Z</time>
      </trkpt>
      <trkpt lat="44.8072" lon="5.89577">
        <ele>912.5</ele>
        <time>2023-09-28T12:03:56Z</time>
      </trkpt>
      <trkpt lat="44.80722" lon="5.8957">
        <ele>912.4</ele>
        <time>2023-09-28T12:03:57Z</time>
      </trkpt>
      <trkpt lat="44.80723" lon="5.89561">
        <ele>912.3</ele>
        <time>2023-09-28T12:03:58Z</time>
      </trkpt>
      <trkpt lat="44.80725" lon="5.89553">
        <ele>912.2</ele>
        <time>2023-09-28T12:03:59Z</time>
      </trkpt>
      <trkpt lat="44.80727" lon="5.89545">
        <ele>912.2</ele>
        <time>2023-09-28T12:04:00Z</time>
      </trkpt>
      <trkpt lat="44.80728" lon="5.89536">
        <ele>912.1</ele>
        <time>2023-09-28T12:04:01Z</time>
      </trkpt>
      <trkpt lat="44.8073" lon="5.89528">
        <ele>912</ele>
        <time>2023-09-28T12:04:02Z</time>
      </trkpt>
      <trkpt lat="44.80732" lon="5.89519">
        <ele>911.9</ele>
        <time>2023-09-28T12:04:03Z</time>
      </trkpt>
      <trkpt lat="44.80733" lon="5.89511">
        <ele>911.8</ele>
        <time>2023-09-28T12:04:04Z</time>
      </trkpt>
      <trkpt lat="44.80735" lon="5.89503">
        <ele>911.7</ele>
        <time>2023-09-28T12:04:05Z</time>
      </trkpt>
      <trkpt lat="44.80737" lon="5.89495">
        <ele>911.6</ele>
        <time>2023-09-28T12:04:06Z</time>
      </trkpt>
      <trkpt lat="44.80738" lon="5.89486">
        <ele>911.5</ele>
        <time>2023-09-28T12:04:07Z</time>
      </trkpt>
      <trkpt lat="44.8074" lon="5.89478">
        <ele>911.4</ele>
        <time>2023-09-28T12:04:08Z</time>
      </trkpt>
      <trkpt lat="44.80742" lon="5.8947">
        <ele>911.2</ele>
        <time>2023-09-28T12:04:09Z</time>
      </trkpt>
      <trkpt lat="44.80744" lon="5.89461">
        <ele>911.1</ele>
        <time>2023-09-28T12:04:10Z</time>
      </trkpt>
      <trkpt lat="44.80746" lon="5.89453">
        <ele>911</ele>
        <time>2023-09-28T12:04:11Z</time>
      </trkpt>
      <trkpt lat="44.80748" lon="5.89444">
        <ele>910.8</ele>
        <time>2023-09-28T12:04:12Z</time>
      </trkpt>
      <trkpt lat="44.8075" lon="5.89436">
        <ele>910.7</ele>
        <time>2023-09-28T12:04:13Z</time>
      </trkpt>
      <trkpt lat="44.80752" lon="5.89428">
        <ele>910.5</ele>
        <time>2023-09-28T12:04:14Z</time>
      </trkpt>
      <trkpt lat="44.80755" lon="5.8942">
        <ele>910.4</ele>
        <time>2023-09-28T12:04:15Z</time>
      </trkpt>
      <trkpt lat="44.80758" lon="5.89412">
        <ele>910.3</ele>
        <time>2023-09-28T12:04:16Z</time>
      </trkpt>
      <trkpt lat="44.8076" lon="5.89404">
        <ele>910.1</ele>
        <time>2023-09-28T12:04:17Z</time>
      </trkpt>
      <trkpt lat="44.80763" lon="5.89395">
        <ele>910</ele>
        <time>2023-09-28T12:04:18Z</time>
      </trkpt>
      <trkpt lat="44.80766" lon="5.89387">
        <ele>909.8</ele>
        <time>2023-09-28T12:04:19Z</time>
      </trkpt>
      <trkpt lat="44.80768" lon="5.89379">
        <ele>909.7</ele>
        <time>2023-09-28T12:04:20Z</time>
      </trkpt>
      <trkpt lat="44.80771" lon="5.8937">
        <ele>909.5</ele>
        <time>2023-09-28T12:04:21Z</time>
      </trkpt>
      <trkpt lat="44.80774" lon="5.89362">
        <ele>909.4</ele>
        <time>2023-09-28T12:04:22Z</time>
      </trkpt>
      <trkpt lat="44.80777" lon="5.89353">
        <ele>909.2</ele>
        <time>2023-09-28T12:04:23Z</time>
      </trkpt>
      <trkpt lat="44.80781" lon="5.89345">
        <ele>909.1</ele>
        <time>2023-09-28T12:04:24Z</time>
      </trkpt>
      <trkpt lat="44.80784" lon="5.89336">
        <ele>909</ele>
        <time>2023-09-28T12:04:25Z</time>
      </trkpt>
      <trkpt lat="44.80787" lon="5.89327">
        <ele>908.9</ele>
        <time>2023-09-28T12:04:26Z</time>
      </trkpt>
      <trkpt lat="44.8079" lon="5.89319">
        <ele>908.8</ele>
        <time>2023-09-28T12:04:27Z</time>
      </trkpt>
      <trkpt lat="44.80793" lon="5.8931">
        <ele>908.7</ele>
        <time>2023-09-28T12:04:28Z</time>
      </trkpt>
      <trkpt lat="44.80796" lon="5.89301">
        <ele>908.6</ele>
        <time>2023-09-28T12:04:29Z</time>
      </trkpt>
      <trkpt lat="44.80799" lon="5.89293">
        <ele>908.5</ele>
        <time>2023-09-28T12:04:30Z</time>
      </trkpt>
      <trkpt lat="44.80802" lon="5.89284">
        <ele>908.4</ele>
        <time>2023-09-28T12:04:31Z</time>
      </trkpt>
      <trkpt lat="44.80805" lon="5.89276">
        <ele>908.3</ele>
        <time>2023-09-28T12:04:32Z</time>
      </trkpt>
      <trkpt lat="44.80808" lon="5.89267">
        <ele>908.2</ele>
        <time>2023-09-28T12:04:33Z</time>
      </trkpt>
      <trkpt lat="44.80812" lon="5.89258">
        <ele>908.2</ele>
        <time>2023-09-28T12:04:34Z</time>
      </trkpt>
      <trkpt lat="44.80815" lon="5.89249">
        <ele>908.1</ele>
        <time>2023-09-28T12:04:35Z</time>
      </trkpt>
      <trkpt lat="44.80817" lon="5.89241">
        <ele>908.1</ele>
        <time>2023-09-28T12:04:36Z</time>
      </trkpt>
      <trkpt lat="44.80821" lon="5.89232">
        <ele>908.1</ele>
        <time>2023-09-28T12:04:37Z</time>
      </trkpt>
      <trkpt lat="44.80824" lon="5.89224">
        <ele>908.1</ele>
        <time>2023-09-28T12:04:38Z</time>
      </trkpt>
      <trkpt lat="44.80826" lon="5.89215">
        <ele>908.1</ele>
        <time>2023-09-28T12:04:39Z</time>
      </trkpt>
      <trkpt lat="44.80829" lon="5.89206">
        <ele>908.1</ele>
        <time>2023-09-28T12:04:40Z</time>
      </trkpt>
      <trkpt lat="44.80832" lon="5.89198">
        <ele>908.1</ele>
        <time>2023-09-28T12:04:41Z</time>
      </trkpt>
      <trkpt lat="44.80835" lon="5.8919">
        <ele>908.2</ele>
        <time>2023-09-28T12:04:42Z</time>
      </trkpt>
      <trkpt lat="44.80838" lon="5.89182">
        <ele>908.2</ele>
        <time>2023-09-28T12:04:43Z</time>
      </trkpt>
      <trkpt lat="44.80841" lon="5.89174">
        <ele>908.3</ele>
        <time>2023-09-28T12:04:44Z</time>
      </trkpt>
      <trkpt lat="44.80844" lon="5.89166">
        <ele>908.3</ele>
        <time>2023-09-28T12:04:45Z</time>
      </trkpt>
      <trkpt lat="44.80847" lon="5.89158">
        <ele>908.3</ele>
        <time>2023-09-28T12:04:46Z</time>
      </trkpt>
      <trkpt lat="44.8085" lon="5.8915">
        <ele>908.4</ele>
        <time>2023-09-28T12:04:47Z</time>
      </trkpt>
      <trkpt lat="44.80853" lon="5.89142">
        <ele>908.4</ele>
        <time>2023-09-28T12:04:48Z</time>
      </trkpt>
      <trkpt lat="44.80855" lon="5.89134">
        <ele>908.4</ele>
        <time>2023-09-28T12:04:49Z</time>
      </trkpt>
      <trkpt lat="44.80858" lon="5.89126">
        <ele>908.5</ele>
        <time>2023-09-28T12:04:50Z</time>
      </trkpt>
      <trkpt lat="44.80861" lon="5.89119">
        <ele>908.5</ele>
        <time>2023-09-28T12:04:51Z</time>
      </trkpt>
      <trkpt lat="44.80864" lon="5.89112">
        <ele>908.6</ele>
        <time>2023-09-28T12:04:52Z</time>
      </trkpt>
      <trkpt lat="44.80866" lon="5.89104">
        <ele>908.6</ele>
        <time>2023-09-28T12:04:53Z</time>
      </trkpt>
      <trkpt lat="44.80869" lon="5.89097">
        <ele>908.7</ele>
        <time>2023-09-28T12:04:54Z</time>
      </trkpt>
      <trkpt lat="44.80872" lon="5.89089">
        <ele>908.8</ele>
        <time>2023-09-28T12:04:55Z</time>
      </trkpt>
      <trkpt lat="44.80874" lon="5.89082">
        <ele>908.8</ele>
        <time>2023-09-28T12:04:56Z</time>
      </trkpt>
      <trkpt lat="44.80877" lon="5.89074">
        <ele>908.9</ele>
        <time>2023-09-28T12:04:57Z</time>
      </trkpt>
      <trkpt lat="44.8088" lon="5.89067">
        <ele>908.9</ele>
        <time>2023-09-28T12:04:58Z</time>
      </trkpt>
      <trkpt lat="44.80882" lon="5.89059">
        <ele>908.9</ele>
        <time>2023-09-28T12:04:59Z</time>
      </trkpt>
      <trkpt lat="44.80885" lon="5.89052">
        <ele>909</ele>
        <time>2023-09-28T12:05:00Z</time>
      </trkpt>
      <trkpt lat="44.80888" lon="5.89044">
        <ele>909</ele>
        <time>2023-09-28T12:05:01Z</time>
      </trkpt>
      <trkpt lat="44.8089" lon="5.89037">
        <ele>909</ele>
        <time>2023-09-28T12:05:02Z</time>
      </trkpt>
      <trkpt lat="44.80893" lon="5.89029">
        <ele>909.1</ele>
        <time>2023-09-28T12:05:03Z</time>
      </trkpt>
      <trkpt lat="44.80896" lon="5.89022">
        <ele>909.1</ele>
        <time>2023-09-28T12:05:04Z</time>
      </trkpt>
      <trkpt lat="44.80898" lon="5.89015">
        <ele>909</ele>
        <time>2023-09-28T12:05:05Z</time>
      </trkpt>
      <trkpt lat="44.80901" lon="5.89007">
        <ele>909</ele>
        <time>2023-09-28T12:05:06Z</time>
      </trkpt>
      <trkpt lat="44.80904" lon="5.89">
        <ele>909</ele>
        <time>2023-09-28T12:05:07Z</time>
      </trkpt>
      <trkpt lat="44.80906" lon="5.88992">
        <ele>909.1</ele>
        <time>2023-09-28T12:05:08Z</time>
      </trkpt>
      <trkpt lat="44.80909" lon="5.88985">
        <ele>909.1</ele>
        <time>2023-09-28T12:05:09Z</time>
      </trkpt>
      <trkpt lat="44.80912" lon="5.88977">
        <ele>909.1</ele>
        <time>2023-09-28T12:05:10Z</time>
      </trkpt>
      <trkpt lat="44.80914" lon="5.8897">
        <ele>909.1</ele>
        <time>2023-09-28T12:05:11Z</time>
      </trkpt>
      <trkpt lat="44.80917" lon="5.88962">
        <ele>909.1</ele>
        <time>2023-09-28T12:05:12Z</time>
      </trkpt>
      <trkpt lat="44.80919" lon="5.88955">
        <ele>909.1</ele>
        <time>2023-09-28T12:05:13Z</time>
      </trkpt>
      <trkpt lat="44.80922" lon="5.88947">
        <ele>909.1</ele>
        <time>2023-09-28T12:05:14Z</time>
      </trkpt>
      <trkpt lat="44.80924" lon="5.8894">
        <ele>909</ele>
        <time>2023-09-28T12:05:15Z</time>
      </trkpt>
      <trkpt lat="44.80927" lon="5.88932">
        <ele>909</ele>
        <time>2023-09-28T12:05:16Z</time>
      </trkpt>
      <trkpt lat="44.80929" lon="5.88925">
        <ele>909</ele>
        <time>2023-09-28T12:05:17Z</time>
      </trkpt>
      <trkpt lat="44.80932" lon="5.88917">
        <ele>909</ele>
        <time>2023-09-28T12:05:18Z</time>
      </trkpt>
      <trkpt lat="44.80935" lon="5.8891">
        <ele>909</ele>
        <time>2023-09-28T12:05:19Z</time>
      </trkpt>
      <trkpt lat="44.80937" lon="5.88902">
        <ele>908.9</ele>
        <time>2023-09-28T12:05:20Z</time>
      </trkpt>
      <trkpt lat="44.8094" lon="5.88895">
        <ele>908.9</ele>
        <time>2023-09-28T12:05:21Z</time>
      </trkpt>
      <trkpt lat="44.80943" lon="5.88887">
        <ele>908.8</ele>
        <time>2023-09-28T12:05:22Z</time>
      </trkpt>
      <trkpt lat="44.80945" lon="5.8888">
        <ele>908.8</ele>
        <time>2023-09-28T12:05:23Z</time>
      </trkpt>
      <trkpt lat="44.80948" lon="5.88873">
        <ele>908.8</ele>
        <time>2023-09-28T12:05:24Z</time>
      </trkpt>
      <trkpt lat="44.80951" lon="5.88865">
        <ele>908.7</ele>
        <time>2023-09-28T12:05:25Z</time>
      </trkpt>
      <trkpt lat="44.80954" lon="5.88857">
        <ele>908.7</ele>
        <time>2023-09-28T12:05:26Z</time>
      </trkpt>
      <trkpt lat="44.80956" lon="5.88849">
        <ele>908.6</ele>
        <time>2023-09-28T12:05:27Z</time>
      </trkpt>
      <trkpt lat="44.80959" lon="5.88842">
        <ele>908.6</ele>
        <time>2023-09-28T12:05:28Z</time>
      </trkpt>
      <trkpt lat="44.80961" lon="5.88834">
        <ele>908.5</ele>
        <time>2023-09-28T12:05:29Z</time>
      </trkpt>
      <trkpt lat="44.80964" lon="5.88826">
        <ele>908.5</ele>
        <time>2023-09-28T12:05:30Z</time>
      </trkpt>
      <trkpt lat="44.80967" lon="5.88818">
        <ele>908.5</ele>
        <time>2023-09-28T12:05:31Z</time>
      </trkpt>
      <trkpt lat="44.80969" lon="5.88811">
        <ele>908.4</ele>
        <time>2023-09-28T12:05:32Z</time>
      </trkpt>
      <trkpt lat="44.80972" lon="5.88803">
        <ele>908.4</ele>
        <time>2023-09-28T12:05:33Z</time>
      </trkpt>
      <trkpt lat="44.80975" lon="5.88795">
        <ele>908.3</ele>
        <time>2023-09-28T12:05:34Z</time>
      </trkpt>
      <trkpt lat="44.80978" lon="5.88787">
        <ele>908.3</ele>
        <time>2023-09-28T12:05:35Z</time>
      </trkpt>
      <trkpt lat="44.80981" lon="5.88779">
        <ele>908.2</ele>
        <time>2023-09-28T12:05:36Z</time>
      </trkpt>
      <trkpt lat="44.80983" lon="5.88771">
        <ele>908.2</ele>
        <time>2023-09-28T12:05:37Z</time>
      </trkpt>
      <trkpt lat="44.80986" lon="5.88762">
        <ele>908.1</ele>
        <time>2023-09-28T12:05:38Z</time>
      </trkpt>
      <trkpt lat="44.80989" lon="5.88754">
        <ele>908.1</ele>
        <time>2023-09-28T12:05:39Z</time>
      </trkpt>
      <trkpt lat="44.80992" lon="5.88746">
        <ele>908.1</ele>
        <time>2023-09-28T12:05:40Z</time>
      </trkpt>
      <trkpt lat="44.80995" lon="5.88738">
        <ele>908</ele>
        <time>2023-09-28T12:05:41Z</time>
      </trkpt>
      <trkpt lat="44.80997" lon="5.8873">
        <ele>908</ele>
        <time>2023-09-28T12:05:42Z</time>
      </trkpt>
      <trkpt lat="44.81" lon="5.88722">
        <ele>907.9</ele>
        <time>2023-09-28T12:05:43Z</time>
      </trkpt>
      <trkpt lat="44.81003" lon="5.88713">
        <ele>907.9</ele>
        <time>2023-09-28T12:05:44Z</time>
      </trkpt>
      <trkpt lat="44.81006" lon="5.88705">
        <ele>907.9</ele>
        <time>2023-09-28T12:05:45Z</time>
      </trkpt>
      <trkpt lat="44.81008" lon="5.88697">
        <ele>907.8</ele>
        <time>2023-09-28T12:05:46Z</time>
      </trkpt>
      <trkpt lat="44.81011" lon="5.88689">
        <ele>907.8</ele>
        <time>2023-09-28T12:05:47Z</time>
      </trkpt>
      <trkpt lat="44.81014" lon="5.88681">
        <ele>907.8</ele>
        <time>2023-09-28T12:05:48Z</time>
      </trkpt>
      <trkpt lat="44.81016" lon="5.88673">
        <ele>907.8</ele>
        <time>2023-09-28T12:05:49Z</time>
      </trkpt>
      <trkpt lat="44.8102" lon="5.88665">
        <ele>907.7</ele>
        <time>2023-09-28T12:05:50Z</time>
      </trkpt>
      <trkpt lat="44.81023" lon="5.88657">
        <ele>907.7</ele>
        <time>2023-09-28T12:05:51Z</time>
      </trkpt>
      <trkpt lat="44.81027" lon="5.8865">
        <ele>907.6</ele>
        <time>2023-09-28T12:05:52Z</time>
      </trkpt>
      <trkpt lat="44.81031" lon="5.88643">
        <ele>907.6</ele>
        <time>2023-09-28T12:05:53Z</time>
      </trkpt>
      <trkpt lat="44.81035" lon="5.88636">
        <ele>907.6</ele>
        <time>2023-09-28T12:05:54Z</time>
      </trkpt>
      <trkpt lat="44.81038" lon="5.88629">
        <ele>907.5</ele>
        <time>2023-09-28T12:05:55Z</time>
      </trkpt>
      <trkpt lat="44.81042" lon="5.88623">
        <ele>907.5</ele>
        <time>2023-09-28T12:05:56Z</time>
      </trkpt>
      <trkpt lat="44.81046" lon="5.88616">
        <ele>907.5</ele>
        <time>2023-09-28T12:05:57Z</time>
      </trkpt>
      <trkpt lat="44.8105" lon="5.88609">
        <ele>907.5</ele>
        <time>2023-09-28T12:05:58Z</time>
      </trkpt>
      <trkpt lat="44.81054" lon="5.88602">
        <ele>907.5</ele>
        <time>2023-09-28T12:05:59Z</time>
      </trkpt>
      <trkpt lat="44.81058" lon="5.88596">
        <ele>907.5</ele>
        <time>2023-09-28T12:06:00Z</time>
      </trkpt>
      <trkpt lat="44.81062" lon="5.88589">
        <ele>907.4</ele>
        <time>2023-09-28T12:06:01Z</time>
      </trkpt>
      <trkpt lat="44.81066" lon="5.88583">
        <ele>907.4</ele>
        <time>2023-09-28T12:06:02Z</time>
      </trkpt>
      <trkpt lat="44.8107" lon="5.88576">
        <ele>907.4</ele>
        <time>2023-09-28T12:06:03Z</time>
      </trkpt>
      <trkpt lat="44.81074" lon="5.88569">
        <ele>907.3</ele>
        <time>2023-09-28T12:06:04Z</time>
      </trkpt>
      <trkpt lat="44.81078" lon="5.88563">
        <ele>907.3</ele>
        <time>2023-09-28T12:06:05Z</time>
      </trkpt>
      <trkpt lat="44.81082" lon="5.88556">
        <ele>907.3</ele>
        <time>2023-09-28T12:06:06Z</time>
      </trkpt>
      <trkpt lat="44.81086" lon="5.8855">
        <ele>907.3</ele>
        <time>2023-09-28T12:06:07Z</time>
      </trkpt>
      <trkpt lat="44.81089" lon="5.88543">
        <ele>907.3</ele>
        <time>2023-09-28T12:06:08Z</time>
      </trkpt>
      <trkpt lat="44.81093" lon="5.88536">
        <ele>907.4</ele>
        <time>2023-09-28T12:06:09Z</time>
      </trkpt>
      <trkpt lat="44.81097" lon="5.8853">
        <ele>907.4</ele>
        <time>2023-09-28T12:06:10Z</time>
      </trkpt>
      <trkpt lat="44.81101" lon="5.88523">
        <ele>907.4</ele>
        <time>2023-09-28T12:06:11Z</time>
      </trkpt>
      <trkpt lat="44.81104" lon="5.88517">
        <ele>907.4</ele>
        <time>2023-09-28T12:06:12Z</time>
      </trkpt>
      <trkpt lat="44.81108" lon="5.8851">
        <ele>907.5</ele>
        <time>2023-09-28T12:06:13Z</time>
      </trkpt>
      <trkpt lat="44.81112" lon="5.88504">
        <ele>907.5</ele>
        <time>2023-09-28T12:06:14Z</time>
      </trkpt>
      <trkpt lat="44.81115" lon="5.88497">
        <ele>907.5</ele>
        <time>2023-09-28T12:06:15Z</time>
      </trkpt>
      <trkpt lat="44.81119" lon="5.88491">
        <ele>907.6</ele>
        <time>2023-09-28T12:06:16Z</time>
      </trkpt>
      <trkpt lat="44.81122" lon="5.88484">
        <ele>907.6</ele>
        <time>2023-09-28T12:06:17Z</time>
      </trkpt>
      <trkpt lat="44.81126" lon="5.88478">
        <ele>907.6</ele>
        <time>2023-09-28T12:06:18Z</time>
      </trkpt>
      <trkpt lat="44.81129" lon="5.88471">
        <ele>907.7</ele>
        <time>2023-09-28T12:06:19Z</time>
      </trkpt>
      <trkpt lat="44.81133" lon="5.88465">
        <ele>907.7</ele>
        <time>2023-09-28T12:06:20Z</time>
      </trkpt>
      <trkpt lat="44.81136" lon="5.88458">
        <ele>907.7</ele>
        <time>2023-09-28T12:06:21Z</time>
      </trkpt>
      <trkpt lat="44.81139" lon="5.88451">
        <ele>907.7</ele>
        <time>2023-09-28T12:06:22Z</time>
      </trkpt>
      <trkpt lat="44.81143" lon="5.88445">
        <ele>907.8</ele>
        <time>2023-09-28T12:06:23Z</time>
      </trkpt>
      <trkpt lat="44.81146" lon="5.88438">
        <ele>907.8</ele>
        <time>2023-09-28T12:06:24Z</time>
      </trkpt>
      <trkpt lat="44.81149" lon="5.88432">
        <ele>907.9</ele>
        <time>2023-09-28T12:06:25Z</time>
      </trkpt>
      <trkpt lat="44.81152" lon="5.88426">
        <ele>907.9</ele>
        <time>2023-09-28T12:06:26Z</time>
      </trkpt>
      <trkpt lat="44.81155" lon="5.88419">
        <ele>907.9</ele>
        <time>2023-09-28T12:06:27Z</time>
      </trkpt>
      <trkpt lat="44.81158" lon="5.88413">
        <ele>908</ele>
        <time>2023-09-28T12:06:28Z</time>
      </trkpt>
      <trkpt lat="44.81161" lon="5.88407">
        <ele>908</ele>
        <time>2023-09-28T12:06:29Z</time>
      </trkpt>
      <trkpt lat="44.81164" lon="5.884">
        <ele>908</ele>
        <time>2023-09-28T12:06:30Z</time>
      </trkpt>
      <trkpt lat="44.81167" lon="5.88394">
        <ele>908</ele>
        <time>2023-09-28T12:06:31Z</time>
      </trkpt>
      <trkpt lat="44.81169" lon="5.88387">
        <ele>908</ele>
        <time>2023-09-28T12:06:32Z</time>
      </trkpt>
      <trkpt lat="44.81172" lon="5.8838">
        <ele>908.1</ele>
        <time>2023-09-28T12:06:33Z</time>
      </trkpt>
      <trkpt lat="44.81174" lon="5.88374">
        <ele>908.1</ele>
        <time>2023-09-28T12:06:34Z</time>
      </trkpt>
      <trkpt lat="44.81176" lon="5.88367">
        <ele>908.1</ele>
        <time>2023-09-28T12:06:35Z</time>
      </trkpt>
      <trkpt lat="44.81178" lon="5.8836">
        <ele>908</ele>
        <time>2023-09-28T12:06:36Z</time>
      </trkpt>
      <trkpt lat="44.8118" lon="5.88353">
        <ele>908</ele>
        <time>2023-09-28T12:06:37Z</time>
      </trkpt>
      <trkpt lat="44.81182" lon="5.88346">
        <ele>908</ele>
        <time>2023-09-28T12:06:38Z</time>
      </trkpt>
      <trkpt lat="44.81184" lon="5.88339">
        <ele>908</ele>
        <time>2023-09-28T12:06:39Z</time>
      </trkpt>
      <trkpt lat="44.81185" lon="5.88331">
        <ele>908</ele>
        <time>2023-09-28T12:06:40Z</time>
      </trkpt>
      <trkpt lat="44.81187" lon="5.88324">
        <ele>908</ele>
        <time>2023-09-28T12:06:41Z</time>
      </trkpt>
      <trkpt lat="44.81189" lon="5.88316">
        <ele>908</ele>
        <time>2023-09-28T12:06:42Z</time>
      </trkpt>
      <trkpt lat="44.81191" lon="5.88309">
        <ele>908</ele>
        <time>2023-09-28T12:06:43Z</time>
      </trkpt>
      <trkpt lat="44.81193" lon="5.88301">
        <ele>908</ele>
        <time>2023-09-28T12:06:44Z</time>
      </trkpt>
      <trkpt lat="44.81195" lon="5.88294">
        <ele>907.9</ele>
        <time>2023-09-28T12:06:45Z</time>
      </trkpt>
      <trkpt lat="44.81198" lon="5.88287">
        <ele>907.9</ele>
        <time>2023-09-28T12:06:46Z</time>
      </trkpt>
      <trkpt lat="44.812" lon="5.88279">
        <ele>907.9</ele>
        <time>2023-09-28T12:06:47Z</time>
      </trkpt>
      <trkpt lat="44.81202" lon="5.88271">
        <ele>907.8</ele>
        <time>2023-09-28T12:06:48Z</time>
      </trkpt>
      <trkpt lat="44.81204" lon="5.88263">
        <ele>907.8</ele>
        <time>2023-09-28T12:06:49Z</time>
      </trkpt>
      <trkpt lat="44.81205" lon="5.88255">
        <ele>907.8</ele>
        <time>2023-09-28T12:06:50Z</time>
      </trkpt>
      <trkpt lat="44.81207" lon="5.88247">
        <ele>907.9</ele>
        <time>2023-09-28T12:06:51Z</time>
      </trkpt>
      <trkpt lat="44.81209" lon="5.88239">
        <ele>907.9</ele>
        <time>2023-09-28T12:06:52Z</time>
      </trkpt>
      <trkpt lat="44.81211" lon="5.88232">
        <ele>907.9</ele>
        <time>2023-09-28T12:06:53Z</time>
      </trkpt>
      <trkpt lat="44.81212" lon="5.88224">
        <ele>908</ele>
        <time>2023-09-28T12:06:54Z</time>
      </trkpt>
      <trkpt lat="44.81214" lon="5.88216">
        <ele>908</ele>
        <time>2023-09-28T12:06:55Z</time>
      </trkpt>
      <trkpt lat="44.81216" lon="5.88209">
        <ele>908</ele>
        <time>2023-09-28T12:06:56Z</time>
      </trkpt>
      <trkpt lat="44.81218" lon="5.88201">
        <ele>908.1</ele>
        <time>2023-09-28T12:06:57Z</time>
      </trkpt>
      <trkpt lat="44.8122" lon="5.88193">
        <ele>908.1</ele>
        <time>2023-09-28T12:06:58Z</time>
      </trkpt>
      <trkpt lat="44.81222" lon="5.88186">
        <ele>908.1</ele>
        <time>2023-09-28T12:06:59Z</time>
      </trkpt>
      <trkpt lat="44.81223" lon="5.88178">
        <ele>908.1</ele>
        <time>2023-09-28T12:07:00Z</time>
      </trkpt>
      <trkpt lat="44.81225" lon="5.8817">
        <ele>908.2</ele>
        <time>2023-09-28T12:07:01Z</time>
      </trkpt>
      <trkpt lat="44.81226" lon="5.88162">
        <ele>908.2</ele>
        <time>2023-09-28T12:07:02Z</time>
      </trkpt>
      <trkpt lat="44.81226" lon="5.88154">
        <ele>908.2</ele>
        <time>2023-09-28T12:07:03Z</time>
      </trkpt>
      <trkpt lat="44.81226" lon="5.88146">
        <ele>908.2</ele>
        <time>2023-09-28T12:07:04Z</time>
      </trkpt>
      <trkpt lat="44.81226" lon="5.88138">
        <ele>908.2</ele>
        <time>2023-09-28T12:07:05Z</time>
      </trkpt>
      <trkpt lat="44.81225" lon="5.8813">
        <ele>908.3</ele>
        <time>2023-09-28T12:07:06Z</time>
      </trkpt>
      <trkpt lat="44.81223" lon="5.88123">
        <ele>908.3</ele>
        <time>2023-09-28T12:07:07Z</time>
      </trkpt>
      <trkpt lat="44.81221" lon="5.88116">
        <ele>908.3</ele>
        <time>2023-09-28T12:07:08Z</time>
      </trkpt>
      <trkpt lat="44.81218" lon="5.88109">
        <ele>908.3</ele>
        <time>2023-09-28T12:07:09Z</time>
      </trkpt>
      <trkpt lat="44.81215" lon="5.88102">
        <ele>908.3</ele>
        <time>2023-09-28T12:07:10Z</time>
      </trkpt>
      <trkpt lat="44.81212" lon="5.88096">
        <ele>908.3</ele>
        <time>2023-09-28T12:07:11Z</time>
      </trkpt>
      <trkpt lat="44.81209" lon="5.8809">
        <ele>908.3</ele>
        <time>2023-09-28T12:07:12Z</time>
      </trkpt>
      <trkpt lat="44.81205" lon="5.88084">
        <ele>908.3</ele>
        <time>2023-09-28T12:07:13Z</time>
      </trkpt>
      <trkpt lat="44.81202" lon="5.88077">
        <ele>908.3</ele>
        <time>2023-09-28T12:07:14Z</time>
      </trkpt>
      <trkpt lat="44.81199" lon="5.88071">
        <ele>908.3</ele>
        <time>2023-09-28T12:07:15Z</time>
      </trkpt>
      <trkpt lat="44.81196" lon="5.88065">
        <ele>908.3</ele>
        <time>2023-09-28T12:07:16Z</time>
      </trkpt>
      <trkpt lat="44.81193" lon="5.88059">
        <ele>908.3</ele>
        <time>2023-09-28T12:07:17Z</time>
      </trkpt>
      <trkpt lat="44.81191" lon="5.88052">
        <ele>908.3</ele>
        <time>2023-09-28T12:07:18Z</time>
      </trkpt>
      <trkpt lat="44.81188" lon="5.88046">
        <ele>908.2</ele>
        <time>2023-09-28T12:07:19Z</time>
      </trkpt>
      <trkpt lat="44.81186" lon="5.88038">
        <ele>908.1</ele>
        <time>2023-09-28T12:07:20Z</time>
      </trkpt>
      <trkpt lat="44.81183" lon="5.88031">
        <ele>908</ele>
        <time>2023-09-28T12:07:21Z</time>
      </trkpt>
      <trkpt lat="44.8118" lon="5.88024">
        <ele>907.9</ele>
        <time>2023-09-28T12:07:22Z</time>
      </trkpt>
      <trkpt lat="44.81177" lon="5.88017">
        <ele>907.8</ele>
        <time>2023-09-28T12:07:23Z</time>
      </trkpt>
      <trkpt lat="44.81173" lon="5.8801">
        <ele>907.7</ele>
        <time>2023-09-28T12:07:24Z</time>
      </trkpt>
      <trkpt lat="44.8117" lon="5.88004">
        <ele>907.6</ele>
        <time>2023-09-28T12:07:25Z</time>
      </trkpt>
      <trkpt lat="44.81166" lon="5.87997">
        <ele>907.5</ele>
        <time>2023-09-28T12:07:26Z</time>
      </trkpt>
      <trkpt lat="44.81163" lon="5.8799">
        <ele>907.4</ele>
        <time>2023-09-28T12:07:27Z</time>
      </trkpt>
      <trkpt lat="44.8116" lon="5.87983">
        <ele>907.3</ele>
        <time>2023-09-28T12:07:28Z</time>
      </trkpt>
      <trkpt lat="44.81157" lon="5.87975">
        <ele>907.2</ele>
        <time>2023-09-28T12:07:29Z</time>
      </trkpt>
      <trkpt lat="44.81154" lon="5.87968">
        <ele>907.1</ele>
        <time>2023-09-28T12:07:30Z</time>
      </trkpt>
      <trkpt lat="44.8115" lon="5.8796">
        <ele>907</ele>
        <time>2023-09-28T12:07:31Z</time>
      </trkpt>
      <trkpt lat="44.81147" lon="5.87953">
        <ele>906.9</ele>
        <time>2023-09-28T12:07:32Z</time>
      </trkpt>
      <trkpt lat="44.81143" lon="5.87945">
        <ele>906.8</ele>
        <time>2023-09-28T12:07:33Z</time>
      </trkpt>
      <trkpt lat="44.8114" lon="5.87938">
        <ele>906.7</ele>
        <time>2023-09-28T12:07:34Z</time>
      </trkpt>
      <trkpt lat="44.81137" lon="5.87931">
        <ele>906.6</ele>
        <time>2023-09-28T12:07:35Z</time>
      </trkpt>
      <trkpt lat="44.81133" lon="5.87924">
        <ele>906.4</ele>
        <time>2023-09-28T12:07:36Z</time>
      </trkpt>
      <trkpt lat="44.8113" lon="5.87916">
        <ele>906.3</ele>
        <time>2023-09-28T12:07:37Z</time>
      </trkpt>
      <trkpt lat="44.81126" lon="5.87909">
        <ele>906.2</ele>
        <time>2023-09-28T12:07:38Z</time>
      </trkpt>
      <trkpt lat="44.81123" lon="5.87901">
        <ele>906</ele>
        <time>2023-09-28T12:07:39Z</time>
      </trkpt>
      <trkpt lat="44.81119" lon="5.87894">
        <ele>905.9</ele>
        <time>2023-09-28T12:07:40Z</time>
      </trkpt>
      <trkpt lat="44.81115" lon="5.87886">
        <ele>905.7</ele>
        <time>2023-09-28T12:07:41Z</time>
      </trkpt>
      <trkpt lat="44.81111" lon="5.87878">
        <ele>905.6</ele>
        <time>2023-09-28T12:07:42Z</time>
      </trkpt>
      <trkpt lat="44.81107" lon="5.8787">
        <ele>905.5</ele>
        <time>2023-09-28T12:07:43Z</time>
      </trkpt>
      <trkpt lat="44.81103" lon="5.87862">
        <ele>905.4</ele>
        <time>2023-09-28T12:07:44Z</time>
      </trkpt>
      <trkpt lat="44.81099" lon="5.87854">
        <ele>905.3</ele>
        <time>2023-09-28T12:07:45Z</time>
      </trkpt>
      <trkpt lat="44.81095" lon="5.87844">
        <ele>905.2</ele>
        <time>2023-09-28T12:07:46Z</time>
      </trkpt>
      <trkpt lat="44.81091" lon="5.87836">
        <ele>905.2</ele>
        <time>2023-09-28T12:07:47Z</time>
      </trkpt>
      <trkpt lat="44.81088" lon="5.87828">
        <ele>905.1</ele>
        <time>2023-09-28T12:07:48Z</time>
      </trkpt>
      <trkpt lat="44.81084" lon="5.87818">
        <ele>905.1</ele>
        <time>2023-09-28T12:07:49Z</time>
      </trkpt>
      <trkpt lat="44.81082" lon="5.87808">
        <ele>905</ele>
        <time>2023-09-28T12:07:50Z</time>
      </trkpt>
      <trkpt lat="44.8108" lon="5.87797">
        <ele>905</ele>
        <time>2023-09-28T12:07:51Z</time>
      </trkpt>
      <trkpt lat="44.8108" lon="5.87788">
        <ele>905.1</ele>
        <time>2023-09-28T12:07:52Z</time>
      </trkpt>
      <trkpt lat="44.8108" lon="5.87778">
        <ele>905.1</ele>
        <time>2023-09-28T12:07:53Z</time>
      </trkpt>
      <trkpt lat="44.81081" lon="5.87769">
        <ele>905.2</ele>
        <time>2023-09-28T12:07:54Z</time>
      </trkpt>
      <trkpt lat="44.81082" lon="5.87759">
        <ele>905.4</ele>
        <time>2023-09-28T12:07:55Z</time>
      </trkpt>
      <trkpt lat="44.81082" lon="5.87751">
        <ele>905.5</ele>
        <time>2023-09-28T12:07:56Z</time>
      </trkpt>
      <trkpt lat="44.81083" lon="5.87742">
        <ele>905.6</ele>
        <time>2023-09-28T12:07:57Z</time>
      </trkpt>
      <trkpt lat="44.81083" lon="5.87733">
        <ele>905.8</ele>
        <time>2023-09-28T12:07:58Z</time>
      </trkpt>
      <trkpt lat="44.81083" lon="5.87725">
        <ele>906</ele>
        <time>2023-09-28T12:07:59Z</time>
      </trkpt>
      <trkpt lat="44.81083" lon="5.87718">
        <ele>906.1</ele>
        <time>2023-09-28T12:08:00Z</time>
      </trkpt>
      <trkpt lat="44.81084" lon="5.8771">
        <ele>906.2</ele>
        <time>2023-09-28T12:08:01Z</time>
      </trkpt>
      <trkpt lat="44.81084" lon="5.87703">
        <ele>906.3</ele>
        <time>2023-09-28T12:08:02Z</time>
      </trkpt>
      <trkpt lat="44.81085" lon="5.87695">
        <ele>906.4</ele>
        <time>2023-09-28T12:08:03Z</time>
      </trkpt>
      <trkpt lat="44.81086" lon="5.87688">
        <ele>906.5</ele>
        <time>2023-09-28T12:08:04Z</time>
      </trkpt>
      <trkpt lat="44.81086" lon="5.87681">
        <ele>906.5</ele>
        <time>2023-09-28T12:08:05Z</time>
      </trkpt>
      <trkpt lat="44.81087" lon="5.87674">
        <ele>906.4</ele>
        <time>2023-09-28T12:08:06Z</time>
      </trkpt>
      <trkpt lat="44.81088" lon="5.87666">
        <ele>906.4</ele>
        <time>2023-09-28T12:08:07Z</time>
      </trkpt>
      <trkpt lat="44.81088" lon="5.87657">
        <ele>906.3</ele>
        <time>2023-09-28T12:08:08Z</time>
      </trkpt>
      <trkpt lat="44.81089" lon="5.87649">
        <ele>906.2</ele>
        <time>2023-09-28T12:08:09Z</time>
      </trkpt>
      <trkpt lat="44.8109" lon="5.87641">
        <ele>906.2</ele>
        <time>2023-09-28T12:08:10Z</time>
      </trkpt>
      <trkpt lat="44.81091" lon="5.87632">
        <ele>906.1</ele>
        <time>2023-09-28T12:08:11Z</time>
      </trkpt>
      <trkpt lat="44.8109" lon="5.87623">
        <ele>906</ele>
        <time>2023-09-28T12:08:12Z</time>
      </trkpt>
      <trkpt lat="44.8109" lon="5.87614">
        <ele>905.9</ele>
        <time>2023-09-28T12:08:13Z</time>
      </trkpt>
      <trkpt lat="44.81089" lon="5.87605">
        <ele>905.8</ele>
        <time>2023-09-28T12:08:14Z</time>
      </trkpt>
      <trkpt lat="44.81088" lon="5.87596">
        <ele>905.7</ele>
        <time>2023-09-28T12:08:15Z</time>
      </trkpt>
      <trkpt lat="44.81088" lon="5.87587">
        <ele>905.5</ele>
        <time>2023-09-28T12:08:16Z</time>
      </trkpt>
      <trkpt lat="44.81087" lon="5.87577">
        <ele>905.4</ele>
        <time>2023-09-28T12:08:17Z</time>
      </trkpt>
      <trkpt lat="44.81087" lon="5.87567">
        <ele>905.3</ele>
        <time>2023-09-28T12:08:18Z</time>
      </trkpt>
      <trkpt lat="44.81086" lon="5.87557">
        <ele>905.2</ele>
        <time>2023-09-28T12:08:19Z</time>
      </trkpt>
      <trkpt lat="44.81086" lon="5.87547">
        <ele>905</ele>
        <time>2023-09-28T12:08:20Z</time>
      </trkpt>
      <trkpt lat="44.81086" lon="5.87537">
        <ele>904.8</ele>
        <time>2023-09-28T12:08:21Z</time>
      </trkpt>
      <trkpt lat="44.81087" lon="5.87527">
        <ele>904.5</ele>
        <time>2023-09-28T12:08:22Z</time>
      </trkpt>
      <trkpt lat="44.81087" lon="5.87516">
        <ele>904.2</ele>
        <time>2023-09-28T12:08:23Z</time>
      </trkpt>
      <trkpt lat="44.81087" lon="5.87506">
        <ele>903.9</ele>
        <time>2023-09-28T12:08:24Z</time>
      </trkpt>
      <trkpt lat="44.81087" lon="5.87495">
        <ele>903.6</ele>
        <time>2023-09-28T12:08:25Z</time>
      </trkpt>
      <trkpt lat="44.81087" lon="5.87485">
        <ele>903.4</ele>
        <time>2023-09-28T12:08:26Z</time>
      </trkpt>
      <trkpt lat="44.81087" lon="5.87474">
        <ele>903.1</ele>
        <time>2023-09-28T12:08:27Z</time>
      </trkpt>
      <trkpt lat="44.81087" lon="5.87463">
        <ele>902.8</ele>
        <time>2023-09-28T12:08:28Z</time>
      </trkpt>
      <trkpt lat="44.81087" lon="5.87451">
        <ele>902.4</ele>
        <time>2023-09-28T12:08:29Z</time>
      </trkpt>
      <trkpt lat="44.81086" lon="5.8744">
        <ele>902.1</ele>
        <time>2023-09-28T12:08:30Z</time>
      </trkpt>
      <trkpt lat="44.81086" lon="5.87428">
        <ele>901.7</ele>
        <time>2023-09-28T12:08:31Z</time>
      </trkpt>
      <trkpt lat="44.81086" lon="5.87416">
        <ele>901.4</ele>
        <time>2023-09-28T12:08:32Z</time>
      </trkpt>
      <trkpt lat="44.81086" lon="5.87405">
        <ele>901</ele>
        <time>2023-09-28T12:08:33Z</time>
      </trkpt>
      <trkpt lat="44.81085" lon="5.87393">
        <ele>900.6</ele>
        <time>2023-09-28T12:08:34Z</time>
      </trkpt>
      <trkpt lat="44.81085" lon="5.87381">
        <ele>900.3</ele>
        <time>2023-09-28T12:08:35Z</time>
      </trkpt>
      <trkpt lat="44.81085" lon="5.87369">
        <ele>899.9</ele>
        <time>2023-09-28T12:08:36Z</time>
      </trkpt>
      <trkpt lat="44.81084" lon="5.87358">
        <ele>899.5</ele>
        <time>2023-09-28T12:08:37Z</time>
      </trkpt>
      <trkpt lat="44.81084" lon="5.87345">
        <ele>899.1</ele>
        <time>2023-09-28T12:08:38Z</time>
      </trkpt>
      <trkpt lat="44.81084" lon="5.87332">
        <ele>898.8</ele>
        <time>2023-09-28T12:08:39Z</time>
      </trkpt>
      <trkpt lat="44.81083" lon="5.8732">
        <ele>898.4</ele>
        <time>2023-09-28T12:08:40Z</time>
      </trkpt>
      <trkpt lat="44.81081" lon="5.87308">
        <ele>898.1</ele>
        <time>2023-09-28T12:08:41Z</time>
      </trkpt>
      <trkpt lat="44.81079" lon="5.87295">
        <ele>897.7</ele>
        <time>2023-09-28T12:08:42Z</time>
      </trkpt>
      <trkpt lat="44.81075" lon="5.87284">
        <ele>897.3</ele>
        <time>2023-09-28T12:08:43Z</time>
      </trkpt>
      <trkpt lat="44.8107" lon="5.87274">
        <ele>897</ele>
        <time>2023-09-28T12:08:44Z</time>
      </trkpt>
      <trkpt lat="44.81063" lon="5.87265">
        <ele>896.6</ele>
        <time>2023-09-28T12:08:45Z</time>
      </trkpt>
      <trkpt lat="44.81056" lon="5.87257">
        <ele>896.2</ele>
        <time>2023-09-28T12:08:46Z</time>
      </trkpt>
      <trkpt lat="44.81049" lon="5.87248">
        <ele>895.8</ele>
        <time>2023-09-28T12:08:47Z</time>
      </trkpt>
      <trkpt lat="44.81042" lon="5.87241">
        <ele>895.4</ele>
        <time>2023-09-28T12:08:48Z</time>
      </trkpt>
      <trkpt lat="44.81034" lon="5.87234">
        <ele>895</ele>
        <time>2023-09-28T12:08:49Z</time>
      </trkpt>
      <trkpt lat="44.81026" lon="5.87227">
        <ele>894.6</ele>
        <time>2023-09-28T12:08:50Z</time>
      </trkpt>
      <trkpt lat="44.81018" lon="5.87221">
        <ele>894.2</ele>
        <time>2023-09-28T12:08:51Z</time>
      </trkpt>
      <trkpt lat="44.8101" lon="5.87215">
        <ele>893.9</ele>
        <time>2023-09-28T12:08:52Z</time>
      </trkpt>
      <trkpt lat="44.81003" lon="5.87209">
        <ele>893.6</ele>
        <time>2023-09-28T12:08:53Z</time>
      </trkpt>
      <trkpt lat="44.80995" lon="5.87201">
        <ele>893.2</ele>
        <time>2023-09-28T12:08:54Z</time>
      </trkpt>
      <trkpt lat="44.80988" lon="5.87193">
        <ele>892.9</ele>
        <time>2023-09-28T12:08:55Z</time>
      </trkpt>
      <trkpt lat="44.80981" lon="5.87185">
        <ele>892.5</ele>
        <time>2023-09-28T12:08:56Z</time>
      </trkpt>
      <trkpt lat="44.80975" lon="5.87176">
        <ele>892.2</ele>
        <time>2023-09-28T12:08:57Z</time>
      </trkpt>
      <trkpt lat="44.8097" lon="5.87167">
        <ele>891.8</ele>
        <time>2023-09-28T12:08:58Z</time>
      </trkpt>
      <trkpt lat="44.80964" lon="5.87157">
        <ele>891.4</ele>
        <time>2023-09-28T12:08:59Z</time>
      </trkpt>
      <trkpt lat="44.80958" lon="5.87145">
        <ele>891</ele>
        <time>2023-09-28T12:09:00Z</time>
      </trkpt>
      <trkpt lat="44.80953" lon="5.87134">
        <ele>890.6</ele>
        <time>2023-09-28T12:09:01Z</time>
      </trkpt>
      <trkpt lat="44.80946" lon="5.87124">
        <ele>890.2</ele>
        <time>2023-09-28T12:09:02Z</time>
      </trkpt>
      <trkpt lat="44.80939" lon="5.87114">
        <ele>889.7</ele>
        <time>2023-09-28T12:09:03Z</time>
      </trkpt>
      <trkpt lat="44.80932" lon="5.87105">
        <ele>889.3</ele>
        <time>2023-09-28T12:09:04Z</time>
      </trkpt>
      <trkpt lat="44.80924" lon="5.87097">
        <ele>888.8</ele>
        <time>2023-09-28T12:09:05Z</time>
      </trkpt>
      <trkpt lat="44.80916" lon="5.87092">
        <ele>888.5</ele>
        <time>2023-09-28T12:09:06Z</time>
      </trkpt>
      <trkpt lat="44.80907" lon="5.87085">
        <ele>888</ele>
        <time>2023-09-28T12:09:07Z</time>
      </trkpt>
      <trkpt lat="44.80899" lon="5.87078">
        <ele>887.6</ele>
        <time>2023-09-28T12:09:08Z</time>
      </trkpt>
      <trkpt lat="44.80892" lon="5.87069">
        <ele>887.2</ele>
        <time>2023-09-28T12:09:09Z</time>
      </trkpt>
      <trkpt lat="44.80884" lon="5.8706">
        <ele>886.8</ele>
        <time>2023-09-28T12:09:10Z</time>
      </trkpt>
      <trkpt lat="44.80875" lon="5.87052">
        <ele>886.4</ele>
        <time>2023-09-28T12:09:11Z</time>
      </trkpt>
      <trkpt lat="44.80867" lon="5.87046">
        <ele>886</ele>
        <time>2023-09-28T12:09:12Z</time>
      </trkpt>
      <trkpt lat="44.80857" lon="5.87041">
        <ele>885.6</ele>
        <time>2023-09-28T12:09:13Z</time>
      </trkpt>
      <trkpt lat="44.80847" lon="5.87038">
        <ele>885.1</ele>
        <time>2023-09-28T12:09:14Z</time>
      </trkpt>
      <trkpt lat="44.80837" lon="5.87036">
        <ele>884.6</ele>
        <time>2023-09-28T12:09:15Z</time>
      </trkpt>
      <trkpt lat="44.80827" lon="5.87035">
        <ele>884.1</ele>
        <time>2023-09-28T12:09:16Z</time>
      </trkpt>
      <trkpt lat="44.80818" lon="5.87035">
        <ele>883.6</ele>
        <time>2023-09-28T12:09:17Z</time>
      </trkpt>
      <trkpt lat="44.80808" lon="5.87036">
        <ele>883.1</ele>
        <time>2023-09-28T12:09:18Z</time>
      </trkpt>
      <trkpt lat="44.80798" lon="5.87036">
        <ele>882.7</ele>
        <time>2023-09-28T12:09:19Z</time>
      </trkpt>
      <trkpt lat="44.80788" lon="5.87036">
        <ele>882.3</ele>
        <time>2023-09-28T12:09:20Z</time>
      </trkpt>
      <trkpt lat="44.80778" lon="5.87035">
        <ele>881.9</ele>
        <time>2023-09-28T12:09:21Z</time>
      </trkpt>
      <trkpt lat="44.80768" lon="5.87033">
        <ele>881.4</ele>
        <time>2023-09-28T12:09:22Z</time>
      </trkpt>
      <trkpt lat="44.80758" lon="5.87031">
        <ele>880.9</ele>
        <time>2023-09-28T12:09:23Z</time>
      </trkpt>
      <trkpt lat="44.80748" lon="5.8703">
        <ele>880.3</ele>
        <time>2023-09-28T12:09:24Z</time>
      </trkpt>
      <trkpt lat="44.80738" lon="5.87029">
        <ele>879.8</ele>
        <time>2023-09-28T12:09:25Z</time>
      </trkpt>
      <trkpt lat="44.80728" lon="5.87031">
        <ele>879.2</ele>
        <time>2023-09-28T12:09:26Z</time>
      </trkpt>
      <trkpt lat="44.80718" lon="5.87032">
        <ele>878.8</ele>
        <time>2023-09-28T12:09:27Z</time>
      </trkpt>
      <trkpt lat="44.80708" lon="5.87029">
        <ele>878.4</ele>
        <time>2023-09-28T12:09:28Z</time>
      </trkpt>
      <trkpt lat="44.80698" lon="5.87023">
        <ele>878.2</ele>
        <time>2023-09-28T12:09:29Z</time>
      </trkpt>
      <trkpt lat="44.80689" lon="5.87017">
        <ele>878.1</ele>
        <time>2023-09-28T12:09:30Z</time>
      </trkpt>
      <trkpt lat="44.80682" lon="5.87008">
        <ele>878.2</ele>
        <time>2023-09-28T12:09:31Z</time>
      </trkpt>
      <trkpt lat="44.80677" lon="5.86999">
        <ele>878.3</ele>
        <time>2023-09-28T12:09:32Z</time>
      </trkpt>
      <trkpt lat="44.80674" lon="5.86988">
        <ele>878.5</ele>
        <time>2023-09-28T12:09:33Z</time>
      </trkpt>
      <trkpt lat="44.80675" lon="5.86976">
        <ele>878.7</ele>
        <time>2023-09-28T12:09:34Z</time>
      </trkpt>
      <trkpt lat="44.80679" lon="5.86966">
        <ele>878.5</ele>
        <time>2023-09-28T12:09:35Z</time>
      </trkpt>
      <trkpt lat="44.80684" lon="5.8696">
        <ele>878.2</ele>
        <time>2023-09-28T12:09:36Z</time>
      </trkpt>
      <trkpt lat="44.80691" lon="5.86956">
        <ele>877.9</ele>
        <time>2023-09-28T12:09:37Z</time>
      </trkpt>
      <trkpt lat="44.80697" lon="5.86954">
        <ele>878.3</ele>
        <time>2023-09-28T12:09:38Z</time>
      </trkpt>
      <trkpt lat="44.80703" lon="5.86952">
        <ele>878.6</ele>
        <time>2023-09-28T12:09:39Z</time>
      </trkpt>
      <trkpt lat="44.80707" lon="5.86953">
        <ele>878.9</ele>
        <time>2023-09-28T12:09:40Z</time>
      </trkpt>
      <trkpt lat="44.80711" lon="5.86953">
        <ele>879.2</ele>
        <time>2023-09-28T12:09:41Z</time>
      </trkpt>
      <trkpt lat="44.80714" lon="5.86953">
        <ele>879.4</ele>
        <time>2023-09-28T12:09:42Z</time>
      </trkpt>
      <trkpt lat="44.80717" lon="5.86953">
        <ele>879.7</ele>
        <time>2023-09-28T12:09:43Z</time>
      </trkpt>
      <trkpt lat="44.80721" lon="5.86953">
        <ele>879.9</ele>
        <time>2023-09-28T12:09:44Z</time>
      </trkpt>
      <trkpt lat="44.80724" lon="5.86952">
        <ele>880.2</ele>
        <time>2023-09-28T12:09:45Z</time>
      </trkpt>
      <trkpt lat="44.80727" lon="5.86952">
        <ele>880.4</ele>
        <time>2023-09-28T12:09:46Z</time>
      </trkpt>
      <trkpt lat="44.8073" lon="5.86951">
        <ele>880.7</ele>
        <time>2023-09-28T12:09:47Z</time>
      </trkpt>
      <trkpt lat="44.80734" lon="5.8695">
        <ele>881</ele>
        <time>2023-09-28T12:09:48Z</time>
      </trkpt>
      <trkpt lat="44.80735" lon="5.8695">
        <ele>881.1</ele>
        <time>2023-09-28T12:09:49Z</time>
      </trkpt>
      <trkpt lat="44.80736" lon="5.86949">
        <ele>881.2</ele>
        <time>2023-09-28T12:09:50Z</time>
      </trkpt>
      <trkpt lat="44.80739" lon="5.86948">
        <ele>881.6</ele>
        <time>2023-09-28T12:09:52Z</time>
      </trkpt>
      <trkpt lat="44.80742" lon="5.86948">
        <ele>881.9</ele>
        <time>2023-09-28T12:09:53Z</time>
      </trkpt>
      <trkpt lat="44.80745" lon="5.86948">
        <ele>882.2</ele>
        <time>2023-09-28T12:09:54Z</time>
      </trkpt>
      <trkpt lat="44.80748" lon="5.86949">
        <ele>882.5</ele>
        <time>2023-09-28T12:09:55Z</time>
      </trkpt>
      <trkpt lat="44.80751" lon="5.8695">
        <ele>882.8</ele>
        <time>2023-09-28T12:09:56Z</time>
      </trkpt>
      <trkpt lat="44.80753" lon="5.8695">
        <ele>882.9</ele>
        <time>2023-09-28T12:09:57Z</time>
      </trkpt>
      <trkpt lat="44.80755" lon="5.86951">
        <ele>883.2</ele>
        <time>2023-09-28T12:09:58Z</time>
      </trkpt>
      <trkpt lat="44.80758" lon="5.8695">
        <ele>883.4</ele>
        <time>2023-09-28T12:10:00Z</time>
      </trkpt>
      <trkpt lat="44.80761" lon="5.86949">
        <ele>883.7</ele>
        <time>2023-09-28T12:10:01Z</time>
      </trkpt>
      <trkpt lat="44.80762" lon="5.86949">
        <ele>883.8</ele>
        <time>2023-09-28T12:10:02Z</time>
      </trkpt>
      <trkpt lat="44.80765" lon="5.86947">
        <ele>884.1</ele>
        <time>2023-09-28T12:10:03Z</time>
      </trkpt>
      <trkpt lat="44.80766" lon="5.86946">
        <ele>884.2</ele>
        <time>2023-09-28T12:10:04Z</time>
      </trkpt>
      <trkpt lat="44.80768" lon="5.86944">
        <ele>884.5</ele>
        <time>2023-09-28T12:10:05Z</time>
      </trkpt>
      <trkpt lat="44.80769" lon="5.86943">
        <ele>884.6</ele>
        <time>2023-09-28T12:10:06Z</time>
      </trkpt>
      <trkpt lat="44.80772" lon="5.86939">
        <ele>884.9</ele>
        <time>2023-09-28T12:10:07Z</time>
      </trkpt>
      <trkpt lat="44.80773" lon="5.86938">
        <ele>885</ele>
        <time>2023-09-28T12:10:08Z</time>
      </trkpt>
      <trkpt lat="44.80775" lon="5.86936">
        <ele>885.2</ele>
        <time>2023-09-28T12:10:09Z</time>
      </trkpt>
      <trkpt lat="44.80777" lon="5.86933">
        <ele>885.4</ele>
        <time>2023-09-28T12:10:11Z</time>
      </trkpt>
      <trkpt lat="44.80779" lon="5.86931">
        <ele>885.6</ele>
        <time>2023-09-28T12:10:12Z</time>
      </trkpt>
      <trkpt lat="44.80782" lon="5.86928">
        <ele>885.9</ele>
        <time>2023-09-28T12:10:13Z</time>
      </trkpt>
      <trkpt lat="44.80783" lon="5.86927">
        <ele>886</ele>
        <time>2023-09-28T12:10:14Z</time>
      </trkpt>
      <trkpt lat="44.80784" lon="5.86925">
        <ele>886.1</ele>
        <time>2023-09-28T12:10:15Z</time>
      </trkpt>
      <trkpt lat="44.80787" lon="5.86923">
        <ele>886.4</ele>
        <time>2023-09-28T12:10:17Z</time>
      </trkpt>
      <trkpt lat="44.80789" lon="5.86921">
        <ele>886.6</ele>
        <time>2023-09-28T12:10:18Z</time>
      </trkpt>
      <trkpt lat="44.8079" lon="5.86921">
        <ele>886.7</ele>
        <time>2023-09-28T12:10:19Z</time>
      </trkpt>
      <trkpt lat="44.80794" lon="5.86919">
        <ele>886.9</ele>
        <time>2023-09-28T12:10:21Z</time>
      </trkpt>
      <trkpt lat="44.80799" lon="5.86916">
        <ele>887.4</ele>
        <time>2023-09-28T12:10:22Z</time>
      </trkpt>
      <trkpt lat="44.80803" lon="5.86914">
        <ele>887.7</ele>
        <time>2023-09-28T12:10:24Z</time>
      </trkpt>
      <trkpt lat="44.80805" lon="5.86913">
        <ele>887.9</ele>
        <time>2023-09-28T12:10:25Z</time>
      </trkpt>
      <trkpt lat="44.80808" lon="5.86911">
        <ele>888.2</ele>
        <time>2023-09-28T12:10:26Z</time>
      </trkpt>
      <trkpt lat="44.80811" lon="5.86909">
        <ele>888.4</ele>
        <time>2023-09-28T12:10:27Z</time>
      </trkpt>
      <trkpt lat="44.80814" lon="5.86908">
        <ele>888.6</ele>
        <time>2023-09-28T12:10:28Z</time>
      </trkpt>
      <trkpt lat="44.80818" lon="5.86906">
        <ele>888.9</ele>
        <time>2023-09-28T12:10:30Z</time>
      </trkpt>
      <trkpt lat="44.80821" lon="5.86905">
        <ele>889.2</ele>
        <time>2023-09-28T12:10:31Z</time>
      </trkpt>
      <trkpt lat="44.80822" lon="5.86904">
        <ele>889.3</ele>
        <time>2023-09-28T12:10:32Z</time>
      </trkpt>
      <trkpt lat="44.80825" lon="5.86904">
        <ele>889.5</ele>
        <time>2023-09-28T12:10:33Z</time>
      </trkpt>
      <trkpt lat="44.80828" lon="5.86903">
        <ele>889.7</ele>
        <time>2023-09-28T12:10:34Z</time>
      </trkpt>
      <trkpt lat="44.8083" lon="5.86902">
        <ele>889.8</ele>
        <time>2023-09-28T12:10:36Z</time>
      </trkpt>
      <trkpt lat="44.80834" lon="5.86902">
        <ele>890.1</ele>
        <time>2023-09-28T12:10:37Z</time>
      </trkpt>
      <trkpt lat="44.80835" lon="5.86902">
        <ele>890.2</ele>
        <time>2023-09-28T12:10:38Z</time>
      </trkpt>
      <trkpt lat="44.80836" lon="5.86902">
        <ele>890.3</ele>
        <time>2023-09-28T12:10:39Z</time>
      </trkpt>
      <trkpt lat="44.80838" lon="5.86901">
        <ele>890.4</ele>
        <time>2023-09-28T12:10:40Z</time>
      </trkpt>
      <trkpt lat="44.80841" lon="5.869">
        <ele>890.7</ele>
        <time>2023-09-28T12:10:41Z</time>
      </trkpt>
      <trkpt lat="44.80842" lon="5.869">
        <ele>890.8</ele>
        <time>2023-09-28T12:10:42Z</time>
      </trkpt>
      <trkpt lat="44.80846" lon="5.869">
        <ele>891.1</ele>
        <time>2023-09-28T12:10:44Z</time>
      </trkpt>
      <trkpt lat="44.80847" lon="5.869">
        <ele>891.2</ele>
        <time>2023-09-28T12:10:45Z</time>
      </trkpt>
      <trkpt lat="44.8085" lon="5.869">
        <ele>891.4</ele>
        <time>2023-09-28T12:10:46Z</time>
      </trkpt>
      <trkpt lat="44.80851" lon="5.869">
        <ele>891.5</ele>
        <time>2023-09-28T12:10:47Z</time>
      </trkpt>
      <trkpt lat="44.80854" lon="5.869">
        <ele>891.7</ele>
        <time>2023-09-28T12:10:48Z</time>
      </trkpt>
      <trkpt lat="44.80855" lon="5.869">
        <ele>891.8</ele>
        <time>2023-09-28T12:10:49Z</time>
      </trkpt>
      <trkpt lat="44.80859" lon="5.869">
        <ele>892.1</ele>
        <time>2023-09-28T12:10:50Z</time>
      </trkpt>
      <trkpt lat="44.8086" lon="5.869">
        <ele>892.2</ele>
        <time>2023-09-28T12:10:51Z</time>
      </trkpt>
      <trkpt lat="44.80863" lon="5.869">
        <ele>892.4</ele>
        <time>2023-09-28T12:10:53Z</time>
      </trkpt>
      <trkpt lat="44.80866" lon="5.86899">
        <ele>892.7</ele>
        <time>2023-09-28T12:10:54Z</time>
      </trkpt>
      <trkpt lat="44.80869" lon="5.86899">
        <ele>893</ele>
        <time>2023-09-28T12:10:55Z</time>
      </trkpt>
      <trkpt lat="44.8087" lon="5.86899">
        <ele>893.1</ele>
        <time>2023-09-28T12:10:56Z</time>
      </trkpt>
      <trkpt lat="44.80875" lon="5.86897">
        <ele>893.4</ele>
        <time>2023-09-28T12:10:58Z</time>
      </trkpt>
      <trkpt lat="44.80878" lon="5.86896">
        <ele>893.6</ele>
        <time>2023-09-28T12:10:59Z</time>
      </trkpt>
      <trkpt lat="44.80882" lon="5.86894">
        <ele>894</ele>
        <time>2023-09-28T12:11:01Z</time>
      </trkpt>
      <trkpt lat="44.80883" lon="5.86894">
        <ele>894.1</ele>
        <time>2023-09-28T12:11:02Z</time>
      </trkpt>
      <trkpt lat="44.80884" lon="5.86893">
        <ele>894.2</ele>
        <time>2023-09-28T12:11:03Z</time>
      </trkpt>
      <trkpt lat="44.80887" lon="5.86892">
        <ele>894.4</ele>
        <time>2023-09-28T12:11:04Z</time>
      </trkpt>
      <trkpt lat="44.80888" lon="5.86892">
        <ele>894.5</ele>
        <time>2023-09-28T12:11:05Z</time>
      </trkpt>
      <trkpt lat="44.80891" lon="5.8689">
        <ele>894.7</ele>
        <time>2023-09-28T12:11:06Z</time>
      </trkpt>
      <trkpt lat="44.80892" lon="5.86889">
        <ele>894.8</ele>
        <time>2023-09-28T12:11:07Z</time>
      </trkpt>
      <trkpt lat="44.80895" lon="5.86887">
        <ele>895.1</ele>
        <time>2023-09-28T12:11:09Z</time>
      </trkpt>
      <trkpt lat="44.80898" lon="5.86884">
        <ele>895.4</ele>
        <time>2023-09-28T12:11:10Z</time>
      </trkpt>
      <trkpt lat="44.80899" lon="5.86884">
        <ele>895.5</ele>
        <time>2023-09-28T12:11:11Z</time>
      </trkpt>
      <trkpt lat="44.80902" lon="5.8688">
        <ele>895.8</ele>
        <time>2023-09-28T12:11:13Z</time>
      </trkpt>
      <trkpt lat="44.80903" lon="5.86879">
        <ele>895.9</ele>
        <time>2023-09-28T12:11:14Z</time>
      </trkpt>
      <trkpt lat="44.80906" lon="5.86876">
        <ele>896.2</ele>
        <time>2023-09-28T12:11:15Z</time>
      </trkpt>
      <trkpt lat="44.80907" lon="5.86874">
        <ele>896.3</ele>
        <time>2023-09-28T12:11:16Z</time>
      </trkpt>
      <trkpt lat="44.80911" lon="5.86872">
        <ele>896.7</ele>
        <time>2023-09-28T12:11:17Z</time>
      </trkpt>
      <trkpt lat="44.80912" lon="5.86871">
        <ele>896.8</ele>
        <time>2023-09-28T12:11:18Z</time>
      </trkpt>
      <trkpt lat="44.80914" lon="5.86869">
        <ele>897</ele>
        <time>2023-09-28T12:11:19Z</time>
      </trkpt>
      <trkpt lat="44.80916" lon="5.86867">
        <ele>897.2</ele>
        <time>2023-09-28T12:11:21Z</time>
      </trkpt>
      <trkpt lat="44.80919" lon="5.86865">
        <ele>897.5</ele>
        <time>2023-09-28T12:11:22Z</time>
      </trkpt>
      <trkpt lat="44.80922" lon="5.86863">
        <ele>897.7</ele>
        <time>2023-09-28T12:11:23Z</time>
      </trkpt>
      <trkpt lat="44.80923" lon="5.86862">
        <ele>897.8</ele>
        <time>2023-09-28T12:11:24Z</time>
      </trkpt>
      <trkpt lat="44.80925" lon="5.8686">
        <ele>898.1</ele>
        <time>2023-09-28T12:11:26Z</time>
      </trkpt>
      <trkpt lat="44.80928" lon="5.86859">
        <ele>898.3</ele>
        <time>2023-09-28T12:11:27Z</time>
      </trkpt>
      <trkpt lat="44.8093" lon="5.86857">
        <ele>898.5</ele>
        <time>2023-09-28T12:11:28Z</time>
      </trkpt>
      <trkpt lat="44.80933" lon="5.86854">
        <ele>898.8</ele>
        <time>2023-09-28T12:11:29Z</time>
      </trkpt>
      <trkpt lat="44.80934" lon="5.86853">
        <ele>898.9</ele>
        <time>2023-09-28T12:11:30Z</time>
      </trkpt>
      <trkpt lat="44.80936" lon="5.86852">
        <ele>899.1</ele>
        <time>2023-09-28T12:11:31Z</time>
      </trkpt>
      <trkpt lat="44.80939" lon="5.86851">
        <ele>899.4</ele>
        <time>2023-09-28T12:11:32Z</time>
      </trkpt>
      <trkpt lat="44.80941" lon="5.86851">
        <ele>899.5</ele>
        <time>2023-09-28T12:11:33Z</time>
      </trkpt>
      <trkpt lat="44.80944" lon="5.8685">
        <ele>899.8</ele>
        <time>2023-09-28T12:11:35Z</time>
      </trkpt>
      <trkpt lat="44.80945" lon="5.86849">
        <ele>899.9</ele>
        <time>2023-09-28T12:11:36Z</time>
      </trkpt>
      <trkpt lat="44.80948" lon="5.86848">
        <ele>900.1</ele>
        <time>2023-09-28T12:11:37Z</time>
      </trkpt>
      <trkpt lat="44.80951" lon="5.86849">
        <ele>900.4</ele>
        <time>2023-09-28T12:11:38Z</time>
      </trkpt>
      <trkpt lat="44.80955" lon="5.86849">
        <ele>900.7</ele>
        <time>2023-09-28T12:11:39Z</time>
      </trkpt>
      <trkpt lat="44.80956" lon="5.86849">
        <ele>900.8</ele>
        <time>2023-09-28T12:11:40Z</time>
      </trkpt>
      <trkpt lat="44.8096" lon="5.8685">
        <ele>901.1</ele>
        <time>2023-09-28T12:11:41Z</time>
      </trkpt>
      <trkpt lat="44.80961" lon="5.86851">
        <ele>901.2</ele>
        <time>2023-09-28T12:11:42Z</time>
      </trkpt>
      <trkpt lat="44.80963" lon="5.86854">
        <ele>901.4</ele>
        <time>2023-09-28T12:11:44Z</time>
      </trkpt>
      <trkpt lat="44.80964" lon="5.86855">
        <ele>901.5</ele>
        <time>2023-09-28T12:11:45Z</time>
      </trkpt>
      <trkpt lat="44.80967" lon="5.86857">
        <ele>901.8</ele>
        <time>2023-09-28T12:11:46Z</time>
      </trkpt>
      <trkpt lat="44.80968" lon="5.86857">
        <ele>901.9</ele>
        <time>2023-09-28T12:11:47Z</time>
      </trkpt>
      <trkpt lat="44.80972" lon="5.86859">
        <ele>902.1</ele>
        <time>2023-09-28T12:11:48Z</time>
      </trkpt>
      <trkpt lat="44.80973" lon="5.8686">
        <ele>902.2</ele>
        <time>2023-09-28T12:11:49Z</time>
      </trkpt>
      <trkpt lat="44.80975" lon="5.86862">
        <ele>902.4</ele>
        <time>2023-09-28T12:11:50Z</time>
      </trkpt>
      <trkpt lat="44.80977" lon="5.86862">
        <ele>902.5</ele>
        <time>2023-09-28T12:11:52Z</time>
      </trkpt>
      <trkpt lat="44.8098" lon="5.86864">
        <ele>902.7</ele>
        <time>2023-09-28T12:11:53Z</time>
      </trkpt>
      <trkpt lat="44.80981" lon="5.86864">
        <ele>902.8</ele>
        <time>2023-09-28T12:11:54Z</time>
      </trkpt>
      <trkpt lat="44.80984" lon="5.86865">
        <ele>903</ele>
        <time>2023-09-28T12:11:55Z</time>
      </trkpt>
      <trkpt lat="44.80987" lon="5.86865">
        <ele>903.2</ele>
        <time>2023-09-28T12:11:56Z</time>
      </trkpt>
      <trkpt lat="44.80988" lon="5.86865">
        <ele>903.3</ele>
        <time>2023-09-28T12:11:57Z</time>
      </trkpt>
      <trkpt lat="44.80991" lon="5.86866">
        <ele>903.5</ele>
        <time>2023-09-28T12:11:58Z</time>
      </trkpt>
      <trkpt lat="44.80993" lon="5.86866">
        <ele>903.6</ele>
        <time>2023-09-28T12:11:59Z</time>
      </trkpt>
      <trkpt lat="44.80996" lon="5.86866">
        <ele>903.8</ele>
        <time>2023-09-28T12:12:01Z</time>
      </trkpt>
      <trkpt lat="44.80999" lon="5.86866">
        <ele>904</ele>
        <time>2023-09-28T12:12:02Z</time>
      </trkpt>
      <trkpt lat="44.81002" lon="5.86867">
        <ele>904.3</ele>
        <time>2023-09-28T12:12:03Z</time>
      </trkpt>
      <trkpt lat="44.81004" lon="5.86868">
        <ele>904.3</ele>
        <time>2023-09-28T12:12:04Z</time>
      </trkpt>
      <trkpt lat="44.81007" lon="5.86869">
        <ele>904.6</ele>
        <time>2023-09-28T12:12:05Z</time>
      </trkpt>
      <trkpt lat="44.81008" lon="5.86869">
        <ele>904.7</ele>
        <time>2023-09-28T12:12:06Z</time>
      </trkpt>
      <trkpt lat="44.81012" lon="5.86871">
        <ele>905</ele>
        <time>2023-09-28T12:12:08Z</time>
      </trkpt>
      <trkpt lat="44.81014" lon="5.86871">
        <ele>905.1</ele>
        <time>2023-09-28T12:12:09Z</time>
      </trkpt>
      <trkpt lat="44.81017" lon="5.86872">
        <ele>905.3</ele>
        <time>2023-09-28T12:12:10Z</time>
      </trkpt>
      <trkpt lat="44.81019" lon="5.86872">
        <ele>905.5</ele>
        <time>2023-09-28T12:12:11Z</time>
      </trkpt>
      <trkpt lat="44.81023" lon="5.86873">
        <ele>905.8</ele>
        <time>2023-09-28T12:12:13Z</time>
      </trkpt>
      <trkpt lat="44.81026" lon="5.86874">
        <ele>906</ele>
        <time>2023-09-28T12:12:14Z</time>
      </trkpt>
      <trkpt lat="44.81027" lon="5.86875">
        <ele>906.1</ele>
        <time>2023-09-28T12:12:15Z</time>
      </trkpt>
      <trkpt lat="44.81031" lon="5.86876">
        <ele>906.4</ele>
        <time>2023-09-28T12:12:17Z</time>
      </trkpt>
      <trkpt lat="44.81036" lon="5.86877">
        <ele>906.8</ele>
        <time>2023-09-28T12:12:19Z</time>
      </trkpt>
      <trkpt lat="44.81038" lon="5.86878">
        <ele>906.9</ele>
        <time>2023-09-28T12:12:20Z</time>
      </trkpt>
      <trkpt lat="44.81039" lon="5.86878">
        <ele>907.1</ele>
        <time>2023-09-28T12:12:21Z</time>
      </trkpt>
      <trkpt lat="44.81043" lon="5.8688">
        <ele>907.4</ele>
        <time>2023-09-28T12:12:22Z</time>
      </trkpt>
      <trkpt lat="44.81044" lon="5.8688">
        <ele>907.5</ele>
        <time>2023-09-28T12:12:23Z</time>
      </trkpt>
      <trkpt lat="44.81047" lon="5.86881">
        <ele>907.7</ele>
        <time>2023-09-28T12:12:24Z</time>
      </trkpt>
      <trkpt lat="44.81049" lon="5.86881">
        <ele>907.8</ele>
        <time>2023-09-28T12:12:25Z</time>
      </trkpt>
      <trkpt lat="44.81053" lon="5.86881">
        <ele>908.2</ele>
        <time>2023-09-28T12:12:27Z</time>
      </trkpt>
      <trkpt lat="44.81054" lon="5.86881">
        <ele>908.3</ele>
        <time>2023-09-28T12:12:28Z</time>
      </trkpt>
      <trkpt lat="44.81056" lon="5.86881">
        <ele>908.4</ele>
        <time>2023-09-28T12:12:29Z</time>
      </trkpt>
      <trkpt lat="44.81059" lon="5.86881">
        <ele>908.7</ele>
        <time>2023-09-28T12:12:30Z</time>
      </trkpt>
      <trkpt lat="44.81061" lon="5.86882">
        <ele>908.8</ele>
        <time>2023-09-28T12:12:31Z</time>
      </trkpt>
      <trkpt lat="44.81064" lon="5.86881">
        <ele>909.1</ele>
        <time>2023-09-28T12:12:32Z</time>
      </trkpt>
      <trkpt lat="44.81065" lon="5.86881">
        <ele>909.1</ele>
        <time>2023-09-28T12:12:33Z</time>
      </trkpt>
      <trkpt lat="44.81069" lon="5.86882">
        <ele>909.4</ele>
        <time>2023-09-28T12:12:34Z</time>
      </trkpt>
      <trkpt lat="44.8107" lon="5.86881">
        <ele>909.5</ele>
        <time>2023-09-28T12:12:35Z</time>
      </trkpt>
      <trkpt lat="44.81073" lon="5.86881">
        <ele>909.7</ele>
        <time>2023-09-28T12:12:37Z</time>
      </trkpt>
      <trkpt lat="44.81076" lon="5.86882">
        <ele>910</ele>
        <time>2023-09-28T12:12:38Z</time>
      </trkpt>
      <trkpt lat="44.81079" lon="5.86882">
        <ele>910.2</ele>
        <time>2023-09-28T12:12:39Z</time>
      </trkpt>
      <trkpt lat="44.81081" lon="5.86882">
        <ele>910.3</ele>
        <time>2023-09-28T12:12:40Z</time>
      </trkpt>
      <trkpt lat="44.81084" lon="5.86883">
        <ele>910.6</ele>
        <time>2023-09-28T12:12:41Z</time>
      </trkpt>
      <trkpt lat="44.81085" lon="5.86883">
        <ele>910.7</ele>
        <time>2023-09-28T12:12:42Z</time>
      </trkpt>
      <trkpt lat="44.81087" lon="5.86884">
        <ele>910.8</ele>
        <time>2023-09-28T12:12:43Z</time>
      </trkpt>
      <trkpt lat="44.81089" lon="5.86886">
        <ele>911</ele>
        <time>2023-09-28T12:12:45Z</time>
      </trkpt>
      <trkpt lat="44.81092" lon="5.86887">
        <ele>911.3</ele>
        <time>2023-09-28T12:12:46Z</time>
      </trkpt>
      <trkpt lat="44.81094" lon="5.86887">
        <ele>911.4</ele>
        <time>2023-09-28T12:12:47Z</time>
      </trkpt>
      <trkpt lat="44.81097" lon="5.86889">
        <ele>911.7</ele>
        <time>2023-09-28T12:12:48Z</time>
      </trkpt>
      <trkpt lat="44.81098" lon="5.86889">
        <ele>911.7</ele>
        <time>2023-09-28T12:12:49Z</time>
      </trkpt>
      <trkpt lat="44.811" lon="5.86891">
        <ele>912</ele>
        <time>2023-09-28T12:12:50Z</time>
      </trkpt>
      <trkpt lat="44.81103" lon="5.86892">
        <ele>912.2</ele>
        <time>2023-09-28T12:12:51Z</time>
      </trkpt>
      <trkpt lat="44.81104" lon="5.86892">
        <ele>912.3</ele>
        <time>2023-09-28T12:12:52Z</time>
      </trkpt>
      <trkpt lat="44.81109" lon="5.86894">
        <ele>912.7</ele>
        <time>2023-09-28T12:12:54Z</time>
      </trkpt>
      <trkpt lat="44.81111" lon="5.86895">
        <ele>912.8</ele>
        <time>2023-09-28T12:12:55Z</time>
      </trkpt>
      <trkpt lat="44.81112" lon="5.86895">
        <ele>913</ele>
        <time>2023-09-28T12:12:56Z</time>
      </trkpt>
      <trkpt lat="44.81116" lon="5.86896">
        <ele>913.3</ele>
        <time>2023-09-28T12:12:57Z</time>
      </trkpt>
      <trkpt lat="44.81117" lon="5.86897">
        <ele>913.4</ele>
        <time>2023-09-28T12:12:58Z</time>
      </trkpt>
      <trkpt lat="44.8112" lon="5.86898">
        <ele>913.7</ele>
        <time>2023-09-28T12:12:59Z</time>
      </trkpt>
      <trkpt lat="44.81121" lon="5.86899">
        <ele>913.8</ele>
        <time>2023-09-28T12:13:00Z</time>
      </trkpt>
      <trkpt lat="44.81125" lon="5.86899">
        <ele>914.1</ele>
        <time>2023-09-28T12:13:01Z</time>
      </trkpt>
      <trkpt lat="44.81127" lon="5.86899">
        <ele>914.2</ele>
        <time>2023-09-28T12:13:02Z</time>
      </trkpt>
      <trkpt lat="44.8113" lon="5.869">
        <ele>914.5</ele>
        <time>2023-09-28T12:13:04Z</time>
      </trkpt>
      <trkpt lat="44.81131" lon="5.869">
        <ele>914.6</ele>
        <time>2023-09-28T12:13:05Z</time>
      </trkpt>
      <trkpt lat="44.81135" lon="5.86901">
        <ele>914.9</ele>
        <time>2023-09-28T12:13:06Z</time>
      </trkpt>
      <trkpt lat="44.81136" lon="5.86901">
        <ele>915</ele>
        <time>2023-09-28T12:13:07Z</time>
      </trkpt>
      <trkpt lat="44.8114" lon="5.86901">
        <ele>915.3</ele>
        <time>2023-09-28T12:13:08Z</time>
      </trkpt>
      <trkpt lat="44.81141" lon="5.86902">
        <ele>915.4</ele>
        <time>2023-09-28T12:13:09Z</time>
      </trkpt>
      <trkpt lat="44.81144" lon="5.86902">
        <ele>915.6</ele>
        <time>2023-09-28T12:13:10Z</time>
      </trkpt>
      <trkpt lat="44.81148" lon="5.86903">
        <ele>915.9</ele>
        <time>2023-09-28T12:13:12Z</time>
      </trkpt>
      <trkpt lat="44.81149" lon="5.86903">
        <ele>916</ele>
        <time>2023-09-28T12:13:13Z</time>
      </trkpt>
      <trkpt lat="44.81152" lon="5.86905">
        <ele>916.3</ele>
        <time>2023-09-28T12:13:14Z</time>
      </trkpt>
      <trkpt lat="44.81155" lon="5.86906">
        <ele>916.6</ele>
        <time>2023-09-28T12:13:16Z</time>
      </trkpt>
      <trkpt lat="44.81158" lon="5.86909">
        <ele>916.9</ele>
        <time>2023-09-28T12:13:17Z</time>
      </trkpt>
      <trkpt lat="44.81161" lon="5.86911">
        <ele>917.1</ele>
        <time>2023-09-28T12:13:19Z</time>
      </trkpt>
      <trkpt lat="44.81164" lon="5.86913">
        <ele>917.4</ele>
        <time>2023-09-28T12:13:20Z</time>
      </trkpt>
      <trkpt lat="44.81166" lon="5.86916">
        <ele>917.7</ele>
        <time>2023-09-28T12:13:21Z</time>
      </trkpt>
      <trkpt lat="44.81167" lon="5.86917">
        <ele>917.8</ele>
        <time>2023-09-28T12:13:22Z</time>
      </trkpt>
      <trkpt lat="44.81169" lon="5.86921">
        <ele>918</ele>
        <time>2023-09-28T12:13:23Z</time>
      </trkpt>
      <trkpt lat="44.8117" lon="5.86924">
        <ele>918.2</ele>
        <time>2023-09-28T12:13:24Z</time>
      </trkpt>
      <trkpt lat="44.81171" lon="5.86928">
        <ele>918.5</ele>
        <time>2023-09-28T12:13:26Z</time>
      </trkpt>
      <trkpt lat="44.81174" lon="5.86932">
        <ele>918.7</ele>
        <time>2023-09-28T12:13:27Z</time>
      </trkpt>
      <trkpt lat="44.81176" lon="5.86936">
        <ele>919</ele>
        <time>2023-09-28T12:13:29Z</time>
      </trkpt>
      <trkpt lat="44.81178" lon="5.8694">
        <ele>919.3</ele>
        <time>2023-09-28T12:13:30Z</time>
      </trkpt>
      <trkpt lat="44.81179" lon="5.86942">
        <ele>919.4</ele>
        <time>2023-09-28T12:13:31Z</time>
      </trkpt>
      <trkpt lat="44.8118" lon="5.86946">
        <ele>919.6</ele>
        <time>2023-09-28T12:13:32Z</time>
      </trkpt>
      <trkpt lat="44.8118" lon="5.86948">
        <ele>919.7</ele>
        <time>2023-09-28T12:13:33Z</time>
      </trkpt>
      <trkpt lat="44.81183" lon="5.86953">
        <ele>920</ele>
        <time>2023-09-28T12:13:35Z</time>
      </trkpt>
      <trkpt lat="44.81184" lon="5.86955">
        <ele>920.1</ele>
        <time>2023-09-28T12:13:36Z</time>
      </trkpt>
      <trkpt lat="44.81184" lon="5.86957">
        <ele>920.3</ele>
        <time>2023-09-28T12:13:37Z</time>
      </trkpt>
      <trkpt lat="44.81186" lon="5.8696">
        <ele>920.5</ele>
        <time>2023-09-28T12:13:38Z</time>
      </trkpt>
      <trkpt lat="44.81188" lon="5.86963">
        <ele>920.7</ele>
        <time>2023-09-28T12:13:39Z</time>
      </trkpt>
      <trkpt lat="44.81189" lon="5.86964">
        <ele>920.7</ele>
        <time>2023-09-28T12:13:40Z</time>
      </trkpt>
      <trkpt lat="44.81192" lon="5.86967">
        <ele>921</ele>
        <time>2023-09-28T12:13:41Z</time>
      </trkpt>
      <trkpt lat="44.81192" lon="5.86969">
        <ele>921.1</ele>
        <time>2023-09-28T12:13:42Z</time>
      </trkpt>
      <trkpt lat="44.81194" lon="5.86971">
        <ele>921.2</ele>
        <time>2023-09-28T12:13:43Z</time>
      </trkpt>
      <trkpt lat="44.81197" lon="5.86972">
        <ele>921.3</ele>
        <time>2023-09-28T12:13:45Z</time>
      </trkpt>
      <trkpt lat="44.81201" lon="5.86974">
        <ele>921.5</ele>
        <time>2023-09-28T12:13:46Z</time>
      </trkpt>
      <trkpt lat="44.81202" lon="5.86974">
        <ele>921.6</ele>
        <time>2023-09-28T12:13:47Z</time>
      </trkpt>
      <trkpt lat="44.81205" lon="5.86975">
        <ele>921.7</ele>
        <time>2023-09-28T12:13:48Z</time>
      </trkpt>
      <trkpt lat="44.81207" lon="5.86976">
        <ele>921.8</ele>
        <time>2023-09-28T12:13:49Z</time>
      </trkpt>
      <trkpt lat="44.81209" lon="5.86976">
        <ele>921.9</ele>
        <time>2023-09-28T12:13:50Z</time>
      </trkpt>
      <trkpt lat="44.81213" lon="5.86977">
        <ele>922</ele>
        <time>2023-09-28T12:13:51Z</time>
      </trkpt>
      <trkpt lat="44.81215" lon="5.86977">
        <ele>922.1</ele>
        <time>2023-09-28T12:13:52Z</time>
      </trkpt>
      <trkpt lat="44.81217" lon="5.86977">
        <ele>922.2</ele>
        <time>2023-09-28T12:13:53Z</time>
      </trkpt>
      <trkpt lat="44.81222" lon="5.86975">
        <ele>922.2</ele>
        <time>2023-09-28T12:13:55Z</time>
      </trkpt>
      <trkpt lat="44.81225" lon="5.86975">
        <ele>922.2</ele>
        <time>2023-09-28T12:13:56Z</time>
      </trkpt>
      <trkpt lat="44.81228" lon="5.86973">
        <ele>922.2</ele>
        <time>2023-09-28T12:13:57Z</time>
      </trkpt>
      <trkpt lat="44.81232" lon="5.86971">
        <ele>922.2</ele>
        <time>2023-09-28T12:13:58Z</time>
      </trkpt>
      <trkpt lat="44.81234" lon="5.86969">
        <ele>922.2</ele>
        <time>2023-09-28T12:13:59Z</time>
      </trkpt>
      <trkpt lat="44.81238" lon="5.86968">
        <ele>922.2</ele>
        <time>2023-09-28T12:14:01Z</time>
      </trkpt>
      <trkpt lat="44.81241" lon="5.86967">
        <ele>922.1</ele>
        <time>2023-09-28T12:14:02Z</time>
      </trkpt>
      <trkpt lat="44.81244" lon="5.86966">
        <ele>922.1</ele>
        <time>2023-09-28T12:14:03Z</time>
      </trkpt>
      <trkpt lat="44.81247" lon="5.86965">
        <ele>922.1</ele>
        <time>2023-09-28T12:14:04Z</time>
      </trkpt>
      <trkpt lat="44.81251" lon="5.86963">
        <ele>922</ele>
        <time>2023-09-28T12:14:05Z</time>
      </trkpt>
      <trkpt lat="44.81255" lon="5.86962">
        <ele>922</ele>
        <time>2023-09-28T12:14:06Z</time>
      </trkpt>
      <trkpt lat="44.81258" lon="5.86961">
        <ele>921.9</ele>
        <time>2023-09-28T12:14:07Z</time>
      </trkpt>
      <trkpt lat="44.81262" lon="5.86959">
        <ele>921.9</ele>
        <time>2023-09-28T12:14:09Z</time>
      </trkpt>
      <trkpt lat="44.81265" lon="5.86958">
        <ele>921.9</ele>
        <time>2023-09-28T12:14:10Z</time>
      </trkpt>
      <trkpt lat="44.81263" lon="5.86958">
        <ele>921.8</ele>
        <time>2023-09-28T12:14:11Z</time>
      </trkpt>
      <trkpt lat="44.81262" lon="5.86958">
        <ele>921.8</ele>
        <time>2023-09-28T12:14:12Z</time>
      </trkpt>
      <trkpt lat="44.81262" lon="5.86958">
        <ele>921.8</ele>
        <time>2023-09-28T12:14:13Z</time>
      </trkpt>
      <trkpt lat="44.81262" lon="5.86958">
        <ele>921.8</ele>
        <time>2023-09-28T12:14:14Z</time>
      </trkpt>
      <trkpt lat="44.81261" lon="5.86958">
        <ele>921.8</ele>
        <time>2023-09-28T12:14:16Z</time>
      </trkpt>
      <trkpt lat="44.81261" lon="5.86958">
        <ele>921.8</ele>
        <time>2023-09-28T12:14:17Z</time>
      </trkpt>
      <trkpt lat="44.81261" lon="5.86958">
        <ele>921.8</ele>
        <time>2023-09-28T12:14:23Z</time>
      </trkpt>
      <trkpt lat="44.81261" lon="5.86958">
        <ele>921.8</ele>
        <time>2023-09-28T12:14:24Z</time>
      </trkpt>
      <trkpt lat="44.81266" lon="5.86953">
        <ele>921.7</ele>
        <time>2023-09-28T12:14:48Z</time>
      </trkpt>
      <trkpt lat="44.81269" lon="5.86952">
        <ele>921.7</ele>
        <time>2023-09-28T12:14:49Z</time>
      </trkpt>
      <trkpt lat="44.81273" lon="5.86951">
        <ele>921.6</ele>
        <time>2023-09-28T12:14:50Z</time>
      </trkpt>
      <trkpt lat="44.81276" lon="5.8695">
        <ele>921.6</ele>
        <time>2023-09-28T12:14:51Z</time>
      </trkpt>
      <trkpt lat="44.8128" lon="5.86948">
        <ele>921.5</ele>
        <time>2023-09-28T12:14:52Z</time>
      </trkpt>
      <trkpt lat="44.81284" lon="5.86946">
        <ele>921.4</ele>
        <time>2023-09-28T12:14:53Z</time>
      </trkpt>
      <trkpt lat="44.81289" lon="5.86944">
        <ele>921.3</ele>
        <time>2023-09-28T12:14:55Z</time>
      </trkpt>
      <trkpt lat="44.81293" lon="5.86942">
        <ele>921.2</ele>
        <time>2023-09-28T12:14:56Z</time>
      </trkpt>
      <trkpt lat="44.81301" lon="5.86938">
        <ele>921</ele>
        <time>2023-09-28T12:14:57Z</time>
      </trkpt>
      <trkpt lat="44.81306" lon="5.86936">
        <ele>920.9</ele>
        <time>2023-09-28T12:14:58Z</time>
      </trkpt>
      <trkpt lat="44.81311" lon="5.86933">
        <ele>920.8</ele>
        <time>2023-09-28T12:14:59Z</time>
      </trkpt>
      <trkpt lat="44.81317" lon="5.86931">
        <ele>920.6</ele>
        <time>2023-09-28T12:15:00Z</time>
      </trkpt>
      <trkpt lat="44.81322" lon="5.86927">
        <ele>920.5</ele>
        <time>2023-09-28T12:15:01Z</time>
      </trkpt>
      <trkpt lat="44.81327" lon="5.86924">
        <ele>920.4</ele>
        <time>2023-09-28T12:15:02Z</time>
      </trkpt>
      <trkpt lat="44.81333" lon="5.86921">
        <ele>920.2</ele>
        <time>2023-09-28T12:15:03Z</time>
      </trkpt>
      <trkpt lat="44.81339" lon="5.86918">
        <ele>920.1</ele>
        <time>2023-09-28T12:15:04Z</time>
      </trkpt>
      <trkpt lat="44.81345" lon="5.86915">
        <ele>919.9</ele>
        <time>2023-09-28T12:15:05Z</time>
      </trkpt>
      <trkpt lat="44.81351" lon="5.86912">
        <ele>919.8</ele>
        <time>2023-09-28T12:15:06Z</time>
      </trkpt>
      <trkpt lat="44.81357" lon="5.86909">
        <ele>919.6</ele>
        <time>2023-09-28T12:15:07Z</time>
      </trkpt>
      <trkpt lat="44.81363" lon="5.86907">
        <ele>919.4</ele>
        <time>2023-09-28T12:15:08Z</time>
      </trkpt>
      <trkpt lat="44.8137" lon="5.86904">
        <ele>919.2</ele>
        <time>2023-09-28T12:15:09Z</time>
      </trkpt>
      <trkpt lat="44.81377" lon="5.86901">
        <ele>919</ele>
        <time>2023-09-28T12:15:10Z</time>
      </trkpt>
      <trkpt lat="44.81384" lon="5.86897">
        <ele>918.7</ele>
        <time>2023-09-28T12:15:11Z</time>
      </trkpt>
      <trkpt lat="44.8139" lon="5.86894">
        <ele>918.5</ele>
        <time>2023-09-28T12:15:12Z</time>
      </trkpt>
      <trkpt lat="44.81397" lon="5.8689">
        <ele>918.2</ele>
        <time>2023-09-28T12:15:13Z</time>
      </trkpt>
      <trkpt lat="44.81404" lon="5.86887">
        <ele>918</ele>
        <time>2023-09-28T12:15:14Z</time>
      </trkpt>
      <trkpt lat="44.81411" lon="5.86884">
        <ele>917.8</ele>
        <time>2023-09-28T12:15:15Z</time>
      </trkpt>
      <trkpt lat="44.81417" lon="5.86881">
        <ele>917.5</ele>
        <time>2023-09-28T12:15:16Z</time>
      </trkpt>
      <trkpt lat="44.81424" lon="5.86877">
        <ele>917.3</ele>
        <time>2023-09-28T12:15:17Z</time>
      </trkpt>
      <trkpt lat="44.8143" lon="5.86874">
        <ele>917.1</ele>
        <time>2023-09-28T12:15:18Z</time>
      </trkpt>
      <trkpt lat="44.81437" lon="5.86871">
        <ele>916.9</ele>
        <time>2023-09-28T12:15:19Z</time>
      </trkpt>
      <trkpt lat="44.81444" lon="5.86867">
        <ele>916.7</ele>
        <time>2023-09-28T12:15:20Z</time>
      </trkpt>
      <trkpt lat="44.81451" lon="5.86864">
        <ele>916.5</ele>
        <time>2023-09-28T12:15:21Z</time>
      </trkpt>
      <trkpt lat="44.81458" lon="5.86861">
        <ele>916.3</ele>
        <time>2023-09-28T12:15:22Z</time>
      </trkpt>
      <trkpt lat="44.81464" lon="5.86857">
        <ele>916.1</ele>
        <time>2023-09-28T12:15:23Z</time>
      </trkpt>
      <trkpt lat="44.81471" lon="5.86854">
        <ele>915.9</ele>
        <time>2023-09-28T12:15:24Z</time>
      </trkpt>
      <trkpt lat="44.81479" lon="5.8685">
        <ele>915.6</ele>
        <time>2023-09-28T12:15:25Z</time>
      </trkpt>
      <trkpt lat="44.81486" lon="5.86847">
        <ele>915.4</ele>
        <time>2023-09-28T12:15:26Z</time>
      </trkpt>
      <trkpt lat="44.81493" lon="5.86844">
        <ele>915.1</ele>
        <time>2023-09-28T12:15:27Z</time>
      </trkpt>
      <trkpt lat="44.81501" lon="5.8684">
        <ele>914.9</ele>
        <time>2023-09-28T12:15:28Z</time>
      </trkpt>
      <trkpt lat="44.81508" lon="5.86837">
        <ele>914.6</ele>
        <time>2023-09-28T12:15:29Z</time>
      </trkpt>
      <trkpt lat="44.81515" lon="5.86833">
        <ele>914.4</ele>
        <time>2023-09-28T12:15:30Z</time>
      </trkpt>
      <trkpt lat="44.81523" lon="5.8683">
        <ele>914.1</ele>
        <time>2023-09-28T12:15:31Z</time>
      </trkpt>
      <trkpt lat="44.8153" lon="5.86826">
        <ele>913.8</ele>
        <time>2023-09-28T12:15:32Z</time>
      </trkpt>
      <trkpt lat="44.81537" lon="5.86822">
        <ele>913.6</ele>
        <time>2023-09-28T12:15:33Z</time>
      </trkpt>
      <trkpt lat="44.81545" lon="5.86818">
        <ele>913.3</ele>
        <time>2023-09-28T12:15:34Z</time>
      </trkpt>
      <trkpt lat="44.81552" lon="5.86815">
        <ele>913.1</ele>
        <time>2023-09-28T12:15:35Z</time>
      </trkpt>
      <trkpt lat="44.8156" lon="5.86812">
        <ele>912.8</ele>
        <time>2023-09-28T12:15:36Z</time>
      </trkpt>
      <trkpt lat="44.81567" lon="5.86808">
        <ele>912.5</ele>
        <time>2023-09-28T12:15:37Z</time>
      </trkpt>
      <trkpt lat="44.81575" lon="5.86804">
        <ele>912.2</ele>
        <time>2023-09-28T12:15:38Z</time>
      </trkpt>
      <trkpt lat="44.81583" lon="5.868">
        <ele>911.9</ele>
        <time>2023-09-28T12:15:39Z</time>
      </trkpt>
      <trkpt lat="44.81591" lon="5.86796">
        <ele>911.5</ele>
        <time>2023-09-28T12:15:40Z</time>
      </trkpt>
      <trkpt lat="44.81599" lon="5.86792">
        <ele>911.1</ele>
        <time>2023-09-28T12:15:41Z</time>
      </trkpt>
      <trkpt lat="44.81607" lon="5.86787">
        <ele>910.7</ele>
        <time>2023-09-28T12:15:42Z</time>
      </trkpt>
      <trkpt lat="44.81615" lon="5.86782">
        <ele>910.4</ele>
        <time>2023-09-28T12:15:43Z</time>
      </trkpt>
      <trkpt lat="44.81623" lon="5.86778">
        <ele>910</ele>
        <time>2023-09-28T12:15:44Z</time>
      </trkpt>
      <trkpt lat="44.81632" lon="5.86774">
        <ele>909.6</ele>
        <time>2023-09-28T12:15:45Z</time>
      </trkpt>
      <trkpt lat="44.81641" lon="5.86769">
        <ele>909.2</ele>
        <time>2023-09-28T12:15:46Z</time>
      </trkpt>
      <trkpt lat="44.81649" lon="5.86765">
        <ele>908.9</ele>
        <time>2023-09-28T12:15:47Z</time>
      </trkpt>
      <trkpt lat="44.81658" lon="5.86762">
        <ele>908.5</ele>
        <time>2023-09-28T12:15:48Z</time>
      </trkpt>
      <trkpt lat="44.81666" lon="5.86758">
        <ele>908.1</ele>
        <time>2023-09-28T12:15:49Z</time>
      </trkpt>
      <trkpt lat="44.81675" lon="5.86754">
        <ele>907.8</ele>
        <time>2023-09-28T12:15:50Z</time>
      </trkpt>
      <trkpt lat="44.81683" lon="5.86751">
        <ele>907.5</ele>
        <time>2023-09-28T12:15:51Z</time>
      </trkpt>
      <trkpt lat="44.81692" lon="5.86747">
        <ele>907.2</ele>
        <time>2023-09-28T12:15:52Z</time>
      </trkpt>
      <trkpt lat="44.817" lon="5.86742">
        <ele>906.9</ele>
        <time>2023-09-28T12:15:53Z</time>
      </trkpt>
      <trkpt lat="44.81708" lon="5.86736">
        <ele>906.7</ele>
        <time>2023-09-28T12:15:54Z</time>
      </trkpt>
      <trkpt lat="44.81714" lon="5.86728">
        <ele>906.5</ele>
        <time>2023-09-28T12:15:55Z</time>
      </trkpt>
      <trkpt lat="44.8172" lon="5.86719">
        <ele>906.3</ele>
        <time>2023-09-28T12:15:56Z</time>
      </trkpt>
      <trkpt lat="44.81725" lon="5.8671">
        <ele>906.1</ele>
        <time>2023-09-28T12:15:57Z</time>
      </trkpt>
      <trkpt lat="44.8173" lon="5.867">
        <ele>906</ele>
        <time>2023-09-28T12:15:58Z</time>
      </trkpt>
      <trkpt lat="44.81733" lon="5.86689">
        <ele>905.9</ele>
        <time>2023-09-28T12:15:59Z</time>
      </trkpt>
      <trkpt lat="44.81734" lon="5.86678">
        <ele>905.7</ele>
        <time>2023-09-28T12:16:00Z</time>
      </trkpt>
      <trkpt lat="44.81735" lon="5.86666">
        <ele>905.6</ele>
        <time>2023-09-28T12:16:01Z</time>
      </trkpt>
      <trkpt lat="44.81735" lon="5.86655">
        <ele>905.5</ele>
        <time>2023-09-28T12:16:02Z</time>
      </trkpt>
      <trkpt lat="44.81733" lon="5.86645">
        <ele>905.4</ele>
        <time>2023-09-28T12:16:03Z</time>
      </trkpt>
      <trkpt lat="44.81729" lon="5.86635">
        <ele>905.3</ele>
        <time>2023-09-28T12:16:04Z</time>
      </trkpt>
      <trkpt lat="44.81723" lon="5.86628">
        <ele>904.9</ele>
        <time>2023-09-28T12:16:05Z</time>
      </trkpt>
      <trkpt lat="44.81716" lon="5.86623">
        <ele>904.6</ele>
        <time>2023-09-28T12:16:06Z</time>
      </trkpt>
      <trkpt lat="44.81709" lon="5.8662">
        <ele>904.2</ele>
        <time>2023-09-28T12:16:07Z</time>
      </trkpt>
      <trkpt lat="44.81701" lon="5.86617">
        <ele>903.9</ele>
        <time>2023-09-28T12:16:08Z</time>
      </trkpt>
      <trkpt lat="44.81692" lon="5.86613">
        <ele>903.5</ele>
        <time>2023-09-28T12:16:09Z</time>
      </trkpt>
      <trkpt lat="44.81684" lon="5.86609">
        <ele>903.1</ele>
        <time>2023-09-28T12:16:10Z</time>
      </trkpt>
      <trkpt lat="44.81676" lon="5.86605">
        <ele>902.7</ele>
        <time>2023-09-28T12:16:11Z</time>
      </trkpt>
      <trkpt lat="44.81667" lon="5.866">
        <ele>902.2</ele>
        <time>2023-09-28T12:16:12Z</time>
      </trkpt>
      <trkpt lat="44.81659" lon="5.86597">
        <ele>901.8</ele>
        <time>2023-09-28T12:16:13Z</time>
      </trkpt>
      <trkpt lat="44.8165" lon="5.86592">
        <ele>901.2</ele>
        <time>2023-09-28T12:16:14Z</time>
      </trkpt>
      <trkpt lat="44.8164" lon="5.86587">
        <ele>900.7</ele>
        <time>2023-09-28T12:16:15Z</time>
      </trkpt>
      <trkpt lat="44.81631" lon="5.86582">
        <ele>900.1</ele>
        <time>2023-09-28T12:16:16Z</time>
      </trkpt>
      <trkpt lat="44.81622" lon="5.86577">
        <ele>899.5</ele>
        <time>2023-09-28T12:16:17Z</time>
      </trkpt>
      <trkpt lat="44.81612" lon="5.86572">
        <ele>899</ele>
        <time>2023-09-28T12:16:18Z</time>
      </trkpt>
      <trkpt lat="44.81603" lon="5.86565">
        <ele>898.4</ele>
        <time>2023-09-28T12:16:19Z</time>
      </trkpt>
      <trkpt lat="44.81594" lon="5.86559">
        <ele>897.9</ele>
        <time>2023-09-28T12:16:20Z</time>
      </trkpt>
      <trkpt lat="44.81586" lon="5.86551">
        <ele>897.3</ele>
        <time>2023-09-28T12:16:21Z</time>
      </trkpt>
      <trkpt lat="44.81576" lon="5.86544">
        <ele>896.8</ele>
        <time>2023-09-28T12:16:22Z</time>
      </trkpt>
      <trkpt lat="44.81567" lon="5.86537">
        <ele>896.2</ele>
        <time>2023-09-28T12:16:23Z</time>
      </trkpt>
      <trkpt lat="44.81558" lon="5.86531">
        <ele>895.6</ele>
        <time>2023-09-28T12:16:24Z</time>
      </trkpt>
      <trkpt lat="44.81548" lon="5.86526">
        <ele>895</ele>
        <time>2023-09-28T12:16:25Z</time>
      </trkpt>
      <trkpt lat="44.81538" lon="5.86523">
        <ele>894.4</ele>
        <time>2023-09-28T12:16:26Z</time>
      </trkpt>
      <trkpt lat="44.81527" lon="5.86521">
        <ele>893.8</ele>
        <time>2023-09-28T12:16:27Z</time>
      </trkpt>
      <trkpt lat="44.81516" lon="5.86522">
        <ele>893.2</ele>
        <time>2023-09-28T12:16:28Z</time>
      </trkpt>
      <trkpt lat="44.81505" lon="5.86526">
        <ele>892.6</ele>
        <time>2023-09-28T12:16:29Z</time>
      </trkpt>
      <trkpt lat="44.81496" lon="5.86531">
        <ele>892</ele>
        <time>2023-09-28T12:16:30Z</time>
      </trkpt>
      <trkpt lat="44.81485" lon="5.86535">
        <ele>891.3</ele>
        <time>2023-09-28T12:16:31Z</time>
      </trkpt>
      <trkpt lat="44.81476" lon="5.86539">
        <ele>890.7</ele>
        <time>2023-09-28T12:16:32Z</time>
      </trkpt>
      <trkpt lat="44.81468" lon="5.86545">
        <ele>890.1</ele>
        <time>2023-09-28T12:16:33Z</time>
      </trkpt>
      <trkpt lat="44.81458" lon="5.86549">
        <ele>889.3</ele>
        <time>2023-09-28T12:16:34Z</time>
      </trkpt>
      <trkpt lat="44.81446" lon="5.86551">
        <ele>888.3</ele>
        <time>2023-09-28T12:16:35Z</time>
      </trkpt>
      <trkpt lat="44.81434" lon="5.86553">
        <ele>887.2</ele>
        <time>2023-09-28T12:16:36Z</time>
      </trkpt>
      <trkpt lat="44.81421" lon="5.86553">
        <ele>886</ele>
        <time>2023-09-28T12:16:37Z</time>
      </trkpt>
      <trkpt lat="44.81408" lon="5.86555">
        <ele>884.8</ele>
        <time>2023-09-28T12:16:38Z</time>
      </trkpt>
      <trkpt lat="44.81395" lon="5.86557">
        <ele>883.8</ele>
        <time>2023-09-28T12:16:39Z</time>
      </trkpt>
      <trkpt lat="44.81383" lon="5.86558">
        <ele>882.7</ele>
        <time>2023-09-28T12:16:40Z</time>
      </trkpt>
      <trkpt lat="44.81369" lon="5.8656">
        <ele>881.7</ele>
        <time>2023-09-28T12:16:41Z</time>
      </trkpt>
      <trkpt lat="44.81358" lon="5.8656">
        <ele>880.9</ele>
        <time>2023-09-28T12:16:42Z</time>
      </trkpt>
      <trkpt lat="44.81345" lon="5.86557">
        <ele>880.1</ele>
        <time>2023-09-28T12:16:43Z</time>
      </trkpt>
      <trkpt lat="44.81332" lon="5.86554">
        <ele>879.4</ele>
        <time>2023-09-28T12:16:44Z</time>
      </trkpt>
      <trkpt lat="44.8132" lon="5.86551">
        <ele>878.7</ele>
        <time>2023-09-28T12:16:45Z</time>
      </trkpt>
      <trkpt lat="44.81308" lon="5.86546">
        <ele>878</ele>
        <time>2023-09-28T12:16:46Z</time>
      </trkpt>
      <trkpt lat="44.81297" lon="5.86538">
        <ele>877.3</ele>
        <time>2023-09-28T12:16:47Z</time>
      </trkpt>
      <trkpt lat="44.81286" lon="5.86529">
        <ele>876.5</ele>
        <time>2023-09-28T12:16:48Z</time>
      </trkpt>
      <trkpt lat="44.81276" lon="5.86521">
        <ele>875.8</ele>
        <time>2023-09-28T12:16:49Z</time>
      </trkpt>
      <trkpt lat="44.81266" lon="5.86513">
        <ele>875.4</ele>
        <time>2023-09-28T12:16:50Z</time>
      </trkpt>
      <trkpt lat="44.81255" lon="5.86506">
        <ele>875.1</ele>
        <time>2023-09-28T12:16:51Z</time>
      </trkpt>
      <trkpt lat="44.81245" lon="5.86499">
        <ele>874.9</ele>
        <time>2023-09-28T12:16:52Z</time>
      </trkpt>
      <trkpt lat="44.81235" lon="5.86495">
        <ele>874.8</ele>
        <time>2023-09-28T12:16:53Z</time>
      </trkpt>
      <trkpt lat="44.81226" lon="5.86491">
        <ele>874.8</ele>
        <time>2023-09-28T12:16:54Z</time>
      </trkpt>
      <trkpt lat="44.81217" lon="5.86486">
        <ele>874.9</ele>
        <time>2023-09-28T12:16:55Z</time>
      </trkpt>
      <trkpt lat="44.81211" lon="5.86476">
        <ele>874.8</ele>
        <time>2023-09-28T12:16:56Z</time>
      </trkpt>
      <trkpt lat="44.81207" lon="5.86464">
        <ele>874.8</ele>
        <time>2023-09-28T12:16:57Z</time>
      </trkpt>
      <trkpt lat="44.81206" lon="5.8645">
        <ele>874.7</ele>
        <time>2023-09-28T12:16:58Z</time>
      </trkpt>
      <trkpt lat="44.81207" lon="5.86438">
        <ele>874.6</ele>
        <time>2023-09-28T12:16:59Z</time>
      </trkpt>
      <trkpt lat="44.81208" lon="5.86426">
        <ele>874.8</ele>
        <time>2023-09-28T12:17:00Z</time>
      </trkpt>
      <trkpt lat="44.81211" lon="5.86415">
        <ele>875.1</ele>
        <time>2023-09-28T12:17:01Z</time>
      </trkpt>
      <trkpt lat="44.81215" lon="5.86406">
        <ele>875.5</ele>
        <time>2023-09-28T12:17:02Z</time>
      </trkpt>
      <trkpt lat="44.8122" lon="5.86398">
        <ele>875.9</ele>
        <time>2023-09-28T12:17:03Z</time>
      </trkpt>
      <trkpt lat="44.81226" lon="5.86393">
        <ele>876.4</ele>
        <time>2023-09-28T12:17:04Z</time>
      </trkpt>
      <trkpt lat="44.81231" lon="5.8639">
        <ele>876.8</ele>
        <time>2023-09-28T12:17:05Z</time>
      </trkpt>
      <trkpt lat="44.81235" lon="5.86386">
        <ele>877.2</ele>
        <time>2023-09-28T12:17:06Z</time>
      </trkpt>
      <trkpt lat="44.8124" lon="5.86382">
        <ele>877.7</ele>
        <time>2023-09-28T12:17:07Z</time>
      </trkpt>
      <trkpt lat="44.81245" lon="5.86377">
        <ele>878.1</ele>
        <time>2023-09-28T12:17:08Z</time>
      </trkpt>
      <trkpt lat="44.8125" lon="5.86374">
        <ele>878.6</ele>
        <time>2023-09-28T12:17:09Z</time>
      </trkpt>
      <trkpt lat="44.81254" lon="5.86371">
        <ele>878.9</ele>
        <time>2023-09-28T12:17:10Z</time>
      </trkpt>
      <trkpt lat="44.81257" lon="5.86367">
        <ele>879.3</ele>
        <time>2023-09-28T12:17:11Z</time>
      </trkpt>
      <trkpt lat="44.8126" lon="5.86364">
        <ele>879.7</ele>
        <time>2023-09-28T12:17:12Z</time>
      </trkpt>
      <trkpt lat="44.81263" lon="5.8636">
        <ele>880</ele>
        <time>2023-09-28T12:17:13Z</time>
      </trkpt>
      <trkpt lat="44.81265" lon="5.86357">
        <ele>880.4</ele>
        <time>2023-09-28T12:17:14Z</time>
      </trkpt>
      <trkpt lat="44.81268" lon="5.86354">
        <ele>880.7</ele>
        <time>2023-09-28T12:17:15Z</time>
      </trkpt>
      <trkpt lat="44.8127" lon="5.8635">
        <ele>881.1</ele>
        <time>2023-09-28T12:17:16Z</time>
      </trkpt>
      <trkpt lat="44.81271" lon="5.86349">
        <ele>881.2</ele>
        <time>2023-09-28T12:17:17Z</time>
      </trkpt>
      <trkpt lat="44.81273" lon="5.86345">
        <ele>881.6</ele>
        <time>2023-09-28T12:17:19Z</time>
      </trkpt>
      <trkpt lat="44.81275" lon="5.86341">
        <ele>881.9</ele>
        <time>2023-09-28T12:17:20Z</time>
      </trkpt>
      <trkpt lat="44.81277" lon="5.86338">
        <ele>882.2</ele>
        <time>2023-09-28T12:17:21Z</time>
      </trkpt>
      <trkpt lat="44.8128" lon="5.86332">
        <ele>882.7</ele>
        <time>2023-09-28T12:17:23Z</time>
      </trkpt>
      <trkpt lat="44.8128" lon="5.86327">
        <ele>883</ele>
        <time>2023-09-28T12:17:24Z</time>
      </trkpt>
      <trkpt lat="44.81281" lon="5.86326">
        <ele>883.1</ele>
        <time>2023-09-28T12:17:25Z</time>
      </trkpt>
      <trkpt lat="44.81281" lon="5.86323">
        <ele>883.3</ele>
        <time>2023-09-28T12:17:26Z</time>
      </trkpt>
      <trkpt lat="44.81282" lon="5.86319">
        <ele>883.6</ele>
        <time>2023-09-28T12:17:28Z</time>
      </trkpt>
      <trkpt lat="44.81283" lon="5.86314">
        <ele>884</ele>
        <time>2023-09-28T12:17:29Z</time>
      </trkpt>
      <trkpt lat="44.81285" lon="5.86311">
        <ele>884.3</ele>
        <time>2023-09-28T12:17:30Z</time>
      </trkpt>
      <trkpt lat="44.81286" lon="5.86306">
        <ele>884.7</ele>
        <time>2023-09-28T12:17:32Z</time>
      </trkpt>
      <trkpt lat="44.81288" lon="5.86302">
        <ele>885</ele>
        <time>2023-09-28T12:17:33Z</time>
      </trkpt>
      <trkpt lat="44.81289" lon="5.863">
        <ele>885.2</ele>
        <time>2023-09-28T12:17:34Z</time>
      </trkpt>
      <trkpt lat="44.81291" lon="5.86296">
        <ele>885.6</ele>
        <time>2023-09-28T12:17:36Z</time>
      </trkpt>
      <trkpt lat="44.81292" lon="5.86295">
        <ele>885.7</ele>
        <time>2023-09-28T12:17:37Z</time>
      </trkpt>
      <trkpt lat="44.81293" lon="5.86291">
        <ele>886</ele>
        <time>2023-09-28T12:17:38Z</time>
      </trkpt>
      <trkpt lat="44.81294" lon="5.8629">
        <ele>886.1</ele>
        <time>2023-09-28T12:17:39Z</time>
      </trkpt>
      <trkpt lat="44.81295" lon="5.86286">
        <ele>886.4</ele>
        <time>2023-09-28T12:17:40Z</time>
      </trkpt>
      <trkpt lat="44.81296" lon="5.86285">
        <ele>886.5</ele>
        <time>2023-09-28T12:17:41Z</time>
      </trkpt>
      <trkpt lat="44.81297" lon="5.86283">
        <ele>886.7</ele>
        <time>2023-09-28T12:17:42Z</time>
      </trkpt>
      <trkpt lat="44.81298" lon="5.8628">
        <ele>887</ele>
        <time>2023-09-28T12:17:44Z</time>
      </trkpt>
      <trkpt lat="44.81299" lon="5.86276">
        <ele>887.3</ele>
        <time>2023-09-28T12:17:45Z</time>
      </trkpt>
      <trkpt lat="44.813" lon="5.86273">
        <ele>887.5</ele>
        <time>2023-09-28T12:17:46Z</time>
      </trkpt>
      <trkpt lat="44.81301" lon="5.8627">
        <ele>887.7</ele>
        <time>2023-09-28T12:17:48Z</time>
      </trkpt>
      <trkpt lat="44.81302" lon="5.86265">
        <ele>888.1</ele>
        <time>2023-09-28T12:17:49Z</time>
      </trkpt>
      <trkpt lat="44.81303" lon="5.86264">
        <ele>888.2</ele>
        <time>2023-09-28T12:17:50Z</time>
      </trkpt>
      <trkpt lat="44.81305" lon="5.86258">
        <ele>888.6</ele>
        <time>2023-09-28T12:17:52Z</time>
      </trkpt>
      <trkpt lat="44.81306" lon="5.86256">
        <ele>888.8</ele>
        <time>2023-09-28T12:17:53Z</time>
      </trkpt>
      <trkpt lat="44.81307" lon="5.86254">
        <ele>889</ele>
        <time>2023-09-28T12:17:54Z</time>
      </trkpt>
      <trkpt lat="44.81309" lon="5.86249">
        <ele>889.3</ele>
        <time>2023-09-28T12:17:56Z</time>
      </trkpt>
      <trkpt lat="44.81311" lon="5.86245">
        <ele>889.6</ele>
        <time>2023-09-28T12:17:57Z</time>
      </trkpt>
      <trkpt lat="44.81311" lon="5.86243">
        <ele>889.7</ele>
        <time>2023-09-28T12:17:58Z</time>
      </trkpt>
      <trkpt lat="44.81313" lon="5.8624">
        <ele>889.9</ele>
        <time>2023-09-28T12:17:59Z</time>
      </trkpt>
      <trkpt lat="44.81315" lon="5.86236">
        <ele>890.2</ele>
        <time>2023-09-28T12:18:01Z</time>
      </trkpt>
      <trkpt lat="44.81316" lon="5.86233">
        <ele>890.4</ele>
        <time>2023-09-28T12:18:02Z</time>
      </trkpt>
      <trkpt lat="44.81319" lon="5.86229">
        <ele>890.7</ele>
        <time>2023-09-28T12:18:03Z</time>
      </trkpt>
      <trkpt lat="44.81319" lon="5.86227">
        <ele>890.8</ele>
        <time>2023-09-28T12:18:04Z</time>
      </trkpt>
      <trkpt lat="44.81321" lon="5.86226">
        <ele>890.9</ele>
        <time>2023-09-28T12:18:05Z</time>
      </trkpt>
      <trkpt lat="44.81323" lon="5.86223">
        <ele>891.2</ele>
        <time>2023-09-28T12:18:07Z</time>
      </trkpt>
      <trkpt lat="44.81326" lon="5.86218">
        <ele>891.5</ele>
        <time>2023-09-28T12:18:08Z</time>
      </trkpt>
      <trkpt lat="44.81327" lon="5.86216">
        <ele>891.6</ele>
        <time>2023-09-28T12:18:09Z</time>
      </trkpt>
      <trkpt lat="44.81329" lon="5.86212">
        <ele>891.9</ele>
        <time>2023-09-28T12:18:11Z</time>
      </trkpt>
      <trkpt lat="44.81332" lon="5.86209">
        <ele>892.2</ele>
        <time>2023-09-28T12:18:13Z</time>
      </trkpt>
      <trkpt lat="44.81333" lon="5.86208">
        <ele>892.3</ele>
        <time>2023-09-28T12:18:14Z</time>
      </trkpt>
      <trkpt lat="44.81335" lon="5.86205">
        <ele>892.6</ele>
        <time>2023-09-28T12:18:15Z</time>
      </trkpt>
      <trkpt lat="44.81336" lon="5.86204">
        <ele>892.7</ele>
        <time>2023-09-28T12:18:16Z</time>
      </trkpt>
      <trkpt lat="44.81339" lon="5.86202">
        <ele>893</ele>
        <time>2023-09-28T12:18:17Z</time>
      </trkpt>
      <trkpt lat="44.8134" lon="5.86201">
        <ele>893.1</ele>
        <time>2023-09-28T12:18:18Z</time>
      </trkpt>
      <trkpt lat="44.81343" lon="5.86199">
        <ele>893.4</ele>
        <time>2023-09-28T12:18:19Z</time>
      </trkpt>
      <trkpt lat="44.81344" lon="5.86199">
        <ele>893.5</ele>
        <time>2023-09-28T12:18:20Z</time>
      </trkpt>
      <trkpt lat="44.81348" lon="5.86196">
        <ele>893.9</ele>
        <time>2023-09-28T12:18:22Z</time>
      </trkpt>
      <trkpt lat="44.81349" lon="5.86195">
        <ele>894</ele>
        <time>2023-09-28T12:18:23Z</time>
      </trkpt>
      <trkpt lat="44.8135" lon="5.86194">
        <ele>894.2</ele>
        <time>2023-09-28T12:18:24Z</time>
      </trkpt>
      <trkpt lat="44.81352" lon="5.86192">
        <ele>894.4</ele>
        <time>2023-09-28T12:18:25Z</time>
      </trkpt>
      <trkpt lat="44.81354" lon="5.8619">
        <ele>894.6</ele>
        <time>2023-09-28T12:18:27Z</time>
      </trkpt>
      <trkpt lat="44.81357" lon="5.86188">
        <ele>894.9</ele>
        <time>2023-09-28T12:18:28Z</time>
      </trkpt>
      <trkpt lat="44.81358" lon="5.86187">
        <ele>895</ele>
        <time>2023-09-28T12:18:29Z</time>
      </trkpt>
      <trkpt lat="44.8136" lon="5.86187">
        <ele>895.2</ele>
        <time>2023-09-28T12:18:30Z</time>
      </trkpt>
      <trkpt lat="44.81362" lon="5.86185">
        <ele>895.4</ele>
        <time>2023-09-28T12:18:32Z</time>
      </trkpt>
      <trkpt lat="44.81365" lon="5.86184">
        <ele>895.6</ele>
        <time>2023-09-28T12:18:33Z</time>
      </trkpt>
      <trkpt lat="44.81367" lon="5.86183">
        <ele>895.8</ele>
        <time>2023-09-28T12:18:34Z</time>
      </trkpt>
      <trkpt lat="44.81369" lon="5.86181">
        <ele>896</ele>
        <time>2023-09-28T12:18:36Z</time>
      </trkpt>
      <trkpt lat="44.81372" lon="5.86179">
        <ele>896.3</ele>
        <time>2023-09-28T12:18:37Z</time>
      </trkpt>
      <trkpt lat="44.81373" lon="5.86179">
        <ele>896.4</ele>
        <time>2023-09-28T12:18:38Z</time>
      </trkpt>
      <trkpt lat="44.81375" lon="5.86177">
        <ele>896.6</ele>
        <time>2023-09-28T12:18:39Z</time>
      </trkpt>
      <trkpt lat="44.81376" lon="5.86176">
        <ele>896.7</ele>
        <time>2023-09-28T12:18:40Z</time>
      </trkpt>
      <trkpt lat="44.81378" lon="5.86175">
        <ele>896.9</ele>
        <time>2023-09-28T12:18:41Z</time>
      </trkpt>
      <trkpt lat="44.81379" lon="5.86174">
        <ele>897</ele>
        <time>2023-09-28T12:18:42Z</time>
      </trkpt>
      <trkpt lat="44.81381" lon="5.86172">
        <ele>897.2</ele>
        <time>2023-09-28T12:18:43Z</time>
      </trkpt>
      <trkpt lat="44.81384" lon="5.86171">
        <ele>897.5</ele>
        <time>2023-09-28T12:18:45Z</time>
      </trkpt>
      <trkpt lat="44.81386" lon="5.86169">
        <ele>897.7</ele>
        <time>2023-09-28T12:18:46Z</time>
      </trkpt>
      <trkpt lat="44.81387" lon="5.86169">
        <ele>897.8</ele>
        <time>2023-09-28T12:18:47Z</time>
      </trkpt>
      <trkpt lat="44.8139" lon="5.86167">
        <ele>898.1</ele>
        <time>2023-09-28T12:18:48Z</time>
      </trkpt>
      <trkpt lat="44.81391" lon="5.86167">
        <ele>898.2</ele>
        <time>2023-09-28T12:18:49Z</time>
      </trkpt>
      <trkpt lat="44.81393" lon="5.86165">
        <ele>898.4</ele>
        <time>2023-09-28T12:18:50Z</time>
      </trkpt>
      <trkpt lat="44.81395" lon="5.86165">
        <ele>898.5</ele>
        <time>2023-09-28T12:18:51Z</time>
      </trkpt>
      <trkpt lat="44.81399" lon="5.86162">
        <ele>898.9</ele>
        <time>2023-09-28T12:18:53Z</time>
      </trkpt>
      <trkpt lat="44.814" lon="5.86161">
        <ele>899.1</ele>
        <time>2023-09-28T12:18:54Z</time>
      </trkpt>
      <trkpt lat="44.81401" lon="5.8616">
        <ele>899.2</ele>
        <time>2023-09-28T12:18:55Z</time>
      </trkpt>
      <trkpt lat="44.81406" lon="5.86157">
        <ele>899.6</ele>
        <time>2023-09-28T12:18:57Z</time>
      </trkpt>
      <trkpt lat="44.81407" lon="5.86156">
        <ele>899.7</ele>
        <time>2023-09-28T12:18:58Z</time>
      </trkpt>
      <trkpt lat="44.81408" lon="5.86155">
        <ele>899.8</ele>
        <time>2023-09-28T12:18:59Z</time>
      </trkpt>
      <trkpt lat="44.81411" lon="5.86153">
        <ele>900.1</ele>
        <time>2023-09-28T12:19:01Z</time>
      </trkpt>
      <trkpt lat="44.81412" lon="5.86152">
        <ele>900.2</ele>
        <time>2023-09-28T12:19:02Z</time>
      </trkpt>
      <trkpt lat="44.81415" lon="5.8615">
        <ele>900.5</ele>
        <time>2023-09-28T12:19:03Z</time>
      </trkpt>
      <trkpt lat="44.81418" lon="5.86147">
        <ele>900.8</ele>
        <time>2023-09-28T12:19:04Z</time>
      </trkpt>
      <trkpt lat="44.81419" lon="5.86146">
        <ele>900.9</ele>
        <time>2023-09-28T12:19:05Z</time>
      </trkpt>
      <trkpt lat="44.81421" lon="5.86144">
        <ele>901</ele>
        <time>2023-09-28T12:19:06Z</time>
      </trkpt>
      <trkpt lat="44.81423" lon="5.86143">
        <ele>901.2</ele>
        <time>2023-09-28T12:19:08Z</time>
      </trkpt>
      <trkpt lat="44.81426" lon="5.86141">
        <ele>901.5</ele>
        <time>2023-09-28T12:19:09Z</time>
      </trkpt>
      <trkpt lat="44.81427" lon="5.8614">
        <ele>901.6</ele>
        <time>2023-09-28T12:19:10Z</time>
      </trkpt>
      <trkpt lat="44.8143" lon="5.86138">
        <ele>901.9</ele>
        <time>2023-09-28T12:19:11Z</time>
      </trkpt>
      <trkpt lat="44.81431" lon="5.86137">
        <ele>901.9</ele>
        <time>2023-09-28T12:19:12Z</time>
      </trkpt>
      <trkpt lat="44.81434" lon="5.86135">
        <ele>902.2</ele>
        <time>2023-09-28T12:19:14Z</time>
      </trkpt>
      <trkpt lat="44.81437" lon="5.86133">
        <ele>902.4</ele>
        <time>2023-09-28T12:19:15Z</time>
      </trkpt>
      <trkpt lat="44.81439" lon="5.86133">
        <ele>902.6</ele>
        <time>2023-09-28T12:19:16Z</time>
      </trkpt>
      <trkpt lat="44.81442" lon="5.86131">
        <ele>902.8</ele>
        <time>2023-09-28T12:19:18Z</time>
      </trkpt>
      <trkpt lat="44.81445" lon="5.86129">
        <ele>903.2</ele>
        <time>2023-09-28T12:19:19Z</time>
      </trkpt>
      <trkpt lat="44.81447" lon="5.86128">
        <ele>903.4</ele>
        <time>2023-09-28T12:19:20Z</time>
      </trkpt>
      <trkpt lat="44.81451" lon="5.86127">
        <ele>903.7</ele>
        <time>2023-09-28T12:19:22Z</time>
      </trkpt>
      <trkpt lat="44.81454" lon="5.86126">
        <ele>904</ele>
        <time>2023-09-28T12:19:23Z</time>
      </trkpt>
      <trkpt lat="44.81457" lon="5.86124">
        <ele>904.4</ele>
        <time>2023-09-28T12:19:24Z</time>
      </trkpt>
      <trkpt lat="44.81458" lon="5.86124">
        <ele>904.5</ele>
        <time>2023-09-28T12:19:25Z</time>
      </trkpt>
      <trkpt lat="44.8146" lon="5.86125">
        <ele>904.7</ele>
        <time>2023-09-28T12:19:26Z</time>
      </trkpt>
      <trkpt lat="44.81464" lon="5.86125">
        <ele>905.2</ele>
        <time>2023-09-28T12:19:28Z</time>
      </trkpt>
      <trkpt lat="44.81466" lon="5.86124">
        <ele>905.4</ele>
        <time>2023-09-28T12:19:29Z</time>
      </trkpt>
      <trkpt lat="44.81469" lon="5.86123">
        <ele>905.8</ele>
        <time>2023-09-28T12:19:31Z</time>
      </trkpt>
      <trkpt lat="44.81473" lon="5.86122">
        <ele>906.2</ele>
        <time>2023-09-28T12:19:32Z</time>
      </trkpt>
      <trkpt lat="44.81474" lon="5.86122">
        <ele>906.4</ele>
        <time>2023-09-28T12:19:33Z</time>
      </trkpt>
      <trkpt lat="44.81478" lon="5.86123">
        <ele>906.8</ele>
        <time>2023-09-28T12:19:35Z</time>
      </trkpt>
      <trkpt lat="44.8148" lon="5.86123">
        <ele>907</ele>
        <time>2023-09-28T12:19:36Z</time>
      </trkpt>
      <trkpt lat="44.81483" lon="5.86123">
        <ele>907.3</ele>
        <time>2023-09-28T12:19:37Z</time>
      </trkpt>
      <trkpt lat="44.81484" lon="5.86123">
        <ele>907.4</ele>
        <time>2023-09-28T12:19:38Z</time>
      </trkpt>
      <trkpt lat="44.81487" lon="5.86123">
        <ele>907.8</ele>
        <time>2023-09-28T12:19:40Z</time>
      </trkpt>
      <trkpt lat="44.81491" lon="5.86123">
        <ele>908.1</ele>
        <time>2023-09-28T12:19:41Z</time>
      </trkpt>
      <trkpt lat="44.81491" lon="5.86123">
        <ele>908.2</ele>
        <time>2023-09-28T12:19:42Z</time>
      </trkpt>
      <trkpt lat="44.81496" lon="5.86123">
        <ele>908.6</ele>
        <time>2023-09-28T12:19:44Z</time>
      </trkpt>
      <trkpt lat="44.81497" lon="5.86124">
        <ele>908.7</ele>
        <time>2023-09-28T12:19:45Z</time>
      </trkpt>
      <trkpt lat="44.815" lon="5.86123">
        <ele>908.9</ele>
        <time>2023-09-28T12:19:46Z</time>
      </trkpt>
      <trkpt lat="44.81503" lon="5.86124">
        <ele>909.2</ele>
        <time>2023-09-28T12:19:48Z</time>
      </trkpt>
      <trkpt lat="44.81506" lon="5.86125">
        <ele>909.6</ele>
        <time>2023-09-28T12:19:49Z</time>
      </trkpt>
      <trkpt lat="44.81507" lon="5.86125">
        <ele>909.7</ele>
        <time>2023-09-28T12:19:50Z</time>
      </trkpt>
      <trkpt lat="44.81509" lon="5.86125">
        <ele>909.8</ele>
        <time>2023-09-28T12:19:51Z</time>
      </trkpt>
      <trkpt lat="44.81511" lon="5.86125">
        <ele>910</ele>
        <time>2023-09-28T12:19:53Z</time>
      </trkpt>
      <trkpt lat="44.81514" lon="5.86125">
        <ele>910.3</ele>
        <time>2023-09-28T12:19:54Z</time>
      </trkpt>
      <trkpt lat="44.81518" lon="5.86126">
        <ele>910.6</ele>
        <time>2023-09-28T12:19:55Z</time>
      </trkpt>
      <trkpt lat="44.81519" lon="5.86125">
        <ele>910.7</ele>
        <time>2023-09-28T12:19:56Z</time>
      </trkpt>
      <trkpt lat="44.81521" lon="5.86125">
        <ele>910.9</ele>
        <time>2023-09-28T12:19:57Z</time>
      </trkpt>
      <trkpt lat="44.81523" lon="5.86125">
        <ele>911.1</ele>
        <time>2023-09-28T12:19:59Z</time>
      </trkpt>
      <trkpt lat="44.81526" lon="5.86125">
        <ele>911.4</ele>
        <time>2023-09-28T12:20:00Z</time>
      </trkpt>
      <trkpt lat="44.81527" lon="5.86125">
        <ele>911.5</ele>
        <time>2023-09-28T12:20:01Z</time>
      </trkpt>
      <trkpt lat="44.8153" lon="5.86124">
        <ele>911.7</ele>
        <time>2023-09-28T12:20:02Z</time>
      </trkpt>
      <trkpt lat="44.81531" lon="5.86123">
        <ele>911.8</ele>
        <time>2023-09-28T12:20:03Z</time>
      </trkpt>
      <trkpt lat="44.81535" lon="5.86122">
        <ele>912.2</ele>
        <time>2023-09-28T12:20:05Z</time>
      </trkpt>
      <trkpt lat="44.81537" lon="5.86121">
        <ele>912.3</ele>
        <time>2023-09-28T12:20:06Z</time>
      </trkpt>
      <trkpt lat="44.81538" lon="5.86121">
        <ele>912.5</ele>
        <time>2023-09-28T12:20:07Z</time>
      </trkpt>
      <trkpt lat="44.81543" lon="5.86119">
        <ele>912.9</ele>
        <time>2023-09-28T12:20:09Z</time>
      </trkpt>
      <trkpt lat="44.81544" lon="5.86118">
        <ele>913</ele>
        <time>2023-09-28T12:20:10Z</time>
      </trkpt>
      <trkpt lat="44.81545" lon="5.86118">
        <ele>913.1</ele>
        <time>2023-09-28T12:20:11Z</time>
      </trkpt>
      <trkpt lat="44.81547" lon="5.86117">
        <ele>913.2</ele>
        <time>2023-09-28T12:20:12Z</time>
      </trkpt>
      <trkpt lat="44.8155" lon="5.86115">
        <ele>913.5</ele>
        <time>2023-09-28T12:20:14Z</time>
      </trkpt>
      <trkpt lat="44.81554" lon="5.86114">
        <ele>913.8</ele>
        <time>2023-09-28T12:20:15Z</time>
      </trkpt>
      <trkpt lat="44.81554" lon="5.86113">
        <ele>913.8</ele>
        <time>2023-09-28T12:20:16Z</time>
      </trkpt>
      <trkpt lat="44.81557" lon="5.86112">
        <ele>914.1</ele>
        <time>2023-09-28T12:20:17Z</time>
      </trkpt>
      <trkpt lat="44.81558" lon="5.86111">
        <ele>914.2</ele>
        <time>2023-09-28T12:20:18Z</time>
      </trkpt>
      <trkpt lat="44.81561" lon="5.8611">
        <ele>914.4</ele>
        <time>2023-09-28T12:20:20Z</time>
      </trkpt>
      <trkpt lat="44.81563" lon="5.86108">
        <ele>914.6</ele>
        <time>2023-09-28T12:20:21Z</time>
      </trkpt>
      <trkpt lat="44.81566" lon="5.86107">
        <ele>914.8</ele>
        <time>2023-09-28T12:20:23Z</time>
      </trkpt>
      <trkpt lat="44.81568" lon="5.86105">
        <ele>915</ele>
        <time>2023-09-28T12:20:24Z</time>
      </trkpt>
      <trkpt lat="44.81571" lon="5.86104">
        <ele>915.3</ele>
        <time>2023-09-28T12:20:25Z</time>
      </trkpt>
      <trkpt lat="44.81572" lon="5.86103">
        <ele>915.4</ele>
        <time>2023-09-28T12:20:26Z</time>
      </trkpt>
      <trkpt lat="44.81576" lon="5.86101">
        <ele>915.7</ele>
        <time>2023-09-28T12:20:28Z</time>
      </trkpt>
      <trkpt lat="44.81577" lon="5.861">
        <ele>915.8</ele>
        <time>2023-09-28T12:20:29Z</time>
      </trkpt>
      <trkpt lat="44.8158" lon="5.86099">
        <ele>916.1</ele>
        <time>2023-09-28T12:20:30Z</time>
      </trkpt>
      <trkpt lat="44.81581" lon="5.86098">
        <ele>916.2</ele>
        <time>2023-09-28T12:20:31Z</time>
      </trkpt>
      <trkpt lat="44.81585" lon="5.86096">
        <ele>916.5</ele>
        <time>2023-09-28T12:20:33Z</time>
      </trkpt>
      <trkpt lat="44.8159" lon="5.86094">
        <ele>916.9</ele>
        <time>2023-09-28T12:20:35Z</time>
      </trkpt>
      <trkpt lat="44.81591" lon="5.86092">
        <ele>917.1</ele>
        <time>2023-09-28T12:20:37Z</time>
      </trkpt>
      <trkpt lat="44.81593" lon="5.86091">
        <ele>917.2</ele>
        <time>2023-09-28T12:20:38Z</time>
      </trkpt>
      <trkpt lat="44.81595" lon="5.8609">
        <ele>917.4</ele>
        <time>2023-09-28T12:20:39Z</time>
      </trkpt>
      <trkpt lat="44.81598" lon="5.86085">
        <ele>917.8</ele>
        <time>2023-09-28T12:20:41Z</time>
      </trkpt>
      <trkpt lat="44.81599" lon="5.86084">
        <ele>917.9</ele>
        <time>2023-09-28T12:20:42Z</time>
      </trkpt>
      <trkpt lat="44.81601" lon="5.86082">
        <ele>918.1</ele>
        <time>2023-09-28T12:20:43Z</time>
      </trkpt>
      <trkpt lat="44.81604" lon="5.86079">
        <ele>918.4</ele>
        <time>2023-09-28T12:20:45Z</time>
      </trkpt>
      <trkpt lat="44.81605" lon="5.86077">
        <ele>918.6</ele>
        <time>2023-09-28T12:20:46Z</time>
      </trkpt>
      <trkpt lat="44.81606" lon="5.86076">
        <ele>918.7</ele>
        <time>2023-09-28T12:20:47Z</time>
      </trkpt>
      <trkpt lat="44.81608" lon="5.86072">
        <ele>918.9</ele>
        <time>2023-09-28T12:20:48Z</time>
      </trkpt>
      <trkpt lat="44.81609" lon="5.86071">
        <ele>919</ele>
        <time>2023-09-28T12:20:49Z</time>
      </trkpt>
      <trkpt lat="44.81611" lon="5.86066">
        <ele>919.4</ele>
        <time>2023-09-28T12:20:51Z</time>
      </trkpt>
      <trkpt lat="44.81612" lon="5.86065">
        <ele>919.5</ele>
        <time>2023-09-28T12:20:52Z</time>
      </trkpt>
      <trkpt lat="44.81613" lon="5.86063">
        <ele>919.6</ele>
        <time>2023-09-28T12:20:53Z</time>
      </trkpt>
      <trkpt lat="44.81615" lon="5.86059">
        <ele>919.9</ele>
        <time>2023-09-28T12:20:55Z</time>
      </trkpt>
      <trkpt lat="44.81617" lon="5.86056">
        <ele>920.2</ele>
        <time>2023-09-28T12:20:57Z</time>
      </trkpt>
      <trkpt lat="44.81618" lon="5.86054">
        <ele>920.3</ele>
        <time>2023-09-28T12:20:58Z</time>
      </trkpt>
      <trkpt lat="44.81621" lon="5.86052">
        <ele>920.6</ele>
        <time>2023-09-28T12:21:00Z</time>
      </trkpt>
      <trkpt lat="44.81622" lon="5.86048">
        <ele>920.8</ele>
        <time>2023-09-28T12:21:01Z</time>
      </trkpt>
      <trkpt lat="44.81623" lon="5.86047">
        <ele>920.9</ele>
        <time>2023-09-28T12:21:02Z</time>
      </trkpt>
      <trkpt lat="44.81626" lon="5.86042">
        <ele>921.3</ele>
        <time>2023-09-28T12:21:04Z</time>
      </trkpt>
      <trkpt lat="44.81626" lon="5.8604">
        <ele>921.4</ele>
        <time>2023-09-28T12:21:06Z</time>
      </trkpt>
      <trkpt lat="44.81627" lon="5.86039">
        <ele>921.5</ele>
        <time>2023-09-28T12:21:07Z</time>
      </trkpt>
      <trkpt lat="44.81628" lon="5.86038">
        <ele>921.6</ele>
        <time>2023-09-28T12:21:08Z</time>
      </trkpt>
      <trkpt lat="44.8163" lon="5.86036">
        <ele>921.8</ele>
        <time>2023-09-28T12:21:09Z</time>
      </trkpt>
      <trkpt lat="44.8163" lon="5.86034">
        <ele>921.9</ele>
        <time>2023-09-28T12:21:10Z</time>
      </trkpt>
      <trkpt lat="44.81631" lon="5.86031">
        <ele>922.1</ele>
        <time>2023-09-28T12:21:11Z</time>
      </trkpt>
      <trkpt lat="44.81633" lon="5.86028">
        <ele>922.4</ele>
        <time>2023-09-28T12:21:12Z</time>
      </trkpt>
      <trkpt lat="44.81634" lon="5.86026">
        <ele>922.5</ele>
        <time>2023-09-28T12:21:14Z</time>
      </trkpt>
      <trkpt lat="44.81636" lon="5.86025">
        <ele>922.7</ele>
        <time>2023-09-28T12:21:15Z</time>
      </trkpt>
      <trkpt lat="44.81637" lon="5.86023">
        <ele>922.8</ele>
        <time>2023-09-28T12:21:16Z</time>
      </trkpt>
      <trkpt lat="44.81639" lon="5.8602">
        <ele>923.1</ele>
        <time>2023-09-28T12:21:17Z</time>
      </trkpt>
      <trkpt lat="44.8164" lon="5.86018">
        <ele>923.2</ele>
        <time>2023-09-28T12:21:19Z</time>
      </trkpt>
      <trkpt lat="44.81641" lon="5.86017">
        <ele>923.3</ele>
        <time>2023-09-28T12:21:20Z</time>
      </trkpt>
      <trkpt lat="44.81642" lon="5.86015">
        <ele>923.4</ele>
        <time>2023-09-28T12:21:21Z</time>
      </trkpt>
      <trkpt lat="44.81643" lon="5.86012">
        <ele>923.7</ele>
        <time>2023-09-28T12:21:22Z</time>
      </trkpt>
      <trkpt lat="44.81644" lon="5.86011">
        <ele>923.7</ele>
        <time>2023-09-28T12:21:23Z</time>
      </trkpt>
      <trkpt lat="44.81646" lon="5.86008">
        <ele>924</ele>
        <time>2023-09-28T12:21:24Z</time>
      </trkpt>
      <trkpt lat="44.81647" lon="5.86007">
        <ele>924.1</ele>
        <time>2023-09-28T12:21:25Z</time>
      </trkpt>
      <trkpt lat="44.81649" lon="5.86003">
        <ele>924.4</ele>
        <time>2023-09-28T12:21:27Z</time>
      </trkpt>
      <trkpt lat="44.8165" lon="5.86001">
        <ele>924.5</ele>
        <time>2023-09-28T12:21:28Z</time>
      </trkpt>
      <trkpt lat="44.81651" lon="5.85999">
        <ele>924.6</ele>
        <time>2023-09-28T12:21:29Z</time>
      </trkpt>
      <trkpt lat="44.81652" lon="5.85996">
        <ele>924.8</ele>
        <time>2023-09-28T12:21:31Z</time>
      </trkpt>
      <trkpt lat="44.81654" lon="5.85993">
        <ele>925.1</ele>
        <time>2023-09-28T12:21:32Z</time>
      </trkpt>
      <trkpt lat="44.81655" lon="5.85991">
        <ele>925.3</ele>
        <time>2023-09-28T12:21:33Z</time>
      </trkpt>
      <trkpt lat="44.81656" lon="5.85988">
        <ele>925.5</ele>
        <time>2023-09-28T12:21:35Z</time>
      </trkpt>
      <trkpt lat="44.81658" lon="5.85984">
        <ele>925.7</ele>
        <time>2023-09-28T12:21:36Z</time>
      </trkpt>
      <trkpt lat="44.81658" lon="5.85983">
        <ele>925.8</ele>
        <time>2023-09-28T12:21:37Z</time>
      </trkpt>
      <trkpt lat="44.8166" lon="5.8598">
        <ele>926.1</ele>
        <time>2023-09-28T12:21:38Z</time>
      </trkpt>
      <trkpt lat="44.8166" lon="5.85979">
        <ele>926.2</ele>
        <time>2023-09-28T12:21:39Z</time>
      </trkpt>
      <trkpt lat="44.81661" lon="5.85975">
        <ele>926.4</ele>
        <time>2023-09-28T12:21:40Z</time>
      </trkpt>
      <trkpt lat="44.81661" lon="5.85974">
        <ele>926.5</ele>
        <time>2023-09-28T12:21:41Z</time>
      </trkpt>
      <trkpt lat="44.81662" lon="5.8597">
        <ele>926.8</ele>
        <time>2023-09-28T12:21:42Z</time>
      </trkpt>
      <trkpt lat="44.81663" lon="5.85968">
        <ele>926.9</ele>
        <time>2023-09-28T12:21:43Z</time>
      </trkpt>
      <trkpt lat="44.81665" lon="5.85965">
        <ele>927.2</ele>
        <time>2023-09-28T12:21:45Z</time>
      </trkpt>
      <trkpt lat="44.81665" lon="5.85964">
        <ele>927.3</ele>
        <time>2023-09-28T12:21:46Z</time>
      </trkpt>
      <trkpt lat="44.81666" lon="5.85961">
        <ele>927.5</ele>
        <time>2023-09-28T12:21:47Z</time>
      </trkpt>
      <trkpt lat="44.81667" lon="5.85959">
        <ele>927.7</ele>
        <time>2023-09-28T12:21:48Z</time>
      </trkpt>
      <trkpt lat="44.81668" lon="5.85955">
        <ele>928.1</ele>
        <time>2023-09-28T12:21:49Z</time>
      </trkpt>
      <trkpt lat="44.81669" lon="5.85954">
        <ele>928.1</ele>
        <time>2023-09-28T12:21:50Z</time>
      </trkpt>
      <trkpt lat="44.8167" lon="5.85953">
        <ele>928.3</ele>
        <time>2023-09-28T12:21:51Z</time>
      </trkpt>
      <trkpt lat="44.81671" lon="5.85948">
        <ele>928.7</ele>
        <time>2023-09-28T12:21:53Z</time>
      </trkpt>
      <trkpt lat="44.81672" lon="5.85944">
        <ele>929</ele>
        <time>2023-09-28T12:21:54Z</time>
      </trkpt>
      <trkpt lat="44.81672" lon="5.85943">
        <ele>929.1</ele>
        <time>2023-09-28T12:21:55Z</time>
      </trkpt>
      <trkpt lat="44.81673" lon="5.8594">
        <ele>929.3</ele>
        <time>2023-09-28T12:21:56Z</time>
      </trkpt>
      <trkpt lat="44.81674" lon="5.85936">
        <ele>929.6</ele>
        <time>2023-09-28T12:21:58Z</time>
      </trkpt>
      <trkpt lat="44.81675" lon="5.85932">
        <ele>929.9</ele>
        <time>2023-09-28T12:21:59Z</time>
      </trkpt>
      <trkpt lat="44.81675" lon="5.8593">
        <ele>930</ele>
        <time>2023-09-28T12:22:00Z</time>
      </trkpt>
      <trkpt lat="44.81677" lon="5.85924">
        <ele>930.5</ele>
        <time>2023-09-28T12:22:02Z</time>
      </trkpt>
      <trkpt lat="44.81677" lon="5.85922">
        <ele>930.7</ele>
        <time>2023-09-28T12:22:03Z</time>
      </trkpt>
      <trkpt lat="44.81678" lon="5.8592">
        <ele>930.8</ele>
        <time>2023-09-28T12:22:04Z</time>
      </trkpt>
      <trkpt lat="44.81679" lon="5.85914">
        <ele>931.2</ele>
        <time>2023-09-28T12:22:06Z</time>
      </trkpt>
      <trkpt lat="44.8168" lon="5.85912">
        <ele>931.3</ele>
        <time>2023-09-28T12:22:07Z</time>
      </trkpt>
      <trkpt lat="44.8168" lon="5.8591">
        <ele>931.5</ele>
        <time>2023-09-28T12:22:08Z</time>
      </trkpt>
      <trkpt lat="44.81683" lon="5.85906">
        <ele>931.9</ele>
        <time>2023-09-28T12:22:10Z</time>
      </trkpt>
      <trkpt lat="44.81684" lon="5.85905">
        <ele>932</ele>
        <time>2023-09-28T12:22:11Z</time>
      </trkpt>
      <trkpt lat="44.81685" lon="5.85904">
        <ele>932.1</ele>
        <time>2023-09-28T12:22:12Z</time>
      </trkpt>
      <trkpt lat="44.81689" lon="5.85905">
        <ele>932.4</ele>
        <time>2023-09-28T12:22:14Z</time>
      </trkpt>
      <trkpt lat="44.81692" lon="5.85907">
        <ele>932.6</ele>
        <time>2023-09-28T12:22:16Z</time>
      </trkpt>
      <trkpt lat="44.81695" lon="5.8591">
        <ele>932.8</ele>
        <time>2023-09-28T12:22:17Z</time>
      </trkpt>
      <trkpt lat="44.81697" lon="5.85914">
        <ele>933</ele>
        <time>2023-09-28T12:22:19Z</time>
      </trkpt>
      <trkpt lat="44.817" lon="5.85918">
        <ele>933.2</ele>
        <time>2023-09-28T12:22:20Z</time>
      </trkpt>
      <trkpt lat="44.81701" lon="5.85919">
        <ele>933.3</ele>
        <time>2023-09-28T12:22:21Z</time>
      </trkpt>
      <trkpt lat="44.81703" lon="5.85925">
        <ele>933.5</ele>
        <time>2023-09-28T12:22:23Z</time>
      </trkpt>
      <trkpt lat="44.81704" lon="5.85928">
        <ele>933.7</ele>
        <time>2023-09-28T12:22:24Z</time>
      </trkpt>
      <trkpt lat="44.81706" lon="5.85933">
        <ele>933.9</ele>
        <time>2023-09-28T12:22:25Z</time>
      </trkpt>
      <trkpt lat="44.81707" lon="5.85934">
        <ele>933.9</ele>
        <time>2023-09-28T12:22:26Z</time>
      </trkpt>
      <trkpt lat="44.81709" lon="5.85937">
        <ele>934</ele>
        <time>2023-09-28T12:22:27Z</time>
      </trkpt>
      <trkpt lat="44.81711" lon="5.85941">
        <ele>934.2</ele>
        <time>2023-09-28T12:22:29Z</time>
      </trkpt>
      <trkpt lat="44.81713" lon="5.85944">
        <ele>934.4</ele>
        <time>2023-09-28T12:22:30Z</time>
      </trkpt>
      <trkpt lat="44.81714" lon="5.85946">
        <ele>934.4</ele>
        <time>2023-09-28T12:22:31Z</time>
      </trkpt>
      <trkpt lat="44.81717" lon="5.8595">
        <ele>934.6</ele>
        <time>2023-09-28T12:22:32Z</time>
      </trkpt>
      <trkpt lat="44.81718" lon="5.85951">
        <ele>934.7</ele>
        <time>2023-09-28T12:22:33Z</time>
      </trkpt>
      <trkpt lat="44.81719" lon="5.85954">
        <ele>934.8</ele>
        <time>2023-09-28T12:22:34Z</time>
      </trkpt>
      <trkpt lat="44.81723" lon="5.85958">
        <ele>935.1</ele>
        <time>2023-09-28T12:22:36Z</time>
      </trkpt>
      <trkpt lat="44.81725" lon="5.85961">
        <ele>935.2</ele>
        <time>2023-09-28T12:22:38Z</time>
      </trkpt>
      <trkpt lat="44.81727" lon="5.85965">
        <ele>935.4</ele>
        <time>2023-09-28T12:22:39Z</time>
      </trkpt>
      <trkpt lat="44.81728" lon="5.85966">
        <ele>935.5</ele>
        <time>2023-09-28T12:22:40Z</time>
      </trkpt>
      <trkpt lat="44.8173" lon="5.85968">
        <ele>935.7</ele>
        <time>2023-09-28T12:22:41Z</time>
      </trkpt>
      <trkpt lat="44.81732" lon="5.8597">
        <ele>935.8</ele>
        <time>2023-09-28T12:22:42Z</time>
      </trkpt>
      <trkpt lat="44.81733" lon="5.85973">
        <ele>936</ele>
        <time>2023-09-28T12:22:44Z</time>
      </trkpt>
      <trkpt lat="44.81736" lon="5.85976">
        <ele>936.2</ele>
        <time>2023-09-28T12:22:45Z</time>
      </trkpt>
      <trkpt lat="44.81737" lon="5.85977">
        <ele>936.3</ele>
        <time>2023-09-28T12:22:46Z</time>
      </trkpt>
      <trkpt lat="44.8174" lon="5.85979">
        <ele>936.5</ele>
        <time>2023-09-28T12:22:47Z</time>
      </trkpt>
      <trkpt lat="44.81742" lon="5.85982">
        <ele>936.7</ele>
        <time>2023-09-28T12:22:48Z</time>
      </trkpt>
      <trkpt lat="44.81743" lon="5.85984">
        <ele>936.8</ele>
        <time>2023-09-28T12:22:49Z</time>
      </trkpt>
      <trkpt lat="44.81746" lon="5.85987">
        <ele>937</ele>
        <time>2023-09-28T12:22:50Z</time>
      </trkpt>
      <trkpt lat="44.81747" lon="5.85988">
        <ele>937.1</ele>
        <time>2023-09-28T12:22:51Z</time>
      </trkpt>
      <trkpt lat="44.81749" lon="5.85991">
        <ele>937.3</ele>
        <time>2023-09-28T12:22:53Z</time>
      </trkpt>
      <trkpt lat="44.81752" lon="5.85994">
        <ele>937.6</ele>
        <time>2023-09-28T12:22:54Z</time>
      </trkpt>
      <trkpt lat="44.81754" lon="5.85996">
        <ele>937.8</ele>
        <time>2023-09-28T12:22:55Z</time>
      </trkpt>
      <trkpt lat="44.81757" lon="5.85999">
        <ele>938</ele>
        <time>2023-09-28T12:22:57Z</time>
      </trkpt>
      <trkpt lat="44.81759" lon="5.86001">
        <ele>938.3</ele>
        <time>2023-09-28T12:22:58Z</time>
      </trkpt>
      <trkpt lat="44.81762" lon="5.86003">
        <ele>938.5</ele>
        <time>2023-09-28T12:22:59Z</time>
      </trkpt>
      <trkpt lat="44.81764" lon="5.86006">
        <ele>938.7</ele>
        <time>2023-09-28T12:23:00Z</time>
      </trkpt>
      <trkpt lat="44.81767" lon="5.86008">
        <ele>938.9</ele>
        <time>2023-09-28T12:23:01Z</time>
      </trkpt>
      <trkpt lat="44.81768" lon="5.86009">
        <ele>939</ele>
        <time>2023-09-28T12:23:02Z</time>
      </trkpt>
      <trkpt lat="44.81771" lon="5.86012">
        <ele>939.3</ele>
        <time>2023-09-28T12:23:03Z</time>
      </trkpt>
      <trkpt lat="44.81772" lon="5.86013">
        <ele>939.4</ele>
        <time>2023-09-28T12:23:04Z</time>
      </trkpt>
      <trkpt lat="44.81774" lon="5.86015">
        <ele>939.6</ele>
        <time>2023-09-28T12:23:05Z</time>
      </trkpt>
      <trkpt lat="44.81776" lon="5.86018">
        <ele>939.8</ele>
        <time>2023-09-28T12:23:07Z</time>
      </trkpt>
      <trkpt lat="44.81779" lon="5.8602">
        <ele>940</ele>
        <time>2023-09-28T12:23:08Z</time>
      </trkpt>
      <trkpt lat="44.81781" lon="5.86022">
        <ele>940.2</ele>
        <time>2023-09-28T12:23:09Z</time>
      </trkpt>
      <trkpt lat="44.81784" lon="5.86024">
        <ele>940.5</ele>
        <time>2023-09-28T12:23:10Z</time>
      </trkpt>
      <trkpt lat="44.81785" lon="5.86025">
        <ele>940.6</ele>
        <time>2023-09-28T12:23:11Z</time>
      </trkpt>
      <trkpt lat="44.81788" lon="5.86026">
        <ele>940.8</ele>
        <time>2023-09-28T12:23:12Z</time>
      </trkpt>
      <trkpt lat="44.81789" lon="5.86027">
        <ele>940.9</ele>
        <time>2023-09-28T12:23:13Z</time>
      </trkpt>
      <trkpt lat="44.81792" lon="5.86028">
        <ele>941.1</ele>
        <time>2023-09-28T12:23:15Z</time>
      </trkpt>
      <trkpt lat="44.81796" lon="5.86029">
        <ele>941.4</ele>
        <time>2023-09-28T12:23:16Z</time>
      </trkpt>
      <trkpt lat="44.81798" lon="5.8603">
        <ele>941.5</ele>
        <time>2023-09-28T12:23:17Z</time>
      </trkpt>
      <trkpt lat="44.81801" lon="5.8603">
        <ele>941.7</ele>
        <time>2023-09-28T12:23:19Z</time>
      </trkpt>
      <trkpt lat="44.81805" lon="5.86032">
        <ele>942</ele>
        <time>2023-09-28T12:23:20Z</time>
      </trkpt>
      <trkpt lat="44.81807" lon="5.86033">
        <ele>942.1</ele>
        <time>2023-09-28T12:23:21Z</time>
      </trkpt>
      <trkpt lat="44.81811" lon="5.86033">
        <ele>942.3</ele>
        <time>2023-09-28T12:23:23Z</time>
      </trkpt>
      <trkpt lat="44.81814" lon="5.86033">
        <ele>942.5</ele>
        <time>2023-09-28T12:23:24Z</time>
      </trkpt>
      <trkpt lat="44.81818" lon="5.86034">
        <ele>942.7</ele>
        <time>2023-09-28T12:23:25Z</time>
      </trkpt>
      <trkpt lat="44.81819" lon="5.86034">
        <ele>942.8</ele>
        <time>2023-09-28T12:23:26Z</time>
      </trkpt>
      <trkpt lat="44.81822" lon="5.86033">
        <ele>942.9</ele>
        <time>2023-09-28T12:23:27Z</time>
      </trkpt>
      <trkpt lat="44.81826" lon="5.86035">
        <ele>943.1</ele>
        <time>2023-09-28T12:23:28Z</time>
      </trkpt>
      <trkpt lat="44.81828" lon="5.86035">
        <ele>943.3</ele>
        <time>2023-09-28T12:23:29Z</time>
      </trkpt>
      <trkpt lat="44.81833" lon="5.86036">
        <ele>943.6</ele>
        <time>2023-09-28T12:23:31Z</time>
      </trkpt>
      <trkpt lat="44.81835" lon="5.86038">
        <ele>943.8</ele>
        <time>2023-09-28T12:23:32Z</time>
      </trkpt>
      <trkpt lat="44.81839" lon="5.86039">
        <ele>944</ele>
        <time>2023-09-28T12:23:33Z</time>
      </trkpt>
      <trkpt lat="44.8184" lon="5.8604">
        <ele>944.1</ele>
        <time>2023-09-28T12:23:34Z</time>
      </trkpt>
      <trkpt lat="44.81844" lon="5.86044">
        <ele>944.4</ele>
        <time>2023-09-28T12:23:36Z</time>
      </trkpt>
      <trkpt lat="44.81846" lon="5.86047">
        <ele>944.6</ele>
        <time>2023-09-28T12:23:37Z</time>
      </trkpt>
      <trkpt lat="44.81847" lon="5.86048">
        <ele>944.7</ele>
        <time>2023-09-28T12:23:38Z</time>
      </trkpt>
      <trkpt lat="44.8185" lon="5.86052">
        <ele>945</ele>
        <time>2023-09-28T12:23:40Z</time>
      </trkpt>
      <trkpt lat="44.81853" lon="5.86055">
        <ele>945.2</ele>
        <time>2023-09-28T12:23:41Z</time>
      </trkpt>
      <trkpt lat="44.81854" lon="5.86056">
        <ele>945.3</ele>
        <time>2023-09-28T12:23:42Z</time>
      </trkpt>
      <trkpt lat="44.81856" lon="5.86058">
        <ele>945.5</ele>
        <time>2023-09-28T12:23:43Z</time>
      </trkpt>
      <trkpt lat="44.81858" lon="5.86061">
        <ele>945.7</ele>
        <time>2023-09-28T12:23:45Z</time>
      </trkpt>
      <trkpt lat="44.81861" lon="5.86063">
        <ele>945.9</ele>
        <time>2023-09-28T12:23:46Z</time>
      </trkpt>
      <trkpt lat="44.81864" lon="5.86065">
        <ele>946.1</ele>
        <time>2023-09-28T12:23:47Z</time>
      </trkpt>
      <trkpt lat="44.81865" lon="5.86066">
        <ele>946.2</ele>
        <time>2023-09-28T12:23:48Z</time>
      </trkpt>
      <trkpt lat="44.81868" lon="5.86069">
        <ele>946.4</ele>
        <time>2023-09-28T12:23:49Z</time>
      </trkpt>
      <trkpt lat="44.81869" lon="5.86069">
        <ele>946.5</ele>
        <time>2023-09-28T12:23:50Z</time>
      </trkpt>
      <trkpt lat="44.81872" lon="5.8607">
        <ele>946.7</ele>
        <time>2023-09-28T12:23:51Z</time>
      </trkpt>
      <trkpt lat="44.81873" lon="5.86071">
        <ele>946.7</ele>
        <time>2023-09-28T12:23:52Z</time>
      </trkpt>
      <trkpt lat="44.81876" lon="5.86072">
        <ele>946.9</ele>
        <time>2023-09-28T12:23:54Z</time>
      </trkpt>
      <trkpt lat="44.81879" lon="5.86072">
        <ele>947.1</ele>
        <time>2023-09-28T12:23:55Z</time>
      </trkpt>
      <trkpt lat="44.81883" lon="5.86072">
        <ele>947.3</ele>
        <time>2023-09-28T12:23:57Z</time>
      </trkpt>
      <trkpt lat="44.81887" lon="5.8607">
        <ele>947.3</ele>
        <time>2023-09-28T12:23:58Z</time>
      </trkpt>
      <trkpt lat="44.81888" lon="5.86069">
        <ele>947.3</ele>
        <time>2023-09-28T12:23:59Z</time>
      </trkpt>
      <trkpt lat="44.81891" lon="5.86065">
        <ele>947.3</ele>
        <time>2023-09-28T12:24:01Z</time>
      </trkpt>
      <trkpt lat="44.81894" lon="5.86064">
        <ele>947.3</ele>
        <time>2023-09-28T12:24:02Z</time>
      </trkpt>
      <trkpt lat="44.81898" lon="5.86061">
        <ele>947.2</ele>
        <time>2023-09-28T12:24:03Z</time>
      </trkpt>
      <trkpt lat="44.81898" lon="5.86059">
        <ele>947.2</ele>
        <time>2023-09-28T12:24:04Z</time>
      </trkpt>
      <trkpt lat="44.81901" lon="5.86055">
        <ele>947.2</ele>
        <time>2023-09-28T12:24:06Z</time>
      </trkpt>
      <trkpt lat="44.81903" lon="5.86052">
        <ele>947.2</ele>
        <time>2023-09-28T12:24:07Z</time>
      </trkpt>
      <trkpt lat="44.81906" lon="5.86048">
        <ele>947.2</ele>
        <time>2023-09-28T12:24:08Z</time>
      </trkpt>
      <trkpt lat="44.81907" lon="5.86045">
        <ele>947.2</ele>
        <time>2023-09-28T12:24:09Z</time>
      </trkpt>
      <trkpt lat="44.81909" lon="5.86041">
        <ele>947.2</ele>
        <time>2023-09-28T12:24:10Z</time>
      </trkpt>
      <trkpt lat="44.8191" lon="5.86038">
        <ele>947.2</ele>
        <time>2023-09-28T12:24:11Z</time>
      </trkpt>
      <trkpt lat="44.81911" lon="5.86034">
        <ele>947.2</ele>
        <time>2023-09-28T12:24:12Z</time>
      </trkpt>
      <trkpt lat="44.81912" lon="5.86029">
        <ele>947.2</ele>
        <time>2023-09-28T12:24:14Z</time>
      </trkpt>
      <trkpt lat="44.81913" lon="5.86025">
        <ele>947.2</ele>
        <time>2023-09-28T12:24:15Z</time>
      </trkpt>
      <trkpt lat="44.81914" lon="5.86021">
        <ele>947.2</ele>
        <time>2023-09-28T12:24:16Z</time>
      </trkpt>
      <trkpt lat="44.81915" lon="5.86017">
        <ele>947.2</ele>
        <time>2023-09-28T12:24:17Z</time>
      </trkpt>
      <trkpt lat="44.81916" lon="5.86012">
        <ele>947.2</ele>
        <time>2023-09-28T12:24:18Z</time>
      </trkpt>
      <trkpt lat="44.81917" lon="5.86007">
        <ele>947.1</ele>
        <time>2023-09-28T12:24:19Z</time>
      </trkpt>
      <trkpt lat="44.81918" lon="5.86001">
        <ele>947.1</ele>
        <time>2023-09-28T12:24:20Z</time>
      </trkpt>
      <trkpt lat="44.81918" lon="5.85995">
        <ele>947.1</ele>
        <time>2023-09-28T12:24:21Z</time>
      </trkpt>
      <trkpt lat="44.81919" lon="5.85984">
        <ele>947.1</ele>
        <time>2023-09-28T12:24:23Z</time>
      </trkpt>
      <trkpt lat="44.8192" lon="5.85977">
        <ele>947</ele>
        <time>2023-09-28T12:24:25Z</time>
      </trkpt>
      <trkpt lat="44.8192" lon="5.85969">
        <ele>946.9</ele>
        <time>2023-09-28T12:24:26Z</time>
      </trkpt>
      <trkpt lat="44.81921" lon="5.85964">
        <ele>946.9</ele>
        <time>2023-09-28T12:24:28Z</time>
      </trkpt>
      <trkpt lat="44.81921" lon="5.85957">
        <ele>946.8</ele>
        <time>2023-09-28T12:24:29Z</time>
      </trkpt>
      <trkpt lat="44.81921" lon="5.85951">
        <ele>946.7</ele>
        <time>2023-09-28T12:24:30Z</time>
      </trkpt>
      <trkpt lat="44.81921" lon="5.85945">
        <ele>946.6</ele>
        <time>2023-09-28T12:24:31Z</time>
      </trkpt>
      <trkpt lat="44.81921" lon="5.85937">
        <ele>946.4</ele>
        <time>2023-09-28T12:24:33Z</time>
      </trkpt>
      <trkpt lat="44.81922" lon="5.85925">
        <ele>946.2</ele>
        <time>2023-09-28T12:24:34Z</time>
      </trkpt>
      <trkpt lat="44.81922" lon="5.85917">
        <ele>946</ele>
        <time>2023-09-28T12:24:35Z</time>
      </trkpt>
      <trkpt lat="44.81923" lon="5.8591">
        <ele>945.9</ele>
        <time>2023-09-28T12:24:36Z</time>
      </trkpt>
      <trkpt lat="44.81924" lon="5.85903">
        <ele>945.8</ele>
        <time>2023-09-28T12:24:37Z</time>
      </trkpt>
      <trkpt lat="44.81925" lon="5.85895">
        <ele>945.6</ele>
        <time>2023-09-28T12:24:38Z</time>
      </trkpt>
      <trkpt lat="44.81926" lon="5.85887">
        <ele>945.4</ele>
        <time>2023-09-28T12:24:39Z</time>
      </trkpt>
      <trkpt lat="44.81928" lon="5.85879">
        <ele>945.3</ele>
        <time>2023-09-28T12:24:40Z</time>
      </trkpt>
      <trkpt lat="44.81929" lon="5.85871">
        <ele>945.1</ele>
        <time>2023-09-28T12:24:41Z</time>
      </trkpt>
      <trkpt lat="44.81932" lon="5.85864">
        <ele>945</ele>
        <time>2023-09-28T12:24:42Z</time>
      </trkpt>
      <trkpt lat="44.81934" lon="5.85856">
        <ele>944.8</ele>
        <time>2023-09-28T12:24:43Z</time>
      </trkpt>
      <trkpt lat="44.81936" lon="5.85849">
        <ele>944.6</ele>
        <time>2023-09-28T12:24:44Z</time>
      </trkpt>
      <trkpt lat="44.81938" lon="5.85841">
        <ele>944.5</ele>
        <time>2023-09-28T12:24:45Z</time>
      </trkpt>
      <trkpt lat="44.81941" lon="5.85833">
        <ele>944.3</ele>
        <time>2023-09-28T12:24:46Z</time>
      </trkpt>
      <trkpt lat="44.81944" lon="5.85825">
        <ele>944.1</ele>
        <time>2023-09-28T12:24:47Z</time>
      </trkpt>
      <trkpt lat="44.81947" lon="5.85818">
        <ele>944</ele>
        <time>2023-09-28T12:24:48Z</time>
      </trkpt>
      <trkpt lat="44.81949" lon="5.8581">
        <ele>943.8</ele>
        <time>2023-09-28T12:24:49Z</time>
      </trkpt>
      <trkpt lat="44.81952" lon="5.85803">
        <ele>943.6</ele>
        <time>2023-09-28T12:24:50Z</time>
      </trkpt>
      <trkpt lat="44.81955" lon="5.85796">
        <ele>943.4</ele>
        <time>2023-09-28T12:24:51Z</time>
      </trkpt>
      <trkpt lat="44.81958" lon="5.85788">
        <ele>943.2</ele>
        <time>2023-09-28T12:24:52Z</time>
      </trkpt>
      <trkpt lat="44.81961" lon="5.8578">
        <ele>943</ele>
        <time>2023-09-28T12:24:53Z</time>
      </trkpt>
      <trkpt lat="44.81964" lon="5.85772">
        <ele>942.9</ele>
        <time>2023-09-28T12:24:54Z</time>
      </trkpt>
      <trkpt lat="44.81968" lon="5.85763">
        <ele>942.7</ele>
        <time>2023-09-28T12:24:55Z</time>
      </trkpt>
      <trkpt lat="44.81971" lon="5.85755">
        <ele>942.5</ele>
        <time>2023-09-28T12:24:56Z</time>
      </trkpt>
      <trkpt lat="44.81974" lon="5.85746">
        <ele>942.4</ele>
        <time>2023-09-28T12:24:57Z</time>
      </trkpt>
      <trkpt lat="44.81977" lon="5.85737">
        <ele>942.3</ele>
        <time>2023-09-28T12:24:58Z</time>
      </trkpt>
      <trkpt lat="44.81979" lon="5.85728">
        <ele>942.1</ele>
        <time>2023-09-28T12:24:59Z</time>
      </trkpt>
      <trkpt lat="44.8198" lon="5.85719">
        <ele>942</ele>
        <time>2023-09-28T12:25:00Z</time>
      </trkpt>
      <trkpt lat="44.81981" lon="5.8571">
        <ele>941.8</ele>
        <time>2023-09-28T12:25:01Z</time>
      </trkpt>
      <trkpt lat="44.8198" lon="5.85702">
        <ele>941.7</ele>
        <time>2023-09-28T12:25:02Z</time>
      </trkpt>
      <trkpt lat="44.8198" lon="5.85693">
        <ele>941.6</ele>
        <time>2023-09-28T12:25:03Z</time>
      </trkpt>
      <trkpt lat="44.81981" lon="5.85684">
        <ele>941.5</ele>
        <time>2023-09-28T12:25:04Z</time>
      </trkpt>
      <trkpt lat="44.81984" lon="5.85675">
        <ele>941.3</ele>
        <time>2023-09-28T12:25:05Z</time>
      </trkpt>
      <trkpt lat="44.81986" lon="5.85665">
        <ele>941.2</ele>
        <time>2023-09-28T12:25:06Z</time>
      </trkpt>
      <trkpt lat="44.81989" lon="5.85656">
        <ele>941.2</ele>
        <time>2023-09-28T12:25:07Z</time>
      </trkpt>
      <trkpt lat="44.81993" lon="5.85647">
        <ele>941.1</ele>
        <time>2023-09-28T12:25:08Z</time>
      </trkpt>
      <trkpt lat="44.81997" lon="5.8564">
        <ele>941.1</ele>
        <time>2023-09-28T12:25:09Z</time>
      </trkpt>
      <trkpt lat="44.82002" lon="5.85633">
        <ele>941.1</ele>
        <time>2023-09-28T12:25:10Z</time>
      </trkpt>
      <trkpt lat="44.82008" lon="5.85628">
        <ele>941</ele>
        <time>2023-09-28T12:25:11Z</time>
      </trkpt>
      <trkpt lat="44.82014" lon="5.85623">
        <ele>941</ele>
        <time>2023-09-28T12:25:12Z</time>
      </trkpt>
      <trkpt lat="44.82021" lon="5.8562">
        <ele>940.9</ele>
        <time>2023-09-28T12:25:13Z</time>
      </trkpt>
      <trkpt lat="44.82027" lon="5.85616">
        <ele>940.7</ele>
        <time>2023-09-28T12:25:14Z</time>
      </trkpt>
      <trkpt lat="44.82033" lon="5.85612">
        <ele>940.6</ele>
        <time>2023-09-28T12:25:15Z</time>
      </trkpt>
      <trkpt lat="44.82039" lon="5.85607">
        <ele>940.4</ele>
        <time>2023-09-28T12:25:16Z</time>
      </trkpt>
      <trkpt lat="44.82045" lon="5.85601">
        <ele>940.2</ele>
        <time>2023-09-28T12:25:17Z</time>
      </trkpt>
      <trkpt lat="44.8205" lon="5.85595">
        <ele>940.1</ele>
        <time>2023-09-28T12:25:18Z</time>
      </trkpt>
      <trkpt lat="44.82054" lon="5.85587">
        <ele>940</ele>
        <time>2023-09-28T12:25:19Z</time>
      </trkpt>
      <trkpt lat="44.82059" lon="5.8558">
        <ele>939.9</ele>
        <time>2023-09-28T12:25:20Z</time>
      </trkpt>
      <trkpt lat="44.82064" lon="5.85573">
        <ele>939.8</ele>
        <time>2023-09-28T12:25:21Z</time>
      </trkpt>
      <trkpt lat="44.82069" lon="5.85565">
        <ele>939.8</ele>
        <time>2023-09-28T12:25:22Z</time>
      </trkpt>
      <trkpt lat="44.82073" lon="5.85557">
        <ele>939.7</ele>
        <time>2023-09-28T12:25:23Z</time>
      </trkpt>
      <trkpt lat="44.82078" lon="5.85549">
        <ele>939.7</ele>
        <time>2023-09-28T12:25:24Z</time>
      </trkpt>
      <trkpt lat="44.82082" lon="5.85541">
        <ele>939.6</ele>
        <time>2023-09-28T12:25:25Z</time>
      </trkpt>
      <trkpt lat="44.82086" lon="5.85534">
        <ele>939.5</ele>
        <time>2023-09-28T12:25:26Z</time>
      </trkpt>
      <trkpt lat="44.8209" lon="5.85526">
        <ele>939.4</ele>
        <time>2023-09-28T12:25:27Z</time>
      </trkpt>
      <trkpt lat="44.82094" lon="5.85518">
        <ele>939.2</ele>
        <time>2023-09-28T12:25:28Z</time>
      </trkpt>
      <trkpt lat="44.82098" lon="5.85509">
        <ele>939.1</ele>
        <time>2023-09-28T12:25:29Z</time>
      </trkpt>
      <trkpt lat="44.82101" lon="5.85501">
        <ele>938.9</ele>
        <time>2023-09-28T12:25:30Z</time>
      </trkpt>
      <trkpt lat="44.82103" lon="5.85491">
        <ele>938.8</ele>
        <time>2023-09-28T12:25:31Z</time>
      </trkpt>
      <trkpt lat="44.82105" lon="5.85482">
        <ele>938.6</ele>
        <time>2023-09-28T12:25:32Z</time>
      </trkpt>
      <trkpt lat="44.82107" lon="5.85472">
        <ele>938.4</ele>
        <time>2023-09-28T12:25:33Z</time>
      </trkpt>
      <trkpt lat="44.82109" lon="5.85462">
        <ele>938.3</ele>
        <time>2023-09-28T12:25:34Z</time>
      </trkpt>
      <trkpt lat="44.82111" lon="5.85452">
        <ele>938.1</ele>
        <time>2023-09-28T12:25:35Z</time>
      </trkpt>
      <trkpt lat="44.82114" lon="5.85442">
        <ele>938</ele>
        <time>2023-09-28T12:25:36Z</time>
      </trkpt>
      <trkpt lat="44.82117" lon="5.85432">
        <ele>937.8</ele>
        <time>2023-09-28T12:25:37Z</time>
      </trkpt>
      <trkpt lat="44.82121" lon="5.85423">
        <ele>937.6</ele>
        <time>2023-09-28T12:25:38Z</time>
      </trkpt>
      <trkpt lat="44.82125" lon="5.85414">
        <ele>937.4</ele>
        <time>2023-09-28T12:25:39Z</time>
      </trkpt>
      <trkpt lat="44.82132" lon="5.85407">
        <ele>937.2</ele>
        <time>2023-09-28T12:25:40Z</time>
      </trkpt>
      <trkpt lat="44.82138" lon="5.85402">
        <ele>936.9</ele>
        <time>2023-09-28T12:25:41Z</time>
      </trkpt>
      <trkpt lat="44.82144" lon="5.85397">
        <ele>936.7</ele>
        <time>2023-09-28T12:25:42Z</time>
      </trkpt>
      <trkpt lat="44.82151" lon="5.85391">
        <ele>936.5</ele>
        <time>2023-09-28T12:25:43Z</time>
      </trkpt>
      <trkpt lat="44.82158" lon="5.85384">
        <ele>936.2</ele>
        <time>2023-09-28T12:25:44Z</time>
      </trkpt>
      <trkpt lat="44.82164" lon="5.85377">
        <ele>936</ele>
        <time>2023-09-28T12:25:45Z</time>
      </trkpt>
      <trkpt lat="44.82169" lon="5.85371">
        <ele>935.7</ele>
        <time>2023-09-28T12:25:46Z</time>
      </trkpt>
      <trkpt lat="44.82176" lon="5.85364">
        <ele>935.5</ele>
        <time>2023-09-28T12:25:47Z</time>
      </trkpt>
      <trkpt lat="44.82184" lon="5.85357">
        <ele>935.2</ele>
        <time>2023-09-28T12:25:48Z</time>
      </trkpt>
      <trkpt lat="44.82192" lon="5.85351">
        <ele>935</ele>
        <time>2023-09-28T12:25:49Z</time>
      </trkpt>
      <trkpt lat="44.82199" lon="5.85344">
        <ele>934.9</ele>
        <time>2023-09-28T12:25:50Z</time>
      </trkpt>
      <trkpt lat="44.82205" lon="5.85337">
        <ele>934.7</ele>
        <time>2023-09-28T12:25:51Z</time>
      </trkpt>
      <trkpt lat="44.82211" lon="5.8533">
        <ele>934.6</ele>
        <time>2023-09-28T12:25:52Z</time>
      </trkpt>
      <trkpt lat="44.82217" lon="5.85322">
        <ele>934.5</ele>
        <time>2023-09-28T12:25:53Z</time>
      </trkpt>
      <trkpt lat="44.82222" lon="5.85314">
        <ele>934.4</ele>
        <time>2023-09-28T12:25:54Z</time>
      </trkpt>
      <trkpt lat="44.82227" lon="5.85306">
        <ele>934.3</ele>
        <time>2023-09-28T12:25:55Z</time>
      </trkpt>
      <trkpt lat="44.82232" lon="5.85296">
        <ele>934.2</ele>
        <time>2023-09-28T12:25:56Z</time>
      </trkpt>
      <trkpt lat="44.82236" lon="5.85288">
        <ele>934.1</ele>
        <time>2023-09-28T12:25:57Z</time>
      </trkpt>
      <trkpt lat="44.8224" lon="5.85279">
        <ele>934</ele>
        <time>2023-09-28T12:25:58Z</time>
      </trkpt>
      <trkpt lat="44.82244" lon="5.8527">
        <ele>933.9</ele>
        <time>2023-09-28T12:25:59Z</time>
      </trkpt>
      <trkpt lat="44.82249" lon="5.85261">
        <ele>933.7</ele>
        <time>2023-09-28T12:26:00Z</time>
      </trkpt>
      <trkpt lat="44.82252" lon="5.85251">
        <ele>933.5</ele>
        <time>2023-09-28T12:26:01Z</time>
      </trkpt>
      <trkpt lat="44.82256" lon="5.85241">
        <ele>933.4</ele>
        <time>2023-09-28T12:26:02Z</time>
      </trkpt>
      <trkpt lat="44.8226" lon="5.85232">
        <ele>933.2</ele>
        <time>2023-09-28T12:26:03Z</time>
      </trkpt>
      <trkpt lat="44.82263" lon="5.85222">
        <ele>933.1</ele>
        <time>2023-09-28T12:26:04Z</time>
      </trkpt>
      <trkpt lat="44.82267" lon="5.85211">
        <ele>933</ele>
        <time>2023-09-28T12:26:05Z</time>
      </trkpt>
      <trkpt lat="44.8227" lon="5.85201">
        <ele>932.9</ele>
        <time>2023-09-28T12:26:06Z</time>
      </trkpt>
      <trkpt lat="44.82274" lon="5.85191">
        <ele>932.9</ele>
        <time>2023-09-28T12:26:07Z</time>
      </trkpt>
      <trkpt lat="44.82277" lon="5.85182">
        <ele>932.9</ele>
        <time>2023-09-28T12:26:08Z</time>
      </trkpt>
      <trkpt lat="44.82281" lon="5.85171">
        <ele>932.9</ele>
        <time>2023-09-28T12:26:09Z</time>
      </trkpt>
      <trkpt lat="44.82284" lon="5.85161">
        <ele>933</ele>
        <time>2023-09-28T12:26:10Z</time>
      </trkpt>
      <trkpt lat="44.82288" lon="5.85152">
        <ele>933.3</ele>
        <time>2023-09-28T12:26:11Z</time>
      </trkpt>
      <trkpt lat="44.82294" lon="5.85144">
        <ele>933.5</ele>
        <time>2023-09-28T12:26:12Z</time>
      </trkpt>
      <trkpt lat="44.823" lon="5.85138">
        <ele>933.8</ele>
        <time>2023-09-28T12:26:13Z</time>
      </trkpt>
      <trkpt lat="44.82307" lon="5.85133">
        <ele>934.1</ele>
        <time>2023-09-28T12:26:14Z</time>
      </trkpt>
      <trkpt lat="44.82313" lon="5.85131">
        <ele>934.4</ele>
        <time>2023-09-28T12:26:15Z</time>
      </trkpt>
      <trkpt lat="44.8232" lon="5.8513">
        <ele>934.7</ele>
        <time>2023-09-28T12:26:16Z</time>
      </trkpt>
      <trkpt lat="44.82326" lon="5.8513">
        <ele>935</ele>
        <time>2023-09-28T12:26:17Z</time>
      </trkpt>
      <trkpt lat="44.82331" lon="5.85131">
        <ele>935.3</ele>
        <time>2023-09-28T12:26:18Z</time>
      </trkpt>
      <trkpt lat="44.82337" lon="5.85131">
        <ele>935.5</ele>
        <time>2023-09-28T12:26:19Z</time>
      </trkpt>
      <trkpt lat="44.82342" lon="5.85131">
        <ele>935.7</ele>
        <time>2023-09-28T12:26:20Z</time>
      </trkpt>
      <trkpt lat="44.82347" lon="5.85132">
        <ele>935.9</ele>
        <time>2023-09-28T12:26:21Z</time>
      </trkpt>
      <trkpt lat="44.82352" lon="5.85131">
        <ele>936.1</ele>
        <time>2023-09-28T12:26:22Z</time>
      </trkpt>
      <trkpt lat="44.82357" lon="5.8513">
        <ele>936.3</ele>
        <time>2023-09-28T12:26:23Z</time>
      </trkpt>
      <trkpt lat="44.82361" lon="5.85128">
        <ele>936.4</ele>
        <time>2023-09-28T12:26:24Z</time>
      </trkpt>
      <trkpt lat="44.82365" lon="5.85126">
        <ele>936.6</ele>
        <time>2023-09-28T12:26:25Z</time>
      </trkpt>
      <trkpt lat="44.8237" lon="5.85123">
        <ele>936.8</ele>
        <time>2023-09-28T12:26:26Z</time>
      </trkpt>
      <trkpt lat="44.82374" lon="5.8512">
        <ele>936.9</ele>
        <time>2023-09-28T12:26:27Z</time>
      </trkpt>
      <trkpt lat="44.82378" lon="5.85115">
        <ele>937</ele>
        <time>2023-09-28T12:26:28Z</time>
      </trkpt>
      <trkpt lat="44.82381" lon="5.85111">
        <ele>937.1</ele>
        <time>2023-09-28T12:26:29Z</time>
      </trkpt>
      <trkpt lat="44.82385" lon="5.85107">
        <ele>937.2</ele>
        <time>2023-09-28T12:26:30Z</time>
      </trkpt>
      <trkpt lat="44.82389" lon="5.85102">
        <ele>937.2</ele>
        <time>2023-09-28T12:26:31Z</time>
      </trkpt>
      <trkpt lat="44.82392" lon="5.85098">
        <ele>937.3</ele>
        <time>2023-09-28T12:26:32Z</time>
      </trkpt>
      <trkpt lat="44.82396" lon="5.85093">
        <ele>937.3</ele>
        <time>2023-09-28T12:26:33Z</time>
      </trkpt>
      <trkpt lat="44.82399" lon="5.85088">
        <ele>937.4</ele>
        <time>2023-09-28T12:26:34Z</time>
      </trkpt>
      <trkpt lat="44.82402" lon="5.85083">
        <ele>937.4</ele>
        <time>2023-09-28T12:26:35Z</time>
      </trkpt>
      <trkpt lat="44.82405" lon="5.85078">
        <ele>937.4</ele>
        <time>2023-09-28T12:26:36Z</time>
      </trkpt>
      <trkpt lat="44.82408" lon="5.85073">
        <ele>937.4</ele>
        <time>2023-09-28T12:26:37Z</time>
      </trkpt>
      <trkpt lat="44.82411" lon="5.85068">
        <ele>937.5</ele>
        <time>2023-09-28T12:26:38Z</time>
      </trkpt>
      <trkpt lat="44.82414" lon="5.85062">
        <ele>937.5</ele>
        <time>2023-09-28T12:26:39Z</time>
      </trkpt>
      <trkpt lat="44.82417" lon="5.85057">
        <ele>937.5</ele>
        <time>2023-09-28T12:26:40Z</time>
      </trkpt>
      <trkpt lat="44.8242" lon="5.85051">
        <ele>937.4</ele>
        <time>2023-09-28T12:26:41Z</time>
      </trkpt>
      <trkpt lat="44.82423" lon="5.85045">
        <ele>937.4</ele>
        <time>2023-09-28T12:26:42Z</time>
      </trkpt>
      <trkpt lat="44.82426" lon="5.8504">
        <ele>937.3</ele>
        <time>2023-09-28T12:26:43Z</time>
      </trkpt>
      <trkpt lat="44.82429" lon="5.85034">
        <ele>937.3</ele>
        <time>2023-09-28T12:26:44Z</time>
      </trkpt>
      <trkpt lat="44.82433" lon="5.85029">
        <ele>937.2</ele>
        <time>2023-09-28T12:26:45Z</time>
      </trkpt>
      <trkpt lat="44.82436" lon="5.85023">
        <ele>937.1</ele>
        <time>2023-09-28T12:26:46Z</time>
      </trkpt>
      <trkpt lat="44.8244" lon="5.85018">
        <ele>936.9</ele>
        <time>2023-09-28T12:26:47Z</time>
      </trkpt>
      <trkpt lat="44.82443" lon="5.85012">
        <ele>936.8</ele>
        <time>2023-09-28T12:26:48Z</time>
      </trkpt>
      <trkpt lat="44.82447" lon="5.85007">
        <ele>936.7</ele>
        <time>2023-09-28T12:26:49Z</time>
      </trkpt>
      <trkpt lat="44.8245" lon="5.85002">
        <ele>936.6</ele>
        <time>2023-09-28T12:26:50Z</time>
      </trkpt>
      <trkpt lat="44.82454" lon="5.84997">
        <ele>936.4</ele>
        <time>2023-09-28T12:26:51Z</time>
      </trkpt>
      <trkpt lat="44.82458" lon="5.84991">
        <ele>936.3</ele>
        <time>2023-09-28T12:26:52Z</time>
      </trkpt>
      <trkpt lat="44.82461" lon="5.84986">
        <ele>936.1</ele>
        <time>2023-09-28T12:26:53Z</time>
      </trkpt>
      <trkpt lat="44.82464" lon="5.8498">
        <ele>935.9</ele>
        <time>2023-09-28T12:26:54Z</time>
      </trkpt>
      <trkpt lat="44.82467" lon="5.84974">
        <ele>935.7</ele>
        <time>2023-09-28T12:26:55Z</time>
      </trkpt>
      <trkpt lat="44.8247" lon="5.84969">
        <ele>935.5</ele>
        <time>2023-09-28T12:26:56Z</time>
      </trkpt>
      <trkpt lat="44.82474" lon="5.84963">
        <ele>935.2</ele>
        <time>2023-09-28T12:26:57Z</time>
      </trkpt>
      <trkpt lat="44.82477" lon="5.84958">
        <ele>934.9</ele>
        <time>2023-09-28T12:26:58Z</time>
      </trkpt>
      <trkpt lat="44.82481" lon="5.84952">
        <ele>934.6</ele>
        <time>2023-09-28T12:26:59Z</time>
      </trkpt>
      <trkpt lat="44.82485" lon="5.84945">
        <ele>934.2</ele>
        <time>2023-09-28T12:27:00Z</time>
      </trkpt>
      <trkpt lat="44.82489" lon="5.84938">
        <ele>933.9</ele>
        <time>2023-09-28T12:27:01Z</time>
      </trkpt>
      <trkpt lat="44.82494" lon="5.84931">
        <ele>933.5</ele>
        <time>2023-09-28T12:27:02Z</time>
      </trkpt>
      <trkpt lat="44.82498" lon="5.84924">
        <ele>933.1</ele>
        <time>2023-09-28T12:27:03Z</time>
      </trkpt>
      <trkpt lat="44.82503" lon="5.84916">
        <ele>932.6</ele>
        <time>2023-09-28T12:27:04Z</time>
      </trkpt>
      <trkpt lat="44.82507" lon="5.84909">
        <ele>932.2</ele>
        <time>2023-09-28T12:27:05Z</time>
      </trkpt>
      <trkpt lat="44.82512" lon="5.84901">
        <ele>931.7</ele>
        <time>2023-09-28T12:27:06Z</time>
      </trkpt>
      <trkpt lat="44.82518" lon="5.84893">
        <ele>931.2</ele>
        <time>2023-09-28T12:27:07Z</time>
      </trkpt>
      <trkpt lat="44.82523" lon="5.84884">
        <ele>930.7</ele>
        <time>2023-09-28T12:27:08Z</time>
      </trkpt>
      <trkpt lat="44.82528" lon="5.84876">
        <ele>930.1</ele>
        <time>2023-09-28T12:27:09Z</time>
      </trkpt>
      <trkpt lat="44.82534" lon="5.84866">
        <ele>929.5</ele>
        <time>2023-09-28T12:27:10Z</time>
      </trkpt>
      <trkpt lat="44.8254" lon="5.84856">
        <ele>929</ele>
        <time>2023-09-28T12:27:11Z</time>
      </trkpt>
      <trkpt lat="44.82545" lon="5.84846">
        <ele>928.4</ele>
        <time>2023-09-28T12:27:12Z</time>
      </trkpt>
      <trkpt lat="44.82551" lon="5.84836">
        <ele>927.9</ele>
        <time>2023-09-28T12:27:13Z</time>
      </trkpt>
      <trkpt lat="44.82557" lon="5.84826">
        <ele>927.4</ele>
        <time>2023-09-28T12:27:14Z</time>
      </trkpt>
      <trkpt lat="44.82563" lon="5.84814">
        <ele>926.9</ele>
        <time>2023-09-28T12:27:15Z</time>
      </trkpt>
      <trkpt lat="44.82568" lon="5.84803">
        <ele>926.4</ele>
        <time>2023-09-28T12:27:16Z</time>
      </trkpt>
      <trkpt lat="44.82573" lon="5.84791">
        <ele>925.9</ele>
        <time>2023-09-28T12:27:17Z</time>
      </trkpt>
      <trkpt lat="44.82578" lon="5.84779">
        <ele>925.4</ele>
        <time>2023-09-28T12:27:18Z</time>
      </trkpt>
      <trkpt lat="44.82582" lon="5.84766">
        <ele>924.9</ele>
        <time>2023-09-28T12:27:19Z</time>
      </trkpt>
      <trkpt lat="44.82586" lon="5.84754">
        <ele>924.5</ele>
        <time>2023-09-28T12:27:20Z</time>
      </trkpt>
      <trkpt lat="44.8259" lon="5.84742">
        <ele>924.1</ele>
        <time>2023-09-28T12:27:21Z</time>
      </trkpt>
      <trkpt lat="44.82595" lon="5.8473">
        <ele>923.7</ele>
        <time>2023-09-28T12:27:22Z</time>
      </trkpt>
      <trkpt lat="44.826" lon="5.84719">
        <ele>923.3</ele>
        <time>2023-09-28T12:27:23Z</time>
      </trkpt>
      <trkpt lat="44.82606" lon="5.84708">
        <ele>922.9</ele>
        <time>2023-09-28T12:27:24Z</time>
      </trkpt>
      <trkpt lat="44.82613" lon="5.84698">
        <ele>922.4</ele>
        <time>2023-09-28T12:27:25Z</time>
      </trkpt>
      <trkpt lat="44.8262" lon="5.8469">
        <ele>922</ele>
        <time>2023-09-28T12:27:26Z</time>
      </trkpt>
      <trkpt lat="44.82627" lon="5.84681">
        <ele>921.5</ele>
        <time>2023-09-28T12:27:27Z</time>
      </trkpt>
      <trkpt lat="44.82634" lon="5.84672">
        <ele>921.1</ele>
        <time>2023-09-28T12:27:28Z</time>
      </trkpt>
      <trkpt lat="44.82641" lon="5.84664">
        <ele>920.6</ele>
        <time>2023-09-28T12:27:29Z</time>
      </trkpt>
      <trkpt lat="44.82649" lon="5.84656">
        <ele>920</ele>
        <time>2023-09-28T12:27:30Z</time>
      </trkpt>
      <trkpt lat="44.82657" lon="5.84647">
        <ele>919.5</ele>
        <time>2023-09-28T12:27:31Z</time>
      </trkpt>
      <trkpt lat="44.82664" lon="5.84639">
        <ele>919</ele>
        <time>2023-09-28T12:27:32Z</time>
      </trkpt>
      <trkpt lat="44.82672" lon="5.8463">
        <ele>918.4</ele>
        <time>2023-09-28T12:27:33Z</time>
      </trkpt>
      <trkpt lat="44.82679" lon="5.84621">
        <ele>917.8</ele>
        <time>2023-09-28T12:27:34Z</time>
      </trkpt>
      <trkpt lat="44.82686" lon="5.84612">
        <ele>917.2</ele>
        <time>2023-09-28T12:27:35Z</time>
      </trkpt>
      <trkpt lat="44.82693" lon="5.84602">
        <ele>916.6</ele>
        <time>2023-09-28T12:27:36Z</time>
      </trkpt>
      <trkpt lat="44.827" lon="5.84592">
        <ele>915.9</ele>
        <time>2023-09-28T12:27:37Z</time>
      </trkpt>
      <trkpt lat="44.82706" lon="5.84581">
        <ele>915.3</ele>
        <time>2023-09-28T12:27:38Z</time>
      </trkpt>
      <trkpt lat="44.82712" lon="5.8457">
        <ele>914.7</ele>
        <time>2023-09-28T12:27:39Z</time>
      </trkpt>
      <trkpt lat="44.82719" lon="5.84559">
        <ele>914.1</ele>
        <time>2023-09-28T12:27:40Z</time>
      </trkpt>
      <trkpt lat="44.82725" lon="5.84548">
        <ele>913.6</ele>
        <time>2023-09-28T12:27:41Z</time>
      </trkpt>
      <trkpt lat="44.8273" lon="5.84536">
        <ele>913.1</ele>
        <time>2023-09-28T12:27:42Z</time>
      </trkpt>
      <trkpt lat="44.82736" lon="5.84524">
        <ele>912.6</ele>
        <time>2023-09-28T12:27:43Z</time>
      </trkpt>
      <trkpt lat="44.8274" lon="5.8451">
        <ele>912.1</ele>
        <time>2023-09-28T12:27:44Z</time>
      </trkpt>
      <trkpt lat="44.82742" lon="5.84497">
        <ele>911.6</ele>
        <time>2023-09-28T12:27:45Z</time>
      </trkpt>
      <trkpt lat="44.82743" lon="5.84482">
        <ele>911.2</ele>
        <time>2023-09-28T12:27:46Z</time>
      </trkpt>
      <trkpt lat="44.82743" lon="5.84468">
        <ele>910.7</ele>
        <time>2023-09-28T12:27:47Z</time>
      </trkpt>
      <trkpt lat="44.82742" lon="5.84454">
        <ele>910.3</ele>
        <time>2023-09-28T12:27:48Z</time>
      </trkpt>
      <trkpt lat="44.8274" lon="5.8444">
        <ele>909.8</ele>
        <time>2023-09-28T12:27:49Z</time>
      </trkpt>
      <trkpt lat="44.82737" lon="5.84426">
        <ele>909.4</ele>
        <time>2023-09-28T12:27:50Z</time>
      </trkpt>
      <trkpt lat="44.82735" lon="5.84412">
        <ele>909</ele>
        <time>2023-09-28T12:27:51Z</time>
      </trkpt>
      <trkpt lat="44.82733" lon="5.84398">
        <ele>908.5</ele>
        <time>2023-09-28T12:27:52Z</time>
      </trkpt>
      <trkpt lat="44.82732" lon="5.84383">
        <ele>908</ele>
        <time>2023-09-28T12:27:53Z</time>
      </trkpt>
      <trkpt lat="44.82731" lon="5.84369">
        <ele>907.5</ele>
        <time>2023-09-28T12:27:54Z</time>
      </trkpt>
      <trkpt lat="44.82729" lon="5.84354">
        <ele>906.9</ele>
        <time>2023-09-28T12:27:55Z</time>
      </trkpt>
      <trkpt lat="44.82727" lon="5.8434">
        <ele>906.4</ele>
        <time>2023-09-28T12:27:56Z</time>
      </trkpt>
      <trkpt lat="44.82725" lon="5.84326">
        <ele>905.7</ele>
        <time>2023-09-28T12:27:57Z</time>
      </trkpt>
      <trkpt lat="44.82722" lon="5.84312">
        <ele>905.1</ele>
        <time>2023-09-28T12:27:58Z</time>
      </trkpt>
      <trkpt lat="44.82718" lon="5.84299">
        <ele>904.4</ele>
        <time>2023-09-28T12:27:59Z</time>
      </trkpt>
      <trkpt lat="44.82712" lon="5.84286">
        <ele>903.8</ele>
        <time>2023-09-28T12:28:00Z</time>
      </trkpt>
      <trkpt lat="44.82707" lon="5.84274">
        <ele>903.2</ele>
        <time>2023-09-28T12:28:01Z</time>
      </trkpt>
      <trkpt lat="44.82702" lon="5.84262">
        <ele>902.6</ele>
        <time>2023-09-28T12:28:02Z</time>
      </trkpt>
      <trkpt lat="44.82698" lon="5.8425">
        <ele>902.1</ele>
        <time>2023-09-28T12:28:03Z</time>
      </trkpt>
      <trkpt lat="44.82694" lon="5.84236">
        <ele>901.6</ele>
        <time>2023-09-28T12:28:04Z</time>
      </trkpt>
      <trkpt lat="44.82692" lon="5.84222">
        <ele>901.2</ele>
        <time>2023-09-28T12:28:05Z</time>
      </trkpt>
      <trkpt lat="44.82691" lon="5.84207">
        <ele>900.9</ele>
        <time>2023-09-28T12:28:06Z</time>
      </trkpt>
      <trkpt lat="44.8269" lon="5.84193">
        <ele>900.7</ele>
        <time>2023-09-28T12:28:07Z</time>
      </trkpt>
      <trkpt lat="44.82691" lon="5.8418">
        <ele>900.7</ele>
        <time>2023-09-28T12:28:08Z</time>
      </trkpt>
      <trkpt lat="44.82693" lon="5.84168">
        <ele>900.8</ele>
        <time>2023-09-28T12:28:09Z</time>
      </trkpt>
      <trkpt lat="44.82697" lon="5.84157">
        <ele>900.8</ele>
        <time>2023-09-28T12:28:10Z</time>
      </trkpt>
      <trkpt lat="44.82702" lon="5.84147">
        <ele>900.9</ele>
        <time>2023-09-28T12:28:11Z</time>
      </trkpt>
      <trkpt lat="44.82708" lon="5.84138">
        <ele>901</ele>
        <time>2023-09-28T12:28:12Z</time>
      </trkpt>
      <trkpt lat="44.82712" lon="5.84129">
        <ele>901.1</ele>
        <time>2023-09-28T12:28:13Z</time>
      </trkpt>
      <trkpt lat="44.82717" lon="5.8412">
        <ele>901.1</ele>
        <time>2023-09-28T12:28:14Z</time>
      </trkpt>
      <trkpt lat="44.82722" lon="5.84112">
        <ele>901.1</ele>
        <time>2023-09-28T12:28:15Z</time>
      </trkpt>
      <trkpt lat="44.82727" lon="5.84104">
        <ele>901.2</ele>
        <time>2023-09-28T12:28:16Z</time>
      </trkpt>
      <trkpt lat="44.82731" lon="5.84096">
        <ele>901.3</ele>
        <time>2023-09-28T12:28:17Z</time>
      </trkpt>
      <trkpt lat="44.82735" lon="5.84089">
        <ele>901.4</ele>
        <time>2023-09-28T12:28:18Z</time>
      </trkpt>
      <trkpt lat="44.82738" lon="5.84082">
        <ele>901.6</ele>
        <time>2023-09-28T12:28:19Z</time>
      </trkpt>
      <trkpt lat="44.82742" lon="5.84076">
        <ele>901.8</ele>
        <time>2023-09-28T12:28:20Z</time>
      </trkpt>
      <trkpt lat="44.82745" lon="5.8407">
        <ele>901.9</ele>
        <time>2023-09-28T12:28:21Z</time>
      </trkpt>
      <trkpt lat="44.82748" lon="5.84064">
        <ele>902.1</ele>
        <time>2023-09-28T12:28:22Z</time>
      </trkpt>
      <trkpt lat="44.82751" lon="5.84059">
        <ele>902.2</ele>
        <time>2023-09-28T12:28:23Z</time>
      </trkpt>
      <trkpt lat="44.82753" lon="5.84054">
        <ele>902.3</ele>
        <time>2023-09-28T12:28:24Z</time>
      </trkpt>
      <trkpt lat="44.82755" lon="5.8405">
        <ele>902.3</ele>
        <time>2023-09-28T12:28:25Z</time>
      </trkpt>
      <trkpt lat="44.82757" lon="5.84046">
        <ele>902.4</ele>
        <time>2023-09-28T12:28:26Z</time>
      </trkpt>
      <trkpt lat="44.82759" lon="5.84043">
        <ele>902.4</ele>
        <time>2023-09-28T12:28:27Z</time>
      </trkpt>
      <trkpt lat="44.8276" lon="5.84039">
        <ele>902.4</ele>
        <time>2023-09-28T12:28:28Z</time>
      </trkpt>
      <trkpt lat="44.82762" lon="5.84035">
        <ele>902.5</ele>
        <time>2023-09-28T12:28:29Z</time>
      </trkpt>
      <trkpt lat="44.82763" lon="5.84033">
        <ele>902.5</ele>
        <time>2023-09-28T12:28:30Z</time>
      </trkpt>
      <trkpt lat="44.82764" lon="5.84031">
        <ele>902.5</ele>
        <time>2023-09-28T12:28:31Z</time>
      </trkpt>
      <trkpt lat="44.82764" lon="5.84028">
        <ele>902.5</ele>
        <time>2023-09-28T12:28:33Z</time>
      </trkpt>
      <trkpt lat="44.82766" lon="5.84026">
        <ele>902.5</ele>
        <time>2023-09-28T12:28:34Z</time>
      </trkpt>
      <trkpt lat="44.82768" lon="5.84026">
        <ele>902.5</ele>
        <time>2023-09-28T12:28:36Z</time>
      </trkpt>
      <trkpt lat="44.82771" lon="5.84027">
        <ele>902.6</ele>
        <time>2023-09-28T12:28:37Z</time>
      </trkpt>
      <trkpt lat="44.82773" lon="5.84026">
        <ele>902.6</ele>
        <time>2023-09-28T12:28:38Z</time>
      </trkpt>
      <trkpt lat="44.82773" lon="5.84026">
        <ele>902.6</ele>
        <time>2023-09-28T12:28:40Z</time>
      </trkpt>
      <trkpt lat="44.82773" lon="5.84026">
        <ele>902.6</ele>
        <time>2023-09-28T12:28:41Z</time>
      </trkpt>
      <trkpt lat="44.82773" lon="5.84026">
        <ele>902.6</ele>
        <time>2023-09-28T12:28:42Z</time>
      </trkpt>
      <trkpt lat="44.82773" lon="5.84025">
        <ele>902.6</ele>
        <time>2023-09-28T12:28:44Z</time>
      </trkpt>
      <trkpt lat="44.82773" lon="5.84026">
        <ele>902.6</ele>
        <time>2023-09-28T12:28:45Z</time>
      </trkpt>
      <trkpt lat="44.82773" lon="5.84026">
        <ele>902.6</ele>
        <time>2023-09-28T12:28:46Z</time>
      </trkpt>
      <trkpt lat="44.82773" lon="5.84026">
        <ele>902.6</ele>
        <time>2023-09-28T12:28:47Z</time>
      </trkpt>
      <trkpt lat="44.82773" lon="5.84026">
        <ele>902.6</ele>
        <time>2023-09-28T12:28:49Z</time>
      </trkpt>
      <trkpt lat="44.82774" lon="5.84025">
        <ele>902.6</ele>
        <time>2023-09-28T12:28:53Z</time>
      </trkpt>
      <trkpt lat="44.82775" lon="5.84024">
        <ele>902.6</ele>
        <time>2023-09-28T12:28:54Z</time>
      </trkpt>
      <trkpt lat="44.82776" lon="5.84022">
        <ele>902.6</ele>
        <time>2023-09-28T12:28:55Z</time>
      </trkpt>
      <trkpt lat="44.82777" lon="5.8402">
        <ele>902.6</ele>
        <time>2023-09-28T12:28:56Z</time>
      </trkpt>
      <trkpt lat="44.82779" lon="5.84018">
        <ele>902.5</ele>
        <time>2023-09-28T12:28:58Z</time>
      </trkpt>
      <trkpt lat="44.82781" lon="5.84017">
        <ele>902.5</ele>
        <time>2023-09-28T12:29:00Z</time>
      </trkpt>
      <trkpt lat="44.82782" lon="5.84016">
        <ele>902.5</ele>
        <time>2023-09-28T12:29:01Z</time>
      </trkpt>
      <trkpt lat="44.82783" lon="5.84015">
        <ele>902.5</ele>
        <time>2023-09-28T12:29:02Z</time>
      </trkpt>
      <trkpt lat="44.82784" lon="5.84014">
        <ele>902.5</ele>
        <time>2023-09-28T12:29:03Z</time>
      </trkpt>
      <trkpt lat="44.82784" lon="5.84013">
        <ele>902.5</ele>
        <time>2023-09-28T12:29:04Z</time>
      </trkpt>
      <trkpt lat="44.82784" lon="5.84013">
        <ele>902.5</ele>
        <time>2023-09-28T12:29:06Z</time>
      </trkpt>
      <trkpt lat="44.82785" lon="5.84012">
        <ele>902.5</ele>
        <time>2023-09-28T12:29:07Z</time>
      </trkpt>
      <trkpt lat="44.82785" lon="5.84011">
        <ele>902.5</ele>
        <time>2023-09-28T12:29:08Z</time>
      </trkpt>
      <trkpt lat="44.82785" lon="5.84011">
        <ele>902.5</ele>
        <time>2023-09-28T12:29:10Z</time>
      </trkpt>
      <trkpt lat="44.82785" lon="5.8401">
        <ele>902.5</ele>
        <time>2023-09-28T12:29:11Z</time>
      </trkpt>
      <trkpt lat="44.82785" lon="5.84009">
        <ele>902.5</ele>
        <time>2023-09-28T12:29:12Z</time>
      </trkpt>
      <trkpt lat="44.82785" lon="5.84009">
        <ele>902.5</ele>
        <time>2023-09-28T12:29:14Z</time>
      </trkpt>
      <trkpt lat="44.82785" lon="5.84008">
        <ele>902.5</ele>
        <time>2023-09-28T12:29:15Z</time>
      </trkpt>
      <trkpt lat="44.82786" lon="5.84008">
        <ele>902.5</ele>
        <time>2023-09-28T12:29:16Z</time>
      </trkpt>
      <trkpt lat="44.82786" lon="5.84007">
        <ele>902.5</ele>
        <time>2023-09-28T12:29:18Z</time>
      </trkpt>
      <trkpt lat="44.82786" lon="5.84006">
        <ele>902.5</ele>
        <time>2023-09-28T12:30:17Z</time>
      </trkpt>
      <trkpt lat="44.82786" lon="5.84006">
        <ele>902.5</ele>
        <time>2023-09-28T12:30:19Z</time>
      </trkpt>
      <trkpt lat="44.82786" lon="5.84005">
        <ele>902.5</ele>
        <time>2023-09-28T12:30:20Z</time>
      </trkpt>
      <trkpt lat="44.82787" lon="5.83999">
        <ele>902.5</ele>
        <time>2023-09-28T12:30:21Z</time>
      </trkpt>
      <trkpt lat="44.82786" lon="5.83994">
        <ele>902.4</ele>
        <time>2023-09-28T12:30:22Z</time>
      </trkpt>
      <trkpt lat="44.82786" lon="5.8399">
        <ele>902.3</ele>
        <time>2023-09-28T12:30:24Z</time>
      </trkpt>
      <trkpt lat="44.82787" lon="5.83985">
        <ele>902.1</ele>
        <time>2023-09-28T12:30:25Z</time>
      </trkpt>
      <trkpt lat="44.8279" lon="5.8398">
        <ele>901.9</ele>
        <time>2023-09-28T12:30:26Z</time>
      </trkpt>
      <trkpt lat="44.82793" lon="5.83976">
        <ele>901.8</ele>
        <time>2023-09-28T12:30:27Z</time>
      </trkpt>
      <trkpt lat="44.82796" lon="5.83971">
        <ele>901.6</ele>
        <time>2023-09-28T12:30:28Z</time>
      </trkpt>
      <trkpt lat="44.82799" lon="5.83966">
        <ele>901.4</ele>
        <time>2023-09-28T12:30:29Z</time>
      </trkpt>
      <trkpt lat="44.82802" lon="5.8396">
        <ele>901.2</ele>
        <time>2023-09-28T12:30:30Z</time>
      </trkpt>
      <trkpt lat="44.82806" lon="5.83954">
        <ele>901</ele>
        <time>2023-09-28T12:30:31Z</time>
      </trkpt>
      <trkpt lat="44.82809" lon="5.83947">
        <ele>900.8</ele>
        <time>2023-09-28T12:30:32Z</time>
      </trkpt>
      <trkpt lat="44.82813" lon="5.83941">
        <ele>900.6</ele>
        <time>2023-09-28T12:30:33Z</time>
      </trkpt>
      <trkpt lat="44.82816" lon="5.83934">
        <ele>900.4</ele>
        <time>2023-09-28T12:30:34Z</time>
      </trkpt>
      <trkpt lat="44.8282" lon="5.83927">
        <ele>900.2</ele>
        <time>2023-09-28T12:30:35Z</time>
      </trkpt>
      <trkpt lat="44.82824" lon="5.83921">
        <ele>900</ele>
        <time>2023-09-28T12:30:36Z</time>
      </trkpt>
      <trkpt lat="44.82829" lon="5.83915">
        <ele>899.8</ele>
        <time>2023-09-28T12:30:37Z</time>
      </trkpt>
      <trkpt lat="44.82834" lon="5.83909">
        <ele>899.7</ele>
        <time>2023-09-28T12:30:38Z</time>
      </trkpt>
      <trkpt lat="44.82839" lon="5.83904">
        <ele>899.5</ele>
        <time>2023-09-28T12:30:39Z</time>
      </trkpt>
      <trkpt lat="44.82844" lon="5.83898">
        <ele>899.4</ele>
        <time>2023-09-28T12:30:40Z</time>
      </trkpt>
      <trkpt lat="44.8285" lon="5.83893">
        <ele>899.3</ele>
        <time>2023-09-28T12:30:41Z</time>
      </trkpt>
      <trkpt lat="44.82856" lon="5.83889">
        <ele>899.1</ele>
        <time>2023-09-28T12:30:42Z</time>
      </trkpt>
      <trkpt lat="44.82861" lon="5.83885">
        <ele>899</ele>
        <time>2023-09-28T12:30:43Z</time>
      </trkpt>
      <trkpt lat="44.82867" lon="5.83882">
        <ele>898.9</ele>
        <time>2023-09-28T12:30:44Z</time>
      </trkpt>
      <trkpt lat="44.82873" lon="5.83878">
        <ele>898.7</ele>
        <time>2023-09-28T12:30:45Z</time>
      </trkpt>
      <trkpt lat="44.82878" lon="5.83873">
        <ele>898.5</ele>
        <time>2023-09-28T12:30:46Z</time>
      </trkpt>
      <trkpt lat="44.82884" lon="5.83869">
        <ele>898.3</ele>
        <time>2023-09-28T12:30:47Z</time>
      </trkpt>
      <trkpt lat="44.82889" lon="5.83864">
        <ele>898</ele>
        <time>2023-09-28T12:30:48Z</time>
      </trkpt>
      <trkpt lat="44.82894" lon="5.8386">
        <ele>897.8</ele>
        <time>2023-09-28T12:30:49Z</time>
      </trkpt>
      <trkpt lat="44.829" lon="5.83855">
        <ele>897.5</ele>
        <time>2023-09-28T12:30:50Z</time>
      </trkpt>
      <trkpt lat="44.82906" lon="5.83851">
        <ele>897.3</ele>
        <time>2023-09-28T12:30:51Z</time>
      </trkpt>
      <trkpt lat="44.82912" lon="5.83846">
        <ele>896.9</ele>
        <time>2023-09-28T12:30:52Z</time>
      </trkpt>
      <trkpt lat="44.82918" lon="5.83841">
        <ele>896.6</ele>
        <time>2023-09-28T12:30:53Z</time>
      </trkpt>
      <trkpt lat="44.82925" lon="5.83837">
        <ele>896.3</ele>
        <time>2023-09-28T12:30:54Z</time>
      </trkpt>
      <trkpt lat="44.82931" lon="5.83832">
        <ele>895.9</ele>
        <time>2023-09-28T12:30:55Z</time>
      </trkpt>
      <trkpt lat="44.82938" lon="5.83828">
        <ele>895.5</ele>
        <time>2023-09-28T12:30:56Z</time>
      </trkpt>
      <trkpt lat="44.82945" lon="5.83823">
        <ele>895.1</ele>
        <time>2023-09-28T12:30:57Z</time>
      </trkpt>
      <trkpt lat="44.82952" lon="5.83818">
        <ele>894.7</ele>
        <time>2023-09-28T12:30:58Z</time>
      </trkpt>
      <trkpt lat="44.82959" lon="5.83813">
        <ele>894.3</ele>
        <time>2023-09-28T12:30:59Z</time>
      </trkpt>
      <trkpt lat="44.82966" lon="5.83807">
        <ele>893.9</ele>
        <time>2023-09-28T12:31:00Z</time>
      </trkpt>
      <trkpt lat="44.82974" lon="5.83802">
        <ele>893.5</ele>
        <time>2023-09-28T12:31:01Z</time>
      </trkpt>
      <trkpt lat="44.82981" lon="5.83796">
        <ele>893.1</ele>
        <time>2023-09-28T12:31:02Z</time>
      </trkpt>
      <trkpt lat="44.82988" lon="5.8379">
        <ele>892.6</ele>
        <time>2023-09-28T12:31:03Z</time>
      </trkpt>
      <trkpt lat="44.82994" lon="5.83781">
        <ele>892.1</ele>
        <time>2023-09-28T12:31:04Z</time>
      </trkpt>
      <trkpt lat="44.82999" lon="5.83771">
        <ele>891.6</ele>
        <time>2023-09-28T12:31:05Z</time>
      </trkpt>
      <trkpt lat="44.83002" lon="5.83759">
        <ele>891</ele>
        <time>2023-09-28T12:31:06Z</time>
      </trkpt>
      <trkpt lat="44.83003" lon="5.83746">
        <ele>890.4</ele>
        <time>2023-09-28T12:31:07Z</time>
      </trkpt>
      <trkpt lat="44.83003" lon="5.83733">
        <ele>889.9</ele>
        <time>2023-09-28T12:31:08Z</time>
      </trkpt>
      <trkpt lat="44.83001" lon="5.83719">
        <ele>889.4</ele>
        <time>2023-09-28T12:31:09Z</time>
      </trkpt>
      <trkpt lat="44.83" lon="5.83706">
        <ele>888.9</ele>
        <time>2023-09-28T12:31:10Z</time>
      </trkpt>
      <trkpt lat="44.82998" lon="5.83692">
        <ele>888.5</ele>
        <time>2023-09-28T12:31:11Z</time>
      </trkpt>
      <trkpt lat="44.82998" lon="5.8368">
        <ele>888.2</ele>
        <time>2023-09-28T12:31:12Z</time>
      </trkpt>
      <trkpt lat="44.83" lon="5.83669">
        <ele>887.9</ele>
        <time>2023-09-28T12:31:13Z</time>
      </trkpt>
      <trkpt lat="44.83003" lon="5.83658">
        <ele>887.6</ele>
        <time>2023-09-28T12:31:14Z</time>
      </trkpt>
      <trkpt lat="44.83009" lon="5.8365">
        <ele>887.4</ele>
        <time>2023-09-28T12:31:15Z</time>
      </trkpt>
      <trkpt lat="44.83016" lon="5.83644">
        <ele>887.2</ele>
        <time>2023-09-28T12:31:16Z</time>
      </trkpt>
      <trkpt lat="44.83025" lon="5.83642">
        <ele>886.9</ele>
        <time>2023-09-28T12:31:17Z</time>
      </trkpt>
      <trkpt lat="44.83033" lon="5.83643">
        <ele>886.7</ele>
        <time>2023-09-28T12:31:18Z</time>
      </trkpt>
      <trkpt lat="44.83041" lon="5.83646">
        <ele>886.5</ele>
        <time>2023-09-28T12:31:19Z</time>
      </trkpt>
      <trkpt lat="44.83048" lon="5.83649">
        <ele>886.4</ele>
        <time>2023-09-28T12:31:20Z</time>
      </trkpt>
      <trkpt lat="44.83055" lon="5.83653">
        <ele>886.3</ele>
        <time>2023-09-28T12:31:21Z</time>
      </trkpt>
      <trkpt lat="44.83062" lon="5.83657">
        <ele>886.3</ele>
        <time>2023-09-28T12:31:22Z</time>
      </trkpt>
      <trkpt lat="44.83069" lon="5.83662">
        <ele>886.2</ele>
        <time>2023-09-28T12:31:23Z</time>
      </trkpt>
      <trkpt lat="44.83076" lon="5.83666">
        <ele>886.2</ele>
        <time>2023-09-28T12:31:24Z</time>
      </trkpt>
      <trkpt lat="44.83082" lon="5.83671">
        <ele>886.2</ele>
        <time>2023-09-28T12:31:25Z</time>
      </trkpt>
      <trkpt lat="44.83088" lon="5.83675">
        <ele>886.2</ele>
        <time>2023-09-28T12:31:26Z</time>
      </trkpt>
      <trkpt lat="44.83095" lon="5.83678">
        <ele>886.1</ele>
        <time>2023-09-28T12:31:27Z</time>
      </trkpt>
      <trkpt lat="44.83101" lon="5.83682">
        <ele>886.1</ele>
        <time>2023-09-28T12:31:28Z</time>
      </trkpt>
      <trkpt lat="44.83108" lon="5.83685">
        <ele>886.1</ele>
        <time>2023-09-28T12:31:29Z</time>
      </trkpt>
      <trkpt lat="44.83114" lon="5.83689">
        <ele>886</ele>
        <time>2023-09-28T12:31:30Z</time>
      </trkpt>
      <trkpt lat="44.83121" lon="5.83693">
        <ele>886</ele>
        <time>2023-09-28T12:31:31Z</time>
      </trkpt>
      <trkpt lat="44.83127" lon="5.83696">
        <ele>886</ele>
        <time>2023-09-28T12:31:32Z</time>
      </trkpt>
      <trkpt lat="44.83134" lon="5.83699">
        <ele>886</ele>
        <time>2023-09-28T12:31:33Z</time>
      </trkpt>
      <trkpt lat="44.8314" lon="5.83702">
        <ele>885.9</ele>
        <time>2023-09-28T12:31:34Z</time>
      </trkpt>
      <trkpt lat="44.83146" lon="5.83705">
        <ele>885.9</ele>
        <time>2023-09-28T12:31:35Z</time>
      </trkpt>
      <trkpt lat="44.83152" lon="5.83708">
        <ele>885.8</ele>
        <time>2023-09-28T12:31:36Z</time>
      </trkpt>
      <trkpt lat="44.83159" lon="5.8371">
        <ele>885.8</ele>
        <time>2023-09-28T12:31:37Z</time>
      </trkpt>
      <trkpt lat="44.83165" lon="5.83712">
        <ele>885.8</ele>
        <time>2023-09-28T12:31:38Z</time>
      </trkpt>
      <trkpt lat="44.83171" lon="5.83713">
        <ele>885.7</ele>
        <time>2023-09-28T12:31:39Z</time>
      </trkpt>
      <trkpt lat="44.83178" lon="5.83714">
        <ele>885.6</ele>
        <time>2023-09-28T12:31:40Z</time>
      </trkpt>
      <trkpt lat="44.83184" lon="5.83715">
        <ele>885.6</ele>
        <time>2023-09-28T12:31:41Z</time>
      </trkpt>
      <trkpt lat="44.83191" lon="5.83716">
        <ele>885.5</ele>
        <time>2023-09-28T12:31:42Z</time>
      </trkpt>
      <trkpt lat="44.83198" lon="5.83716">
        <ele>885.4</ele>
        <time>2023-09-28T12:31:43Z</time>
      </trkpt>
      <trkpt lat="44.83204" lon="5.83715">
        <ele>885.4</ele>
        <time>2023-09-28T12:31:44Z</time>
      </trkpt>
      <trkpt lat="44.83211" lon="5.83714">
        <ele>885.3</ele>
        <time>2023-09-28T12:31:45Z</time>
      </trkpt>
      <trkpt lat="44.83217" lon="5.83712">
        <ele>885.3</ele>
        <time>2023-09-28T12:31:46Z</time>
      </trkpt>
      <trkpt lat="44.83224" lon="5.83709">
        <ele>885.2</ele>
        <time>2023-09-28T12:31:47Z</time>
      </trkpt>
      <trkpt lat="44.8323" lon="5.83705">
        <ele>885.2</ele>
        <time>2023-09-28T12:31:48Z</time>
      </trkpt>
      <trkpt lat="44.83235" lon="5.83701">
        <ele>885.2</ele>
        <time>2023-09-28T12:31:49Z</time>
      </trkpt>
      <trkpt lat="44.83241" lon="5.83697">
        <ele>885.1</ele>
        <time>2023-09-28T12:31:50Z</time>
      </trkpt>
      <trkpt lat="44.83247" lon="5.83692">
        <ele>885</ele>
        <time>2023-09-28T12:31:51Z</time>
      </trkpt>
      <trkpt lat="44.83252" lon="5.83686">
        <ele>885</ele>
        <time>2023-09-28T12:31:52Z</time>
      </trkpt>
      <trkpt lat="44.83257" lon="5.83681">
        <ele>884.9</ele>
        <time>2023-09-28T12:31:53Z</time>
      </trkpt>
      <trkpt lat="44.83263" lon="5.83676">
        <ele>884.9</ele>
        <time>2023-09-28T12:31:54Z</time>
      </trkpt>
      <trkpt lat="44.83268" lon="5.8367">
        <ele>884.8</ele>
        <time>2023-09-28T12:31:55Z</time>
      </trkpt>
      <trkpt lat="44.83273" lon="5.83664">
        <ele>884.7</ele>
        <time>2023-09-28T12:31:56Z</time>
      </trkpt>
      <trkpt lat="44.83279" lon="5.83659">
        <ele>884.7</ele>
        <time>2023-09-28T12:31:57Z</time>
      </trkpt>
      <trkpt lat="44.83284" lon="5.83653">
        <ele>884.6</ele>
        <time>2023-09-28T12:31:58Z</time>
      </trkpt>
      <trkpt lat="44.8329" lon="5.83648">
        <ele>884.6</ele>
        <time>2023-09-28T12:31:59Z</time>
      </trkpt>
      <trkpt lat="44.83295" lon="5.83643">
        <ele>884.5</ele>
        <time>2023-09-28T12:32:00Z</time>
      </trkpt>
      <trkpt lat="44.833" lon="5.83637">
        <ele>884.5</ele>
        <time>2023-09-28T12:32:01Z</time>
      </trkpt>
      <trkpt lat="44.83306" lon="5.83632">
        <ele>884.4</ele>
        <time>2023-09-28T12:32:02Z</time>
      </trkpt>
      <trkpt lat="44.83311" lon="5.83626">
        <ele>884.4</ele>
        <time>2023-09-28T12:32:03Z</time>
      </trkpt>
      <trkpt lat="44.83317" lon="5.83621">
        <ele>884.3</ele>
        <time>2023-09-28T12:32:04Z</time>
      </trkpt>
      <trkpt lat="44.83322" lon="5.83615">
        <ele>884.3</ele>
        <time>2023-09-28T12:32:05Z</time>
      </trkpt>
      <trkpt lat="44.83328" lon="5.8361">
        <ele>884.2</ele>
        <time>2023-09-28T12:32:06Z</time>
      </trkpt>
      <trkpt lat="44.83333" lon="5.83605">
        <ele>884.1</ele>
        <time>2023-09-28T12:32:07Z</time>
      </trkpt>
      <trkpt lat="44.83338" lon="5.83599">
        <ele>884.1</ele>
        <time>2023-09-28T12:32:08Z</time>
      </trkpt>
      <trkpt lat="44.83343" lon="5.83594">
        <ele>884.1</ele>
        <time>2023-09-28T12:32:09Z</time>
      </trkpt>
      <trkpt lat="44.83348" lon="5.83588">
        <ele>884.1</ele>
        <time>2023-09-28T12:32:10Z</time>
      </trkpt>
      <trkpt lat="44.83353" lon="5.83583">
        <ele>884.1</ele>
        <time>2023-09-28T12:32:11Z</time>
      </trkpt>
      <trkpt lat="44.83358" lon="5.83579">
        <ele>884.1</ele>
        <time>2023-09-28T12:32:12Z</time>
      </trkpt>
      <trkpt lat="44.83363" lon="5.83574">
        <ele>884</ele>
        <time>2023-09-28T12:32:13Z</time>
      </trkpt>
      <trkpt lat="44.83368" lon="5.83569">
        <ele>884</ele>
        <time>2023-09-28T12:32:14Z</time>
      </trkpt>
      <trkpt lat="44.83372" lon="5.83565">
        <ele>884</ele>
        <time>2023-09-28T12:32:15Z</time>
      </trkpt>
      <trkpt lat="44.83376" lon="5.8356">
        <ele>883.9</ele>
        <time>2023-09-28T12:32:16Z</time>
      </trkpt>
      <trkpt lat="44.8338" lon="5.83556">
        <ele>883.9</ele>
        <time>2023-09-28T12:32:17Z</time>
      </trkpt>
      <trkpt lat="44.83385" lon="5.83551">
        <ele>883.9</ele>
        <time>2023-09-28T12:32:18Z</time>
      </trkpt>
      <trkpt lat="44.83389" lon="5.83547">
        <ele>883.9</ele>
        <time>2023-09-28T12:32:19Z</time>
      </trkpt>
      <trkpt lat="44.83393" lon="5.83543">
        <ele>883.9</ele>
        <time>2023-09-28T12:32:20Z</time>
      </trkpt>
      <trkpt lat="44.83397" lon="5.83539">
        <ele>883.9</ele>
        <time>2023-09-28T12:32:21Z</time>
      </trkpt>
      <trkpt lat="44.83401" lon="5.83535">
        <ele>883.8</ele>
        <time>2023-09-28T12:32:22Z</time>
      </trkpt>
      <trkpt lat="44.83404" lon="5.83531">
        <ele>883.8</ele>
        <time>2023-09-28T12:32:23Z</time>
      </trkpt>
      <trkpt lat="44.83408" lon="5.83527">
        <ele>883.8</ele>
        <time>2023-09-28T12:32:24Z</time>
      </trkpt>
      <trkpt lat="44.83413" lon="5.83522">
        <ele>883.8</ele>
        <time>2023-09-28T12:32:25Z</time>
      </trkpt>
      <trkpt lat="44.83417" lon="5.83518">
        <ele>883.9</ele>
        <time>2023-09-28T12:32:26Z</time>
      </trkpt>
      <trkpt lat="44.83421" lon="5.83514">
        <ele>883.9</ele>
        <time>2023-09-28T12:32:27Z</time>
      </trkpt>
      <trkpt lat="44.83425" lon="5.8351">
        <ele>883.9</ele>
        <time>2023-09-28T12:32:28Z</time>
      </trkpt>
      <trkpt lat="44.83429" lon="5.83506">
        <ele>883.9</ele>
        <time>2023-09-28T12:32:29Z</time>
      </trkpt>
      <trkpt lat="44.83433" lon="5.83501">
        <ele>883.9</ele>
        <time>2023-09-28T12:32:30Z</time>
      </trkpt>
      <trkpt lat="44.83437" lon="5.83497">
        <ele>884</ele>
        <time>2023-09-28T12:32:31Z</time>
      </trkpt>
      <trkpt lat="44.83442" lon="5.83493">
        <ele>884</ele>
        <time>2023-09-28T12:32:32Z</time>
      </trkpt>
      <trkpt lat="44.83446" lon="5.83489">
        <ele>884</ele>
        <time>2023-09-28T12:32:33Z</time>
      </trkpt>
      <trkpt lat="44.8345" lon="5.83484">
        <ele>884.1</ele>
        <time>2023-09-28T12:32:34Z</time>
      </trkpt>
      <trkpt lat="44.83455" lon="5.8348">
        <ele>884.1</ele>
        <time>2023-09-28T12:32:35Z</time>
      </trkpt>
      <trkpt lat="44.83459" lon="5.83476">
        <ele>884.1</ele>
        <time>2023-09-28T12:32:36Z</time>
      </trkpt>
      <trkpt lat="44.83464" lon="5.83472">
        <ele>884.1</ele>
        <time>2023-09-28T12:32:37Z</time>
      </trkpt>
      <trkpt lat="44.83468" lon="5.83467">
        <ele>884.1</ele>
        <time>2023-09-28T12:32:38Z</time>
      </trkpt>
      <trkpt lat="44.83473" lon="5.83463">
        <ele>884.1</ele>
        <time>2023-09-28T12:32:39Z</time>
      </trkpt>
      <trkpt lat="44.83477" lon="5.83458">
        <ele>884.1</ele>
        <time>2023-09-28T12:32:40Z</time>
      </trkpt>
      <trkpt lat="44.83482" lon="5.83453">
        <ele>884.1</ele>
        <time>2023-09-28T12:32:41Z</time>
      </trkpt>
      <trkpt lat="44.83487" lon="5.83449">
        <ele>884</ele>
        <time>2023-09-28T12:32:42Z</time>
      </trkpt>
      <trkpt lat="44.83491" lon="5.83444">
        <ele>884</ele>
        <time>2023-09-28T12:32:43Z</time>
      </trkpt>
      <trkpt lat="44.83496" lon="5.83439">
        <ele>884</ele>
        <time>2023-09-28T12:32:44Z</time>
      </trkpt>
      <trkpt lat="44.835" lon="5.83434">
        <ele>884</ele>
        <time>2023-09-28T12:32:45Z</time>
      </trkpt>
      <trkpt lat="44.83505" lon="5.83429">
        <ele>884</ele>
        <time>2023-09-28T12:32:46Z</time>
      </trkpt>
      <trkpt lat="44.83509" lon="5.83423">
        <ele>884.1</ele>
        <time>2023-09-28T12:32:47Z</time>
      </trkpt>
      <trkpt lat="44.83513" lon="5.83418">
        <ele>884.1</ele>
        <time>2023-09-28T12:32:48Z</time>
      </trkpt>
      <trkpt lat="44.83517" lon="5.83413">
        <ele>884.2</ele>
        <time>2023-09-28T12:32:49Z</time>
      </trkpt>
      <trkpt lat="44.83521" lon="5.83408">
        <ele>884.2</ele>
        <time>2023-09-28T12:32:50Z</time>
      </trkpt>
      <trkpt lat="44.83525" lon="5.83402">
        <ele>884.2</ele>
        <time>2023-09-28T12:32:51Z</time>
      </trkpt>
      <trkpt lat="44.83529" lon="5.83397">
        <ele>884.2</ele>
        <time>2023-09-28T12:32:52Z</time>
      </trkpt>
      <trkpt lat="44.83533" lon="5.83391">
        <ele>884.2</ele>
        <time>2023-09-28T12:32:53Z</time>
      </trkpt>
      <trkpt lat="44.83537" lon="5.83385">
        <ele>884.2</ele>
        <time>2023-09-28T12:32:54Z</time>
      </trkpt>
      <trkpt lat="44.83541" lon="5.83379">
        <ele>884.3</ele>
        <time>2023-09-28T12:32:55Z</time>
      </trkpt>
      <trkpt lat="44.83545" lon="5.83373">
        <ele>884.3</ele>
        <time>2023-09-28T12:32:56Z</time>
      </trkpt>
      <trkpt lat="44.83549" lon="5.83368">
        <ele>884.4</ele>
        <time>2023-09-28T12:32:57Z</time>
      </trkpt>
      <trkpt lat="44.83553" lon="5.83362">
        <ele>884.4</ele>
        <time>2023-09-28T12:32:58Z</time>
      </trkpt>
      <trkpt lat="44.83557" lon="5.83356">
        <ele>884.4</ele>
        <time>2023-09-28T12:32:59Z</time>
      </trkpt>
      <trkpt lat="44.83561" lon="5.8335">
        <ele>884.4</ele>
        <time>2023-09-28T12:33:00Z</time>
      </trkpt>
      <trkpt lat="44.83565" lon="5.83344">
        <ele>884.4</ele>
        <time>2023-09-28T12:33:01Z</time>
      </trkpt>
      <trkpt lat="44.83569" lon="5.83337">
        <ele>884.4</ele>
        <time>2023-09-28T12:33:02Z</time>
      </trkpt>
      <trkpt lat="44.83573" lon="5.83332">
        <ele>884.4</ele>
        <time>2023-09-28T12:33:03Z</time>
      </trkpt>
      <trkpt lat="44.83577" lon="5.83326">
        <ele>884.5</ele>
        <time>2023-09-28T12:33:04Z</time>
      </trkpt>
      <trkpt lat="44.83581" lon="5.8332">
        <ele>884.5</ele>
        <time>2023-09-28T12:33:05Z</time>
      </trkpt>
      <trkpt lat="44.83585" lon="5.83313">
        <ele>884.4</ele>
        <time>2023-09-28T12:33:06Z</time>
      </trkpt>
      <trkpt lat="44.83589" lon="5.83307">
        <ele>884.4</ele>
        <time>2023-09-28T12:33:07Z</time>
      </trkpt>
      <trkpt lat="44.83593" lon="5.83301">
        <ele>884.4</ele>
        <time>2023-09-28T12:33:08Z</time>
      </trkpt>
      <trkpt lat="44.83598" lon="5.83295">
        <ele>884.3</ele>
        <time>2023-09-28T12:33:09Z</time>
      </trkpt>
      <trkpt lat="44.83602" lon="5.83289">
        <ele>884.3</ele>
        <time>2023-09-28T12:33:10Z</time>
      </trkpt>
      <trkpt lat="44.83606" lon="5.83283">
        <ele>884.2</ele>
        <time>2023-09-28T12:33:11Z</time>
      </trkpt>
      <trkpt lat="44.8361" lon="5.83278">
        <ele>884.2</ele>
        <time>2023-09-28T12:33:12Z</time>
      </trkpt>
      <trkpt lat="44.83614" lon="5.83272">
        <ele>884.2</ele>
        <time>2023-09-28T12:33:13Z</time>
      </trkpt>
      <trkpt lat="44.83618" lon="5.83266">
        <ele>884.2</ele>
        <time>2023-09-28T12:33:14Z</time>
      </trkpt>
      <trkpt lat="44.83622" lon="5.8326">
        <ele>884.2</ele>
        <time>2023-09-28T12:33:15Z</time>
      </trkpt>
      <trkpt lat="44.83627" lon="5.83253">
        <ele>884.2</ele>
        <time>2023-09-28T12:33:16Z</time>
      </trkpt>
      <trkpt lat="44.83631" lon="5.83247">
        <ele>884.2</ele>
        <time>2023-09-28T12:33:17Z</time>
      </trkpt>
      <trkpt lat="44.83635" lon="5.83241">
        <ele>884.2</ele>
        <time>2023-09-28T12:33:18Z</time>
      </trkpt>
      <trkpt lat="44.83639" lon="5.83235">
        <ele>884.1</ele>
        <time>2023-09-28T12:33:19Z</time>
      </trkpt>
      <trkpt lat="44.83643" lon="5.83229">
        <ele>884.1</ele>
        <time>2023-09-28T12:33:20Z</time>
      </trkpt>
      <trkpt lat="44.83647" lon="5.83223">
        <ele>884</ele>
        <time>2023-09-28T12:33:21Z</time>
      </trkpt>
      <trkpt lat="44.83651" lon="5.83217">
        <ele>884</ele>
        <time>2023-09-28T12:33:22Z</time>
      </trkpt>
      <trkpt lat="44.83656" lon="5.8321">
        <ele>883.9</ele>
        <time>2023-09-28T12:33:23Z</time>
      </trkpt>
      <trkpt lat="44.8366" lon="5.83203">
        <ele>883.8</ele>
        <time>2023-09-28T12:33:24Z</time>
      </trkpt>
      <trkpt lat="44.83665" lon="5.83197">
        <ele>883.7</ele>
        <time>2023-09-28T12:33:25Z</time>
      </trkpt>
      <trkpt lat="44.83669" lon="5.8319">
        <ele>883.6</ele>
        <time>2023-09-28T12:33:26Z</time>
      </trkpt>
      <trkpt lat="44.83674" lon="5.83183">
        <ele>883.6</ele>
        <time>2023-09-28T12:33:27Z</time>
      </trkpt>
      <trkpt lat="44.83679" lon="5.83177">
        <ele>883.5</ele>
        <time>2023-09-28T12:33:28Z</time>
      </trkpt>
      <trkpt lat="44.83684" lon="5.83171">
        <ele>883.6</ele>
        <time>2023-09-28T12:33:29Z</time>
      </trkpt>
      <trkpt lat="44.83689" lon="5.83166">
        <ele>883.6</ele>
        <time>2023-09-28T12:33:30Z</time>
      </trkpt>
      <trkpt lat="44.83695" lon="5.83161">
        <ele>883.6</ele>
        <time>2023-09-28T12:33:31Z</time>
      </trkpt>
      <trkpt lat="44.83701" lon="5.83156">
        <ele>883.7</ele>
        <time>2023-09-28T12:33:32Z</time>
      </trkpt>
      <trkpt lat="44.83707" lon="5.83152">
        <ele>883.8</ele>
        <time>2023-09-28T12:33:33Z</time>
      </trkpt>
      <trkpt lat="44.83713" lon="5.83148">
        <ele>883.9</ele>
        <time>2023-09-28T12:33:34Z</time>
      </trkpt>
      <trkpt lat="44.83718" lon="5.83145">
        <ele>884</ele>
        <time>2023-09-28T12:33:35Z</time>
      </trkpt>
      <trkpt lat="44.83724" lon="5.83142">
        <ele>884.2</ele>
        <time>2023-09-28T12:33:36Z</time>
      </trkpt>
      <trkpt lat="44.83729" lon="5.8314">
        <ele>884.3</ele>
        <time>2023-09-28T12:33:37Z</time>
      </trkpt>
      <trkpt lat="44.83735" lon="5.83137">
        <ele>884.5</ele>
        <time>2023-09-28T12:33:38Z</time>
      </trkpt>
      <trkpt lat="44.8374" lon="5.83135">
        <ele>884.7</ele>
        <time>2023-09-28T12:33:39Z</time>
      </trkpt>
      <trkpt lat="44.83745" lon="5.83132">
        <ele>884.9</ele>
        <time>2023-09-28T12:33:40Z</time>
      </trkpt>
      <trkpt lat="44.8375" lon="5.8313">
        <ele>885</ele>
        <time>2023-09-28T12:33:41Z</time>
      </trkpt>
      <trkpt lat="44.83755" lon="5.83128">
        <ele>885.2</ele>
        <time>2023-09-28T12:33:42Z</time>
      </trkpt>
      <trkpt lat="44.83759" lon="5.83126">
        <ele>885.4</ele>
        <time>2023-09-28T12:33:43Z</time>
      </trkpt>
      <trkpt lat="44.83764" lon="5.83123">
        <ele>885.5</ele>
        <time>2023-09-28T12:33:44Z</time>
      </trkpt>
      <trkpt lat="44.83768" lon="5.83121">
        <ele>885.7</ele>
        <time>2023-09-28T12:33:45Z</time>
      </trkpt>
      <trkpt lat="44.83773" lon="5.83119">
        <ele>885.9</ele>
        <time>2023-09-28T12:33:46Z</time>
      </trkpt>
      <trkpt lat="44.83778" lon="5.83117">
        <ele>886</ele>
        <time>2023-09-28T12:33:47Z</time>
      </trkpt>
      <trkpt lat="44.83782" lon="5.83115">
        <ele>886.2</ele>
        <time>2023-09-28T12:33:48Z</time>
      </trkpt>
      <trkpt lat="44.83787" lon="5.83112">
        <ele>886.3</ele>
        <time>2023-09-28T12:33:49Z</time>
      </trkpt>
      <trkpt lat="44.83791" lon="5.83109">
        <ele>886.5</ele>
        <time>2023-09-28T12:33:50Z</time>
      </trkpt>
      <trkpt lat="44.83795" lon="5.83107">
        <ele>886.6</ele>
        <time>2023-09-28T12:33:51Z</time>
      </trkpt>
      <trkpt lat="44.83799" lon="5.83104">
        <ele>886.8</ele>
        <time>2023-09-28T12:33:52Z</time>
      </trkpt>
      <trkpt lat="44.83804" lon="5.83102">
        <ele>886.9</ele>
        <time>2023-09-28T12:33:53Z</time>
      </trkpt>
      <trkpt lat="44.83808" lon="5.83099">
        <ele>887.1</ele>
        <time>2023-09-28T12:33:54Z</time>
      </trkpt>
      <trkpt lat="44.83812" lon="5.83096">
        <ele>887.2</ele>
        <time>2023-09-28T12:33:55Z</time>
      </trkpt>
      <trkpt lat="44.83816" lon="5.83093">
        <ele>887.3</ele>
        <time>2023-09-28T12:33:56Z</time>
      </trkpt>
      <trkpt lat="44.8382" lon="5.8309">
        <ele>887.5</ele>
        <time>2023-09-28T12:33:57Z</time>
      </trkpt>
      <trkpt lat="44.83824" lon="5.83087">
        <ele>887.6</ele>
        <time>2023-09-28T12:33:58Z</time>
      </trkpt>
      <trkpt lat="44.83828" lon="5.83083">
        <ele>887.7</ele>
        <time>2023-09-28T12:33:59Z</time>
      </trkpt>
      <trkpt lat="44.83831" lon="5.8308">
        <ele>887.9</ele>
        <time>2023-09-28T12:34:00Z</time>
      </trkpt>
      <trkpt lat="44.83835" lon="5.83076">
        <ele>888</ele>
        <time>2023-09-28T12:34:01Z</time>
      </trkpt>
      <trkpt lat="44.83839" lon="5.83072">
        <ele>888.1</ele>
        <time>2023-09-28T12:34:02Z</time>
      </trkpt>
      <trkpt lat="44.83843" lon="5.83068">
        <ele>888.1</ele>
        <time>2023-09-28T12:34:03Z</time>
      </trkpt>
      <trkpt lat="44.83847" lon="5.83063">
        <ele>888.1</ele>
        <time>2023-09-28T12:34:04Z</time>
      </trkpt>
      <trkpt lat="44.83851" lon="5.83059">
        <ele>888.1</ele>
        <time>2023-09-28T12:34:05Z</time>
      </trkpt>
      <trkpt lat="44.83855" lon="5.83054">
        <ele>888.1</ele>
        <time>2023-09-28T12:34:06Z</time>
      </trkpt>
      <trkpt lat="44.83859" lon="5.83049">
        <ele>888.1</ele>
        <time>2023-09-28T12:34:07Z</time>
      </trkpt>
      <trkpt lat="44.83863" lon="5.83044">
        <ele>888.1</ele>
        <time>2023-09-28T12:34:08Z</time>
      </trkpt>
      <trkpt lat="44.83867" lon="5.83038">
        <ele>888.1</ele>
        <time>2023-09-28T12:34:09Z</time>
      </trkpt>
      <trkpt lat="44.83871" lon="5.83032">
        <ele>888</ele>
        <time>2023-09-28T12:34:10Z</time>
      </trkpt>
      <trkpt lat="44.83874" lon="5.83025">
        <ele>888</ele>
        <time>2023-09-28T12:34:11Z</time>
      </trkpt>
      <trkpt lat="44.83878" lon="5.83018">
        <ele>887.9</ele>
        <time>2023-09-28T12:34:12Z</time>
      </trkpt>
      <trkpt lat="44.83881" lon="5.8301">
        <ele>887.8</ele>
        <time>2023-09-28T12:34:13Z</time>
      </trkpt>
      <trkpt lat="44.83884" lon="5.83003">
        <ele>887.7</ele>
        <time>2023-09-28T12:34:14Z</time>
      </trkpt>
      <trkpt lat="44.83887" lon="5.82995">
        <ele>887.5</ele>
        <time>2023-09-28T12:34:15Z</time>
      </trkpt>
      <trkpt lat="44.83891" lon="5.82987">
        <ele>887.4</ele>
        <time>2023-09-28T12:34:16Z</time>
      </trkpt>
      <trkpt lat="44.83894" lon="5.82979">
        <ele>887.3</ele>
        <time>2023-09-28T12:34:17Z</time>
      </trkpt>
      <trkpt lat="44.83897" lon="5.82971">
        <ele>887.2</ele>
        <time>2023-09-28T12:34:18Z</time>
      </trkpt>
      <trkpt lat="44.83901" lon="5.82963">
        <ele>887.2</ele>
        <time>2023-09-28T12:34:19Z</time>
      </trkpt>
      <trkpt lat="44.83905" lon="5.82955">
        <ele>887.1</ele>
        <time>2023-09-28T12:34:20Z</time>
      </trkpt>
      <trkpt lat="44.83908" lon="5.82948">
        <ele>887</ele>
        <time>2023-09-28T12:34:21Z</time>
      </trkpt>
      <trkpt lat="44.83912" lon="5.8294">
        <ele>887</ele>
        <time>2023-09-28T12:34:22Z</time>
      </trkpt>
      <trkpt lat="44.83915" lon="5.82932">
        <ele>886.9</ele>
        <time>2023-09-28T12:34:23Z</time>
      </trkpt>
      <trkpt lat="44.83919" lon="5.82924">
        <ele>886.9</ele>
        <time>2023-09-28T12:34:24Z</time>
      </trkpt>
      <trkpt lat="44.83923" lon="5.82917">
        <ele>886.9</ele>
        <time>2023-09-28T12:34:25Z</time>
      </trkpt>
      <trkpt lat="44.83926" lon="5.8291">
        <ele>886.8</ele>
        <time>2023-09-28T12:34:26Z</time>
      </trkpt>
      <trkpt lat="44.83929" lon="5.82902">
        <ele>886.8</ele>
        <time>2023-09-28T12:34:27Z</time>
      </trkpt>
      <trkpt lat="44.83932" lon="5.82894">
        <ele>886.8</ele>
        <time>2023-09-28T12:34:28Z</time>
      </trkpt>
      <trkpt lat="44.83936" lon="5.82886">
        <ele>886.8</ele>
        <time>2023-09-28T12:34:29Z</time>
      </trkpt>
      <trkpt lat="44.83939" lon="5.82878">
        <ele>886.7</ele>
        <time>2023-09-28T12:34:30Z</time>
      </trkpt>
      <trkpt lat="44.83941" lon="5.8287">
        <ele>886.7</ele>
        <time>2023-09-28T12:34:31Z</time>
      </trkpt>
      <trkpt lat="44.83945" lon="5.82862">
        <ele>886.6</ele>
        <time>2023-09-28T12:34:32Z</time>
      </trkpt>
      <trkpt lat="44.83948" lon="5.82854">
        <ele>886.6</ele>
        <time>2023-09-28T12:34:33Z</time>
      </trkpt>
      <trkpt lat="44.83951" lon="5.82845">
        <ele>886.6</ele>
        <time>2023-09-28T12:34:34Z</time>
      </trkpt>
      <trkpt lat="44.83953" lon="5.82837">
        <ele>886.5</ele>
        <time>2023-09-28T12:34:35Z</time>
      </trkpt>
      <trkpt lat="44.83956" lon="5.82828">
        <ele>886.5</ele>
        <time>2023-09-28T12:34:36Z</time>
      </trkpt>
      <trkpt lat="44.83959" lon="5.8282">
        <ele>886.5</ele>
        <time>2023-09-28T12:34:37Z</time>
      </trkpt>
      <trkpt lat="44.83963" lon="5.82812">
        <ele>886.5</ele>
        <time>2023-09-28T12:34:38Z</time>
      </trkpt>
      <trkpt lat="44.83966" lon="5.82805">
        <ele>886.5</ele>
        <time>2023-09-28T12:34:39Z</time>
      </trkpt>
      <trkpt lat="44.8397" lon="5.82797">
        <ele>886.5</ele>
        <time>2023-09-28T12:34:40Z</time>
      </trkpt>
      <trkpt lat="44.83974" lon="5.8279">
        <ele>886.5</ele>
        <time>2023-09-28T12:34:41Z</time>
      </trkpt>
      <trkpt lat="44.83978" lon="5.82782">
        <ele>886.4</ele>
        <time>2023-09-28T12:34:42Z</time>
      </trkpt>
      <trkpt lat="44.83983" lon="5.82775">
        <ele>886.4</ele>
        <time>2023-09-28T12:34:43Z</time>
      </trkpt>
      <trkpt lat="44.83987" lon="5.82769">
        <ele>886.4</ele>
        <time>2023-09-28T12:34:44Z</time>
      </trkpt>
      <trkpt lat="44.83992" lon="5.82762">
        <ele>886.4</ele>
        <time>2023-09-28T12:34:45Z</time>
      </trkpt>
      <trkpt lat="44.83996" lon="5.82755">
        <ele>886.5</ele>
        <time>2023-09-28T12:34:46Z</time>
      </trkpt>
      <trkpt lat="44.84001" lon="5.82749">
        <ele>886.5</ele>
        <time>2023-09-28T12:34:47Z</time>
      </trkpt>
      <trkpt lat="44.84005" lon="5.82743">
        <ele>886.6</ele>
        <time>2023-09-28T12:34:48Z</time>
      </trkpt>
      <trkpt lat="44.8401" lon="5.82738">
        <ele>886.7</ele>
        <time>2023-09-28T12:34:49Z</time>
      </trkpt>
      <trkpt lat="44.84015" lon="5.82733">
        <ele>886.8</ele>
        <time>2023-09-28T12:34:50Z</time>
      </trkpt>
      <trkpt lat="44.8402" lon="5.82728">
        <ele>886.8</ele>
        <time>2023-09-28T12:34:51Z</time>
      </trkpt>
      <trkpt lat="44.84025" lon="5.82723">
        <ele>886.9</ele>
        <time>2023-09-28T12:34:52Z</time>
      </trkpt>
      <trkpt lat="44.8403" lon="5.82719">
        <ele>887.1</ele>
        <time>2023-09-28T12:34:53Z</time>
      </trkpt>
      <trkpt lat="44.84035" lon="5.82716">
        <ele>887.2</ele>
        <time>2023-09-28T12:34:54Z</time>
      </trkpt>
      <trkpt lat="44.8404" lon="5.82712">
        <ele>887.3</ele>
        <time>2023-09-28T12:34:55Z</time>
      </trkpt>
      <trkpt lat="44.84046" lon="5.82708">
        <ele>887.4</ele>
        <time>2023-09-28T12:34:56Z</time>
      </trkpt>
      <trkpt lat="44.8405" lon="5.82704">
        <ele>887.5</ele>
        <time>2023-09-28T12:34:57Z</time>
      </trkpt>
      <trkpt lat="44.84055" lon="5.827">
        <ele>887.6</ele>
        <time>2023-09-28T12:34:58Z</time>
      </trkpt>
      <trkpt lat="44.8406" lon="5.82696">
        <ele>887.7</ele>
        <time>2023-09-28T12:34:59Z</time>
      </trkpt>
      <trkpt lat="44.84064" lon="5.82692">
        <ele>887.9</ele>
        <time>2023-09-28T12:35:00Z</time>
      </trkpt>
      <trkpt lat="44.84068" lon="5.82687">
        <ele>888</ele>
        <time>2023-09-28T12:35:01Z</time>
      </trkpt>
      <trkpt lat="44.84073" lon="5.82682">
        <ele>888.1</ele>
        <time>2023-09-28T12:35:02Z</time>
      </trkpt>
      <trkpt lat="44.84077" lon="5.82677">
        <ele>888.3</ele>
        <time>2023-09-28T12:35:03Z</time>
      </trkpt>
      <trkpt lat="44.84081" lon="5.82672">
        <ele>888.4</ele>
        <time>2023-09-28T12:35:04Z</time>
      </trkpt>
      <trkpt lat="44.84085" lon="5.82667">
        <ele>888.5</ele>
        <time>2023-09-28T12:35:05Z</time>
      </trkpt>
      <trkpt lat="44.84089" lon="5.82662">
        <ele>888.7</ele>
        <time>2023-09-28T12:35:06Z</time>
      </trkpt>
      <trkpt lat="44.84093" lon="5.82657">
        <ele>888.8</ele>
        <time>2023-09-28T12:35:07Z</time>
      </trkpt>
      <trkpt lat="44.84096" lon="5.82652">
        <ele>888.9</ele>
        <time>2023-09-28T12:35:08Z</time>
      </trkpt>
      <trkpt lat="44.841" lon="5.82646">
        <ele>889.1</ele>
        <time>2023-09-28T12:35:09Z</time>
      </trkpt>
      <trkpt lat="44.84103" lon="5.82641">
        <ele>889.2</ele>
        <time>2023-09-28T12:35:10Z</time>
      </trkpt>
      <trkpt lat="44.84107" lon="5.82635">
        <ele>889.4</ele>
        <time>2023-09-28T12:35:11Z</time>
      </trkpt>
      <trkpt lat="44.84111" lon="5.82629">
        <ele>889.5</ele>
        <time>2023-09-28T12:35:12Z</time>
      </trkpt>
      <trkpt lat="44.84114" lon="5.82623">
        <ele>889.7</ele>
        <time>2023-09-28T12:35:13Z</time>
      </trkpt>
      <trkpt lat="44.84117" lon="5.82618">
        <ele>889.8</ele>
        <time>2023-09-28T12:35:14Z</time>
      </trkpt>
      <trkpt lat="44.84121" lon="5.82612">
        <ele>890</ele>
        <time>2023-09-28T12:35:15Z</time>
      </trkpt>
      <trkpt lat="44.84124" lon="5.82606">
        <ele>890.1</ele>
        <time>2023-09-28T12:35:16Z</time>
      </trkpt>
      <trkpt lat="44.84127" lon="5.826">
        <ele>890.2</ele>
        <time>2023-09-28T12:35:17Z</time>
      </trkpt>
      <trkpt lat="44.84131" lon="5.82594">
        <ele>890.3</ele>
        <time>2023-09-28T12:35:18Z</time>
      </trkpt>
      <trkpt lat="44.84134" lon="5.82588">
        <ele>890.4</ele>
        <time>2023-09-28T12:35:19Z</time>
      </trkpt>
      <trkpt lat="44.84137" lon="5.82582">
        <ele>890.5</ele>
        <time>2023-09-28T12:35:20Z</time>
      </trkpt>
      <trkpt lat="44.8414" lon="5.82576">
        <ele>890.6</ele>
        <time>2023-09-28T12:35:21Z</time>
      </trkpt>
      <trkpt lat="44.84143" lon="5.8257">
        <ele>890.7</ele>
        <time>2023-09-28T12:35:22Z</time>
      </trkpt>
      <trkpt lat="44.84147" lon="5.82565">
        <ele>890.8</ele>
        <time>2023-09-28T12:35:23Z</time>
      </trkpt>
      <trkpt lat="44.8415" lon="5.82559">
        <ele>891</ele>
        <time>2023-09-28T12:35:24Z</time>
      </trkpt>
      <trkpt lat="44.84154" lon="5.82554">
        <ele>891</ele>
        <time>2023-09-28T12:35:25Z</time>
      </trkpt>
      <trkpt lat="44.84158" lon="5.82549">
        <ele>891.1</ele>
        <time>2023-09-28T12:35:26Z</time>
      </trkpt>
      <trkpt lat="44.84162" lon="5.82544">
        <ele>891.2</ele>
        <time>2023-09-28T12:35:27Z</time>
      </trkpt>
      <trkpt lat="44.84166" lon="5.82539">
        <ele>891.3</ele>
        <time>2023-09-28T12:35:28Z</time>
      </trkpt>
      <trkpt lat="44.8417" lon="5.82534">
        <ele>891.3</ele>
        <time>2023-09-28T12:35:29Z</time>
      </trkpt>
      <trkpt lat="44.84174" lon="5.8253">
        <ele>891.4</ele>
        <time>2023-09-28T12:35:30Z</time>
      </trkpt>
      <trkpt lat="44.84178" lon="5.82525">
        <ele>891.4</ele>
        <time>2023-09-28T12:35:31Z</time>
      </trkpt>
      <trkpt lat="44.84182" lon="5.8252">
        <ele>891.5</ele>
        <time>2023-09-28T12:35:32Z</time>
      </trkpt>
      <trkpt lat="44.84186" lon="5.82515">
        <ele>891.6</ele>
        <time>2023-09-28T12:35:33Z</time>
      </trkpt>
      <trkpt lat="44.8419" lon="5.8251">
        <ele>891.6</ele>
        <time>2023-09-28T12:35:34Z</time>
      </trkpt>
      <trkpt lat="44.84194" lon="5.82505">
        <ele>891.7</ele>
        <time>2023-09-28T12:35:35Z</time>
      </trkpt>
      <trkpt lat="44.84197" lon="5.825">
        <ele>891.7</ele>
        <time>2023-09-28T12:35:36Z</time>
      </trkpt>
      <trkpt lat="44.84201" lon="5.82495">
        <ele>891.7</ele>
        <time>2023-09-28T12:35:37Z</time>
      </trkpt>
      <trkpt lat="44.84204" lon="5.82489">
        <ele>891.8</ele>
        <time>2023-09-28T12:35:38Z</time>
      </trkpt>
      <trkpt lat="44.84208" lon="5.82483">
        <ele>891.8</ele>
        <time>2023-09-28T12:35:39Z</time>
      </trkpt>
      <trkpt lat="44.84212" lon="5.82478">
        <ele>891.9</ele>
        <time>2023-09-28T12:35:40Z</time>
      </trkpt>
      <trkpt lat="44.84216" lon="5.82472">
        <ele>891.9</ele>
        <time>2023-09-28T12:35:41Z</time>
      </trkpt>
      <trkpt lat="44.8422" lon="5.82466">
        <ele>892</ele>
        <time>2023-09-28T12:35:42Z</time>
      </trkpt>
      <trkpt lat="44.84223" lon="5.8246">
        <ele>892</ele>
        <time>2023-09-28T12:35:43Z</time>
      </trkpt>
      <trkpt lat="44.84227" lon="5.82455">
        <ele>892.1</ele>
        <time>2023-09-28T12:35:44Z</time>
      </trkpt>
      <trkpt lat="44.84231" lon="5.82449">
        <ele>892.1</ele>
        <time>2023-09-28T12:35:45Z</time>
      </trkpt>
      <trkpt lat="44.84235" lon="5.82443">
        <ele>892.2</ele>
        <time>2023-09-28T12:35:46Z</time>
      </trkpt>
      <trkpt lat="44.84238" lon="5.82438">
        <ele>892.2</ele>
        <time>2023-09-28T12:35:47Z</time>
      </trkpt>
      <trkpt lat="44.84242" lon="5.82432">
        <ele>892.2</ele>
        <time>2023-09-28T12:35:48Z</time>
      </trkpt>
      <trkpt lat="44.84246" lon="5.82426">
        <ele>892.2</ele>
        <time>2023-09-28T12:35:49Z</time>
      </trkpt>
      <trkpt lat="44.8425" lon="5.8242">
        <ele>892.3</ele>
        <time>2023-09-28T12:35:50Z</time>
      </trkpt>
      <trkpt lat="44.84253" lon="5.82414">
        <ele>892.3</ele>
        <time>2023-09-28T12:35:51Z</time>
      </trkpt>
      <trkpt lat="44.84257" lon="5.82408">
        <ele>892.4</ele>
        <time>2023-09-28T12:35:52Z</time>
      </trkpt>
      <trkpt lat="44.84261" lon="5.82402">
        <ele>892.4</ele>
        <time>2023-09-28T12:35:53Z</time>
      </trkpt>
      <trkpt lat="44.84265" lon="5.82397">
        <ele>892.5</ele>
        <time>2023-09-28T12:35:54Z</time>
      </trkpt>
      <trkpt lat="44.84269" lon="5.82391">
        <ele>892.6</ele>
        <time>2023-09-28T12:35:55Z</time>
      </trkpt>
      <trkpt lat="44.84272" lon="5.82385">
        <ele>892.7</ele>
        <time>2023-09-28T12:35:56Z</time>
      </trkpt>
      <trkpt lat="44.84276" lon="5.82379">
        <ele>892.8</ele>
        <time>2023-09-28T12:35:57Z</time>
      </trkpt>
      <trkpt lat="44.8428" lon="5.82373">
        <ele>892.8</ele>
        <time>2023-09-28T12:35:58Z</time>
      </trkpt>
      <trkpt lat="44.84283" lon="5.82367">
        <ele>892.9</ele>
        <time>2023-09-28T12:35:59Z</time>
      </trkpt>
      <trkpt lat="44.84287" lon="5.82361">
        <ele>892.9</ele>
        <time>2023-09-28T12:36:00Z</time>
      </trkpt>
      <trkpt lat="44.8429" lon="5.82355">
        <ele>893</ele>
        <time>2023-09-28T12:36:01Z</time>
      </trkpt>
      <trkpt lat="44.84294" lon="5.82349">
        <ele>893</ele>
        <time>2023-09-28T12:36:02Z</time>
      </trkpt>
      <trkpt lat="44.84297" lon="5.82343">
        <ele>893</ele>
        <time>2023-09-28T12:36:03Z</time>
      </trkpt>
      <trkpt lat="44.843" lon="5.82336">
        <ele>893.1</ele>
        <time>2023-09-28T12:36:04Z</time>
      </trkpt>
      <trkpt lat="44.84303" lon="5.8233">
        <ele>893.1</ele>
        <time>2023-09-28T12:36:05Z</time>
      </trkpt>
      <trkpt lat="44.84306" lon="5.82323">
        <ele>893.2</ele>
        <time>2023-09-28T12:36:06Z</time>
      </trkpt>
      <trkpt lat="44.84309" lon="5.82316">
        <ele>893.2</ele>
        <time>2023-09-28T12:36:07Z</time>
      </trkpt>
      <trkpt lat="44.84311" lon="5.82309">
        <ele>893.3</ele>
        <time>2023-09-28T12:36:08Z</time>
      </trkpt>
      <trkpt lat="44.84314" lon="5.82302">
        <ele>893.3</ele>
        <time>2023-09-28T12:36:09Z</time>
      </trkpt>
      <trkpt lat="44.84316" lon="5.82295">
        <ele>893.4</ele>
        <time>2023-09-28T12:36:10Z</time>
      </trkpt>
      <trkpt lat="44.84318" lon="5.82288">
        <ele>893.4</ele>
        <time>2023-09-28T12:36:11Z</time>
      </trkpt>
      <trkpt lat="44.84321" lon="5.82281">
        <ele>893.5</ele>
        <time>2023-09-28T12:36:12Z</time>
      </trkpt>
      <trkpt lat="44.84323" lon="5.82273">
        <ele>893.5</ele>
        <time>2023-09-28T12:36:13Z</time>
      </trkpt>
      <trkpt lat="44.84325" lon="5.82266">
        <ele>893.6</ele>
        <time>2023-09-28T12:36:14Z</time>
      </trkpt>
      <trkpt lat="44.84327" lon="5.82258">
        <ele>893.6</ele>
        <time>2023-09-28T12:36:15Z</time>
      </trkpt>
      <trkpt lat="44.84329" lon="5.82251">
        <ele>893.7</ele>
        <time>2023-09-28T12:36:16Z</time>
      </trkpt>
      <trkpt lat="44.84331" lon="5.82243">
        <ele>893.7</ele>
        <time>2023-09-28T12:36:17Z</time>
      </trkpt>
      <trkpt lat="44.84333" lon="5.82236">
        <ele>893.8</ele>
        <time>2023-09-28T12:36:18Z</time>
      </trkpt>
      <trkpt lat="44.84335" lon="5.82229">
        <ele>893.8</ele>
        <time>2023-09-28T12:36:19Z</time>
      </trkpt>
      <trkpt lat="44.84337" lon="5.82222">
        <ele>893.9</ele>
        <time>2023-09-28T12:36:20Z</time>
      </trkpt>
      <trkpt lat="44.84339" lon="5.82214">
        <ele>894</ele>
        <time>2023-09-28T12:36:21Z</time>
      </trkpt>
      <trkpt lat="44.84341" lon="5.82207">
        <ele>894</ele>
        <time>2023-09-28T12:36:22Z</time>
      </trkpt>
      <trkpt lat="44.84343" lon="5.82199">
        <ele>894</ele>
        <time>2023-09-28T12:36:23Z</time>
      </trkpt>
      <trkpt lat="44.84345" lon="5.82192">
        <ele>894.1</ele>
        <time>2023-09-28T12:36:24Z</time>
      </trkpt>
      <trkpt lat="44.84347" lon="5.82184">
        <ele>894.1</ele>
        <time>2023-09-28T12:36:25Z</time>
      </trkpt>
      <trkpt lat="44.84349" lon="5.82176">
        <ele>894.1</ele>
        <time>2023-09-28T12:36:26Z</time>
      </trkpt>
      <trkpt lat="44.84351" lon="5.82168">
        <ele>894.2</ele>
        <time>2023-09-28T12:36:27Z</time>
      </trkpt>
      <trkpt lat="44.84353" lon="5.8216">
        <ele>894.2</ele>
        <time>2023-09-28T12:36:28Z</time>
      </trkpt>
      <trkpt lat="44.84356" lon="5.82153">
        <ele>894.3</ele>
        <time>2023-09-28T12:36:29Z</time>
      </trkpt>
      <trkpt lat="44.84358" lon="5.82145">
        <ele>894.3</ele>
        <time>2023-09-28T12:36:30Z</time>
      </trkpt>
      <trkpt lat="44.84359" lon="5.82137">
        <ele>894.4</ele>
        <time>2023-09-28T12:36:31Z</time>
      </trkpt>
      <trkpt lat="44.84361" lon="5.82128">
        <ele>894.4</ele>
        <time>2023-09-28T12:36:32Z</time>
      </trkpt>
      <trkpt lat="44.84363" lon="5.8212">
        <ele>894.5</ele>
        <time>2023-09-28T12:36:33Z</time>
      </trkpt>
      <trkpt lat="44.84365" lon="5.82112">
        <ele>894.5</ele>
        <time>2023-09-28T12:36:34Z</time>
      </trkpt>
      <trkpt lat="44.84366" lon="5.82104">
        <ele>894.6</ele>
        <time>2023-09-28T12:36:35Z</time>
      </trkpt>
      <trkpt lat="44.84367" lon="5.82095">
        <ele>894.7</ele>
        <time>2023-09-28T12:36:36Z</time>
      </trkpt>
      <trkpt lat="44.84369" lon="5.82087">
        <ele>894.8</ele>
        <time>2023-09-28T12:36:37Z</time>
      </trkpt>
      <trkpt lat="44.8437" lon="5.82079">
        <ele>894.9</ele>
        <time>2023-09-28T12:36:38Z</time>
      </trkpt>
      <trkpt lat="44.84371" lon="5.82071">
        <ele>894.9</ele>
        <time>2023-09-28T12:36:39Z</time>
      </trkpt>
      <trkpt lat="44.84372" lon="5.82063">
        <ele>895</ele>
        <time>2023-09-28T12:36:40Z</time>
      </trkpt>
      <trkpt lat="44.84373" lon="5.82055">
        <ele>895.1</ele>
        <time>2023-09-28T12:36:41Z</time>
      </trkpt>
      <trkpt lat="44.84374" lon="5.82047">
        <ele>895.1</ele>
        <time>2023-09-28T12:36:42Z</time>
      </trkpt>
      <trkpt lat="44.84375" lon="5.82039">
        <ele>895.2</ele>
        <time>2023-09-28T12:36:43Z</time>
      </trkpt>
      <trkpt lat="44.84376" lon="5.82031">
        <ele>895.2</ele>
        <time>2023-09-28T12:36:44Z</time>
      </trkpt>
      <trkpt lat="44.84377" lon="5.82023">
        <ele>895.3</ele>
        <time>2023-09-28T12:36:45Z</time>
      </trkpt>
      <trkpt lat="44.84378" lon="5.82016">
        <ele>895.3</ele>
        <time>2023-09-28T12:36:46Z</time>
      </trkpt>
      <trkpt lat="44.84379" lon="5.82008">
        <ele>895.3</ele>
        <time>2023-09-28T12:36:47Z</time>
      </trkpt>
      <trkpt lat="44.8438" lon="5.82">
        <ele>895.4</ele>
        <time>2023-09-28T12:36:48Z</time>
      </trkpt>
      <trkpt lat="44.84381" lon="5.81992">
        <ele>895.4</ele>
        <time>2023-09-28T12:36:49Z</time>
      </trkpt>
      <trkpt lat="44.84382" lon="5.81984">
        <ele>895.5</ele>
        <time>2023-09-28T12:36:50Z</time>
      </trkpt>
      <trkpt lat="44.84383" lon="5.81976">
        <ele>895.5</ele>
        <time>2023-09-28T12:36:51Z</time>
      </trkpt>
      <trkpt lat="44.84384" lon="5.81968">
        <ele>895.6</ele>
        <time>2023-09-28T12:36:52Z</time>
      </trkpt>
      <trkpt lat="44.84385" lon="5.8196">
        <ele>895.7</ele>
        <time>2023-09-28T12:36:53Z</time>
      </trkpt>
      <trkpt lat="44.84386" lon="5.81953">
        <ele>895.7</ele>
        <time>2023-09-28T12:36:54Z</time>
      </trkpt>
      <trkpt lat="44.84387" lon="5.81945">
        <ele>895.8</ele>
        <time>2023-09-28T12:36:55Z</time>
      </trkpt>
      <trkpt lat="44.84388" lon="5.81937">
        <ele>895.9</ele>
        <time>2023-09-28T12:36:56Z</time>
      </trkpt>
      <trkpt lat="44.84389" lon="5.81929">
        <ele>895.9</ele>
        <time>2023-09-28T12:36:57Z</time>
      </trkpt>
      <trkpt lat="44.84391" lon="5.81921">
        <ele>896</ele>
        <time>2023-09-28T12:36:58Z</time>
      </trkpt>
      <trkpt lat="44.84392" lon="5.81913">
        <ele>896.1</ele>
        <time>2023-09-28T12:36:59Z</time>
      </trkpt>
      <trkpt lat="44.84393" lon="5.81906">
        <ele>896.1</ele>
        <time>2023-09-28T12:37:00Z</time>
      </trkpt>
      <trkpt lat="44.84394" lon="5.81898">
        <ele>896.2</ele>
        <time>2023-09-28T12:37:01Z</time>
      </trkpt>
      <trkpt lat="44.84395" lon="5.8189">
        <ele>896.3</ele>
        <time>2023-09-28T12:37:02Z</time>
      </trkpt>
      <trkpt lat="44.84396" lon="5.81883">
        <ele>896.3</ele>
        <time>2023-09-28T12:37:03Z</time>
      </trkpt>
      <trkpt lat="44.84397" lon="5.81875">
        <ele>896.4</ele>
        <time>2023-09-28T12:37:04Z</time>
      </trkpt>
      <trkpt lat="44.84397" lon="5.81867">
        <ele>896.4</ele>
        <time>2023-09-28T12:37:05Z</time>
      </trkpt>
      <trkpt lat="44.84399" lon="5.8186">
        <ele>896.5</ele>
        <time>2023-09-28T12:37:06Z</time>
      </trkpt>
      <trkpt lat="44.844" lon="5.81852">
        <ele>896.5</ele>
        <time>2023-09-28T12:37:07Z</time>
      </trkpt>
      <trkpt lat="44.84401" lon="5.81844">
        <ele>896.5</ele>
        <time>2023-09-28T12:37:08Z</time>
      </trkpt>
      <trkpt lat="44.84401" lon="5.81836">
        <ele>896.6</ele>
        <time>2023-09-28T12:37:09Z</time>
      </trkpt>
      <trkpt lat="44.84402" lon="5.81828">
        <ele>896.7</ele>
        <time>2023-09-28T12:37:10Z</time>
      </trkpt>
      <trkpt lat="44.84403" lon="5.81821">
        <ele>896.7</ele>
        <time>2023-09-28T12:37:11Z</time>
      </trkpt>
      <trkpt lat="44.84404" lon="5.81813">
        <ele>896.8</ele>
        <time>2023-09-28T12:37:12Z</time>
      </trkpt>
      <trkpt lat="44.84404" lon="5.81805">
        <ele>896.8</ele>
        <time>2023-09-28T12:37:13Z</time>
      </trkpt>
      <trkpt lat="44.84404" lon="5.81797">
        <ele>896.9</ele>
        <time>2023-09-28T12:37:14Z</time>
      </trkpt>
      <trkpt lat="44.84404" lon="5.81789">
        <ele>896.9</ele>
        <time>2023-09-28T12:37:15Z</time>
      </trkpt>
      <trkpt lat="44.84404" lon="5.81781">
        <ele>897</ele>
        <time>2023-09-28T12:37:16Z</time>
      </trkpt>
      <trkpt lat="44.84403" lon="5.81773">
        <ele>897</ele>
        <time>2023-09-28T12:37:17Z</time>
      </trkpt>
      <trkpt lat="44.84402" lon="5.81764">
        <ele>897</ele>
        <time>2023-09-28T12:37:18Z</time>
      </trkpt>
      <trkpt lat="44.84401" lon="5.81756">
        <ele>897</ele>
        <time>2023-09-28T12:37:19Z</time>
      </trkpt>
      <trkpt lat="44.84399" lon="5.81748">
        <ele>897</ele>
        <time>2023-09-28T12:37:20Z</time>
      </trkpt>
      <trkpt lat="44.84398" lon="5.8174">
        <ele>897.1</ele>
        <time>2023-09-28T12:37:21Z</time>
      </trkpt>
      <trkpt lat="44.84396" lon="5.81732">
        <ele>897.1</ele>
        <time>2023-09-28T12:37:22Z</time>
      </trkpt>
      <trkpt lat="44.84394" lon="5.81724">
        <ele>897.2</ele>
        <time>2023-09-28T12:37:23Z</time>
      </trkpt>
      <trkpt lat="44.84392" lon="5.81717">
        <ele>897.2</ele>
        <time>2023-09-28T12:37:24Z</time>
      </trkpt>
      <trkpt lat="44.8439" lon="5.81709">
        <ele>897.2</ele>
        <time>2023-09-28T12:37:25Z</time>
      </trkpt>
      <trkpt lat="44.84389" lon="5.81701">
        <ele>897.2</ele>
        <time>2023-09-28T12:37:26Z</time>
      </trkpt>
      <trkpt lat="44.84387" lon="5.81694">
        <ele>897.3</ele>
        <time>2023-09-28T12:37:27Z</time>
      </trkpt>
      <trkpt lat="44.84386" lon="5.81686">
        <ele>897.3</ele>
        <time>2023-09-28T12:37:28Z</time>
      </trkpt>
      <trkpt lat="44.84384" lon="5.81678">
        <ele>897.4</ele>
        <time>2023-09-28T12:37:29Z</time>
      </trkpt>
      <trkpt lat="44.84383" lon="5.8167">
        <ele>897.4</ele>
        <time>2023-09-28T12:37:30Z</time>
      </trkpt>
      <trkpt lat="44.84382" lon="5.81662">
        <ele>897.5</ele>
        <time>2023-09-28T12:37:31Z</time>
      </trkpt>
      <trkpt lat="44.8438" lon="5.81654">
        <ele>897.5</ele>
        <time>2023-09-28T12:37:32Z</time>
      </trkpt>
      <trkpt lat="44.84379" lon="5.81646">
        <ele>897.5</ele>
        <time>2023-09-28T12:37:33Z</time>
      </trkpt>
      <trkpt lat="44.84379" lon="5.81637">
        <ele>897.6</ele>
        <time>2023-09-28T12:37:34Z</time>
      </trkpt>
      <trkpt lat="44.84378" lon="5.81629">
        <ele>897.6</ele>
        <time>2023-09-28T12:37:35Z</time>
      </trkpt>
      <trkpt lat="44.84378" lon="5.8162">
        <ele>897.7</ele>
        <time>2023-09-28T12:37:36Z</time>
      </trkpt>
      <trkpt lat="44.84378" lon="5.81612">
        <ele>897.8</ele>
        <time>2023-09-28T12:37:37Z</time>
      </trkpt>
      <trkpt lat="44.84379" lon="5.81604">
        <ele>897.8</ele>
        <time>2023-09-28T12:37:38Z</time>
      </trkpt>
      <trkpt lat="44.8438" lon="5.81596">
        <ele>897.9</ele>
        <time>2023-09-28T12:37:39Z</time>
      </trkpt>
      <trkpt lat="44.84381" lon="5.81588">
        <ele>898</ele>
        <time>2023-09-28T12:37:40Z</time>
      </trkpt>
      <trkpt lat="44.84382" lon="5.8158">
        <ele>898.1</ele>
        <time>2023-09-28T12:37:41Z</time>
      </trkpt>
      <trkpt lat="44.84383" lon="5.81573">
        <ele>898.1</ele>
        <time>2023-09-28T12:37:42Z</time>
      </trkpt>
      <trkpt lat="44.84384" lon="5.81565">
        <ele>898.2</ele>
        <time>2023-09-28T12:37:43Z</time>
      </trkpt>
      <trkpt lat="44.84386" lon="5.81558">
        <ele>898.2</ele>
        <time>2023-09-28T12:37:44Z</time>
      </trkpt>
      <trkpt lat="44.84387" lon="5.8155">
        <ele>898.3</ele>
        <time>2023-09-28T12:37:45Z</time>
      </trkpt>
      <trkpt lat="44.84388" lon="5.81543">
        <ele>898.3</ele>
        <time>2023-09-28T12:37:46Z</time>
      </trkpt>
      <trkpt lat="44.84388" lon="5.81536">
        <ele>898.4</ele>
        <time>2023-09-28T12:37:47Z</time>
      </trkpt>
      <trkpt lat="44.84389" lon="5.81529">
        <ele>898.4</ele>
        <time>2023-09-28T12:37:48Z</time>
      </trkpt>
      <trkpt lat="44.8439" lon="5.81521">
        <ele>898.5</ele>
        <time>2023-09-28T12:37:49Z</time>
      </trkpt>
      <trkpt lat="44.84391" lon="5.81514">
        <ele>898.5</ele>
        <time>2023-09-28T12:37:50Z</time>
      </trkpt>
      <trkpt lat="44.84393" lon="5.81507">
        <ele>898.6</ele>
        <time>2023-09-28T12:37:51Z</time>
      </trkpt>
      <trkpt lat="44.84394" lon="5.815">
        <ele>898.6</ele>
        <time>2023-09-28T12:37:52Z</time>
      </trkpt>
      <trkpt lat="44.84395" lon="5.81492">
        <ele>898.7</ele>
        <time>2023-09-28T12:37:53Z</time>
      </trkpt>
      <trkpt lat="44.84396" lon="5.81485">
        <ele>898.7</ele>
        <time>2023-09-28T12:37:54Z</time>
      </trkpt>
      <trkpt lat="44.84397" lon="5.81477">
        <ele>898.8</ele>
        <time>2023-09-28T12:37:55Z</time>
      </trkpt>
      <trkpt lat="44.84398" lon="5.8147">
        <ele>898.8</ele>
        <time>2023-09-28T12:37:56Z</time>
      </trkpt>
      <trkpt lat="44.84399" lon="5.81463">
        <ele>898.9</ele>
        <time>2023-09-28T12:37:57Z</time>
      </trkpt>
      <trkpt lat="44.844" lon="5.81456">
        <ele>898.9</ele>
        <time>2023-09-28T12:37:58Z</time>
      </trkpt>
      <trkpt lat="44.84401" lon="5.81448">
        <ele>899</ele>
        <time>2023-09-28T12:37:59Z</time>
      </trkpt>
      <trkpt lat="44.84402" lon="5.81441">
        <ele>899</ele>
        <time>2023-09-28T12:38:00Z</time>
      </trkpt>
      <trkpt lat="44.84403" lon="5.81433">
        <ele>899</ele>
        <time>2023-09-28T12:38:01Z</time>
      </trkpt>
      <trkpt lat="44.84404" lon="5.81425">
        <ele>899.1</ele>
        <time>2023-09-28T12:38:02Z</time>
      </trkpt>
      <trkpt lat="44.84405" lon="5.81418">
        <ele>899.1</ele>
        <time>2023-09-28T12:38:03Z</time>
      </trkpt>
      <trkpt lat="44.84406" lon="5.81411">
        <ele>899.2</ele>
        <time>2023-09-28T12:38:04Z</time>
      </trkpt>
      <trkpt lat="44.84407" lon="5.81403">
        <ele>899.2</ele>
        <time>2023-09-28T12:38:05Z</time>
      </trkpt>
      <trkpt lat="44.84408" lon="5.81396">
        <ele>899.3</ele>
        <time>2023-09-28T12:38:06Z</time>
      </trkpt>
      <trkpt lat="44.84409" lon="5.81388">
        <ele>899.3</ele>
        <time>2023-09-28T12:38:07Z</time>
      </trkpt>
      <trkpt lat="44.8441" lon="5.81381">
        <ele>899.4</ele>
        <time>2023-09-28T12:38:08Z</time>
      </trkpt>
      <trkpt lat="44.84411" lon="5.81373">
        <ele>899.4</ele>
        <time>2023-09-28T12:38:09Z</time>
      </trkpt>
      <trkpt lat="44.84412" lon="5.81365">
        <ele>899.4</ele>
        <time>2023-09-28T12:38:10Z</time>
      </trkpt>
      <trkpt lat="44.84413" lon="5.81358">
        <ele>899.5</ele>
        <time>2023-09-28T12:38:11Z</time>
      </trkpt>
      <trkpt lat="44.84414" lon="5.8135">
        <ele>899.5</ele>
        <time>2023-09-28T12:38:12Z</time>
      </trkpt>
      <trkpt lat="44.84415" lon="5.81343">
        <ele>899.5</ele>
        <time>2023-09-28T12:38:13Z</time>
      </trkpt>
      <trkpt lat="44.84416" lon="5.81335">
        <ele>899.6</ele>
        <time>2023-09-28T12:38:14Z</time>
      </trkpt>
      <trkpt lat="44.84417" lon="5.81328">
        <ele>899.6</ele>
        <time>2023-09-28T12:38:15Z</time>
      </trkpt>
      <trkpt lat="44.84418" lon="5.81321">
        <ele>899.7</ele>
        <time>2023-09-28T12:38:16Z</time>
      </trkpt>
      <trkpt lat="44.84419" lon="5.81314">
        <ele>899.8</ele>
        <time>2023-09-28T12:38:17Z</time>
      </trkpt>
      <trkpt lat="44.8442" lon="5.81306">
        <ele>899.8</ele>
        <time>2023-09-28T12:38:18Z</time>
      </trkpt>
      <trkpt lat="44.84421" lon="5.81299">
        <ele>899.9</ele>
        <time>2023-09-28T12:38:19Z</time>
      </trkpt>
      <trkpt lat="44.84422" lon="5.81291">
        <ele>900</ele>
        <time>2023-09-28T12:38:20Z</time>
      </trkpt>
      <trkpt lat="44.84423" lon="5.81284">
        <ele>900.1</ele>
        <time>2023-09-28T12:38:21Z</time>
      </trkpt>
      <trkpt lat="44.84424" lon="5.81277">
        <ele>900.2</ele>
        <time>2023-09-28T12:38:22Z</time>
      </trkpt>
      <trkpt lat="44.84425" lon="5.81269">
        <ele>900.3</ele>
        <time>2023-09-28T12:38:23Z</time>
      </trkpt>
      <trkpt lat="44.84426" lon="5.81262">
        <ele>900.3</ele>
        <time>2023-09-28T12:38:24Z</time>
      </trkpt>
      <trkpt lat="44.84426" lon="5.81254">
        <ele>900.4</ele>
        <time>2023-09-28T12:38:25Z</time>
      </trkpt>
      <trkpt lat="44.84428" lon="5.81247">
        <ele>900.5</ele>
        <time>2023-09-28T12:38:26Z</time>
      </trkpt>
      <trkpt lat="44.84429" lon="5.8124">
        <ele>900.5</ele>
        <time>2023-09-28T12:38:27Z</time>
      </trkpt>
      <trkpt lat="44.8443" lon="5.81233">
        <ele>900.6</ele>
        <time>2023-09-28T12:38:28Z</time>
      </trkpt>
      <trkpt lat="44.84431" lon="5.81225">
        <ele>900.7</ele>
        <time>2023-09-28T12:38:29Z</time>
      </trkpt>
      <trkpt lat="44.84432" lon="5.81218">
        <ele>900.7</ele>
        <time>2023-09-28T12:38:30Z</time>
      </trkpt>
      <trkpt lat="44.84433" lon="5.8121">
        <ele>900.7</ele>
        <time>2023-09-28T12:38:31Z</time>
      </trkpt>
      <trkpt lat="44.84434" lon="5.81203">
        <ele>900.6</ele>
        <time>2023-09-28T12:38:32Z</time>
      </trkpt>
      <trkpt lat="44.84434" lon="5.81195">
        <ele>900.6</ele>
        <time>2023-09-28T12:38:33Z</time>
      </trkpt>
      <trkpt lat="44.84435" lon="5.81187">
        <ele>900.6</ele>
        <time>2023-09-28T12:38:34Z</time>
      </trkpt>
      <trkpt lat="44.84435" lon="5.8118">
        <ele>900.6</ele>
        <time>2023-09-28T12:38:35Z</time>
      </trkpt>
      <trkpt lat="44.84436" lon="5.81172">
        <ele>900.6</ele>
        <time>2023-09-28T12:38:36Z</time>
      </trkpt>
      <trkpt lat="44.84435" lon="5.81165">
        <ele>900.6</ele>
        <time>2023-09-28T12:38:37Z</time>
      </trkpt>
      <trkpt lat="44.84434" lon="5.81157">
        <ele>900.6</ele>
        <time>2023-09-28T12:38:38Z</time>
      </trkpt>
      <trkpt lat="44.84433" lon="5.8115">
        <ele>900.6</ele>
        <time>2023-09-28T12:38:39Z</time>
      </trkpt>
      <trkpt lat="44.84432" lon="5.81143">
        <ele>900.6</ele>
        <time>2023-09-28T12:38:40Z</time>
      </trkpt>
      <trkpt lat="44.84432" lon="5.81136">
        <ele>900.6</ele>
        <time>2023-09-28T12:38:41Z</time>
      </trkpt>
      <trkpt lat="44.8443" lon="5.8113">
        <ele>900.6</ele>
        <time>2023-09-28T12:38:42Z</time>
      </trkpt>
      <trkpt lat="44.84429" lon="5.81123">
        <ele>900.6</ele>
        <time>2023-09-28T12:38:43Z</time>
      </trkpt>
      <trkpt lat="44.84427" lon="5.81116">
        <ele>900.6</ele>
        <time>2023-09-28T12:38:44Z</time>
      </trkpt>
      <trkpt lat="44.84426" lon="5.8111">
        <ele>900.6</ele>
        <time>2023-09-28T12:38:45Z</time>
      </trkpt>
      <trkpt lat="44.84425" lon="5.81103">
        <ele>900.6</ele>
        <time>2023-09-28T12:38:46Z</time>
      </trkpt>
      <trkpt lat="44.84424" lon="5.81096">
        <ele>900.5</ele>
        <time>2023-09-28T12:38:47Z</time>
      </trkpt>
      <trkpt lat="44.84423" lon="5.81089">
        <ele>900.5</ele>
        <time>2023-09-28T12:38:48Z</time>
      </trkpt>
      <trkpt lat="44.84422" lon="5.81082">
        <ele>900.4</ele>
        <time>2023-09-28T12:38:49Z</time>
      </trkpt>
      <trkpt lat="44.84421" lon="5.81075">
        <ele>900.3</ele>
        <time>2023-09-28T12:38:50Z</time>
      </trkpt>
      <trkpt lat="44.84419" lon="5.81068">
        <ele>900.2</ele>
        <time>2023-09-28T12:38:51Z</time>
      </trkpt>
      <trkpt lat="44.84418" lon="5.8106">
        <ele>900.1</ele>
        <time>2023-09-28T12:38:52Z</time>
      </trkpt>
      <trkpt lat="44.84417" lon="5.81053">
        <ele>900</ele>
        <time>2023-09-28T12:38:53Z</time>
      </trkpt>
      <trkpt lat="44.84415" lon="5.81045">
        <ele>899.9</ele>
        <time>2023-09-28T12:38:54Z</time>
      </trkpt>
      <trkpt lat="44.84414" lon="5.81037">
        <ele>899.8</ele>
        <time>2023-09-28T12:38:55Z</time>
      </trkpt>
      <trkpt lat="44.84413" lon="5.81029">
        <ele>899.7</ele>
        <time>2023-09-28T12:38:56Z</time>
      </trkpt>
      <trkpt lat="44.84411" lon="5.81021">
        <ele>899.6</ele>
        <time>2023-09-28T12:38:57Z</time>
      </trkpt>
      <trkpt lat="44.84409" lon="5.81012">
        <ele>899.5</ele>
        <time>2023-09-28T12:38:58Z</time>
      </trkpt>
      <trkpt lat="44.84407" lon="5.81004">
        <ele>899.3</ele>
        <time>2023-09-28T12:38:59Z</time>
      </trkpt>
      <trkpt lat="44.84405" lon="5.80996">
        <ele>899.2</ele>
        <time>2023-09-28T12:39:00Z</time>
      </trkpt>
      <trkpt lat="44.84404" lon="5.80987">
        <ele>899.1</ele>
        <time>2023-09-28T12:39:01Z</time>
      </trkpt>
      <trkpt lat="44.84403" lon="5.80979">
        <ele>899.1</ele>
        <time>2023-09-28T12:39:02Z</time>
      </trkpt>
      <trkpt lat="44.84401" lon="5.8097">
        <ele>899</ele>
        <time>2023-09-28T12:39:03Z</time>
      </trkpt>
      <trkpt lat="44.844" lon="5.80962">
        <ele>898.9</ele>
        <time>2023-09-28T12:39:04Z</time>
      </trkpt>
      <trkpt lat="44.84398" lon="5.80954">
        <ele>898.8</ele>
        <time>2023-09-28T12:39:05Z</time>
      </trkpt>
      <trkpt lat="44.84397" lon="5.80945">
        <ele>898.8</ele>
        <time>2023-09-28T12:39:06Z</time>
      </trkpt>
      <trkpt lat="44.84395" lon="5.80937">
        <ele>898.8</ele>
        <time>2023-09-28T12:39:07Z</time>
      </trkpt>
      <trkpt lat="44.84394" lon="5.80928">
        <ele>898.8</ele>
        <time>2023-09-28T12:39:08Z</time>
      </trkpt>
      <trkpt lat="44.84392" lon="5.8092">
        <ele>898.8</ele>
        <time>2023-09-28T12:39:09Z</time>
      </trkpt>
      <trkpt lat="44.84391" lon="5.80912">
        <ele>898.9</ele>
        <time>2023-09-28T12:39:10Z</time>
      </trkpt>
      <trkpt lat="44.84389" lon="5.80904">
        <ele>898.9</ele>
        <time>2023-09-28T12:39:11Z</time>
      </trkpt>
      <trkpt lat="44.84388" lon="5.80896">
        <ele>899</ele>
        <time>2023-09-28T12:39:12Z</time>
      </trkpt>
      <trkpt lat="44.84386" lon="5.80889">
        <ele>899.1</ele>
        <time>2023-09-28T12:39:13Z</time>
      </trkpt>
      <trkpt lat="44.84385" lon="5.80881">
        <ele>899.2</ele>
        <time>2023-09-28T12:39:14Z</time>
      </trkpt>
      <trkpt lat="44.84383" lon="5.80873">
        <ele>899.2</ele>
        <time>2023-09-28T12:39:15Z</time>
      </trkpt>
      <trkpt lat="44.84382" lon="5.80865">
        <ele>899.3</ele>
        <time>2023-09-28T12:39:16Z</time>
      </trkpt>
      <trkpt lat="44.8438" lon="5.80858">
        <ele>899.3</ele>
        <time>2023-09-28T12:39:17Z</time>
      </trkpt>
      <trkpt lat="44.84379" lon="5.8085">
        <ele>899.3</ele>
        <time>2023-09-28T12:39:18Z</time>
      </trkpt>
      <trkpt lat="44.84378" lon="5.80843">
        <ele>899.4</ele>
        <time>2023-09-28T12:39:19Z</time>
      </trkpt>
      <trkpt lat="44.84377" lon="5.80835">
        <ele>899.5</ele>
        <time>2023-09-28T12:39:20Z</time>
      </trkpt>
      <trkpt lat="44.84376" lon="5.80828">
        <ele>899.6</ele>
        <time>2023-09-28T12:39:21Z</time>
      </trkpt>
      <trkpt lat="44.84375" lon="5.8082">
        <ele>899.7</ele>
        <time>2023-09-28T12:39:22Z</time>
      </trkpt>
      <trkpt lat="44.84374" lon="5.80812">
        <ele>899.8</ele>
        <time>2023-09-28T12:39:23Z</time>
      </trkpt>
      <trkpt lat="44.84374" lon="5.80805">
        <ele>899.9</ele>
        <time>2023-09-28T12:39:24Z</time>
      </trkpt>
      <trkpt lat="44.84373" lon="5.80798">
        <ele>900.1</ele>
        <time>2023-09-28T12:39:25Z</time>
      </trkpt>
      <trkpt lat="44.84373" lon="5.8079">
        <ele>900.2</ele>
        <time>2023-09-28T12:39:26Z</time>
      </trkpt>
      <trkpt lat="44.84372" lon="5.80783">
        <ele>900.3</ele>
        <time>2023-09-28T12:39:27Z</time>
      </trkpt>
      <trkpt lat="44.84372" lon="5.80775">
        <ele>900.5</ele>
        <time>2023-09-28T12:39:28Z</time>
      </trkpt>
      <trkpt lat="44.84372" lon="5.80767">
        <ele>900.6</ele>
        <time>2023-09-28T12:39:29Z</time>
      </trkpt>
      <trkpt lat="44.84372" lon="5.8076">
        <ele>900.7</ele>
        <time>2023-09-28T12:39:30Z</time>
      </trkpt>
      <trkpt lat="44.84371" lon="5.80753">
        <ele>900.9</ele>
        <time>2023-09-28T12:39:31Z</time>
      </trkpt>
      <trkpt lat="44.84371" lon="5.80746">
        <ele>901</ele>
        <time>2023-09-28T12:39:32Z</time>
      </trkpt>
      <trkpt lat="44.84371" lon="5.80739">
        <ele>901.1</ele>
        <time>2023-09-28T12:39:33Z</time>
      </trkpt>
      <trkpt lat="44.84371" lon="5.80732">
        <ele>901.3</ele>
        <time>2023-09-28T12:39:34Z</time>
      </trkpt>
      <trkpt lat="44.84371" lon="5.80726">
        <ele>901.4</ele>
        <time>2023-09-28T12:39:35Z</time>
      </trkpt>
      <trkpt lat="44.8437" lon="5.80719">
        <ele>901.6</ele>
        <time>2023-09-28T12:39:36Z</time>
      </trkpt>
      <trkpt lat="44.8437" lon="5.80712">
        <ele>901.7</ele>
        <time>2023-09-28T12:39:37Z</time>
      </trkpt>
      <trkpt lat="44.8437" lon="5.80706">
        <ele>901.9</ele>
        <time>2023-09-28T12:39:38Z</time>
      </trkpt>
      <trkpt lat="44.84369" lon="5.80699">
        <ele>902.1</ele>
        <time>2023-09-28T12:39:39Z</time>
      </trkpt>
      <trkpt lat="44.84369" lon="5.80693">
        <ele>902.3</ele>
        <time>2023-09-28T12:39:40Z</time>
      </trkpt>
      <trkpt lat="44.84368" lon="5.80686">
        <ele>902.5</ele>
        <time>2023-09-28T12:39:41Z</time>
      </trkpt>
      <trkpt lat="44.84368" lon="5.8068">
        <ele>902.7</ele>
        <time>2023-09-28T12:39:42Z</time>
      </trkpt>
      <trkpt lat="44.84367" lon="5.80674">
        <ele>902.9</ele>
        <time>2023-09-28T12:39:43Z</time>
      </trkpt>
      <trkpt lat="44.84367" lon="5.80667">
        <ele>903.1</ele>
        <time>2023-09-28T12:39:44Z</time>
      </trkpt>
      <trkpt lat="44.84367" lon="5.80661">
        <ele>903.3</ele>
        <time>2023-09-28T12:39:45Z</time>
      </trkpt>
      <trkpt lat="44.84367" lon="5.80655">
        <ele>903.6</ele>
        <time>2023-09-28T12:39:46Z</time>
      </trkpt>
      <trkpt lat="44.84367" lon="5.80649">
        <ele>903.8</ele>
        <time>2023-09-28T12:39:47Z</time>
      </trkpt>
      <trkpt lat="44.84366" lon="5.80642">
        <ele>903.9</ele>
        <time>2023-09-28T12:39:48Z</time>
      </trkpt>
      <trkpt lat="44.84366" lon="5.80636">
        <ele>904.1</ele>
        <time>2023-09-28T12:39:49Z</time>
      </trkpt>
      <trkpt lat="44.84367" lon="5.80629">
        <ele>904.3</ele>
        <time>2023-09-28T12:39:51Z</time>
      </trkpt>
      <trkpt lat="44.84366" lon="5.8062">
        <ele>904.5</ele>
        <time>2023-09-28T12:39:52Z</time>
      </trkpt>
      <trkpt lat="44.84366" lon="5.80612">
        <ele>904.6</ele>
        <time>2023-09-28T12:39:53Z</time>
      </trkpt>
      <trkpt lat="44.84365" lon="5.80604">
        <ele>904.8</ele>
        <time>2023-09-28T12:39:54Z</time>
      </trkpt>
      <trkpt lat="44.84364" lon="5.80598">
        <ele>905</ele>
        <time>2023-09-28T12:39:56Z</time>
      </trkpt>
      <trkpt lat="44.84364" lon="5.80592">
        <ele>905.1</ele>
        <time>2023-09-28T12:39:57Z</time>
      </trkpt>
      <trkpt lat="44.84364" lon="5.80585">
        <ele>905.3</ele>
        <time>2023-09-28T12:39:58Z</time>
      </trkpt>
      <trkpt lat="44.84363" lon="5.80579">
        <ele>905.5</ele>
        <time>2023-09-28T12:39:59Z</time>
      </trkpt>
      <trkpt lat="44.84362" lon="5.80572">
        <ele>905.7</ele>
        <time>2023-09-28T12:40:00Z</time>
      </trkpt>
      <trkpt lat="44.84362" lon="5.80565">
        <ele>905.9</ele>
        <time>2023-09-28T12:40:01Z</time>
      </trkpt>
      <trkpt lat="44.84361" lon="5.8056">
        <ele>906.1</ele>
        <time>2023-09-28T12:40:02Z</time>
      </trkpt>
      <trkpt lat="44.8436" lon="5.80553">
        <ele>906.3</ele>
        <time>2023-09-28T12:40:03Z</time>
      </trkpt>
      <trkpt lat="44.84358" lon="5.80544">
        <ele>906.6</ele>
        <time>2023-09-28T12:40:05Z</time>
      </trkpt>
      <trkpt lat="44.84356" lon="5.80537">
        <ele>906.7</ele>
        <time>2023-09-28T12:40:06Z</time>
      </trkpt>
      <trkpt lat="44.84355" lon="5.8053">
        <ele>906.8</ele>
        <time>2023-09-28T12:40:07Z</time>
      </trkpt>
      <trkpt lat="44.84353" lon="5.80523">
        <ele>907</ele>
        <time>2023-09-28T12:40:09Z</time>
      </trkpt>
      <trkpt lat="44.84351" lon="5.80515">
        <ele>907.1</ele>
        <time>2023-09-28T12:40:10Z</time>
      </trkpt>
      <trkpt lat="44.84348" lon="5.80508">
        <ele>907.2</ele>
        <time>2023-09-28T12:40:11Z</time>
      </trkpt>
      <trkpt lat="44.84345" lon="5.805">
        <ele>907.3</ele>
        <time>2023-09-28T12:40:13Z</time>
      </trkpt>
      <trkpt lat="44.84343" lon="5.80494">
        <ele>907.4</ele>
        <time>2023-09-28T12:40:14Z</time>
      </trkpt>
      <trkpt lat="44.84342" lon="5.80489">
        <ele>907.5</ele>
        <time>2023-09-28T12:40:15Z</time>
      </trkpt>
      <trkpt lat="44.84338" lon="5.80477">
        <ele>907.8</ele>
        <time>2023-09-28T12:40:17Z</time>
      </trkpt>
      <trkpt lat="44.84336" lon="5.8047">
        <ele>907.9</ele>
        <time>2023-09-28T12:40:18Z</time>
      </trkpt>
      <trkpt lat="44.84334" lon="5.80464">
        <ele>908</ele>
        <time>2023-09-28T12:40:19Z</time>
      </trkpt>
      <trkpt lat="44.84332" lon="5.80457">
        <ele>908.2</ele>
        <time>2023-09-28T12:40:21Z</time>
      </trkpt>
      <trkpt lat="44.8433" lon="5.80451">
        <ele>908.3</ele>
        <time>2023-09-28T12:40:22Z</time>
      </trkpt>
      <trkpt lat="44.84327" lon="5.80444">
        <ele>908.4</ele>
        <time>2023-09-28T12:40:23Z</time>
      </trkpt>
      <trkpt lat="44.84325" lon="5.80438">
        <ele>908.5</ele>
        <time>2023-09-28T12:40:24Z</time>
      </trkpt>
      <trkpt lat="44.84323" lon="5.80432">
        <ele>908.6</ele>
        <time>2023-09-28T12:40:25Z</time>
      </trkpt>
      <trkpt lat="44.84321" lon="5.80425">
        <ele>908.6</ele>
        <time>2023-09-28T12:40:26Z</time>
      </trkpt>
      <trkpt lat="44.84319" lon="5.80419">
        <ele>908.7</ele>
        <time>2023-09-28T12:40:27Z</time>
      </trkpt>
      <trkpt lat="44.84317" lon="5.80414">
        <ele>908.7</ele>
        <time>2023-09-28T12:40:28Z</time>
      </trkpt>
      <trkpt lat="44.84315" lon="5.80408">
        <ele>908.7</ele>
        <time>2023-09-28T12:40:29Z</time>
      </trkpt>
      <trkpt lat="44.84312" lon="5.80402">
        <ele>908.7</ele>
        <time>2023-09-28T12:40:30Z</time>
      </trkpt>
      <trkpt lat="44.8431" lon="5.80396">
        <ele>908.8</ele>
        <time>2023-09-28T12:40:31Z</time>
      </trkpt>
      <trkpt lat="44.84308" lon="5.80391">
        <ele>908.8</ele>
        <time>2023-09-28T12:40:32Z</time>
      </trkpt>
      <trkpt lat="44.84305" lon="5.80385">
        <ele>908.9</ele>
        <time>2023-09-28T12:40:33Z</time>
      </trkpt>
      <trkpt lat="44.84303" lon="5.80379">
        <ele>909</ele>
        <time>2023-09-28T12:40:34Z</time>
      </trkpt>
      <trkpt lat="44.843" lon="5.80373">
        <ele>909</ele>
        <time>2023-09-28T12:40:35Z</time>
      </trkpt>
      <trkpt lat="44.84298" lon="5.80368">
        <ele>909.1</ele>
        <time>2023-09-28T12:40:36Z</time>
      </trkpt>
      <trkpt lat="44.84295" lon="5.80362">
        <ele>909.1</ele>
        <time>2023-09-28T12:40:37Z</time>
      </trkpt>
      <trkpt lat="44.84292" lon="5.80356">
        <ele>909.2</ele>
        <time>2023-09-28T12:40:38Z</time>
      </trkpt>
      <trkpt lat="44.84289" lon="5.80351">
        <ele>909.3</ele>
        <time>2023-09-28T12:40:39Z</time>
      </trkpt>
      <trkpt lat="44.84286" lon="5.80345">
        <ele>909.4</ele>
        <time>2023-09-28T12:40:40Z</time>
      </trkpt>
      <trkpt lat="44.84283" lon="5.80339">
        <ele>909.5</ele>
        <time>2023-09-28T12:40:41Z</time>
      </trkpt>
      <trkpt lat="44.8428" lon="5.80334">
        <ele>909.6</ele>
        <time>2023-09-28T12:40:42Z</time>
      </trkpt>
      <trkpt lat="44.84277" lon="5.80329">
        <ele>909.7</ele>
        <time>2023-09-28T12:40:43Z</time>
      </trkpt>
      <trkpt lat="44.84274" lon="5.80324">
        <ele>909.8</ele>
        <time>2023-09-28T12:40:44Z</time>
      </trkpt>
      <trkpt lat="44.8427" lon="5.80319">
        <ele>909.9</ele>
        <time>2023-09-28T12:40:45Z</time>
      </trkpt>
      <trkpt lat="44.84267" lon="5.80314">
        <ele>910</ele>
        <time>2023-09-28T12:40:46Z</time>
      </trkpt>
      <trkpt lat="44.84264" lon="5.80309">
        <ele>910.1</ele>
        <time>2023-09-28T12:40:47Z</time>
      </trkpt>
      <trkpt lat="44.84261" lon="5.80305">
        <ele>910.2</ele>
        <time>2023-09-28T12:40:48Z</time>
      </trkpt>
      <trkpt lat="44.84258" lon="5.803">
        <ele>910.3</ele>
        <time>2023-09-28T12:40:49Z</time>
      </trkpt>
      <trkpt lat="44.84254" lon="5.80296">
        <ele>910.4</ele>
        <time>2023-09-28T12:40:50Z</time>
      </trkpt>
      <trkpt lat="44.84251" lon="5.80292">
        <ele>910.5</ele>
        <time>2023-09-28T12:40:51Z</time>
      </trkpt>
      <trkpt lat="44.84248" lon="5.80287">
        <ele>910.6</ele>
        <time>2023-09-28T12:40:52Z</time>
      </trkpt>
      <trkpt lat="44.84244" lon="5.80283">
        <ele>910.8</ele>
        <time>2023-09-28T12:40:53Z</time>
      </trkpt>
      <trkpt lat="44.84241" lon="5.80279">
        <ele>910.9</ele>
        <time>2023-09-28T12:40:54Z</time>
      </trkpt>
      <trkpt lat="44.84238" lon="5.80275">
        <ele>911</ele>
        <time>2023-09-28T12:40:55Z</time>
      </trkpt>
      <trkpt lat="44.84234" lon="5.80271">
        <ele>911.1</ele>
        <time>2023-09-28T12:40:56Z</time>
      </trkpt>
      <trkpt lat="44.84231" lon="5.80267">
        <ele>911.2</ele>
        <time>2023-09-28T12:40:57Z</time>
      </trkpt>
      <trkpt lat="44.84227" lon="5.80263">
        <ele>911.3</ele>
        <time>2023-09-28T12:40:58Z</time>
      </trkpt>
      <trkpt lat="44.84224" lon="5.80259">
        <ele>911.4</ele>
        <time>2023-09-28T12:40:59Z</time>
      </trkpt>
      <trkpt lat="44.8422" lon="5.80255">
        <ele>911.5</ele>
        <time>2023-09-28T12:41:00Z</time>
      </trkpt>
      <trkpt lat="44.84216" lon="5.80251">
        <ele>911.6</ele>
        <time>2023-09-28T12:41:01Z</time>
      </trkpt>
      <trkpt lat="44.84213" lon="5.80247">
        <ele>911.7</ele>
        <time>2023-09-28T12:41:02Z</time>
      </trkpt>
      <trkpt lat="44.84209" lon="5.80243">
        <ele>911.7</ele>
        <time>2023-09-28T12:41:03Z</time>
      </trkpt>
      <trkpt lat="44.84205" lon="5.80239">
        <ele>911.7</ele>
        <time>2023-09-28T12:41:04Z</time>
      </trkpt>
      <trkpt lat="44.84202" lon="5.80235">
        <ele>911.7</ele>
        <time>2023-09-28T12:41:05Z</time>
      </trkpt>
      <trkpt lat="44.84198" lon="5.8023">
        <ele>911.7</ele>
        <time>2023-09-28T12:41:06Z</time>
      </trkpt>
      <trkpt lat="44.84195" lon="5.80226">
        <ele>911.8</ele>
        <time>2023-09-28T12:41:07Z</time>
      </trkpt>
      <trkpt lat="44.84191" lon="5.80222">
        <ele>911.9</ele>
        <time>2023-09-28T12:41:08Z</time>
      </trkpt>
      <trkpt lat="44.84188" lon="5.80219">
        <ele>912</ele>
        <time>2023-09-28T12:41:09Z</time>
      </trkpt>
      <trkpt lat="44.84184" lon="5.80215">
        <ele>912.1</ele>
        <time>2023-09-28T12:41:10Z</time>
      </trkpt>
      <trkpt lat="44.8418" lon="5.80211">
        <ele>912.2</ele>
        <time>2023-09-28T12:41:11Z</time>
      </trkpt>
      <trkpt lat="44.84177" lon="5.80208">
        <ele>912.3</ele>
        <time>2023-09-28T12:41:12Z</time>
      </trkpt>
      <trkpt lat="44.84173" lon="5.80204">
        <ele>912.4</ele>
        <time>2023-09-28T12:41:13Z</time>
      </trkpt>
      <trkpt lat="44.8417" lon="5.802">
        <ele>912.5</ele>
        <time>2023-09-28T12:41:14Z</time>
      </trkpt>
      <trkpt lat="44.84166" lon="5.80195">
        <ele>912.5</ele>
        <time>2023-09-28T12:41:15Z</time>
      </trkpt>
      <trkpt lat="44.84162" lon="5.80191">
        <ele>912.6</ele>
        <time>2023-09-28T12:41:16Z</time>
      </trkpt>
      <trkpt lat="44.84159" lon="5.80187">
        <ele>912.7</ele>
        <time>2023-09-28T12:41:17Z</time>
      </trkpt>
      <trkpt lat="44.84155" lon="5.80184">
        <ele>912.8</ele>
        <time>2023-09-28T12:41:18Z</time>
      </trkpt>
      <trkpt lat="44.84152" lon="5.8018">
        <ele>912.9</ele>
        <time>2023-09-28T12:41:20Z</time>
      </trkpt>
      <trkpt lat="44.84147" lon="5.80175">
        <ele>913.1</ele>
        <time>2023-09-28T12:41:21Z</time>
      </trkpt>
      <trkpt lat="44.84143" lon="5.8017">
        <ele>913.2</ele>
        <time>2023-09-28T12:41:22Z</time>
      </trkpt>
      <trkpt lat="44.84139" lon="5.80166">
        <ele>913.3</ele>
        <time>2023-09-28T12:41:23Z</time>
      </trkpt>
      <trkpt lat="44.84134" lon="5.80163">
        <ele>913.4</ele>
        <time>2023-09-28T12:41:24Z</time>
      </trkpt>
      <trkpt lat="44.84131" lon="5.80159">
        <ele>913.5</ele>
        <time>2023-09-28T12:41:25Z</time>
      </trkpt>
      <trkpt lat="44.84125" lon="5.80153">
        <ele>913.7</ele>
        <time>2023-09-28T12:41:26Z</time>
      </trkpt>
      <trkpt lat="44.84123" lon="5.80151">
        <ele>913.7</ele>
        <time>2023-09-28T12:41:27Z</time>
      </trkpt>
      <trkpt lat="44.84119" lon="5.80147">
        <ele>913.8</ele>
        <time>2023-09-28T12:41:28Z</time>
      </trkpt>
      <trkpt lat="44.84115" lon="5.80143">
        <ele>913.9</ele>
        <time>2023-09-28T12:41:29Z</time>
      </trkpt>
      <trkpt lat="44.84111" lon="5.80139">
        <ele>914</ele>
        <time>2023-09-28T12:41:31Z</time>
      </trkpt>
      <trkpt lat="44.84106" lon="5.80134">
        <ele>914.2</ele>
        <time>2023-09-28T12:41:32Z</time>
      </trkpt>
      <trkpt lat="44.84102" lon="5.8013">
        <ele>914.3</ele>
        <time>2023-09-28T12:41:33Z</time>
      </trkpt>
      <trkpt lat="44.84098" lon="5.80126">
        <ele>914.4</ele>
        <time>2023-09-28T12:41:34Z</time>
      </trkpt>
      <trkpt lat="44.84094" lon="5.80122">
        <ele>914.5</ele>
        <time>2023-09-28T12:41:35Z</time>
      </trkpt>
      <trkpt lat="44.8409" lon="5.80118">
        <ele>914.6</ele>
        <time>2023-09-28T12:41:36Z</time>
      </trkpt>
      <trkpt lat="44.84086" lon="5.80115">
        <ele>914.7</ele>
        <time>2023-09-28T12:41:37Z</time>
      </trkpt>
      <trkpt lat="44.84081" lon="5.80111">
        <ele>914.9</ele>
        <time>2023-09-28T12:41:39Z</time>
      </trkpt>
      <trkpt lat="44.84078" lon="5.80107">
        <ele>915</ele>
        <time>2023-09-28T12:41:40Z</time>
      </trkpt>
      <trkpt lat="44.84073" lon="5.80103">
        <ele>915.1</ele>
        <time>2023-09-28T12:41:41Z</time>
      </trkpt>
      <trkpt lat="44.8407" lon="5.801">
        <ele>915.2</ele>
        <time>2023-09-28T12:41:42Z</time>
      </trkpt>
      <trkpt lat="44.84066" lon="5.80096">
        <ele>915.3</ele>
        <time>2023-09-28T12:41:43Z</time>
      </trkpt>
      <trkpt lat="44.84062" lon="5.80093">
        <ele>915.5</ele>
        <time>2023-09-28T12:41:44Z</time>
      </trkpt>
      <trkpt lat="44.84058" lon="5.80089">
        <ele>915.6</ele>
        <time>2023-09-28T12:41:45Z</time>
      </trkpt>
      <trkpt lat="44.84054" lon="5.80085">
        <ele>915.7</ele>
        <time>2023-09-28T12:41:46Z</time>
      </trkpt>
      <trkpt lat="44.8405" lon="5.80081">
        <ele>915.9</ele>
        <time>2023-09-28T12:41:48Z</time>
      </trkpt>
      <trkpt lat="44.84046" lon="5.80077">
        <ele>916</ele>
        <time>2023-09-28T12:41:49Z</time>
      </trkpt>
      <trkpt lat="44.84043" lon="5.80073">
        <ele>916.1</ele>
        <time>2023-09-28T12:41:50Z</time>
      </trkpt>
      <trkpt lat="44.84039" lon="5.8007">
        <ele>916.3</ele>
        <time>2023-09-28T12:41:51Z</time>
      </trkpt>
      <trkpt lat="44.84034" lon="5.80066">
        <ele>916.4</ele>
        <time>2023-09-28T12:41:52Z</time>
      </trkpt>
      <trkpt lat="44.84031" lon="5.80063">
        <ele>916.6</ele>
        <time>2023-09-28T12:41:53Z</time>
      </trkpt>
      <trkpt lat="44.84026" lon="5.80058">
        <ele>916.7</ele>
        <time>2023-09-28T12:41:54Z</time>
      </trkpt>
      <trkpt lat="44.84022" lon="5.80054">
        <ele>916.9</ele>
        <time>2023-09-28T12:41:55Z</time>
      </trkpt>
      <trkpt lat="44.84018" lon="5.8005">
        <ele>917.1</ele>
        <time>2023-09-28T12:41:57Z</time>
      </trkpt>
      <trkpt lat="44.84013" lon="5.80046">
        <ele>917.3</ele>
        <time>2023-09-28T12:41:58Z</time>
      </trkpt>
      <trkpt lat="44.8401" lon="5.80043">
        <ele>917.4</ele>
        <time>2023-09-28T12:41:59Z</time>
      </trkpt>
      <trkpt lat="44.84005" lon="5.80038">
        <ele>917.5</ele>
        <time>2023-09-28T12:42:00Z</time>
      </trkpt>
      <trkpt lat="44.84001" lon="5.80035">
        <ele>917.7</ele>
        <time>2023-09-28T12:42:01Z</time>
      </trkpt>
      <trkpt lat="44.83997" lon="5.80032">
        <ele>917.8</ele>
        <time>2023-09-28T12:42:03Z</time>
      </trkpt>
      <trkpt lat="44.83993" lon="5.80028">
        <ele>917.9</ele>
        <time>2023-09-28T12:42:04Z</time>
      </trkpt>
      <trkpt lat="44.83988" lon="5.80023">
        <ele>918.2</ele>
        <time>2023-09-28T12:42:05Z</time>
      </trkpt>
      <trkpt lat="44.83984" lon="5.8002">
        <ele>918.3</ele>
        <time>2023-09-28T12:42:06Z</time>
      </trkpt>
      <trkpt lat="44.8398" lon="5.80015">
        <ele>918.5</ele>
        <time>2023-09-28T12:42:08Z</time>
      </trkpt>
      <trkpt lat="44.83976" lon="5.80012">
        <ele>918.6</ele>
        <time>2023-09-28T12:42:09Z</time>
      </trkpt>
      <trkpt lat="44.83972" lon="5.80008">
        <ele>918.8</ele>
        <time>2023-09-28T12:42:10Z</time>
      </trkpt>
      <trkpt lat="44.83968" lon="5.80004">
        <ele>918.9</ele>
        <time>2023-09-28T12:42:11Z</time>
      </trkpt>
      <trkpt lat="44.83964" lon="5.80002">
        <ele>919</ele>
        <time>2023-09-28T12:42:12Z</time>
      </trkpt>
      <trkpt lat="44.8396" lon="5.79998">
        <ele>919.1</ele>
        <time>2023-09-28T12:42:13Z</time>
      </trkpt>
      <trkpt lat="44.83956" lon="5.79994">
        <ele>919.2</ele>
        <time>2023-09-28T12:42:14Z</time>
      </trkpt>
      <trkpt lat="44.83953" lon="5.79991">
        <ele>919.3</ele>
        <time>2023-09-28T12:42:15Z</time>
      </trkpt>
      <trkpt lat="44.83949" lon="5.79987">
        <ele>919.5</ele>
        <time>2023-09-28T12:42:16Z</time>
      </trkpt>
      <trkpt lat="44.83943" lon="5.79982">
        <ele>919.6</ele>
        <time>2023-09-28T12:42:18Z</time>
      </trkpt>
      <trkpt lat="44.83939" lon="5.79976">
        <ele>919.8</ele>
        <time>2023-09-28T12:42:19Z</time>
      </trkpt>
      <trkpt lat="44.83937" lon="5.79972">
        <ele>919.9</ele>
        <time>2023-09-28T12:42:20Z</time>
      </trkpt>
      <trkpt lat="44.83934" lon="5.79965">
        <ele>920.1</ele>
        <time>2023-09-28T12:42:22Z</time>
      </trkpt>
      <trkpt lat="44.83931" lon="5.79957">
        <ele>920.3</ele>
        <time>2023-09-28T12:42:23Z</time>
      </trkpt>
      <trkpt lat="44.8393" lon="5.79951">
        <ele>920.5</ele>
        <time>2023-09-28T12:42:24Z</time>
      </trkpt>
      <trkpt lat="44.8393" lon="5.79945">
        <ele>920.7</ele>
        <time>2023-09-28T12:42:25Z</time>
      </trkpt>
      <trkpt lat="44.83929" lon="5.79936">
        <ele>921</ele>
        <time>2023-09-28T12:42:27Z</time>
      </trkpt>
      <trkpt lat="44.83929" lon="5.7993">
        <ele>921.2</ele>
        <time>2023-09-28T12:42:28Z</time>
      </trkpt>
      <trkpt lat="44.83929" lon="5.79925">
        <ele>921.4</ele>
        <time>2023-09-28T12:42:29Z</time>
      </trkpt>
      <trkpt lat="44.83928" lon="5.7992">
        <ele>921.6</ele>
        <time>2023-09-28T12:42:30Z</time>
      </trkpt>
      <trkpt lat="44.83927" lon="5.79916">
        <ele>921.7</ele>
        <time>2023-09-28T12:42:31Z</time>
      </trkpt>
      <trkpt lat="44.83926" lon="5.79911">
        <ele>921.9</ele>
        <time>2023-09-28T12:42:33Z</time>
      </trkpt>
      <trkpt lat="44.83925" lon="5.79906">
        <ele>922.1</ele>
        <time>2023-09-28T12:42:34Z</time>
      </trkpt>
      <trkpt lat="44.83923" lon="5.799">
        <ele>922.4</ele>
        <time>2023-09-28T12:42:35Z</time>
      </trkpt>
      <trkpt lat="44.8392" lon="5.79893">
        <ele>922.7</ele>
        <time>2023-09-28T12:42:37Z</time>
      </trkpt>
      <trkpt lat="44.83918" lon="5.79889">
        <ele>922.8</ele>
        <time>2023-09-28T12:42:38Z</time>
      </trkpt>
      <trkpt lat="44.83917" lon="5.79885">
        <ele>923</ele>
        <time>2023-09-28T12:42:39Z</time>
      </trkpt>
      <trkpt lat="44.83914" lon="5.79882">
        <ele>923.2</ele>
        <time>2023-09-28T12:42:40Z</time>
      </trkpt>
      <trkpt lat="44.83912" lon="5.79879">
        <ele>923.3</ele>
        <time>2023-09-28T12:42:41Z</time>
      </trkpt>
      <trkpt lat="44.8391" lon="5.79875">
        <ele>923.5</ele>
        <time>2023-09-28T12:42:42Z</time>
      </trkpt>
      <trkpt lat="44.83908" lon="5.79871">
        <ele>923.7</ele>
        <time>2023-09-28T12:42:43Z</time>
      </trkpt>
      <trkpt lat="44.83906" lon="5.79867">
        <ele>924</ele>
        <time>2023-09-28T12:42:45Z</time>
      </trkpt>
      <trkpt lat="44.83904" lon="5.79864">
        <ele>924.2</ele>
        <time>2023-09-28T12:42:46Z</time>
      </trkpt>
      <trkpt lat="44.83902" lon="5.7986">
        <ele>924.4</ele>
        <time>2023-09-28T12:42:47Z</time>
      </trkpt>
      <trkpt lat="44.839" lon="5.79856">
        <ele>924.6</ele>
        <time>2023-09-28T12:42:48Z</time>
      </trkpt>
      <trkpt lat="44.83898" lon="5.79853">
        <ele>924.8</ele>
        <time>2023-09-28T12:42:49Z</time>
      </trkpt>
      <trkpt lat="44.83896" lon="5.79849">
        <ele>925</ele>
        <time>2023-09-28T12:42:50Z</time>
      </trkpt>
      <trkpt lat="44.83894" lon="5.79847">
        <ele>925.1</ele>
        <time>2023-09-28T12:42:51Z</time>
      </trkpt>
      <trkpt lat="44.83891" lon="5.79844">
        <ele>925.4</ele>
        <time>2023-09-28T12:42:53Z</time>
      </trkpt>
      <trkpt lat="44.83888" lon="5.79841">
        <ele>925.6</ele>
        <time>2023-09-28T12:42:54Z</time>
      </trkpt>
      <trkpt lat="44.83885" lon="5.79839">
        <ele>925.8</ele>
        <time>2023-09-28T12:42:55Z</time>
      </trkpt>
      <trkpt lat="44.83883" lon="5.79837">
        <ele>926</ele>
        <time>2023-09-28T12:42:56Z</time>
      </trkpt>
      <trkpt lat="44.83881" lon="5.79834">
        <ele>926.1</ele>
        <time>2023-09-28T12:42:57Z</time>
      </trkpt>
      <trkpt lat="44.83879" lon="5.79832">
        <ele>926.3</ele>
        <time>2023-09-28T12:42:58Z</time>
      </trkpt>
      <trkpt lat="44.83877" lon="5.79828">
        <ele>926.5</ele>
        <time>2023-09-28T12:43:00Z</time>
      </trkpt>
      <trkpt lat="44.83874" lon="5.79824">
        <ele>926.8</ele>
        <time>2023-09-28T12:43:01Z</time>
      </trkpt>
      <trkpt lat="44.83873" lon="5.79823">
        <ele>926.9</ele>
        <time>2023-09-28T12:43:02Z</time>
      </trkpt>
      <trkpt lat="44.83871" lon="5.79819">
        <ele>927.1</ele>
        <time>2023-09-28T12:43:03Z</time>
      </trkpt>
      <trkpt lat="44.83869" lon="5.79815">
        <ele>927.3</ele>
        <time>2023-09-28T12:43:04Z</time>
      </trkpt>
      <trkpt lat="44.83868" lon="5.79813">
        <ele>927.4</ele>
        <time>2023-09-28T12:43:05Z</time>
      </trkpt>
      <trkpt lat="44.83866" lon="5.7981">
        <ele>927.6</ele>
        <time>2023-09-28T12:43:06Z</time>
      </trkpt>
      <trkpt lat="44.83865" lon="5.79803">
        <ele>927.9</ele>
        <time>2023-09-28T12:43:08Z</time>
      </trkpt>
      <trkpt lat="44.83864" lon="5.79801">
        <ele>928.1</ele>
        <time>2023-09-28T12:43:09Z</time>
      </trkpt>
      <trkpt lat="44.83863" lon="5.79798">
        <ele>928.2</ele>
        <time>2023-09-28T12:43:10Z</time>
      </trkpt>
      <trkpt lat="44.83863" lon="5.79794">
        <ele>928.4</ele>
        <time>2023-09-28T12:43:11Z</time>
      </trkpt>
      <trkpt lat="44.83863" lon="5.7979">
        <ele>928.6</ele>
        <time>2023-09-28T12:43:12Z</time>
      </trkpt>
      <trkpt lat="44.83863" lon="5.79784">
        <ele>928.8</ele>
        <time>2023-09-28T12:43:13Z</time>
      </trkpt>
      <trkpt lat="44.83863" lon="5.79783">
        <ele>928.9</ele>
        <time>2023-09-28T12:43:14Z</time>
      </trkpt>
      <trkpt lat="44.83863" lon="5.79776">
        <ele>929.1</ele>
        <time>2023-09-28T12:43:16Z</time>
      </trkpt>
      <trkpt lat="44.83863" lon="5.79774">
        <ele>929.2</ele>
        <time>2023-09-28T12:43:17Z</time>
      </trkpt>
      <trkpt lat="44.83863" lon="5.79771">
        <ele>929.3</ele>
        <time>2023-09-28T12:43:18Z</time>
      </trkpt>
      <trkpt lat="44.83863" lon="5.79767">
        <ele>929.5</ele>
        <time>2023-09-28T12:43:19Z</time>
      </trkpt>
      <trkpt lat="44.83864" lon="5.79763">
        <ele>929.7</ele>
        <time>2023-09-28T12:43:20Z</time>
      </trkpt>
      <trkpt lat="44.83864" lon="5.79759">
        <ele>929.8</ele>
        <time>2023-09-28T12:43:21Z</time>
      </trkpt>
      <trkpt lat="44.83864" lon="5.79754">
        <ele>930</ele>
        <time>2023-09-28T12:43:22Z</time>
      </trkpt>
      <trkpt lat="44.83864" lon="5.79752">
        <ele>930.1</ele>
        <time>2023-09-28T12:43:23Z</time>
      </trkpt>
      <trkpt lat="44.83865" lon="5.79748">
        <ele>930.3</ele>
        <time>2023-09-28T12:43:25Z</time>
      </trkpt>
      <trkpt lat="44.83866" lon="5.79743">
        <ele>930.5</ele>
        <time>2023-09-28T12:43:26Z</time>
      </trkpt>
      <trkpt lat="44.83866" lon="5.79738">
        <ele>930.7</ele>
        <time>2023-09-28T12:43:27Z</time>
      </trkpt>
      <trkpt lat="44.83866" lon="5.79736">
        <ele>930.7</ele>
        <time>2023-09-28T12:43:28Z</time>
      </trkpt>
      <trkpt lat="44.83867" lon="5.79729">
        <ele>931</ele>
        <time>2023-09-28T12:43:30Z</time>
      </trkpt>
      <trkpt lat="44.83867" lon="5.79726">
        <ele>931.1</ele>
        <time>2023-09-28T12:43:31Z</time>
      </trkpt>
      <trkpt lat="44.83867" lon="5.79724">
        <ele>931.2</ele>
        <time>2023-09-28T12:43:32Z</time>
      </trkpt>
      <trkpt lat="44.83868" lon="5.7972">
        <ele>931.4</ele>
        <time>2023-09-28T12:43:33Z</time>
      </trkpt>
      <trkpt lat="44.83868" lon="5.79716">
        <ele>931.5</ele>
        <time>2023-09-28T12:43:34Z</time>
      </trkpt>
      <trkpt lat="44.83868" lon="5.79711">
        <ele>931.7</ele>
        <time>2023-09-28T12:43:35Z</time>
      </trkpt>
      <trkpt lat="44.83869" lon="5.79705">
        <ele>931.9</ele>
        <time>2023-09-28T12:43:37Z</time>
      </trkpt>
      <trkpt lat="44.8387" lon="5.797">
        <ele>932.1</ele>
        <time>2023-09-28T12:43:38Z</time>
      </trkpt>
      <trkpt lat="44.8387" lon="5.79699">
        <ele>932.2</ele>
        <time>2023-09-28T12:43:39Z</time>
      </trkpt>
      <trkpt lat="44.83871" lon="5.79696">
        <ele>932.3</ele>
        <time>2023-09-28T12:43:40Z</time>
      </trkpt>
      <trkpt lat="44.83872" lon="5.79691">
        <ele>932.5</ele>
        <time>2023-09-28T12:43:42Z</time>
      </trkpt>
      <trkpt lat="44.83872" lon="5.79687">
        <ele>932.7</ele>
        <time>2023-09-28T12:43:43Z</time>
      </trkpt>
      <trkpt lat="44.83872" lon="5.79681">
        <ele>932.9</ele>
        <time>2023-09-28T12:43:44Z</time>
      </trkpt>
      <trkpt lat="44.83873" lon="5.79679">
        <ele>933</ele>
        <time>2023-09-28T12:43:45Z</time>
      </trkpt>
      <trkpt lat="44.83875" lon="5.79675">
        <ele>933.3</ele>
        <time>2023-09-28T12:43:46Z</time>
      </trkpt>
      <trkpt lat="44.83875" lon="5.79673">
        <ele>933.4</ele>
        <time>2023-09-28T12:43:47Z</time>
      </trkpt>
      <trkpt lat="44.83876" lon="5.79669">
        <ele>933.5</ele>
        <time>2023-09-28T12:43:48Z</time>
      </trkpt>
      <trkpt lat="44.83876" lon="5.79665">
        <ele>933.7</ele>
        <time>2023-09-28T12:43:49Z</time>
      </trkpt>
      <trkpt lat="44.83877" lon="5.79658">
        <ele>934</ele>
        <time>2023-09-28T12:43:51Z</time>
      </trkpt>
      <trkpt lat="44.83878" lon="5.79654">
        <ele>934.2</ele>
        <time>2023-09-28T12:43:53Z</time>
      </trkpt>
      <trkpt lat="44.83879" lon="5.79648">
        <ele>934.4</ele>
        <time>2023-09-28T12:43:54Z</time>
      </trkpt>
      <trkpt lat="44.83879" lon="5.79645">
        <ele>934.5</ele>
        <time>2023-09-28T12:43:55Z</time>
      </trkpt>
      <trkpt lat="44.8388" lon="5.7964">
        <ele>934.8</ele>
        <time>2023-09-28T12:43:56Z</time>
      </trkpt>
      <trkpt lat="44.83881" lon="5.79638">
        <ele>934.8</ele>
        <time>2023-09-28T12:43:57Z</time>
      </trkpt>
      <trkpt lat="44.83881" lon="5.79631">
        <ele>935.2</ele>
        <time>2023-09-28T12:43:59Z</time>
      </trkpt>
      <trkpt lat="44.83882" lon="5.79629">
        <ele>935.3</ele>
        <time>2023-09-28T12:44:00Z</time>
      </trkpt>
      <trkpt lat="44.83882" lon="5.79626">
        <ele>935.4</ele>
        <time>2023-09-28T12:44:01Z</time>
      </trkpt>
      <trkpt lat="44.83882" lon="5.79621">
        <ele>935.6</ele>
        <time>2023-09-28T12:44:02Z</time>
      </trkpt>
      <trkpt lat="44.83882" lon="5.79619">
        <ele>935.7</ele>
        <time>2023-09-28T12:44:03Z</time>
      </trkpt>
      <trkpt lat="44.83883" lon="5.79617">
        <ele>935.8</ele>
        <time>2023-09-28T12:44:04Z</time>
      </trkpt>
      <trkpt lat="44.83883" lon="5.79614">
        <ele>935.9</ele>
        <time>2023-09-28T12:44:05Z</time>
      </trkpt>
      <trkpt lat="44.83883" lon="5.79609">
        <ele>936.1</ele>
        <time>2023-09-28T12:44:06Z</time>
      </trkpt>
      <trkpt lat="44.83883" lon="5.79608">
        <ele>936.2</ele>
        <time>2023-09-28T12:44:07Z</time>
      </trkpt>
      <trkpt lat="44.83883" lon="5.79603">
        <ele>936.4</ele>
        <time>2023-09-28T12:44:09Z</time>
      </trkpt>
      <trkpt lat="44.83884" lon="5.79599">
        <ele>936.6</ele>
        <time>2023-09-28T12:44:10Z</time>
      </trkpt>
      <trkpt lat="44.83886" lon="5.79593">
        <ele>936.9</ele>
        <time>2023-09-28T12:44:11Z</time>
      </trkpt>
      <trkpt lat="44.83886" lon="5.79591">
        <ele>937</ele>
        <time>2023-09-28T12:44:12Z</time>
      </trkpt>
      <trkpt lat="44.83887" lon="5.79586">
        <ele>937.2</ele>
        <time>2023-09-28T12:44:13Z</time>
      </trkpt>
      <trkpt lat="44.83887" lon="5.79585">
        <ele>937.3</ele>
        <time>2023-09-28T12:44:14Z</time>
      </trkpt>
      <trkpt lat="44.83889" lon="5.79581">
        <ele>937.4</ele>
        <time>2023-09-28T12:44:15Z</time>
      </trkpt>
      <trkpt lat="44.8389" lon="5.79578">
        <ele>937.6</ele>
        <time>2023-09-28T12:44:17Z</time>
      </trkpt>
      <trkpt lat="44.83891" lon="5.79573">
        <ele>937.8</ele>
        <time>2023-09-28T12:44:18Z</time>
      </trkpt>
      <trkpt lat="44.83893" lon="5.79568">
        <ele>938.1</ele>
        <time>2023-09-28T12:44:20Z</time>
      </trkpt>
      <trkpt lat="44.83894" lon="5.79566">
        <ele>938.2</ele>
        <time>2023-09-28T12:44:21Z</time>
      </trkpt>
      <trkpt lat="44.83895" lon="5.79564">
        <ele>938.3</ele>
        <time>2023-09-28T12:44:22Z</time>
      </trkpt>
      <trkpt lat="44.83897" lon="5.79561">
        <ele>938.4</ele>
        <time>2023-09-28T12:44:23Z</time>
      </trkpt>
      <trkpt lat="44.83899" lon="5.79557">
        <ele>938.7</ele>
        <time>2023-09-28T12:44:24Z</time>
      </trkpt>
      <trkpt lat="44.839" lon="5.79555">
        <ele>938.7</ele>
        <time>2023-09-28T12:44:25Z</time>
      </trkpt>
      <trkpt lat="44.83903" lon="5.79551">
        <ele>939</ele>
        <time>2023-09-28T12:44:26Z</time>
      </trkpt>
      <trkpt lat="44.83904" lon="5.79549">
        <ele>939.1</ele>
        <time>2023-09-28T12:44:27Z</time>
      </trkpt>
      <trkpt lat="44.83906" lon="5.79545">
        <ele>939.3</ele>
        <time>2023-09-28T12:44:28Z</time>
      </trkpt>
      <trkpt lat="44.83907" lon="5.79543">
        <ele>939.4</ele>
        <time>2023-09-28T12:44:29Z</time>
      </trkpt>
      <trkpt lat="44.83908" lon="5.7954">
        <ele>939.5</ele>
        <time>2023-09-28T12:44:30Z</time>
      </trkpt>
      <trkpt lat="44.8391" lon="5.79537">
        <ele>939.7</ele>
        <time>2023-09-28T12:44:32Z</time>
      </trkpt>
      <trkpt lat="44.83911" lon="5.79533">
        <ele>939.9</ele>
        <time>2023-09-28T12:44:33Z</time>
      </trkpt>
      <trkpt lat="44.83912" lon="5.79531">
        <ele>939.9</ele>
        <time>2023-09-28T12:44:34Z</time>
      </trkpt>
      <trkpt lat="44.83914" lon="5.79527">
        <ele>940.1</ele>
        <time>2023-09-28T12:44:35Z</time>
      </trkpt>
      <trkpt lat="44.83914" lon="5.79525">
        <ele>940.2</ele>
        <time>2023-09-28T12:44:36Z</time>
      </trkpt>
      <trkpt lat="44.83916" lon="5.79523">
        <ele>940.3</ele>
        <time>2023-09-28T12:44:37Z</time>
      </trkpt>
      <trkpt lat="44.83917" lon="5.7952">
        <ele>940.5</ele>
        <time>2023-09-28T12:44:39Z</time>
      </trkpt>
      <trkpt lat="44.83918" lon="5.79515">
        <ele>940.7</ele>
        <time>2023-09-28T12:44:40Z</time>
      </trkpt>
      <trkpt lat="44.83919" lon="5.79511">
        <ele>940.8</ele>
        <time>2023-09-28T12:44:41Z</time>
      </trkpt>
      <trkpt lat="44.83921" lon="5.79508">
        <ele>941</ele>
        <time>2023-09-28T12:44:43Z</time>
      </trkpt>
      <trkpt lat="44.83923" lon="5.79504">
        <ele>941.2</ele>
        <time>2023-09-28T12:44:44Z</time>
      </trkpt>
      <trkpt lat="44.83925" lon="5.79499">
        <ele>941.4</ele>
        <time>2023-09-28T12:44:45Z</time>
      </trkpt>
      <trkpt lat="44.83926" lon="5.79497">
        <ele>941.5</ele>
        <time>2023-09-28T12:44:46Z</time>
      </trkpt>
      <trkpt lat="44.83927" lon="5.79494">
        <ele>941.6</ele>
        <time>2023-09-28T12:44:47Z</time>
      </trkpt>
      <trkpt lat="44.83928" lon="5.7949">
        <ele>941.8</ele>
        <time>2023-09-28T12:44:48Z</time>
      </trkpt>
      <trkpt lat="44.83931" lon="5.79485">
        <ele>942.1</ele>
        <time>2023-09-28T12:44:50Z</time>
      </trkpt>
      <trkpt lat="44.83932" lon="5.79483">
        <ele>942.2</ele>
        <time>2023-09-28T12:44:51Z</time>
      </trkpt>
      <trkpt lat="44.83933" lon="5.79481">
        <ele>942.3</ele>
        <time>2023-09-28T12:44:52Z</time>
      </trkpt>
      <trkpt lat="44.83934" lon="5.79478">
        <ele>942.4</ele>
        <time>2023-09-28T12:44:53Z</time>
      </trkpt>
      <trkpt lat="44.83936" lon="5.79474">
        <ele>942.6</ele>
        <time>2023-09-28T12:44:54Z</time>
      </trkpt>
      <trkpt lat="44.83939" lon="5.7947">
        <ele>942.9</ele>
        <time>2023-09-28T12:44:55Z</time>
      </trkpt>
      <trkpt lat="44.8394" lon="5.79468">
        <ele>943</ele>
        <time>2023-09-28T12:44:56Z</time>
      </trkpt>
      <trkpt lat="44.83942" lon="5.79465">
        <ele>943.1</ele>
        <time>2023-09-28T12:44:57Z</time>
      </trkpt>
      <trkpt lat="44.83945" lon="5.79462">
        <ele>943.3</ele>
        <time>2023-09-28T12:44:59Z</time>
      </trkpt>
      <trkpt lat="44.83947" lon="5.79459">
        <ele>943.5</ele>
        <time>2023-09-28T12:45:00Z</time>
      </trkpt>
      <trkpt lat="44.83949" lon="5.79455">
        <ele>943.7</ele>
        <time>2023-09-28T12:45:01Z</time>
      </trkpt>
      <trkpt lat="44.83951" lon="5.79452">
        <ele>943.8</ele>
        <time>2023-09-28T12:45:03Z</time>
      </trkpt>
      <trkpt lat="44.83953" lon="5.7945">
        <ele>944</ele>
        <time>2023-09-28T12:45:04Z</time>
      </trkpt>
      <trkpt lat="44.83957" lon="5.79446">
        <ele>944.2</ele>
        <time>2023-09-28T12:45:05Z</time>
      </trkpt>
      <trkpt lat="44.83959" lon="5.79443">
        <ele>944.4</ele>
        <time>2023-09-28T12:45:06Z</time>
      </trkpt>
      <trkpt lat="44.83961" lon="5.79439">
        <ele>944.6</ele>
        <time>2023-09-28T12:45:08Z</time>
      </trkpt>
      <trkpt lat="44.83964" lon="5.79435">
        <ele>944.8</ele>
        <time>2023-09-28T12:45:09Z</time>
      </trkpt>
      <trkpt lat="44.83967" lon="5.79433">
        <ele>944.9</ele>
        <time>2023-09-28T12:45:10Z</time>
      </trkpt>
      <trkpt lat="44.83969" lon="5.7943">
        <ele>945.1</ele>
        <time>2023-09-28T12:45:11Z</time>
      </trkpt>
      <trkpt lat="44.83971" lon="5.79424">
        <ele>945.3</ele>
        <time>2023-09-28T12:45:13Z</time>
      </trkpt>
      <trkpt lat="44.83973" lon="5.79421">
        <ele>945.5</ele>
        <time>2023-09-28T12:45:14Z</time>
      </trkpt>
      <trkpt lat="44.83976" lon="5.79417">
        <ele>945.7</ele>
        <time>2023-09-28T12:45:16Z</time>
      </trkpt>
      <trkpt lat="44.83979" lon="5.79412">
        <ele>945.9</ele>
        <time>2023-09-28T12:45:17Z</time>
      </trkpt>
      <trkpt lat="44.8398" lon="5.7941">
        <ele>946</ele>
        <time>2023-09-28T12:45:18Z</time>
      </trkpt>
      <trkpt lat="44.83982" lon="5.79408">
        <ele>946.1</ele>
        <time>2023-09-28T12:45:19Z</time>
      </trkpt>
      <trkpt lat="44.83985" lon="5.79404">
        <ele>946.3</ele>
        <time>2023-09-28T12:45:21Z</time>
      </trkpt>
      <trkpt lat="44.83988" lon="5.79401">
        <ele>946.5</ele>
        <time>2023-09-28T12:45:22Z</time>
      </trkpt>
      <trkpt lat="44.83989" lon="5.79398">
        <ele>946.6</ele>
        <time>2023-09-28T12:45:23Z</time>
      </trkpt>
      <trkpt lat="44.83992" lon="5.79395">
        <ele>946.8</ele>
        <time>2023-09-28T12:45:25Z</time>
      </trkpt>
      <trkpt lat="44.83995" lon="5.7939">
        <ele>947</ele>
        <time>2023-09-28T12:45:26Z</time>
      </trkpt>
      <trkpt lat="44.83996" lon="5.79388">
        <ele>947.1</ele>
        <time>2023-09-28T12:45:27Z</time>
      </trkpt>
      <trkpt lat="44.84" lon="5.79383">
        <ele>947.3</ele>
        <time>2023-09-28T12:45:29Z</time>
      </trkpt>
      <trkpt lat="44.84003" lon="5.79379">
        <ele>947.5</ele>
        <time>2023-09-28T12:45:31Z</time>
      </trkpt>
      <trkpt lat="44.84005" lon="5.79375">
        <ele>947.6</ele>
        <time>2023-09-28T12:45:32Z</time>
      </trkpt>
      <trkpt lat="44.84008" lon="5.79371">
        <ele>947.9</ele>
        <time>2023-09-28T12:45:33Z</time>
      </trkpt>
      <trkpt lat="44.84009" lon="5.79369">
        <ele>947.9</ele>
        <time>2023-09-28T12:45:34Z</time>
      </trkpt>
      <trkpt lat="44.84011" lon="5.79366">
        <ele>948.1</ele>
        <time>2023-09-28T12:45:35Z</time>
      </trkpt>
      <trkpt lat="44.84013" lon="5.79364">
        <ele>948.2</ele>
        <time>2023-09-28T12:45:36Z</time>
      </trkpt>
      <trkpt lat="44.84016" lon="5.79359">
        <ele>948.5</ele>
        <time>2023-09-28T12:45:38Z</time>
      </trkpt>
      <trkpt lat="44.84018" lon="5.79356">
        <ele>948.6</ele>
        <time>2023-09-28T12:45:39Z</time>
      </trkpt>
      <trkpt lat="44.8402" lon="5.79353">
        <ele>948.8</ele>
        <time>2023-09-28T12:45:40Z</time>
      </trkpt>
      <trkpt lat="44.84022" lon="5.79351">
        <ele>948.9</ele>
        <time>2023-09-28T12:45:41Z</time>
      </trkpt>
      <trkpt lat="44.84025" lon="5.79346">
        <ele>949.2</ele>
        <time>2023-09-28T12:45:43Z</time>
      </trkpt>
      <trkpt lat="44.84028" lon="5.79343">
        <ele>949.4</ele>
        <time>2023-09-28T12:45:44Z</time>
      </trkpt>
      <trkpt lat="44.8403" lon="5.7934">
        <ele>949.5</ele>
        <time>2023-09-28T12:45:45Z</time>
      </trkpt>
      <trkpt lat="44.84034" lon="5.79335">
        <ele>949.8</ele>
        <time>2023-09-28T12:45:47Z</time>
      </trkpt>
      <trkpt lat="44.84037" lon="5.79331">
        <ele>950.1</ele>
        <time>2023-09-28T12:45:49Z</time>
      </trkpt>
      <trkpt lat="44.8404" lon="5.79325">
        <ele>950.3</ele>
        <time>2023-09-28T12:45:50Z</time>
      </trkpt>
      <trkpt lat="44.84044" lon="5.7932">
        <ele>950.7</ele>
        <time>2023-09-28T12:45:52Z</time>
      </trkpt>
      <trkpt lat="44.84046" lon="5.79317">
        <ele>950.8</ele>
        <time>2023-09-28T12:45:53Z</time>
      </trkpt>
      <trkpt lat="44.84048" lon="5.79314">
        <ele>951</ele>
        <time>2023-09-28T12:45:54Z</time>
      </trkpt>
      <trkpt lat="44.84051" lon="5.79311">
        <ele>951.2</ele>
        <time>2023-09-28T12:45:55Z</time>
      </trkpt>
      <trkpt lat="44.84054" lon="5.79307">
        <ele>951.4</ele>
        <time>2023-09-28T12:45:57Z</time>
      </trkpt>
      <trkpt lat="44.84056" lon="5.79303">
        <ele>951.6</ele>
        <time>2023-09-28T12:45:58Z</time>
      </trkpt>
      <trkpt lat="44.84059" lon="5.793">
        <ele>951.8</ele>
        <time>2023-09-28T12:45:59Z</time>
      </trkpt>
      <trkpt lat="44.84062" lon="5.79296">
        <ele>952.1</ele>
        <time>2023-09-28T12:46:00Z</time>
      </trkpt>
      <trkpt lat="44.84064" lon="5.79293">
        <ele>952.2</ele>
        <time>2023-09-28T12:46:01Z</time>
      </trkpt>
      <trkpt lat="44.84066" lon="5.7929">
        <ele>952.4</ele>
        <time>2023-09-28T12:46:02Z</time>
      </trkpt>
      <trkpt lat="44.84068" lon="5.79286">
        <ele>952.6</ele>
        <time>2023-09-28T12:46:04Z</time>
      </trkpt>
      <trkpt lat="44.84072" lon="5.7928">
        <ele>953</ele>
        <time>2023-09-28T12:46:05Z</time>
      </trkpt>
      <trkpt lat="44.84074" lon="5.79277">
        <ele>953.1</ele>
        <time>2023-09-28T12:46:06Z</time>
      </trkpt>
      <trkpt lat="44.84076" lon="5.79273">
        <ele>953.3</ele>
        <time>2023-09-28T12:46:07Z</time>
      </trkpt>
      <trkpt lat="44.84079" lon="5.7927">
        <ele>953.5</ele>
        <time>2023-09-28T12:46:08Z</time>
      </trkpt>
      <trkpt lat="44.84082" lon="5.79266">
        <ele>953.8</ele>
        <time>2023-09-28T12:46:10Z</time>
      </trkpt>
      <trkpt lat="44.84086" lon="5.79262">
        <ele>954</ele>
        <time>2023-09-28T12:46:11Z</time>
      </trkpt>
      <trkpt lat="44.8409" lon="5.79256">
        <ele>954.3</ele>
        <time>2023-09-28T12:46:13Z</time>
      </trkpt>
      <trkpt lat="44.84093" lon="5.79252">
        <ele>954.5</ele>
        <time>2023-09-28T12:46:14Z</time>
      </trkpt>
      <trkpt lat="44.84095" lon="5.79248">
        <ele>954.7</ele>
        <time>2023-09-28T12:46:15Z</time>
      </trkpt>
      <trkpt lat="44.841" lon="5.79242">
        <ele>955</ele>
        <time>2023-09-28T12:46:17Z</time>
      </trkpt>
      <trkpt lat="44.84103" lon="5.79238">
        <ele>955.2</ele>
        <time>2023-09-28T12:46:18Z</time>
      </trkpt>
      <trkpt lat="44.84105" lon="5.79235">
        <ele>955.4</ele>
        <time>2023-09-28T12:46:19Z</time>
      </trkpt>
      <trkpt lat="44.84107" lon="5.79231">
        <ele>955.6</ele>
        <time>2023-09-28T12:46:20Z</time>
      </trkpt>
      <trkpt lat="44.8411" lon="5.79227">
        <ele>955.8</ele>
        <time>2023-09-28T12:46:22Z</time>
      </trkpt>
      <trkpt lat="44.84113" lon="5.79223">
        <ele>956.1</ele>
        <time>2023-09-28T12:46:23Z</time>
      </trkpt>
      <trkpt lat="44.84115" lon="5.79218">
        <ele>956.3</ele>
        <time>2023-09-28T12:46:24Z</time>
      </trkpt>
      <trkpt lat="44.84118" lon="5.79215">
        <ele>956.5</ele>
        <time>2023-09-28T12:46:25Z</time>
      </trkpt>
      <trkpt lat="44.84121" lon="5.7921">
        <ele>956.7</ele>
        <time>2023-09-28T12:46:26Z</time>
      </trkpt>
      <trkpt lat="44.84123" lon="5.79207">
        <ele>956.8</ele>
        <time>2023-09-28T12:46:27Z</time>
      </trkpt>
      <trkpt lat="44.84126" lon="5.79201">
        <ele>957.1</ele>
        <time>2023-09-28T12:46:29Z</time>
      </trkpt>
      <trkpt lat="44.84128" lon="5.79197">
        <ele>957.3</ele>
        <time>2023-09-28T12:46:30Z</time>
      </trkpt>
      <trkpt lat="44.8413" lon="5.79194">
        <ele>957.5</ele>
        <time>2023-09-28T12:46:31Z</time>
      </trkpt>
      <trkpt lat="44.84133" lon="5.7919">
        <ele>957.7</ele>
        <time>2023-09-28T12:46:32Z</time>
      </trkpt>
      <trkpt lat="44.84135" lon="5.79185">
        <ele>957.9</ele>
        <time>2023-09-28T12:46:34Z</time>
      </trkpt>
      <trkpt lat="44.84137" lon="5.79181">
        <ele>958.1</ele>
        <time>2023-09-28T12:46:35Z</time>
      </trkpt>
      <trkpt lat="44.84139" lon="5.79177">
        <ele>958.3</ele>
        <time>2023-09-28T12:46:36Z</time>
      </trkpt>
      <trkpt lat="44.84141" lon="5.79173">
        <ele>958.4</ele>
        <time>2023-09-28T12:46:37Z</time>
      </trkpt>
      <trkpt lat="44.84143" lon="5.7917">
        <ele>958.6</ele>
        <time>2023-09-28T12:46:38Z</time>
      </trkpt>
      <trkpt lat="44.84145" lon="5.79166">
        <ele>958.8</ele>
        <time>2023-09-28T12:46:39Z</time>
      </trkpt>
      <trkpt lat="44.84147" lon="5.79161">
        <ele>959</ele>
        <time>2023-09-28T12:46:40Z</time>
      </trkpt>
      <trkpt lat="44.84149" lon="5.79155">
        <ele>959.3</ele>
        <time>2023-09-28T12:46:42Z</time>
      </trkpt>
      <trkpt lat="44.8415" lon="5.79151">
        <ele>959.5</ele>
        <time>2023-09-28T12:46:43Z</time>
      </trkpt>
      <trkpt lat="44.84152" lon="5.79147">
        <ele>959.6</ele>
        <time>2023-09-28T12:46:44Z</time>
      </trkpt>
      <trkpt lat="44.84152" lon="5.79142">
        <ele>959.8</ele>
        <time>2023-09-28T12:46:45Z</time>
      </trkpt>
      <trkpt lat="44.84153" lon="5.79138">
        <ele>960</ele>
        <time>2023-09-28T12:46:47Z</time>
      </trkpt>
      <trkpt lat="44.84154" lon="5.79134">
        <ele>960.2</ele>
        <time>2023-09-28T12:46:48Z</time>
      </trkpt>
      <trkpt lat="44.84156" lon="5.79127">
        <ele>960.5</ele>
        <time>2023-09-28T12:46:49Z</time>
      </trkpt>
      <trkpt lat="44.84158" lon="5.79121">
        <ele>960.7</ele>
        <time>2023-09-28T12:46:50Z</time>
      </trkpt>
      <trkpt lat="44.84162" lon="5.79112">
        <ele>961.1</ele>
        <time>2023-09-28T12:46:52Z</time>
      </trkpt>
      <trkpt lat="44.84165" lon="5.79107">
        <ele>961.3</ele>
        <time>2023-09-28T12:46:54Z</time>
      </trkpt>
      <trkpt lat="44.84168" lon="5.79101">
        <ele>961.5</ele>
        <time>2023-09-28T12:46:55Z</time>
      </trkpt>
      <trkpt lat="44.8417" lon="5.79098">
        <ele>961.6</ele>
        <time>2023-09-28T12:46:56Z</time>
      </trkpt>
      <trkpt lat="44.84173" lon="5.79094">
        <ele>961.8</ele>
        <time>2023-09-28T12:46:57Z</time>
      </trkpt>
      <trkpt lat="44.84175" lon="5.79091">
        <ele>962</ele>
        <time>2023-09-28T12:46:58Z</time>
      </trkpt>
      <trkpt lat="44.84178" lon="5.79087">
        <ele>962.1</ele>
        <time>2023-09-28T12:46:59Z</time>
      </trkpt>
      <trkpt lat="44.8418" lon="5.79083">
        <ele>962.3</ele>
        <time>2023-09-28T12:47:01Z</time>
      </trkpt>
      <trkpt lat="44.84183" lon="5.79079">
        <ele>962.5</ele>
        <time>2023-09-28T12:47:02Z</time>
      </trkpt>
      <trkpt lat="44.84186" lon="5.79076">
        <ele>962.7</ele>
        <time>2023-09-28T12:47:03Z</time>
      </trkpt>
      <trkpt lat="44.84188" lon="5.79072">
        <ele>962.9</ele>
        <time>2023-09-28T12:47:04Z</time>
      </trkpt>
      <trkpt lat="44.84191" lon="5.79068">
        <ele>963.1</ele>
        <time>2023-09-28T12:47:05Z</time>
      </trkpt>
      <trkpt lat="44.84193" lon="5.79063">
        <ele>963.3</ele>
        <time>2023-09-28T12:47:06Z</time>
      </trkpt>
      <trkpt lat="44.84198" lon="5.79057">
        <ele>963.6</ele>
        <time>2023-09-28T12:47:08Z</time>
      </trkpt>
      <trkpt lat="44.84201" lon="5.79052">
        <ele>963.9</ele>
        <time>2023-09-28T12:47:09Z</time>
      </trkpt>
      <trkpt lat="44.84204" lon="5.79047">
        <ele>964.1</ele>
        <time>2023-09-28T12:47:10Z</time>
      </trkpt>
      <trkpt lat="44.84206" lon="5.79042">
        <ele>964.3</ele>
        <time>2023-09-28T12:47:11Z</time>
      </trkpt>
      <trkpt lat="44.84208" lon="5.79034">
        <ele>964.7</ele>
        <time>2023-09-28T12:47:13Z</time>
      </trkpt>
      <trkpt lat="44.8421" lon="5.79027">
        <ele>965</ele>
        <time>2023-09-28T12:47:14Z</time>
      </trkpt>
      <trkpt lat="44.84211" lon="5.79022">
        <ele>965.2</ele>
        <time>2023-09-28T12:47:15Z</time>
      </trkpt>
      <trkpt lat="44.84212" lon="5.79017">
        <ele>965.4</ele>
        <time>2023-09-28T12:47:16Z</time>
      </trkpt>
      <trkpt lat="44.84213" lon="5.79013">
        <ele>965.7</ele>
        <time>2023-09-28T12:47:17Z</time>
      </trkpt>
      <trkpt lat="44.84215" lon="5.79007">
        <ele>965.9</ele>
        <time>2023-09-28T12:47:18Z</time>
      </trkpt>
      <trkpt lat="44.84216" lon="5.79001">
        <ele>966.2</ele>
        <time>2023-09-28T12:47:20Z</time>
      </trkpt>
      <trkpt lat="44.84217" lon="5.78996">
        <ele>966.4</ele>
        <time>2023-09-28T12:47:21Z</time>
      </trkpt>
      <trkpt lat="44.84217" lon="5.78992">
        <ele>966.6</ele>
        <time>2023-09-28T12:47:22Z</time>
      </trkpt>
      <trkpt lat="44.84218" lon="5.78987">
        <ele>966.8</ele>
        <time>2023-09-28T12:47:23Z</time>
      </trkpt>
      <trkpt lat="44.84219" lon="5.78983">
        <ele>966.9</ele>
        <time>2023-09-28T12:47:24Z</time>
      </trkpt>
      <trkpt lat="44.84219" lon="5.78978">
        <ele>967.2</ele>
        <time>2023-09-28T12:47:25Z</time>
      </trkpt>
      <trkpt lat="44.8422" lon="5.78973">
        <ele>967.4</ele>
        <time>2023-09-28T12:47:26Z</time>
      </trkpt>
      <trkpt lat="44.84222" lon="5.78969">
        <ele>967.6</ele>
        <time>2023-09-28T12:47:27Z</time>
      </trkpt>
      <trkpt lat="44.84223" lon="5.78963">
        <ele>967.9</ele>
        <time>2023-09-28T12:47:29Z</time>
      </trkpt>
      <trkpt lat="44.84223" lon="5.78958">
        <ele>968.1</ele>
        <time>2023-09-28T12:47:30Z</time>
      </trkpt>
      <trkpt lat="44.84224" lon="5.78953">
        <ele>968.4</ele>
        <time>2023-09-28T12:47:31Z</time>
      </trkpt>
      <trkpt lat="44.84225" lon="5.78951">
        <ele>968.5</ele>
        <time>2023-09-28T12:47:32Z</time>
      </trkpt>
      <trkpt lat="44.84225" lon="5.78946">
        <ele>968.7</ele>
        <time>2023-09-28T12:47:33Z</time>
      </trkpt>
      <trkpt lat="44.84225" lon="5.78942">
        <ele>968.9</ele>
        <time>2023-09-28T12:47:34Z</time>
      </trkpt>
      <trkpt lat="44.84225" lon="5.78938">
        <ele>969.1</ele>
        <time>2023-09-28T12:47:35Z</time>
      </trkpt>
      <trkpt lat="44.84226" lon="5.78929">
        <ele>969.5</ele>
        <time>2023-09-28T12:47:37Z</time>
      </trkpt>
      <trkpt lat="44.84226" lon="5.78922">
        <ele>969.8</ele>
        <time>2023-09-28T12:47:39Z</time>
      </trkpt>
      <trkpt lat="44.84226" lon="5.78917">
        <ele>970.1</ele>
        <time>2023-09-28T12:47:40Z</time>
      </trkpt>
      <trkpt lat="44.84226" lon="5.78912">
        <ele>970.3</ele>
        <time>2023-09-28T12:47:41Z</time>
      </trkpt>
      <trkpt lat="44.84226" lon="5.78908">
        <ele>970.5</ele>
        <time>2023-09-28T12:47:42Z</time>
      </trkpt>
      <trkpt lat="44.84226" lon="5.78904">
        <ele>970.7</ele>
        <time>2023-09-28T12:47:44Z</time>
      </trkpt>
      <trkpt lat="44.84226" lon="5.789">
        <ele>970.9</ele>
        <time>2023-09-28T12:47:45Z</time>
      </trkpt>
      <trkpt lat="44.84225" lon="5.78894">
        <ele>971.1</ele>
        <time>2023-09-28T12:47:46Z</time>
      </trkpt>
      <trkpt lat="44.84225" lon="5.78888">
        <ele>971.3</ele>
        <time>2023-09-28T12:47:48Z</time>
      </trkpt>
      <trkpt lat="44.84224" lon="5.78884">
        <ele>971.5</ele>
        <time>2023-09-28T12:47:49Z</time>
      </trkpt>
      <trkpt lat="44.84223" lon="5.78877">
        <ele>971.8</ele>
        <time>2023-09-28T12:47:50Z</time>
      </trkpt>
      <trkpt lat="44.84222" lon="5.78872">
        <ele>972</ele>
        <time>2023-09-28T12:47:51Z</time>
      </trkpt>
      <trkpt lat="44.84222" lon="5.78865">
        <ele>972.3</ele>
        <time>2023-09-28T12:47:53Z</time>
      </trkpt>
      <trkpt lat="44.84221" lon="5.78859">
        <ele>972.6</ele>
        <time>2023-09-28T12:47:54Z</time>
      </trkpt>
      <trkpt lat="44.84221" lon="5.78854">
        <ele>972.8</ele>
        <time>2023-09-28T12:47:55Z</time>
      </trkpt>
      <trkpt lat="44.84221" lon="5.78849">
        <ele>973</ele>
        <time>2023-09-28T12:47:56Z</time>
      </trkpt>
      <trkpt lat="44.8422" lon="5.78843">
        <ele>973.3</ele>
        <time>2023-09-28T12:47:57Z</time>
      </trkpt>
      <trkpt lat="44.8422" lon="5.78837">
        <ele>973.5</ele>
        <time>2023-09-28T12:47:59Z</time>
      </trkpt>
      <trkpt lat="44.8422" lon="5.78831">
        <ele>973.8</ele>
        <time>2023-09-28T12:48:00Z</time>
      </trkpt>
      <trkpt lat="44.8422" lon="5.78826">
        <ele>974</ele>
        <time>2023-09-28T12:48:01Z</time>
      </trkpt>
      <trkpt lat="44.8422" lon="5.78819">
        <ele>974.4</ele>
        <time>2023-09-28T12:48:02Z</time>
      </trkpt>
      <trkpt lat="44.8422" lon="5.78815">
        <ele>974.6</ele>
        <time>2023-09-28T12:48:03Z</time>
      </trkpt>
      <trkpt lat="44.84219" lon="5.7881">
        <ele>974.9</ele>
        <time>2023-09-28T12:48:04Z</time>
      </trkpt>
      <trkpt lat="44.84219" lon="5.78805">
        <ele>975.1</ele>
        <time>2023-09-28T12:48:05Z</time>
      </trkpt>
      <trkpt lat="44.84219" lon="5.78798">
        <ele>975.5</ele>
        <time>2023-09-28T12:48:06Z</time>
      </trkpt>
      <trkpt lat="44.8422" lon="5.78793">
        <ele>975.8</ele>
        <time>2023-09-28T12:48:08Z</time>
      </trkpt>
      <trkpt lat="44.84219" lon="5.78787">
        <ele>976.1</ele>
        <time>2023-09-28T12:48:09Z</time>
      </trkpt>
      <trkpt lat="44.84219" lon="5.78783">
        <ele>976.3</ele>
        <time>2023-09-28T12:48:10Z</time>
      </trkpt>
      <trkpt lat="44.84218" lon="5.78777">
        <ele>976.7</ele>
        <time>2023-09-28T12:48:11Z</time>
      </trkpt>
      <trkpt lat="44.84218" lon="5.78774">
        <ele>976.8</ele>
        <time>2023-09-28T12:48:12Z</time>
      </trkpt>
      <trkpt lat="44.84218" lon="5.7877">
        <ele>977</ele>
        <time>2023-09-28T12:48:13Z</time>
      </trkpt>
      <trkpt lat="44.84217" lon="5.78766">
        <ele>977.2</ele>
        <time>2023-09-28T12:48:14Z</time>
      </trkpt>
      <trkpt lat="44.84216" lon="5.78756">
        <ele>977.8</ele>
        <time>2023-09-28T12:48:16Z</time>
      </trkpt>
      <trkpt lat="44.84215" lon="5.78753">
        <ele>977.9</ele>
        <time>2023-09-28T12:48:17Z</time>
      </trkpt>
      <trkpt lat="44.84213" lon="5.78749">
        <ele>978.1</ele>
        <time>2023-09-28T12:48:19Z</time>
      </trkpt>
      <trkpt lat="44.84211" lon="5.78745">
        <ele>978.3</ele>
        <time>2023-09-28T12:48:20Z</time>
      </trkpt>
      <trkpt lat="44.84209" lon="5.78741">
        <ele>978.5</ele>
        <time>2023-09-28T12:48:21Z</time>
      </trkpt>
      <trkpt lat="44.84207" lon="5.78738">
        <ele>978.7</ele>
        <time>2023-09-28T12:48:22Z</time>
      </trkpt>
      <trkpt lat="44.84205" lon="5.78735">
        <ele>978.9</ele>
        <time>2023-09-28T12:48:23Z</time>
      </trkpt>
      <trkpt lat="44.84203" lon="5.78732">
        <ele>979</ele>
        <time>2023-09-28T12:48:24Z</time>
      </trkpt>
      <trkpt lat="44.842" lon="5.7873">
        <ele>979.1</ele>
        <time>2023-09-28T12:48:25Z</time>
      </trkpt>
      <trkpt lat="44.84198" lon="5.78727">
        <ele>979.3</ele>
        <time>2023-09-28T12:48:26Z</time>
      </trkpt>
      <trkpt lat="44.84195" lon="5.78724">
        <ele>979.4</ele>
        <time>2023-09-28T12:48:28Z</time>
      </trkpt>
      <trkpt lat="44.84192" lon="5.78722">
        <ele>979.6</ele>
        <time>2023-09-28T12:48:29Z</time>
      </trkpt>
      <trkpt lat="44.84189" lon="5.7872">
        <ele>979.7</ele>
        <time>2023-09-28T12:48:30Z</time>
      </trkpt>
      <trkpt lat="44.84185" lon="5.78716">
        <ele>979.9</ele>
        <time>2023-09-28T12:48:31Z</time>
      </trkpt>
      <trkpt lat="44.84184" lon="5.78714">
        <ele>980</ele>
        <time>2023-09-28T12:48:32Z</time>
      </trkpt>
      <trkpt lat="44.84182" lon="5.78712">
        <ele>980.1</ele>
        <time>2023-09-28T12:48:33Z</time>
      </trkpt>
      <trkpt lat="44.84178" lon="5.78709">
        <ele>980.2</ele>
        <time>2023-09-28T12:48:34Z</time>
      </trkpt>
      <trkpt lat="44.84177" lon="5.78708">
        <ele>980.2</ele>
        <time>2023-09-28T12:48:35Z</time>
      </trkpt>
      <trkpt lat="44.84173" lon="5.78704">
        <ele>980.3</ele>
        <time>2023-09-28T12:48:37Z</time>
      </trkpt>
      <trkpt lat="44.84172" lon="5.78703">
        <ele>980.3</ele>
        <time>2023-09-28T12:48:38Z</time>
      </trkpt>
      <trkpt lat="44.84171" lon="5.78701">
        <ele>980.4</ele>
        <time>2023-09-28T12:48:39Z</time>
      </trkpt>
      <trkpt lat="44.84168" lon="5.78698">
        <ele>980.4</ele>
        <time>2023-09-28T12:48:40Z</time>
      </trkpt>
      <trkpt lat="44.84166" lon="5.78694">
        <ele>980.5</ele>
        <time>2023-09-28T12:48:41Z</time>
      </trkpt>
      <trkpt lat="44.84164" lon="5.78693">
        <ele>980.5</ele>
        <time>2023-09-28T12:48:42Z</time>
      </trkpt>
      <trkpt lat="44.84163" lon="5.78689">
        <ele>980.5</ele>
        <time>2023-09-28T12:48:43Z</time>
      </trkpt>
      <trkpt lat="44.8416" lon="5.78683">
        <ele>980.5</ele>
        <time>2023-09-28T12:48:45Z</time>
      </trkpt>
      <trkpt lat="44.84159" lon="5.78676">
        <ele>980.4</ele>
        <time>2023-09-28T12:48:46Z</time>
      </trkpt>
      <trkpt lat="44.84159" lon="5.78669">
        <ele>980.3</ele>
        <time>2023-09-28T12:48:47Z</time>
      </trkpt>
      <trkpt lat="44.84159" lon="5.78659">
        <ele>980.1</ele>
        <time>2023-09-28T12:48:48Z</time>
      </trkpt>
      <trkpt lat="44.8416" lon="5.78651">
        <ele>979.6</ele>
        <time>2023-09-28T12:48:49Z</time>
      </trkpt>
      <trkpt lat="44.8416" lon="5.78643">
        <ele>979.2</ele>
        <time>2023-09-28T12:48:50Z</time>
      </trkpt>
      <trkpt lat="44.8416" lon="5.78634">
        <ele>978.8</ele>
        <time>2023-09-28T12:48:51Z</time>
      </trkpt>
      <trkpt lat="44.84158" lon="5.78626">
        <ele>978.4</ele>
        <time>2023-09-28T12:48:52Z</time>
      </trkpt>
      <trkpt lat="44.84155" lon="5.78618">
        <ele>977.9</ele>
        <time>2023-09-28T12:48:53Z</time>
      </trkpt>
      <trkpt lat="44.84151" lon="5.78611">
        <ele>977.4</ele>
        <time>2023-09-28T12:48:54Z</time>
      </trkpt>
      <trkpt lat="44.84145" lon="5.78604">
        <ele>977</ele>
        <time>2023-09-28T12:48:55Z</time>
      </trkpt>
      <trkpt lat="44.8414" lon="5.78597">
        <ele>976.5</ele>
        <time>2023-09-28T12:48:56Z</time>
      </trkpt>
      <trkpt lat="44.84134" lon="5.7859">
        <ele>976</ele>
        <time>2023-09-28T12:48:57Z</time>
      </trkpt>
      <trkpt lat="44.84129" lon="5.78581">
        <ele>975.5</ele>
        <time>2023-09-28T12:48:58Z</time>
      </trkpt>
      <trkpt lat="44.84124" lon="5.78572">
        <ele>974.9</ele>
        <time>2023-09-28T12:48:59Z</time>
      </trkpt>
      <trkpt lat="44.8412" lon="5.78562">
        <ele>974.4</ele>
        <time>2023-09-28T12:49:00Z</time>
      </trkpt>
      <trkpt lat="44.84116" lon="5.78551">
        <ele>973.8</ele>
        <time>2023-09-28T12:49:01Z</time>
      </trkpt>
      <trkpt lat="44.84114" lon="5.78539">
        <ele>973.2</ele>
        <time>2023-09-28T12:49:02Z</time>
      </trkpt>
      <trkpt lat="44.84114" lon="5.78526">
        <ele>972.7</ele>
        <time>2023-09-28T12:49:03Z</time>
      </trkpt>
      <trkpt lat="44.84117" lon="5.78513">
        <ele>972</ele>
        <time>2023-09-28T12:49:04Z</time>
      </trkpt>
      <trkpt lat="44.84123" lon="5.78502">
        <ele>971.4</ele>
        <time>2023-09-28T12:49:05Z</time>
      </trkpt>
      <trkpt lat="44.8413" lon="5.78494">
        <ele>970.7</ele>
        <time>2023-09-28T12:49:06Z</time>
      </trkpt>
      <trkpt lat="44.84139" lon="5.78488">
        <ele>970</ele>
        <time>2023-09-28T12:49:07Z</time>
      </trkpt>
      <trkpt lat="44.84149" lon="5.78483">
        <ele>969.3</ele>
        <time>2023-09-28T12:49:08Z</time>
      </trkpt>
      <trkpt lat="44.84159" lon="5.7848">
        <ele>968.5</ele>
        <time>2023-09-28T12:49:09Z</time>
      </trkpt>
      <trkpt lat="44.84169" lon="5.78476">
        <ele>967.7</ele>
        <time>2023-09-28T12:49:10Z</time>
      </trkpt>
      <trkpt lat="44.84178" lon="5.78471">
        <ele>967</ele>
        <time>2023-09-28T12:49:11Z</time>
      </trkpt>
      <trkpt lat="44.84187" lon="5.78464">
        <ele>966.2</ele>
        <time>2023-09-28T12:49:12Z</time>
      </trkpt>
      <trkpt lat="44.84196" lon="5.78455">
        <ele>965.5</ele>
        <time>2023-09-28T12:49:13Z</time>
      </trkpt>
      <trkpt lat="44.84204" lon="5.78445">
        <ele>964.8</ele>
        <time>2023-09-28T12:49:14Z</time>
      </trkpt>
      <trkpt lat="44.84212" lon="5.78435">
        <ele>964</ele>
        <time>2023-09-28T12:49:15Z</time>
      </trkpt>
      <trkpt lat="44.84219" lon="5.78424">
        <ele>963.2</ele>
        <time>2023-09-28T12:49:16Z</time>
      </trkpt>
      <trkpt lat="44.84226" lon="5.78412">
        <ele>962.5</ele>
        <time>2023-09-28T12:49:17Z</time>
      </trkpt>
      <trkpt lat="44.84232" lon="5.78399">
        <ele>961.9</ele>
        <time>2023-09-28T12:49:18Z</time>
      </trkpt>
      <trkpt lat="44.84236" lon="5.78384">
        <ele>961.2</ele>
        <time>2023-09-28T12:49:19Z</time>
      </trkpt>
      <trkpt lat="44.84239" lon="5.78369">
        <ele>960.6</ele>
        <time>2023-09-28T12:49:20Z</time>
      </trkpt>
      <trkpt lat="44.84239" lon="5.78353">
        <ele>959.9</ele>
        <time>2023-09-28T12:49:21Z</time>
      </trkpt>
      <trkpt lat="44.84239" lon="5.78338">
        <ele>959.2</ele>
        <time>2023-09-28T12:49:22Z</time>
      </trkpt>
      <trkpt lat="44.84237" lon="5.78322">
        <ele>958.5</ele>
        <time>2023-09-28T12:49:23Z</time>
      </trkpt>
      <trkpt lat="44.84234" lon="5.78307">
        <ele>957.8</ele>
        <time>2023-09-28T12:49:24Z</time>
      </trkpt>
      <trkpt lat="44.8423" lon="5.78292">
        <ele>957.1</ele>
        <time>2023-09-28T12:49:25Z</time>
      </trkpt>
      <trkpt lat="44.84225" lon="5.78277">
        <ele>956.4</ele>
        <time>2023-09-28T12:49:26Z</time>
      </trkpt>
      <trkpt lat="44.84219" lon="5.78263">
        <ele>955.7</ele>
        <time>2023-09-28T12:49:27Z</time>
      </trkpt>
      <trkpt lat="44.84212" lon="5.78251">
        <ele>955.1</ele>
        <time>2023-09-28T12:49:28Z</time>
      </trkpt>
      <trkpt lat="44.84203" lon="5.78239">
        <ele>954.3</ele>
        <time>2023-09-28T12:49:29Z</time>
      </trkpt>
      <trkpt lat="44.84194" lon="5.78229">
        <ele>953.5</ele>
        <time>2023-09-28T12:49:30Z</time>
      </trkpt>
      <trkpt lat="44.84183" lon="5.78221">
        <ele>952.7</ele>
        <time>2023-09-28T12:49:31Z</time>
      </trkpt>
      <trkpt lat="44.84172" lon="5.78214">
        <ele>951.7</ele>
        <time>2023-09-28T12:49:32Z</time>
      </trkpt>
      <trkpt lat="44.84161" lon="5.78207">
        <ele>950.8</ele>
        <time>2023-09-28T12:49:33Z</time>
      </trkpt>
      <trkpt lat="44.8415" lon="5.78198">
        <ele>949.8</ele>
        <time>2023-09-28T12:49:34Z</time>
      </trkpt>
      <trkpt lat="44.84139" lon="5.7819">
        <ele>948.8</ele>
        <time>2023-09-28T12:49:35Z</time>
      </trkpt>
      <trkpt lat="44.84127" lon="5.78182">
        <ele>947.8</ele>
        <time>2023-09-28T12:49:36Z</time>
      </trkpt>
      <trkpt lat="44.84116" lon="5.78174">
        <ele>946.8</ele>
        <time>2023-09-28T12:49:37Z</time>
      </trkpt>
      <trkpt lat="44.84105" lon="5.78166">
        <ele>945.8</ele>
        <time>2023-09-28T12:49:38Z</time>
      </trkpt>
      <trkpt lat="44.84094" lon="5.78157">
        <ele>944.8</ele>
        <time>2023-09-28T12:49:39Z</time>
      </trkpt>
      <trkpt lat="44.84083" lon="5.78148">
        <ele>943.7</ele>
        <time>2023-09-28T12:49:40Z</time>
      </trkpt>
      <trkpt lat="44.84071" lon="5.78139">
        <ele>942.7</ele>
        <time>2023-09-28T12:49:41Z</time>
      </trkpt>
      <trkpt lat="44.8406" lon="5.78129">
        <ele>941.6</ele>
        <time>2023-09-28T12:49:42Z</time>
      </trkpt>
      <trkpt lat="44.84048" lon="5.7812">
        <ele>940.5</ele>
        <time>2023-09-28T12:49:43Z</time>
      </trkpt>
      <trkpt lat="44.84037" lon="5.78111">
        <ele>939.4</ele>
        <time>2023-09-28T12:49:44Z</time>
      </trkpt>
      <trkpt lat="44.84025" lon="5.78101">
        <ele>938.4</ele>
        <time>2023-09-28T12:49:45Z</time>
      </trkpt>
      <trkpt lat="44.84014" lon="5.78091">
        <ele>937.3</ele>
        <time>2023-09-28T12:49:46Z</time>
      </trkpt>
      <trkpt lat="44.84002" lon="5.78081">
        <ele>936.3</ele>
        <time>2023-09-28T12:49:47Z</time>
      </trkpt>
      <trkpt lat="44.8399" lon="5.78071">
        <ele>935.3</ele>
        <time>2023-09-28T12:49:48Z</time>
      </trkpt>
      <trkpt lat="44.83979" lon="5.7806">
        <ele>934.3</ele>
        <time>2023-09-28T12:49:49Z</time>
      </trkpt>
      <trkpt lat="44.83968" lon="5.78049">
        <ele>933.5</ele>
        <time>2023-09-28T12:49:50Z</time>
      </trkpt>
      <trkpt lat="44.83957" lon="5.78038">
        <ele>932.6</ele>
        <time>2023-09-28T12:49:51Z</time>
      </trkpt>
      <trkpt lat="44.83946" lon="5.78027">
        <ele>931.8</ele>
        <time>2023-09-28T12:49:52Z</time>
      </trkpt>
      <trkpt lat="44.83936" lon="5.78016">
        <ele>930.9</ele>
        <time>2023-09-28T12:49:53Z</time>
      </trkpt>
      <trkpt lat="44.83925" lon="5.78005">
        <ele>929.8</ele>
        <time>2023-09-28T12:49:54Z</time>
      </trkpt>
      <trkpt lat="44.83914" lon="5.77996">
        <ele>928.8</ele>
        <time>2023-09-28T12:49:55Z</time>
      </trkpt>
      <trkpt lat="44.83902" lon="5.77988">
        <ele>927.8</ele>
        <time>2023-09-28T12:49:56Z</time>
      </trkpt>
      <trkpt lat="44.8389" lon="5.77983">
        <ele>926.8</ele>
        <time>2023-09-28T12:49:57Z</time>
      </trkpt>
      <trkpt lat="44.83877" lon="5.77979">
        <ele>925.8</ele>
        <time>2023-09-28T12:49:58Z</time>
      </trkpt>
      <trkpt lat="44.83864" lon="5.77976">
        <ele>924.9</ele>
        <time>2023-09-28T12:49:59Z</time>
      </trkpt>
      <trkpt lat="44.83851" lon="5.77974">
        <ele>923.9</ele>
        <time>2023-09-28T12:50:00Z</time>
      </trkpt>
      <trkpt lat="44.83838" lon="5.77972">
        <ele>922.9</ele>
        <time>2023-09-28T12:50:01Z</time>
      </trkpt>
      <trkpt lat="44.83825" lon="5.77973">
        <ele>922</ele>
        <time>2023-09-28T12:50:02Z</time>
      </trkpt>
      <trkpt lat="44.83812" lon="5.77976">
        <ele>921</ele>
        <time>2023-09-28T12:50:03Z</time>
      </trkpt>
      <trkpt lat="44.838" lon="5.7798">
        <ele>920.1</ele>
        <time>2023-09-28T12:50:04Z</time>
      </trkpt>
      <trkpt lat="44.83787" lon="5.77985">
        <ele>919.1</ele>
        <time>2023-09-28T12:50:05Z</time>
      </trkpt>
      <trkpt lat="44.83776" lon="5.77987">
        <ele>918.2</ele>
        <time>2023-09-28T12:50:06Z</time>
      </trkpt>
      <trkpt lat="44.83765" lon="5.77986">
        <ele>917.3</ele>
        <time>2023-09-28T12:50:07Z</time>
      </trkpt>
      <trkpt lat="44.83754" lon="5.77979">
        <ele>916.3</ele>
        <time>2023-09-28T12:50:08Z</time>
      </trkpt>
      <trkpt lat="44.83744" lon="5.77968">
        <ele>915.2</ele>
        <time>2023-09-28T12:50:09Z</time>
      </trkpt>
      <trkpt lat="44.83736" lon="5.77956">
        <ele>914.2</ele>
        <time>2023-09-28T12:50:10Z</time>
      </trkpt>
      <trkpt lat="44.83728" lon="5.77943">
        <ele>913.2</ele>
        <time>2023-09-28T12:50:11Z</time>
      </trkpt>
      <trkpt lat="44.83721" lon="5.77929">
        <ele>912.1</ele>
        <time>2023-09-28T12:50:12Z</time>
      </trkpt>
      <trkpt lat="44.83714" lon="5.77915">
        <ele>911.1</ele>
        <time>2023-09-28T12:50:13Z</time>
      </trkpt>
      <trkpt lat="44.83707" lon="5.779">
        <ele>910.1</ele>
        <time>2023-09-28T12:50:14Z</time>
      </trkpt>
      <trkpt lat="44.837" lon="5.77885">
        <ele>909.1</ele>
        <time>2023-09-28T12:50:15Z</time>
      </trkpt>
      <trkpt lat="44.83693" lon="5.7787">
        <ele>908.1</ele>
        <time>2023-09-28T12:50:16Z</time>
      </trkpt>
      <trkpt lat="44.83686" lon="5.77855">
        <ele>907.1</ele>
        <time>2023-09-28T12:50:17Z</time>
      </trkpt>
      <trkpt lat="44.8368" lon="5.7784">
        <ele>906.1</ele>
        <time>2023-09-28T12:50:18Z</time>
      </trkpt>
      <trkpt lat="44.83674" lon="5.77823">
        <ele>905.1</ele>
        <time>2023-09-28T12:50:19Z</time>
      </trkpt>
      <trkpt lat="44.83671" lon="5.77806">
        <ele>904.1</ele>
        <time>2023-09-28T12:50:20Z</time>
      </trkpt>
      <trkpt lat="44.83668" lon="5.77789">
        <ele>903.1</ele>
        <time>2023-09-28T12:50:21Z</time>
      </trkpt>
      <trkpt lat="44.83664" lon="5.77774">
        <ele>902.1</ele>
        <time>2023-09-28T12:50:22Z</time>
      </trkpt>
      <trkpt lat="44.83657" lon="5.77761">
        <ele>901.2</ele>
        <time>2023-09-28T12:50:23Z</time>
      </trkpt>
      <trkpt lat="44.83648" lon="5.77752">
        <ele>900.3</ele>
        <time>2023-09-28T12:50:24Z</time>
      </trkpt>
      <trkpt lat="44.83637" lon="5.77744">
        <ele>899.3</ele>
        <time>2023-09-28T12:50:25Z</time>
      </trkpt>
      <trkpt lat="44.83627" lon="5.77736">
        <ele>898.4</ele>
        <time>2023-09-28T12:50:26Z</time>
      </trkpt>
      <trkpt lat="44.83618" lon="5.77725">
        <ele>897.5</ele>
        <time>2023-09-28T12:50:27Z</time>
      </trkpt>
      <trkpt lat="44.83609" lon="5.77714">
        <ele>896.6</ele>
        <time>2023-09-28T12:50:28Z</time>
      </trkpt>
      <trkpt lat="44.836" lon="5.77702">
        <ele>895.6</ele>
        <time>2023-09-28T12:50:29Z</time>
      </trkpt>
      <trkpt lat="44.83591" lon="5.7769">
        <ele>894.7</ele>
        <time>2023-09-28T12:50:30Z</time>
      </trkpt>
      <trkpt lat="44.83583" lon="5.77676">
        <ele>893.6</ele>
        <time>2023-09-28T12:50:31Z</time>
      </trkpt>
      <trkpt lat="44.83577" lon="5.7766">
        <ele>892.5</ele>
        <time>2023-09-28T12:50:32Z</time>
      </trkpt>
      <trkpt lat="44.83574" lon="5.77642">
        <ele>891</ele>
        <time>2023-09-28T12:50:33Z</time>
      </trkpt>
      <trkpt lat="44.8357" lon="5.77625">
        <ele>889.8</ele>
        <time>2023-09-28T12:50:34Z</time>
      </trkpt>
      <trkpt lat="44.83563" lon="5.7761">
        <ele>888.6</ele>
        <time>2023-09-28T12:50:35Z</time>
      </trkpt>
      <trkpt lat="44.83555" lon="5.77596">
        <ele>887.5</ele>
        <time>2023-09-28T12:50:36Z</time>
      </trkpt>
      <trkpt lat="44.83549" lon="5.77583">
        <ele>886.5</ele>
        <time>2023-09-28T12:50:37Z</time>
      </trkpt>
      <trkpt lat="44.83546" lon="5.77568">
        <ele>885.6</ele>
        <time>2023-09-28T12:50:38Z</time>
      </trkpt>
      <trkpt lat="44.83547" lon="5.77552">
        <ele>884.6</ele>
        <time>2023-09-28T12:50:39Z</time>
      </trkpt>
      <trkpt lat="44.8355" lon="5.77536">
        <ele>883.7</ele>
        <time>2023-09-28T12:50:40Z</time>
      </trkpt>
      <trkpt lat="44.83549" lon="5.7752">
        <ele>882.7</ele>
        <time>2023-09-28T12:50:41Z</time>
      </trkpt>
      <trkpt lat="44.83543" lon="5.77504">
        <ele>881.7</ele>
        <time>2023-09-28T12:50:42Z</time>
      </trkpt>
      <trkpt lat="44.83536" lon="5.7749">
        <ele>880.8</ele>
        <time>2023-09-28T12:50:43Z</time>
      </trkpt>
      <trkpt lat="44.83529" lon="5.77477">
        <ele>879.8</ele>
        <time>2023-09-28T12:50:44Z</time>
      </trkpt>
      <trkpt lat="44.83521" lon="5.77464">
        <ele>878.8</ele>
        <time>2023-09-28T12:50:45Z</time>
      </trkpt>
      <trkpt lat="44.83513" lon="5.7745">
        <ele>877.8</ele>
        <time>2023-09-28T12:50:46Z</time>
      </trkpt>
      <trkpt lat="44.83505" lon="5.77436">
        <ele>876.8</ele>
        <time>2023-09-28T12:50:47Z</time>
      </trkpt>
      <trkpt lat="44.83497" lon="5.77423">
        <ele>875.7</ele>
        <time>2023-09-28T12:50:48Z</time>
      </trkpt>
      <trkpt lat="44.83489" lon="5.77409">
        <ele>874.7</ele>
        <time>2023-09-28T12:50:49Z</time>
      </trkpt>
      <trkpt lat="44.83481" lon="5.77395">
        <ele>873.7</ele>
        <time>2023-09-28T12:50:50Z</time>
      </trkpt>
      <trkpt lat="44.83473" lon="5.77381">
        <ele>872.7</ele>
        <time>2023-09-28T12:50:51Z</time>
      </trkpt>
      <trkpt lat="44.83465" lon="5.77368">
        <ele>871.8</ele>
        <time>2023-09-28T12:50:52Z</time>
      </trkpt>
      <trkpt lat="44.83456" lon="5.77354">
        <ele>870.8</ele>
        <time>2023-09-28T12:50:53Z</time>
      </trkpt>
      <trkpt lat="44.83448" lon="5.77341">
        <ele>869.8</ele>
        <time>2023-09-28T12:50:54Z</time>
      </trkpt>
      <trkpt lat="44.8344" lon="5.77328">
        <ele>868.7</ele>
        <time>2023-09-28T12:50:55Z</time>
      </trkpt>
      <trkpt lat="44.83431" lon="5.77315">
        <ele>867.7</ele>
        <time>2023-09-28T12:50:56Z</time>
      </trkpt>
      <trkpt lat="44.83423" lon="5.77301">
        <ele>866.5</ele>
        <time>2023-09-28T12:50:57Z</time>
      </trkpt>
      <trkpt lat="44.83414" lon="5.77288">
        <ele>865.4</ele>
        <time>2023-09-28T12:50:58Z</time>
      </trkpt>
      <trkpt lat="44.83404" lon="5.77275">
        <ele>864.3</ele>
        <time>2023-09-28T12:50:59Z</time>
      </trkpt>
      <trkpt lat="44.83395" lon="5.77261">
        <ele>863.1</ele>
        <time>2023-09-28T12:51:00Z</time>
      </trkpt>
      <trkpt lat="44.83386" lon="5.77247">
        <ele>861.9</ele>
        <time>2023-09-28T12:51:01Z</time>
      </trkpt>
      <trkpt lat="44.83377" lon="5.77233">
        <ele>860.7</ele>
        <time>2023-09-28T12:51:02Z</time>
      </trkpt>
      <trkpt lat="44.83369" lon="5.77218">
        <ele>859.5</ele>
        <time>2023-09-28T12:51:03Z</time>
      </trkpt>
      <trkpt lat="44.8336" lon="5.77204">
        <ele>858.4</ele>
        <time>2023-09-28T12:51:04Z</time>
      </trkpt>
      <trkpt lat="44.83351" lon="5.77189">
        <ele>857.2</ele>
        <time>2023-09-28T12:51:05Z</time>
      </trkpt>
      <trkpt lat="44.83342" lon="5.77174">
        <ele>856</ele>
        <time>2023-09-28T12:51:06Z</time>
      </trkpt>
      <trkpt lat="44.83334" lon="5.77158">
        <ele>854.9</ele>
        <time>2023-09-28T12:51:07Z</time>
      </trkpt>
      <trkpt lat="44.83325" lon="5.77144">
        <ele>853.7</ele>
        <time>2023-09-28T12:51:08Z</time>
      </trkpt>
      <trkpt lat="44.83317" lon="5.77131">
        <ele>852.7</ele>
        <time>2023-09-28T12:51:09Z</time>
      </trkpt>
      <trkpt lat="44.83309" lon="5.77118">
        <ele>851.7</ele>
        <time>2023-09-28T12:51:10Z</time>
      </trkpt>
      <trkpt lat="44.83299" lon="5.77107">
        <ele>850.8</ele>
        <time>2023-09-28T12:51:11Z</time>
      </trkpt>
      <trkpt lat="44.83289" lon="5.77099">
        <ele>849.9</ele>
        <time>2023-09-28T12:51:12Z</time>
      </trkpt>
      <trkpt lat="44.83277" lon="5.77095">
        <ele>849.1</ele>
        <time>2023-09-28T12:51:13Z</time>
      </trkpt>
      <trkpt lat="44.83265" lon="5.77093">
        <ele>848.8</ele>
        <time>2023-09-28T12:51:14Z</time>
      </trkpt>
      <trkpt lat="44.83253" lon="5.77092">
        <ele>847.7</ele>
        <time>2023-09-28T12:51:15Z</time>
      </trkpt>
      <trkpt lat="44.8324" lon="5.77091">
        <ele>846.6</ele>
        <time>2023-09-28T12:51:16Z</time>
      </trkpt>
      <trkpt lat="44.83228" lon="5.77091">
        <ele>845.5</ele>
        <time>2023-09-28T12:51:17Z</time>
      </trkpt>
      <trkpt lat="44.83215" lon="5.77091">
        <ele>844.6</ele>
        <time>2023-09-28T12:51:18Z</time>
      </trkpt>
      <trkpt lat="44.83202" lon="5.7709">
        <ele>843.9</ele>
        <time>2023-09-28T12:51:19Z</time>
      </trkpt>
      <trkpt lat="44.83189" lon="5.7709">
        <ele>843.2</ele>
        <time>2023-09-28T12:51:20Z</time>
      </trkpt>
      <trkpt lat="44.83176" lon="5.77088">
        <ele>842.7</ele>
        <time>2023-09-28T12:51:21Z</time>
      </trkpt>
      <trkpt lat="44.83164" lon="5.77086">
        <ele>842.4</ele>
        <time>2023-09-28T12:51:22Z</time>
      </trkpt>
      <trkpt lat="44.83152" lon="5.77082">
        <ele>842</ele>
        <time>2023-09-28T12:51:23Z</time>
      </trkpt>
      <trkpt lat="44.8314" lon="5.77076">
        <ele>841.6</ele>
        <time>2023-09-28T12:51:24Z</time>
      </trkpt>
      <trkpt lat="44.8313" lon="5.77068">
        <ele>841.3</ele>
        <time>2023-09-28T12:51:25Z</time>
      </trkpt>
      <trkpt lat="44.8312" lon="5.7706">
        <ele>841</ele>
        <time>2023-09-28T12:51:26Z</time>
      </trkpt>
      <trkpt lat="44.8311" lon="5.77051">
        <ele>840.6</ele>
        <time>2023-09-28T12:51:27Z</time>
      </trkpt>
      <trkpt lat="44.831" lon="5.77042">
        <ele>840.3</ele>
        <time>2023-09-28T12:51:28Z</time>
      </trkpt>
      <trkpt lat="44.83091" lon="5.77033">
        <ele>839.9</ele>
        <time>2023-09-28T12:51:29Z</time>
      </trkpt>
      <trkpt lat="44.83081" lon="5.77025">
        <ele>839.6</ele>
        <time>2023-09-28T12:51:30Z</time>
      </trkpt>
      <trkpt lat="44.83072" lon="5.77016">
        <ele>839.2</ele>
        <time>2023-09-28T12:51:31Z</time>
      </trkpt>
      <trkpt lat="44.83064" lon="5.77008">
        <ele>839</ele>
        <time>2023-09-28T12:51:32Z</time>
      </trkpt>
      <trkpt lat="44.83055" lon="5.76999">
        <ele>838.7</ele>
        <time>2023-09-28T12:51:33Z</time>
      </trkpt>
      <trkpt lat="44.83047" lon="5.7699">
        <ele>838.5</ele>
        <time>2023-09-28T12:51:34Z</time>
      </trkpt>
      <trkpt lat="44.83039" lon="5.76981">
        <ele>838.3</ele>
        <time>2023-09-28T12:51:35Z</time>
      </trkpt>
      <trkpt lat="44.83031" lon="5.76973">
        <ele>838.2</ele>
        <time>2023-09-28T12:51:36Z</time>
      </trkpt>
      <trkpt lat="44.83023" lon="5.76964">
        <ele>838.1</ele>
        <time>2023-09-28T12:51:37Z</time>
      </trkpt>
      <trkpt lat="44.83015" lon="5.76956">
        <ele>838</ele>
        <time>2023-09-28T12:51:38Z</time>
      </trkpt>
      <trkpt lat="44.83007" lon="5.76948">
        <ele>838</ele>
        <time>2023-09-28T12:51:39Z</time>
      </trkpt>
      <trkpt lat="44.83" lon="5.7694">
        <ele>838</ele>
        <time>2023-09-28T12:51:40Z</time>
      </trkpt>
      <trkpt lat="44.82993" lon="5.76933">
        <ele>838</ele>
        <time>2023-09-28T12:51:41Z</time>
      </trkpt>
      <trkpt lat="44.82986" lon="5.76925">
        <ele>838</ele>
        <time>2023-09-28T12:51:42Z</time>
      </trkpt>
      <trkpt lat="44.82979" lon="5.76918">
        <ele>838</ele>
        <time>2023-09-28T12:51:43Z</time>
      </trkpt>
      <trkpt lat="44.82973" lon="5.7691">
        <ele>838.1</ele>
        <time>2023-09-28T12:51:44Z</time>
      </trkpt>
      <trkpt lat="44.82966" lon="5.76903">
        <ele>838.1</ele>
        <time>2023-09-28T12:51:45Z</time>
      </trkpt>
      <trkpt lat="44.82959" lon="5.76897">
        <ele>838.1</ele>
        <time>2023-09-28T12:51:46Z</time>
      </trkpt>
      <trkpt lat="44.82953" lon="5.7689">
        <ele>838.1</ele>
        <time>2023-09-28T12:51:47Z</time>
      </trkpt>
      <trkpt lat="44.82947" lon="5.76884">
        <ele>838.1</ele>
        <time>2023-09-28T12:51:48Z</time>
      </trkpt>
      <trkpt lat="44.82941" lon="5.76877">
        <ele>838.1</ele>
        <time>2023-09-28T12:51:49Z</time>
      </trkpt>
      <trkpt lat="44.82936" lon="5.76871">
        <ele>838</ele>
        <time>2023-09-28T12:51:50Z</time>
      </trkpt>
      <trkpt lat="44.8293" lon="5.76865">
        <ele>838</ele>
        <time>2023-09-28T12:51:51Z</time>
      </trkpt>
      <trkpt lat="44.82925" lon="5.7686">
        <ele>837.9</ele>
        <time>2023-09-28T12:51:52Z</time>
      </trkpt>
      <trkpt lat="44.82919" lon="5.76854">
        <ele>837.9</ele>
        <time>2023-09-28T12:51:53Z</time>
      </trkpt>
      <trkpt lat="44.82914" lon="5.76849">
        <ele>837.8</ele>
        <time>2023-09-28T12:51:54Z</time>
      </trkpt>
      <trkpt lat="44.82909" lon="5.76843">
        <ele>837.6</ele>
        <time>2023-09-28T12:51:55Z</time>
      </trkpt>
      <trkpt lat="44.82904" lon="5.76838">
        <ele>837.4</ele>
        <time>2023-09-28T12:51:56Z</time>
      </trkpt>
      <trkpt lat="44.82898" lon="5.76832">
        <ele>837.1</ele>
        <time>2023-09-28T12:51:57Z</time>
      </trkpt>
      <trkpt lat="44.82893" lon="5.76827">
        <ele>836.8</ele>
        <time>2023-09-28T12:51:58Z</time>
      </trkpt>
      <trkpt lat="44.82887" lon="5.76822">
        <ele>836.5</ele>
        <time>2023-09-28T12:51:59Z</time>
      </trkpt>
      <trkpt lat="44.82882" lon="5.76815">
        <ele>836.3</ele>
        <time>2023-09-28T12:52:00Z</time>
      </trkpt>
      <trkpt lat="44.82877" lon="5.76809">
        <ele>836</ele>
        <time>2023-09-28T12:52:01Z</time>
      </trkpt>
      <trkpt lat="44.82871" lon="5.76803">
        <ele>835.7</ele>
        <time>2023-09-28T12:52:02Z</time>
      </trkpt>
      <trkpt lat="44.82866" lon="5.76797">
        <ele>835.5</ele>
        <time>2023-09-28T12:52:03Z</time>
      </trkpt>
      <trkpt lat="44.8286" lon="5.76791">
        <ele>835.2</ele>
        <time>2023-09-28T12:52:04Z</time>
      </trkpt>
      <trkpt lat="44.82854" lon="5.76785">
        <ele>834.9</ele>
        <time>2023-09-28T12:52:05Z</time>
      </trkpt>
      <trkpt lat="44.82848" lon="5.76779">
        <ele>834.6</ele>
        <time>2023-09-28T12:52:06Z</time>
      </trkpt>
      <trkpt lat="44.82843" lon="5.76772">
        <ele>834.3</ele>
        <time>2023-09-28T12:52:07Z</time>
      </trkpt>
      <trkpt lat="44.82837" lon="5.76766">
        <ele>834</ele>
        <time>2023-09-28T12:52:08Z</time>
      </trkpt>
      <trkpt lat="44.82831" lon="5.76759">
        <ele>833.7</ele>
        <time>2023-09-28T12:52:09Z</time>
      </trkpt>
      <trkpt lat="44.82826" lon="5.76753">
        <ele>833.4</ele>
        <time>2023-09-28T12:52:10Z</time>
      </trkpt>
      <trkpt lat="44.8282" lon="5.76746">
        <ele>833.1</ele>
        <time>2023-09-28T12:52:11Z</time>
      </trkpt>
      <trkpt lat="44.82814" lon="5.76739">
        <ele>832.8</ele>
        <time>2023-09-28T12:52:12Z</time>
      </trkpt>
      <trkpt lat="44.82808" lon="5.76733">
        <ele>832.4</ele>
        <time>2023-09-28T12:52:13Z</time>
      </trkpt>
      <trkpt lat="44.82802" lon="5.76726">
        <ele>832.1</ele>
        <time>2023-09-28T12:52:14Z</time>
      </trkpt>
      <trkpt lat="44.82796" lon="5.7672">
        <ele>831.8</ele>
        <time>2023-09-28T12:52:15Z</time>
      </trkpt>
      <trkpt lat="44.82789" lon="5.76713">
        <ele>831.5</ele>
        <time>2023-09-28T12:52:16Z</time>
      </trkpt>
      <trkpt lat="44.82783" lon="5.76706">
        <ele>831.2</ele>
        <time>2023-09-28T12:52:17Z</time>
      </trkpt>
      <trkpt lat="44.82776" lon="5.76699">
        <ele>830.8</ele>
        <time>2023-09-28T12:52:18Z</time>
      </trkpt>
      <trkpt lat="44.8277" lon="5.76692">
        <ele>830.5</ele>
        <time>2023-09-28T12:52:19Z</time>
      </trkpt>
      <trkpt lat="44.82764" lon="5.76685">
        <ele>830.2</ele>
        <time>2023-09-28T12:52:20Z</time>
      </trkpt>
      <trkpt lat="44.82757" lon="5.76678">
        <ele>829.8</ele>
        <time>2023-09-28T12:52:21Z</time>
      </trkpt>
      <trkpt lat="44.82751" lon="5.7667">
        <ele>829.5</ele>
        <time>2023-09-28T12:52:22Z</time>
      </trkpt>
      <trkpt lat="44.82744" lon="5.76663">
        <ele>829.1</ele>
        <time>2023-09-28T12:52:23Z</time>
      </trkpt>
      <trkpt lat="44.82737" lon="5.76656">
        <ele>828.8</ele>
        <time>2023-09-28T12:52:24Z</time>
      </trkpt>
      <trkpt lat="44.82731" lon="5.76649">
        <ele>828.4</ele>
        <time>2023-09-28T12:52:25Z</time>
      </trkpt>
      <trkpt lat="44.82724" lon="5.76641">
        <ele>828</ele>
        <time>2023-09-28T12:52:26Z</time>
      </trkpt>
      <trkpt lat="44.82717" lon="5.76633">
        <ele>827.6</ele>
        <time>2023-09-28T12:52:27Z</time>
      </trkpt>
      <trkpt lat="44.8271" lon="5.76625">
        <ele>827.3</ele>
        <time>2023-09-28T12:52:28Z</time>
      </trkpt>
      <trkpt lat="44.82703" lon="5.76617">
        <ele>826.9</ele>
        <time>2023-09-28T12:52:29Z</time>
      </trkpt>
      <trkpt lat="44.82696" lon="5.7661">
        <ele>826.5</ele>
        <time>2023-09-28T12:52:30Z</time>
      </trkpt>
      <trkpt lat="44.82688" lon="5.76602">
        <ele>826.2</ele>
        <time>2023-09-28T12:52:31Z</time>
      </trkpt>
      <trkpt lat="44.82681" lon="5.76594">
        <ele>825.8</ele>
        <time>2023-09-28T12:52:32Z</time>
      </trkpt>
      <trkpt lat="44.82674" lon="5.76587">
        <ele>825.4</ele>
        <time>2023-09-28T12:52:33Z</time>
      </trkpt>
      <trkpt lat="44.82667" lon="5.76578">
        <ele>825.1</ele>
        <time>2023-09-28T12:52:34Z</time>
      </trkpt>
      <trkpt lat="44.82659" lon="5.7657">
        <ele>824.7</ele>
        <time>2023-09-28T12:52:35Z</time>
      </trkpt>
      <trkpt lat="44.82652" lon="5.76563">
        <ele>824.5</ele>
        <time>2023-09-28T12:52:36Z</time>
      </trkpt>
      <trkpt lat="44.82644" lon="5.76555">
        <ele>824.3</ele>
        <time>2023-09-28T12:52:37Z</time>
      </trkpt>
      <trkpt lat="44.82637" lon="5.76547">
        <ele>824.1</ele>
        <time>2023-09-28T12:52:38Z</time>
      </trkpt>
      <trkpt lat="44.82629" lon="5.7654">
        <ele>823.7</ele>
        <time>2023-09-28T12:52:39Z</time>
      </trkpt>
      <trkpt lat="44.82622" lon="5.76532">
        <ele>823.4</ele>
        <time>2023-09-28T12:52:40Z</time>
      </trkpt>
      <trkpt lat="44.82615" lon="5.76523">
        <ele>823</ele>
        <time>2023-09-28T12:52:41Z</time>
      </trkpt>
      <trkpt lat="44.82607" lon="5.76515">
        <ele>822.6</ele>
        <time>2023-09-28T12:52:42Z</time>
      </trkpt>
      <trkpt lat="44.826" lon="5.76507">
        <ele>822.2</ele>
        <time>2023-09-28T12:52:43Z</time>
      </trkpt>
      <trkpt lat="44.82593" lon="5.76499">
        <ele>821.8</ele>
        <time>2023-09-28T12:52:44Z</time>
      </trkpt>
      <trkpt lat="44.82585" lon="5.76491">
        <ele>821.4</ele>
        <time>2023-09-28T12:52:45Z</time>
      </trkpt>
      <trkpt lat="44.82578" lon="5.76482">
        <ele>821.1</ele>
        <time>2023-09-28T12:52:46Z</time>
      </trkpt>
      <trkpt lat="44.8257" lon="5.76475">
        <ele>820.7</ele>
        <time>2023-09-28T12:52:47Z</time>
      </trkpt>
      <trkpt lat="44.82563" lon="5.76467">
        <ele>820.3</ele>
        <time>2023-09-28T12:52:48Z</time>
      </trkpt>
      <trkpt lat="44.82555" lon="5.7646">
        <ele>819.9</ele>
        <time>2023-09-28T12:52:49Z</time>
      </trkpt>
      <trkpt lat="44.82548" lon="5.76451">
        <ele>819.5</ele>
        <time>2023-09-28T12:52:50Z</time>
      </trkpt>
      <trkpt lat="44.82541" lon="5.76443">
        <ele>819.2</ele>
        <time>2023-09-28T12:52:51Z</time>
      </trkpt>
      <trkpt lat="44.82534" lon="5.76434">
        <ele>818.8</ele>
        <time>2023-09-28T12:52:52Z</time>
      </trkpt>
      <trkpt lat="44.82527" lon="5.76426">
        <ele>818.4</ele>
        <time>2023-09-28T12:52:53Z</time>
      </trkpt>
      <trkpt lat="44.82519" lon="5.76418">
        <ele>818</ele>
        <time>2023-09-28T12:52:54Z</time>
      </trkpt>
      <trkpt lat="44.82512" lon="5.7641">
        <ele>817.6</ele>
        <time>2023-09-28T12:52:55Z</time>
      </trkpt>
      <trkpt lat="44.82505" lon="5.76402">
        <ele>817.2</ele>
        <time>2023-09-28T12:52:56Z</time>
      </trkpt>
      <trkpt lat="44.82497" lon="5.76394">
        <ele>816.8</ele>
        <time>2023-09-28T12:52:57Z</time>
      </trkpt>
      <trkpt lat="44.8249" lon="5.76386">
        <ele>816.4</ele>
        <time>2023-09-28T12:52:58Z</time>
      </trkpt>
      <trkpt lat="44.82483" lon="5.76378">
        <ele>816</ele>
        <time>2023-09-28T12:52:59Z</time>
      </trkpt>
      <trkpt lat="44.82476" lon="5.7637">
        <ele>815.6</ele>
        <time>2023-09-28T12:53:00Z</time>
      </trkpt>
      <trkpt lat="44.82468" lon="5.76362">
        <ele>815.2</ele>
        <time>2023-09-28T12:53:01Z</time>
      </trkpt>
      <trkpt lat="44.82461" lon="5.76354">
        <ele>815</ele>
        <time>2023-09-28T12:53:02Z</time>
      </trkpt>
      <trkpt lat="44.82454" lon="5.76346">
        <ele>814.7</ele>
        <time>2023-09-28T12:53:03Z</time>
      </trkpt>
      <trkpt lat="44.82447" lon="5.76338">
        <ele>814.5</ele>
        <time>2023-09-28T12:53:04Z</time>
      </trkpt>
      <trkpt lat="44.8244" lon="5.7633">
        <ele>814.1</ele>
        <time>2023-09-28T12:53:05Z</time>
      </trkpt>
      <trkpt lat="44.82433" lon="5.76322">
        <ele>813.7</ele>
        <time>2023-09-28T12:53:06Z</time>
      </trkpt>
      <trkpt lat="44.82426" lon="5.76314">
        <ele>813.2</ele>
        <time>2023-09-28T12:53:07Z</time>
      </trkpt>
      <trkpt lat="44.82419" lon="5.76306">
        <ele>812.9</ele>
        <time>2023-09-28T12:53:08Z</time>
      </trkpt>
      <trkpt lat="44.82412" lon="5.76298">
        <ele>812.5</ele>
        <time>2023-09-28T12:53:09Z</time>
      </trkpt>
      <trkpt lat="44.82404" lon="5.7629">
        <ele>812.1</ele>
        <time>2023-09-28T12:53:10Z</time>
      </trkpt>
      <trkpt lat="44.82397" lon="5.76282">
        <ele>811.7</ele>
        <time>2023-09-28T12:53:11Z</time>
      </trkpt>
      <trkpt lat="44.8239" lon="5.76274">
        <ele>811.3</ele>
        <time>2023-09-28T12:53:12Z</time>
      </trkpt>
      <trkpt lat="44.82383" lon="5.76266">
        <ele>810.9</ele>
        <time>2023-09-28T12:53:13Z</time>
      </trkpt>
      <trkpt lat="44.82375" lon="5.76257">
        <ele>810.5</ele>
        <time>2023-09-28T12:53:14Z</time>
      </trkpt>
      <trkpt lat="44.82368" lon="5.76249">
        <ele>810.1</ele>
        <time>2023-09-28T12:53:15Z</time>
      </trkpt>
      <trkpt lat="44.8236" lon="5.76241">
        <ele>809.7</ele>
        <time>2023-09-28T12:53:16Z</time>
      </trkpt>
      <trkpt lat="44.82353" lon="5.76233">
        <ele>809.3</ele>
        <time>2023-09-28T12:53:17Z</time>
      </trkpt>
      <trkpt lat="44.82346" lon="5.76225">
        <ele>808.9</ele>
        <time>2023-09-28T12:53:18Z</time>
      </trkpt>
      <trkpt lat="44.82338" lon="5.76217">
        <ele>808.5</ele>
        <time>2023-09-28T12:53:19Z</time>
      </trkpt>
      <trkpt lat="44.82331" lon="5.76209">
        <ele>808.1</ele>
        <time>2023-09-28T12:53:20Z</time>
      </trkpt>
      <trkpt lat="44.82323" lon="5.762">
        <ele>807.7</ele>
        <time>2023-09-28T12:53:21Z</time>
      </trkpt>
      <trkpt lat="44.82316" lon="5.76192">
        <ele>807.3</ele>
        <time>2023-09-28T12:53:22Z</time>
      </trkpt>
      <trkpt lat="44.82308" lon="5.76184">
        <ele>807</ele>
        <time>2023-09-28T12:53:23Z</time>
      </trkpt>
      <trkpt lat="44.82301" lon="5.76176">
        <ele>806.6</ele>
        <time>2023-09-28T12:53:24Z</time>
      </trkpt>
      <trkpt lat="44.82293" lon="5.76168">
        <ele>806.2</ele>
        <time>2023-09-28T12:53:25Z</time>
      </trkpt>
      <trkpt lat="44.82285" lon="5.7616">
        <ele>805.9</ele>
        <time>2023-09-28T12:53:26Z</time>
      </trkpt>
      <trkpt lat="44.82278" lon="5.76152">
        <ele>805.5</ele>
        <time>2023-09-28T12:53:27Z</time>
      </trkpt>
      <trkpt lat="44.82271" lon="5.76144">
        <ele>805.1</ele>
        <time>2023-09-28T12:53:28Z</time>
      </trkpt>
      <trkpt lat="44.82264" lon="5.76136">
        <ele>804.8</ele>
        <time>2023-09-28T12:53:29Z</time>
      </trkpt>
      <trkpt lat="44.82256" lon="5.76129">
        <ele>804.4</ele>
        <time>2023-09-28T12:53:30Z</time>
      </trkpt>
      <trkpt lat="44.82249" lon="5.76121">
        <ele>804.1</ele>
        <time>2023-09-28T12:53:31Z</time>
      </trkpt>
      <trkpt lat="44.82242" lon="5.76113">
        <ele>803.7</ele>
        <time>2023-09-28T12:53:32Z</time>
      </trkpt>
      <trkpt lat="44.82235" lon="5.76105">
        <ele>803.3</ele>
        <time>2023-09-28T12:53:33Z</time>
      </trkpt>
      <trkpt lat="44.82227" lon="5.76098">
        <ele>802.9</ele>
        <time>2023-09-28T12:53:34Z</time>
      </trkpt>
      <trkpt lat="44.8222" lon="5.7609">
        <ele>802.5</ele>
        <time>2023-09-28T12:53:35Z</time>
      </trkpt>
      <trkpt lat="44.82213" lon="5.76082">
        <ele>802.1</ele>
        <time>2023-09-28T12:53:36Z</time>
      </trkpt>
      <trkpt lat="44.82206" lon="5.76074">
        <ele>801.7</ele>
        <time>2023-09-28T12:53:37Z</time>
      </trkpt>
      <trkpt lat="44.82199" lon="5.76066">
        <ele>801.4</ele>
        <time>2023-09-28T12:53:38Z</time>
      </trkpt>
      <trkpt lat="44.82192" lon="5.76058">
        <ele>801</ele>
        <time>2023-09-28T12:53:39Z</time>
      </trkpt>
      <trkpt lat="44.82185" lon="5.76051">
        <ele>800.7</ele>
        <time>2023-09-28T12:53:40Z</time>
      </trkpt>
      <trkpt lat="44.82178" lon="5.76043">
        <ele>800.3</ele>
        <time>2023-09-28T12:53:41Z</time>
      </trkpt>
      <trkpt lat="44.8217" lon="5.76035">
        <ele>799.9</ele>
        <time>2023-09-28T12:53:42Z</time>
      </trkpt>
      <trkpt lat="44.82163" lon="5.76027">
        <ele>799.5</ele>
        <time>2023-09-28T12:53:43Z</time>
      </trkpt>
      <trkpt lat="44.82156" lon="5.7602">
        <ele>799.1</ele>
        <time>2023-09-28T12:53:44Z</time>
      </trkpt>
      <trkpt lat="44.82149" lon="5.76012">
        <ele>798.6</ele>
        <time>2023-09-28T12:53:45Z</time>
      </trkpt>
      <trkpt lat="44.82142" lon="5.76004">
        <ele>798.2</ele>
        <time>2023-09-28T12:53:46Z</time>
      </trkpt>
      <trkpt lat="44.82135" lon="5.75996">
        <ele>797.8</ele>
        <time>2023-09-28T12:53:47Z</time>
      </trkpt>
      <trkpt lat="44.82128" lon="5.75989">
        <ele>797.4</ele>
        <time>2023-09-28T12:53:48Z</time>
      </trkpt>
      <trkpt lat="44.82121" lon="5.75981">
        <ele>797</ele>
        <time>2023-09-28T12:53:49Z</time>
      </trkpt>
      <trkpt lat="44.82114" lon="5.75973">
        <ele>796.5</ele>
        <time>2023-09-28T12:53:50Z</time>
      </trkpt>
      <trkpt lat="44.82106" lon="5.75965">
        <ele>796.1</ele>
        <time>2023-09-28T12:53:51Z</time>
      </trkpt>
      <trkpt lat="44.82099" lon="5.75957">
        <ele>795.7</ele>
        <time>2023-09-28T12:53:52Z</time>
      </trkpt>
      <trkpt lat="44.82092" lon="5.75949">
        <ele>795.3</ele>
        <time>2023-09-28T12:53:53Z</time>
      </trkpt>
      <trkpt lat="44.82085" lon="5.75941">
        <ele>795</ele>
        <time>2023-09-28T12:53:54Z</time>
      </trkpt>
      <trkpt lat="44.82078" lon="5.75933">
        <ele>794.6</ele>
        <time>2023-09-28T12:53:55Z</time>
      </trkpt>
      <trkpt lat="44.8207" lon="5.75925">
        <ele>794.3</ele>
        <time>2023-09-28T12:53:56Z</time>
      </trkpt>
      <trkpt lat="44.82063" lon="5.75918">
        <ele>794.1</ele>
        <time>2023-09-28T12:53:57Z</time>
      </trkpt>
      <trkpt lat="44.82056" lon="5.7591">
        <ele>793.9</ele>
        <time>2023-09-28T12:53:58Z</time>
      </trkpt>
      <trkpt lat="44.82048" lon="5.75902">
        <ele>793.8</ele>
        <time>2023-09-28T12:53:59Z</time>
      </trkpt>
      <trkpt lat="44.82041" lon="5.75895">
        <ele>793.7</ele>
        <time>2023-09-28T12:54:00Z</time>
      </trkpt>
      <trkpt lat="44.82034" lon="5.75886">
        <ele>793.6</ele>
        <time>2023-09-28T12:54:01Z</time>
      </trkpt>
      <trkpt lat="44.82027" lon="5.75879">
        <ele>793.5</ele>
        <time>2023-09-28T12:54:02Z</time>
      </trkpt>
      <trkpt lat="44.82021" lon="5.75871">
        <ele>793.5</ele>
        <time>2023-09-28T12:54:03Z</time>
      </trkpt>
      <trkpt lat="44.82014" lon="5.75864">
        <ele>793.5</ele>
        <time>2023-09-28T12:54:04Z</time>
      </trkpt>
      <trkpt lat="44.82008" lon="5.75856">
        <ele>793.5</ele>
        <time>2023-09-28T12:54:05Z</time>
      </trkpt>
      <trkpt lat="44.82001" lon="5.75849">
        <ele>793.5</ele>
        <time>2023-09-28T12:54:06Z</time>
      </trkpt>
      <trkpt lat="44.81995" lon="5.75842">
        <ele>793.5</ele>
        <time>2023-09-28T12:54:07Z</time>
      </trkpt>
      <trkpt lat="44.8199" lon="5.75835">
        <ele>793.5</ele>
        <time>2023-09-28T12:54:08Z</time>
      </trkpt>
      <trkpt lat="44.81984" lon="5.75828">
        <ele>793.5</ele>
        <time>2023-09-28T12:54:09Z</time>
      </trkpt>
      <trkpt lat="44.81979" lon="5.75823">
        <ele>793.5</ele>
        <time>2023-09-28T12:54:10Z</time>
      </trkpt>
      <trkpt lat="44.81973" lon="5.75817">
        <ele>793.6</ele>
        <time>2023-09-28T12:54:11Z</time>
      </trkpt>
      <trkpt lat="44.81968" lon="5.75812">
        <ele>793.6</ele>
        <time>2023-09-28T12:54:12Z</time>
      </trkpt>
      <trkpt lat="44.81964" lon="5.75806">
        <ele>793.7</ele>
        <time>2023-09-28T12:54:13Z</time>
      </trkpt>
      <trkpt lat="44.81959" lon="5.75801">
        <ele>793.8</ele>
        <time>2023-09-28T12:54:14Z</time>
      </trkpt>
      <trkpt lat="44.81955" lon="5.75796">
        <ele>793.8</ele>
        <time>2023-09-28T12:54:15Z</time>
      </trkpt>
      <trkpt lat="44.8195" lon="5.75792">
        <ele>793.9</ele>
        <time>2023-09-28T12:54:16Z</time>
      </trkpt>
      <trkpt lat="44.81947" lon="5.75787">
        <ele>794</ele>
        <time>2023-09-28T12:54:17Z</time>
      </trkpt>
      <trkpt lat="44.81943" lon="5.75782">
        <ele>794</ele>
        <time>2023-09-28T12:54:18Z</time>
      </trkpt>
      <trkpt lat="44.81939" lon="5.75778">
        <ele>794.1</ele>
        <time>2023-09-28T12:54:19Z</time>
      </trkpt>
      <trkpt lat="44.81936" lon="5.75774">
        <ele>794.1</ele>
        <time>2023-09-28T12:54:20Z</time>
      </trkpt>
      <trkpt lat="44.81932" lon="5.7577">
        <ele>794.1</ele>
        <time>2023-09-28T12:54:21Z</time>
      </trkpt>
      <trkpt lat="44.81928" lon="5.75767">
        <ele>794.2</ele>
        <time>2023-09-28T12:54:22Z</time>
      </trkpt>
      <trkpt lat="44.81925" lon="5.75763">
        <ele>794.2</ele>
        <time>2023-09-28T12:54:23Z</time>
      </trkpt>
      <trkpt lat="44.81922" lon="5.7576">
        <ele>794.2</ele>
        <time>2023-09-28T12:54:24Z</time>
      </trkpt>
      <trkpt lat="44.81918" lon="5.75756">
        <ele>794.2</ele>
        <time>2023-09-28T12:54:25Z</time>
      </trkpt>
      <trkpt lat="44.81915" lon="5.75752">
        <ele>794.3</ele>
        <time>2023-09-28T12:54:26Z</time>
      </trkpt>
      <trkpt lat="44.81911" lon="5.75748">
        <ele>794.3</ele>
        <time>2023-09-28T12:54:27Z</time>
      </trkpt>
      <trkpt lat="44.81906" lon="5.75742">
        <ele>794.3</ele>
        <time>2023-09-28T12:54:29Z</time>
      </trkpt>
      <trkpt lat="44.81902" lon="5.75738">
        <ele>794.4</ele>
        <time>2023-09-28T12:54:30Z</time>
      </trkpt>
      <trkpt lat="44.81898" lon="5.75735">
        <ele>794.4</ele>
        <time>2023-09-28T12:54:31Z</time>
      </trkpt>
      <trkpt lat="44.81894" lon="5.7573">
        <ele>794.4</ele>
        <time>2023-09-28T12:54:32Z</time>
      </trkpt>
      <trkpt lat="44.81891" lon="5.75726">
        <ele>794.4</ele>
        <time>2023-09-28T12:54:33Z</time>
      </trkpt>
      <trkpt lat="44.81887" lon="5.75722">
        <ele>794.4</ele>
        <time>2023-09-28T12:54:35Z</time>
      </trkpt>
      <trkpt lat="44.81883" lon="5.75719">
        <ele>794.4</ele>
        <time>2023-09-28T12:54:36Z</time>
      </trkpt>
      <trkpt lat="44.81879" lon="5.75716">
        <ele>794.4</ele>
        <time>2023-09-28T12:54:37Z</time>
      </trkpt>
      <trkpt lat="44.81875" lon="5.75713">
        <ele>794.4</ele>
        <time>2023-09-28T12:54:38Z</time>
      </trkpt>
      <trkpt lat="44.81871" lon="5.75712">
        <ele>794.5</ele>
        <time>2023-09-28T12:54:39Z</time>
      </trkpt>
      <trkpt lat="44.81867" lon="5.7571">
        <ele>794.5</ele>
        <time>2023-09-28T12:54:40Z</time>
      </trkpt>
      <trkpt lat="44.81862" lon="5.75707">
        <ele>794.5</ele>
        <time>2023-09-28T12:54:41Z</time>
      </trkpt>
      <trkpt lat="44.81857" lon="5.75705">
        <ele>794.6</ele>
        <time>2023-09-28T12:54:43Z</time>
      </trkpt>
      <trkpt lat="44.81853" lon="5.75705">
        <ele>794.6</ele>
        <time>2023-09-28T12:54:44Z</time>
      </trkpt>
      <trkpt lat="44.81847" lon="5.75702">
        <ele>794.6</ele>
        <time>2023-09-28T12:54:45Z</time>
      </trkpt>
      <trkpt lat="44.81842" lon="5.757">
        <ele>794.7</ele>
        <time>2023-09-28T12:54:46Z</time>
      </trkpt>
      <trkpt lat="44.81839" lon="5.75698">
        <ele>794.7</ele>
        <time>2023-09-28T12:54:47Z</time>
      </trkpt>
      <trkpt lat="44.81832" lon="5.75696">
        <ele>794.8</ele>
        <time>2023-09-28T12:54:49Z</time>
      </trkpt>
      <trkpt lat="44.81828" lon="5.75693">
        <ele>794.8</ele>
        <time>2023-09-28T12:54:50Z</time>
      </trkpt>
      <trkpt lat="44.81825" lon="5.75691">
        <ele>794.9</ele>
        <time>2023-09-28T12:54:52Z</time>
      </trkpt>
      <trkpt lat="44.8182" lon="5.75688">
        <ele>794.9</ele>
        <time>2023-09-28T12:54:53Z</time>
      </trkpt>
      <trkpt lat="44.81816" lon="5.75687">
        <ele>795</ele>
        <time>2023-09-28T12:54:54Z</time>
      </trkpt>
      <trkpt lat="44.81813" lon="5.75685">
        <ele>795</ele>
        <time>2023-09-28T12:54:55Z</time>
      </trkpt>
      <trkpt lat="44.81809" lon="5.75682">
        <ele>795</ele>
        <time>2023-09-28T12:54:57Z</time>
      </trkpt>
      <trkpt lat="44.81804" lon="5.7568">
        <ele>795.1</ele>
        <time>2023-09-28T12:54:58Z</time>
      </trkpt>
      <trkpt lat="44.81801" lon="5.75679">
        <ele>795.1</ele>
        <time>2023-09-28T12:54:59Z</time>
      </trkpt>
      <trkpt lat="44.81798" lon="5.75677">
        <ele>795.1</ele>
        <time>2023-09-28T12:55:00Z</time>
      </trkpt>
      <trkpt lat="44.81795" lon="5.75674">
        <ele>795.2</ele>
        <time>2023-09-28T12:55:02Z</time>
      </trkpt>
      <trkpt lat="44.81792" lon="5.75671">
        <ele>795.2</ele>
        <time>2023-09-28T12:55:03Z</time>
      </trkpt>
      <trkpt lat="44.8179" lon="5.75668">
        <ele>795.2</ele>
        <time>2023-09-28T12:55:04Z</time>
      </trkpt>
      <trkpt lat="44.81788" lon="5.75667">
        <ele>795.2</ele>
        <time>2023-09-28T12:55:05Z</time>
      </trkpt>
      <trkpt lat="44.81786" lon="5.75663">
        <ele>795.1</ele>
        <time>2023-09-28T12:55:06Z</time>
      </trkpt>
      <trkpt lat="44.81785" lon="5.75662">
        <ele>795.1</ele>
        <time>2023-09-28T12:55:07Z</time>
      </trkpt>
      <trkpt lat="44.81784" lon="5.75659">
        <ele>795.1</ele>
        <time>2023-09-28T12:55:08Z</time>
      </trkpt>
      <trkpt lat="44.81783" lon="5.75657">
        <ele>795</ele>
        <time>2023-09-28T12:55:10Z</time>
      </trkpt>
      <trkpt lat="44.81782" lon="5.75655">
        <ele>794.9</ele>
        <time>2023-09-28T12:55:11Z</time>
      </trkpt>
      <trkpt lat="44.81781" lon="5.75653">
        <ele>794.9</ele>
        <time>2023-09-28T12:55:12Z</time>
      </trkpt>
      <trkpt lat="44.8178" lon="5.75648">
        <ele>794.7</ele>
        <time>2023-09-28T12:55:14Z</time>
      </trkpt>
      <trkpt lat="44.8178" lon="5.75647">
        <ele>794.7</ele>
        <time>2023-09-28T12:55:15Z</time>
      </trkpt>
      <trkpt lat="44.81781" lon="5.75646">
        <ele>794.6</ele>
        <time>2023-09-28T12:55:16Z</time>
      </trkpt>
      <trkpt lat="44.81781" lon="5.75644">
        <ele>794.6</ele>
        <time>2023-09-28T12:55:17Z</time>
      </trkpt>
      <trkpt lat="44.81782" lon="5.75642">
        <ele>794.5</ele>
        <time>2023-09-28T12:55:19Z</time>
      </trkpt>
      <trkpt lat="44.8178" lon="5.75638">
        <ele>794.3</ele>
        <time>2023-09-28T12:55:20Z</time>
      </trkpt>
      <trkpt lat="44.81779" lon="5.75637">
        <ele>794.3</ele>
        <time>2023-09-28T12:55:21Z</time>
      </trkpt>
      <trkpt lat="44.81779" lon="5.75635">
        <ele>794.3</ele>
        <time>2023-09-28T12:55:22Z</time>
      </trkpt>
      <trkpt lat="44.81781" lon="5.75634">
        <ele>794.2</ele>
        <time>2023-09-28T12:55:24Z</time>
      </trkpt>
      <trkpt lat="44.81783" lon="5.75633">
        <ele>794.1</ele>
        <time>2023-09-28T12:55:25Z</time>
      </trkpt>
      <trkpt lat="44.81785" lon="5.75629">
        <ele>793.9</ele>
        <time>2023-09-28T12:55:27Z</time>
      </trkpt>
      <trkpt lat="44.81786" lon="5.75626">
        <ele>793.8</ele>
        <time>2023-09-28T12:55:28Z</time>
      </trkpt>
      <trkpt lat="44.81787" lon="5.75621">
        <ele>793.7</ele>
        <time>2023-09-28T12:55:29Z</time>
      </trkpt>
      <trkpt lat="44.81788" lon="5.75616">
        <ele>793.5</ele>
        <time>2023-09-28T12:55:30Z</time>
      </trkpt>
      <trkpt lat="44.81789" lon="5.75612">
        <ele>793.4</ele>
        <time>2023-09-28T12:55:31Z</time>
      </trkpt>
      <trkpt lat="44.8179" lon="5.75606">
        <ele>793.2</ele>
        <time>2023-09-28T12:55:33Z</time>
      </trkpt>
      <trkpt lat="44.81791" lon="5.75599">
        <ele>793</ele>
        <time>2023-09-28T12:55:34Z</time>
      </trkpt>
      <trkpt lat="44.81792" lon="5.75593">
        <ele>792.9</ele>
        <time>2023-09-28T12:55:35Z</time>
      </trkpt>
      <trkpt lat="44.81793" lon="5.75587">
        <ele>792.7</ele>
        <time>2023-09-28T12:55:36Z</time>
      </trkpt>
      <trkpt lat="44.81794" lon="5.75578">
        <ele>792.5</ele>
        <time>2023-09-28T12:55:37Z</time>
      </trkpt>
      <trkpt lat="44.81795" lon="5.75571">
        <ele>792.3</ele>
        <time>2023-09-28T12:55:38Z</time>
      </trkpt>
      <trkpt lat="44.81797" lon="5.75564">
        <ele>792.1</ele>
        <time>2023-09-28T12:55:39Z</time>
      </trkpt>
      <trkpt lat="44.81798" lon="5.75556">
        <ele>791.9</ele>
        <time>2023-09-28T12:55:40Z</time>
      </trkpt>
      <trkpt lat="44.81799" lon="5.75548">
        <ele>791.7</ele>
        <time>2023-09-28T12:55:41Z</time>
      </trkpt>
      <trkpt lat="44.818" lon="5.7554">
        <ele>791.5</ele>
        <time>2023-09-28T12:55:42Z</time>
      </trkpt>
      <trkpt lat="44.81801" lon="5.75532">
        <ele>791.2</ele>
        <time>2023-09-28T12:55:43Z</time>
      </trkpt>
      <trkpt lat="44.81802" lon="5.75523">
        <ele>791</ele>
        <time>2023-09-28T12:55:44Z</time>
      </trkpt>
      <trkpt lat="44.81804" lon="5.75515">
        <ele>790.8</ele>
        <time>2023-09-28T12:55:45Z</time>
      </trkpt>
      <trkpt lat="44.81805" lon="5.75508">
        <ele>790.6</ele>
        <time>2023-09-28T12:55:46Z</time>
      </trkpt>
      <trkpt lat="44.81806" lon="5.75501">
        <ele>790.4</ele>
        <time>2023-09-28T12:55:47Z</time>
      </trkpt>
      <trkpt lat="44.81807" lon="5.75495">
        <ele>790.3</ele>
        <time>2023-09-28T12:55:48Z</time>
      </trkpt>
      <trkpt lat="44.81808" lon="5.75488">
        <ele>790.1</ele>
        <time>2023-09-28T12:55:49Z</time>
      </trkpt>
      <trkpt lat="44.81809" lon="5.7548">
        <ele>789.9</ele>
        <time>2023-09-28T12:55:50Z</time>
      </trkpt>
      <trkpt lat="44.81809" lon="5.75472">
        <ele>789.7</ele>
        <time>2023-09-28T12:55:51Z</time>
      </trkpt>
      <trkpt lat="44.81808" lon="5.75464">
        <ele>789.5</ele>
        <time>2023-09-28T12:55:52Z</time>
      </trkpt>
      <trkpt lat="44.81808" lon="5.75456">
        <ele>789.3</ele>
        <time>2023-09-28T12:55:53Z</time>
      </trkpt>
      <trkpt lat="44.81808" lon="5.75447">
        <ele>789.1</ele>
        <time>2023-09-28T12:55:54Z</time>
      </trkpt>
      <trkpt lat="44.81807" lon="5.75438">
        <ele>788.9</ele>
        <time>2023-09-28T12:55:55Z</time>
      </trkpt>
      <trkpt lat="44.81806" lon="5.7543">
        <ele>788.6</ele>
        <time>2023-09-28T12:55:56Z</time>
      </trkpt>
      <trkpt lat="44.81806" lon="5.75421">
        <ele>788.4</ele>
        <time>2023-09-28T12:55:57Z</time>
      </trkpt>
      <trkpt lat="44.81805" lon="5.75413">
        <ele>788.2</ele>
        <time>2023-09-28T12:55:58Z</time>
      </trkpt>
      <trkpt lat="44.81803" lon="5.75406">
        <ele>788</ele>
        <time>2023-09-28T12:55:59Z</time>
      </trkpt>
      <trkpt lat="44.81802" lon="5.754">
        <ele>787.8</ele>
        <time>2023-09-28T12:56:00Z</time>
      </trkpt>
      <trkpt lat="44.81799" lon="5.75394">
        <ele>787.7</ele>
        <time>2023-09-28T12:56:01Z</time>
      </trkpt>
      <trkpt lat="44.81797" lon="5.75389">
        <ele>787.5</ele>
        <time>2023-09-28T12:56:02Z</time>
      </trkpt>
      <trkpt lat="44.81795" lon="5.75384">
        <ele>787.4</ele>
        <time>2023-09-28T12:56:03Z</time>
      </trkpt>
      <trkpt lat="44.81792" lon="5.75379">
        <ele>787.4</ele>
        <time>2023-09-28T12:56:04Z</time>
      </trkpt>
      <trkpt lat="44.8179" lon="5.75374">
        <ele>787.2</ele>
        <time>2023-09-28T12:56:05Z</time>
      </trkpt>
      <trkpt lat="44.81787" lon="5.75368">
        <ele>787</ele>
        <time>2023-09-28T12:56:06Z</time>
      </trkpt>
      <trkpt lat="44.81784" lon="5.75363">
        <ele>786.8</ele>
        <time>2023-09-28T12:56:07Z</time>
      </trkpt>
      <trkpt lat="44.81781" lon="5.75357">
        <ele>786.5</ele>
        <time>2023-09-28T12:56:08Z</time>
      </trkpt>
      <trkpt lat="44.81778" lon="5.75351">
        <ele>786.3</ele>
        <time>2023-09-28T12:56:09Z</time>
      </trkpt>
      <trkpt lat="44.81774" lon="5.75345">
        <ele>786.1</ele>
        <time>2023-09-28T12:56:10Z</time>
      </trkpt>
      <trkpt lat="44.81771" lon="5.75339">
        <ele>785.9</ele>
        <time>2023-09-28T12:56:11Z</time>
      </trkpt>
      <trkpt lat="44.81769" lon="5.75331">
        <ele>785.8</ele>
        <time>2023-09-28T12:56:12Z</time>
      </trkpt>
      <trkpt lat="44.81766" lon="5.75325">
        <ele>785.6</ele>
        <time>2023-09-28T12:56:13Z</time>
      </trkpt>
      <trkpt lat="44.81763" lon="5.75318">
        <ele>785.4</ele>
        <time>2023-09-28T12:56:14Z</time>
      </trkpt>
      <trkpt lat="44.8176" lon="5.75311">
        <ele>785.2</ele>
        <time>2023-09-28T12:56:15Z</time>
      </trkpt>
      <trkpt lat="44.81758" lon="5.75304">
        <ele>785.1</ele>
        <time>2023-09-28T12:56:16Z</time>
      </trkpt>
      <trkpt lat="44.81757" lon="5.75297">
        <ele>784.9</ele>
        <time>2023-09-28T12:56:17Z</time>
      </trkpt>
      <trkpt lat="44.81755" lon="5.75291">
        <ele>784.7</ele>
        <time>2023-09-28T12:56:18Z</time>
      </trkpt>
      <trkpt lat="44.81753" lon="5.75286">
        <ele>784.5</ele>
        <time>2023-09-28T12:56:19Z</time>
      </trkpt>
      <trkpt lat="44.81752" lon="5.7528">
        <ele>784.3</ele>
        <time>2023-09-28T12:56:20Z</time>
      </trkpt>
      <trkpt lat="44.8175" lon="5.75274">
        <ele>784.1</ele>
        <time>2023-09-28T12:56:21Z</time>
      </trkpt>
      <trkpt lat="44.81748" lon="5.75268">
        <ele>784</ele>
        <time>2023-09-28T12:56:22Z</time>
      </trkpt>
      <trkpt lat="44.81746" lon="5.75263">
        <ele>783.8</ele>
        <time>2023-09-28T12:56:23Z</time>
      </trkpt>
      <trkpt lat="44.81744" lon="5.75259">
        <ele>783.7</ele>
        <time>2023-09-28T12:56:24Z</time>
      </trkpt>
      <trkpt lat="44.81742" lon="5.75247">
        <ele>783.4</ele>
        <time>2023-09-28T12:56:26Z</time>
      </trkpt>
      <trkpt lat="44.81739" lon="5.7524">
        <ele>783.2</ele>
        <time>2023-09-28T12:56:28Z</time>
      </trkpt>
      <trkpt lat="44.81737" lon="5.75232">
        <ele>783</ele>
        <time>2023-09-28T12:56:29Z</time>
      </trkpt>
      <trkpt lat="44.81735" lon="5.75227">
        <ele>782.9</ele>
        <time>2023-09-28T12:56:30Z</time>
      </trkpt>
      <trkpt lat="44.81733" lon="5.7522">
        <ele>782.7</ele>
        <time>2023-09-28T12:56:31Z</time>
      </trkpt>
      <trkpt lat="44.81731" lon="5.75216">
        <ele>782.6</ele>
        <time>2023-09-28T12:56:32Z</time>
      </trkpt>
      <trkpt lat="44.81729" lon="5.7521">
        <ele>782.4</ele>
        <time>2023-09-28T12:56:33Z</time>
      </trkpt>
      <trkpt lat="44.81726" lon="5.75206">
        <ele>782.3</ele>
        <time>2023-09-28T12:56:35Z</time>
      </trkpt>
      <trkpt lat="44.81724" lon="5.75202">
        <ele>782.2</ele>
        <time>2023-09-28T12:56:36Z</time>
      </trkpt>
      <trkpt lat="44.81721" lon="5.75196">
        <ele>782</ele>
        <time>2023-09-28T12:56:37Z</time>
      </trkpt>
      <trkpt lat="44.81719" lon="5.75192">
        <ele>781.9</ele>
        <time>2023-09-28T12:56:38Z</time>
      </trkpt>
      <trkpt lat="44.81717" lon="5.75186">
        <ele>781.7</ele>
        <time>2023-09-28T12:56:39Z</time>
      </trkpt>
      <trkpt lat="44.81716" lon="5.75182">
        <ele>781.6</ele>
        <time>2023-09-28T12:56:40Z</time>
      </trkpt>
      <trkpt lat="44.81715" lon="5.75178">
        <ele>781.5</ele>
        <time>2023-09-28T12:56:41Z</time>
      </trkpt>
      <trkpt lat="44.81716" lon="5.75174">
        <ele>781.4</ele>
        <time>2023-09-28T12:56:42Z</time>
      </trkpt>
      <trkpt lat="44.81716" lon="5.75173">
        <ele>781.4</ele>
        <time>2023-09-28T12:56:43Z</time>
      </trkpt>
      <trkpt lat="44.81716" lon="5.7517">
        <ele>781.3</ele>
        <time>2023-09-28T12:56:45Z</time>
      </trkpt>
      <trkpt lat="44.81716" lon="5.75168">
        <ele>781.3</ele>
        <time>2023-09-28T12:56:46Z</time>
      </trkpt>
      <trkpt lat="44.81716" lon="5.75167">
        <ele>781.3</ele>
        <time>2023-09-28T12:56:47Z</time>
      </trkpt>
      <trkpt lat="44.81716" lon="5.75164">
        <ele>781.2</ele>
        <time>2023-09-28T12:56:48Z</time>
      </trkpt>
      <trkpt lat="44.81715" lon="5.75158">
        <ele>781.1</ele>
        <time>2023-09-28T12:56:49Z</time>
      </trkpt>
      <trkpt lat="44.81714" lon="5.75156">
        <ele>781</ele>
        <time>2023-09-28T12:56:50Z</time>
      </trkpt>
      <trkpt lat="44.81714" lon="5.75152">
        <ele>780.9</ele>
        <time>2023-09-28T12:56:51Z</time>
      </trkpt>
      <trkpt lat="44.81712" lon="5.75143">
        <ele>780.6</ele>
        <time>2023-09-28T12:56:53Z</time>
      </trkpt>
      <trkpt lat="44.81711" lon="5.75137">
        <ele>780.4</ele>
        <time>2023-09-28T12:56:54Z</time>
      </trkpt>
      <trkpt lat="44.8171" lon="5.7513">
        <ele>780.2</ele>
        <time>2023-09-28T12:56:56Z</time>
      </trkpt>
      <trkpt lat="44.81709" lon="5.75125">
        <ele>780.1</ele>
        <time>2023-09-28T12:56:57Z</time>
      </trkpt>
      <trkpt lat="44.81707" lon="5.75119">
        <ele>779.9</ele>
        <time>2023-09-28T12:56:58Z</time>
      </trkpt>
      <trkpt lat="44.81707" lon="5.75113">
        <ele>779.7</ele>
        <time>2023-09-28T12:56:59Z</time>
      </trkpt>
      <trkpt lat="44.81706" lon="5.75107">
        <ele>779.6</ele>
        <time>2023-09-28T12:57:00Z</time>
      </trkpt>
      <trkpt lat="44.81705" lon="5.75102">
        <ele>779.4</ele>
        <time>2023-09-28T12:57:01Z</time>
      </trkpt>
      <trkpt lat="44.81705" lon="5.75096">
        <ele>779.3</ele>
        <time>2023-09-28T12:57:02Z</time>
      </trkpt>
      <trkpt lat="44.81703" lon="5.7509">
        <ele>779.1</ele>
        <time>2023-09-28T12:57:03Z</time>
      </trkpt>
      <trkpt lat="44.81702" lon="5.75083">
        <ele>779</ele>
        <time>2023-09-28T12:57:05Z</time>
      </trkpt>
      <trkpt lat="44.81701" lon="5.75078">
        <ele>778.8</ele>
        <time>2023-09-28T12:57:06Z</time>
      </trkpt>
      <trkpt lat="44.817" lon="5.75073">
        <ele>778.7</ele>
        <time>2023-09-28T12:57:07Z</time>
      </trkpt>
      <trkpt lat="44.81699" lon="5.75069">
        <ele>778.6</ele>
        <time>2023-09-28T12:57:08Z</time>
      </trkpt>
      <trkpt lat="44.81698" lon="5.75064">
        <ele>778.4</ele>
        <time>2023-09-28T12:57:09Z</time>
      </trkpt>
      <trkpt lat="44.81698" lon="5.75062">
        <ele>778.4</ele>
        <time>2023-09-28T12:57:10Z</time>
      </trkpt>
      <trkpt lat="44.81698" lon="5.75059">
        <ele>778.3</ele>
        <time>2023-09-28T12:57:12Z</time>
      </trkpt>
      <trkpt lat="44.81698" lon="5.75057">
        <ele>778.3</ele>
        <time>2023-09-28T12:57:13Z</time>
      </trkpt>
      <trkpt lat="44.81697" lon="5.75054">
        <ele>778.2</ele>
        <time>2023-09-28T12:57:14Z</time>
      </trkpt>
      <trkpt lat="44.81695" lon="5.75052">
        <ele>778.2</ele>
        <time>2023-09-28T12:57:15Z</time>
      </trkpt>
      <trkpt lat="44.81692" lon="5.75048">
        <ele>777.9</ele>
        <time>2023-09-28T12:57:17Z</time>
      </trkpt>
      <trkpt lat="44.81691" lon="5.75046">
        <ele>777.8</ele>
        <time>2023-09-28T12:57:18Z</time>
      </trkpt>
      <trkpt lat="44.81689" lon="5.75044">
        <ele>777.7</ele>
        <time>2023-09-28T12:57:19Z</time>
      </trkpt>
      <trkpt lat="44.81688" lon="5.75039">
        <ele>777.5</ele>
        <time>2023-09-28T12:57:20Z</time>
      </trkpt>
      <trkpt lat="44.81687" lon="5.75037">
        <ele>777.4</ele>
        <time>2023-09-28T12:57:21Z</time>
      </trkpt>
      <trkpt lat="44.81686" lon="5.75033">
        <ele>777.2</ele>
        <time>2023-09-28T12:57:22Z</time>
      </trkpt>
      <trkpt lat="44.81685" lon="5.75028">
        <ele>776.9</ele>
        <time>2023-09-28T12:57:23Z</time>
      </trkpt>
      <trkpt lat="44.81685" lon="5.7502">
        <ele>776.6</ele>
        <time>2023-09-28T12:57:25Z</time>
      </trkpt>
      <trkpt lat="44.81685" lon="5.75014">
        <ele>776.3</ele>
        <time>2023-09-28T12:57:26Z</time>
      </trkpt>
      <trkpt lat="44.81684" lon="5.75008">
        <ele>776.1</ele>
        <time>2023-09-28T12:57:27Z</time>
      </trkpt>
      <trkpt lat="44.81683" lon="5.75001">
        <ele>775.8</ele>
        <time>2023-09-28T12:57:29Z</time>
      </trkpt>
      <trkpt lat="44.81682" lon="5.74994">
        <ele>775.5</ele>
        <time>2023-09-28T12:57:30Z</time>
      </trkpt>
      <trkpt lat="44.81681" lon="5.74986">
        <ele>775.3</ele>
        <time>2023-09-28T12:57:31Z</time>
      </trkpt>
      <trkpt lat="44.8168" lon="5.74976">
        <ele>774.9</ele>
        <time>2023-09-28T12:57:32Z</time>
      </trkpt>
      <trkpt lat="44.8168" lon="5.74969">
        <ele>774.7</ele>
        <time>2023-09-28T12:57:33Z</time>
      </trkpt>
      <trkpt lat="44.8168" lon="5.74962">
        <ele>774.5</ele>
        <time>2023-09-28T12:57:34Z</time>
      </trkpt>
      <trkpt lat="44.8168" lon="5.74954">
        <ele>774.3</ele>
        <time>2023-09-28T12:57:35Z</time>
      </trkpt>
      <trkpt lat="44.81679" lon="5.74947">
        <ele>774.1</ele>
        <time>2023-09-28T12:57:36Z</time>
      </trkpt>
      <trkpt lat="44.81678" lon="5.7494">
        <ele>773.9</ele>
        <time>2023-09-28T12:57:37Z</time>
      </trkpt>
      <trkpt lat="44.81677" lon="5.74932">
        <ele>773.8</ele>
        <time>2023-09-28T12:57:38Z</time>
      </trkpt>
      <trkpt lat="44.81676" lon="5.74924">
        <ele>773.6</ele>
        <time>2023-09-28T12:57:39Z</time>
      </trkpt>
      <trkpt lat="44.81675" lon="5.74916">
        <ele>773.5</ele>
        <time>2023-09-28T12:57:40Z</time>
      </trkpt>
      <trkpt lat="44.81674" lon="5.74909">
        <ele>773.4</ele>
        <time>2023-09-28T12:57:41Z</time>
      </trkpt>
      <trkpt lat="44.81674" lon="5.74902">
        <ele>773.3</ele>
        <time>2023-09-28T12:57:42Z</time>
      </trkpt>
      <trkpt lat="44.81674" lon="5.74895">
        <ele>773.2</ele>
        <time>2023-09-28T12:57:43Z</time>
      </trkpt>
      <trkpt lat="44.81674" lon="5.74888">
        <ele>773.1</ele>
        <time>2023-09-28T12:57:44Z</time>
      </trkpt>
      <trkpt lat="44.81673" lon="5.74881">
        <ele>773</ele>
        <time>2023-09-28T12:57:45Z</time>
      </trkpt>
      <trkpt lat="44.81673" lon="5.74873">
        <ele>772.9</ele>
        <time>2023-09-28T12:57:46Z</time>
      </trkpt>
      <trkpt lat="44.81673" lon="5.74866">
        <ele>772.8</ele>
        <time>2023-09-28T12:57:47Z</time>
      </trkpt>
      <trkpt lat="44.81673" lon="5.74859">
        <ele>772.7</ele>
        <time>2023-09-28T12:57:48Z</time>
      </trkpt>
      <trkpt lat="44.81673" lon="5.74852">
        <ele>772.6</ele>
        <time>2023-09-28T12:57:49Z</time>
      </trkpt>
      <trkpt lat="44.81674" lon="5.74847">
        <ele>772.5</ele>
        <time>2023-09-28T12:57:50Z</time>
      </trkpt>
      <trkpt lat="44.81674" lon="5.74842">
        <ele>772.4</ele>
        <time>2023-09-28T12:57:51Z</time>
      </trkpt>
      <trkpt lat="44.81674" lon="5.74837">
        <ele>772.4</ele>
        <time>2023-09-28T12:57:52Z</time>
      </trkpt>
      <trkpt lat="44.81674" lon="5.74832">
        <ele>772.3</ele>
        <time>2023-09-28T12:57:53Z</time>
      </trkpt>
      <trkpt lat="44.81674" lon="5.74828">
        <ele>772.2</ele>
        <time>2023-09-28T12:57:54Z</time>
      </trkpt>
      <trkpt lat="44.81673" lon="5.74823">
        <ele>772.2</ele>
        <time>2023-09-28T12:57:55Z</time>
      </trkpt>
      <trkpt lat="44.81673" lon="5.74819">
        <ele>772.1</ele>
        <time>2023-09-28T12:57:56Z</time>
      </trkpt>
      <trkpt lat="44.81673" lon="5.74815">
        <ele>772</ele>
        <time>2023-09-28T12:57:57Z</time>
      </trkpt>
      <trkpt lat="44.81671" lon="5.7481">
        <ele>771.9</ele>
        <time>2023-09-28T12:57:59Z</time>
      </trkpt>
      <trkpt lat="44.81667" lon="5.74806">
        <ele>771.8</ele>
        <time>2023-09-28T12:58:00Z</time>
      </trkpt>
      <trkpt lat="44.81662" lon="5.74805">
        <ele>771.8</ele>
        <time>2023-09-28T12:58:01Z</time>
      </trkpt>
      <trkpt lat="44.81657" lon="5.74805">
        <ele>771.8</ele>
        <time>2023-09-28T12:58:02Z</time>
      </trkpt>
      <trkpt lat="44.81653" lon="5.74805">
        <ele>771.8</ele>
        <time>2023-09-28T12:58:03Z</time>
      </trkpt>
      <trkpt lat="44.81649" lon="5.74806">
        <ele>771.8</ele>
        <time>2023-09-28T12:58:04Z</time>
      </trkpt>
      <trkpt lat="44.81645" lon="5.74807">
        <ele>771.9</ele>
        <time>2023-09-28T12:58:05Z</time>
      </trkpt>
      <trkpt lat="44.81641" lon="5.74809">
        <ele>771.9</ele>
        <time>2023-09-28T12:58:07Z</time>
      </trkpt>
      <trkpt lat="44.81637" lon="5.7481">
        <ele>771.9</ele>
        <time>2023-09-28T12:58:08Z</time>
      </trkpt>
      <trkpt lat="44.81632" lon="5.74811">
        <ele>771.9</ele>
        <time>2023-09-28T12:58:09Z</time>
      </trkpt>
      <trkpt lat="44.81628" lon="5.74812">
        <ele>771.9</ele>
        <time>2023-09-28T12:58:10Z</time>
      </trkpt>
      <trkpt lat="44.81625" lon="5.74812">
        <ele>771.9</ele>
        <time>2023-09-28T12:58:11Z</time>
      </trkpt>
      <trkpt lat="44.8162" lon="5.74813">
        <ele>771.9</ele>
        <time>2023-09-28T12:58:12Z</time>
      </trkpt>
      <trkpt lat="44.81616" lon="5.74813">
        <ele>771.9</ele>
        <time>2023-09-28T12:58:13Z</time>
      </trkpt>
      <trkpt lat="44.81612" lon="5.74813">
        <ele>771.9</ele>
        <time>2023-09-28T12:58:14Z</time>
      </trkpt>
      <trkpt lat="44.81607" lon="5.74814">
        <ele>771.9</ele>
        <time>2023-09-28T12:58:15Z</time>
      </trkpt>
      <trkpt lat="44.81602" lon="5.74816">
        <ele>771.9</ele>
        <time>2023-09-28T12:58:17Z</time>
      </trkpt>
      <trkpt lat="44.81598" lon="5.74817">
        <ele>771.9</ele>
        <time>2023-09-28T12:58:18Z</time>
      </trkpt>
      <trkpt lat="44.81593" lon="5.74815">
        <ele>771.9</ele>
        <time>2023-09-28T12:58:19Z</time>
      </trkpt>
      <trkpt lat="44.81589" lon="5.74816">
        <ele>771.8</ele>
        <time>2023-09-28T12:58:20Z</time>
      </trkpt>
      <trkpt lat="44.81585" lon="5.74819">
        <ele>771.8</ele>
        <time>2023-09-28T12:58:21Z</time>
      </trkpt>
      <trkpt lat="44.8158" lon="5.74821">
        <ele>771.8</ele>
        <time>2023-09-28T12:58:22Z</time>
      </trkpt>
      <trkpt lat="44.81574" lon="5.74825">
        <ele>771.8</ele>
        <time>2023-09-28T12:58:24Z</time>
      </trkpt>
      <trkpt lat="44.8157" lon="5.74827">
        <ele>771.8</ele>
        <time>2023-09-28T12:58:25Z</time>
      </trkpt>
      <trkpt lat="44.81566" lon="5.74829">
        <ele>771.8</ele>
        <time>2023-09-28T12:58:26Z</time>
      </trkpt>
      <trkpt lat="44.81563" lon="5.74831">
        <ele>771.8</ele>
        <time>2023-09-28T12:58:27Z</time>
      </trkpt>
      <trkpt lat="44.81558" lon="5.74834">
        <ele>771.8</ele>
        <time>2023-09-28T12:58:28Z</time>
      </trkpt>
      <trkpt lat="44.81553" lon="5.74836">
        <ele>771.8</ele>
        <time>2023-09-28T12:58:29Z</time>
      </trkpt>
      <trkpt lat="44.81547" lon="5.7484">
        <ele>771.8</ele>
        <time>2023-09-28T12:58:31Z</time>
      </trkpt>
      <trkpt lat="44.81543" lon="5.74843">
        <ele>771.8</ele>
        <time>2023-09-28T12:58:32Z</time>
      </trkpt>
      <trkpt lat="44.81539" lon="5.74846">
        <ele>771.7</ele>
        <time>2023-09-28T12:58:33Z</time>
      </trkpt>
      <trkpt lat="44.81531" lon="5.74852">
        <ele>771.7</ele>
        <time>2023-09-28T12:58:35Z</time>
      </trkpt>
      <trkpt lat="44.81527" lon="5.74856">
        <ele>771.7</ele>
        <time>2023-09-28T12:58:37Z</time>
      </trkpt>
      <trkpt lat="44.8152" lon="5.7486">
        <ele>771.7</ele>
        <time>2023-09-28T12:58:38Z</time>
      </trkpt>
      <trkpt lat="44.81516" lon="5.74863">
        <ele>771.7</ele>
        <time>2023-09-28T12:58:39Z</time>
      </trkpt>
      <trkpt lat="44.81511" lon="5.74866">
        <ele>771.6</ele>
        <time>2023-09-28T12:58:40Z</time>
      </trkpt>
      <trkpt lat="44.81507" lon="5.7487">
        <ele>771.6</ele>
        <time>2023-09-28T12:58:41Z</time>
      </trkpt>
      <trkpt lat="44.81504" lon="5.74874">
        <ele>771.6</ele>
        <time>2023-09-28T12:58:42Z</time>
      </trkpt>
      <trkpt lat="44.81501" lon="5.74879">
        <ele>771.6</ele>
        <time>2023-09-28T12:58:43Z</time>
      </trkpt>
      <trkpt lat="44.81499" lon="5.74884">
        <ele>771.6</ele>
        <time>2023-09-28T12:58:44Z</time>
      </trkpt>
      <trkpt lat="44.81496" lon="5.74889">
        <ele>771.6</ele>
        <time>2023-09-28T12:58:45Z</time>
      </trkpt>
      <trkpt lat="44.8149" lon="5.74896">
        <ele>771.6</ele>
        <time>2023-09-28T12:58:47Z</time>
      </trkpt>
      <trkpt lat="44.81488" lon="5.74901">
        <ele>771.6</ele>
        <time>2023-09-28T12:58:48Z</time>
      </trkpt>
      <trkpt lat="44.81484" lon="5.74907">
        <ele>771.6</ele>
        <time>2023-09-28T12:58:49Z</time>
      </trkpt>
      <trkpt lat="44.8148" lon="5.74911">
        <ele>771.7</ele>
        <time>2023-09-28T12:58:51Z</time>
      </trkpt>
      <trkpt lat="44.81476" lon="5.74915">
        <ele>771.7</ele>
        <time>2023-09-28T12:58:52Z</time>
      </trkpt>
      <trkpt lat="44.81471" lon="5.74916">
        <ele>771.7</ele>
        <time>2023-09-28T12:58:53Z</time>
      </trkpt>
      <trkpt lat="44.81467" lon="5.74917">
        <ele>771.6</ele>
        <time>2023-09-28T12:58:54Z</time>
      </trkpt>
      <trkpt lat="44.81464" lon="5.74917">
        <ele>771.4</ele>
        <time>2023-09-28T12:58:55Z</time>
      </trkpt>
      <trkpt lat="44.81461" lon="5.74918">
        <ele>771.3</ele>
        <time>2023-09-28T12:58:56Z</time>
      </trkpt>
      <trkpt lat="44.81458" lon="5.74919">
        <ele>771.1</ele>
        <time>2023-09-28T12:58:57Z</time>
      </trkpt>
      <trkpt lat="44.81457" lon="5.74916">
        <ele>770.9</ele>
        <time>2023-09-28T12:58:58Z</time>
      </trkpt>
      <trkpt lat="44.81456" lon="5.74911">
        <ele>770.8</ele>
        <time>2023-09-28T12:59:00Z</time>
      </trkpt>
      <trkpt lat="44.81458" lon="5.74912">
        <ele>770.7</ele>
        <time>2023-09-28T12:59:01Z</time>
      </trkpt>
      <trkpt lat="44.81458" lon="5.74911">
        <ele>770.6</ele>
        <time>2023-09-28T12:59:02Z</time>
      </trkpt>
      <trkpt lat="44.81458" lon="5.74909">
        <ele>770.6</ele>
        <time>2023-09-28T12:59:04Z</time>
      </trkpt>
      <trkpt lat="44.81458" lon="5.74908">
        <ele>770.5</ele>
        <time>2023-09-28T12:59:05Z</time>
      </trkpt>
      <trkpt lat="44.81458" lon="5.74908">
        <ele>770.5</ele>
        <time>2023-09-28T12:59:06Z</time>
      </trkpt>
      <trkpt lat="44.81458" lon="5.74908">
        <ele>770.5</ele>
        <time>2023-09-28T12:59:07Z</time>
      </trkpt>
      <trkpt lat="44.81458" lon="5.74907">
        <ele>770.5</ele>
        <time>2023-09-28T12:59:09Z</time>
      </trkpt>
      <trkpt lat="44.81458" lon="5.74906">
        <ele>770.5</ele>
        <time>2023-09-28T12:59:10Z</time>
      </trkpt>
      <trkpt lat="44.81458" lon="5.74906">
        <ele>770.4</ele>
        <time>2023-09-28T12:59:11Z</time>
      </trkpt>
      <trkpt lat="44.81458" lon="5.74906">
        <ele>770.4</ele>
        <time>2023-09-28T12:59:13Z</time>
      </trkpt>
      <trkpt lat="44.81457" lon="5.74906">
        <ele>770.4</ele>
        <time>2023-09-28T12:59:14Z</time>
      </trkpt>
      <trkpt lat="44.81458" lon="5.74906">
        <ele>770.4</ele>
        <time>2023-09-28T12:59:15Z</time>
      </trkpt>
      <trkpt lat="44.81458" lon="5.74906">
        <ele>770.4</ele>
        <time>2023-09-28T12:59:17Z</time>
      </trkpt>
      <trkpt lat="44.81457" lon="5.74906">
        <ele>770.4</ele>
        <time>2023-09-28T12:59:18Z</time>
      </trkpt>
      <trkpt lat="44.81457" lon="5.74906">
        <ele>770.4</ele>
        <time>2023-09-28T12:59:19Z</time>
      </trkpt>
      <trkpt lat="44.81457" lon="5.74906">
        <ele>770.4</ele>
        <time>2023-09-28T12:59:21Z</time>
      </trkpt>
    </trkseg>
  </trk>
</gpx>